<?xml version="1.0" encoding="UTF-8" standalone="no" ?>
<gpx xmlns="http://www.topografix.com/GPX/1/1" xmlns:xsi="http://www.w3.org/2001/XMLSchema-instance" xsi:schemaLocation="http://www.topografix.com/GPX/1/1 http://www.topografix.com/GPX/1/1/gpx.xsd" version="1.1" creator="VisuGPX - https://www.visugpx.com">
  <metadata>
    <name>N-S-Nantes Coueron Sautron Nord/Erdre Ligné Le  Cellier Nantes</name>
    <desc><![CDATA[N-S-Nantes Coueron Sautron Nord/Erdre Ligné Le  Cellier Nantes]]></desc>
  </metadata>
  <trk>
    <name><![CDATA[2020-09-26 10:47 +02:00]]></name>
    <trkseg>
      <trkpt lat="47.16788" lon="-1.62657">
        <ele>73</ele>
        <time>2020-09-26T08:47:10.000Z</time>
      </trkpt>
      <trkpt lat="47.16798" lon="-1.62643">
        <ele>68</ele>
        <time>2020-09-26T08:49:12.000Z</time>
      </trkpt>
      <trkpt lat="47.16805" lon="-1.6263">
        <ele>68</ele>
        <time>2020-09-26T08:49:14.000Z</time>
      </trkpt>
      <trkpt lat="47.16812" lon="-1.62618">
        <ele>67</ele>
        <time>2020-09-26T08:49:16.000Z</time>
      </trkpt>
      <trkpt lat="47.1682" lon="-1.62604">
        <ele>67</ele>
        <time>2020-09-26T08:49:18.000Z</time>
      </trkpt>
      <trkpt lat="47.16828" lon="-1.6259">
        <ele>67</ele>
        <time>2020-09-26T08:49:20.000Z</time>
      </trkpt>
      <trkpt lat="47.16833" lon="-1.62575">
        <ele>66</ele>
        <time>2020-09-26T08:49:22.000Z</time>
      </trkpt>
      <trkpt lat="47.16823" lon="-1.62561">
        <ele>66</ele>
        <time>2020-09-26T08:49:24.000Z</time>
      </trkpt>
      <trkpt lat="47.16811" lon="-1.62551">
        <ele>66</ele>
        <time>2020-09-26T08:49:26.000Z</time>
      </trkpt>
      <trkpt lat="47.16799" lon="-1.62543">
        <ele>67</ele>
        <time>2020-09-26T08:49:28.000Z</time>
      </trkpt>
      <trkpt lat="47.16787" lon="-1.62535">
        <ele>67</ele>
        <time>2020-09-26T08:49:30.000Z</time>
      </trkpt>
      <trkpt lat="47.16774" lon="-1.62527">
        <ele>67</ele>
        <time>2020-09-26T08:49:32.000Z</time>
      </trkpt>
      <trkpt lat="47.16761" lon="-1.62519">
        <ele>67</ele>
        <time>2020-09-26T08:49:34.000Z</time>
      </trkpt>
      <trkpt lat="47.16748" lon="-1.62513">
        <ele>67</ele>
        <time>2020-09-26T08:49:36.000Z</time>
      </trkpt>
      <trkpt lat="47.16735" lon="-1.62507">
        <ele>67</ele>
        <time>2020-09-26T08:49:38.000Z</time>
      </trkpt>
      <trkpt lat="47.16724" lon="-1.62502">
        <ele>66</ele>
        <time>2020-09-26T08:49:40.000Z</time>
      </trkpt>
      <trkpt lat="47.16715" lon="-1.62497">
        <ele>67</ele>
        <time>2020-09-26T08:49:42.000Z</time>
      </trkpt>
      <trkpt lat="47.16711" lon="-1.62482">
        <ele>67</ele>
        <time>2020-09-26T08:49:44.000Z</time>
      </trkpt>
      <trkpt lat="47.16713" lon="-1.62462">
        <ele>67</ele>
        <time>2020-09-26T08:49:46.000Z</time>
      </trkpt>
      <trkpt lat="47.16716" lon="-1.62442">
        <ele>67</ele>
        <time>2020-09-26T08:49:48.000Z</time>
      </trkpt>
      <trkpt lat="47.16722" lon="-1.62421">
        <ele>67</ele>
        <time>2020-09-26T08:49:50.000Z</time>
      </trkpt>
      <trkpt lat="47.16729" lon="-1.62402">
        <ele>67</ele>
        <time>2020-09-26T08:49:52.000Z</time>
      </trkpt>
      <trkpt lat="47.16735" lon="-1.62381">
        <ele>68</ele>
        <time>2020-09-26T08:49:54.000Z</time>
      </trkpt>
      <trkpt lat="47.16744" lon="-1.62363">
        <ele>68</ele>
        <time>2020-09-26T08:49:56.000Z</time>
      </trkpt>
      <trkpt lat="47.16756" lon="-1.62351">
        <ele>69</ele>
        <time>2020-09-26T08:49:58.000Z</time>
      </trkpt>
      <trkpt lat="47.16769" lon="-1.62342">
        <ele>69</ele>
        <time>2020-09-26T08:50:00.000Z</time>
      </trkpt>
      <trkpt lat="47.16783" lon="-1.62335">
        <ele>69</ele>
        <time>2020-09-26T08:50:02.000Z</time>
      </trkpt>
      <trkpt lat="47.16797" lon="-1.62328">
        <ele>69</ele>
        <time>2020-09-26T08:50:04.000Z</time>
      </trkpt>
      <trkpt lat="47.1681" lon="-1.6232">
        <ele>69</ele>
        <time>2020-09-26T08:50:06.000Z</time>
      </trkpt>
      <trkpt lat="47.16822" lon="-1.62311">
        <ele>69</ele>
        <time>2020-09-26T08:50:08.000Z</time>
      </trkpt>
      <trkpt lat="47.16834" lon="-1.623">
        <ele>69</ele>
        <time>2020-09-26T08:50:10.000Z</time>
      </trkpt>
      <trkpt lat="47.16845" lon="-1.62286">
        <ele>69</ele>
        <time>2020-09-26T08:50:12.000Z</time>
      </trkpt>
      <trkpt lat="47.16856" lon="-1.62272">
        <ele>69</ele>
        <time>2020-09-26T08:50:14.000Z</time>
      </trkpt>
      <trkpt lat="47.16867" lon="-1.62258">
        <ele>69</ele>
        <time>2020-09-26T08:50:16.000Z</time>
      </trkpt>
      <trkpt lat="47.16878" lon="-1.62245">
        <ele>69</ele>
        <time>2020-09-26T08:50:18.000Z</time>
      </trkpt>
      <trkpt lat="47.1689" lon="-1.6223">
        <ele>69</ele>
        <time>2020-09-26T08:50:20.000Z</time>
      </trkpt>
      <trkpt lat="47.169" lon="-1.62214">
        <ele>69</ele>
        <time>2020-09-26T08:50:22.000Z</time>
      </trkpt>
      <trkpt lat="47.16911" lon="-1.62198">
        <ele>69</ele>
        <time>2020-09-26T08:50:24.000Z</time>
      </trkpt>
      <trkpt lat="47.16921" lon="-1.62182">
        <ele>69</ele>
        <time>2020-09-26T08:50:26.000Z</time>
      </trkpt>
      <trkpt lat="47.16931" lon="-1.62164">
        <ele>68</ele>
        <time>2020-09-26T08:50:28.000Z</time>
      </trkpt>
      <trkpt lat="47.1694" lon="-1.62146">
        <ele>68</ele>
        <time>2020-09-26T08:50:30.000Z</time>
      </trkpt>
      <trkpt lat="47.16949" lon="-1.62129">
        <ele>68</ele>
        <time>2020-09-26T08:50:32.000Z</time>
      </trkpt>
      <trkpt lat="47.16958" lon="-1.62112">
        <ele>68</ele>
        <time>2020-09-26T08:50:34.000Z</time>
      </trkpt>
      <trkpt lat="47.16967" lon="-1.62094">
        <ele>68</ele>
        <time>2020-09-26T08:50:36.000Z</time>
      </trkpt>
      <trkpt lat="47.16976" lon="-1.62077">
        <ele>68</ele>
        <time>2020-09-26T08:50:38.000Z</time>
      </trkpt>
      <trkpt lat="47.16985" lon="-1.6206">
        <ele>68</ele>
        <time>2020-09-26T08:50:40.000Z</time>
      </trkpt>
      <trkpt lat="47.16994" lon="-1.62044">
        <ele>68</ele>
        <time>2020-09-26T08:50:42.000Z</time>
      </trkpt>
      <trkpt lat="47.17004" lon="-1.62028">
        <ele>68</ele>
        <time>2020-09-26T08:50:44.000Z</time>
      </trkpt>
      <trkpt lat="47.17015" lon="-1.62012">
        <ele>68</ele>
        <time>2020-09-26T08:50:46.000Z</time>
      </trkpt>
      <trkpt lat="47.17025" lon="-1.61997">
        <ele>68</ele>
        <time>2020-09-26T08:50:48.000Z</time>
      </trkpt>
      <trkpt lat="47.17035" lon="-1.61982">
        <ele>68</ele>
        <time>2020-09-26T08:50:50.000Z</time>
      </trkpt>
      <trkpt lat="47.17045" lon="-1.61967">
        <ele>68</ele>
        <time>2020-09-26T08:50:52.000Z</time>
      </trkpt>
      <trkpt lat="47.17055" lon="-1.61953">
        <ele>68</ele>
        <time>2020-09-26T08:50:54.000Z</time>
      </trkpt>
      <trkpt lat="47.17066" lon="-1.6194">
        <ele>67</ele>
        <time>2020-09-26T08:50:56.000Z</time>
      </trkpt>
      <trkpt lat="47.17076" lon="-1.61927">
        <ele>68</ele>
        <time>2020-09-26T08:50:58.000Z</time>
      </trkpt>
      <trkpt lat="47.17086" lon="-1.61916">
        <ele>67</ele>
        <time>2020-09-26T08:51:00.000Z</time>
      </trkpt>
      <trkpt lat="47.17098" lon="-1.61905">
        <ele>67</ele>
        <time>2020-09-26T08:51:02.000Z</time>
      </trkpt>
      <trkpt lat="47.1711" lon="-1.61895">
        <ele>68</ele>
        <time>2020-09-26T08:51:04.000Z</time>
      </trkpt>
      <trkpt lat="47.17122" lon="-1.61884">
        <ele>68</ele>
        <time>2020-09-26T08:51:06.000Z</time>
      </trkpt>
      <trkpt lat="47.17133" lon="-1.61872">
        <ele>68</ele>
        <time>2020-09-26T08:51:08.000Z</time>
      </trkpt>
      <trkpt lat="47.17145" lon="-1.61861">
        <ele>67</ele>
        <time>2020-09-26T08:51:10.000Z</time>
      </trkpt>
      <trkpt lat="47.17156" lon="-1.6185">
        <ele>67</ele>
        <time>2020-09-26T08:51:12.000Z</time>
      </trkpt>
      <trkpt lat="47.17167" lon="-1.6184">
        <ele>68</ele>
        <time>2020-09-26T08:51:14.000Z</time>
      </trkpt>
      <trkpt lat="47.17178" lon="-1.61828">
        <ele>68</ele>
        <time>2020-09-26T08:51:16.000Z</time>
      </trkpt>
      <trkpt lat="47.1719" lon="-1.61818">
        <ele>67</ele>
        <time>2020-09-26T08:51:18.000Z</time>
      </trkpt>
      <trkpt lat="47.17201" lon="-1.61807">
        <ele>67</ele>
        <time>2020-09-26T08:51:20.000Z</time>
      </trkpt>
      <trkpt lat="47.17213" lon="-1.61796">
        <ele>67</ele>
        <time>2020-09-26T08:51:22.000Z</time>
      </trkpt>
      <trkpt lat="47.1722" lon="-1.61786">
        <ele>67</ele>
        <time>2020-09-26T08:51:24.000Z</time>
      </trkpt>
      <trkpt lat="47.17224" lon="-1.61773">
        <ele>66</ele>
        <time>2020-09-26T08:51:27.000Z</time>
      </trkpt>
      <trkpt lat="47.17226" lon="-1.6176">
        <ele>66</ele>
        <time>2020-09-26T08:51:29.000Z</time>
      </trkpt>
      <trkpt lat="47.17234" lon="-1.61749">
        <ele>66</ele>
        <time>2020-09-26T08:51:31.000Z</time>
      </trkpt>
      <trkpt lat="47.17244" lon="-1.61739">
        <ele>66</ele>
        <time>2020-09-26T08:51:33.000Z</time>
      </trkpt>
      <trkpt lat="47.17252" lon="-1.61726">
        <ele>65</ele>
        <time>2020-09-26T08:51:35.000Z</time>
      </trkpt>
      <trkpt lat="47.1726" lon="-1.6171">
        <ele>65</ele>
        <time>2020-09-26T08:51:37.000Z</time>
      </trkpt>
      <trkpt lat="47.17268" lon="-1.61694">
        <ele>65</ele>
        <time>2020-09-26T08:51:39.000Z</time>
      </trkpt>
      <trkpt lat="47.17276" lon="-1.61677">
        <ele>66</ele>
        <time>2020-09-26T08:51:41.000Z</time>
      </trkpt>
      <trkpt lat="47.17284" lon="-1.6166">
        <ele>66</ele>
        <time>2020-09-26T08:51:43.000Z</time>
      </trkpt>
      <trkpt lat="47.17292" lon="-1.61644">
        <ele>66</ele>
        <time>2020-09-26T08:51:45.000Z</time>
      </trkpt>
      <trkpt lat="47.17302" lon="-1.61628">
        <ele>67</ele>
        <time>2020-09-26T08:51:47.000Z</time>
      </trkpt>
      <trkpt lat="47.17311" lon="-1.61613">
        <ele>67</ele>
        <time>2020-09-26T08:51:49.000Z</time>
      </trkpt>
      <trkpt lat="47.17321" lon="-1.61598">
        <ele>68</ele>
        <time>2020-09-26T08:51:51.000Z</time>
      </trkpt>
      <trkpt lat="47.17331" lon="-1.61584">
        <ele>68</ele>
        <time>2020-09-26T08:51:53.000Z</time>
      </trkpt>
      <trkpt lat="47.17341" lon="-1.61571">
        <ele>68</ele>
        <time>2020-09-26T08:51:55.000Z</time>
      </trkpt>
      <trkpt lat="47.17351" lon="-1.61559">
        <ele>68</ele>
        <time>2020-09-26T08:51:57.000Z</time>
      </trkpt>
      <trkpt lat="47.17362" lon="-1.61547">
        <ele>68</ele>
        <time>2020-09-26T08:51:59.000Z</time>
      </trkpt>
      <trkpt lat="47.17373" lon="-1.61535">
        <ele>67</ele>
        <time>2020-09-26T08:52:01.000Z</time>
      </trkpt>
      <trkpt lat="47.17386" lon="-1.61525">
        <ele>66</ele>
        <time>2020-09-26T08:52:03.000Z</time>
      </trkpt>
      <trkpt lat="47.17398" lon="-1.61515">
        <ele>65</ele>
        <time>2020-09-26T08:52:05.000Z</time>
      </trkpt>
      <trkpt lat="47.17412" lon="-1.61504">
        <ele>64</ele>
        <time>2020-09-26T08:52:07.000Z</time>
      </trkpt>
      <trkpt lat="47.17425" lon="-1.61494">
        <ele>64</ele>
        <time>2020-09-26T08:52:09.000Z</time>
      </trkpt>
      <trkpt lat="47.1744" lon="-1.61486">
        <ele>63</ele>
        <time>2020-09-26T08:52:11.000Z</time>
      </trkpt>
      <trkpt lat="47.17454" lon="-1.61478">
        <ele>62</ele>
        <time>2020-09-26T08:52:13.000Z</time>
      </trkpt>
      <trkpt lat="47.17468" lon="-1.61471">
        <ele>62</ele>
        <time>2020-09-26T08:52:15.000Z</time>
      </trkpt>
      <trkpt lat="47.17482" lon="-1.61465">
        <ele>62</ele>
        <time>2020-09-26T08:52:17.000Z</time>
      </trkpt>
      <trkpt lat="47.17496" lon="-1.61461">
        <ele>61</ele>
        <time>2020-09-26T08:52:19.000Z</time>
      </trkpt>
      <trkpt lat="47.17507" lon="-1.61456">
        <ele>61</ele>
        <time>2020-09-26T08:52:21.000Z</time>
      </trkpt>
      <trkpt lat="47.17514" lon="-1.61444">
        <ele>61</ele>
        <time>2020-09-26T08:52:23.000Z</time>
      </trkpt>
      <trkpt lat="47.17518" lon="-1.61423">
        <ele>60</ele>
        <time>2020-09-26T08:52:25.000Z</time>
      </trkpt>
      <trkpt lat="47.17523" lon="-1.61402">
        <ele>59</ele>
        <time>2020-09-26T08:52:27.000Z</time>
      </trkpt>
      <trkpt lat="47.17528" lon="-1.6138">
        <ele>59</ele>
        <time>2020-09-26T08:52:29.000Z</time>
      </trkpt>
      <trkpt lat="47.17531" lon="-1.61358">
        <ele>59</ele>
        <time>2020-09-26T08:52:31.000Z</time>
      </trkpt>
      <trkpt lat="47.17527" lon="-1.61337">
        <ele>59</ele>
        <time>2020-09-26T08:52:33.000Z</time>
      </trkpt>
      <trkpt lat="47.17524" lon="-1.61317">
        <ele>59</ele>
        <time>2020-09-26T08:52:35.000Z</time>
      </trkpt>
      <trkpt lat="47.17521" lon="-1.61296">
        <ele>59</ele>
        <time>2020-09-26T08:52:37.000Z</time>
      </trkpt>
      <trkpt lat="47.17513" lon="-1.61277">
        <ele>58</ele>
        <time>2020-09-26T08:52:39.000Z</time>
      </trkpt>
      <trkpt lat="47.17504" lon="-1.6126">
        <ele>58</ele>
        <time>2020-09-26T08:52:41.000Z</time>
      </trkpt>
      <trkpt lat="47.17495" lon="-1.61241">
        <ele>58</ele>
        <time>2020-09-26T08:52:43.000Z</time>
      </trkpt>
      <trkpt lat="47.17488" lon="-1.61222">
        <ele>59</ele>
        <time>2020-09-26T08:52:45.000Z</time>
      </trkpt>
      <trkpt lat="47.1748" lon="-1.61204">
        <ele>58</ele>
        <time>2020-09-26T08:52:47.000Z</time>
      </trkpt>
      <trkpt lat="47.17473" lon="-1.61185">
        <ele>58</ele>
        <time>2020-09-26T08:52:49.000Z</time>
      </trkpt>
      <trkpt lat="47.17465" lon="-1.61166">
        <ele>57</ele>
        <time>2020-09-26T08:52:51.000Z</time>
      </trkpt>
      <trkpt lat="47.17458" lon="-1.61147">
        <ele>57</ele>
        <time>2020-09-26T08:52:53.000Z</time>
      </trkpt>
      <trkpt lat="47.17451" lon="-1.61125">
        <ele>56</ele>
        <time>2020-09-26T08:52:55.000Z</time>
      </trkpt>
      <trkpt lat="47.17446" lon="-1.61101">
        <ele>55</ele>
        <time>2020-09-26T08:52:57.000Z</time>
      </trkpt>
      <trkpt lat="47.17438" lon="-1.61079">
        <ele>54</ele>
        <time>2020-09-26T08:52:59.000Z</time>
      </trkpt>
      <trkpt lat="47.17429" lon="-1.61057">
        <ele>53</ele>
        <time>2020-09-26T08:53:01.000Z</time>
      </trkpt>
      <trkpt lat="47.17424" lon="-1.61036">
        <ele>53</ele>
        <time>2020-09-26T08:53:03.000Z</time>
      </trkpt>
      <trkpt lat="47.17425" lon="-1.61019">
        <ele>53</ele>
        <time>2020-09-26T08:53:05.000Z</time>
      </trkpt>
      <trkpt lat="47.17436" lon="-1.61029">
        <ele>52</ele>
        <time>2020-09-26T08:53:08.000Z</time>
      </trkpt>
      <trkpt lat="47.17439" lon="-1.61045">
        <ele>52</ele>
        <time>2020-09-26T08:53:10.000Z</time>
      </trkpt>
      <trkpt lat="47.17444" lon="-1.61063">
        <ele>52</ele>
        <time>2020-09-26T08:53:12.000Z</time>
      </trkpt>
      <trkpt lat="47.17453" lon="-1.61079">
        <ele>52</ele>
        <time>2020-09-26T08:53:14.000Z</time>
      </trkpt>
      <trkpt lat="47.17465" lon="-1.61092">
        <ele>51</ele>
        <time>2020-09-26T08:53:16.000Z</time>
      </trkpt>
      <trkpt lat="47.17478" lon="-1.61102">
        <ele>51</ele>
        <time>2020-09-26T08:53:18.000Z</time>
      </trkpt>
      <trkpt lat="47.17493" lon="-1.61108">
        <ele>50</ele>
        <time>2020-09-26T08:53:20.000Z</time>
      </trkpt>
      <trkpt lat="47.17508" lon="-1.61104">
        <ele>50</ele>
        <time>2020-09-26T08:53:22.000Z</time>
      </trkpt>
      <trkpt lat="47.17522" lon="-1.61095">
        <ele>49</ele>
        <time>2020-09-26T08:53:24.000Z</time>
      </trkpt>
      <trkpt lat="47.17536" lon="-1.61083">
        <ele>49</ele>
        <time>2020-09-26T08:53:26.000Z</time>
      </trkpt>
      <trkpt lat="47.17549" lon="-1.61072">
        <ele>50</ele>
        <time>2020-09-26T08:53:28.000Z</time>
      </trkpt>
      <trkpt lat="47.17562" lon="-1.6106">
        <ele>50</ele>
        <time>2020-09-26T08:53:30.000Z</time>
      </trkpt>
      <trkpt lat="47.17575" lon="-1.6105">
        <ele>50</ele>
        <time>2020-09-26T08:53:32.000Z</time>
      </trkpt>
      <trkpt lat="47.17588" lon="-1.61039">
        <ele>49</ele>
        <time>2020-09-26T08:53:34.000Z</time>
      </trkpt>
      <trkpt lat="47.17601" lon="-1.61028">
        <ele>49</ele>
        <time>2020-09-26T08:53:36.000Z</time>
      </trkpt>
      <trkpt lat="47.17614" lon="-1.61017">
        <ele>49</ele>
        <time>2020-09-26T08:53:38.000Z</time>
      </trkpt>
      <trkpt lat="47.17627" lon="-1.61004">
        <ele>49</ele>
        <time>2020-09-26T08:53:40.000Z</time>
      </trkpt>
      <trkpt lat="47.1764" lon="-1.60992">
        <ele>49</ele>
        <time>2020-09-26T08:53:42.000Z</time>
      </trkpt>
      <trkpt lat="47.17653" lon="-1.60981">
        <ele>48</ele>
        <time>2020-09-26T08:53:44.000Z</time>
      </trkpt>
      <trkpt lat="47.17667" lon="-1.60972">
        <ele>49</ele>
        <time>2020-09-26T08:53:46.000Z</time>
      </trkpt>
      <trkpt lat="47.17682" lon="-1.60971">
        <ele>49</ele>
        <time>2020-09-26T08:53:48.000Z</time>
      </trkpt>
      <trkpt lat="47.17695" lon="-1.60973">
        <ele>50</ele>
        <time>2020-09-26T08:53:50.000Z</time>
      </trkpt>
      <trkpt lat="47.17708" lon="-1.6097">
        <ele>49</ele>
        <time>2020-09-26T08:53:52.000Z</time>
      </trkpt>
      <trkpt lat="47.1772" lon="-1.60963">
        <ele>49</ele>
        <time>2020-09-26T08:53:54.000Z</time>
      </trkpt>
      <trkpt lat="47.17732" lon="-1.60955">
        <ele>49</ele>
        <time>2020-09-26T08:53:56.000Z</time>
      </trkpt>
      <trkpt lat="47.17745" lon="-1.60947">
        <ele>49</ele>
        <time>2020-09-26T08:53:58.000Z</time>
      </trkpt>
      <trkpt lat="47.17757" lon="-1.60937">
        <ele>49</ele>
        <time>2020-09-26T08:54:00.000Z</time>
      </trkpt>
      <trkpt lat="47.17769" lon="-1.60928">
        <ele>49</ele>
        <time>2020-09-26T08:54:02.000Z</time>
      </trkpt>
      <trkpt lat="47.17782" lon="-1.60917">
        <ele>49</ele>
        <time>2020-09-26T08:54:04.000Z</time>
      </trkpt>
      <trkpt lat="47.17796" lon="-1.60907">
        <ele>49</ele>
        <time>2020-09-26T08:54:06.000Z</time>
      </trkpt>
      <trkpt lat="47.17809" lon="-1.60896">
        <ele>49</ele>
        <time>2020-09-26T08:54:08.000Z</time>
      </trkpt>
      <trkpt lat="47.17821" lon="-1.60883">
        <ele>49</ele>
        <time>2020-09-26T08:54:10.000Z</time>
      </trkpt>
      <trkpt lat="47.17831" lon="-1.60868">
        <ele>49</ele>
        <time>2020-09-26T08:54:12.000Z</time>
      </trkpt>
      <trkpt lat="47.17839" lon="-1.6085">
        <ele>49</ele>
        <time>2020-09-26T08:54:14.000Z</time>
      </trkpt>
      <trkpt lat="47.17846" lon="-1.6083">
        <ele>49</ele>
        <time>2020-09-26T08:54:16.000Z</time>
      </trkpt>
      <trkpt lat="47.17852" lon="-1.60809">
        <ele>49</ele>
        <time>2020-09-26T08:54:18.000Z</time>
      </trkpt>
      <trkpt lat="47.17857" lon="-1.6079">
        <ele>49</ele>
        <time>2020-09-26T08:54:20.000Z</time>
      </trkpt>
      <trkpt lat="47.17862" lon="-1.60769">
        <ele>49</ele>
        <time>2020-09-26T08:54:22.000Z</time>
      </trkpt>
      <trkpt lat="47.17866" lon="-1.60749">
        <ele>49</ele>
        <time>2020-09-26T08:54:24.000Z</time>
      </trkpt>
      <trkpt lat="47.17871" lon="-1.60728">
        <ele>49</ele>
        <time>2020-09-26T08:54:26.000Z</time>
      </trkpt>
      <trkpt lat="47.17876" lon="-1.60708">
        <ele>49</ele>
        <time>2020-09-26T08:54:28.000Z</time>
      </trkpt>
      <trkpt lat="47.17881" lon="-1.60688">
        <ele>49</ele>
        <time>2020-09-26T08:54:30.000Z</time>
      </trkpt>
      <trkpt lat="47.17886" lon="-1.60669">
        <ele>49</ele>
        <time>2020-09-26T08:54:32.000Z</time>
      </trkpt>
      <trkpt lat="47.17892" lon="-1.6065">
        <ele>49</ele>
        <time>2020-09-26T08:54:34.000Z</time>
      </trkpt>
      <trkpt lat="47.17897" lon="-1.60633">
        <ele>50</ele>
        <time>2020-09-26T08:54:36.000Z</time>
      </trkpt>
      <trkpt lat="47.17902" lon="-1.60618">
        <ele>50</ele>
        <time>2020-09-26T08:54:38.000Z</time>
      </trkpt>
      <trkpt lat="47.17905" lon="-1.60604">
        <ele>51</ele>
        <time>2020-09-26T08:54:40.000Z</time>
      </trkpt>
      <trkpt lat="47.17911" lon="-1.60589">
        <ele>51</ele>
        <time>2020-09-26T08:54:43.000Z</time>
      </trkpt>
      <trkpt lat="47.17924" lon="-1.60587">
        <ele>52</ele>
        <time>2020-09-26T08:54:46.000Z</time>
      </trkpt>
      <trkpt lat="47.17935" lon="-1.60587">
        <ele>51</ele>
        <time>2020-09-26T08:54:48.000Z</time>
      </trkpt>
      <trkpt lat="47.17947" lon="-1.60584">
        <ele>51</ele>
        <time>2020-09-26T08:54:50.000Z</time>
      </trkpt>
      <trkpt lat="47.1796" lon="-1.60577">
        <ele>51</ele>
        <time>2020-09-26T08:54:52.000Z</time>
      </trkpt>
      <trkpt lat="47.17981" lon="-1.60566">
        <ele>51</ele>
        <time>2020-09-26T08:54:55.000Z</time>
      </trkpt>
      <trkpt lat="47.17994" lon="-1.60559">
        <ele>52</ele>
        <time>2020-09-26T08:54:57.000Z</time>
      </trkpt>
      <trkpt lat="47.18008" lon="-1.60555">
        <ele>51</ele>
        <time>2020-09-26T08:54:59.000Z</time>
      </trkpt>
      <trkpt lat="47.18023" lon="-1.60553">
        <ele>51</ele>
        <time>2020-09-26T08:55:01.000Z</time>
      </trkpt>
      <trkpt lat="47.18038" lon="-1.60555">
        <ele>51</ele>
        <time>2020-09-26T08:55:03.000Z</time>
      </trkpt>
      <trkpt lat="47.18052" lon="-1.60563">
        <ele>51</ele>
        <time>2020-09-26T08:55:05.000Z</time>
      </trkpt>
      <trkpt lat="47.18065" lon="-1.6057">
        <ele>52</ele>
        <time>2020-09-26T08:55:07.000Z</time>
      </trkpt>
      <trkpt lat="47.18078" lon="-1.60577">
        <ele>52</ele>
        <time>2020-09-26T08:55:09.000Z</time>
      </trkpt>
      <trkpt lat="47.18091" lon="-1.60585">
        <ele>52</ele>
        <time>2020-09-26T08:55:11.000Z</time>
      </trkpt>
      <trkpt lat="47.18104" lon="-1.60591">
        <ele>52</ele>
        <time>2020-09-26T08:55:13.000Z</time>
      </trkpt>
      <trkpt lat="47.18117" lon="-1.60596">
        <ele>52</ele>
        <time>2020-09-26T08:55:15.000Z</time>
      </trkpt>
      <trkpt lat="47.1813" lon="-1.60601">
        <ele>53</ele>
        <time>2020-09-26T08:55:17.000Z</time>
      </trkpt>
      <trkpt lat="47.18144" lon="-1.60603">
        <ele>52</ele>
        <time>2020-09-26T08:55:19.000Z</time>
      </trkpt>
      <trkpt lat="47.18157" lon="-1.60605">
        <ele>52</ele>
        <time>2020-09-26T08:55:21.000Z</time>
      </trkpt>
      <trkpt lat="47.1817" lon="-1.60604">
        <ele>51</ele>
        <time>2020-09-26T08:55:23.000Z</time>
      </trkpt>
      <trkpt lat="47.18182" lon="-1.60603">
        <ele>51</ele>
        <time>2020-09-26T08:55:25.000Z</time>
      </trkpt>
      <trkpt lat="47.18191" lon="-1.60595">
        <ele>51</ele>
        <time>2020-09-26T08:55:27.000Z</time>
      </trkpt>
      <trkpt lat="47.18195" lon="-1.60579">
        <ele>51</ele>
        <time>2020-09-26T08:55:29.000Z</time>
      </trkpt>
      <trkpt lat="47.18207" lon="-1.60573">
        <ele>51</ele>
        <time>2020-09-26T08:55:31.000Z</time>
      </trkpt>
      <trkpt lat="47.1822" lon="-1.60568">
        <ele>51</ele>
        <time>2020-09-26T08:55:33.000Z</time>
      </trkpt>
      <trkpt lat="47.18231" lon="-1.60562">
        <ele>52</ele>
        <time>2020-09-26T08:55:35.000Z</time>
      </trkpt>
      <trkpt lat="47.18243" lon="-1.60553">
        <ele>52</ele>
        <time>2020-09-26T08:55:37.000Z</time>
      </trkpt>
      <trkpt lat="47.18256" lon="-1.60543">
        <ele>52</ele>
        <time>2020-09-26T08:55:39.000Z</time>
      </trkpt>
      <trkpt lat="47.18269" lon="-1.60531">
        <ele>52</ele>
        <time>2020-09-26T08:55:41.000Z</time>
      </trkpt>
      <trkpt lat="47.18282" lon="-1.60518">
        <ele>51</ele>
        <time>2020-09-26T08:55:43.000Z</time>
      </trkpt>
      <trkpt lat="47.18293" lon="-1.60506">
        <ele>51</ele>
        <time>2020-09-26T08:55:45.000Z</time>
      </trkpt>
      <trkpt lat="47.18305" lon="-1.60493">
        <ele>51</ele>
        <time>2020-09-26T08:55:47.000Z</time>
      </trkpt>
      <trkpt lat="47.18317" lon="-1.6048">
        <ele>51</ele>
        <time>2020-09-26T08:55:49.000Z</time>
      </trkpt>
      <trkpt lat="47.18329" lon="-1.60466">
        <ele>51</ele>
        <time>2020-09-26T08:55:51.000Z</time>
      </trkpt>
      <trkpt lat="47.1834" lon="-1.60453">
        <ele>51</ele>
        <time>2020-09-26T08:55:53.000Z</time>
      </trkpt>
      <trkpt lat="47.18352" lon="-1.60439">
        <ele>51</ele>
        <time>2020-09-26T08:55:55.000Z</time>
      </trkpt>
      <trkpt lat="47.18363" lon="-1.60425">
        <ele>50</ele>
        <time>2020-09-26T08:55:57.000Z</time>
      </trkpt>
      <trkpt lat="47.18374" lon="-1.60411">
        <ele>50</ele>
        <time>2020-09-26T08:55:59.000Z</time>
      </trkpt>
      <trkpt lat="47.18384" lon="-1.60398">
        <ele>50</ele>
        <time>2020-09-26T08:56:01.000Z</time>
      </trkpt>
      <trkpt lat="47.18395" lon="-1.60384">
        <ele>50</ele>
        <time>2020-09-26T08:56:03.000Z</time>
      </trkpt>
      <trkpt lat="47.18405" lon="-1.60371">
        <ele>50</ele>
        <time>2020-09-26T08:56:05.000Z</time>
      </trkpt>
      <trkpt lat="47.18415" lon="-1.60357">
        <ele>50</ele>
        <time>2020-09-26T08:56:07.000Z</time>
      </trkpt>
      <trkpt lat="47.18425" lon="-1.60342">
        <ele>51</ele>
        <time>2020-09-26T08:56:09.000Z</time>
      </trkpt>
      <trkpt lat="47.18435" lon="-1.60328">
        <ele>51</ele>
        <time>2020-09-26T08:56:11.000Z</time>
      </trkpt>
      <trkpt lat="47.18444" lon="-1.60313">
        <ele>50</ele>
        <time>2020-09-26T08:56:13.000Z</time>
      </trkpt>
      <trkpt lat="47.18454" lon="-1.60296">
        <ele>50</ele>
        <time>2020-09-26T08:56:15.000Z</time>
      </trkpt>
      <trkpt lat="47.18463" lon="-1.60281">
        <ele>51</ele>
        <time>2020-09-26T08:56:17.000Z</time>
      </trkpt>
      <trkpt lat="47.18472" lon="-1.60265">
        <ele>51</ele>
        <time>2020-09-26T08:56:19.000Z</time>
      </trkpt>
      <trkpt lat="47.18481" lon="-1.60248">
        <ele>51</ele>
        <time>2020-09-26T08:56:21.000Z</time>
      </trkpt>
      <trkpt lat="47.18489" lon="-1.60232">
        <ele>51</ele>
        <time>2020-09-26T08:56:23.000Z</time>
      </trkpt>
      <trkpt lat="47.18498" lon="-1.60215">
        <ele>51</ele>
        <time>2020-09-26T08:56:25.000Z</time>
      </trkpt>
      <trkpt lat="47.18506" lon="-1.60198">
        <ele>51</ele>
        <time>2020-09-26T08:56:27.000Z</time>
      </trkpt>
      <trkpt lat="47.18515" lon="-1.60181">
        <ele>51</ele>
        <time>2020-09-26T08:56:29.000Z</time>
      </trkpt>
      <trkpt lat="47.18523" lon="-1.60163">
        <ele>51</ele>
        <time>2020-09-26T08:56:31.000Z</time>
      </trkpt>
      <trkpt lat="47.18531" lon="-1.60145">
        <ele>52</ele>
        <time>2020-09-26T08:56:33.000Z</time>
      </trkpt>
      <trkpt lat="47.18539" lon="-1.60127">
        <ele>52</ele>
        <time>2020-09-26T08:56:35.000Z</time>
      </trkpt>
      <trkpt lat="47.18547" lon="-1.6011">
        <ele>52</ele>
        <time>2020-09-26T08:56:37.000Z</time>
      </trkpt>
      <trkpt lat="47.18555" lon="-1.60093">
        <ele>51</ele>
        <time>2020-09-26T08:56:39.000Z</time>
      </trkpt>
      <trkpt lat="47.18562" lon="-1.60074">
        <ele>52</ele>
        <time>2020-09-26T08:56:41.000Z</time>
      </trkpt>
      <trkpt lat="47.18569" lon="-1.60056">
        <ele>52</ele>
        <time>2020-09-26T08:56:43.000Z</time>
      </trkpt>
      <trkpt lat="47.18576" lon="-1.60037">
        <ele>52</ele>
        <time>2020-09-26T08:56:45.000Z</time>
      </trkpt>
      <trkpt lat="47.18583" lon="-1.60017">
        <ele>52</ele>
        <time>2020-09-26T08:56:47.000Z</time>
      </trkpt>
      <trkpt lat="47.18589" lon="-1.59999">
        <ele>52</ele>
        <time>2020-09-26T08:56:49.000Z</time>
      </trkpt>
      <trkpt lat="47.18594" lon="-1.5998">
        <ele>52</ele>
        <time>2020-09-26T08:56:51.000Z</time>
      </trkpt>
      <trkpt lat="47.18601" lon="-1.5996">
        <ele>52</ele>
        <time>2020-09-26T08:56:53.000Z</time>
      </trkpt>
      <trkpt lat="47.18606" lon="-1.59941">
        <ele>52</ele>
        <time>2020-09-26T08:56:55.000Z</time>
      </trkpt>
      <trkpt lat="47.18612" lon="-1.59922">
        <ele>52</ele>
        <time>2020-09-26T08:56:57.000Z</time>
      </trkpt>
      <trkpt lat="47.18617" lon="-1.59902">
        <ele>52</ele>
        <time>2020-09-26T08:56:59.000Z</time>
      </trkpt>
      <trkpt lat="47.18622" lon="-1.59884">
        <ele>51</ele>
        <time>2020-09-26T08:57:01.000Z</time>
      </trkpt>
      <trkpt lat="47.18626" lon="-1.59866">
        <ele>51</ele>
        <time>2020-09-26T08:57:03.000Z</time>
      </trkpt>
      <trkpt lat="47.18621" lon="-1.59848">
        <ele>50</ele>
        <time>2020-09-26T08:57:05.000Z</time>
      </trkpt>
      <trkpt lat="47.1862" lon="-1.59831">
        <ele>51</ele>
        <time>2020-09-26T08:57:07.000Z</time>
      </trkpt>
      <trkpt lat="47.18627" lon="-1.59819">
        <ele>50</ele>
        <time>2020-09-26T08:57:09.000Z</time>
      </trkpt>
      <trkpt lat="47.18631" lon="-1.598">
        <ele>51</ele>
        <time>2020-09-26T08:57:13.000Z</time>
      </trkpt>
      <trkpt lat="47.18635" lon="-1.59782">
        <ele>52</ele>
        <time>2020-09-26T08:57:15.000Z</time>
      </trkpt>
      <trkpt lat="47.18643" lon="-1.59766">
        <ele>52</ele>
        <time>2020-09-26T08:57:17.000Z</time>
      </trkpt>
      <trkpt lat="47.18653" lon="-1.59749">
        <ele>53</ele>
        <time>2020-09-26T08:57:19.000Z</time>
      </trkpt>
      <trkpt lat="47.18657" lon="-1.59728">
        <ele>53</ele>
        <time>2020-09-26T08:57:21.000Z</time>
      </trkpt>
      <trkpt lat="47.18661" lon="-1.59706">
        <ele>53</ele>
        <time>2020-09-26T08:57:23.000Z</time>
      </trkpt>
      <trkpt lat="47.18665" lon="-1.59684">
        <ele>53</ele>
        <time>2020-09-26T08:57:25.000Z</time>
      </trkpt>
      <trkpt lat="47.1867" lon="-1.59662">
        <ele>53</ele>
        <time>2020-09-26T08:57:27.000Z</time>
      </trkpt>
      <trkpt lat="47.18676" lon="-1.59642">
        <ele>53</ele>
        <time>2020-09-26T08:57:29.000Z</time>
      </trkpt>
      <trkpt lat="47.18679" lon="-1.5962">
        <ele>52</ele>
        <time>2020-09-26T08:57:31.000Z</time>
      </trkpt>
      <trkpt lat="47.18682" lon="-1.59598">
        <ele>52</ele>
        <time>2020-09-26T08:57:33.000Z</time>
      </trkpt>
      <trkpt lat="47.18685" lon="-1.59576">
        <ele>52</ele>
        <time>2020-09-26T08:57:35.000Z</time>
      </trkpt>
      <trkpt lat="47.18688" lon="-1.59554">
        <ele>52</ele>
        <time>2020-09-26T08:57:37.000Z</time>
      </trkpt>
      <trkpt lat="47.1869" lon="-1.59532">
        <ele>52</ele>
        <time>2020-09-26T08:57:39.000Z</time>
      </trkpt>
      <trkpt lat="47.18692" lon="-1.5951">
        <ele>52</ele>
        <time>2020-09-26T08:57:41.000Z</time>
      </trkpt>
      <trkpt lat="47.18695" lon="-1.59488">
        <ele>52</ele>
        <time>2020-09-26T08:57:43.000Z</time>
      </trkpt>
      <trkpt lat="47.18697" lon="-1.59465">
        <ele>52</ele>
        <time>2020-09-26T08:57:45.000Z</time>
      </trkpt>
      <trkpt lat="47.187" lon="-1.59443">
        <ele>52</ele>
        <time>2020-09-26T08:57:47.000Z</time>
      </trkpt>
      <trkpt lat="47.18702" lon="-1.59421">
        <ele>52</ele>
        <time>2020-09-26T08:57:49.000Z</time>
      </trkpt>
      <trkpt lat="47.18705" lon="-1.59399">
        <ele>52</ele>
        <time>2020-09-26T08:57:51.000Z</time>
      </trkpt>
      <trkpt lat="47.18707" lon="-1.59378">
        <ele>52</ele>
        <time>2020-09-26T08:57:53.000Z</time>
      </trkpt>
      <trkpt lat="47.18709" lon="-1.59355">
        <ele>52</ele>
        <time>2020-09-26T08:57:55.000Z</time>
      </trkpt>
      <trkpt lat="47.18712" lon="-1.59333">
        <ele>52</ele>
        <time>2020-09-26T08:57:57.000Z</time>
      </trkpt>
      <trkpt lat="47.18714" lon="-1.59311">
        <ele>52</ele>
        <time>2020-09-26T08:57:59.000Z</time>
      </trkpt>
      <trkpt lat="47.18716" lon="-1.5929">
        <ele>53</ele>
        <time>2020-09-26T08:58:01.000Z</time>
      </trkpt>
      <trkpt lat="47.18718" lon="-1.59268">
        <ele>53</ele>
        <time>2020-09-26T08:58:03.000Z</time>
      </trkpt>
      <trkpt lat="47.18721" lon="-1.59246">
        <ele>53</ele>
        <time>2020-09-26T08:58:05.000Z</time>
      </trkpt>
      <trkpt lat="47.18723" lon="-1.59224">
        <ele>53</ele>
        <time>2020-09-26T08:58:07.000Z</time>
      </trkpt>
      <trkpt lat="47.18725" lon="-1.59202">
        <ele>53</ele>
        <time>2020-09-26T08:58:09.000Z</time>
      </trkpt>
      <trkpt lat="47.18727" lon="-1.59179">
        <ele>53</ele>
        <time>2020-09-26T08:58:11.000Z</time>
      </trkpt>
      <trkpt lat="47.1873" lon="-1.59157">
        <ele>53</ele>
        <time>2020-09-26T08:58:13.000Z</time>
      </trkpt>
      <trkpt lat="47.18732" lon="-1.59136">
        <ele>53</ele>
        <time>2020-09-26T08:58:15.000Z</time>
      </trkpt>
      <trkpt lat="47.18734" lon="-1.59114">
        <ele>54</ele>
        <time>2020-09-26T08:58:17.000Z</time>
      </trkpt>
      <trkpt lat="47.18737" lon="-1.59092">
        <ele>54</ele>
        <time>2020-09-26T08:58:19.000Z</time>
      </trkpt>
      <trkpt lat="47.18739" lon="-1.5907">
        <ele>54</ele>
        <time>2020-09-26T08:58:21.000Z</time>
      </trkpt>
      <trkpt lat="47.18742" lon="-1.59048">
        <ele>54</ele>
        <time>2020-09-26T08:58:23.000Z</time>
      </trkpt>
      <trkpt lat="47.18744" lon="-1.59026">
        <ele>54</ele>
        <time>2020-09-26T08:58:25.000Z</time>
      </trkpt>
      <trkpt lat="47.18746" lon="-1.59003">
        <ele>55</ele>
        <time>2020-09-26T08:58:27.000Z</time>
      </trkpt>
      <trkpt lat="47.18749" lon="-1.58982">
        <ele>54</ele>
        <time>2020-09-26T08:58:29.000Z</time>
      </trkpt>
      <trkpt lat="47.18751" lon="-1.58961">
        <ele>55</ele>
        <time>2020-09-26T08:58:31.000Z</time>
      </trkpt>
      <trkpt lat="47.18753" lon="-1.5894">
        <ele>55</ele>
        <time>2020-09-26T08:58:33.000Z</time>
      </trkpt>
      <trkpt lat="47.18755" lon="-1.58918">
        <ele>55</ele>
        <time>2020-09-26T08:58:35.000Z</time>
      </trkpt>
      <trkpt lat="47.18758" lon="-1.58897">
        <ele>55</ele>
        <time>2020-09-26T08:58:37.000Z</time>
      </trkpt>
      <trkpt lat="47.18761" lon="-1.58876">
        <ele>55</ele>
        <time>2020-09-26T08:58:39.000Z</time>
      </trkpt>
      <trkpt lat="47.18764" lon="-1.58855">
        <ele>55</ele>
        <time>2020-09-26T08:58:41.000Z</time>
      </trkpt>
      <trkpt lat="47.18766" lon="-1.58835">
        <ele>54</ele>
        <time>2020-09-26T08:58:43.000Z</time>
      </trkpt>
      <trkpt lat="47.18767" lon="-1.58814">
        <ele>54</ele>
        <time>2020-09-26T08:58:45.000Z</time>
      </trkpt>
      <trkpt lat="47.18767" lon="-1.58795">
        <ele>54</ele>
        <time>2020-09-26T08:58:47.000Z</time>
      </trkpt>
      <trkpt lat="47.18763" lon="-1.58777">
        <ele>54</ele>
        <time>2020-09-26T08:58:49.000Z</time>
      </trkpt>
      <trkpt lat="47.18759" lon="-1.58754">
        <ele>54</ele>
        <time>2020-09-26T08:58:51.000Z</time>
      </trkpt>
      <trkpt lat="47.1876" lon="-1.58741">
        <ele>54</ele>
        <time>2020-09-26T08:58:52.000Z</time>
      </trkpt>
      <trkpt lat="47.18768" lon="-1.58719">
        <ele>53</ele>
        <time>2020-09-26T08:58:54.000Z</time>
      </trkpt>
      <trkpt lat="47.1878" lon="-1.58702">
        <ele>54</ele>
        <time>2020-09-26T08:58:56.000Z</time>
      </trkpt>
      <trkpt lat="47.18789" lon="-1.58681">
        <ele>55</ele>
        <time>2020-09-26T08:58:58.000Z</time>
      </trkpt>
      <trkpt lat="47.18793" lon="-1.58658">
        <ele>55</ele>
        <time>2020-09-26T08:59:00.000Z</time>
      </trkpt>
      <trkpt lat="47.18799" lon="-1.58636">
        <ele>54</ele>
        <time>2020-09-26T08:59:02.000Z</time>
      </trkpt>
      <trkpt lat="47.18805" lon="-1.58613">
        <ele>54</ele>
        <time>2020-09-26T08:59:04.000Z</time>
      </trkpt>
      <trkpt lat="47.18811" lon="-1.58591">
        <ele>55</ele>
        <time>2020-09-26T08:59:06.000Z</time>
      </trkpt>
      <trkpt lat="47.18817" lon="-1.58569">
        <ele>55</ele>
        <time>2020-09-26T08:59:08.000Z</time>
      </trkpt>
      <trkpt lat="47.18823" lon="-1.58547">
        <ele>55</ele>
        <time>2020-09-26T08:59:10.000Z</time>
      </trkpt>
      <trkpt lat="47.18829" lon="-1.58526">
        <ele>55</ele>
        <time>2020-09-26T08:59:12.000Z</time>
      </trkpt>
      <trkpt lat="47.18835" lon="-1.58505">
        <ele>55</ele>
        <time>2020-09-26T08:59:14.000Z</time>
      </trkpt>
      <trkpt lat="47.18841" lon="-1.58483">
        <ele>55</ele>
        <time>2020-09-26T08:59:16.000Z</time>
      </trkpt>
      <trkpt lat="47.18848" lon="-1.58462">
        <ele>55</ele>
        <time>2020-09-26T08:59:18.000Z</time>
      </trkpt>
      <trkpt lat="47.18854" lon="-1.58441">
        <ele>55</ele>
        <time>2020-09-26T08:59:20.000Z</time>
      </trkpt>
      <trkpt lat="47.18861" lon="-1.5842">
        <ele>56</ele>
        <time>2020-09-26T08:59:22.000Z</time>
      </trkpt>
      <trkpt lat="47.18867" lon="-1.58399">
        <ele>56</ele>
        <time>2020-09-26T08:59:24.000Z</time>
      </trkpt>
      <trkpt lat="47.18874" lon="-1.58379">
        <ele>56</ele>
        <time>2020-09-26T08:59:26.000Z</time>
      </trkpt>
      <trkpt lat="47.1888" lon="-1.58359">
        <ele>57</ele>
        <time>2020-09-26T08:59:28.000Z</time>
      </trkpt>
      <trkpt lat="47.18887" lon="-1.58339">
        <ele>57</ele>
        <time>2020-09-26T08:59:30.000Z</time>
      </trkpt>
      <trkpt lat="47.18894" lon="-1.5832">
        <ele>57</ele>
        <time>2020-09-26T08:59:32.000Z</time>
      </trkpt>
      <trkpt lat="47.189" lon="-1.583">
        <ele>57</ele>
        <time>2020-09-26T08:59:34.000Z</time>
      </trkpt>
      <trkpt lat="47.18908" lon="-1.58279">
        <ele>57</ele>
        <time>2020-09-26T08:59:36.000Z</time>
      </trkpt>
      <trkpt lat="47.18915" lon="-1.58259">
        <ele>57</ele>
        <time>2020-09-26T08:59:38.000Z</time>
      </trkpt>
      <trkpt lat="47.18922" lon="-1.58239">
        <ele>57</ele>
        <time>2020-09-26T08:59:40.000Z</time>
      </trkpt>
      <trkpt lat="47.18929" lon="-1.58219">
        <ele>57</ele>
        <time>2020-09-26T08:59:42.000Z</time>
      </trkpt>
      <trkpt lat="47.18936" lon="-1.58199">
        <ele>56</ele>
        <time>2020-09-26T08:59:44.000Z</time>
      </trkpt>
      <trkpt lat="47.18944" lon="-1.5818">
        <ele>56</ele>
        <time>2020-09-26T08:59:46.000Z</time>
      </trkpt>
      <trkpt lat="47.18951" lon="-1.58161">
        <ele>55</ele>
        <time>2020-09-26T08:59:48.000Z</time>
      </trkpt>
      <trkpt lat="47.18958" lon="-1.58141">
        <ele>55</ele>
        <time>2020-09-26T08:59:50.000Z</time>
      </trkpt>
      <trkpt lat="47.18965" lon="-1.58123">
        <ele>55</ele>
        <time>2020-09-26T08:59:52.000Z</time>
      </trkpt>
      <trkpt lat="47.18971" lon="-1.58104">
        <ele>55</ele>
        <time>2020-09-26T08:59:54.000Z</time>
      </trkpt>
      <trkpt lat="47.18979" lon="-1.58085">
        <ele>55</ele>
        <time>2020-09-26T08:59:56.000Z</time>
      </trkpt>
      <trkpt lat="47.18985" lon="-1.58065">
        <ele>55</ele>
        <time>2020-09-26T08:59:58.000Z</time>
      </trkpt>
      <trkpt lat="47.18991" lon="-1.58045">
        <ele>55</ele>
        <time>2020-09-26T09:00:00.000Z</time>
      </trkpt>
      <trkpt lat="47.18999" lon="-1.58026">
        <ele>54</ele>
        <time>2020-09-26T09:00:02.000Z</time>
      </trkpt>
      <trkpt lat="47.19005" lon="-1.58005">
        <ele>54</ele>
        <time>2020-09-26T09:00:04.000Z</time>
      </trkpt>
      <trkpt lat="47.19012" lon="-1.57985">
        <ele>54</ele>
        <time>2020-09-26T09:00:06.000Z</time>
      </trkpt>
      <trkpt lat="47.19019" lon="-1.57965">
        <ele>55</ele>
        <time>2020-09-26T09:00:08.000Z</time>
      </trkpt>
      <trkpt lat="47.19026" lon="-1.57945">
        <ele>55</ele>
        <time>2020-09-26T09:00:10.000Z</time>
      </trkpt>
      <trkpt lat="47.19033" lon="-1.57926">
        <ele>55</ele>
        <time>2020-09-26T09:00:12.000Z</time>
      </trkpt>
      <trkpt lat="47.1904" lon="-1.57906">
        <ele>55</ele>
        <time>2020-09-26T09:00:14.000Z</time>
      </trkpt>
      <trkpt lat="47.19047" lon="-1.57887">
        <ele>55</ele>
        <time>2020-09-26T09:00:16.000Z</time>
      </trkpt>
      <trkpt lat="47.19054" lon="-1.57866">
        <ele>55</ele>
        <time>2020-09-26T09:00:18.000Z</time>
      </trkpt>
      <trkpt lat="47.19061" lon="-1.57847">
        <ele>55</ele>
        <time>2020-09-26T09:00:20.000Z</time>
      </trkpt>
      <trkpt lat="47.19068" lon="-1.57827">
        <ele>54</ele>
        <time>2020-09-26T09:00:22.000Z</time>
      </trkpt>
      <trkpt lat="47.19075" lon="-1.57807">
        <ele>55</ele>
        <time>2020-09-26T09:00:24.000Z</time>
      </trkpt>
      <trkpt lat="47.19082" lon="-1.57786">
        <ele>54</ele>
        <time>2020-09-26T09:00:26.000Z</time>
      </trkpt>
      <trkpt lat="47.19089" lon="-1.57768">
        <ele>55</ele>
        <time>2020-09-26T09:00:28.000Z</time>
      </trkpt>
      <trkpt lat="47.19097" lon="-1.57748">
        <ele>55</ele>
        <time>2020-09-26T09:00:30.000Z</time>
      </trkpt>
      <trkpt lat="47.19103" lon="-1.57729">
        <ele>55</ele>
        <time>2020-09-26T09:00:32.000Z</time>
      </trkpt>
      <trkpt lat="47.1911" lon="-1.57709">
        <ele>55</ele>
        <time>2020-09-26T09:00:34.000Z</time>
      </trkpt>
      <trkpt lat="47.19117" lon="-1.5769">
        <ele>55</ele>
        <time>2020-09-26T09:00:36.000Z</time>
      </trkpt>
      <trkpt lat="47.19125" lon="-1.5767">
        <ele>55</ele>
        <time>2020-09-26T09:00:38.000Z</time>
      </trkpt>
      <trkpt lat="47.19133" lon="-1.5765">
        <ele>54</ele>
        <time>2020-09-26T09:00:40.000Z</time>
      </trkpt>
      <trkpt lat="47.1914" lon="-1.5763">
        <ele>54</ele>
        <time>2020-09-26T09:00:42.000Z</time>
      </trkpt>
      <trkpt lat="47.19147" lon="-1.57609">
        <ele>54</ele>
        <time>2020-09-26T09:00:44.000Z</time>
      </trkpt>
      <trkpt lat="47.19154" lon="-1.57588">
        <ele>53</ele>
        <time>2020-09-26T09:00:46.000Z</time>
      </trkpt>
      <trkpt lat="47.19162" lon="-1.57565">
        <ele>53</ele>
        <time>2020-09-26T09:00:48.000Z</time>
      </trkpt>
      <trkpt lat="47.19169" lon="-1.57543">
        <ele>53</ele>
        <time>2020-09-26T09:00:50.000Z</time>
      </trkpt>
      <trkpt lat="47.19177" lon="-1.57522">
        <ele>52</ele>
        <time>2020-09-26T09:00:52.000Z</time>
      </trkpt>
      <trkpt lat="47.19184" lon="-1.57502">
        <ele>52</ele>
        <time>2020-09-26T09:00:54.000Z</time>
      </trkpt>
      <trkpt lat="47.1919" lon="-1.5748">
        <ele>52</ele>
        <time>2020-09-26T09:00:56.000Z</time>
      </trkpt>
      <trkpt lat="47.19196" lon="-1.57457">
        <ele>52</ele>
        <time>2020-09-26T09:00:58.000Z</time>
      </trkpt>
      <trkpt lat="47.19202" lon="-1.57435">
        <ele>53</ele>
        <time>2020-09-26T09:01:00.000Z</time>
      </trkpt>
      <trkpt lat="47.19208" lon="-1.57413">
        <ele>53</ele>
        <time>2020-09-26T09:01:02.000Z</time>
      </trkpt>
      <trkpt lat="47.19214" lon="-1.5739">
        <ele>53</ele>
        <time>2020-09-26T09:01:04.000Z</time>
      </trkpt>
      <trkpt lat="47.1922" lon="-1.57368">
        <ele>54</ele>
        <time>2020-09-26T09:01:06.000Z</time>
      </trkpt>
      <trkpt lat="47.19226" lon="-1.57344">
        <ele>55</ele>
        <time>2020-09-26T09:01:08.000Z</time>
      </trkpt>
      <trkpt lat="47.19232" lon="-1.57321">
        <ele>56</ele>
        <time>2020-09-26T09:01:10.000Z</time>
      </trkpt>
      <trkpt lat="47.19236" lon="-1.57298">
        <ele>56</ele>
        <time>2020-09-26T09:01:12.000Z</time>
      </trkpt>
      <trkpt lat="47.1924" lon="-1.57276">
        <ele>56</ele>
        <time>2020-09-26T09:01:14.000Z</time>
      </trkpt>
      <trkpt lat="47.19243" lon="-1.57253">
        <ele>56</ele>
        <time>2020-09-26T09:01:16.000Z</time>
      </trkpt>
      <trkpt lat="47.19246" lon="-1.5723">
        <ele>56</ele>
        <time>2020-09-26T09:01:18.000Z</time>
      </trkpt>
      <trkpt lat="47.19248" lon="-1.57207">
        <ele>57</ele>
        <time>2020-09-26T09:01:20.000Z</time>
      </trkpt>
      <trkpt lat="47.19252" lon="-1.57184">
        <ele>56</ele>
        <time>2020-09-26T09:01:22.000Z</time>
      </trkpt>
      <trkpt lat="47.19255" lon="-1.57161">
        <ele>55</ele>
        <time>2020-09-26T09:01:24.000Z</time>
      </trkpt>
      <trkpt lat="47.19258" lon="-1.57139">
        <ele>54</ele>
        <time>2020-09-26T09:01:26.000Z</time>
      </trkpt>
      <trkpt lat="47.19262" lon="-1.57117">
        <ele>54</ele>
        <time>2020-09-26T09:01:28.000Z</time>
      </trkpt>
      <trkpt lat="47.19264" lon="-1.57096">
        <ele>53</ele>
        <time>2020-09-26T09:01:30.000Z</time>
      </trkpt>
      <trkpt lat="47.19264" lon="-1.57075">
        <ele>52</ele>
        <time>2020-09-26T09:01:32.000Z</time>
      </trkpt>
      <trkpt lat="47.19259" lon="-1.57055">
        <ele>52</ele>
        <time>2020-09-26T09:01:34.000Z</time>
      </trkpt>
      <trkpt lat="47.19264" lon="-1.57034">
        <ele>51</ele>
        <time>2020-09-26T09:01:36.000Z</time>
      </trkpt>
      <trkpt lat="47.19273" lon="-1.57017">
        <ele>51</ele>
        <time>2020-09-26T09:01:38.000Z</time>
      </trkpt>
      <trkpt lat="47.19277" lon="-1.56995">
        <ele>50</ele>
        <time>2020-09-26T09:01:40.000Z</time>
      </trkpt>
      <trkpt lat="47.19279" lon="-1.56972">
        <ele>49</ele>
        <time>2020-09-26T09:01:42.000Z</time>
      </trkpt>
      <trkpt lat="47.19282" lon="-1.56951">
        <ele>49</ele>
        <time>2020-09-26T09:01:44.000Z</time>
      </trkpt>
      <trkpt lat="47.19284" lon="-1.56929">
        <ele>49</ele>
        <time>2020-09-26T09:01:46.000Z</time>
      </trkpt>
      <trkpt lat="47.19285" lon="-1.56907">
        <ele>49</ele>
        <time>2020-09-26T09:01:48.000Z</time>
      </trkpt>
      <trkpt lat="47.19287" lon="-1.56885">
        <ele>50</ele>
        <time>2020-09-26T09:01:50.000Z</time>
      </trkpt>
      <trkpt lat="47.19289" lon="-1.56863">
        <ele>51</ele>
        <time>2020-09-26T09:01:52.000Z</time>
      </trkpt>
      <trkpt lat="47.1929" lon="-1.56841">
        <ele>52</ele>
        <time>2020-09-26T09:01:54.000Z</time>
      </trkpt>
      <trkpt lat="47.1929" lon="-1.56819">
        <ele>53</ele>
        <time>2020-09-26T09:01:56.000Z</time>
      </trkpt>
      <trkpt lat="47.19291" lon="-1.56797">
        <ele>53</ele>
        <time>2020-09-26T09:01:58.000Z</time>
      </trkpt>
      <trkpt lat="47.19292" lon="-1.56775">
        <ele>53</ele>
        <time>2020-09-26T09:02:00.000Z</time>
      </trkpt>
      <trkpt lat="47.19292" lon="-1.56754">
        <ele>53</ele>
        <time>2020-09-26T09:02:02.000Z</time>
      </trkpt>
      <trkpt lat="47.19291" lon="-1.56723">
        <ele>53</ele>
        <time>2020-09-26T09:02:05.000Z</time>
      </trkpt>
      <trkpt lat="47.1929" lon="-1.56701">
        <ele>53</ele>
        <time>2020-09-26T09:02:07.000Z</time>
      </trkpt>
      <trkpt lat="47.19289" lon="-1.5668">
        <ele>53</ele>
        <time>2020-09-26T09:02:09.000Z</time>
      </trkpt>
      <trkpt lat="47.19288" lon="-1.56659">
        <ele>53</ele>
        <time>2020-09-26T09:02:11.000Z</time>
      </trkpt>
      <trkpt lat="47.19287" lon="-1.56638">
        <ele>54</ele>
        <time>2020-09-26T09:02:13.000Z</time>
      </trkpt>
      <trkpt lat="47.19284" lon="-1.56606">
        <ele>54</ele>
        <time>2020-09-26T09:02:16.000Z</time>
      </trkpt>
      <trkpt lat="47.19282" lon="-1.56585">
        <ele>54</ele>
        <time>2020-09-26T09:02:18.000Z</time>
      </trkpt>
      <trkpt lat="47.1928" lon="-1.56564">
        <ele>55</ele>
        <time>2020-09-26T09:02:20.000Z</time>
      </trkpt>
      <trkpt lat="47.19279" lon="-1.56543">
        <ele>55</ele>
        <time>2020-09-26T09:02:22.000Z</time>
      </trkpt>
      <trkpt lat="47.19275" lon="-1.56512">
        <ele>55</ele>
        <time>2020-09-26T09:02:25.000Z</time>
      </trkpt>
      <trkpt lat="47.19273" lon="-1.5649">
        <ele>55</ele>
        <time>2020-09-26T09:02:27.000Z</time>
      </trkpt>
      <trkpt lat="47.1927" lon="-1.5647">
        <ele>55</ele>
        <time>2020-09-26T09:02:29.000Z</time>
      </trkpt>
      <trkpt lat="47.19268" lon="-1.5645">
        <ele>55</ele>
        <time>2020-09-26T09:02:31.000Z</time>
      </trkpt>
      <trkpt lat="47.19266" lon="-1.56418">
        <ele>54</ele>
        <time>2020-09-26T09:02:34.000Z</time>
      </trkpt>
      <trkpt lat="47.19265" lon="-1.56397">
        <ele>54</ele>
        <time>2020-09-26T09:02:36.000Z</time>
      </trkpt>
      <trkpt lat="47.19263" lon="-1.56378">
        <ele>54</ele>
        <time>2020-09-26T09:02:38.000Z</time>
      </trkpt>
      <trkpt lat="47.1926" lon="-1.5636">
        <ele>54</ele>
        <time>2020-09-26T09:02:40.000Z</time>
      </trkpt>
      <trkpt lat="47.19256" lon="-1.56343">
        <ele>54</ele>
        <time>2020-09-26T09:02:42.000Z</time>
      </trkpt>
      <trkpt lat="47.1925" lon="-1.56328">
        <ele>54</ele>
        <time>2020-09-26T09:02:44.000Z</time>
      </trkpt>
      <trkpt lat="47.19241" lon="-1.56314">
        <ele>55</ele>
        <time>2020-09-26T09:02:46.000Z</time>
      </trkpt>
      <trkpt lat="47.19236" lon="-1.56293">
        <ele>54</ele>
        <time>2020-09-26T09:02:48.000Z</time>
      </trkpt>
      <trkpt lat="47.1924" lon="-1.56271">
        <ele>54</ele>
        <time>2020-09-26T09:02:50.000Z</time>
      </trkpt>
      <trkpt lat="47.19251" lon="-1.56254">
        <ele>53</ele>
        <time>2020-09-26T09:02:52.000Z</time>
      </trkpt>
      <trkpt lat="47.19268" lon="-1.56249">
        <ele>54</ele>
        <time>2020-09-26T09:02:54.000Z</time>
      </trkpt>
      <trkpt lat="47.19289" lon="-1.56262">
        <ele>53</ele>
        <time>2020-09-26T09:02:57.000Z</time>
      </trkpt>
      <trkpt lat="47.19313" lon="-1.56267">
        <ele>52</ele>
        <time>2020-09-26T09:03:00.000Z</time>
      </trkpt>
      <trkpt lat="47.19329" lon="-1.56263">
        <ele>52</ele>
        <time>2020-09-26T09:03:02.000Z</time>
      </trkpt>
      <trkpt lat="47.19345" lon="-1.56261">
        <ele>52</ele>
        <time>2020-09-26T09:03:04.000Z</time>
      </trkpt>
      <trkpt lat="47.1936" lon="-1.56258">
        <ele>52</ele>
        <time>2020-09-26T09:03:06.000Z</time>
      </trkpt>
      <trkpt lat="47.19375" lon="-1.56255">
        <ele>52</ele>
        <time>2020-09-26T09:03:08.000Z</time>
      </trkpt>
      <trkpt lat="47.1939" lon="-1.56252">
        <ele>51</ele>
        <time>2020-09-26T09:03:10.000Z</time>
      </trkpt>
      <trkpt lat="47.19405" lon="-1.56249">
        <ele>51</ele>
        <time>2020-09-26T09:03:12.000Z</time>
      </trkpt>
      <trkpt lat="47.1942" lon="-1.56246">
        <ele>51</ele>
        <time>2020-09-26T09:03:14.000Z</time>
      </trkpt>
      <trkpt lat="47.19434" lon="-1.56244">
        <ele>51</ele>
        <time>2020-09-26T09:03:16.000Z</time>
      </trkpt>
      <trkpt lat="47.19449" lon="-1.56241">
        <ele>51</ele>
        <time>2020-09-26T09:03:18.000Z</time>
      </trkpt>
      <trkpt lat="47.19463" lon="-1.56239">
        <ele>50</ele>
        <time>2020-09-26T09:03:20.000Z</time>
      </trkpt>
      <trkpt lat="47.19486" lon="-1.56235">
        <ele>50</ele>
        <time>2020-09-26T09:03:23.000Z</time>
      </trkpt>
      <trkpt lat="47.195" lon="-1.56232">
        <ele>50</ele>
        <time>2020-09-26T09:03:25.000Z</time>
      </trkpt>
      <trkpt lat="47.19514" lon="-1.56228">
        <ele>50</ele>
        <time>2020-09-26T09:03:27.000Z</time>
      </trkpt>
      <trkpt lat="47.19529" lon="-1.56225">
        <ele>50</ele>
        <time>2020-09-26T09:03:29.000Z</time>
      </trkpt>
      <trkpt lat="47.19545" lon="-1.56222">
        <ele>50</ele>
        <time>2020-09-26T09:03:31.000Z</time>
      </trkpt>
      <trkpt lat="47.1957" lon="-1.56218">
        <ele>49</ele>
        <time>2020-09-26T09:03:34.000Z</time>
      </trkpt>
      <trkpt lat="47.19587" lon="-1.56216">
        <ele>50</ele>
        <time>2020-09-26T09:03:36.000Z</time>
      </trkpt>
      <trkpt lat="47.19603" lon="-1.56213">
        <ele>49</ele>
        <time>2020-09-26T09:03:38.000Z</time>
      </trkpt>
      <trkpt lat="47.19618" lon="-1.56209">
        <ele>49</ele>
        <time>2020-09-26T09:03:40.000Z</time>
      </trkpt>
      <trkpt lat="47.19632" lon="-1.56204">
        <ele>49</ele>
        <time>2020-09-26T09:03:42.000Z</time>
      </trkpt>
      <trkpt lat="47.1964" lon="-1.56186">
        <ele>49</ele>
        <time>2020-09-26T09:03:44.000Z</time>
      </trkpt>
      <trkpt lat="47.19649" lon="-1.56174">
        <ele>50</ele>
        <time>2020-09-26T09:03:46.000Z</time>
      </trkpt>
      <trkpt lat="47.19662" lon="-1.56173">
        <ele>49</ele>
        <time>2020-09-26T09:03:48.000Z</time>
      </trkpt>
      <trkpt lat="47.19679" lon="-1.56183">
        <ele>49</ele>
        <time>2020-09-26T09:03:51.000Z</time>
      </trkpt>
      <trkpt lat="47.19681" lon="-1.56204">
        <ele>50</ele>
        <time>2020-09-26T09:03:53.000Z</time>
      </trkpt>
      <trkpt lat="47.1968" lon="-1.56225">
        <ele>50</ele>
        <time>2020-09-26T09:03:55.000Z</time>
      </trkpt>
      <trkpt lat="47.19679" lon="-1.56242">
        <ele>50</ele>
        <time>2020-09-26T09:03:57.000Z</time>
      </trkpt>
      <trkpt lat="47.19671" lon="-1.56254">
        <ele>50</ele>
        <time>2020-09-26T09:03:59.000Z</time>
      </trkpt>
      <trkpt lat="47.19658" lon="-1.56256">
        <ele>51</ele>
        <time>2020-09-26T09:04:01.000Z</time>
      </trkpt>
      <trkpt lat="47.19647" lon="-1.56254">
        <ele>53</ele>
        <time>2020-09-26T09:04:03.000Z</time>
      </trkpt>
      <trkpt lat="47.19642" lon="-1.56241">
        <ele>52</ele>
        <time>2020-09-26T09:04:05.000Z</time>
      </trkpt>
      <trkpt lat="47.19646" lon="-1.56229">
        <ele>52</ele>
        <time>2020-09-26T09:04:07.000Z</time>
      </trkpt>
      <trkpt lat="47.19659" lon="-1.56227">
        <ele>51</ele>
        <time>2020-09-26T09:04:09.000Z</time>
      </trkpt>
      <trkpt lat="47.1967" lon="-1.56224">
        <ele>51</ele>
        <time>2020-09-26T09:04:11.000Z</time>
      </trkpt>
      <trkpt lat="47.19688" lon="-1.56218">
        <ele>52</ele>
        <time>2020-09-26T09:04:14.000Z</time>
      </trkpt>
      <trkpt lat="47.197" lon="-1.56215">
        <ele>52</ele>
        <time>2020-09-26T09:04:16.000Z</time>
      </trkpt>
      <trkpt lat="47.19712" lon="-1.56212">
        <ele>53</ele>
        <time>2020-09-26T09:04:18.000Z</time>
      </trkpt>
      <trkpt lat="47.19723" lon="-1.5621">
        <ele>54</ele>
        <time>2020-09-26T09:04:20.000Z</time>
      </trkpt>
      <trkpt lat="47.19735" lon="-1.56208">
        <ele>54</ele>
        <time>2020-09-26T09:04:22.000Z</time>
      </trkpt>
      <trkpt lat="47.19746" lon="-1.56205">
        <ele>55</ele>
        <time>2020-09-26T09:04:24.000Z</time>
      </trkpt>
      <trkpt lat="47.19757" lon="-1.56203">
        <ele>55</ele>
        <time>2020-09-26T09:04:26.000Z</time>
      </trkpt>
      <trkpt lat="47.19768" lon="-1.56201">
        <ele>56</ele>
        <time>2020-09-26T09:04:28.000Z</time>
      </trkpt>
      <trkpt lat="47.19779" lon="-1.56199">
        <ele>57</ele>
        <time>2020-09-26T09:04:30.000Z</time>
      </trkpt>
      <trkpt lat="47.1979" lon="-1.56197">
        <ele>57</ele>
        <time>2020-09-26T09:04:32.000Z</time>
      </trkpt>
      <trkpt lat="47.19801" lon="-1.56195">
        <ele>57</ele>
        <time>2020-09-26T09:04:34.000Z</time>
      </trkpt>
      <trkpt lat="47.19812" lon="-1.56193">
        <ele>58</ele>
        <time>2020-09-26T09:04:36.000Z</time>
      </trkpt>
      <trkpt lat="47.19823" lon="-1.56191">
        <ele>58</ele>
        <time>2020-09-26T09:04:38.000Z</time>
      </trkpt>
      <trkpt lat="47.19834" lon="-1.56188">
        <ele>58</ele>
        <time>2020-09-26T09:04:40.000Z</time>
      </trkpt>
      <trkpt lat="47.19845" lon="-1.56186">
        <ele>58</ele>
        <time>2020-09-26T09:04:42.000Z</time>
      </trkpt>
      <trkpt lat="47.19856" lon="-1.56184">
        <ele>57</ele>
        <time>2020-09-26T09:04:44.000Z</time>
      </trkpt>
      <trkpt lat="47.19868" lon="-1.56181">
        <ele>56</ele>
        <time>2020-09-26T09:04:46.000Z</time>
      </trkpt>
      <trkpt lat="47.19879" lon="-1.56179">
        <ele>56</ele>
        <time>2020-09-26T09:04:48.000Z</time>
      </trkpt>
      <trkpt lat="47.19892" lon="-1.56177">
        <ele>56</ele>
        <time>2020-09-26T09:04:50.000Z</time>
      </trkpt>
      <trkpt lat="47.19904" lon="-1.56175">
        <ele>55</ele>
        <time>2020-09-26T09:04:52.000Z</time>
      </trkpt>
      <trkpt lat="47.19916" lon="-1.56173">
        <ele>55</ele>
        <time>2020-09-26T09:04:54.000Z</time>
      </trkpt>
      <trkpt lat="47.19928" lon="-1.56171">
        <ele>54</ele>
        <time>2020-09-26T09:04:56.000Z</time>
      </trkpt>
      <trkpt lat="47.19942" lon="-1.56168">
        <ele>53</ele>
        <time>2020-09-26T09:04:58.000Z</time>
      </trkpt>
      <trkpt lat="47.19957" lon="-1.56165">
        <ele>52</ele>
        <time>2020-09-26T09:05:00.000Z</time>
      </trkpt>
      <trkpt lat="47.19971" lon="-1.56168">
        <ele>52</ele>
        <time>2020-09-26T09:05:02.000Z</time>
      </trkpt>
      <trkpt lat="47.19979" lon="-1.56186">
        <ele>52</ele>
        <time>2020-09-26T09:05:04.000Z</time>
      </trkpt>
      <trkpt lat="47.19979" lon="-1.56206">
        <ele>53</ele>
        <time>2020-09-26T09:05:06.000Z</time>
      </trkpt>
      <trkpt lat="47.19979" lon="-1.56225">
        <ele>54</ele>
        <time>2020-09-26T09:05:08.000Z</time>
      </trkpt>
      <trkpt lat="47.19979" lon="-1.56244">
        <ele>54</ele>
        <time>2020-09-26T09:05:10.000Z</time>
      </trkpt>
      <trkpt lat="47.1998" lon="-1.56264">
        <ele>55</ele>
        <time>2020-09-26T09:05:12.000Z</time>
      </trkpt>
      <trkpt lat="47.1998" lon="-1.56283">
        <ele>55</ele>
        <time>2020-09-26T09:05:14.000Z</time>
      </trkpt>
      <trkpt lat="47.1998" lon="-1.56302">
        <ele>55</ele>
        <time>2020-09-26T09:05:16.000Z</time>
      </trkpt>
      <trkpt lat="47.19978" lon="-1.56321">
        <ele>55</ele>
        <time>2020-09-26T09:05:18.000Z</time>
      </trkpt>
      <trkpt lat="47.19977" lon="-1.5634">
        <ele>55</ele>
        <time>2020-09-26T09:05:20.000Z</time>
      </trkpt>
      <trkpt lat="47.19976" lon="-1.56359">
        <ele>56</ele>
        <time>2020-09-26T09:05:22.000Z</time>
      </trkpt>
      <trkpt lat="47.19974" lon="-1.56377">
        <ele>56</ele>
        <time>2020-09-26T09:05:24.000Z</time>
      </trkpt>
      <trkpt lat="47.19973" lon="-1.56396">
        <ele>56</ele>
        <time>2020-09-26T09:05:26.000Z</time>
      </trkpt>
      <trkpt lat="47.1997" lon="-1.56415">
        <ele>57</ele>
        <time>2020-09-26T09:05:28.000Z</time>
      </trkpt>
      <trkpt lat="47.19967" lon="-1.56432">
        <ele>57</ele>
        <time>2020-09-26T09:05:30.000Z</time>
      </trkpt>
      <trkpt lat="47.19962" lon="-1.5645">
        <ele>57</ele>
        <time>2020-09-26T09:05:32.000Z</time>
      </trkpt>
      <trkpt lat="47.19959" lon="-1.56468">
        <ele>56</ele>
        <time>2020-09-26T09:05:34.000Z</time>
      </trkpt>
      <trkpt lat="47.19957" lon="-1.56486">
        <ele>56</ele>
        <time>2020-09-26T09:05:36.000Z</time>
      </trkpt>
      <trkpt lat="47.19957" lon="-1.56504">
        <ele>56</ele>
        <time>2020-09-26T09:05:38.000Z</time>
      </trkpt>
      <trkpt lat="47.19956" lon="-1.56523">
        <ele>56</ele>
        <time>2020-09-26T09:05:40.000Z</time>
      </trkpt>
      <trkpt lat="47.19956" lon="-1.56542">
        <ele>56</ele>
        <time>2020-09-26T09:05:42.000Z</time>
      </trkpt>
      <trkpt lat="47.19956" lon="-1.5656">
        <ele>56</ele>
        <time>2020-09-26T09:05:44.000Z</time>
      </trkpt>
      <trkpt lat="47.19955" lon="-1.56579">
        <ele>55</ele>
        <time>2020-09-26T09:05:46.000Z</time>
      </trkpt>
      <trkpt lat="47.19955" lon="-1.56597">
        <ele>55</ele>
        <time>2020-09-26T09:05:48.000Z</time>
      </trkpt>
      <trkpt lat="47.19955" lon="-1.56616">
        <ele>55</ele>
        <time>2020-09-26T09:05:50.000Z</time>
      </trkpt>
      <trkpt lat="47.19955" lon="-1.56634">
        <ele>55</ele>
        <time>2020-09-26T09:05:52.000Z</time>
      </trkpt>
      <trkpt lat="47.19956" lon="-1.56653">
        <ele>55</ele>
        <time>2020-09-26T09:05:54.000Z</time>
      </trkpt>
      <trkpt lat="47.19955" lon="-1.56671">
        <ele>54</ele>
        <time>2020-09-26T09:05:56.000Z</time>
      </trkpt>
      <trkpt lat="47.19955" lon="-1.5669">
        <ele>54</ele>
        <time>2020-09-26T09:05:58.000Z</time>
      </trkpt>
      <trkpt lat="47.19955" lon="-1.56708">
        <ele>54</ele>
        <time>2020-09-26T09:06:00.000Z</time>
      </trkpt>
      <trkpt lat="47.19955" lon="-1.56727">
        <ele>54</ele>
        <time>2020-09-26T09:06:02.000Z</time>
      </trkpt>
      <trkpt lat="47.19955" lon="-1.56746">
        <ele>54</ele>
        <time>2020-09-26T09:06:04.000Z</time>
      </trkpt>
      <trkpt lat="47.19955" lon="-1.56764">
        <ele>54</ele>
        <time>2020-09-26T09:06:06.000Z</time>
      </trkpt>
      <trkpt lat="47.19954" lon="-1.56781">
        <ele>55</ele>
        <time>2020-09-26T09:06:08.000Z</time>
      </trkpt>
      <trkpt lat="47.19954" lon="-1.56799">
        <ele>55</ele>
        <time>2020-09-26T09:06:10.000Z</time>
      </trkpt>
      <trkpt lat="47.19954" lon="-1.56817">
        <ele>54</ele>
        <time>2020-09-26T09:06:12.000Z</time>
      </trkpt>
      <trkpt lat="47.19954" lon="-1.56836">
        <ele>55</ele>
        <time>2020-09-26T09:06:14.000Z</time>
      </trkpt>
      <trkpt lat="47.19954" lon="-1.56855">
        <ele>55</ele>
        <time>2020-09-26T09:06:16.000Z</time>
      </trkpt>
      <trkpt lat="47.19954" lon="-1.56873">
        <ele>54</ele>
        <time>2020-09-26T09:06:18.000Z</time>
      </trkpt>
      <trkpt lat="47.19954" lon="-1.56891">
        <ele>54</ele>
        <time>2020-09-26T09:06:20.000Z</time>
      </trkpt>
      <trkpt lat="47.19954" lon="-1.56918">
        <ele>54</ele>
        <time>2020-09-26T09:06:23.000Z</time>
      </trkpt>
      <trkpt lat="47.19954" lon="-1.56936">
        <ele>54</ele>
        <time>2020-09-26T09:06:25.000Z</time>
      </trkpt>
      <trkpt lat="47.19954" lon="-1.56956">
        <ele>54</ele>
        <time>2020-09-26T09:06:27.000Z</time>
      </trkpt>
      <trkpt lat="47.19955" lon="-1.56974">
        <ele>54</ele>
        <time>2020-09-26T09:06:29.000Z</time>
      </trkpt>
      <trkpt lat="47.19955" lon="-1.56993">
        <ele>54</ele>
        <time>2020-09-26T09:06:31.000Z</time>
      </trkpt>
      <trkpt lat="47.19954" lon="-1.57012">
        <ele>54</ele>
        <time>2020-09-26T09:06:33.000Z</time>
      </trkpt>
      <trkpt lat="47.19954" lon="-1.5703">
        <ele>54</ele>
        <time>2020-09-26T09:06:35.000Z</time>
      </trkpt>
      <trkpt lat="47.19957" lon="-1.57047">
        <ele>54</ele>
        <time>2020-09-26T09:06:37.000Z</time>
      </trkpt>
      <trkpt lat="47.19962" lon="-1.57064">
        <ele>54</ele>
        <time>2020-09-26T09:06:39.000Z</time>
      </trkpt>
      <trkpt lat="47.19967" lon="-1.5708">
        <ele>55</ele>
        <time>2020-09-26T09:06:41.000Z</time>
      </trkpt>
      <trkpt lat="47.19971" lon="-1.57097">
        <ele>55</ele>
        <time>2020-09-26T09:06:43.000Z</time>
      </trkpt>
      <trkpt lat="47.19975" lon="-1.57113">
        <ele>55</ele>
        <time>2020-09-26T09:06:45.000Z</time>
      </trkpt>
      <trkpt lat="47.19978" lon="-1.57131">
        <ele>54</ele>
        <time>2020-09-26T09:06:47.000Z</time>
      </trkpt>
      <trkpt lat="47.19981" lon="-1.57149">
        <ele>54</ele>
        <time>2020-09-26T09:06:49.000Z</time>
      </trkpt>
      <trkpt lat="47.19982" lon="-1.57167">
        <ele>54</ele>
        <time>2020-09-26T09:06:51.000Z</time>
      </trkpt>
      <trkpt lat="47.19982" lon="-1.57185">
        <ele>54</ele>
        <time>2020-09-26T09:06:53.000Z</time>
      </trkpt>
      <trkpt lat="47.19982" lon="-1.57203">
        <ele>54</ele>
        <time>2020-09-26T09:06:55.000Z</time>
      </trkpt>
      <trkpt lat="47.19982" lon="-1.5722">
        <ele>54</ele>
        <time>2020-09-26T09:06:57.000Z</time>
      </trkpt>
      <trkpt lat="47.19982" lon="-1.57238">
        <ele>54</ele>
        <time>2020-09-26T09:06:59.000Z</time>
      </trkpt>
      <trkpt lat="47.19982" lon="-1.57256">
        <ele>54</ele>
        <time>2020-09-26T09:07:01.000Z</time>
      </trkpt>
      <trkpt lat="47.19982" lon="-1.57272">
        <ele>55</ele>
        <time>2020-09-26T09:07:03.000Z</time>
      </trkpt>
      <trkpt lat="47.19983" lon="-1.57287">
        <ele>54</ele>
        <time>2020-09-26T09:07:05.000Z</time>
      </trkpt>
      <trkpt lat="47.19984" lon="-1.573">
        <ele>54</ele>
        <time>2020-09-26T09:07:07.000Z</time>
      </trkpt>
      <trkpt lat="47.19994" lon="-1.5731">
        <ele>53</ele>
        <time>2020-09-26T09:07:09.000Z</time>
      </trkpt>
      <trkpt lat="47.20006" lon="-1.57315">
        <ele>53</ele>
        <time>2020-09-26T09:07:11.000Z</time>
      </trkpt>
      <trkpt lat="47.20019" lon="-1.5731">
        <ele>52</ele>
        <time>2020-09-26T09:07:13.000Z</time>
      </trkpt>
      <trkpt lat="47.20032" lon="-1.573">
        <ele>52</ele>
        <time>2020-09-26T09:07:15.000Z</time>
      </trkpt>
      <trkpt lat="47.20045" lon="-1.5729">
        <ele>52</ele>
        <time>2020-09-26T09:07:17.000Z</time>
      </trkpt>
      <trkpt lat="47.20058" lon="-1.5728">
        <ele>52</ele>
        <time>2020-09-26T09:07:19.000Z</time>
      </trkpt>
      <trkpt lat="47.20071" lon="-1.57271">
        <ele>53</ele>
        <time>2020-09-26T09:07:21.000Z</time>
      </trkpt>
      <trkpt lat="47.20085" lon="-1.57262">
        <ele>52</ele>
        <time>2020-09-26T09:07:23.000Z</time>
      </trkpt>
      <trkpt lat="47.20098" lon="-1.57253">
        <ele>52</ele>
        <time>2020-09-26T09:07:25.000Z</time>
      </trkpt>
      <trkpt lat="47.20111" lon="-1.57245">
        <ele>52</ele>
        <time>2020-09-26T09:07:27.000Z</time>
      </trkpt>
      <trkpt lat="47.20125" lon="-1.57236">
        <ele>53</ele>
        <time>2020-09-26T09:07:29.000Z</time>
      </trkpt>
      <trkpt lat="47.20138" lon="-1.57227">
        <ele>53</ele>
        <time>2020-09-26T09:07:31.000Z</time>
      </trkpt>
      <trkpt lat="47.20151" lon="-1.57219">
        <ele>52</ele>
        <time>2020-09-26T09:07:33.000Z</time>
      </trkpt>
      <trkpt lat="47.20164" lon="-1.5721">
        <ele>52</ele>
        <time>2020-09-26T09:07:35.000Z</time>
      </trkpt>
      <trkpt lat="47.20177" lon="-1.57202">
        <ele>52</ele>
        <time>2020-09-26T09:07:37.000Z</time>
      </trkpt>
      <trkpt lat="47.2019" lon="-1.57193">
        <ele>52</ele>
        <time>2020-09-26T09:07:39.000Z</time>
      </trkpt>
      <trkpt lat="47.20203" lon="-1.57185">
        <ele>52</ele>
        <time>2020-09-26T09:07:41.000Z</time>
      </trkpt>
      <trkpt lat="47.20215" lon="-1.57176">
        <ele>52</ele>
        <time>2020-09-26T09:07:43.000Z</time>
      </trkpt>
      <trkpt lat="47.20229" lon="-1.57167">
        <ele>52</ele>
        <time>2020-09-26T09:07:45.000Z</time>
      </trkpt>
      <trkpt lat="47.20242" lon="-1.57159">
        <ele>52</ele>
        <time>2020-09-26T09:07:47.000Z</time>
      </trkpt>
      <trkpt lat="47.20255" lon="-1.57151">
        <ele>52</ele>
        <time>2020-09-26T09:07:49.000Z</time>
      </trkpt>
      <trkpt lat="47.20268" lon="-1.57143">
        <ele>52</ele>
        <time>2020-09-26T09:07:51.000Z</time>
      </trkpt>
      <trkpt lat="47.20281" lon="-1.57134">
        <ele>52</ele>
        <time>2020-09-26T09:07:53.000Z</time>
      </trkpt>
      <trkpt lat="47.20293" lon="-1.57124">
        <ele>52</ele>
        <time>2020-09-26T09:07:55.000Z</time>
      </trkpt>
      <trkpt lat="47.20307" lon="-1.57115">
        <ele>52</ele>
        <time>2020-09-26T09:07:57.000Z</time>
      </trkpt>
      <trkpt lat="47.2032" lon="-1.57107">
        <ele>53</ele>
        <time>2020-09-26T09:07:59.000Z</time>
      </trkpt>
      <trkpt lat="47.20334" lon="-1.57099">
        <ele>53</ele>
        <time>2020-09-26T09:08:01.000Z</time>
      </trkpt>
      <trkpt lat="47.20345" lon="-1.57087">
        <ele>53</ele>
        <time>2020-09-26T09:08:03.000Z</time>
      </trkpt>
      <trkpt lat="47.20352" lon="-1.57068">
        <ele>52</ele>
        <time>2020-09-26T09:08:05.000Z</time>
      </trkpt>
      <trkpt lat="47.20359" lon="-1.5705">
        <ele>52</ele>
        <time>2020-09-26T09:08:07.000Z</time>
      </trkpt>
      <trkpt lat="47.20366" lon="-1.57031">
        <ele>52</ele>
        <time>2020-09-26T09:08:09.000Z</time>
      </trkpt>
      <trkpt lat="47.2037" lon="-1.5701">
        <ele>52</ele>
        <time>2020-09-26T09:08:11.000Z</time>
      </trkpt>
      <trkpt lat="47.20373" lon="-1.56988">
        <ele>52</ele>
        <time>2020-09-26T09:08:13.000Z</time>
      </trkpt>
      <trkpt lat="47.20375" lon="-1.56967">
        <ele>52</ele>
        <time>2020-09-26T09:08:15.000Z</time>
      </trkpt>
      <trkpt lat="47.20378" lon="-1.56945">
        <ele>52</ele>
        <time>2020-09-26T09:08:17.000Z</time>
      </trkpt>
      <trkpt lat="47.2038" lon="-1.56924">
        <ele>51</ele>
        <time>2020-09-26T09:08:19.000Z</time>
      </trkpt>
      <trkpt lat="47.20383" lon="-1.56904">
        <ele>51</ele>
        <time>2020-09-26T09:08:21.000Z</time>
      </trkpt>
      <trkpt lat="47.20386" lon="-1.56882">
        <ele>51</ele>
        <time>2020-09-26T09:08:23.000Z</time>
      </trkpt>
      <trkpt lat="47.20388" lon="-1.5686">
        <ele>51</ele>
        <time>2020-09-26T09:08:25.000Z</time>
      </trkpt>
      <trkpt lat="47.2039" lon="-1.56838">
        <ele>50</ele>
        <time>2020-09-26T09:08:27.000Z</time>
      </trkpt>
      <trkpt lat="47.20393" lon="-1.56816">
        <ele>50</ele>
        <time>2020-09-26T09:08:29.000Z</time>
      </trkpt>
      <trkpt lat="47.20394" lon="-1.56796">
        <ele>50</ele>
        <time>2020-09-26T09:08:31.000Z</time>
      </trkpt>
      <trkpt lat="47.20397" lon="-1.56775">
        <ele>50</ele>
        <time>2020-09-26T09:08:33.000Z</time>
      </trkpt>
      <trkpt lat="47.204" lon="-1.56754">
        <ele>50</ele>
        <time>2020-09-26T09:08:35.000Z</time>
      </trkpt>
      <trkpt lat="47.20403" lon="-1.56733">
        <ele>49</ele>
        <time>2020-09-26T09:08:37.000Z</time>
      </trkpt>
      <trkpt lat="47.20407" lon="-1.56713">
        <ele>49</ele>
        <time>2020-09-26T09:08:39.000Z</time>
      </trkpt>
      <trkpt lat="47.20411" lon="-1.56693">
        <ele>50</ele>
        <time>2020-09-26T09:08:41.000Z</time>
      </trkpt>
      <trkpt lat="47.20413" lon="-1.56672">
        <ele>50</ele>
        <time>2020-09-26T09:08:43.000Z</time>
      </trkpt>
      <trkpt lat="47.20413" lon="-1.56652">
        <ele>49</ele>
        <time>2020-09-26T09:08:45.000Z</time>
      </trkpt>
      <trkpt lat="47.20414" lon="-1.56632">
        <ele>49</ele>
        <time>2020-09-26T09:08:47.000Z</time>
      </trkpt>
      <trkpt lat="47.20415" lon="-1.56608">
        <ele>52</ele>
        <time>2020-09-26T09:08:49.000Z</time>
      </trkpt>
      <trkpt lat="47.20418" lon="-1.56586">
        <ele>54</ele>
        <time>2020-09-26T09:08:51.000Z</time>
      </trkpt>
      <trkpt lat="47.20422" lon="-1.56563">
        <ele>55</ele>
        <time>2020-09-26T09:08:53.000Z</time>
      </trkpt>
      <trkpt lat="47.20424" lon="-1.56542">
        <ele>55</ele>
        <time>2020-09-26T09:08:55.000Z</time>
      </trkpt>
      <trkpt lat="47.20426" lon="-1.56521">
        <ele>54</ele>
        <time>2020-09-26T09:08:57.000Z</time>
      </trkpt>
      <trkpt lat="47.20426" lon="-1.565">
        <ele>53</ele>
        <time>2020-09-26T09:08:59.000Z</time>
      </trkpt>
      <trkpt lat="47.20427" lon="-1.5648">
        <ele>54</ele>
        <time>2020-09-26T09:09:01.000Z</time>
      </trkpt>
      <trkpt lat="47.20429" lon="-1.56458">
        <ele>53</ele>
        <time>2020-09-26T09:09:03.000Z</time>
      </trkpt>
      <trkpt lat="47.2043" lon="-1.56437">
        <ele>52</ele>
        <time>2020-09-26T09:09:05.000Z</time>
      </trkpt>
      <trkpt lat="47.20433" lon="-1.56417">
        <ele>51</ele>
        <time>2020-09-26T09:09:07.000Z</time>
      </trkpt>
      <trkpt lat="47.20435" lon="-1.56395">
        <ele>51</ele>
        <time>2020-09-26T09:09:09.000Z</time>
      </trkpt>
      <trkpt lat="47.20437" lon="-1.56375">
        <ele>51</ele>
        <time>2020-09-26T09:09:11.000Z</time>
      </trkpt>
      <trkpt lat="47.20439" lon="-1.56353">
        <ele>50</ele>
        <time>2020-09-26T09:09:13.000Z</time>
      </trkpt>
      <trkpt lat="47.20441" lon="-1.56333">
        <ele>50</ele>
        <time>2020-09-26T09:09:15.000Z</time>
      </trkpt>
      <trkpt lat="47.20442" lon="-1.56314">
        <ele>50</ele>
        <time>2020-09-26T09:09:17.000Z</time>
      </trkpt>
      <trkpt lat="47.20444" lon="-1.56295">
        <ele>49</ele>
        <time>2020-09-26T09:09:19.000Z</time>
      </trkpt>
      <trkpt lat="47.20444" lon="-1.56276">
        <ele>48</ele>
        <time>2020-09-26T09:09:21.000Z</time>
      </trkpt>
      <trkpt lat="47.20444" lon="-1.56257">
        <ele>48</ele>
        <time>2020-09-26T09:09:23.000Z</time>
      </trkpt>
      <trkpt lat="47.20449" lon="-1.56241">
        <ele>49</ele>
        <time>2020-09-26T09:09:25.000Z</time>
      </trkpt>
      <trkpt lat="47.20459" lon="-1.56238">
        <ele>50</ele>
        <time>2020-09-26T09:09:27.000Z</time>
      </trkpt>
      <trkpt lat="47.20472" lon="-1.56247">
        <ele>51</ele>
        <time>2020-09-26T09:09:29.000Z</time>
      </trkpt>
      <trkpt lat="47.20485" lon="-1.56255">
        <ele>51</ele>
        <time>2020-09-26T09:09:31.000Z</time>
      </trkpt>
      <trkpt lat="47.20496" lon="-1.56266">
        <ele>53</ele>
        <time>2020-09-26T09:09:33.000Z</time>
      </trkpt>
      <trkpt lat="47.20507" lon="-1.56277">
        <ele>53</ele>
        <time>2020-09-26T09:09:35.000Z</time>
      </trkpt>
      <trkpt lat="47.20519" lon="-1.56288">
        <ele>52</ele>
        <time>2020-09-26T09:09:37.000Z</time>
      </trkpt>
      <trkpt lat="47.20531" lon="-1.56299">
        <ele>53</ele>
        <time>2020-09-26T09:09:39.000Z</time>
      </trkpt>
      <trkpt lat="47.20543" lon="-1.5631">
        <ele>53</ele>
        <time>2020-09-26T09:09:41.000Z</time>
      </trkpt>
      <trkpt lat="47.20554" lon="-1.56322">
        <ele>54</ele>
        <time>2020-09-26T09:09:43.000Z</time>
      </trkpt>
      <trkpt lat="47.20566" lon="-1.56333">
        <ele>53</ele>
        <time>2020-09-26T09:09:45.000Z</time>
      </trkpt>
      <trkpt lat="47.20578" lon="-1.56342">
        <ele>53</ele>
        <time>2020-09-26T09:09:47.000Z</time>
      </trkpt>
      <trkpt lat="47.20587" lon="-1.56354">
        <ele>52</ele>
        <time>2020-09-26T09:09:49.000Z</time>
      </trkpt>
      <trkpt lat="47.20598" lon="-1.56364">
        <ele>53</ele>
        <time>2020-09-26T09:09:51.000Z</time>
      </trkpt>
      <trkpt lat="47.20609" lon="-1.56374">
        <ele>53</ele>
        <time>2020-09-26T09:09:53.000Z</time>
      </trkpt>
      <trkpt lat="47.20621" lon="-1.56384">
        <ele>52</ele>
        <time>2020-09-26T09:09:55.000Z</time>
      </trkpt>
      <trkpt lat="47.20633" lon="-1.56395">
        <ele>52</ele>
        <time>2020-09-26T09:09:57.000Z</time>
      </trkpt>
      <trkpt lat="47.20642" lon="-1.56405">
        <ele>52</ele>
        <time>2020-09-26T09:09:59.000Z</time>
      </trkpt>
      <trkpt lat="47.20652" lon="-1.56413">
        <ele>52</ele>
        <time>2020-09-26T09:10:01.000Z</time>
      </trkpt>
      <trkpt lat="47.20664" lon="-1.56423">
        <ele>52</ele>
        <time>2020-09-26T09:10:03.000Z</time>
      </trkpt>
      <trkpt lat="47.20675" lon="-1.56433">
        <ele>53</ele>
        <time>2020-09-26T09:10:05.000Z</time>
      </trkpt>
      <trkpt lat="47.20687" lon="-1.56446">
        <ele>53</ele>
        <time>2020-09-26T09:10:07.000Z</time>
      </trkpt>
      <trkpt lat="47.20699" lon="-1.56457">
        <ele>53</ele>
        <time>2020-09-26T09:10:09.000Z</time>
      </trkpt>
      <trkpt lat="47.20711" lon="-1.56466">
        <ele>53</ele>
        <time>2020-09-26T09:10:11.000Z</time>
      </trkpt>
      <trkpt lat="47.20722" lon="-1.56476">
        <ele>53</ele>
        <time>2020-09-26T09:10:13.000Z</time>
      </trkpt>
      <trkpt lat="47.20733" lon="-1.56486">
        <ele>53</ele>
        <time>2020-09-26T09:10:15.000Z</time>
      </trkpt>
      <trkpt lat="47.20744" lon="-1.56495">
        <ele>53</ele>
        <time>2020-09-26T09:10:17.000Z</time>
      </trkpt>
      <trkpt lat="47.20754" lon="-1.56506">
        <ele>53</ele>
        <time>2020-09-26T09:10:19.000Z</time>
      </trkpt>
      <trkpt lat="47.20765" lon="-1.56516">
        <ele>53</ele>
        <time>2020-09-26T09:10:21.000Z</time>
      </trkpt>
      <trkpt lat="47.20777" lon="-1.56525">
        <ele>54</ele>
        <time>2020-09-26T09:10:23.000Z</time>
      </trkpt>
      <trkpt lat="47.20787" lon="-1.56535">
        <ele>55</ele>
        <time>2020-09-26T09:10:25.000Z</time>
      </trkpt>
      <trkpt lat="47.20796" lon="-1.56546">
        <ele>55</ele>
        <time>2020-09-26T09:10:27.000Z</time>
      </trkpt>
      <trkpt lat="47.20806" lon="-1.56555">
        <ele>56</ele>
        <time>2020-09-26T09:10:29.000Z</time>
      </trkpt>
      <trkpt lat="47.20815" lon="-1.56564">
        <ele>57</ele>
        <time>2020-09-26T09:10:31.000Z</time>
      </trkpt>
      <trkpt lat="47.20825" lon="-1.56574">
        <ele>58</ele>
        <time>2020-09-26T09:10:33.000Z</time>
      </trkpt>
      <trkpt lat="47.20835" lon="-1.56584">
        <ele>58</ele>
        <time>2020-09-26T09:10:35.000Z</time>
      </trkpt>
      <trkpt lat="47.20844" lon="-1.56591">
        <ele>58</ele>
        <time>2020-09-26T09:10:37.000Z</time>
      </trkpt>
      <trkpt lat="47.20852" lon="-1.566">
        <ele>58</ele>
        <time>2020-09-26T09:10:39.000Z</time>
      </trkpt>
      <trkpt lat="47.20861" lon="-1.56608">
        <ele>57</ele>
        <time>2020-09-26T09:10:41.000Z</time>
      </trkpt>
      <trkpt lat="47.2087" lon="-1.56616">
        <ele>57</ele>
        <time>2020-09-26T09:10:43.000Z</time>
      </trkpt>
      <trkpt lat="47.20879" lon="-1.56624">
        <ele>56</ele>
        <time>2020-09-26T09:10:45.000Z</time>
      </trkpt>
      <trkpt lat="47.20889" lon="-1.56632">
        <ele>56</ele>
        <time>2020-09-26T09:10:47.000Z</time>
      </trkpt>
      <trkpt lat="47.209" lon="-1.56641">
        <ele>55</ele>
        <time>2020-09-26T09:10:49.000Z</time>
      </trkpt>
      <trkpt lat="47.20911" lon="-1.56646">
        <ele>55</ele>
        <time>2020-09-26T09:10:51.000Z</time>
      </trkpt>
      <trkpt lat="47.20923" lon="-1.56652">
        <ele>55</ele>
        <time>2020-09-26T09:10:53.000Z</time>
      </trkpt>
      <trkpt lat="47.20929" lon="-1.56667">
        <ele>54</ele>
        <time>2020-09-26T09:10:55.000Z</time>
      </trkpt>
      <trkpt lat="47.20928" lon="-1.56684">
        <ele>54</ele>
        <time>2020-09-26T09:10:58.000Z</time>
      </trkpt>
      <trkpt lat="47.20926" lon="-1.56701">
        <ele>53</ele>
        <time>2020-09-26T09:11:06.000Z</time>
      </trkpt>
      <trkpt lat="47.20921" lon="-1.56716">
        <ele>53</ele>
        <time>2020-09-26T09:11:08.000Z</time>
      </trkpt>
      <trkpt lat="47.20915" lon="-1.56734">
        <ele>53</ele>
        <time>2020-09-26T09:11:10.000Z</time>
      </trkpt>
      <trkpt lat="47.20909" lon="-1.56754">
        <ele>53</ele>
        <time>2020-09-26T09:11:12.000Z</time>
      </trkpt>
      <trkpt lat="47.20903" lon="-1.56774">
        <ele>54</ele>
        <time>2020-09-26T09:11:14.000Z</time>
      </trkpt>
      <trkpt lat="47.20896" lon="-1.56793">
        <ele>55</ele>
        <time>2020-09-26T09:11:16.000Z</time>
      </trkpt>
      <trkpt lat="47.2089" lon="-1.56812">
        <ele>56</ele>
        <time>2020-09-26T09:11:18.000Z</time>
      </trkpt>
      <trkpt lat="47.20884" lon="-1.56831">
        <ele>56</ele>
        <time>2020-09-26T09:11:20.000Z</time>
      </trkpt>
      <trkpt lat="47.20877" lon="-1.56851">
        <ele>55</ele>
        <time>2020-09-26T09:11:22.000Z</time>
      </trkpt>
      <trkpt lat="47.20872" lon="-1.56869">
        <ele>55</ele>
        <time>2020-09-26T09:11:24.000Z</time>
      </trkpt>
      <trkpt lat="47.20866" lon="-1.56889">
        <ele>55</ele>
        <time>2020-09-26T09:11:26.000Z</time>
      </trkpt>
      <trkpt lat="47.20859" lon="-1.56909">
        <ele>54</ele>
        <time>2020-09-26T09:11:28.000Z</time>
      </trkpt>
      <trkpt lat="47.20853" lon="-1.56931">
        <ele>53</ele>
        <time>2020-09-26T09:11:30.000Z</time>
      </trkpt>
      <trkpt lat="47.20845" lon="-1.56951">
        <ele>53</ele>
        <time>2020-09-26T09:11:32.000Z</time>
      </trkpt>
      <trkpt lat="47.20838" lon="-1.56973">
        <ele>52</ele>
        <time>2020-09-26T09:11:34.000Z</time>
      </trkpt>
      <trkpt lat="47.20831" lon="-1.56995">
        <ele>52</ele>
        <time>2020-09-26T09:11:36.000Z</time>
      </trkpt>
      <trkpt lat="47.20824" lon="-1.57016">
        <ele>52</ele>
        <time>2020-09-26T09:11:38.000Z</time>
      </trkpt>
      <trkpt lat="47.20816" lon="-1.57036">
        <ele>53</ele>
        <time>2020-09-26T09:11:40.000Z</time>
      </trkpt>
      <trkpt lat="47.20809" lon="-1.57055">
        <ele>53</ele>
        <time>2020-09-26T09:11:42.000Z</time>
      </trkpt>
      <trkpt lat="47.20803" lon="-1.57075">
        <ele>53</ele>
        <time>2020-09-26T09:11:44.000Z</time>
      </trkpt>
      <trkpt lat="47.20796" lon="-1.57094">
        <ele>53</ele>
        <time>2020-09-26T09:11:46.000Z</time>
      </trkpt>
      <trkpt lat="47.20789" lon="-1.57112">
        <ele>52</ele>
        <time>2020-09-26T09:11:48.000Z</time>
      </trkpt>
      <trkpt lat="47.20782" lon="-1.5713">
        <ele>52</ele>
        <time>2020-09-26T09:11:50.000Z</time>
      </trkpt>
      <trkpt lat="47.20775" lon="-1.57148">
        <ele>51</ele>
        <time>2020-09-26T09:11:52.000Z</time>
      </trkpt>
      <trkpt lat="47.20769" lon="-1.57165">
        <ele>51</ele>
        <time>2020-09-26T09:11:54.000Z</time>
      </trkpt>
      <trkpt lat="47.20762" lon="-1.57182">
        <ele>51</ele>
        <time>2020-09-26T09:11:56.000Z</time>
      </trkpt>
      <trkpt lat="47.20755" lon="-1.57199">
        <ele>51</ele>
        <time>2020-09-26T09:11:58.000Z</time>
      </trkpt>
      <trkpt lat="47.2075" lon="-1.57216">
        <ele>51</ele>
        <time>2020-09-26T09:12:00.000Z</time>
      </trkpt>
      <trkpt lat="47.20745" lon="-1.57232">
        <ele>51</ele>
        <time>2020-09-26T09:12:02.000Z</time>
      </trkpt>
      <trkpt lat="47.20735" lon="-1.57242">
        <ele>51</ele>
        <time>2020-09-26T09:12:04.000Z</time>
      </trkpt>
      <trkpt lat="47.20721" lon="-1.57244">
        <ele>50</ele>
        <time>2020-09-26T09:12:06.000Z</time>
      </trkpt>
      <trkpt lat="47.20709" lon="-1.57251">
        <ele>51</ele>
        <time>2020-09-26T09:12:08.000Z</time>
      </trkpt>
      <trkpt lat="47.207" lon="-1.57265">
        <ele>51</ele>
        <time>2020-09-26T09:12:10.000Z</time>
      </trkpt>
      <trkpt lat="47.20692" lon="-1.57278">
        <ele>51</ele>
        <time>2020-09-26T09:12:12.000Z</time>
      </trkpt>
      <trkpt lat="47.20688" lon="-1.57291">
        <ele>50</ele>
        <time>2020-09-26T09:12:14.000Z</time>
      </trkpt>
      <trkpt lat="47.20685" lon="-1.57306">
        <ele>51</ele>
        <time>2020-09-26T09:12:16.000Z</time>
      </trkpt>
      <trkpt lat="47.20675" lon="-1.57317">
        <ele>52</ele>
        <time>2020-09-26T09:12:18.000Z</time>
      </trkpt>
      <trkpt lat="47.20663" lon="-1.57328">
        <ele>52</ele>
        <time>2020-09-26T09:12:20.000Z</time>
      </trkpt>
      <trkpt lat="47.20652" lon="-1.57342">
        <ele>53</ele>
        <time>2020-09-26T09:12:22.000Z</time>
      </trkpt>
      <trkpt lat="47.20642" lon="-1.57357">
        <ele>53</ele>
        <time>2020-09-26T09:12:24.000Z</time>
      </trkpt>
      <trkpt lat="47.20632" lon="-1.57371">
        <ele>54</ele>
        <time>2020-09-26T09:12:26.000Z</time>
      </trkpt>
      <trkpt lat="47.2062" lon="-1.57386">
        <ele>53</ele>
        <time>2020-09-26T09:12:28.000Z</time>
      </trkpt>
      <trkpt lat="47.20609" lon="-1.57399">
        <ele>53</ele>
        <time>2020-09-26T09:12:30.000Z</time>
      </trkpt>
      <trkpt lat="47.20598" lon="-1.57413">
        <ele>52</ele>
        <time>2020-09-26T09:12:32.000Z</time>
      </trkpt>
      <trkpt lat="47.20587" lon="-1.57427">
        <ele>52</ele>
        <time>2020-09-26T09:12:34.000Z</time>
      </trkpt>
      <trkpt lat="47.20576" lon="-1.57439">
        <ele>52</ele>
        <time>2020-09-26T09:12:36.000Z</time>
      </trkpt>
      <trkpt lat="47.20564" lon="-1.57452">
        <ele>52</ele>
        <time>2020-09-26T09:12:38.000Z</time>
      </trkpt>
      <trkpt lat="47.20552" lon="-1.57462">
        <ele>52</ele>
        <time>2020-09-26T09:12:40.000Z</time>
      </trkpt>
      <trkpt lat="47.2054" lon="-1.57474">
        <ele>52</ele>
        <time>2020-09-26T09:12:42.000Z</time>
      </trkpt>
      <trkpt lat="47.20527" lon="-1.57482">
        <ele>53</ele>
        <time>2020-09-26T09:12:44.000Z</time>
      </trkpt>
      <trkpt lat="47.20514" lon="-1.57486">
        <ele>54</ele>
        <time>2020-09-26T09:12:46.000Z</time>
      </trkpt>
      <trkpt lat="47.20501" lon="-1.57493">
        <ele>53</ele>
        <time>2020-09-26T09:12:48.000Z</time>
      </trkpt>
      <trkpt lat="47.20491" lon="-1.575">
        <ele>54</ele>
        <time>2020-09-26T09:12:50.000Z</time>
      </trkpt>
      <trkpt lat="47.20483" lon="-1.57506">
        <ele>54</ele>
        <time>2020-09-26T09:13:10.000Z</time>
      </trkpt>
      <trkpt lat="47.20472" lon="-1.57514">
        <ele>54</ele>
        <time>2020-09-26T09:13:13.000Z</time>
      </trkpt>
      <trkpt lat="47.2046" lon="-1.5752">
        <ele>53</ele>
        <time>2020-09-26T09:13:15.000Z</time>
      </trkpt>
      <trkpt lat="47.20445" lon="-1.5752">
        <ele>53</ele>
        <time>2020-09-26T09:13:17.000Z</time>
      </trkpt>
      <trkpt lat="47.20429" lon="-1.57522">
        <ele>53</ele>
        <time>2020-09-26T09:13:19.000Z</time>
      </trkpt>
      <trkpt lat="47.20411" lon="-1.57526">
        <ele>54</ele>
        <time>2020-09-26T09:13:21.000Z</time>
      </trkpt>
      <trkpt lat="47.20403" lon="-1.57529">
        <ele>53</ele>
        <time>2020-09-26T09:13:22.000Z</time>
      </trkpt>
      <trkpt lat="47.20386" lon="-1.57536">
        <ele>54</ele>
        <time>2020-09-26T09:13:24.000Z</time>
      </trkpt>
      <trkpt lat="47.2037" lon="-1.57544">
        <ele>54</ele>
        <time>2020-09-26T09:13:26.000Z</time>
      </trkpt>
      <trkpt lat="47.20361" lon="-1.57549">
        <ele>54</ele>
        <time>2020-09-26T09:13:27.000Z</time>
      </trkpt>
      <trkpt lat="47.20346" lon="-1.57557">
        <ele>54</ele>
        <time>2020-09-26T09:13:29.000Z</time>
      </trkpt>
      <trkpt lat="47.2033" lon="-1.57566">
        <ele>54</ele>
        <time>2020-09-26T09:13:31.000Z</time>
      </trkpt>
      <trkpt lat="47.20315" lon="-1.57575">
        <ele>54</ele>
        <time>2020-09-26T09:13:33.000Z</time>
      </trkpt>
      <trkpt lat="47.203" lon="-1.57583">
        <ele>53</ele>
        <time>2020-09-26T09:13:35.000Z</time>
      </trkpt>
      <trkpt lat="47.20286" lon="-1.57591">
        <ele>53</ele>
        <time>2020-09-26T09:13:37.000Z</time>
      </trkpt>
      <trkpt lat="47.20271" lon="-1.57599">
        <ele>53</ele>
        <time>2020-09-26T09:13:39.000Z</time>
      </trkpt>
      <trkpt lat="47.20257" lon="-1.57608">
        <ele>53</ele>
        <time>2020-09-26T09:13:41.000Z</time>
      </trkpt>
      <trkpt lat="47.20242" lon="-1.57618">
        <ele>53</ele>
        <time>2020-09-26T09:13:43.000Z</time>
      </trkpt>
      <trkpt lat="47.20229" lon="-1.57629">
        <ele>53</ele>
        <time>2020-09-26T09:13:45.000Z</time>
      </trkpt>
      <trkpt lat="47.20215" lon="-1.5764">
        <ele>52</ele>
        <time>2020-09-26T09:13:47.000Z</time>
      </trkpt>
      <trkpt lat="47.20202" lon="-1.57651">
        <ele>52</ele>
        <time>2020-09-26T09:13:49.000Z</time>
      </trkpt>
      <trkpt lat="47.20189" lon="-1.57662">
        <ele>52</ele>
        <time>2020-09-26T09:13:51.000Z</time>
      </trkpt>
      <trkpt lat="47.20177" lon="-1.57673">
        <ele>51</ele>
        <time>2020-09-26T09:13:53.000Z</time>
      </trkpt>
      <trkpt lat="47.20164" lon="-1.57686">
        <ele>52</ele>
        <time>2020-09-26T09:13:55.000Z</time>
      </trkpt>
      <trkpt lat="47.20152" lon="-1.577">
        <ele>52</ele>
        <time>2020-09-26T09:13:57.000Z</time>
      </trkpt>
      <trkpt lat="47.20141" lon="-1.57714">
        <ele>52</ele>
        <time>2020-09-26T09:13:59.000Z</time>
      </trkpt>
      <trkpt lat="47.2013" lon="-1.57728">
        <ele>51</ele>
        <time>2020-09-26T09:14:01.000Z</time>
      </trkpt>
      <trkpt lat="47.20119" lon="-1.57744">
        <ele>51</ele>
        <time>2020-09-26T09:14:03.000Z</time>
      </trkpt>
      <trkpt lat="47.20109" lon="-1.5776">
        <ele>50</ele>
        <time>2020-09-26T09:14:05.000Z</time>
      </trkpt>
      <trkpt lat="47.201" lon="-1.57776">
        <ele>50</ele>
        <time>2020-09-26T09:14:07.000Z</time>
      </trkpt>
      <trkpt lat="47.2009" lon="-1.57793">
        <ele>51</ele>
        <time>2020-09-26T09:14:09.000Z</time>
      </trkpt>
      <trkpt lat="47.20081" lon="-1.57809">
        <ele>51</ele>
        <time>2020-09-26T09:14:11.000Z</time>
      </trkpt>
      <trkpt lat="47.20072" lon="-1.57825">
        <ele>50</ele>
        <time>2020-09-26T09:14:13.000Z</time>
      </trkpt>
      <trkpt lat="47.20063" lon="-1.57841">
        <ele>50</ele>
        <time>2020-09-26T09:14:15.000Z</time>
      </trkpt>
      <trkpt lat="47.20055" lon="-1.57858">
        <ele>50</ele>
        <time>2020-09-26T09:14:17.000Z</time>
      </trkpt>
      <trkpt lat="47.20046" lon="-1.57874">
        <ele>50</ele>
        <time>2020-09-26T09:14:19.000Z</time>
      </trkpt>
      <trkpt lat="47.20038" lon="-1.5789">
        <ele>51</ele>
        <time>2020-09-26T09:14:21.000Z</time>
      </trkpt>
      <trkpt lat="47.20031" lon="-1.57907">
        <ele>52</ele>
        <time>2020-09-26T09:14:23.000Z</time>
      </trkpt>
      <trkpt lat="47.20024" lon="-1.57923">
        <ele>53</ele>
        <time>2020-09-26T09:14:25.000Z</time>
      </trkpt>
      <trkpt lat="47.20016" lon="-1.57942">
        <ele>53</ele>
        <time>2020-09-26T09:14:27.000Z</time>
      </trkpt>
      <trkpt lat="47.20009" lon="-1.5796">
        <ele>53</ele>
        <time>2020-09-26T09:14:29.000Z</time>
      </trkpt>
      <trkpt lat="47.20001" lon="-1.57979">
        <ele>54</ele>
        <time>2020-09-26T09:14:31.000Z</time>
      </trkpt>
      <trkpt lat="47.19993" lon="-1.57996">
        <ele>54</ele>
        <time>2020-09-26T09:14:33.000Z</time>
      </trkpt>
      <trkpt lat="47.19987" lon="-1.58015">
        <ele>54</ele>
        <time>2020-09-26T09:14:35.000Z</time>
      </trkpt>
      <trkpt lat="47.19981" lon="-1.58034">
        <ele>55</ele>
        <time>2020-09-26T09:14:37.000Z</time>
      </trkpt>
      <trkpt lat="47.19975" lon="-1.58053">
        <ele>54</ele>
        <time>2020-09-26T09:14:39.000Z</time>
      </trkpt>
      <trkpt lat="47.19969" lon="-1.58072">
        <ele>54</ele>
        <time>2020-09-26T09:14:41.000Z</time>
      </trkpt>
      <trkpt lat="47.19963" lon="-1.58091">
        <ele>54</ele>
        <time>2020-09-26T09:14:43.000Z</time>
      </trkpt>
      <trkpt lat="47.19958" lon="-1.58111">
        <ele>54</ele>
        <time>2020-09-26T09:14:45.000Z</time>
      </trkpt>
      <trkpt lat="47.19953" lon="-1.58131">
        <ele>54</ele>
        <time>2020-09-26T09:14:47.000Z</time>
      </trkpt>
      <trkpt lat="47.1995" lon="-1.5815">
        <ele>54</ele>
        <time>2020-09-26T09:14:49.000Z</time>
      </trkpt>
      <trkpt lat="47.19945" lon="-1.5817">
        <ele>54</ele>
        <time>2020-09-26T09:14:51.000Z</time>
      </trkpt>
      <trkpt lat="47.19941" lon="-1.5819">
        <ele>54</ele>
        <time>2020-09-26T09:14:53.000Z</time>
      </trkpt>
      <trkpt lat="47.19936" lon="-1.58209">
        <ele>53</ele>
        <time>2020-09-26T09:14:55.000Z</time>
      </trkpt>
      <trkpt lat="47.19932" lon="-1.58228">
        <ele>54</ele>
        <time>2020-09-26T09:14:57.000Z</time>
      </trkpt>
      <trkpt lat="47.19927" lon="-1.58247">
        <ele>54</ele>
        <time>2020-09-26T09:14:59.000Z</time>
      </trkpt>
      <trkpt lat="47.19922" lon="-1.58266">
        <ele>54</ele>
        <time>2020-09-26T09:15:01.000Z</time>
      </trkpt>
      <trkpt lat="47.19917" lon="-1.58286">
        <ele>54</ele>
        <time>2020-09-26T09:15:03.000Z</time>
      </trkpt>
      <trkpt lat="47.19912" lon="-1.58306">
        <ele>53</ele>
        <time>2020-09-26T09:15:05.000Z</time>
      </trkpt>
      <trkpt lat="47.19908" lon="-1.58326">
        <ele>53</ele>
        <time>2020-09-26T09:15:07.000Z</time>
      </trkpt>
      <trkpt lat="47.19903" lon="-1.58347">
        <ele>52</ele>
        <time>2020-09-26T09:15:09.000Z</time>
      </trkpt>
      <trkpt lat="47.19899" lon="-1.58365">
        <ele>53</ele>
        <time>2020-09-26T09:15:11.000Z</time>
      </trkpt>
      <trkpt lat="47.19895" lon="-1.58383">
        <ele>53</ele>
        <time>2020-09-26T09:15:13.000Z</time>
      </trkpt>
      <trkpt lat="47.19891" lon="-1.58402">
        <ele>53</ele>
        <time>2020-09-26T09:15:15.000Z</time>
      </trkpt>
      <trkpt lat="47.19886" lon="-1.58422">
        <ele>54</ele>
        <time>2020-09-26T09:15:17.000Z</time>
      </trkpt>
      <trkpt lat="47.19882" lon="-1.58441">
        <ele>54</ele>
        <time>2020-09-26T09:15:19.000Z</time>
      </trkpt>
      <trkpt lat="47.19878" lon="-1.58458">
        <ele>53</ele>
        <time>2020-09-26T09:15:21.000Z</time>
      </trkpt>
      <trkpt lat="47.19875" lon="-1.58475">
        <ele>53</ele>
        <time>2020-09-26T09:15:23.000Z</time>
      </trkpt>
      <trkpt lat="47.19874" lon="-1.58494">
        <ele>53</ele>
        <time>2020-09-26T09:15:25.000Z</time>
      </trkpt>
      <trkpt lat="47.19872" lon="-1.58513">
        <ele>52</ele>
        <time>2020-09-26T09:15:27.000Z</time>
      </trkpt>
      <trkpt lat="47.1987" lon="-1.58534">
        <ele>51</ele>
        <time>2020-09-26T09:15:29.000Z</time>
      </trkpt>
      <trkpt lat="47.19868" lon="-1.58555">
        <ele>51</ele>
        <time>2020-09-26T09:15:31.000Z</time>
      </trkpt>
      <trkpt lat="47.19866" lon="-1.58577">
        <ele>51</ele>
        <time>2020-09-26T09:15:33.000Z</time>
      </trkpt>
      <trkpt lat="47.19865" lon="-1.58598">
        <ele>50</ele>
        <time>2020-09-26T09:15:35.000Z</time>
      </trkpt>
      <trkpt lat="47.19863" lon="-1.5862">
        <ele>51</ele>
        <time>2020-09-26T09:15:37.000Z</time>
      </trkpt>
      <trkpt lat="47.19861" lon="-1.58641">
        <ele>51</ele>
        <time>2020-09-26T09:15:39.000Z</time>
      </trkpt>
      <trkpt lat="47.19859" lon="-1.58661">
        <ele>51</ele>
        <time>2020-09-26T09:15:41.000Z</time>
      </trkpt>
      <trkpt lat="47.1986" lon="-1.5868">
        <ele>51</ele>
        <time>2020-09-26T09:15:43.000Z</time>
      </trkpt>
      <trkpt lat="47.19859" lon="-1.587">
        <ele>52</ele>
        <time>2020-09-26T09:15:45.000Z</time>
      </trkpt>
      <trkpt lat="47.19856" lon="-1.58722">
        <ele>53</ele>
        <time>2020-09-26T09:15:47.000Z</time>
      </trkpt>
      <trkpt lat="47.19852" lon="-1.58743">
        <ele>55</ele>
        <time>2020-09-26T09:15:49.000Z</time>
      </trkpt>
      <trkpt lat="47.19849" lon="-1.58762">
        <ele>55</ele>
        <time>2020-09-26T09:15:51.000Z</time>
      </trkpt>
      <trkpt lat="47.19847" lon="-1.5878">
        <ele>56</ele>
        <time>2020-09-26T09:15:53.000Z</time>
      </trkpt>
      <trkpt lat="47.19846" lon="-1.58797">
        <ele>56</ele>
        <time>2020-09-26T09:15:55.000Z</time>
      </trkpt>
      <trkpt lat="47.19845" lon="-1.58811">
        <ele>56</ele>
        <time>2020-09-26T09:15:57.000Z</time>
      </trkpt>
      <trkpt lat="47.19843" lon="-1.58826">
        <ele>57</ele>
        <time>2020-09-26T09:15:59.000Z</time>
      </trkpt>
      <trkpt lat="47.19844" lon="-1.58842">
        <ele>57</ele>
        <time>2020-09-26T09:16:04.000Z</time>
      </trkpt>
      <trkpt lat="47.19832" lon="-1.58854">
        <ele>56</ele>
        <time>2020-09-26T09:16:07.000Z</time>
      </trkpt>
      <trkpt lat="47.1982" lon="-1.58856">
        <ele>55</ele>
        <time>2020-09-26T09:16:09.000Z</time>
      </trkpt>
      <trkpt lat="47.19811" lon="-1.5887">
        <ele>55</ele>
        <time>2020-09-26T09:16:11.000Z</time>
      </trkpt>
      <trkpt lat="47.19808" lon="-1.58889">
        <ele>55</ele>
        <time>2020-09-26T09:16:13.000Z</time>
      </trkpt>
      <trkpt lat="47.19806" lon="-1.58909">
        <ele>55</ele>
        <time>2020-09-26T09:16:15.000Z</time>
      </trkpt>
      <trkpt lat="47.19804" lon="-1.5893">
        <ele>54</ele>
        <time>2020-09-26T09:16:17.000Z</time>
      </trkpt>
      <trkpt lat="47.19801" lon="-1.58949">
        <ele>54</ele>
        <time>2020-09-26T09:16:19.000Z</time>
      </trkpt>
      <trkpt lat="47.1979" lon="-1.58963">
        <ele>54</ele>
        <time>2020-09-26T09:16:21.000Z</time>
      </trkpt>
      <trkpt lat="47.19781" lon="-1.58982">
        <ele>54</ele>
        <time>2020-09-26T09:16:23.000Z</time>
      </trkpt>
      <trkpt lat="47.19778" lon="-1.59001">
        <ele>54</ele>
        <time>2020-09-26T09:16:25.000Z</time>
      </trkpt>
      <trkpt lat="47.19775" lon="-1.59021">
        <ele>54</ele>
        <time>2020-09-26T09:16:27.000Z</time>
      </trkpt>
      <trkpt lat="47.19773" lon="-1.59041">
        <ele>54</ele>
        <time>2020-09-26T09:16:29.000Z</time>
      </trkpt>
      <trkpt lat="47.19769" lon="-1.5906">
        <ele>55</ele>
        <time>2020-09-26T09:16:31.000Z</time>
      </trkpt>
      <trkpt lat="47.19766" lon="-1.5908">
        <ele>55</ele>
        <time>2020-09-26T09:16:33.000Z</time>
      </trkpt>
      <trkpt lat="47.19764" lon="-1.59097">
        <ele>55</ele>
        <time>2020-09-26T09:16:35.000Z</time>
      </trkpt>
      <trkpt lat="47.19761" lon="-1.59115">
        <ele>55</ele>
        <time>2020-09-26T09:16:37.000Z</time>
      </trkpt>
      <trkpt lat="47.19758" lon="-1.59134">
        <ele>55</ele>
        <time>2020-09-26T09:16:39.000Z</time>
      </trkpt>
      <trkpt lat="47.19755" lon="-1.59152">
        <ele>55</ele>
        <time>2020-09-26T09:16:41.000Z</time>
      </trkpt>
      <trkpt lat="47.19752" lon="-1.5917">
        <ele>55</ele>
        <time>2020-09-26T09:16:43.000Z</time>
      </trkpt>
      <trkpt lat="47.19749" lon="-1.59188">
        <ele>55</ele>
        <time>2020-09-26T09:16:45.000Z</time>
      </trkpt>
      <trkpt lat="47.19746" lon="-1.59207">
        <ele>56</ele>
        <time>2020-09-26T09:16:47.000Z</time>
      </trkpt>
      <trkpt lat="47.19743" lon="-1.59225">
        <ele>56</ele>
        <time>2020-09-26T09:16:49.000Z</time>
      </trkpt>
      <trkpt lat="47.1974" lon="-1.59243">
        <ele>56</ele>
        <time>2020-09-26T09:16:51.000Z</time>
      </trkpt>
      <trkpt lat="47.19736" lon="-1.5926">
        <ele>56</ele>
        <time>2020-09-26T09:16:53.000Z</time>
      </trkpt>
      <trkpt lat="47.19733" lon="-1.59277">
        <ele>56</ele>
        <time>2020-09-26T09:16:55.000Z</time>
      </trkpt>
      <trkpt lat="47.19728" lon="-1.59294">
        <ele>57</ele>
        <time>2020-09-26T09:16:57.000Z</time>
      </trkpt>
      <trkpt lat="47.19722" lon="-1.59311">
        <ele>56</ele>
        <time>2020-09-26T09:16:59.000Z</time>
      </trkpt>
      <trkpt lat="47.19716" lon="-1.59329">
        <ele>56</ele>
        <time>2020-09-26T09:17:01.000Z</time>
      </trkpt>
      <trkpt lat="47.1971" lon="-1.59346">
        <ele>56</ele>
        <time>2020-09-26T09:17:03.000Z</time>
      </trkpt>
      <trkpt lat="47.19705" lon="-1.59364">
        <ele>56</ele>
        <time>2020-09-26T09:17:05.000Z</time>
      </trkpt>
      <trkpt lat="47.19699" lon="-1.59382">
        <ele>55</ele>
        <time>2020-09-26T09:17:07.000Z</time>
      </trkpt>
      <trkpt lat="47.19694" lon="-1.59399">
        <ele>55</ele>
        <time>2020-09-26T09:17:09.000Z</time>
      </trkpt>
      <trkpt lat="47.1969" lon="-1.59417">
        <ele>54</ele>
        <time>2020-09-26T09:17:11.000Z</time>
      </trkpt>
      <trkpt lat="47.19686" lon="-1.59436">
        <ele>54</ele>
        <time>2020-09-26T09:17:13.000Z</time>
      </trkpt>
      <trkpt lat="47.19684" lon="-1.59454">
        <ele>54</ele>
        <time>2020-09-26T09:17:15.000Z</time>
      </trkpt>
      <trkpt lat="47.19681" lon="-1.59472">
        <ele>53</ele>
        <time>2020-09-26T09:17:17.000Z</time>
      </trkpt>
      <trkpt lat="47.19678" lon="-1.59491">
        <ele>53</ele>
        <time>2020-09-26T09:17:19.000Z</time>
      </trkpt>
      <trkpt lat="47.19675" lon="-1.5951">
        <ele>53</ele>
        <time>2020-09-26T09:17:21.000Z</time>
      </trkpt>
      <trkpt lat="47.19672" lon="-1.59527">
        <ele>53</ele>
        <time>2020-09-26T09:17:23.000Z</time>
      </trkpt>
      <trkpt lat="47.19669" lon="-1.59546">
        <ele>52</ele>
        <time>2020-09-26T09:17:25.000Z</time>
      </trkpt>
      <trkpt lat="47.19666" lon="-1.59564">
        <ele>52</ele>
        <time>2020-09-26T09:17:27.000Z</time>
      </trkpt>
      <trkpt lat="47.19664" lon="-1.59582">
        <ele>52</ele>
        <time>2020-09-26T09:17:29.000Z</time>
      </trkpt>
      <trkpt lat="47.19661" lon="-1.596">
        <ele>52</ele>
        <time>2020-09-26T09:17:31.000Z</time>
      </trkpt>
      <trkpt lat="47.19657" lon="-1.59618">
        <ele>52</ele>
        <time>2020-09-26T09:17:33.000Z</time>
      </trkpt>
      <trkpt lat="47.19653" lon="-1.59637">
        <ele>52</ele>
        <time>2020-09-26T09:17:35.000Z</time>
      </trkpt>
      <trkpt lat="47.19648" lon="-1.59653">
        <ele>53</ele>
        <time>2020-09-26T09:17:37.000Z</time>
      </trkpt>
      <trkpt lat="47.19643" lon="-1.59671">
        <ele>53</ele>
        <time>2020-09-26T09:17:39.000Z</time>
      </trkpt>
      <trkpt lat="47.19637" lon="-1.59688">
        <ele>53</ele>
        <time>2020-09-26T09:17:41.000Z</time>
      </trkpt>
      <trkpt lat="47.19632" lon="-1.59705">
        <ele>53</ele>
        <time>2020-09-26T09:17:43.000Z</time>
      </trkpt>
      <trkpt lat="47.19626" lon="-1.59722">
        <ele>53</ele>
        <time>2020-09-26T09:17:45.000Z</time>
      </trkpt>
      <trkpt lat="47.1962" lon="-1.59739">
        <ele>53</ele>
        <time>2020-09-26T09:17:47.000Z</time>
      </trkpt>
      <trkpt lat="47.19615" lon="-1.59756">
        <ele>53</ele>
        <time>2020-09-26T09:17:49.000Z</time>
      </trkpt>
      <trkpt lat="47.19609" lon="-1.59773">
        <ele>53</ele>
        <time>2020-09-26T09:17:51.000Z</time>
      </trkpt>
      <trkpt lat="47.19603" lon="-1.5979">
        <ele>53</ele>
        <time>2020-09-26T09:17:53.000Z</time>
      </trkpt>
      <trkpt lat="47.19597" lon="-1.59807">
        <ele>53</ele>
        <time>2020-09-26T09:17:55.000Z</time>
      </trkpt>
      <trkpt lat="47.19591" lon="-1.59824">
        <ele>53</ele>
        <time>2020-09-26T09:17:57.000Z</time>
      </trkpt>
      <trkpt lat="47.19586" lon="-1.59841">
        <ele>54</ele>
        <time>2020-09-26T09:17:59.000Z</time>
      </trkpt>
      <trkpt lat="47.19581" lon="-1.59857">
        <ele>54</ele>
        <time>2020-09-26T09:18:01.000Z</time>
      </trkpt>
      <trkpt lat="47.19576" lon="-1.59874">
        <ele>53</ele>
        <time>2020-09-26T09:18:03.000Z</time>
      </trkpt>
      <trkpt lat="47.19571" lon="-1.59892">
        <ele>52</ele>
        <time>2020-09-26T09:18:05.000Z</time>
      </trkpt>
      <trkpt lat="47.19567" lon="-1.59909">
        <ele>52</ele>
        <time>2020-09-26T09:18:07.000Z</time>
      </trkpt>
      <trkpt lat="47.19563" lon="-1.59928">
        <ele>52</ele>
        <time>2020-09-26T09:18:09.000Z</time>
      </trkpt>
      <trkpt lat="47.19562" lon="-1.59946">
        <ele>52</ele>
        <time>2020-09-26T09:18:11.000Z</time>
      </trkpt>
      <trkpt lat="47.19561" lon="-1.59965">
        <ele>52</ele>
        <time>2020-09-26T09:18:13.000Z</time>
      </trkpt>
      <trkpt lat="47.19559" lon="-1.59984">
        <ele>53</ele>
        <time>2020-09-26T09:18:15.000Z</time>
      </trkpt>
      <trkpt lat="47.19557" lon="-1.60004">
        <ele>54</ele>
        <time>2020-09-26T09:18:17.000Z</time>
      </trkpt>
      <trkpt lat="47.19556" lon="-1.60022">
        <ele>54</ele>
        <time>2020-09-26T09:18:19.000Z</time>
      </trkpt>
      <trkpt lat="47.19554" lon="-1.60042">
        <ele>54</ele>
        <time>2020-09-26T09:18:21.000Z</time>
      </trkpt>
      <trkpt lat="47.19553" lon="-1.6006">
        <ele>54</ele>
        <time>2020-09-26T09:18:23.000Z</time>
      </trkpt>
      <trkpt lat="47.19551" lon="-1.6008">
        <ele>53</ele>
        <time>2020-09-26T09:18:25.000Z</time>
      </trkpt>
      <trkpt lat="47.19549" lon="-1.60099">
        <ele>54</ele>
        <time>2020-09-26T09:18:27.000Z</time>
      </trkpt>
      <trkpt lat="47.19547" lon="-1.60119">
        <ele>54</ele>
        <time>2020-09-26T09:18:29.000Z</time>
      </trkpt>
      <trkpt lat="47.19545" lon="-1.60137">
        <ele>54</ele>
        <time>2020-09-26T09:18:31.000Z</time>
      </trkpt>
      <trkpt lat="47.19544" lon="-1.60156">
        <ele>55</ele>
        <time>2020-09-26T09:18:33.000Z</time>
      </trkpt>
      <trkpt lat="47.19542" lon="-1.60174">
        <ele>55</ele>
        <time>2020-09-26T09:18:35.000Z</time>
      </trkpt>
      <trkpt lat="47.1954" lon="-1.60192">
        <ele>55</ele>
        <time>2020-09-26T09:18:37.000Z</time>
      </trkpt>
      <trkpt lat="47.19539" lon="-1.6021">
        <ele>54</ele>
        <time>2020-09-26T09:18:39.000Z</time>
      </trkpt>
      <trkpt lat="47.19537" lon="-1.60229">
        <ele>54</ele>
        <time>2020-09-26T09:18:41.000Z</time>
      </trkpt>
      <trkpt lat="47.19535" lon="-1.60247">
        <ele>55</ele>
        <time>2020-09-26T09:18:43.000Z</time>
      </trkpt>
      <trkpt lat="47.19533" lon="-1.60265">
        <ele>55</ele>
        <time>2020-09-26T09:18:45.000Z</time>
      </trkpt>
      <trkpt lat="47.19531" lon="-1.60283">
        <ele>54</ele>
        <time>2020-09-26T09:18:47.000Z</time>
      </trkpt>
      <trkpt lat="47.1953" lon="-1.60302">
        <ele>54</ele>
        <time>2020-09-26T09:18:49.000Z</time>
      </trkpt>
      <trkpt lat="47.19529" lon="-1.60321">
        <ele>54</ele>
        <time>2020-09-26T09:18:51.000Z</time>
      </trkpt>
      <trkpt lat="47.19529" lon="-1.60338">
        <ele>54</ele>
        <time>2020-09-26T09:18:53.000Z</time>
      </trkpt>
      <trkpt lat="47.19528" lon="-1.60356">
        <ele>54</ele>
        <time>2020-09-26T09:18:55.000Z</time>
      </trkpt>
      <trkpt lat="47.19528" lon="-1.60374">
        <ele>54</ele>
        <time>2020-09-26T09:18:57.000Z</time>
      </trkpt>
      <trkpt lat="47.19528" lon="-1.60392">
        <ele>54</ele>
        <time>2020-09-26T09:18:59.000Z</time>
      </trkpt>
      <trkpt lat="47.19528" lon="-1.6041">
        <ele>54</ele>
        <time>2020-09-26T09:19:01.000Z</time>
      </trkpt>
      <trkpt lat="47.19527" lon="-1.60428">
        <ele>54</ele>
        <time>2020-09-26T09:19:03.000Z</time>
      </trkpt>
      <trkpt lat="47.19526" lon="-1.60446">
        <ele>54</ele>
        <time>2020-09-26T09:19:05.000Z</time>
      </trkpt>
      <trkpt lat="47.19524" lon="-1.60466">
        <ele>54</ele>
        <time>2020-09-26T09:19:07.000Z</time>
      </trkpt>
      <trkpt lat="47.19522" lon="-1.60485">
        <ele>55</ele>
        <time>2020-09-26T09:19:09.000Z</time>
      </trkpt>
      <trkpt lat="47.1952" lon="-1.60503">
        <ele>55</ele>
        <time>2020-09-26T09:19:11.000Z</time>
      </trkpt>
      <trkpt lat="47.19519" lon="-1.60521">
        <ele>55</ele>
        <time>2020-09-26T09:19:13.000Z</time>
      </trkpt>
      <trkpt lat="47.19517" lon="-1.60539">
        <ele>55</ele>
        <time>2020-09-26T09:19:15.000Z</time>
      </trkpt>
      <trkpt lat="47.19516" lon="-1.60557">
        <ele>55</ele>
        <time>2020-09-26T09:19:17.000Z</time>
      </trkpt>
      <trkpt lat="47.19514" lon="-1.60575">
        <ele>55</ele>
        <time>2020-09-26T09:19:19.000Z</time>
      </trkpt>
      <trkpt lat="47.19511" lon="-1.60593">
        <ele>55</ele>
        <time>2020-09-26T09:19:21.000Z</time>
      </trkpt>
      <trkpt lat="47.19509" lon="-1.60611">
        <ele>55</ele>
        <time>2020-09-26T09:19:23.000Z</time>
      </trkpt>
      <trkpt lat="47.19506" lon="-1.60629">
        <ele>54</ele>
        <time>2020-09-26T09:19:25.000Z</time>
      </trkpt>
      <trkpt lat="47.19504" lon="-1.60648">
        <ele>54</ele>
        <time>2020-09-26T09:19:27.000Z</time>
      </trkpt>
      <trkpt lat="47.19502" lon="-1.60667">
        <ele>54</ele>
        <time>2020-09-26T09:19:29.000Z</time>
      </trkpt>
      <trkpt lat="47.19499" lon="-1.60685">
        <ele>54</ele>
        <time>2020-09-26T09:19:31.000Z</time>
      </trkpt>
      <trkpt lat="47.19497" lon="-1.60703">
        <ele>54</ele>
        <time>2020-09-26T09:19:33.000Z</time>
      </trkpt>
      <trkpt lat="47.19494" lon="-1.60721">
        <ele>55</ele>
        <time>2020-09-26T09:19:35.000Z</time>
      </trkpt>
      <trkpt lat="47.19493" lon="-1.6074">
        <ele>55</ele>
        <time>2020-09-26T09:19:37.000Z</time>
      </trkpt>
      <trkpt lat="47.19492" lon="-1.60759">
        <ele>56</ele>
        <time>2020-09-26T09:19:39.000Z</time>
      </trkpt>
      <trkpt lat="47.19491" lon="-1.60778">
        <ele>56</ele>
        <time>2020-09-26T09:19:41.000Z</time>
      </trkpt>
      <trkpt lat="47.19489" lon="-1.60797">
        <ele>56</ele>
        <time>2020-09-26T09:19:43.000Z</time>
      </trkpt>
      <trkpt lat="47.19488" lon="-1.60814">
        <ele>56</ele>
        <time>2020-09-26T09:19:45.000Z</time>
      </trkpt>
      <trkpt lat="47.19486" lon="-1.60833">
        <ele>57</ele>
        <time>2020-09-26T09:19:47.000Z</time>
      </trkpt>
      <trkpt lat="47.19485" lon="-1.60852">
        <ele>57</ele>
        <time>2020-09-26T09:19:49.000Z</time>
      </trkpt>
      <trkpt lat="47.19484" lon="-1.6087">
        <ele>57</ele>
        <time>2020-09-26T09:19:51.000Z</time>
      </trkpt>
      <trkpt lat="47.19482" lon="-1.60888">
        <ele>57</ele>
        <time>2020-09-26T09:19:53.000Z</time>
      </trkpt>
      <trkpt lat="47.19481" lon="-1.60905">
        <ele>57</ele>
        <time>2020-09-26T09:19:55.000Z</time>
      </trkpt>
      <trkpt lat="47.1948" lon="-1.60922">
        <ele>57</ele>
        <time>2020-09-26T09:19:57.000Z</time>
      </trkpt>
      <trkpt lat="47.19478" lon="-1.60939">
        <ele>56</ele>
        <time>2020-09-26T09:19:59.000Z</time>
      </trkpt>
      <trkpt lat="47.19475" lon="-1.60956">
        <ele>56</ele>
        <time>2020-09-26T09:20:01.000Z</time>
      </trkpt>
      <trkpt lat="47.19472" lon="-1.60974">
        <ele>56</ele>
        <time>2020-09-26T09:20:03.000Z</time>
      </trkpt>
      <trkpt lat="47.19471" lon="-1.60994">
        <ele>56</ele>
        <time>2020-09-26T09:20:05.000Z</time>
      </trkpt>
      <trkpt lat="47.1947" lon="-1.61012">
        <ele>55</ele>
        <time>2020-09-26T09:20:07.000Z</time>
      </trkpt>
      <trkpt lat="47.1947" lon="-1.61031">
        <ele>55</ele>
        <time>2020-09-26T09:20:09.000Z</time>
      </trkpt>
      <trkpt lat="47.1947" lon="-1.61049">
        <ele>55</ele>
        <time>2020-09-26T09:20:11.000Z</time>
      </trkpt>
      <trkpt lat="47.19471" lon="-1.61068">
        <ele>55</ele>
        <time>2020-09-26T09:20:13.000Z</time>
      </trkpt>
      <trkpt lat="47.19472" lon="-1.61087">
        <ele>55</ele>
        <time>2020-09-26T09:20:15.000Z</time>
      </trkpt>
      <trkpt lat="47.19472" lon="-1.61106">
        <ele>55</ele>
        <time>2020-09-26T09:20:17.000Z</time>
      </trkpt>
      <trkpt lat="47.19473" lon="-1.61126">
        <ele>55</ele>
        <time>2020-09-26T09:20:19.000Z</time>
      </trkpt>
      <trkpt lat="47.19474" lon="-1.61147">
        <ele>55</ele>
        <time>2020-09-26T09:20:21.000Z</time>
      </trkpt>
      <trkpt lat="47.19475" lon="-1.61167">
        <ele>54</ele>
        <time>2020-09-26T09:20:23.000Z</time>
      </trkpt>
      <trkpt lat="47.19476" lon="-1.61185">
        <ele>54</ele>
        <time>2020-09-26T09:20:25.000Z</time>
      </trkpt>
      <trkpt lat="47.19475" lon="-1.61205">
        <ele>55</ele>
        <time>2020-09-26T09:20:27.000Z</time>
      </trkpt>
      <trkpt lat="47.19474" lon="-1.61224">
        <ele>55</ele>
        <time>2020-09-26T09:20:29.000Z</time>
      </trkpt>
      <trkpt lat="47.19473" lon="-1.61244">
        <ele>55</ele>
        <time>2020-09-26T09:20:31.000Z</time>
      </trkpt>
      <trkpt lat="47.19474" lon="-1.61263">
        <ele>55</ele>
        <time>2020-09-26T09:20:33.000Z</time>
      </trkpt>
      <trkpt lat="47.19475" lon="-1.61281">
        <ele>54</ele>
        <time>2020-09-26T09:20:35.000Z</time>
      </trkpt>
      <trkpt lat="47.19476" lon="-1.61299">
        <ele>55</ele>
        <time>2020-09-26T09:20:37.000Z</time>
      </trkpt>
      <trkpt lat="47.19476" lon="-1.61317">
        <ele>55</ele>
        <time>2020-09-26T09:20:39.000Z</time>
      </trkpt>
      <trkpt lat="47.19477" lon="-1.61335">
        <ele>55</ele>
        <time>2020-09-26T09:20:41.000Z</time>
      </trkpt>
      <trkpt lat="47.19478" lon="-1.61354">
        <ele>55</ele>
        <time>2020-09-26T09:20:43.000Z</time>
      </trkpt>
      <trkpt lat="47.19479" lon="-1.61371">
        <ele>55</ele>
        <time>2020-09-26T09:20:45.000Z</time>
      </trkpt>
      <trkpt lat="47.1948" lon="-1.61389">
        <ele>55</ele>
        <time>2020-09-26T09:20:47.000Z</time>
      </trkpt>
      <trkpt lat="47.19481" lon="-1.61406">
        <ele>56</ele>
        <time>2020-09-26T09:20:49.000Z</time>
      </trkpt>
      <trkpt lat="47.19482" lon="-1.61424">
        <ele>56</ele>
        <time>2020-09-26T09:20:51.000Z</time>
      </trkpt>
      <trkpt lat="47.19483" lon="-1.61442">
        <ele>57</ele>
        <time>2020-09-26T09:20:53.000Z</time>
      </trkpt>
      <trkpt lat="47.19484" lon="-1.61459">
        <ele>57</ele>
        <time>2020-09-26T09:20:55.000Z</time>
      </trkpt>
      <trkpt lat="47.19482" lon="-1.61477">
        <ele>58</ele>
        <time>2020-09-26T09:20:57.000Z</time>
      </trkpt>
      <trkpt lat="47.19478" lon="-1.61493">
        <ele>57</ele>
        <time>2020-09-26T09:20:59.000Z</time>
      </trkpt>
      <trkpt lat="47.19473" lon="-1.6151">
        <ele>56</ele>
        <time>2020-09-26T09:21:01.000Z</time>
      </trkpt>
      <trkpt lat="47.19467" lon="-1.61527">
        <ele>56</ele>
        <time>2020-09-26T09:21:03.000Z</time>
      </trkpt>
      <trkpt lat="47.19463" lon="-1.61545">
        <ele>55</ele>
        <time>2020-09-26T09:21:05.000Z</time>
      </trkpt>
      <trkpt lat="47.19459" lon="-1.61562">
        <ele>54</ele>
        <time>2020-09-26T09:21:07.000Z</time>
      </trkpt>
      <trkpt lat="47.19456" lon="-1.6158">
        <ele>54</ele>
        <time>2020-09-26T09:21:09.000Z</time>
      </trkpt>
      <trkpt lat="47.19454" lon="-1.61598">
        <ele>54</ele>
        <time>2020-09-26T09:21:11.000Z</time>
      </trkpt>
      <trkpt lat="47.19453" lon="-1.61616">
        <ele>54</ele>
        <time>2020-09-26T09:21:13.000Z</time>
      </trkpt>
      <trkpt lat="47.19453" lon="-1.61634">
        <ele>54</ele>
        <time>2020-09-26T09:21:15.000Z</time>
      </trkpt>
      <trkpt lat="47.19452" lon="-1.61651">
        <ele>54</ele>
        <time>2020-09-26T09:21:17.000Z</time>
      </trkpt>
      <trkpt lat="47.1945" lon="-1.61669">
        <ele>54</ele>
        <time>2020-09-26T09:21:19.000Z</time>
      </trkpt>
      <trkpt lat="47.19448" lon="-1.61689">
        <ele>53</ele>
        <time>2020-09-26T09:21:21.000Z</time>
      </trkpt>
      <trkpt lat="47.19448" lon="-1.61709">
        <ele>53</ele>
        <time>2020-09-26T09:21:23.000Z</time>
      </trkpt>
      <trkpt lat="47.19447" lon="-1.61728">
        <ele>53</ele>
        <time>2020-09-26T09:21:25.000Z</time>
      </trkpt>
      <trkpt lat="47.19444" lon="-1.61747">
        <ele>54</ele>
        <time>2020-09-26T09:21:27.000Z</time>
      </trkpt>
      <trkpt lat="47.1944" lon="-1.61766">
        <ele>54</ele>
        <time>2020-09-26T09:21:29.000Z</time>
      </trkpt>
      <trkpt lat="47.19438" lon="-1.61785">
        <ele>55</ele>
        <time>2020-09-26T09:21:31.000Z</time>
      </trkpt>
      <trkpt lat="47.19434" lon="-1.61803">
        <ele>55</ele>
        <time>2020-09-26T09:21:33.000Z</time>
      </trkpt>
      <trkpt lat="47.19433" lon="-1.61821">
        <ele>54</ele>
        <time>2020-09-26T09:21:35.000Z</time>
      </trkpt>
      <trkpt lat="47.19433" lon="-1.61839">
        <ele>54</ele>
        <time>2020-09-26T09:21:37.000Z</time>
      </trkpt>
      <trkpt lat="47.19433" lon="-1.61858">
        <ele>55</ele>
        <time>2020-09-26T09:21:39.000Z</time>
      </trkpt>
      <trkpt lat="47.19436" lon="-1.61876">
        <ele>55</ele>
        <time>2020-09-26T09:21:41.000Z</time>
      </trkpt>
      <trkpt lat="47.1944" lon="-1.61892">
        <ele>55</ele>
        <time>2020-09-26T09:21:43.000Z</time>
      </trkpt>
      <trkpt lat="47.19447" lon="-1.61908">
        <ele>55</ele>
        <time>2020-09-26T09:21:45.000Z</time>
      </trkpt>
      <trkpt lat="47.1945" lon="-1.61924">
        <ele>55</ele>
        <time>2020-09-26T09:21:47.000Z</time>
      </trkpt>
      <trkpt lat="47.1945" lon="-1.6194">
        <ele>54</ele>
        <time>2020-09-26T09:21:49.000Z</time>
      </trkpt>
      <trkpt lat="47.19452" lon="-1.61957">
        <ele>54</ele>
        <time>2020-09-26T09:21:51.000Z</time>
      </trkpt>
      <trkpt lat="47.19455" lon="-1.61969">
        <ele>54</ele>
        <time>2020-09-26T09:21:54.000Z</time>
      </trkpt>
      <trkpt lat="47.19464" lon="-1.61974">
        <ele>54</ele>
        <time>2020-09-26T09:21:57.000Z</time>
      </trkpt>
      <trkpt lat="47.19467" lon="-1.6199">
        <ele>54</ele>
        <time>2020-09-26T09:21:59.000Z</time>
      </trkpt>
      <trkpt lat="47.19467" lon="-1.62009">
        <ele>54</ele>
        <time>2020-09-26T09:22:01.000Z</time>
      </trkpt>
      <trkpt lat="47.19467" lon="-1.62028">
        <ele>54</ele>
        <time>2020-09-26T09:22:03.000Z</time>
      </trkpt>
      <trkpt lat="47.19467" lon="-1.62047">
        <ele>54</ele>
        <time>2020-09-26T09:22:05.000Z</time>
      </trkpt>
      <trkpt lat="47.19469" lon="-1.62066">
        <ele>53</ele>
        <time>2020-09-26T09:22:07.000Z</time>
      </trkpt>
      <trkpt lat="47.1947" lon="-1.62085">
        <ele>53</ele>
        <time>2020-09-26T09:22:09.000Z</time>
      </trkpt>
      <trkpt lat="47.1947" lon="-1.62104">
        <ele>52</ele>
        <time>2020-09-26T09:22:11.000Z</time>
      </trkpt>
      <trkpt lat="47.19471" lon="-1.62123">
        <ele>52</ele>
        <time>2020-09-26T09:22:13.000Z</time>
      </trkpt>
      <trkpt lat="47.19472" lon="-1.62141">
        <ele>51</ele>
        <time>2020-09-26T09:22:15.000Z</time>
      </trkpt>
      <trkpt lat="47.19472" lon="-1.62159">
        <ele>51</ele>
        <time>2020-09-26T09:22:17.000Z</time>
      </trkpt>
      <trkpt lat="47.19472" lon="-1.62178">
        <ele>51</ele>
        <time>2020-09-26T09:22:19.000Z</time>
      </trkpt>
      <trkpt lat="47.19472" lon="-1.62197">
        <ele>51</ele>
        <time>2020-09-26T09:22:21.000Z</time>
      </trkpt>
      <trkpt lat="47.19472" lon="-1.62215">
        <ele>51</ele>
        <time>2020-09-26T09:22:23.000Z</time>
      </trkpt>
      <trkpt lat="47.1947" lon="-1.62234">
        <ele>51</ele>
        <time>2020-09-26T09:22:25.000Z</time>
      </trkpt>
      <trkpt lat="47.19468" lon="-1.62254">
        <ele>51</ele>
        <time>2020-09-26T09:22:27.000Z</time>
      </trkpt>
      <trkpt lat="47.19467" lon="-1.62272">
        <ele>51</ele>
        <time>2020-09-26T09:22:29.000Z</time>
      </trkpt>
      <trkpt lat="47.19468" lon="-1.62291">
        <ele>51</ele>
        <time>2020-09-26T09:22:31.000Z</time>
      </trkpt>
      <trkpt lat="47.19469" lon="-1.62309">
        <ele>51</ele>
        <time>2020-09-26T09:22:33.000Z</time>
      </trkpt>
      <trkpt lat="47.19469" lon="-1.62327">
        <ele>51</ele>
        <time>2020-09-26T09:22:35.000Z</time>
      </trkpt>
      <trkpt lat="47.19468" lon="-1.62345">
        <ele>51</ele>
        <time>2020-09-26T09:22:37.000Z</time>
      </trkpt>
      <trkpt lat="47.19469" lon="-1.62363">
        <ele>51</ele>
        <time>2020-09-26T09:22:39.000Z</time>
      </trkpt>
      <trkpt lat="47.19469" lon="-1.62381">
        <ele>51</ele>
        <time>2020-09-26T09:22:41.000Z</time>
      </trkpt>
      <trkpt lat="47.19469" lon="-1.624">
        <ele>51</ele>
        <time>2020-09-26T09:22:43.000Z</time>
      </trkpt>
      <trkpt lat="47.19469" lon="-1.62418">
        <ele>51</ele>
        <time>2020-09-26T09:22:45.000Z</time>
      </trkpt>
      <trkpt lat="47.1947" lon="-1.62436">
        <ele>50</ele>
        <time>2020-09-26T09:22:47.000Z</time>
      </trkpt>
      <trkpt lat="47.19471" lon="-1.62454">
        <ele>50</ele>
        <time>2020-09-26T09:22:49.000Z</time>
      </trkpt>
      <trkpt lat="47.19472" lon="-1.62473">
        <ele>50</ele>
        <time>2020-09-26T09:22:51.000Z</time>
      </trkpt>
      <trkpt lat="47.19473" lon="-1.62491">
        <ele>50</ele>
        <time>2020-09-26T09:22:53.000Z</time>
      </trkpt>
      <trkpt lat="47.19474" lon="-1.6251">
        <ele>49</ele>
        <time>2020-09-26T09:22:55.000Z</time>
      </trkpt>
      <trkpt lat="47.19474" lon="-1.62529">
        <ele>49</ele>
        <time>2020-09-26T09:22:57.000Z</time>
      </trkpt>
      <trkpt lat="47.19475" lon="-1.62548">
        <ele>49</ele>
        <time>2020-09-26T09:22:59.000Z</time>
      </trkpt>
      <trkpt lat="47.19475" lon="-1.62566">
        <ele>49</ele>
        <time>2020-09-26T09:23:01.000Z</time>
      </trkpt>
      <trkpt lat="47.19476" lon="-1.62584">
        <ele>49</ele>
        <time>2020-09-26T09:23:03.000Z</time>
      </trkpt>
      <trkpt lat="47.19477" lon="-1.62602">
        <ele>50</ele>
        <time>2020-09-26T09:23:05.000Z</time>
      </trkpt>
      <trkpt lat="47.19477" lon="-1.6262">
        <ele>50</ele>
        <time>2020-09-26T09:23:07.000Z</time>
      </trkpt>
      <trkpt lat="47.19478" lon="-1.62638">
        <ele>51</ele>
        <time>2020-09-26T09:23:09.000Z</time>
      </trkpt>
      <trkpt lat="47.19478" lon="-1.62657">
        <ele>51</ele>
        <time>2020-09-26T09:23:11.000Z</time>
      </trkpt>
      <trkpt lat="47.19479" lon="-1.62676">
        <ele>51</ele>
        <time>2020-09-26T09:23:13.000Z</time>
      </trkpt>
      <trkpt lat="47.19481" lon="-1.62693">
        <ele>51</ele>
        <time>2020-09-26T09:23:15.000Z</time>
      </trkpt>
      <trkpt lat="47.19482" lon="-1.6271">
        <ele>51</ele>
        <time>2020-09-26T09:23:17.000Z</time>
      </trkpt>
      <trkpt lat="47.19483" lon="-1.62728">
        <ele>51</ele>
        <time>2020-09-26T09:23:19.000Z</time>
      </trkpt>
      <trkpt lat="47.19485" lon="-1.62746">
        <ele>51</ele>
        <time>2020-09-26T09:23:21.000Z</time>
      </trkpt>
      <trkpt lat="47.19486" lon="-1.62765">
        <ele>51</ele>
        <time>2020-09-26T09:23:23.000Z</time>
      </trkpt>
      <trkpt lat="47.19487" lon="-1.62783">
        <ele>51</ele>
        <time>2020-09-26T09:23:25.000Z</time>
      </trkpt>
      <trkpt lat="47.19487" lon="-1.62803">
        <ele>51</ele>
        <time>2020-09-26T09:23:27.000Z</time>
      </trkpt>
      <trkpt lat="47.19487" lon="-1.62823">
        <ele>51</ele>
        <time>2020-09-26T09:23:29.000Z</time>
      </trkpt>
      <trkpt lat="47.19489" lon="-1.62842">
        <ele>50</ele>
        <time>2020-09-26T09:23:31.000Z</time>
      </trkpt>
      <trkpt lat="47.19491" lon="-1.62861">
        <ele>51</ele>
        <time>2020-09-26T09:23:33.000Z</time>
      </trkpt>
      <trkpt lat="47.19493" lon="-1.6288">
        <ele>50</ele>
        <time>2020-09-26T09:23:35.000Z</time>
      </trkpt>
      <trkpt lat="47.19495" lon="-1.62898">
        <ele>50</ele>
        <time>2020-09-26T09:23:37.000Z</time>
      </trkpt>
      <trkpt lat="47.19497" lon="-1.62917">
        <ele>50</ele>
        <time>2020-09-26T09:23:39.000Z</time>
      </trkpt>
      <trkpt lat="47.19498" lon="-1.62935">
        <ele>50</ele>
        <time>2020-09-26T09:23:41.000Z</time>
      </trkpt>
      <trkpt lat="47.195" lon="-1.62954">
        <ele>50</ele>
        <time>2020-09-26T09:23:43.000Z</time>
      </trkpt>
      <trkpt lat="47.19502" lon="-1.62973">
        <ele>50</ele>
        <time>2020-09-26T09:23:45.000Z</time>
      </trkpt>
      <trkpt lat="47.19504" lon="-1.62992">
        <ele>51</ele>
        <time>2020-09-26T09:23:47.000Z</time>
      </trkpt>
      <trkpt lat="47.19506" lon="-1.63012">
        <ele>51</ele>
        <time>2020-09-26T09:23:49.000Z</time>
      </trkpt>
      <trkpt lat="47.19507" lon="-1.63031">
        <ele>51</ele>
        <time>2020-09-26T09:23:51.000Z</time>
      </trkpt>
      <trkpt lat="47.19509" lon="-1.6305">
        <ele>51</ele>
        <time>2020-09-26T09:23:53.000Z</time>
      </trkpt>
      <trkpt lat="47.1951" lon="-1.6307">
        <ele>51</ele>
        <time>2020-09-26T09:23:55.000Z</time>
      </trkpt>
      <trkpt lat="47.1951" lon="-1.63089">
        <ele>51</ele>
        <time>2020-09-26T09:23:57.000Z</time>
      </trkpt>
      <trkpt lat="47.1951" lon="-1.63108">
        <ele>52</ele>
        <time>2020-09-26T09:23:59.000Z</time>
      </trkpt>
      <trkpt lat="47.1951" lon="-1.63127">
        <ele>51</ele>
        <time>2020-09-26T09:24:01.000Z</time>
      </trkpt>
      <trkpt lat="47.19508" lon="-1.63146">
        <ele>52</ele>
        <time>2020-09-26T09:24:03.000Z</time>
      </trkpt>
      <trkpt lat="47.19506" lon="-1.63166">
        <ele>52</ele>
        <time>2020-09-26T09:24:05.000Z</time>
      </trkpt>
      <trkpt lat="47.19504" lon="-1.63185">
        <ele>51</ele>
        <time>2020-09-26T09:24:07.000Z</time>
      </trkpt>
      <trkpt lat="47.19502" lon="-1.63203">
        <ele>52</ele>
        <time>2020-09-26T09:24:09.000Z</time>
      </trkpt>
      <trkpt lat="47.195" lon="-1.63222">
        <ele>51</ele>
        <time>2020-09-26T09:24:11.000Z</time>
      </trkpt>
      <trkpt lat="47.19498" lon="-1.63241">
        <ele>52</ele>
        <time>2020-09-26T09:24:13.000Z</time>
      </trkpt>
      <trkpt lat="47.19496" lon="-1.6326">
        <ele>52</ele>
        <time>2020-09-26T09:24:15.000Z</time>
      </trkpt>
      <trkpt lat="47.19493" lon="-1.63278">
        <ele>52</ele>
        <time>2020-09-26T09:24:17.000Z</time>
      </trkpt>
      <trkpt lat="47.19491" lon="-1.63298">
        <ele>53</ele>
        <time>2020-09-26T09:24:19.000Z</time>
      </trkpt>
      <trkpt lat="47.19489" lon="-1.63316">
        <ele>53</ele>
        <time>2020-09-26T09:24:21.000Z</time>
      </trkpt>
      <trkpt lat="47.19487" lon="-1.63334">
        <ele>53</ele>
        <time>2020-09-26T09:24:23.000Z</time>
      </trkpt>
      <trkpt lat="47.19485" lon="-1.63352">
        <ele>53</ele>
        <time>2020-09-26T09:24:25.000Z</time>
      </trkpt>
      <trkpt lat="47.19483" lon="-1.63371">
        <ele>53</ele>
        <time>2020-09-26T09:24:27.000Z</time>
      </trkpt>
      <trkpt lat="47.19481" lon="-1.63389">
        <ele>54</ele>
        <time>2020-09-26T09:24:29.000Z</time>
      </trkpt>
      <trkpt lat="47.19479" lon="-1.63407">
        <ele>54</ele>
        <time>2020-09-26T09:24:31.000Z</time>
      </trkpt>
      <trkpt lat="47.19477" lon="-1.63425">
        <ele>54</ele>
        <time>2020-09-26T09:24:33.000Z</time>
      </trkpt>
      <trkpt lat="47.19474" lon="-1.63444">
        <ele>53</ele>
        <time>2020-09-26T09:24:35.000Z</time>
      </trkpt>
      <trkpt lat="47.19472" lon="-1.63463">
        <ele>53</ele>
        <time>2020-09-26T09:24:37.000Z</time>
      </trkpt>
      <trkpt lat="47.19469" lon="-1.63481">
        <ele>53</ele>
        <time>2020-09-26T09:24:39.000Z</time>
      </trkpt>
      <trkpt lat="47.19467" lon="-1.635">
        <ele>52</ele>
        <time>2020-09-26T09:24:41.000Z</time>
      </trkpt>
      <trkpt lat="47.19465" lon="-1.6352">
        <ele>52</ele>
        <time>2020-09-26T09:24:43.000Z</time>
      </trkpt>
      <trkpt lat="47.19462" lon="-1.63539">
        <ele>52</ele>
        <time>2020-09-26T09:24:45.000Z</time>
      </trkpt>
      <trkpt lat="47.1946" lon="-1.63558">
        <ele>52</ele>
        <time>2020-09-26T09:24:47.000Z</time>
      </trkpt>
      <trkpt lat="47.19457" lon="-1.63578">
        <ele>52</ele>
        <time>2020-09-26T09:24:49.000Z</time>
      </trkpt>
      <trkpt lat="47.19455" lon="-1.63596">
        <ele>53</ele>
        <time>2020-09-26T09:24:51.000Z</time>
      </trkpt>
      <trkpt lat="47.19452" lon="-1.63614">
        <ele>52</ele>
        <time>2020-09-26T09:24:53.000Z</time>
      </trkpt>
      <trkpt lat="47.19451" lon="-1.63634">
        <ele>53</ele>
        <time>2020-09-26T09:24:55.000Z</time>
      </trkpt>
      <trkpt lat="47.1945" lon="-1.63653">
        <ele>53</ele>
        <time>2020-09-26T09:24:57.000Z</time>
      </trkpt>
      <trkpt lat="47.1945" lon="-1.63672">
        <ele>53</ele>
        <time>2020-09-26T09:24:59.000Z</time>
      </trkpt>
      <trkpt lat="47.1945" lon="-1.63691">
        <ele>53</ele>
        <time>2020-09-26T09:25:01.000Z</time>
      </trkpt>
      <trkpt lat="47.1945" lon="-1.63709">
        <ele>52</ele>
        <time>2020-09-26T09:25:03.000Z</time>
      </trkpt>
      <trkpt lat="47.19451" lon="-1.63727">
        <ele>52</ele>
        <time>2020-09-26T09:25:05.000Z</time>
      </trkpt>
      <trkpt lat="47.19451" lon="-1.63745">
        <ele>52</ele>
        <time>2020-09-26T09:25:07.000Z</time>
      </trkpt>
      <trkpt lat="47.19453" lon="-1.63761">
        <ele>53</ele>
        <time>2020-09-26T09:25:09.000Z</time>
      </trkpt>
      <trkpt lat="47.19451" lon="-1.63777">
        <ele>52</ele>
        <time>2020-09-26T09:25:11.000Z</time>
      </trkpt>
      <trkpt lat="47.1945" lon="-1.63791">
        <ele>51</ele>
        <time>2020-09-26T09:25:13.000Z</time>
      </trkpt>
      <trkpt lat="47.19456" lon="-1.63807">
        <ele>51</ele>
        <time>2020-09-26T09:25:15.000Z</time>
      </trkpt>
      <trkpt lat="47.19462" lon="-1.63824">
        <ele>51</ele>
        <time>2020-09-26T09:25:17.000Z</time>
      </trkpt>
      <trkpt lat="47.19462" lon="-1.63842">
        <ele>51</ele>
        <time>2020-09-26T09:25:19.000Z</time>
      </trkpt>
      <trkpt lat="47.19458" lon="-1.6386">
        <ele>51</ele>
        <time>2020-09-26T09:25:21.000Z</time>
      </trkpt>
      <trkpt lat="47.19457" lon="-1.63879">
        <ele>51</ele>
        <time>2020-09-26T09:25:23.000Z</time>
      </trkpt>
      <trkpt lat="47.19457" lon="-1.63898">
        <ele>51</ele>
        <time>2020-09-26T09:25:25.000Z</time>
      </trkpt>
      <trkpt lat="47.19459" lon="-1.63917">
        <ele>51</ele>
        <time>2020-09-26T09:25:27.000Z</time>
      </trkpt>
      <trkpt lat="47.19462" lon="-1.63935">
        <ele>51</ele>
        <time>2020-09-26T09:25:29.000Z</time>
      </trkpt>
      <trkpt lat="47.19466" lon="-1.63953">
        <ele>51</ele>
        <time>2020-09-26T09:25:31.000Z</time>
      </trkpt>
      <trkpt lat="47.19471" lon="-1.63972">
        <ele>51</ele>
        <time>2020-09-26T09:25:33.000Z</time>
      </trkpt>
      <trkpt lat="47.19476" lon="-1.6399">
        <ele>50</ele>
        <time>2020-09-26T09:25:35.000Z</time>
      </trkpt>
      <trkpt lat="47.19481" lon="-1.64007">
        <ele>51</ele>
        <time>2020-09-26T09:25:37.000Z</time>
      </trkpt>
      <trkpt lat="47.19485" lon="-1.64024">
        <ele>51</ele>
        <time>2020-09-26T09:25:39.000Z</time>
      </trkpt>
      <trkpt lat="47.1949" lon="-1.64042">
        <ele>51</ele>
        <time>2020-09-26T09:25:41.000Z</time>
      </trkpt>
      <trkpt lat="47.19497" lon="-1.64058">
        <ele>51</ele>
        <time>2020-09-26T09:25:43.000Z</time>
      </trkpt>
      <trkpt lat="47.19503" lon="-1.64075">
        <ele>51</ele>
        <time>2020-09-26T09:25:45.000Z</time>
      </trkpt>
      <trkpt lat="47.19509" lon="-1.64091">
        <ele>51</ele>
        <time>2020-09-26T09:25:47.000Z</time>
      </trkpt>
      <trkpt lat="47.19516" lon="-1.64108">
        <ele>51</ele>
        <time>2020-09-26T09:25:49.000Z</time>
      </trkpt>
      <trkpt lat="47.19523" lon="-1.64124">
        <ele>51</ele>
        <time>2020-09-26T09:25:51.000Z</time>
      </trkpt>
      <trkpt lat="47.19529" lon="-1.64141">
        <ele>50</ele>
        <time>2020-09-26T09:25:53.000Z</time>
      </trkpt>
      <trkpt lat="47.19535" lon="-1.64157">
        <ele>51</ele>
        <time>2020-09-26T09:25:55.000Z</time>
      </trkpt>
      <trkpt lat="47.19542" lon="-1.64174">
        <ele>51</ele>
        <time>2020-09-26T09:25:57.000Z</time>
      </trkpt>
      <trkpt lat="47.19548" lon="-1.6419">
        <ele>51</ele>
        <time>2020-09-26T09:25:59.000Z</time>
      </trkpt>
      <trkpt lat="47.19554" lon="-1.64205">
        <ele>51</ele>
        <time>2020-09-26T09:26:01.000Z</time>
      </trkpt>
      <trkpt lat="47.19561" lon="-1.64222">
        <ele>51</ele>
        <time>2020-09-26T09:26:03.000Z</time>
      </trkpt>
      <trkpt lat="47.19568" lon="-1.64238">
        <ele>51</ele>
        <time>2020-09-26T09:26:05.000Z</time>
      </trkpt>
      <trkpt lat="47.19575" lon="-1.64254">
        <ele>51</ele>
        <time>2020-09-26T09:26:07.000Z</time>
      </trkpt>
      <trkpt lat="47.19581" lon="-1.6427">
        <ele>51</ele>
        <time>2020-09-26T09:26:09.000Z</time>
      </trkpt>
      <trkpt lat="47.19586" lon="-1.64287">
        <ele>51</ele>
        <time>2020-09-26T09:26:11.000Z</time>
      </trkpt>
      <trkpt lat="47.19592" lon="-1.64302">
        <ele>51</ele>
        <time>2020-09-26T09:26:13.000Z</time>
      </trkpt>
      <trkpt lat="47.19598" lon="-1.64318">
        <ele>51</ele>
        <time>2020-09-26T09:26:15.000Z</time>
      </trkpt>
      <trkpt lat="47.19604" lon="-1.64334">
        <ele>51</ele>
        <time>2020-09-26T09:26:17.000Z</time>
      </trkpt>
      <trkpt lat="47.19611" lon="-1.6435">
        <ele>50</ele>
        <time>2020-09-26T09:26:19.000Z</time>
      </trkpt>
      <trkpt lat="47.19617" lon="-1.64366">
        <ele>50</ele>
        <time>2020-09-26T09:26:21.000Z</time>
      </trkpt>
      <trkpt lat="47.19623" lon="-1.64383">
        <ele>51</ele>
        <time>2020-09-26T09:26:23.000Z</time>
      </trkpt>
      <trkpt lat="47.1963" lon="-1.644">
        <ele>51</ele>
        <time>2020-09-26T09:26:25.000Z</time>
      </trkpt>
      <trkpt lat="47.19636" lon="-1.64416">
        <ele>51</ele>
        <time>2020-09-26T09:26:27.000Z</time>
      </trkpt>
      <trkpt lat="47.19643" lon="-1.64431">
        <ele>51</ele>
        <time>2020-09-26T09:26:29.000Z</time>
      </trkpt>
      <trkpt lat="47.19649" lon="-1.64447">
        <ele>51</ele>
        <time>2020-09-26T09:26:31.000Z</time>
      </trkpt>
      <trkpt lat="47.19656" lon="-1.64463">
        <ele>51</ele>
        <time>2020-09-26T09:26:33.000Z</time>
      </trkpt>
      <trkpt lat="47.19662" lon="-1.6448">
        <ele>51</ele>
        <time>2020-09-26T09:26:35.000Z</time>
      </trkpt>
      <trkpt lat="47.19668" lon="-1.64497">
        <ele>51</ele>
        <time>2020-09-26T09:26:37.000Z</time>
      </trkpt>
      <trkpt lat="47.19675" lon="-1.64513">
        <ele>51</ele>
        <time>2020-09-26T09:26:39.000Z</time>
      </trkpt>
      <trkpt lat="47.19682" lon="-1.64529">
        <ele>51</ele>
        <time>2020-09-26T09:26:41.000Z</time>
      </trkpt>
      <trkpt lat="47.19688" lon="-1.64546">
        <ele>51</ele>
        <time>2020-09-26T09:26:43.000Z</time>
      </trkpt>
      <trkpt lat="47.19694" lon="-1.64562">
        <ele>50</ele>
        <time>2020-09-26T09:26:45.000Z</time>
      </trkpt>
      <trkpt lat="47.19701" lon="-1.64579">
        <ele>50</ele>
        <time>2020-09-26T09:26:47.000Z</time>
      </trkpt>
      <trkpt lat="47.19707" lon="-1.64595">
        <ele>50</ele>
        <time>2020-09-26T09:26:49.000Z</time>
      </trkpt>
      <trkpt lat="47.19713" lon="-1.64612">
        <ele>50</ele>
        <time>2020-09-26T09:26:51.000Z</time>
      </trkpt>
      <trkpt lat="47.19719" lon="-1.64629">
        <ele>50</ele>
        <time>2020-09-26T09:26:53.000Z</time>
      </trkpt>
      <trkpt lat="47.19726" lon="-1.64645">
        <ele>50</ele>
        <time>2020-09-26T09:26:55.000Z</time>
      </trkpt>
      <trkpt lat="47.19732" lon="-1.64661">
        <ele>50</ele>
        <time>2020-09-26T09:26:57.000Z</time>
      </trkpt>
      <trkpt lat="47.19739" lon="-1.64677">
        <ele>50</ele>
        <time>2020-09-26T09:26:59.000Z</time>
      </trkpt>
      <trkpt lat="47.19746" lon="-1.64694">
        <ele>49</ele>
        <time>2020-09-26T09:27:01.000Z</time>
      </trkpt>
      <trkpt lat="47.19751" lon="-1.64711">
        <ele>49</ele>
        <time>2020-09-26T09:27:03.000Z</time>
      </trkpt>
      <trkpt lat="47.19758" lon="-1.64728">
        <ele>49</ele>
        <time>2020-09-26T09:27:05.000Z</time>
      </trkpt>
      <trkpt lat="47.19764" lon="-1.64744">
        <ele>50</ele>
        <time>2020-09-26T09:27:07.000Z</time>
      </trkpt>
      <trkpt lat="47.1977" lon="-1.64761">
        <ele>50</ele>
        <time>2020-09-26T09:27:09.000Z</time>
      </trkpt>
      <trkpt lat="47.19776" lon="-1.64778">
        <ele>51</ele>
        <time>2020-09-26T09:27:11.000Z</time>
      </trkpt>
      <trkpt lat="47.19782" lon="-1.64796">
        <ele>51</ele>
        <time>2020-09-26T09:27:13.000Z</time>
      </trkpt>
      <trkpt lat="47.19789" lon="-1.64812">
        <ele>50</ele>
        <time>2020-09-26T09:27:15.000Z</time>
      </trkpt>
      <trkpt lat="47.19796" lon="-1.64829">
        <ele>50</ele>
        <time>2020-09-26T09:27:17.000Z</time>
      </trkpt>
      <trkpt lat="47.19803" lon="-1.64845">
        <ele>50</ele>
        <time>2020-09-26T09:27:19.000Z</time>
      </trkpt>
      <trkpt lat="47.19811" lon="-1.6486">
        <ele>50</ele>
        <time>2020-09-26T09:27:21.000Z</time>
      </trkpt>
      <trkpt lat="47.19817" lon="-1.64877">
        <ele>50</ele>
        <time>2020-09-26T09:27:23.000Z</time>
      </trkpt>
      <trkpt lat="47.19824" lon="-1.64894">
        <ele>49</ele>
        <time>2020-09-26T09:27:25.000Z</time>
      </trkpt>
      <trkpt lat="47.1983" lon="-1.64911">
        <ele>50</ele>
        <time>2020-09-26T09:27:27.000Z</time>
      </trkpt>
      <trkpt lat="47.19837" lon="-1.64928">
        <ele>50</ele>
        <time>2020-09-26T09:27:29.000Z</time>
      </trkpt>
      <trkpt lat="47.19843" lon="-1.64946">
        <ele>49</ele>
        <time>2020-09-26T09:27:31.000Z</time>
      </trkpt>
      <trkpt lat="47.19848" lon="-1.64964">
        <ele>49</ele>
        <time>2020-09-26T09:27:33.000Z</time>
      </trkpt>
      <trkpt lat="47.19855" lon="-1.64981">
        <ele>49</ele>
        <time>2020-09-26T09:27:35.000Z</time>
      </trkpt>
      <trkpt lat="47.19861" lon="-1.64999">
        <ele>49</ele>
        <time>2020-09-26T09:27:37.000Z</time>
      </trkpt>
      <trkpt lat="47.19868" lon="-1.65015">
        <ele>49</ele>
        <time>2020-09-26T09:27:39.000Z</time>
      </trkpt>
      <trkpt lat="47.19874" lon="-1.65032">
        <ele>49</ele>
        <time>2020-09-26T09:27:41.000Z</time>
      </trkpt>
      <trkpt lat="47.19881" lon="-1.65049">
        <ele>49</ele>
        <time>2020-09-26T09:27:43.000Z</time>
      </trkpt>
      <trkpt lat="47.19887" lon="-1.65066">
        <ele>50</ele>
        <time>2020-09-26T09:27:45.000Z</time>
      </trkpt>
      <trkpt lat="47.19893" lon="-1.65082">
        <ele>49</ele>
        <time>2020-09-26T09:27:47.000Z</time>
      </trkpt>
      <trkpt lat="47.19899" lon="-1.65098">
        <ele>49</ele>
        <time>2020-09-26T09:27:49.000Z</time>
      </trkpt>
      <trkpt lat="47.19906" lon="-1.65114">
        <ele>49</ele>
        <time>2020-09-26T09:27:51.000Z</time>
      </trkpt>
      <trkpt lat="47.19912" lon="-1.6513">
        <ele>49</ele>
        <time>2020-09-26T09:27:53.000Z</time>
      </trkpt>
      <trkpt lat="47.19918" lon="-1.65146">
        <ele>49</ele>
        <time>2020-09-26T09:27:55.000Z</time>
      </trkpt>
      <trkpt lat="47.19924" lon="-1.65163">
        <ele>49</ele>
        <time>2020-09-26T09:27:57.000Z</time>
      </trkpt>
      <trkpt lat="47.1993" lon="-1.65179">
        <ele>49</ele>
        <time>2020-09-26T09:27:59.000Z</time>
      </trkpt>
      <trkpt lat="47.19937" lon="-1.65196">
        <ele>49</ele>
        <time>2020-09-26T09:28:01.000Z</time>
      </trkpt>
      <trkpt lat="47.19943" lon="-1.65213">
        <ele>50</ele>
        <time>2020-09-26T09:28:03.000Z</time>
      </trkpt>
      <trkpt lat="47.1995" lon="-1.65229">
        <ele>49</ele>
        <time>2020-09-26T09:28:05.000Z</time>
      </trkpt>
      <trkpt lat="47.19956" lon="-1.65246">
        <ele>50</ele>
        <time>2020-09-26T09:28:07.000Z</time>
      </trkpt>
      <trkpt lat="47.19962" lon="-1.65263">
        <ele>50</ele>
        <time>2020-09-26T09:28:09.000Z</time>
      </trkpt>
      <trkpt lat="47.19968" lon="-1.65279">
        <ele>49</ele>
        <time>2020-09-26T09:28:11.000Z</time>
      </trkpt>
      <trkpt lat="47.19973" lon="-1.65296">
        <ele>49</ele>
        <time>2020-09-26T09:28:13.000Z</time>
      </trkpt>
      <trkpt lat="47.19979" lon="-1.65313">
        <ele>49</ele>
        <time>2020-09-26T09:28:15.000Z</time>
      </trkpt>
      <trkpt lat="47.19984" lon="-1.65331">
        <ele>49</ele>
        <time>2020-09-26T09:28:17.000Z</time>
      </trkpt>
      <trkpt lat="47.19989" lon="-1.65348">
        <ele>49</ele>
        <time>2020-09-26T09:28:19.000Z</time>
      </trkpt>
      <trkpt lat="47.19994" lon="-1.65367">
        <ele>48</ele>
        <time>2020-09-26T09:28:21.000Z</time>
      </trkpt>
      <trkpt lat="47.19999" lon="-1.65384">
        <ele>49</ele>
        <time>2020-09-26T09:28:23.000Z</time>
      </trkpt>
      <trkpt lat="47.20003" lon="-1.65403">
        <ele>48</ele>
        <time>2020-09-26T09:28:25.000Z</time>
      </trkpt>
      <trkpt lat="47.20007" lon="-1.6542">
        <ele>48</ele>
        <time>2020-09-26T09:28:27.000Z</time>
      </trkpt>
      <trkpt lat="47.20011" lon="-1.65438">
        <ele>49</ele>
        <time>2020-09-26T09:28:29.000Z</time>
      </trkpt>
      <trkpt lat="47.20015" lon="-1.65456">
        <ele>49</ele>
        <time>2020-09-26T09:28:31.000Z</time>
      </trkpt>
      <trkpt lat="47.20019" lon="-1.65474">
        <ele>49</ele>
        <time>2020-09-26T09:28:33.000Z</time>
      </trkpt>
      <trkpt lat="47.20023" lon="-1.65491">
        <ele>49</ele>
        <time>2020-09-26T09:28:35.000Z</time>
      </trkpt>
      <trkpt lat="47.20026" lon="-1.6551">
        <ele>50</ele>
        <time>2020-09-26T09:28:37.000Z</time>
      </trkpt>
      <trkpt lat="47.20029" lon="-1.65527">
        <ele>50</ele>
        <time>2020-09-26T09:28:39.000Z</time>
      </trkpt>
      <trkpt lat="47.20032" lon="-1.65545">
        <ele>50</ele>
        <time>2020-09-26T09:28:41.000Z</time>
      </trkpt>
      <trkpt lat="47.20035" lon="-1.65563">
        <ele>51</ele>
        <time>2020-09-26T09:28:43.000Z</time>
      </trkpt>
      <trkpt lat="47.20039" lon="-1.65581">
        <ele>51</ele>
        <time>2020-09-26T09:28:45.000Z</time>
      </trkpt>
      <trkpt lat="47.20042" lon="-1.656">
        <ele>51</ele>
        <time>2020-09-26T09:28:47.000Z</time>
      </trkpt>
      <trkpt lat="47.20045" lon="-1.65619">
        <ele>51</ele>
        <time>2020-09-26T09:28:49.000Z</time>
      </trkpt>
      <trkpt lat="47.20048" lon="-1.65638">
        <ele>51</ele>
        <time>2020-09-26T09:28:51.000Z</time>
      </trkpt>
      <trkpt lat="47.20052" lon="-1.65656">
        <ele>52</ele>
        <time>2020-09-26T09:28:53.000Z</time>
      </trkpt>
      <trkpt lat="47.20055" lon="-1.65675">
        <ele>52</ele>
        <time>2020-09-26T09:28:55.000Z</time>
      </trkpt>
      <trkpt lat="47.20058" lon="-1.65694">
        <ele>52</ele>
        <time>2020-09-26T09:28:57.000Z</time>
      </trkpt>
      <trkpt lat="47.20061" lon="-1.65711">
        <ele>52</ele>
        <time>2020-09-26T09:28:59.000Z</time>
      </trkpt>
      <trkpt lat="47.20064" lon="-1.65728">
        <ele>52</ele>
        <time>2020-09-26T09:29:01.000Z</time>
      </trkpt>
      <trkpt lat="47.20068" lon="-1.65746">
        <ele>52</ele>
        <time>2020-09-26T09:29:03.000Z</time>
      </trkpt>
      <trkpt lat="47.20071" lon="-1.65764">
        <ele>52</ele>
        <time>2020-09-26T09:29:05.000Z</time>
      </trkpt>
      <trkpt lat="47.20074" lon="-1.65782">
        <ele>52</ele>
        <time>2020-09-26T09:29:07.000Z</time>
      </trkpt>
      <trkpt lat="47.20077" lon="-1.658">
        <ele>52</ele>
        <time>2020-09-26T09:29:09.000Z</time>
      </trkpt>
      <trkpt lat="47.2008" lon="-1.65818">
        <ele>52</ele>
        <time>2020-09-26T09:29:11.000Z</time>
      </trkpt>
      <trkpt lat="47.20083" lon="-1.65836">
        <ele>51</ele>
        <time>2020-09-26T09:29:13.000Z</time>
      </trkpt>
      <trkpt lat="47.20086" lon="-1.65855">
        <ele>51</ele>
        <time>2020-09-26T09:29:15.000Z</time>
      </trkpt>
      <trkpt lat="47.20089" lon="-1.65873">
        <ele>51</ele>
        <time>2020-09-26T09:29:17.000Z</time>
      </trkpt>
      <trkpt lat="47.20092" lon="-1.65891">
        <ele>51</ele>
        <time>2020-09-26T09:29:19.000Z</time>
      </trkpt>
      <trkpt lat="47.20096" lon="-1.6591">
        <ele>51</ele>
        <time>2020-09-26T09:29:21.000Z</time>
      </trkpt>
      <trkpt lat="47.20099" lon="-1.65929">
        <ele>51</ele>
        <time>2020-09-26T09:29:23.000Z</time>
      </trkpt>
      <trkpt lat="47.20102" lon="-1.65949">
        <ele>51</ele>
        <time>2020-09-26T09:29:25.000Z</time>
      </trkpt>
      <trkpt lat="47.20104" lon="-1.65968">
        <ele>51</ele>
        <time>2020-09-26T09:29:27.000Z</time>
      </trkpt>
      <trkpt lat="47.20107" lon="-1.65987">
        <ele>51</ele>
        <time>2020-09-26T09:29:29.000Z</time>
      </trkpt>
      <trkpt lat="47.20109" lon="-1.66006">
        <ele>52</ele>
        <time>2020-09-26T09:29:31.000Z</time>
      </trkpt>
      <trkpt lat="47.20111" lon="-1.66024">
        <ele>52</ele>
        <time>2020-09-26T09:29:33.000Z</time>
      </trkpt>
      <trkpt lat="47.20113" lon="-1.66044">
        <ele>52</ele>
        <time>2020-09-26T09:29:35.000Z</time>
      </trkpt>
      <trkpt lat="47.20116" lon="-1.66062">
        <ele>52</ele>
        <time>2020-09-26T09:29:37.000Z</time>
      </trkpt>
      <trkpt lat="47.20118" lon="-1.6608">
        <ele>53</ele>
        <time>2020-09-26T09:29:39.000Z</time>
      </trkpt>
      <trkpt lat="47.20119" lon="-1.66099">
        <ele>53</ele>
        <time>2020-09-26T09:29:41.000Z</time>
      </trkpt>
      <trkpt lat="47.2012" lon="-1.66118">
        <ele>52</ele>
        <time>2020-09-26T09:29:43.000Z</time>
      </trkpt>
      <trkpt lat="47.20122" lon="-1.66137">
        <ele>53</ele>
        <time>2020-09-26T09:29:45.000Z</time>
      </trkpt>
      <trkpt lat="47.20123" lon="-1.66155">
        <ele>53</ele>
        <time>2020-09-26T09:29:47.000Z</time>
      </trkpt>
      <trkpt lat="47.20124" lon="-1.66174">
        <ele>53</ele>
        <time>2020-09-26T09:29:49.000Z</time>
      </trkpt>
      <trkpt lat="47.20124" lon="-1.66192">
        <ele>53</ele>
        <time>2020-09-26T09:29:51.000Z</time>
      </trkpt>
      <trkpt lat="47.20125" lon="-1.66211">
        <ele>53</ele>
        <time>2020-09-26T09:29:53.000Z</time>
      </trkpt>
      <trkpt lat="47.20125" lon="-1.6623">
        <ele>53</ele>
        <time>2020-09-26T09:29:55.000Z</time>
      </trkpt>
      <trkpt lat="47.20124" lon="-1.66248">
        <ele>53</ele>
        <time>2020-09-26T09:29:57.000Z</time>
      </trkpt>
      <trkpt lat="47.20126" lon="-1.66266">
        <ele>53</ele>
        <time>2020-09-26T09:29:59.000Z</time>
      </trkpt>
      <trkpt lat="47.20126" lon="-1.66285">
        <ele>53</ele>
        <time>2020-09-26T09:30:01.000Z</time>
      </trkpt>
      <trkpt lat="47.20124" lon="-1.66303">
        <ele>53</ele>
        <time>2020-09-26T09:30:03.000Z</time>
      </trkpt>
      <trkpt lat="47.20123" lon="-1.66322">
        <ele>53</ele>
        <time>2020-09-26T09:30:05.000Z</time>
      </trkpt>
      <trkpt lat="47.20123" lon="-1.6634">
        <ele>53</ele>
        <time>2020-09-26T09:30:07.000Z</time>
      </trkpt>
      <trkpt lat="47.20123" lon="-1.66358">
        <ele>53</ele>
        <time>2020-09-26T09:30:09.000Z</time>
      </trkpt>
      <trkpt lat="47.20122" lon="-1.66377">
        <ele>53</ele>
        <time>2020-09-26T09:30:11.000Z</time>
      </trkpt>
      <trkpt lat="47.20121" lon="-1.66396">
        <ele>53</ele>
        <time>2020-09-26T09:30:13.000Z</time>
      </trkpt>
      <trkpt lat="47.20121" lon="-1.66416">
        <ele>53</ele>
        <time>2020-09-26T09:30:15.000Z</time>
      </trkpt>
      <trkpt lat="47.2012" lon="-1.66437">
        <ele>53</ele>
        <time>2020-09-26T09:30:17.000Z</time>
      </trkpt>
      <trkpt lat="47.2012" lon="-1.66456">
        <ele>53</ele>
        <time>2020-09-26T09:30:19.000Z</time>
      </trkpt>
      <trkpt lat="47.2012" lon="-1.66476">
        <ele>53</ele>
        <time>2020-09-26T09:30:21.000Z</time>
      </trkpt>
      <trkpt lat="47.20119" lon="-1.66496">
        <ele>52</ele>
        <time>2020-09-26T09:30:23.000Z</time>
      </trkpt>
      <trkpt lat="47.20119" lon="-1.66516">
        <ele>52</ele>
        <time>2020-09-26T09:30:25.000Z</time>
      </trkpt>
      <trkpt lat="47.20118" lon="-1.66536">
        <ele>52</ele>
        <time>2020-09-26T09:30:27.000Z</time>
      </trkpt>
      <trkpt lat="47.20117" lon="-1.66556">
        <ele>52</ele>
        <time>2020-09-26T09:30:29.000Z</time>
      </trkpt>
      <trkpt lat="47.20117" lon="-1.66576">
        <ele>52</ele>
        <time>2020-09-26T09:30:31.000Z</time>
      </trkpt>
      <trkpt lat="47.20116" lon="-1.66596">
        <ele>52</ele>
        <time>2020-09-26T09:30:33.000Z</time>
      </trkpt>
      <trkpt lat="47.20116" lon="-1.66616">
        <ele>51</ele>
        <time>2020-09-26T09:30:35.000Z</time>
      </trkpt>
      <trkpt lat="47.20116" lon="-1.66637">
        <ele>51</ele>
        <time>2020-09-26T09:30:37.000Z</time>
      </trkpt>
      <trkpt lat="47.20116" lon="-1.66656">
        <ele>51</ele>
        <time>2020-09-26T09:30:39.000Z</time>
      </trkpt>
      <trkpt lat="47.20116" lon="-1.66675">
        <ele>51</ele>
        <time>2020-09-26T09:30:41.000Z</time>
      </trkpt>
      <trkpt lat="47.20115" lon="-1.66694">
        <ele>51</ele>
        <time>2020-09-26T09:30:43.000Z</time>
      </trkpt>
      <trkpt lat="47.20115" lon="-1.66712">
        <ele>51</ele>
        <time>2020-09-26T09:30:45.000Z</time>
      </trkpt>
      <trkpt lat="47.20117" lon="-1.66728">
        <ele>52</ele>
        <time>2020-09-26T09:30:47.000Z</time>
      </trkpt>
      <trkpt lat="47.20125" lon="-1.6674">
        <ele>51</ele>
        <time>2020-09-26T09:30:49.000Z</time>
      </trkpt>
      <trkpt lat="47.20136" lon="-1.66748">
        <ele>51</ele>
        <time>2020-09-26T09:30:51.000Z</time>
      </trkpt>
      <trkpt lat="47.20145" lon="-1.66762">
        <ele>50</ele>
        <time>2020-09-26T09:30:53.000Z</time>
      </trkpt>
      <trkpt lat="47.20148" lon="-1.66781">
        <ele>50</ele>
        <time>2020-09-26T09:30:55.000Z</time>
      </trkpt>
      <trkpt lat="47.20146" lon="-1.668">
        <ele>50</ele>
        <time>2020-09-26T09:30:57.000Z</time>
      </trkpt>
      <trkpt lat="47.20142" lon="-1.66819">
        <ele>50</ele>
        <time>2020-09-26T09:30:59.000Z</time>
      </trkpt>
      <trkpt lat="47.20141" lon="-1.66838">
        <ele>50</ele>
        <time>2020-09-26T09:31:01.000Z</time>
      </trkpt>
      <trkpt lat="47.20145" lon="-1.66856">
        <ele>49</ele>
        <time>2020-09-26T09:31:03.000Z</time>
      </trkpt>
      <trkpt lat="47.20151" lon="-1.66874">
        <ele>49</ele>
        <time>2020-09-26T09:31:05.000Z</time>
      </trkpt>
      <trkpt lat="47.20157" lon="-1.66889">
        <ele>49</ele>
        <time>2020-09-26T09:31:07.000Z</time>
      </trkpt>
      <trkpt lat="47.20164" lon="-1.66904">
        <ele>50</ele>
        <time>2020-09-26T09:31:09.000Z</time>
      </trkpt>
      <trkpt lat="47.20171" lon="-1.66917">
        <ele>50</ele>
        <time>2020-09-26T09:31:11.000Z</time>
      </trkpt>
      <trkpt lat="47.20178" lon="-1.66932">
        <ele>50</ele>
        <time>2020-09-26T09:31:13.000Z</time>
      </trkpt>
      <trkpt lat="47.20185" lon="-1.66948">
        <ele>49</ele>
        <time>2020-09-26T09:31:15.000Z</time>
      </trkpt>
      <trkpt lat="47.20192" lon="-1.66963">
        <ele>49</ele>
        <time>2020-09-26T09:31:17.000Z</time>
      </trkpt>
      <trkpt lat="47.20199" lon="-1.66979">
        <ele>49</ele>
        <time>2020-09-26T09:31:19.000Z</time>
      </trkpt>
      <trkpt lat="47.20206" lon="-1.66994">
        <ele>49</ele>
        <time>2020-09-26T09:31:21.000Z</time>
      </trkpt>
      <trkpt lat="47.20213" lon="-1.6701">
        <ele>49</ele>
        <time>2020-09-26T09:31:23.000Z</time>
      </trkpt>
      <trkpt lat="47.2022" lon="-1.67026">
        <ele>49</ele>
        <time>2020-09-26T09:31:25.000Z</time>
      </trkpt>
      <trkpt lat="47.20227" lon="-1.67041">
        <ele>49</ele>
        <time>2020-09-26T09:31:27.000Z</time>
      </trkpt>
      <trkpt lat="47.20234" lon="-1.67057">
        <ele>49</ele>
        <time>2020-09-26T09:31:29.000Z</time>
      </trkpt>
      <trkpt lat="47.20241" lon="-1.67072">
        <ele>49</ele>
        <time>2020-09-26T09:31:31.000Z</time>
      </trkpt>
      <trkpt lat="47.20248" lon="-1.67088">
        <ele>49</ele>
        <time>2020-09-26T09:31:33.000Z</time>
      </trkpt>
      <trkpt lat="47.20254" lon="-1.67104">
        <ele>49</ele>
        <time>2020-09-26T09:31:35.000Z</time>
      </trkpt>
      <trkpt lat="47.20262" lon="-1.67119">
        <ele>49</ele>
        <time>2020-09-26T09:31:37.000Z</time>
      </trkpt>
      <trkpt lat="47.20269" lon="-1.67136">
        <ele>49</ele>
        <time>2020-09-26T09:31:39.000Z</time>
      </trkpt>
      <trkpt lat="47.20276" lon="-1.67152">
        <ele>49</ele>
        <time>2020-09-26T09:31:41.000Z</time>
      </trkpt>
      <trkpt lat="47.20283" lon="-1.67168">
        <ele>48</ele>
        <time>2020-09-26T09:31:43.000Z</time>
      </trkpt>
      <trkpt lat="47.20291" lon="-1.67184">
        <ele>48</ele>
        <time>2020-09-26T09:31:45.000Z</time>
      </trkpt>
      <trkpt lat="47.20298" lon="-1.67199">
        <ele>48</ele>
        <time>2020-09-26T09:31:47.000Z</time>
      </trkpt>
      <trkpt lat="47.20305" lon="-1.67216">
        <ele>48</ele>
        <time>2020-09-26T09:31:49.000Z</time>
      </trkpt>
      <trkpt lat="47.20312" lon="-1.67232">
        <ele>49</ele>
        <time>2020-09-26T09:31:51.000Z</time>
      </trkpt>
      <trkpt lat="47.20318" lon="-1.67247">
        <ele>49</ele>
        <time>2020-09-26T09:31:53.000Z</time>
      </trkpt>
      <trkpt lat="47.20325" lon="-1.67262">
        <ele>49</ele>
        <time>2020-09-26T09:31:55.000Z</time>
      </trkpt>
      <trkpt lat="47.20332" lon="-1.67277">
        <ele>49</ele>
        <time>2020-09-26T09:31:57.000Z</time>
      </trkpt>
      <trkpt lat="47.20339" lon="-1.67292">
        <ele>49</ele>
        <time>2020-09-26T09:31:59.000Z</time>
      </trkpt>
      <trkpt lat="47.20346" lon="-1.67306">
        <ele>48</ele>
        <time>2020-09-26T09:32:01.000Z</time>
      </trkpt>
      <trkpt lat="47.20352" lon="-1.67321">
        <ele>49</ele>
        <time>2020-09-26T09:32:03.000Z</time>
      </trkpt>
      <trkpt lat="47.20358" lon="-1.67335">
        <ele>48</ele>
        <time>2020-09-26T09:32:05.000Z</time>
      </trkpt>
      <trkpt lat="47.20365" lon="-1.67349">
        <ele>48</ele>
        <time>2020-09-26T09:32:07.000Z</time>
      </trkpt>
      <trkpt lat="47.20372" lon="-1.67364">
        <ele>48</ele>
        <time>2020-09-26T09:32:09.000Z</time>
      </trkpt>
      <trkpt lat="47.20378" lon="-1.67379">
        <ele>48</ele>
        <time>2020-09-26T09:32:11.000Z</time>
      </trkpt>
      <trkpt lat="47.20385" lon="-1.67394">
        <ele>48</ele>
        <time>2020-09-26T09:32:13.000Z</time>
      </trkpt>
      <trkpt lat="47.20392" lon="-1.67409">
        <ele>48</ele>
        <time>2020-09-26T09:32:15.000Z</time>
      </trkpt>
      <trkpt lat="47.20398" lon="-1.67425">
        <ele>49</ele>
        <time>2020-09-26T09:32:17.000Z</time>
      </trkpt>
      <trkpt lat="47.20405" lon="-1.6744">
        <ele>49</ele>
        <time>2020-09-26T09:32:19.000Z</time>
      </trkpt>
      <trkpt lat="47.2041" lon="-1.67456">
        <ele>49</ele>
        <time>2020-09-26T09:32:21.000Z</time>
      </trkpt>
      <trkpt lat="47.20416" lon="-1.67472">
        <ele>49</ele>
        <time>2020-09-26T09:32:23.000Z</time>
      </trkpt>
      <trkpt lat="47.20421" lon="-1.67489">
        <ele>49</ele>
        <time>2020-09-26T09:32:25.000Z</time>
      </trkpt>
      <trkpt lat="47.20425" lon="-1.67506">
        <ele>49</ele>
        <time>2020-09-26T09:32:27.000Z</time>
      </trkpt>
      <trkpt lat="47.20429" lon="-1.67523">
        <ele>49</ele>
        <time>2020-09-26T09:32:29.000Z</time>
      </trkpt>
      <trkpt lat="47.20438" lon="-1.67535">
        <ele>49</ele>
        <time>2020-09-26T09:32:31.000Z</time>
      </trkpt>
      <trkpt lat="47.20447" lon="-1.67548">
        <ele>49</ele>
        <time>2020-09-26T09:32:33.000Z</time>
      </trkpt>
      <trkpt lat="47.20452" lon="-1.67565">
        <ele>49</ele>
        <time>2020-09-26T09:32:35.000Z</time>
      </trkpt>
      <trkpt lat="47.20457" lon="-1.67583">
        <ele>49</ele>
        <time>2020-09-26T09:32:37.000Z</time>
      </trkpt>
      <trkpt lat="47.20467" lon="-1.67596">
        <ele>49</ele>
        <time>2020-09-26T09:32:39.000Z</time>
      </trkpt>
      <trkpt lat="47.20476" lon="-1.67609">
        <ele>49</ele>
        <time>2020-09-26T09:32:41.000Z</time>
      </trkpt>
      <trkpt lat="47.20484" lon="-1.67625">
        <ele>49</ele>
        <time>2020-09-26T09:32:43.000Z</time>
      </trkpt>
      <trkpt lat="47.20491" lon="-1.67642">
        <ele>50</ele>
        <time>2020-09-26T09:32:45.000Z</time>
      </trkpt>
      <trkpt lat="47.20497" lon="-1.67659">
        <ele>49</ele>
        <time>2020-09-26T09:32:47.000Z</time>
      </trkpt>
      <trkpt lat="47.20504" lon="-1.67675">
        <ele>49</ele>
        <time>2020-09-26T09:32:49.000Z</time>
      </trkpt>
      <trkpt lat="47.2051" lon="-1.67692">
        <ele>50</ele>
        <time>2020-09-26T09:32:51.000Z</time>
      </trkpt>
      <trkpt lat="47.20516" lon="-1.67708">
        <ele>50</ele>
        <time>2020-09-26T09:32:53.000Z</time>
      </trkpt>
      <trkpt lat="47.20522" lon="-1.67725">
        <ele>51</ele>
        <time>2020-09-26T09:32:55.000Z</time>
      </trkpt>
      <trkpt lat="47.20528" lon="-1.67741">
        <ele>51</ele>
        <time>2020-09-26T09:32:57.000Z</time>
      </trkpt>
      <trkpt lat="47.20533" lon="-1.67758">
        <ele>50</ele>
        <time>2020-09-26T09:32:59.000Z</time>
      </trkpt>
      <trkpt lat="47.20539" lon="-1.67776">
        <ele>50</ele>
        <time>2020-09-26T09:33:01.000Z</time>
      </trkpt>
      <trkpt lat="47.20545" lon="-1.67793">
        <ele>50</ele>
        <time>2020-09-26T09:33:03.000Z</time>
      </trkpt>
      <trkpt lat="47.20551" lon="-1.6781">
        <ele>51</ele>
        <time>2020-09-26T09:33:05.000Z</time>
      </trkpt>
      <trkpt lat="47.20557" lon="-1.67827">
        <ele>50</ele>
        <time>2020-09-26T09:33:07.000Z</time>
      </trkpt>
      <trkpt lat="47.20562" lon="-1.67844">
        <ele>51</ele>
        <time>2020-09-26T09:33:09.000Z</time>
      </trkpt>
      <trkpt lat="47.20568" lon="-1.67861">
        <ele>51</ele>
        <time>2020-09-26T09:33:11.000Z</time>
      </trkpt>
      <trkpt lat="47.20573" lon="-1.67879">
        <ele>50</ele>
        <time>2020-09-26T09:33:13.000Z</time>
      </trkpt>
      <trkpt lat="47.20579" lon="-1.67897">
        <ele>50</ele>
        <time>2020-09-26T09:33:15.000Z</time>
      </trkpt>
      <trkpt lat="47.20584" lon="-1.67915">
        <ele>50</ele>
        <time>2020-09-26T09:33:17.000Z</time>
      </trkpt>
      <trkpt lat="47.2059" lon="-1.67933">
        <ele>50</ele>
        <time>2020-09-26T09:33:19.000Z</time>
      </trkpt>
      <trkpt lat="47.20595" lon="-1.67951">
        <ele>50</ele>
        <time>2020-09-26T09:33:21.000Z</time>
      </trkpt>
      <trkpt lat="47.20599" lon="-1.67968">
        <ele>50</ele>
        <time>2020-09-26T09:33:23.000Z</time>
      </trkpt>
      <trkpt lat="47.20605" lon="-1.67985">
        <ele>50</ele>
        <time>2020-09-26T09:33:25.000Z</time>
      </trkpt>
      <trkpt lat="47.2061" lon="-1.68002">
        <ele>51</ele>
        <time>2020-09-26T09:33:27.000Z</time>
      </trkpt>
      <trkpt lat="47.20615" lon="-1.68019">
        <ele>50</ele>
        <time>2020-09-26T09:33:29.000Z</time>
      </trkpt>
      <trkpt lat="47.2062" lon="-1.68037">
        <ele>50</ele>
        <time>2020-09-26T09:33:31.000Z</time>
      </trkpt>
      <trkpt lat="47.20625" lon="-1.68054">
        <ele>51</ele>
        <time>2020-09-26T09:33:33.000Z</time>
      </trkpt>
      <trkpt lat="47.2063" lon="-1.68071">
        <ele>50</ele>
        <time>2020-09-26T09:33:35.000Z</time>
      </trkpt>
      <trkpt lat="47.20635" lon="-1.68086">
        <ele>50</ele>
        <time>2020-09-26T09:33:37.000Z</time>
      </trkpt>
      <trkpt lat="47.2064" lon="-1.68103">
        <ele>50</ele>
        <time>2020-09-26T09:33:39.000Z</time>
      </trkpt>
      <trkpt lat="47.20644" lon="-1.68118">
        <ele>50</ele>
        <time>2020-09-26T09:33:41.000Z</time>
      </trkpt>
      <trkpt lat="47.20649" lon="-1.68134">
        <ele>50</ele>
        <time>2020-09-26T09:33:43.000Z</time>
      </trkpt>
      <trkpt lat="47.20654" lon="-1.6815">
        <ele>50</ele>
        <time>2020-09-26T09:33:45.000Z</time>
      </trkpt>
      <trkpt lat="47.20658" lon="-1.68166">
        <ele>50</ele>
        <time>2020-09-26T09:33:47.000Z</time>
      </trkpt>
      <trkpt lat="47.20663" lon="-1.68181">
        <ele>50</ele>
        <time>2020-09-26T09:33:49.000Z</time>
      </trkpt>
      <trkpt lat="47.20668" lon="-1.68196">
        <ele>50</ele>
        <time>2020-09-26T09:33:51.000Z</time>
      </trkpt>
      <trkpt lat="47.20672" lon="-1.68212">
        <ele>50</ele>
        <time>2020-09-26T09:33:53.000Z</time>
      </trkpt>
      <trkpt lat="47.20677" lon="-1.68228">
        <ele>50</ele>
        <time>2020-09-26T09:33:55.000Z</time>
      </trkpt>
      <trkpt lat="47.20682" lon="-1.68244">
        <ele>50</ele>
        <time>2020-09-26T09:33:57.000Z</time>
      </trkpt>
      <trkpt lat="47.20686" lon="-1.6826">
        <ele>50</ele>
        <time>2020-09-26T09:33:59.000Z</time>
      </trkpt>
      <trkpt lat="47.20691" lon="-1.68276">
        <ele>51</ele>
        <time>2020-09-26T09:34:01.000Z</time>
      </trkpt>
      <trkpt lat="47.20696" lon="-1.68291">
        <ele>50</ele>
        <time>2020-09-26T09:34:03.000Z</time>
      </trkpt>
      <trkpt lat="47.207" lon="-1.68307">
        <ele>50</ele>
        <time>2020-09-26T09:34:05.000Z</time>
      </trkpt>
      <trkpt lat="47.20705" lon="-1.68322">
        <ele>50</ele>
        <time>2020-09-26T09:34:07.000Z</time>
      </trkpt>
      <trkpt lat="47.2071" lon="-1.68339">
        <ele>50</ele>
        <time>2020-09-26T09:34:09.000Z</time>
      </trkpt>
      <trkpt lat="47.20716" lon="-1.68355">
        <ele>50</ele>
        <time>2020-09-26T09:34:11.000Z</time>
      </trkpt>
      <trkpt lat="47.20725" lon="-1.68368">
        <ele>50</ele>
        <time>2020-09-26T09:34:13.000Z</time>
      </trkpt>
      <trkpt lat="47.20736" lon="-1.68377">
        <ele>51</ele>
        <time>2020-09-26T09:34:15.000Z</time>
      </trkpt>
      <trkpt lat="47.20747" lon="-1.68384">
        <ele>51</ele>
        <time>2020-09-26T09:34:17.000Z</time>
      </trkpt>
      <trkpt lat="47.20761" lon="-1.68387">
        <ele>51</ele>
        <time>2020-09-26T09:34:19.000Z</time>
      </trkpt>
      <trkpt lat="47.20774" lon="-1.68389">
        <ele>51</ele>
        <time>2020-09-26T09:34:21.000Z</time>
      </trkpt>
      <trkpt lat="47.20786" lon="-1.6839">
        <ele>51</ele>
        <time>2020-09-26T09:34:23.000Z</time>
      </trkpt>
      <trkpt lat="47.20798" lon="-1.68391">
        <ele>51</ele>
        <time>2020-09-26T09:34:25.000Z</time>
      </trkpt>
      <trkpt lat="47.20811" lon="-1.68392">
        <ele>51</ele>
        <time>2020-09-26T09:34:27.000Z</time>
      </trkpt>
      <trkpt lat="47.20824" lon="-1.68393">
        <ele>51</ele>
        <time>2020-09-26T09:34:29.000Z</time>
      </trkpt>
      <trkpt lat="47.20836" lon="-1.68393">
        <ele>51</ele>
        <time>2020-09-26T09:34:31.000Z</time>
      </trkpt>
      <trkpt lat="47.20849" lon="-1.68394">
        <ele>51</ele>
        <time>2020-09-26T09:34:33.000Z</time>
      </trkpt>
      <trkpt lat="47.20862" lon="-1.68394">
        <ele>51</ele>
        <time>2020-09-26T09:34:35.000Z</time>
      </trkpt>
      <trkpt lat="47.20875" lon="-1.68395">
        <ele>52</ele>
        <time>2020-09-26T09:34:37.000Z</time>
      </trkpt>
      <trkpt lat="47.20887" lon="-1.68395">
        <ele>52</ele>
        <time>2020-09-26T09:34:39.000Z</time>
      </trkpt>
      <trkpt lat="47.209" lon="-1.68397">
        <ele>52</ele>
        <time>2020-09-26T09:34:41.000Z</time>
      </trkpt>
      <trkpt lat="47.20913" lon="-1.68397">
        <ele>52</ele>
        <time>2020-09-26T09:34:43.000Z</time>
      </trkpt>
      <trkpt lat="47.20926" lon="-1.68397">
        <ele>52</ele>
        <time>2020-09-26T09:34:45.000Z</time>
      </trkpt>
      <trkpt lat="47.2094" lon="-1.68398">
        <ele>51</ele>
        <time>2020-09-26T09:34:47.000Z</time>
      </trkpt>
      <trkpt lat="47.20952" lon="-1.68399">
        <ele>51</ele>
        <time>2020-09-26T09:34:49.000Z</time>
      </trkpt>
      <trkpt lat="47.20965" lon="-1.68399">
        <ele>51</ele>
        <time>2020-09-26T09:34:51.000Z</time>
      </trkpt>
      <trkpt lat="47.20978" lon="-1.68399">
        <ele>51</ele>
        <time>2020-09-26T09:34:53.000Z</time>
      </trkpt>
      <trkpt lat="47.20991" lon="-1.68399">
        <ele>51</ele>
        <time>2020-09-26T09:34:55.000Z</time>
      </trkpt>
      <trkpt lat="47.21004" lon="-1.684">
        <ele>51</ele>
        <time>2020-09-26T09:34:57.000Z</time>
      </trkpt>
      <trkpt lat="47.21017" lon="-1.684">
        <ele>51</ele>
        <time>2020-09-26T09:34:59.000Z</time>
      </trkpt>
      <trkpt lat="47.2103" lon="-1.68401">
        <ele>51</ele>
        <time>2020-09-26T09:35:01.000Z</time>
      </trkpt>
      <trkpt lat="47.21043" lon="-1.68402">
        <ele>51</ele>
        <time>2020-09-26T09:35:03.000Z</time>
      </trkpt>
      <trkpt lat="47.21056" lon="-1.68402">
        <ele>51</ele>
        <time>2020-09-26T09:35:05.000Z</time>
      </trkpt>
      <trkpt lat="47.21068" lon="-1.68402">
        <ele>51</ele>
        <time>2020-09-26T09:35:07.000Z</time>
      </trkpt>
      <trkpt lat="47.2108" lon="-1.68403">
        <ele>51</ele>
        <time>2020-09-26T09:35:09.000Z</time>
      </trkpt>
      <trkpt lat="47.21093" lon="-1.68403">
        <ele>51</ele>
        <time>2020-09-26T09:35:11.000Z</time>
      </trkpt>
      <trkpt lat="47.21105" lon="-1.68404">
        <ele>51</ele>
        <time>2020-09-26T09:35:13.000Z</time>
      </trkpt>
      <trkpt lat="47.21118" lon="-1.68405">
        <ele>52</ele>
        <time>2020-09-26T09:35:15.000Z</time>
      </trkpt>
      <trkpt lat="47.2113" lon="-1.68406">
        <ele>52</ele>
        <time>2020-09-26T09:35:17.000Z</time>
      </trkpt>
      <trkpt lat="47.21143" lon="-1.68406">
        <ele>52</ele>
        <time>2020-09-26T09:35:19.000Z</time>
      </trkpt>
      <trkpt lat="47.21155" lon="-1.68406">
        <ele>52</ele>
        <time>2020-09-26T09:35:21.000Z</time>
      </trkpt>
      <trkpt lat="47.21166" lon="-1.68406">
        <ele>53</ele>
        <time>2020-09-26T09:35:23.000Z</time>
      </trkpt>
      <trkpt lat="47.21176" lon="-1.68407">
        <ele>53</ele>
        <time>2020-09-26T09:35:25.000Z</time>
      </trkpt>
      <trkpt lat="47.21186" lon="-1.68405">
        <ele>53</ele>
        <time>2020-09-26T09:35:27.000Z</time>
      </trkpt>
      <trkpt lat="47.21194" lon="-1.68396">
        <ele>54</ele>
        <time>2020-09-26T09:35:29.000Z</time>
      </trkpt>
      <trkpt lat="47.21196" lon="-1.68381">
        <ele>55</ele>
        <time>2020-09-26T09:35:31.000Z</time>
      </trkpt>
      <trkpt lat="47.21194" lon="-1.68368">
        <ele>56</ele>
        <time>2020-09-26T09:35:33.000Z</time>
      </trkpt>
      <trkpt lat="47.21193" lon="-1.68354">
        <ele>56</ele>
        <time>2020-09-26T09:35:35.000Z</time>
      </trkpt>
      <trkpt lat="47.21192" lon="-1.68335">
        <ele>57</ele>
        <time>2020-09-26T09:35:38.000Z</time>
      </trkpt>
      <trkpt lat="47.21191" lon="-1.68315">
        <ele>58</ele>
        <time>2020-09-26T09:35:41.000Z</time>
      </trkpt>
      <trkpt lat="47.21195" lon="-1.68297">
        <ele>59</ele>
        <time>2020-09-26T09:35:44.000Z</time>
      </trkpt>
      <trkpt lat="47.21202" lon="-1.68288">
        <ele>59</ele>
        <time>2020-09-26T09:35:46.000Z</time>
      </trkpt>
      <trkpt lat="47.21211" lon="-1.68282">
        <ele>59</ele>
        <time>2020-09-26T09:35:48.000Z</time>
      </trkpt>
      <trkpt lat="47.21223" lon="-1.68278">
        <ele>59</ele>
        <time>2020-09-26T09:35:51.000Z</time>
      </trkpt>
      <trkpt lat="47.21236" lon="-1.68274">
        <ele>59</ele>
        <time>2020-09-26T09:35:54.000Z</time>
      </trkpt>
      <trkpt lat="47.21249" lon="-1.68273">
        <ele>60</ele>
        <time>2020-09-26T09:35:57.000Z</time>
      </trkpt>
      <trkpt lat="47.21259" lon="-1.68271">
        <ele>61</ele>
        <time>2020-09-26T09:35:59.000Z</time>
      </trkpt>
      <trkpt lat="47.21271" lon="-1.68265">
        <ele>62</ele>
        <time>2020-09-26T09:36:02.000Z</time>
      </trkpt>
      <trkpt lat="47.21284" lon="-1.6826">
        <ele>63</ele>
        <time>2020-09-26T09:36:05.000Z</time>
      </trkpt>
      <trkpt lat="47.21296" lon="-1.68252">
        <ele>64</ele>
        <time>2020-09-26T09:36:08.000Z</time>
      </trkpt>
      <trkpt lat="47.21305" lon="-1.68248">
        <ele>64</ele>
        <time>2020-09-26T09:36:10.000Z</time>
      </trkpt>
      <trkpt lat="47.21317" lon="-1.68242">
        <ele>64</ele>
        <time>2020-09-26T09:36:13.000Z</time>
      </trkpt>
      <trkpt lat="47.21326" lon="-1.68239">
        <ele>65</ele>
        <time>2020-09-26T09:36:15.000Z</time>
      </trkpt>
      <trkpt lat="47.21335" lon="-1.68237">
        <ele>65</ele>
        <time>2020-09-26T09:36:17.000Z</time>
      </trkpt>
      <trkpt lat="47.21347" lon="-1.68233">
        <ele>66</ele>
        <time>2020-09-26T09:36:20.000Z</time>
      </trkpt>
      <trkpt lat="47.21356" lon="-1.68231">
        <ele>67</ele>
        <time>2020-09-26T09:36:22.000Z</time>
      </trkpt>
      <trkpt lat="47.21366" lon="-1.68228">
        <ele>67</ele>
        <time>2020-09-26T09:36:24.000Z</time>
      </trkpt>
      <trkpt lat="47.21377" lon="-1.68226">
        <ele>68</ele>
        <time>2020-09-26T09:36:26.000Z</time>
      </trkpt>
      <trkpt lat="47.21387" lon="-1.68223">
        <ele>68</ele>
        <time>2020-09-26T09:36:28.000Z</time>
      </trkpt>
      <trkpt lat="47.21399" lon="-1.68221">
        <ele>68</ele>
        <time>2020-09-26T09:36:30.000Z</time>
      </trkpt>
      <trkpt lat="47.21411" lon="-1.68219">
        <ele>68</ele>
        <time>2020-09-26T09:36:32.000Z</time>
      </trkpt>
      <trkpt lat="47.21422" lon="-1.68218">
        <ele>68</ele>
        <time>2020-09-26T09:36:34.000Z</time>
      </trkpt>
      <trkpt lat="47.21432" lon="-1.68216">
        <ele>69</ele>
        <time>2020-09-26T09:36:36.000Z</time>
      </trkpt>
      <trkpt lat="47.21443" lon="-1.68216">
        <ele>69</ele>
        <time>2020-09-26T09:36:38.000Z</time>
      </trkpt>
      <trkpt lat="47.21454" lon="-1.68215">
        <ele>70</ele>
        <time>2020-09-26T09:36:40.000Z</time>
      </trkpt>
      <trkpt lat="47.21464" lon="-1.68215">
        <ele>71</ele>
        <time>2020-09-26T09:36:42.000Z</time>
      </trkpt>
      <trkpt lat="47.21475" lon="-1.68213">
        <ele>71</ele>
        <time>2020-09-26T09:36:44.000Z</time>
      </trkpt>
      <trkpt lat="47.21485" lon="-1.68211">
        <ele>72</ele>
        <time>2020-09-26T09:36:46.000Z</time>
      </trkpt>
      <trkpt lat="47.21495" lon="-1.68205">
        <ele>73</ele>
        <time>2020-09-26T09:36:48.000Z</time>
      </trkpt>
      <trkpt lat="47.21505" lon="-1.68199">
        <ele>73</ele>
        <time>2020-09-26T09:36:50.000Z</time>
      </trkpt>
      <trkpt lat="47.21513" lon="-1.68192">
        <ele>74</ele>
        <time>2020-09-26T09:36:52.000Z</time>
      </trkpt>
      <trkpt lat="47.21523" lon="-1.68184">
        <ele>75</ele>
        <time>2020-09-26T09:36:55.000Z</time>
      </trkpt>
      <trkpt lat="47.21531" lon="-1.68178">
        <ele>75</ele>
        <time>2020-09-26T09:36:58.000Z</time>
      </trkpt>
      <trkpt lat="47.21542" lon="-1.6817">
        <ele>75</ele>
        <time>2020-09-26T09:37:01.000Z</time>
      </trkpt>
      <trkpt lat="47.21552" lon="-1.68172">
        <ele>75</ele>
        <time>2020-09-26T09:37:03.000Z</time>
      </trkpt>
      <trkpt lat="47.21564" lon="-1.68175">
        <ele>76</ele>
        <time>2020-09-26T09:37:05.000Z</time>
      </trkpt>
      <trkpt lat="47.21576" lon="-1.68178">
        <ele>75</ele>
        <time>2020-09-26T09:37:07.000Z</time>
      </trkpt>
      <trkpt lat="47.21589" lon="-1.68181">
        <ele>75</ele>
        <time>2020-09-26T09:37:09.000Z</time>
      </trkpt>
      <trkpt lat="47.21602" lon="-1.68184">
        <ele>76</ele>
        <time>2020-09-26T09:37:11.000Z</time>
      </trkpt>
      <trkpt lat="47.21614" lon="-1.68187">
        <ele>76</ele>
        <time>2020-09-26T09:37:13.000Z</time>
      </trkpt>
      <trkpt lat="47.21627" lon="-1.68189">
        <ele>76</ele>
        <time>2020-09-26T09:37:15.000Z</time>
      </trkpt>
      <trkpt lat="47.2164" lon="-1.68191">
        <ele>75</ele>
        <time>2020-09-26T09:37:17.000Z</time>
      </trkpt>
      <trkpt lat="47.21652" lon="-1.68193">
        <ele>75</ele>
        <time>2020-09-26T09:37:19.000Z</time>
      </trkpt>
      <trkpt lat="47.21665" lon="-1.68196">
        <ele>76</ele>
        <time>2020-09-26T09:37:21.000Z</time>
      </trkpt>
      <trkpt lat="47.21679" lon="-1.68199">
        <ele>76</ele>
        <time>2020-09-26T09:37:23.000Z</time>
      </trkpt>
      <trkpt lat="47.21692" lon="-1.68202">
        <ele>76</ele>
        <time>2020-09-26T09:37:25.000Z</time>
      </trkpt>
      <trkpt lat="47.21706" lon="-1.68205">
        <ele>75</ele>
        <time>2020-09-26T09:37:27.000Z</time>
      </trkpt>
      <trkpt lat="47.21718" lon="-1.68209">
        <ele>74</ele>
        <time>2020-09-26T09:37:29.000Z</time>
      </trkpt>
      <trkpt lat="47.21732" lon="-1.68211">
        <ele>74</ele>
        <time>2020-09-26T09:37:31.000Z</time>
      </trkpt>
      <trkpt lat="47.21745" lon="-1.68214">
        <ele>74</ele>
        <time>2020-09-26T09:37:33.000Z</time>
      </trkpt>
      <trkpt lat="47.21758" lon="-1.68217">
        <ele>74</ele>
        <time>2020-09-26T09:37:35.000Z</time>
      </trkpt>
      <trkpt lat="47.2177" lon="-1.6822">
        <ele>74</ele>
        <time>2020-09-26T09:37:37.000Z</time>
      </trkpt>
      <trkpt lat="47.21783" lon="-1.68223">
        <ele>74</ele>
        <time>2020-09-26T09:37:39.000Z</time>
      </trkpt>
      <trkpt lat="47.21796" lon="-1.68225">
        <ele>74</ele>
        <time>2020-09-26T09:37:41.000Z</time>
      </trkpt>
      <trkpt lat="47.21809" lon="-1.68225">
        <ele>74</ele>
        <time>2020-09-26T09:37:43.000Z</time>
      </trkpt>
      <trkpt lat="47.21822" lon="-1.68226">
        <ele>74</ele>
        <time>2020-09-26T09:37:45.000Z</time>
      </trkpt>
      <trkpt lat="47.21835" lon="-1.68229">
        <ele>74</ele>
        <time>2020-09-26T09:37:47.000Z</time>
      </trkpt>
      <trkpt lat="47.21847" lon="-1.6823">
        <ele>75</ele>
        <time>2020-09-26T09:37:49.000Z</time>
      </trkpt>
      <trkpt lat="47.21861" lon="-1.68232">
        <ele>75</ele>
        <time>2020-09-26T09:37:51.000Z</time>
      </trkpt>
      <trkpt lat="47.21875" lon="-1.68229">
        <ele>75</ele>
        <time>2020-09-26T09:37:53.000Z</time>
      </trkpt>
      <trkpt lat="47.21889" lon="-1.68224">
        <ele>75</ele>
        <time>2020-09-26T09:37:55.000Z</time>
      </trkpt>
      <trkpt lat="47.21903" lon="-1.68215">
        <ele>75</ele>
        <time>2020-09-26T09:37:57.000Z</time>
      </trkpt>
      <trkpt lat="47.21916" lon="-1.68206">
        <ele>75</ele>
        <time>2020-09-26T09:37:59.000Z</time>
      </trkpt>
      <trkpt lat="47.21929" lon="-1.68198">
        <ele>75</ele>
        <time>2020-09-26T09:38:01.000Z</time>
      </trkpt>
      <trkpt lat="47.21942" lon="-1.6819">
        <ele>75</ele>
        <time>2020-09-26T09:38:03.000Z</time>
      </trkpt>
      <trkpt lat="47.21954" lon="-1.68181">
        <ele>75</ele>
        <time>2020-09-26T09:38:05.000Z</time>
      </trkpt>
      <trkpt lat="47.21967" lon="-1.68172">
        <ele>76</ele>
        <time>2020-09-26T09:38:07.000Z</time>
      </trkpt>
      <trkpt lat="47.2198" lon="-1.68164">
        <ele>76</ele>
        <time>2020-09-26T09:38:09.000Z</time>
      </trkpt>
      <trkpt lat="47.21992" lon="-1.68156">
        <ele>77</ele>
        <time>2020-09-26T09:38:11.000Z</time>
      </trkpt>
      <trkpt lat="47.22004" lon="-1.68147">
        <ele>77</ele>
        <time>2020-09-26T09:38:13.000Z</time>
      </trkpt>
      <trkpt lat="47.22016" lon="-1.68138">
        <ele>78</ele>
        <time>2020-09-26T09:38:15.000Z</time>
      </trkpt>
      <trkpt lat="47.22028" lon="-1.68128">
        <ele>78</ele>
        <time>2020-09-26T09:38:17.000Z</time>
      </trkpt>
      <trkpt lat="47.22038" lon="-1.68116">
        <ele>77</ele>
        <time>2020-09-26T09:38:19.000Z</time>
      </trkpt>
      <trkpt lat="47.22049" lon="-1.68103">
        <ele>78</ele>
        <time>2020-09-26T09:38:21.000Z</time>
      </trkpt>
      <trkpt lat="47.22059" lon="-1.6809">
        <ele>78</ele>
        <time>2020-09-26T09:38:23.000Z</time>
      </trkpt>
      <trkpt lat="47.22069" lon="-1.68078">
        <ele>78</ele>
        <time>2020-09-26T09:38:25.000Z</time>
      </trkpt>
      <trkpt lat="47.22078" lon="-1.68065">
        <ele>78</ele>
        <time>2020-09-26T09:38:27.000Z</time>
      </trkpt>
      <trkpt lat="47.22088" lon="-1.68051">
        <ele>79</ele>
        <time>2020-09-26T09:38:29.000Z</time>
      </trkpt>
      <trkpt lat="47.22098" lon="-1.68039">
        <ele>79</ele>
        <time>2020-09-26T09:38:31.000Z</time>
      </trkpt>
      <trkpt lat="47.22107" lon="-1.68026">
        <ele>79</ele>
        <time>2020-09-26T09:38:33.000Z</time>
      </trkpt>
      <trkpt lat="47.22117" lon="-1.68013">
        <ele>80</ele>
        <time>2020-09-26T09:38:35.000Z</time>
      </trkpt>
      <trkpt lat="47.22127" lon="-1.68001">
        <ele>80</ele>
        <time>2020-09-26T09:38:37.000Z</time>
      </trkpt>
      <trkpt lat="47.22137" lon="-1.67991">
        <ele>80</ele>
        <time>2020-09-26T09:38:39.000Z</time>
      </trkpt>
      <trkpt lat="47.22148" lon="-1.67982">
        <ele>80</ele>
        <time>2020-09-26T09:38:41.000Z</time>
      </trkpt>
      <trkpt lat="47.2216" lon="-1.67974">
        <ele>80</ele>
        <time>2020-09-26T09:38:43.000Z</time>
      </trkpt>
      <trkpt lat="47.22172" lon="-1.67965">
        <ele>79</ele>
        <time>2020-09-26T09:38:45.000Z</time>
      </trkpt>
      <trkpt lat="47.22184" lon="-1.67956">
        <ele>79</ele>
        <time>2020-09-26T09:38:47.000Z</time>
      </trkpt>
      <trkpt lat="47.22197" lon="-1.67948">
        <ele>79</ele>
        <time>2020-09-26T09:38:49.000Z</time>
      </trkpt>
      <trkpt lat="47.22209" lon="-1.67939">
        <ele>79</ele>
        <time>2020-09-26T09:38:51.000Z</time>
      </trkpt>
      <trkpt lat="47.22222" lon="-1.67931">
        <ele>78</ele>
        <time>2020-09-26T09:38:53.000Z</time>
      </trkpt>
      <trkpt lat="47.22235" lon="-1.67922">
        <ele>78</ele>
        <time>2020-09-26T09:38:55.000Z</time>
      </trkpt>
      <trkpt lat="47.22249" lon="-1.67914">
        <ele>78</ele>
        <time>2020-09-26T09:38:57.000Z</time>
      </trkpt>
      <trkpt lat="47.22262" lon="-1.67905">
        <ele>77</ele>
        <time>2020-09-26T09:38:59.000Z</time>
      </trkpt>
      <trkpt lat="47.22275" lon="-1.67896">
        <ele>77</ele>
        <time>2020-09-26T09:39:01.000Z</time>
      </trkpt>
      <trkpt lat="47.22287" lon="-1.67887">
        <ele>76</ele>
        <time>2020-09-26T09:39:03.000Z</time>
      </trkpt>
      <trkpt lat="47.22301" lon="-1.67877">
        <ele>76</ele>
        <time>2020-09-26T09:39:05.000Z</time>
      </trkpt>
      <trkpt lat="47.22315" lon="-1.67869">
        <ele>76</ele>
        <time>2020-09-26T09:39:07.000Z</time>
      </trkpt>
      <trkpt lat="47.22328" lon="-1.6786">
        <ele>76</ele>
        <time>2020-09-26T09:39:09.000Z</time>
      </trkpt>
      <trkpt lat="47.22341" lon="-1.67852">
        <ele>76</ele>
        <time>2020-09-26T09:39:11.000Z</time>
      </trkpt>
      <trkpt lat="47.22354" lon="-1.67845">
        <ele>77</ele>
        <time>2020-09-26T09:39:13.000Z</time>
      </trkpt>
      <trkpt lat="47.22366" lon="-1.6784">
        <ele>77</ele>
        <time>2020-09-26T09:39:15.000Z</time>
      </trkpt>
      <trkpt lat="47.22379" lon="-1.67835">
        <ele>78</ele>
        <time>2020-09-26T09:39:17.000Z</time>
      </trkpt>
      <trkpt lat="47.22392" lon="-1.67831">
        <ele>79</ele>
        <time>2020-09-26T09:39:19.000Z</time>
      </trkpt>
      <trkpt lat="47.22405" lon="-1.67827">
        <ele>78</ele>
        <time>2020-09-26T09:39:21.000Z</time>
      </trkpt>
      <trkpt lat="47.22417" lon="-1.67824">
        <ele>78</ele>
        <time>2020-09-26T09:39:23.000Z</time>
      </trkpt>
      <trkpt lat="47.2243" lon="-1.67822">
        <ele>78</ele>
        <time>2020-09-26T09:39:25.000Z</time>
      </trkpt>
      <trkpt lat="47.22443" lon="-1.67822">
        <ele>78</ele>
        <time>2020-09-26T09:39:27.000Z</time>
      </trkpt>
      <trkpt lat="47.22455" lon="-1.67822">
        <ele>79</ele>
        <time>2020-09-26T09:39:29.000Z</time>
      </trkpt>
      <trkpt lat="47.22467" lon="-1.67823">
        <ele>79</ele>
        <time>2020-09-26T09:39:31.000Z</time>
      </trkpt>
      <trkpt lat="47.22479" lon="-1.67823">
        <ele>79</ele>
        <time>2020-09-26T09:39:33.000Z</time>
      </trkpt>
      <trkpt lat="47.22491" lon="-1.67825">
        <ele>80</ele>
        <time>2020-09-26T09:39:35.000Z</time>
      </trkpt>
      <trkpt lat="47.22502" lon="-1.67827">
        <ele>80</ele>
        <time>2020-09-26T09:39:37.000Z</time>
      </trkpt>
      <trkpt lat="47.22514" lon="-1.67829">
        <ele>80</ele>
        <time>2020-09-26T09:39:39.000Z</time>
      </trkpt>
      <trkpt lat="47.22525" lon="-1.67831">
        <ele>80</ele>
        <time>2020-09-26T09:39:41.000Z</time>
      </trkpt>
      <trkpt lat="47.22536" lon="-1.67833">
        <ele>81</ele>
        <time>2020-09-26T09:39:43.000Z</time>
      </trkpt>
      <trkpt lat="47.22547" lon="-1.67835">
        <ele>81</ele>
        <time>2020-09-26T09:39:45.000Z</time>
      </trkpt>
      <trkpt lat="47.22558" lon="-1.67836">
        <ele>81</ele>
        <time>2020-09-26T09:39:47.000Z</time>
      </trkpt>
      <trkpt lat="47.22568" lon="-1.67837">
        <ele>81</ele>
        <time>2020-09-26T09:39:49.000Z</time>
      </trkpt>
      <trkpt lat="47.22581" lon="-1.67832">
        <ele>82</ele>
        <time>2020-09-26T09:39:52.000Z</time>
      </trkpt>
      <trkpt lat="47.22591" lon="-1.67825">
        <ele>82</ele>
        <time>2020-09-26T09:39:54.000Z</time>
      </trkpt>
      <trkpt lat="47.22601" lon="-1.67827">
        <ele>83</ele>
        <time>2020-09-26T09:39:56.000Z</time>
      </trkpt>
      <trkpt lat="47.22611" lon="-1.67834">
        <ele>83</ele>
        <time>2020-09-26T09:39:58.000Z</time>
      </trkpt>
      <trkpt lat="47.22623" lon="-1.67837">
        <ele>83</ele>
        <time>2020-09-26T09:40:00.000Z</time>
      </trkpt>
      <trkpt lat="47.22634" lon="-1.67836">
        <ele>83</ele>
        <time>2020-09-26T09:40:02.000Z</time>
      </trkpt>
      <trkpt lat="47.22645" lon="-1.67834">
        <ele>83</ele>
        <time>2020-09-26T09:40:04.000Z</time>
      </trkpt>
      <trkpt lat="47.22656" lon="-1.67832">
        <ele>83</ele>
        <time>2020-09-26T09:40:06.000Z</time>
      </trkpt>
      <trkpt lat="47.22666" lon="-1.6783">
        <ele>83</ele>
        <time>2020-09-26T09:40:08.000Z</time>
      </trkpt>
      <trkpt lat="47.22677" lon="-1.67826">
        <ele>84</ele>
        <time>2020-09-26T09:40:10.000Z</time>
      </trkpt>
      <trkpt lat="47.22687" lon="-1.67824">
        <ele>84</ele>
        <time>2020-09-26T09:40:12.000Z</time>
      </trkpt>
      <trkpt lat="47.22697" lon="-1.67821">
        <ele>84</ele>
        <time>2020-09-26T09:40:14.000Z</time>
      </trkpt>
      <trkpt lat="47.22707" lon="-1.67819">
        <ele>85</ele>
        <time>2020-09-26T09:40:16.000Z</time>
      </trkpt>
      <trkpt lat="47.22717" lon="-1.67817">
        <ele>85</ele>
        <time>2020-09-26T09:40:18.000Z</time>
      </trkpt>
      <trkpt lat="47.22727" lon="-1.67814">
        <ele>86</ele>
        <time>2020-09-26T09:40:20.000Z</time>
      </trkpt>
      <trkpt lat="47.22738" lon="-1.67812">
        <ele>87</ele>
        <time>2020-09-26T09:40:22.000Z</time>
      </trkpt>
      <trkpt lat="47.22748" lon="-1.67809">
        <ele>87</ele>
        <time>2020-09-26T09:40:24.000Z</time>
      </trkpt>
      <trkpt lat="47.22758" lon="-1.67807">
        <ele>88</ele>
        <time>2020-09-26T09:40:26.000Z</time>
      </trkpt>
      <trkpt lat="47.22768" lon="-1.67803">
        <ele>88</ele>
        <time>2020-09-26T09:40:28.000Z</time>
      </trkpt>
      <trkpt lat="47.22779" lon="-1.67799">
        <ele>89</ele>
        <time>2020-09-26T09:40:30.000Z</time>
      </trkpt>
      <trkpt lat="47.22789" lon="-1.67794">
        <ele>89</ele>
        <time>2020-09-26T09:40:32.000Z</time>
      </trkpt>
      <trkpt lat="47.22799" lon="-1.6779">
        <ele>89</ele>
        <time>2020-09-26T09:40:34.000Z</time>
      </trkpt>
      <trkpt lat="47.22814" lon="-1.67783">
        <ele>90</ele>
        <time>2020-09-26T09:40:37.000Z</time>
      </trkpt>
      <trkpt lat="47.22824" lon="-1.67778">
        <ele>90</ele>
        <time>2020-09-26T09:40:39.000Z</time>
      </trkpt>
      <trkpt lat="47.22833" lon="-1.67773">
        <ele>91</ele>
        <time>2020-09-26T09:40:41.000Z</time>
      </trkpt>
      <trkpt lat="47.22843" lon="-1.67768">
        <ele>92</ele>
        <time>2020-09-26T09:40:43.000Z</time>
      </trkpt>
      <trkpt lat="47.22852" lon="-1.67764">
        <ele>93</ele>
        <time>2020-09-26T09:40:45.000Z</time>
      </trkpt>
      <trkpt lat="47.22861" lon="-1.67759">
        <ele>93</ele>
        <time>2020-09-26T09:40:47.000Z</time>
      </trkpt>
      <trkpt lat="47.22871" lon="-1.67753">
        <ele>94</ele>
        <time>2020-09-26T09:40:49.000Z</time>
      </trkpt>
      <trkpt lat="47.22881" lon="-1.67746">
        <ele>94</ele>
        <time>2020-09-26T09:40:51.000Z</time>
      </trkpt>
      <trkpt lat="47.22891" lon="-1.6774">
        <ele>95</ele>
        <time>2020-09-26T09:40:53.000Z</time>
      </trkpt>
      <trkpt lat="47.22902" lon="-1.67734">
        <ele>95</ele>
        <time>2020-09-26T09:40:55.000Z</time>
      </trkpt>
      <trkpt lat="47.22912" lon="-1.67727">
        <ele>95</ele>
        <time>2020-09-26T09:40:57.000Z</time>
      </trkpt>
      <trkpt lat="47.22923" lon="-1.67721">
        <ele>95</ele>
        <time>2020-09-26T09:40:59.000Z</time>
      </trkpt>
      <trkpt lat="47.22933" lon="-1.67714">
        <ele>95</ele>
        <time>2020-09-26T09:41:01.000Z</time>
      </trkpt>
      <trkpt lat="47.22943" lon="-1.67707">
        <ele>95</ele>
        <time>2020-09-26T09:41:03.000Z</time>
      </trkpt>
      <trkpt lat="47.22958" lon="-1.67697">
        <ele>95</ele>
        <time>2020-09-26T09:41:06.000Z</time>
      </trkpt>
      <trkpt lat="47.22968" lon="-1.67689">
        <ele>95</ele>
        <time>2020-09-26T09:41:08.000Z</time>
      </trkpt>
      <trkpt lat="47.22985" lon="-1.67678">
        <ele>95</ele>
        <time>2020-09-26T09:41:11.000Z</time>
      </trkpt>
      <trkpt lat="47.22996" lon="-1.67671">
        <ele>95</ele>
        <time>2020-09-26T09:41:13.000Z</time>
      </trkpt>
      <trkpt lat="47.23007" lon="-1.67663">
        <ele>94</ele>
        <time>2020-09-26T09:41:15.000Z</time>
      </trkpt>
      <trkpt lat="47.23017" lon="-1.67655">
        <ele>94</ele>
        <time>2020-09-26T09:41:17.000Z</time>
      </trkpt>
      <trkpt lat="47.23028" lon="-1.67647">
        <ele>94</ele>
        <time>2020-09-26T09:41:19.000Z</time>
      </trkpt>
      <trkpt lat="47.23042" lon="-1.67629">
        <ele>95</ele>
        <time>2020-09-26T09:41:22.000Z</time>
      </trkpt>
      <trkpt lat="47.23055" lon="-1.6761">
        <ele>95</ele>
        <time>2020-09-26T09:41:25.000Z</time>
      </trkpt>
      <trkpt lat="47.23066" lon="-1.67591">
        <ele>95</ele>
        <time>2020-09-26T09:41:28.000Z</time>
      </trkpt>
      <trkpt lat="47.23074" lon="-1.67578">
        <ele>95</ele>
        <time>2020-09-26T09:41:30.000Z</time>
      </trkpt>
      <trkpt lat="47.23083" lon="-1.67566">
        <ele>96</ele>
        <time>2020-09-26T09:41:32.000Z</time>
      </trkpt>
      <trkpt lat="47.23092" lon="-1.67554">
        <ele>96</ele>
        <time>2020-09-26T09:41:34.000Z</time>
      </trkpt>
      <trkpt lat="47.231" lon="-1.67543">
        <ele>96</ele>
        <time>2020-09-26T09:41:36.000Z</time>
      </trkpt>
      <trkpt lat="47.2311" lon="-1.67532">
        <ele>96</ele>
        <time>2020-09-26T09:41:38.000Z</time>
      </trkpt>
      <trkpt lat="47.23124" lon="-1.67517">
        <ele>97</ele>
        <time>2020-09-26T09:41:41.000Z</time>
      </trkpt>
      <trkpt lat="47.23133" lon="-1.67507">
        <ele>97</ele>
        <time>2020-09-26T09:41:43.000Z</time>
      </trkpt>
      <trkpt lat="47.23142" lon="-1.67497">
        <ele>97</ele>
        <time>2020-09-26T09:41:45.000Z</time>
      </trkpt>
      <trkpt lat="47.23151" lon="-1.67488">
        <ele>98</ele>
        <time>2020-09-26T09:41:47.000Z</time>
      </trkpt>
      <trkpt lat="47.2316" lon="-1.67477">
        <ele>97</ele>
        <time>2020-09-26T09:41:49.000Z</time>
      </trkpt>
      <trkpt lat="47.23169" lon="-1.67468">
        <ele>98</ele>
        <time>2020-09-26T09:41:51.000Z</time>
      </trkpt>
      <trkpt lat="47.23178" lon="-1.67459">
        <ele>98</ele>
        <time>2020-09-26T09:41:53.000Z</time>
      </trkpt>
      <trkpt lat="47.23186" lon="-1.67449">
        <ele>98</ele>
        <time>2020-09-26T09:41:55.000Z</time>
      </trkpt>
      <trkpt lat="47.23195" lon="-1.6744">
        <ele>98</ele>
        <time>2020-09-26T09:41:57.000Z</time>
      </trkpt>
      <trkpt lat="47.23208" lon="-1.67427">
        <ele>99</ele>
        <time>2020-09-26T09:42:00.000Z</time>
      </trkpt>
      <trkpt lat="47.23221" lon="-1.67413">
        <ele>100</ele>
        <time>2020-09-26T09:42:03.000Z</time>
      </trkpt>
      <trkpt lat="47.23228" lon="-1.67404">
        <ele>100</ele>
        <time>2020-09-26T09:42:05.000Z</time>
      </trkpt>
      <trkpt lat="47.23236" lon="-1.67396">
        <ele>101</ele>
        <time>2020-09-26T09:42:07.000Z</time>
      </trkpt>
      <trkpt lat="47.23245" lon="-1.67389">
        <ele>102</ele>
        <time>2020-09-26T09:42:09.000Z</time>
      </trkpt>
      <trkpt lat="47.23254" lon="-1.67383">
        <ele>103</ele>
        <time>2020-09-26T09:42:11.000Z</time>
      </trkpt>
      <trkpt lat="47.23263" lon="-1.67377">
        <ele>103</ele>
        <time>2020-09-26T09:42:13.000Z</time>
      </trkpt>
      <trkpt lat="47.23272" lon="-1.6737">
        <ele>104</ele>
        <time>2020-09-26T09:42:15.000Z</time>
      </trkpt>
      <trkpt lat="47.23281" lon="-1.67364">
        <ele>105</ele>
        <time>2020-09-26T09:42:17.000Z</time>
      </trkpt>
      <trkpt lat="47.2329" lon="-1.67358">
        <ele>105</ele>
        <time>2020-09-26T09:42:19.000Z</time>
      </trkpt>
      <trkpt lat="47.23299" lon="-1.67352">
        <ele>105</ele>
        <time>2020-09-26T09:42:21.000Z</time>
      </trkpt>
      <trkpt lat="47.23308" lon="-1.67345">
        <ele>106</ele>
        <time>2020-09-26T09:42:23.000Z</time>
      </trkpt>
      <trkpt lat="47.23317" lon="-1.67338">
        <ele>107</ele>
        <time>2020-09-26T09:42:25.000Z</time>
      </trkpt>
      <trkpt lat="47.23327" lon="-1.67332">
        <ele>108</ele>
        <time>2020-09-26T09:42:27.000Z</time>
      </trkpt>
      <trkpt lat="47.23337" lon="-1.67325">
        <ele>108</ele>
        <time>2020-09-26T09:42:29.000Z</time>
      </trkpt>
      <trkpt lat="47.23346" lon="-1.67319">
        <ele>108</ele>
        <time>2020-09-26T09:42:31.000Z</time>
      </trkpt>
      <trkpt lat="47.23356" lon="-1.67312">
        <ele>108</ele>
        <time>2020-09-26T09:42:33.000Z</time>
      </trkpt>
      <trkpt lat="47.23367" lon="-1.67304">
        <ele>108</ele>
        <time>2020-09-26T09:42:35.000Z</time>
      </trkpt>
      <trkpt lat="47.23377" lon="-1.67298">
        <ele>108</ele>
        <time>2020-09-26T09:42:37.000Z</time>
      </trkpt>
      <trkpt lat="47.23387" lon="-1.67292">
        <ele>108</ele>
        <time>2020-09-26T09:42:39.000Z</time>
      </trkpt>
      <trkpt lat="47.23398" lon="-1.67285">
        <ele>108</ele>
        <time>2020-09-26T09:42:41.000Z</time>
      </trkpt>
      <trkpt lat="47.23408" lon="-1.67277">
        <ele>108</ele>
        <time>2020-09-26T09:42:43.000Z</time>
      </trkpt>
      <trkpt lat="47.23418" lon="-1.67271">
        <ele>108</ele>
        <time>2020-09-26T09:42:45.000Z</time>
      </trkpt>
      <trkpt lat="47.23429" lon="-1.67263">
        <ele>109</ele>
        <time>2020-09-26T09:42:47.000Z</time>
      </trkpt>
      <trkpt lat="47.23439" lon="-1.67256">
        <ele>109</ele>
        <time>2020-09-26T09:42:49.000Z</time>
      </trkpt>
      <trkpt lat="47.23449" lon="-1.67249">
        <ele>109</ele>
        <time>2020-09-26T09:42:51.000Z</time>
      </trkpt>
      <trkpt lat="47.2346" lon="-1.67241">
        <ele>110</ele>
        <time>2020-09-26T09:42:53.000Z</time>
      </trkpt>
      <trkpt lat="47.2347" lon="-1.67234">
        <ele>110</ele>
        <time>2020-09-26T09:42:55.000Z</time>
      </trkpt>
      <trkpt lat="47.23481" lon="-1.67228">
        <ele>110</ele>
        <time>2020-09-26T09:42:57.000Z</time>
      </trkpt>
      <trkpt lat="47.23498" lon="-1.67216">
        <ele>111</ele>
        <time>2020-09-26T09:43:00.000Z</time>
      </trkpt>
      <trkpt lat="47.23508" lon="-1.67208">
        <ele>112</ele>
        <time>2020-09-26T09:43:02.000Z</time>
      </trkpt>
      <trkpt lat="47.23519" lon="-1.672">
        <ele>112</ele>
        <time>2020-09-26T09:43:04.000Z</time>
      </trkpt>
      <trkpt lat="47.23531" lon="-1.67195">
        <ele>112</ele>
        <time>2020-09-26T09:43:06.000Z</time>
      </trkpt>
      <trkpt lat="47.23542" lon="-1.6719">
        <ele>112</ele>
        <time>2020-09-26T09:43:08.000Z</time>
      </trkpt>
      <trkpt lat="47.23555" lon="-1.67186">
        <ele>112</ele>
        <time>2020-09-26T09:43:10.000Z</time>
      </trkpt>
      <trkpt lat="47.23567" lon="-1.67182">
        <ele>111</ele>
        <time>2020-09-26T09:43:12.000Z</time>
      </trkpt>
      <trkpt lat="47.2358" lon="-1.6718">
        <ele>111</ele>
        <time>2020-09-26T09:43:14.000Z</time>
      </trkpt>
      <trkpt lat="47.23593" lon="-1.67178">
        <ele>111</ele>
        <time>2020-09-26T09:43:16.000Z</time>
      </trkpt>
      <trkpt lat="47.23606" lon="-1.67177">
        <ele>112</ele>
        <time>2020-09-26T09:43:18.000Z</time>
      </trkpt>
      <trkpt lat="47.23619" lon="-1.67176">
        <ele>112</ele>
        <time>2020-09-26T09:43:20.000Z</time>
      </trkpt>
      <trkpt lat="47.23629" lon="-1.67171">
        <ele>112</ele>
        <time>2020-09-26T09:43:24.000Z</time>
      </trkpt>
      <trkpt lat="47.23636" lon="-1.6716">
        <ele>112</ele>
        <time>2020-09-26T09:43:27.000Z</time>
      </trkpt>
      <trkpt lat="47.23645" lon="-1.67155">
        <ele>112</ele>
        <time>2020-09-26T09:43:29.000Z</time>
      </trkpt>
      <trkpt lat="47.23655" lon="-1.67158">
        <ele>112</ele>
        <time>2020-09-26T09:43:31.000Z</time>
      </trkpt>
      <trkpt lat="47.23665" lon="-1.67168">
        <ele>111</ele>
        <time>2020-09-26T09:43:33.000Z</time>
      </trkpt>
      <trkpt lat="47.23677" lon="-1.67171">
        <ele>110</ele>
        <time>2020-09-26T09:43:35.000Z</time>
      </trkpt>
      <trkpt lat="47.23691" lon="-1.6717">
        <ele>111</ele>
        <time>2020-09-26T09:43:37.000Z</time>
      </trkpt>
      <trkpt lat="47.23704" lon="-1.67168">
        <ele>111</ele>
        <time>2020-09-26T09:43:39.000Z</time>
      </trkpt>
      <trkpt lat="47.23717" lon="-1.67165">
        <ele>111</ele>
        <time>2020-09-26T09:43:41.000Z</time>
      </trkpt>
      <trkpt lat="47.2373" lon="-1.67162">
        <ele>111</ele>
        <time>2020-09-26T09:43:43.000Z</time>
      </trkpt>
      <trkpt lat="47.23742" lon="-1.67158">
        <ele>110</ele>
        <time>2020-09-26T09:43:45.000Z</time>
      </trkpt>
      <trkpt lat="47.23756" lon="-1.67153">
        <ele>110</ele>
        <time>2020-09-26T09:43:47.000Z</time>
      </trkpt>
      <trkpt lat="47.23769" lon="-1.67148">
        <ele>110</ele>
        <time>2020-09-26T09:43:49.000Z</time>
      </trkpt>
      <trkpt lat="47.23782" lon="-1.67143">
        <ele>110</ele>
        <time>2020-09-26T09:43:51.000Z</time>
      </trkpt>
      <trkpt lat="47.23794" lon="-1.67138">
        <ele>110</ele>
        <time>2020-09-26T09:43:53.000Z</time>
      </trkpt>
      <trkpt lat="47.23807" lon="-1.67134">
        <ele>111</ele>
        <time>2020-09-26T09:43:55.000Z</time>
      </trkpt>
      <trkpt lat="47.2382" lon="-1.67131">
        <ele>110</ele>
        <time>2020-09-26T09:43:57.000Z</time>
      </trkpt>
      <trkpt lat="47.23833" lon="-1.6713">
        <ele>110</ele>
        <time>2020-09-26T09:43:59.000Z</time>
      </trkpt>
      <trkpt lat="47.23846" lon="-1.67131">
        <ele>110</ele>
        <time>2020-09-26T09:44:01.000Z</time>
      </trkpt>
      <trkpt lat="47.23859" lon="-1.67134">
        <ele>110</ele>
        <time>2020-09-26T09:44:03.000Z</time>
      </trkpt>
      <trkpt lat="47.23871" lon="-1.67138">
        <ele>110</ele>
        <time>2020-09-26T09:44:05.000Z</time>
      </trkpt>
      <trkpt lat="47.23884" lon="-1.67143">
        <ele>110</ele>
        <time>2020-09-26T09:44:07.000Z</time>
      </trkpt>
      <trkpt lat="47.23896" lon="-1.67149">
        <ele>111</ele>
        <time>2020-09-26T09:44:09.000Z</time>
      </trkpt>
      <trkpt lat="47.23908" lon="-1.67156">
        <ele>111</ele>
        <time>2020-09-26T09:44:11.000Z</time>
      </trkpt>
      <trkpt lat="47.23919" lon="-1.67163">
        <ele>111</ele>
        <time>2020-09-26T09:44:13.000Z</time>
      </trkpt>
      <trkpt lat="47.2393" lon="-1.6717">
        <ele>111</ele>
        <time>2020-09-26T09:44:15.000Z</time>
      </trkpt>
      <trkpt lat="47.23941" lon="-1.67178">
        <ele>111</ele>
        <time>2020-09-26T09:44:17.000Z</time>
      </trkpt>
      <trkpt lat="47.23952" lon="-1.67187">
        <ele>111</ele>
        <time>2020-09-26T09:44:19.000Z</time>
      </trkpt>
      <trkpt lat="47.23961" lon="-1.67198">
        <ele>111</ele>
        <time>2020-09-26T09:44:21.000Z</time>
      </trkpt>
      <trkpt lat="47.23969" lon="-1.67211">
        <ele>111</ele>
        <time>2020-09-26T09:44:23.000Z</time>
      </trkpt>
      <trkpt lat="47.23981" lon="-1.67231">
        <ele>111</ele>
        <time>2020-09-26T09:44:26.000Z</time>
      </trkpt>
      <trkpt lat="47.23989" lon="-1.67242">
        <ele>111</ele>
        <time>2020-09-26T09:44:28.000Z</time>
      </trkpt>
      <trkpt lat="47.24" lon="-1.67252">
        <ele>111</ele>
        <time>2020-09-26T09:44:30.000Z</time>
      </trkpt>
      <trkpt lat="47.2401" lon="-1.67262">
        <ele>110</ele>
        <time>2020-09-26T09:44:32.000Z</time>
      </trkpt>
      <trkpt lat="47.24022" lon="-1.67271">
        <ele>110</ele>
        <time>2020-09-26T09:44:34.000Z</time>
      </trkpt>
      <trkpt lat="47.24034" lon="-1.67278">
        <ele>109</ele>
        <time>2020-09-26T09:44:36.000Z</time>
      </trkpt>
      <trkpt lat="47.24048" lon="-1.67283">
        <ele>109</ele>
        <time>2020-09-26T09:44:38.000Z</time>
      </trkpt>
      <trkpt lat="47.24063" lon="-1.67285">
        <ele>108</ele>
        <time>2020-09-26T09:44:40.000Z</time>
      </trkpt>
      <trkpt lat="47.24078" lon="-1.67287">
        <ele>106</ele>
        <time>2020-09-26T09:44:42.000Z</time>
      </trkpt>
      <trkpt lat="47.24092" lon="-1.67289">
        <ele>106</ele>
        <time>2020-09-26T09:44:44.000Z</time>
      </trkpt>
      <trkpt lat="47.24108" lon="-1.6729">
        <ele>105</ele>
        <time>2020-09-26T09:44:46.000Z</time>
      </trkpt>
      <trkpt lat="47.24123" lon="-1.67292">
        <ele>104</ele>
        <time>2020-09-26T09:44:48.000Z</time>
      </trkpt>
      <trkpt lat="47.24139" lon="-1.67293">
        <ele>104</ele>
        <time>2020-09-26T09:44:50.000Z</time>
      </trkpt>
      <trkpt lat="47.24153" lon="-1.67294">
        <ele>104</ele>
        <time>2020-09-26T09:44:52.000Z</time>
      </trkpt>
      <trkpt lat="47.24166" lon="-1.6729">
        <ele>104</ele>
        <time>2020-09-26T09:44:54.000Z</time>
      </trkpt>
      <trkpt lat="47.2418" lon="-1.67286">
        <ele>104</ele>
        <time>2020-09-26T09:44:56.000Z</time>
      </trkpt>
      <trkpt lat="47.24194" lon="-1.6728">
        <ele>104</ele>
        <time>2020-09-26T09:44:58.000Z</time>
      </trkpt>
      <trkpt lat="47.24208" lon="-1.67274">
        <ele>104</ele>
        <time>2020-09-26T09:45:00.000Z</time>
      </trkpt>
      <trkpt lat="47.2422" lon="-1.67265">
        <ele>104</ele>
        <time>2020-09-26T09:45:02.000Z</time>
      </trkpt>
      <trkpt lat="47.24228" lon="-1.67249">
        <ele>103</ele>
        <time>2020-09-26T09:45:04.000Z</time>
      </trkpt>
      <trkpt lat="47.2423" lon="-1.67231">
        <ele>103</ele>
        <time>2020-09-26T09:45:06.000Z</time>
      </trkpt>
      <trkpt lat="47.24231" lon="-1.67213">
        <ele>102</ele>
        <time>2020-09-26T09:45:08.000Z</time>
      </trkpt>
      <trkpt lat="47.24236" lon="-1.67198">
        <ele>102</ele>
        <time>2020-09-26T09:45:10.000Z</time>
      </trkpt>
      <trkpt lat="47.24243" lon="-1.6719">
        <ele>102</ele>
        <time>2020-09-26T09:45:12.000Z</time>
      </trkpt>
      <trkpt lat="47.24248" lon="-1.67176">
        <ele>102</ele>
        <time>2020-09-26T09:45:14.000Z</time>
      </trkpt>
      <trkpt lat="47.24248" lon="-1.67157">
        <ele>101</ele>
        <time>2020-09-26T09:45:16.000Z</time>
      </trkpt>
      <trkpt lat="47.24246" lon="-1.67139">
        <ele>102</ele>
        <time>2020-09-26T09:45:18.000Z</time>
      </trkpt>
      <trkpt lat="47.24246" lon="-1.67119">
        <ele>102</ele>
        <time>2020-09-26T09:45:20.000Z</time>
      </trkpt>
      <trkpt lat="47.24245" lon="-1.671">
        <ele>103</ele>
        <time>2020-09-26T09:45:22.000Z</time>
      </trkpt>
      <trkpt lat="47.24245" lon="-1.6708">
        <ele>104</ele>
        <time>2020-09-26T09:45:24.000Z</time>
      </trkpt>
      <trkpt lat="47.24246" lon="-1.67061">
        <ele>104</ele>
        <time>2020-09-26T09:45:26.000Z</time>
      </trkpt>
      <trkpt lat="47.24247" lon="-1.67041">
        <ele>104</ele>
        <time>2020-09-26T09:45:28.000Z</time>
      </trkpt>
      <trkpt lat="47.2425" lon="-1.67021">
        <ele>104</ele>
        <time>2020-09-26T09:45:30.000Z</time>
      </trkpt>
      <trkpt lat="47.24253" lon="-1.67001">
        <ele>104</ele>
        <time>2020-09-26T09:45:32.000Z</time>
      </trkpt>
      <trkpt lat="47.24257" lon="-1.66982">
        <ele>104</ele>
        <time>2020-09-26T09:45:34.000Z</time>
      </trkpt>
      <trkpt lat="47.24261" lon="-1.66963">
        <ele>104</ele>
        <time>2020-09-26T09:45:36.000Z</time>
      </trkpt>
      <trkpt lat="47.24264" lon="-1.66944">
        <ele>104</ele>
        <time>2020-09-26T09:45:38.000Z</time>
      </trkpt>
      <trkpt lat="47.24268" lon="-1.66925">
        <ele>104</ele>
        <time>2020-09-26T09:45:40.000Z</time>
      </trkpt>
      <trkpt lat="47.24271" lon="-1.66905">
        <ele>104</ele>
        <time>2020-09-26T09:45:42.000Z</time>
      </trkpt>
      <trkpt lat="47.24275" lon="-1.66886">
        <ele>103</ele>
        <time>2020-09-26T09:45:44.000Z</time>
      </trkpt>
      <trkpt lat="47.2428" lon="-1.66867">
        <ele>104</ele>
        <time>2020-09-26T09:45:46.000Z</time>
      </trkpt>
      <trkpt lat="47.24286" lon="-1.66848">
        <ele>103</ele>
        <time>2020-09-26T09:45:48.000Z</time>
      </trkpt>
      <trkpt lat="47.24289" lon="-1.66827">
        <ele>103</ele>
        <time>2020-09-26T09:45:50.000Z</time>
      </trkpt>
      <trkpt lat="47.24298" lon="-1.66811">
        <ele>103</ele>
        <time>2020-09-26T09:45:52.000Z</time>
      </trkpt>
      <trkpt lat="47.24313" lon="-1.66811">
        <ele>103</ele>
        <time>2020-09-26T09:45:54.000Z</time>
      </trkpt>
      <trkpt lat="47.24324" lon="-1.66824">
        <ele>103</ele>
        <time>2020-09-26T09:45:56.000Z</time>
      </trkpt>
      <trkpt lat="47.24335" lon="-1.66837">
        <ele>103</ele>
        <time>2020-09-26T09:45:58.000Z</time>
      </trkpt>
      <trkpt lat="47.24348" lon="-1.66847">
        <ele>102</ele>
        <time>2020-09-26T09:46:00.000Z</time>
      </trkpt>
      <trkpt lat="47.2436" lon="-1.66858">
        <ele>102</ele>
        <time>2020-09-26T09:46:02.000Z</time>
      </trkpt>
      <trkpt lat="47.24372" lon="-1.6687">
        <ele>102</ele>
        <time>2020-09-26T09:46:04.000Z</time>
      </trkpt>
      <trkpt lat="47.24383" lon="-1.66882">
        <ele>102</ele>
        <time>2020-09-26T09:46:06.000Z</time>
      </trkpt>
      <trkpt lat="47.24393" lon="-1.66895">
        <ele>102</ele>
        <time>2020-09-26T09:46:08.000Z</time>
      </trkpt>
      <trkpt lat="47.24404" lon="-1.66908">
        <ele>101</ele>
        <time>2020-09-26T09:46:10.000Z</time>
      </trkpt>
      <trkpt lat="47.24415" lon="-1.66921">
        <ele>101</ele>
        <time>2020-09-26T09:46:12.000Z</time>
      </trkpt>
      <trkpt lat="47.24426" lon="-1.66936">
        <ele>101</ele>
        <time>2020-09-26T09:46:14.000Z</time>
      </trkpt>
      <trkpt lat="47.24434" lon="-1.66951">
        <ele>101</ele>
        <time>2020-09-26T09:46:16.000Z</time>
      </trkpt>
      <trkpt lat="47.24443" lon="-1.66963">
        <ele>100</ele>
        <time>2020-09-26T09:46:19.000Z</time>
      </trkpt>
      <trkpt lat="47.24452" lon="-1.6697">
        <ele>100</ele>
        <time>2020-09-26T09:46:21.000Z</time>
      </trkpt>
      <trkpt lat="47.24461" lon="-1.66984">
        <ele>100</ele>
        <time>2020-09-26T09:46:23.000Z</time>
      </trkpt>
      <trkpt lat="47.24471" lon="-1.66997">
        <ele>99</ele>
        <time>2020-09-26T09:46:25.000Z</time>
      </trkpt>
      <trkpt lat="47.24483" lon="-1.67004">
        <ele>99</ele>
        <time>2020-09-26T09:46:27.000Z</time>
      </trkpt>
      <trkpt lat="47.24494" lon="-1.67012">
        <ele>99</ele>
        <time>2020-09-26T09:46:29.000Z</time>
      </trkpt>
      <trkpt lat="47.24506" lon="-1.67019">
        <ele>99</ele>
        <time>2020-09-26T09:46:31.000Z</time>
      </trkpt>
      <trkpt lat="47.24517" lon="-1.67025">
        <ele>99</ele>
        <time>2020-09-26T09:46:33.000Z</time>
      </trkpt>
      <trkpt lat="47.24529" lon="-1.6703">
        <ele>99</ele>
        <time>2020-09-26T09:46:35.000Z</time>
      </trkpt>
      <trkpt lat="47.24542" lon="-1.67033">
        <ele>100</ele>
        <time>2020-09-26T09:46:37.000Z</time>
      </trkpt>
      <trkpt lat="47.24555" lon="-1.67034">
        <ele>100</ele>
        <time>2020-09-26T09:46:39.000Z</time>
      </trkpt>
      <trkpt lat="47.24567" lon="-1.67034">
        <ele>100</ele>
        <time>2020-09-26T09:46:41.000Z</time>
      </trkpt>
      <trkpt lat="47.2458" lon="-1.67033">
        <ele>99</ele>
        <time>2020-09-26T09:46:43.000Z</time>
      </trkpt>
      <trkpt lat="47.24593" lon="-1.67029">
        <ele>99</ele>
        <time>2020-09-26T09:46:45.000Z</time>
      </trkpt>
      <trkpt lat="47.24606" lon="-1.67024">
        <ele>99</ele>
        <time>2020-09-26T09:46:47.000Z</time>
      </trkpt>
      <trkpt lat="47.24619" lon="-1.67019">
        <ele>100</ele>
        <time>2020-09-26T09:46:49.000Z</time>
      </trkpt>
      <trkpt lat="47.24631" lon="-1.67014">
        <ele>100</ele>
        <time>2020-09-26T09:46:51.000Z</time>
      </trkpt>
      <trkpt lat="47.24644" lon="-1.67009">
        <ele>99</ele>
        <time>2020-09-26T09:46:53.000Z</time>
      </trkpt>
      <trkpt lat="47.24657" lon="-1.67002">
        <ele>99</ele>
        <time>2020-09-26T09:46:55.000Z</time>
      </trkpt>
      <trkpt lat="47.24669" lon="-1.66992">
        <ele>98</ele>
        <time>2020-09-26T09:46:57.000Z</time>
      </trkpt>
      <trkpt lat="47.2468" lon="-1.6698">
        <ele>97</ele>
        <time>2020-09-26T09:46:59.000Z</time>
      </trkpt>
      <trkpt lat="47.24691" lon="-1.66965">
        <ele>97</ele>
        <time>2020-09-26T09:47:01.000Z</time>
      </trkpt>
      <trkpt lat="47.24701" lon="-1.6695">
        <ele>97</ele>
        <time>2020-09-26T09:47:03.000Z</time>
      </trkpt>
      <trkpt lat="47.24712" lon="-1.66937">
        <ele>97</ele>
        <time>2020-09-26T09:47:05.000Z</time>
      </trkpt>
      <trkpt lat="47.24723" lon="-1.66926">
        <ele>97</ele>
        <time>2020-09-26T09:47:07.000Z</time>
      </trkpt>
      <trkpt lat="47.24736" lon="-1.66917">
        <ele>97</ele>
        <time>2020-09-26T09:47:09.000Z</time>
      </trkpt>
      <trkpt lat="47.24749" lon="-1.6691">
        <ele>96</ele>
        <time>2020-09-26T09:47:11.000Z</time>
      </trkpt>
      <trkpt lat="47.24763" lon="-1.66903">
        <ele>96</ele>
        <time>2020-09-26T09:47:13.000Z</time>
      </trkpt>
      <trkpt lat="47.24776" lon="-1.66894">
        <ele>95</ele>
        <time>2020-09-26T09:47:15.000Z</time>
      </trkpt>
      <trkpt lat="47.24788" lon="-1.66883">
        <ele>96</ele>
        <time>2020-09-26T09:47:17.000Z</time>
      </trkpt>
      <trkpt lat="47.248" lon="-1.66872">
        <ele>96</ele>
        <time>2020-09-26T09:47:19.000Z</time>
      </trkpt>
      <trkpt lat="47.24813" lon="-1.6686">
        <ele>96</ele>
        <time>2020-09-26T09:47:21.000Z</time>
      </trkpt>
      <trkpt lat="47.24825" lon="-1.66851">
        <ele>97</ele>
        <time>2020-09-26T09:47:23.000Z</time>
      </trkpt>
      <trkpt lat="47.24838" lon="-1.66844">
        <ele>97</ele>
        <time>2020-09-26T09:47:25.000Z</time>
      </trkpt>
      <trkpt lat="47.24851" lon="-1.66839">
        <ele>98</ele>
        <time>2020-09-26T09:47:27.000Z</time>
      </trkpt>
      <trkpt lat="47.24865" lon="-1.66835">
        <ele>98</ele>
        <time>2020-09-26T09:47:29.000Z</time>
      </trkpt>
      <trkpt lat="47.24878" lon="-1.66831">
        <ele>97</ele>
        <time>2020-09-26T09:47:31.000Z</time>
      </trkpt>
      <trkpt lat="47.24892" lon="-1.66827">
        <ele>97</ele>
        <time>2020-09-26T09:47:33.000Z</time>
      </trkpt>
      <trkpt lat="47.24906" lon="-1.66823">
        <ele>97</ele>
        <time>2020-09-26T09:47:35.000Z</time>
      </trkpt>
      <trkpt lat="47.2492" lon="-1.66819">
        <ele>97</ele>
        <time>2020-09-26T09:47:37.000Z</time>
      </trkpt>
      <trkpt lat="47.24934" lon="-1.66815">
        <ele>97</ele>
        <time>2020-09-26T09:47:39.000Z</time>
      </trkpt>
      <trkpt lat="47.24948" lon="-1.6681">
        <ele>97</ele>
        <time>2020-09-26T09:47:41.000Z</time>
      </trkpt>
      <trkpt lat="47.24962" lon="-1.66806">
        <ele>97</ele>
        <time>2020-09-26T09:47:43.000Z</time>
      </trkpt>
      <trkpt lat="47.24975" lon="-1.66801">
        <ele>97</ele>
        <time>2020-09-26T09:47:45.000Z</time>
      </trkpt>
      <trkpt lat="47.24988" lon="-1.66797">
        <ele>97</ele>
        <time>2020-09-26T09:47:47.000Z</time>
      </trkpt>
      <trkpt lat="47.25002" lon="-1.66794">
        <ele>97</ele>
        <time>2020-09-26T09:47:49.000Z</time>
      </trkpt>
      <trkpt lat="47.25015" lon="-1.66792">
        <ele>97</ele>
        <time>2020-09-26T09:47:51.000Z</time>
      </trkpt>
      <trkpt lat="47.25029" lon="-1.6679">
        <ele>97</ele>
        <time>2020-09-26T09:47:53.000Z</time>
      </trkpt>
      <trkpt lat="47.25042" lon="-1.6679">
        <ele>97</ele>
        <time>2020-09-26T09:47:55.000Z</time>
      </trkpt>
      <trkpt lat="47.25055" lon="-1.66789">
        <ele>97</ele>
        <time>2020-09-26T09:47:57.000Z</time>
      </trkpt>
      <trkpt lat="47.2507" lon="-1.66791">
        <ele>96</ele>
        <time>2020-09-26T09:47:59.000Z</time>
      </trkpt>
      <trkpt lat="47.25084" lon="-1.66793">
        <ele>96</ele>
        <time>2020-09-26T09:48:01.000Z</time>
      </trkpt>
      <trkpt lat="47.251" lon="-1.66797">
        <ele>95</ele>
        <time>2020-09-26T09:48:03.000Z</time>
      </trkpt>
      <trkpt lat="47.25115" lon="-1.66802">
        <ele>93</ele>
        <time>2020-09-26T09:48:05.000Z</time>
      </trkpt>
      <trkpt lat="47.25131" lon="-1.66808">
        <ele>92</ele>
        <time>2020-09-26T09:48:07.000Z</time>
      </trkpt>
      <trkpt lat="47.25148" lon="-1.66814">
        <ele>90</ele>
        <time>2020-09-26T09:48:09.000Z</time>
      </trkpt>
      <trkpt lat="47.25164" lon="-1.6682">
        <ele>90</ele>
        <time>2020-09-26T09:48:11.000Z</time>
      </trkpt>
      <trkpt lat="47.2518" lon="-1.66824">
        <ele>89</ele>
        <time>2020-09-26T09:48:13.000Z</time>
      </trkpt>
      <trkpt lat="47.25196" lon="-1.66828">
        <ele>89</ele>
        <time>2020-09-26T09:48:15.000Z</time>
      </trkpt>
      <trkpt lat="47.2521" lon="-1.66832">
        <ele>89</ele>
        <time>2020-09-26T09:48:17.000Z</time>
      </trkpt>
      <trkpt lat="47.25224" lon="-1.66835">
        <ele>89</ele>
        <time>2020-09-26T09:48:19.000Z</time>
      </trkpt>
      <trkpt lat="47.25237" lon="-1.66837">
        <ele>90</ele>
        <time>2020-09-26T09:48:21.000Z</time>
      </trkpt>
      <trkpt lat="47.25248" lon="-1.66839">
        <ele>90</ele>
        <time>2020-09-26T09:48:23.000Z</time>
      </trkpt>
      <trkpt lat="47.25259" lon="-1.66841">
        <ele>91</ele>
        <time>2020-09-26T09:48:25.000Z</time>
      </trkpt>
      <trkpt lat="47.25269" lon="-1.66843">
        <ele>92</ele>
        <time>2020-09-26T09:48:27.000Z</time>
      </trkpt>
      <trkpt lat="47.2528" lon="-1.66844">
        <ele>92</ele>
        <time>2020-09-26T09:48:29.000Z</time>
      </trkpt>
      <trkpt lat="47.2529" lon="-1.66846">
        <ele>92</ele>
        <time>2020-09-26T09:48:31.000Z</time>
      </trkpt>
      <trkpt lat="47.25301" lon="-1.66847">
        <ele>92</ele>
        <time>2020-09-26T09:48:33.000Z</time>
      </trkpt>
      <trkpt lat="47.25311" lon="-1.66848">
        <ele>93</ele>
        <time>2020-09-26T09:48:35.000Z</time>
      </trkpt>
      <trkpt lat="47.25322" lon="-1.6685">
        <ele>93</ele>
        <time>2020-09-26T09:48:37.000Z</time>
      </trkpt>
      <trkpt lat="47.25333" lon="-1.66851">
        <ele>94</ele>
        <time>2020-09-26T09:48:39.000Z</time>
      </trkpt>
      <trkpt lat="47.25344" lon="-1.66853">
        <ele>95</ele>
        <time>2020-09-26T09:48:41.000Z</time>
      </trkpt>
      <trkpt lat="47.25355" lon="-1.66855">
        <ele>95</ele>
        <time>2020-09-26T09:48:43.000Z</time>
      </trkpt>
      <trkpt lat="47.25366" lon="-1.66855">
        <ele>95</ele>
        <time>2020-09-26T09:48:45.000Z</time>
      </trkpt>
      <trkpt lat="47.25377" lon="-1.66857">
        <ele>96</ele>
        <time>2020-09-26T09:48:47.000Z</time>
      </trkpt>
      <trkpt lat="47.25388" lon="-1.6686">
        <ele>97</ele>
        <time>2020-09-26T09:48:49.000Z</time>
      </trkpt>
      <trkpt lat="47.25399" lon="-1.66861">
        <ele>97</ele>
        <time>2020-09-26T09:48:51.000Z</time>
      </trkpt>
      <trkpt lat="47.25411" lon="-1.66861">
        <ele>97</ele>
        <time>2020-09-26T09:48:53.000Z</time>
      </trkpt>
      <trkpt lat="47.25421" lon="-1.66863">
        <ele>98</ele>
        <time>2020-09-26T09:48:55.000Z</time>
      </trkpt>
      <trkpt lat="47.25432" lon="-1.66864">
        <ele>98</ele>
        <time>2020-09-26T09:48:57.000Z</time>
      </trkpt>
      <trkpt lat="47.25444" lon="-1.66866">
        <ele>98</ele>
        <time>2020-09-26T09:48:59.000Z</time>
      </trkpt>
      <trkpt lat="47.25455" lon="-1.66867">
        <ele>99</ele>
        <time>2020-09-26T09:49:01.000Z</time>
      </trkpt>
      <trkpt lat="47.25466" lon="-1.66869">
        <ele>98</ele>
        <time>2020-09-26T09:49:03.000Z</time>
      </trkpt>
      <trkpt lat="47.25477" lon="-1.66871">
        <ele>99</ele>
        <time>2020-09-26T09:49:05.000Z</time>
      </trkpt>
      <trkpt lat="47.25488" lon="-1.66873">
        <ele>99</ele>
        <time>2020-09-26T09:49:07.000Z</time>
      </trkpt>
      <trkpt lat="47.25499" lon="-1.66875">
        <ele>99</ele>
        <time>2020-09-26T09:49:09.000Z</time>
      </trkpt>
      <trkpt lat="47.25509" lon="-1.66875">
        <ele>99</ele>
        <time>2020-09-26T09:49:11.000Z</time>
      </trkpt>
      <trkpt lat="47.2552" lon="-1.66875">
        <ele>100</ele>
        <time>2020-09-26T09:49:13.000Z</time>
      </trkpt>
      <trkpt lat="47.2553" lon="-1.66873">
        <ele>100</ele>
        <time>2020-09-26T09:49:15.000Z</time>
      </trkpt>
      <trkpt lat="47.25541" lon="-1.66877">
        <ele>100</ele>
        <time>2020-09-26T09:49:17.000Z</time>
      </trkpt>
      <trkpt lat="47.25551" lon="-1.66881">
        <ele>101</ele>
        <time>2020-09-26T09:49:19.000Z</time>
      </trkpt>
      <trkpt lat="47.25562" lon="-1.66883">
        <ele>101</ele>
        <time>2020-09-26T09:49:21.000Z</time>
      </trkpt>
      <trkpt lat="47.25574" lon="-1.66883">
        <ele>101</ele>
        <time>2020-09-26T09:49:23.000Z</time>
      </trkpt>
      <trkpt lat="47.25586" lon="-1.66883">
        <ele>101</ele>
        <time>2020-09-26T09:49:25.000Z</time>
      </trkpt>
      <trkpt lat="47.25599" lon="-1.66885">
        <ele>101</ele>
        <time>2020-09-26T09:49:27.000Z</time>
      </trkpt>
      <trkpt lat="47.25611" lon="-1.66886">
        <ele>101</ele>
        <time>2020-09-26T09:49:29.000Z</time>
      </trkpt>
      <trkpt lat="47.25623" lon="-1.66887">
        <ele>101</ele>
        <time>2020-09-26T09:49:31.000Z</time>
      </trkpt>
      <trkpt lat="47.25636" lon="-1.66889">
        <ele>101</ele>
        <time>2020-09-26T09:49:33.000Z</time>
      </trkpt>
      <trkpt lat="47.25649" lon="-1.6689">
        <ele>100</ele>
        <time>2020-09-26T09:49:35.000Z</time>
      </trkpt>
      <trkpt lat="47.25661" lon="-1.6689">
        <ele>101</ele>
        <time>2020-09-26T09:49:37.000Z</time>
      </trkpt>
      <trkpt lat="47.25673" lon="-1.66891">
        <ele>101</ele>
        <time>2020-09-26T09:49:39.000Z</time>
      </trkpt>
      <trkpt lat="47.25685" lon="-1.6689">
        <ele>101</ele>
        <time>2020-09-26T09:49:41.000Z</time>
      </trkpt>
      <trkpt lat="47.25696" lon="-1.66886">
        <ele>101</ele>
        <time>2020-09-26T09:49:43.000Z</time>
      </trkpt>
      <trkpt lat="47.25708" lon="-1.6689">
        <ele>101</ele>
        <time>2020-09-26T09:49:45.000Z</time>
      </trkpt>
      <trkpt lat="47.2572" lon="-1.66894">
        <ele>102</ele>
        <time>2020-09-26T09:49:47.000Z</time>
      </trkpt>
      <trkpt lat="47.25732" lon="-1.66896">
        <ele>102</ele>
        <time>2020-09-26T09:49:49.000Z</time>
      </trkpt>
      <trkpt lat="47.25745" lon="-1.66897">
        <ele>103</ele>
        <time>2020-09-26T09:49:51.000Z</time>
      </trkpt>
      <trkpt lat="47.25757" lon="-1.66898">
        <ele>103</ele>
        <time>2020-09-26T09:49:53.000Z</time>
      </trkpt>
      <trkpt lat="47.25769" lon="-1.66899">
        <ele>104</ele>
        <time>2020-09-26T09:49:55.000Z</time>
      </trkpt>
      <trkpt lat="47.25781" lon="-1.66902">
        <ele>104</ele>
        <time>2020-09-26T09:49:57.000Z</time>
      </trkpt>
      <trkpt lat="47.25792" lon="-1.66904">
        <ele>104</ele>
        <time>2020-09-26T09:49:59.000Z</time>
      </trkpt>
      <trkpt lat="47.25804" lon="-1.66906">
        <ele>104</ele>
        <time>2020-09-26T09:50:01.000Z</time>
      </trkpt>
      <trkpt lat="47.25816" lon="-1.6691">
        <ele>104</ele>
        <time>2020-09-26T09:50:03.000Z</time>
      </trkpt>
      <trkpt lat="47.25828" lon="-1.66913">
        <ele>104</ele>
        <time>2020-09-26T09:50:05.000Z</time>
      </trkpt>
      <trkpt lat="47.2584" lon="-1.66916">
        <ele>104</ele>
        <time>2020-09-26T09:50:07.000Z</time>
      </trkpt>
      <trkpt lat="47.25852" lon="-1.66919">
        <ele>104</ele>
        <time>2020-09-26T09:50:09.000Z</time>
      </trkpt>
      <trkpt lat="47.25864" lon="-1.66922">
        <ele>104</ele>
        <time>2020-09-26T09:50:11.000Z</time>
      </trkpt>
      <trkpt lat="47.25875" lon="-1.66925">
        <ele>104</ele>
        <time>2020-09-26T09:50:13.000Z</time>
      </trkpt>
      <trkpt lat="47.25886" lon="-1.66929">
        <ele>104</ele>
        <time>2020-09-26T09:50:15.000Z</time>
      </trkpt>
      <trkpt lat="47.25897" lon="-1.66933">
        <ele>104</ele>
        <time>2020-09-26T09:50:17.000Z</time>
      </trkpt>
      <trkpt lat="47.25908" lon="-1.66936">
        <ele>104</ele>
        <time>2020-09-26T09:50:19.000Z</time>
      </trkpt>
      <trkpt lat="47.25918" lon="-1.66939">
        <ele>104</ele>
        <time>2020-09-26T09:50:21.000Z</time>
      </trkpt>
      <trkpt lat="47.2593" lon="-1.66943">
        <ele>104</ele>
        <time>2020-09-26T09:50:23.000Z</time>
      </trkpt>
      <trkpt lat="47.2594" lon="-1.66948">
        <ele>105</ele>
        <time>2020-09-26T09:50:25.000Z</time>
      </trkpt>
      <trkpt lat="47.25951" lon="-1.66952">
        <ele>106</ele>
        <time>2020-09-26T09:50:27.000Z</time>
      </trkpt>
      <trkpt lat="47.25962" lon="-1.66957">
        <ele>106</ele>
        <time>2020-09-26T09:50:29.000Z</time>
      </trkpt>
      <trkpt lat="47.25972" lon="-1.66962">
        <ele>106</ele>
        <time>2020-09-26T09:50:31.000Z</time>
      </trkpt>
      <trkpt lat="47.25983" lon="-1.66966">
        <ele>106</ele>
        <time>2020-09-26T09:50:33.000Z</time>
      </trkpt>
      <trkpt lat="47.25993" lon="-1.66971">
        <ele>106</ele>
        <time>2020-09-26T09:50:35.000Z</time>
      </trkpt>
      <trkpt lat="47.26003" lon="-1.66976">
        <ele>106</ele>
        <time>2020-09-26T09:50:37.000Z</time>
      </trkpt>
      <trkpt lat="47.26013" lon="-1.66981">
        <ele>107</ele>
        <time>2020-09-26T09:50:39.000Z</time>
      </trkpt>
      <trkpt lat="47.26024" lon="-1.66985">
        <ele>108</ele>
        <time>2020-09-26T09:50:41.000Z</time>
      </trkpt>
      <trkpt lat="47.26034" lon="-1.6699">
        <ele>108</ele>
        <time>2020-09-26T09:50:43.000Z</time>
      </trkpt>
      <trkpt lat="47.26044" lon="-1.66995">
        <ele>108</ele>
        <time>2020-09-26T09:50:45.000Z</time>
      </trkpt>
      <trkpt lat="47.26054" lon="-1.67">
        <ele>109</ele>
        <time>2020-09-26T09:50:47.000Z</time>
      </trkpt>
      <trkpt lat="47.26064" lon="-1.67004">
        <ele>109</ele>
        <time>2020-09-26T09:50:49.000Z</time>
      </trkpt>
      <trkpt lat="47.26074" lon="-1.67009">
        <ele>110</ele>
        <time>2020-09-26T09:50:51.000Z</time>
      </trkpt>
      <trkpt lat="47.26084" lon="-1.67014">
        <ele>110</ele>
        <time>2020-09-26T09:50:53.000Z</time>
      </trkpt>
      <trkpt lat="47.26095" lon="-1.67018">
        <ele>110</ele>
        <time>2020-09-26T09:50:55.000Z</time>
      </trkpt>
      <trkpt lat="47.26105" lon="-1.67022">
        <ele>110</ele>
        <time>2020-09-26T09:50:57.000Z</time>
      </trkpt>
      <trkpt lat="47.26114" lon="-1.67025">
        <ele>111</ele>
        <time>2020-09-26T09:50:59.000Z</time>
      </trkpt>
      <trkpt lat="47.26124" lon="-1.67031">
        <ele>111</ele>
        <time>2020-09-26T09:51:01.000Z</time>
      </trkpt>
      <trkpt lat="47.26134" lon="-1.67035">
        <ele>111</ele>
        <time>2020-09-26T09:51:03.000Z</time>
      </trkpt>
      <trkpt lat="47.26144" lon="-1.6704">
        <ele>111</ele>
        <time>2020-09-26T09:51:05.000Z</time>
      </trkpt>
      <trkpt lat="47.26154" lon="-1.67045">
        <ele>111</ele>
        <time>2020-09-26T09:51:07.000Z</time>
      </trkpt>
      <trkpt lat="47.26165" lon="-1.6705">
        <ele>111</ele>
        <time>2020-09-26T09:51:09.000Z</time>
      </trkpt>
      <trkpt lat="47.26175" lon="-1.67055">
        <ele>111</ele>
        <time>2020-09-26T09:51:11.000Z</time>
      </trkpt>
      <trkpt lat="47.26186" lon="-1.67061">
        <ele>112</ele>
        <time>2020-09-26T09:51:14.000Z</time>
      </trkpt>
      <trkpt lat="47.26198" lon="-1.67062">
        <ele>112</ele>
        <time>2020-09-26T09:51:18.000Z</time>
      </trkpt>
      <trkpt lat="47.26208" lon="-1.67064">
        <ele>113</ele>
        <time>2020-09-26T09:51:21.000Z</time>
      </trkpt>
      <trkpt lat="47.26213" lon="-1.67076">
        <ele>113</ele>
        <time>2020-09-26T09:51:23.000Z</time>
      </trkpt>
      <trkpt lat="47.26217" lon="-1.6709">
        <ele>114</ele>
        <time>2020-09-26T09:51:25.000Z</time>
      </trkpt>
      <trkpt lat="47.26219" lon="-1.67105">
        <ele>114</ele>
        <time>2020-09-26T09:51:27.000Z</time>
      </trkpt>
      <trkpt lat="47.26223" lon="-1.67119">
        <ele>114</ele>
        <time>2020-09-26T09:51:29.000Z</time>
      </trkpt>
      <trkpt lat="47.26226" lon="-1.67136">
        <ele>114</ele>
        <time>2020-09-26T09:51:31.000Z</time>
      </trkpt>
      <trkpt lat="47.26228" lon="-1.6715">
        <ele>114</ele>
        <time>2020-09-26T09:51:33.000Z</time>
      </trkpt>
      <trkpt lat="47.26231" lon="-1.67165">
        <ele>114</ele>
        <time>2020-09-26T09:51:35.000Z</time>
      </trkpt>
      <trkpt lat="47.26234" lon="-1.67181">
        <ele>113</ele>
        <time>2020-09-26T09:51:37.000Z</time>
      </trkpt>
      <trkpt lat="47.26237" lon="-1.67196">
        <ele>113</ele>
        <time>2020-09-26T09:51:39.000Z</time>
      </trkpt>
      <trkpt lat="47.2624" lon="-1.67211">
        <ele>114</ele>
        <time>2020-09-26T09:51:41.000Z</time>
      </trkpt>
      <trkpt lat="47.26243" lon="-1.67225">
        <ele>114</ele>
        <time>2020-09-26T09:51:43.000Z</time>
      </trkpt>
      <trkpt lat="47.26247" lon="-1.67238">
        <ele>114</ele>
        <time>2020-09-26T09:51:45.000Z</time>
      </trkpt>
      <trkpt lat="47.26261" lon="-1.67244">
        <ele>116</ele>
        <time>2020-09-26T09:51:48.000Z</time>
      </trkpt>
      <trkpt lat="47.26273" lon="-1.67239">
        <ele>116</ele>
        <time>2020-09-26T09:51:50.000Z</time>
      </trkpt>
      <trkpt lat="47.26284" lon="-1.67233">
        <ele>115</ele>
        <time>2020-09-26T09:51:52.000Z</time>
      </trkpt>
      <trkpt lat="47.26296" lon="-1.67233">
        <ele>114</ele>
        <time>2020-09-26T09:51:54.000Z</time>
      </trkpt>
      <trkpt lat="47.26308" lon="-1.67233">
        <ele>114</ele>
        <time>2020-09-26T09:51:56.000Z</time>
      </trkpt>
      <trkpt lat="47.26321" lon="-1.67228">
        <ele>114</ele>
        <time>2020-09-26T09:51:58.000Z</time>
      </trkpt>
      <trkpt lat="47.26334" lon="-1.67224">
        <ele>113</ele>
        <time>2020-09-26T09:52:00.000Z</time>
      </trkpt>
      <trkpt lat="47.26345" lon="-1.67221">
        <ele>114</ele>
        <time>2020-09-26T09:52:02.000Z</time>
      </trkpt>
      <trkpt lat="47.26355" lon="-1.67227">
        <ele>114</ele>
        <time>2020-09-26T09:52:04.000Z</time>
      </trkpt>
      <trkpt lat="47.26361" lon="-1.67243">
        <ele>114</ele>
        <time>2020-09-26T09:52:06.000Z</time>
      </trkpt>
      <trkpt lat="47.26364" lon="-1.67259">
        <ele>113</ele>
        <time>2020-09-26T09:52:08.000Z</time>
      </trkpt>
      <trkpt lat="47.26366" lon="-1.67276">
        <ele>113</ele>
        <time>2020-09-26T09:52:10.000Z</time>
      </trkpt>
      <trkpt lat="47.26373" lon="-1.67289">
        <ele>113</ele>
        <time>2020-09-26T09:52:12.000Z</time>
      </trkpt>
      <trkpt lat="47.26383" lon="-1.67295">
        <ele>113</ele>
        <time>2020-09-26T09:52:14.000Z</time>
      </trkpt>
      <trkpt lat="47.26395" lon="-1.67297">
        <ele>113</ele>
        <time>2020-09-26T09:52:16.000Z</time>
      </trkpt>
      <trkpt lat="47.26406" lon="-1.67301">
        <ele>113</ele>
        <time>2020-09-26T09:52:18.000Z</time>
      </trkpt>
      <trkpt lat="47.26417" lon="-1.67304">
        <ele>114</ele>
        <time>2020-09-26T09:52:20.000Z</time>
      </trkpt>
      <trkpt lat="47.26428" lon="-1.6731">
        <ele>114</ele>
        <time>2020-09-26T09:52:22.000Z</time>
      </trkpt>
      <trkpt lat="47.26437" lon="-1.67315">
        <ele>114</ele>
        <time>2020-09-26T09:52:24.000Z</time>
      </trkpt>
      <trkpt lat="47.26447" lon="-1.67315">
        <ele>114</ele>
        <time>2020-09-26T09:52:31.000Z</time>
      </trkpt>
      <trkpt lat="47.26455" lon="-1.67307">
        <ele>114</ele>
        <time>2020-09-26T09:52:34.000Z</time>
      </trkpt>
      <trkpt lat="47.2646" lon="-1.67294">
        <ele>114</ele>
        <time>2020-09-26T09:52:36.000Z</time>
      </trkpt>
      <trkpt lat="47.26466" lon="-1.67278">
        <ele>114</ele>
        <time>2020-09-26T09:52:38.000Z</time>
      </trkpt>
      <trkpt lat="47.26472" lon="-1.67262">
        <ele>114</ele>
        <time>2020-09-26T09:52:40.000Z</time>
      </trkpt>
      <trkpt lat="47.26479" lon="-1.67245">
        <ele>113</ele>
        <time>2020-09-26T09:52:42.000Z</time>
      </trkpt>
      <trkpt lat="47.26486" lon="-1.67227">
        <ele>112</ele>
        <time>2020-09-26T09:52:44.000Z</time>
      </trkpt>
      <trkpt lat="47.26495" lon="-1.67209">
        <ele>110</ele>
        <time>2020-09-26T09:52:46.000Z</time>
      </trkpt>
      <trkpt lat="47.26504" lon="-1.6719">
        <ele>109</ele>
        <time>2020-09-26T09:52:48.000Z</time>
      </trkpt>
      <trkpt lat="47.26515" lon="-1.67171">
        <ele>108</ele>
        <time>2020-09-26T09:52:50.000Z</time>
      </trkpt>
      <trkpt lat="47.26528" lon="-1.67154">
        <ele>108</ele>
        <time>2020-09-26T09:52:52.000Z</time>
      </trkpt>
      <trkpt lat="47.26542" lon="-1.67138">
        <ele>107</ele>
        <time>2020-09-26T09:52:54.000Z</time>
      </trkpt>
      <trkpt lat="47.26549" lon="-1.67131">
        <ele>107</ele>
        <time>2020-09-26T09:52:55.000Z</time>
      </trkpt>
      <trkpt lat="47.26557" lon="-1.67125">
        <ele>107</ele>
        <time>2020-09-26T09:52:56.000Z</time>
      </trkpt>
      <trkpt lat="47.26574" lon="-1.67115">
        <ele>106</ele>
        <time>2020-09-26T09:52:58.000Z</time>
      </trkpt>
      <trkpt lat="47.26589" lon="-1.67102">
        <ele>106</ele>
        <time>2020-09-26T09:53:00.000Z</time>
      </trkpt>
      <trkpt lat="47.26598" lon="-1.67096">
        <ele>105</ele>
        <time>2020-09-26T09:53:01.000Z</time>
      </trkpt>
      <trkpt lat="47.26606" lon="-1.67091">
        <ele>104</ele>
        <time>2020-09-26T09:53:02.000Z</time>
      </trkpt>
      <trkpt lat="47.26616" lon="-1.67088">
        <ele>104</ele>
        <time>2020-09-26T09:53:03.000Z</time>
      </trkpt>
      <trkpt lat="47.26625" lon="-1.67085">
        <ele>103</ele>
        <time>2020-09-26T09:53:04.000Z</time>
      </trkpt>
      <trkpt lat="47.26634" lon="-1.6708">
        <ele>102</ele>
        <time>2020-09-26T09:53:05.000Z</time>
      </trkpt>
      <trkpt lat="47.26643" lon="-1.67074">
        <ele>101</ele>
        <time>2020-09-26T09:53:06.000Z</time>
      </trkpt>
      <trkpt lat="47.26651" lon="-1.67068">
        <ele>100</ele>
        <time>2020-09-26T09:53:07.000Z</time>
      </trkpt>
      <trkpt lat="47.2666" lon="-1.67062">
        <ele>99</ele>
        <time>2020-09-26T09:53:08.000Z</time>
      </trkpt>
      <trkpt lat="47.26668" lon="-1.67056">
        <ele>98</ele>
        <time>2020-09-26T09:53:09.000Z</time>
      </trkpt>
      <trkpt lat="47.26677" lon="-1.6705">
        <ele>98</ele>
        <time>2020-09-26T09:53:10.000Z</time>
      </trkpt>
      <trkpt lat="47.26685" lon="-1.67044">
        <ele>97</ele>
        <time>2020-09-26T09:53:11.000Z</time>
      </trkpt>
      <trkpt lat="47.26694" lon="-1.67038">
        <ele>96</ele>
        <time>2020-09-26T09:53:12.000Z</time>
      </trkpt>
      <trkpt lat="47.26702" lon="-1.67032">
        <ele>96</ele>
        <time>2020-09-26T09:53:13.000Z</time>
      </trkpt>
      <trkpt lat="47.26711" lon="-1.67026">
        <ele>95</ele>
        <time>2020-09-26T09:53:14.000Z</time>
      </trkpt>
      <trkpt lat="47.2672" lon="-1.67021">
        <ele>95</ele>
        <time>2020-09-26T09:53:15.000Z</time>
      </trkpt>
      <trkpt lat="47.26729" lon="-1.67015">
        <ele>95</ele>
        <time>2020-09-26T09:53:16.000Z</time>
      </trkpt>
      <trkpt lat="47.26739" lon="-1.67012">
        <ele>95</ele>
        <time>2020-09-26T09:53:17.000Z</time>
      </trkpt>
      <trkpt lat="47.26749" lon="-1.6701">
        <ele>94</ele>
        <time>2020-09-26T09:53:18.000Z</time>
      </trkpt>
      <trkpt lat="47.26758" lon="-1.6701">
        <ele>94</ele>
        <time>2020-09-26T09:53:19.000Z</time>
      </trkpt>
      <trkpt lat="47.26776" lon="-1.67018">
        <ele>92</ele>
        <time>2020-09-26T09:53:21.000Z</time>
      </trkpt>
      <trkpt lat="47.26784" lon="-1.67024">
        <ele>93</ele>
        <time>2020-09-26T09:53:22.000Z</time>
      </trkpt>
      <trkpt lat="47.26792" lon="-1.67031">
        <ele>93</ele>
        <time>2020-09-26T09:53:23.000Z</time>
      </trkpt>
      <trkpt lat="47.26806" lon="-1.67048">
        <ele>91</ele>
        <time>2020-09-26T09:53:25.000Z</time>
      </trkpt>
      <trkpt lat="47.26812" lon="-1.67058">
        <ele>91</ele>
        <time>2020-09-26T09:53:26.000Z</time>
      </trkpt>
      <trkpt lat="47.26818" lon="-1.67069">
        <ele>90</ele>
        <time>2020-09-26T09:53:27.000Z</time>
      </trkpt>
      <trkpt lat="47.26824" lon="-1.6708">
        <ele>89</ele>
        <time>2020-09-26T09:53:28.000Z</time>
      </trkpt>
      <trkpt lat="47.2683" lon="-1.6709">
        <ele>89</ele>
        <time>2020-09-26T09:53:29.000Z</time>
      </trkpt>
      <trkpt lat="47.26837" lon="-1.67099">
        <ele>88</ele>
        <time>2020-09-26T09:53:30.000Z</time>
      </trkpt>
      <trkpt lat="47.26846" lon="-1.67106">
        <ele>87</ele>
        <time>2020-09-26T09:53:31.000Z</time>
      </trkpt>
      <trkpt lat="47.26853" lon="-1.67114">
        <ele>87</ele>
        <time>2020-09-26T09:53:32.000Z</time>
      </trkpt>
      <trkpt lat="47.2686" lon="-1.67124">
        <ele>87</ele>
        <time>2020-09-26T09:53:33.000Z</time>
      </trkpt>
      <trkpt lat="47.26866" lon="-1.67133">
        <ele>86</ele>
        <time>2020-09-26T09:53:34.000Z</time>
      </trkpt>
      <trkpt lat="47.26873" lon="-1.67143">
        <ele>86</ele>
        <time>2020-09-26T09:53:35.000Z</time>
      </trkpt>
      <trkpt lat="47.26887" lon="-1.67157">
        <ele>85</ele>
        <time>2020-09-26T09:53:37.000Z</time>
      </trkpt>
      <trkpt lat="47.26902" lon="-1.67164">
        <ele>84</ele>
        <time>2020-09-26T09:53:39.000Z</time>
      </trkpt>
      <trkpt lat="47.26916" lon="-1.67166">
        <ele>84</ele>
        <time>2020-09-26T09:53:41.000Z</time>
      </trkpt>
      <trkpt lat="47.26928" lon="-1.67163">
        <ele>84</ele>
        <time>2020-09-26T09:53:43.000Z</time>
      </trkpt>
      <trkpt lat="47.26938" lon="-1.67158">
        <ele>84</ele>
        <time>2020-09-26T09:53:45.000Z</time>
      </trkpt>
      <trkpt lat="47.26948" lon="-1.67153">
        <ele>84</ele>
        <time>2020-09-26T09:53:47.000Z</time>
      </trkpt>
      <trkpt lat="47.26957" lon="-1.67147">
        <ele>84</ele>
        <time>2020-09-26T09:53:49.000Z</time>
      </trkpt>
      <trkpt lat="47.26968" lon="-1.67142">
        <ele>85</ele>
        <time>2020-09-26T09:53:51.000Z</time>
      </trkpt>
      <trkpt lat="47.26977" lon="-1.67136">
        <ele>86</ele>
        <time>2020-09-26T09:53:53.000Z</time>
      </trkpt>
      <trkpt lat="47.26987" lon="-1.67131">
        <ele>87</ele>
        <time>2020-09-26T09:53:55.000Z</time>
      </trkpt>
      <trkpt lat="47.26997" lon="-1.67128">
        <ele>88</ele>
        <time>2020-09-26T09:53:57.000Z</time>
      </trkpt>
      <trkpt lat="47.27007" lon="-1.67124">
        <ele>88</ele>
        <time>2020-09-26T09:53:59.000Z</time>
      </trkpt>
      <trkpt lat="47.27017" lon="-1.67121">
        <ele>89</ele>
        <time>2020-09-26T09:54:01.000Z</time>
      </trkpt>
      <trkpt lat="47.27028" lon="-1.67119">
        <ele>90</ele>
        <time>2020-09-26T09:54:03.000Z</time>
      </trkpt>
      <trkpt lat="47.27038" lon="-1.67117">
        <ele>90</ele>
        <time>2020-09-26T09:54:05.000Z</time>
      </trkpt>
      <trkpt lat="47.27048" lon="-1.67116">
        <ele>91</ele>
        <time>2020-09-26T09:54:07.000Z</time>
      </trkpt>
      <trkpt lat="47.27058" lon="-1.67117">
        <ele>92</ele>
        <time>2020-09-26T09:54:09.000Z</time>
      </trkpt>
      <trkpt lat="47.27068" lon="-1.67117">
        <ele>93</ele>
        <time>2020-09-26T09:54:11.000Z</time>
      </trkpt>
      <trkpt lat="47.27078" lon="-1.67119">
        <ele>94</ele>
        <time>2020-09-26T09:54:13.000Z</time>
      </trkpt>
      <trkpt lat="47.27087" lon="-1.67121">
        <ele>94</ele>
        <time>2020-09-26T09:54:15.000Z</time>
      </trkpt>
      <trkpt lat="47.27097" lon="-1.67122">
        <ele>95</ele>
        <time>2020-09-26T09:54:17.000Z</time>
      </trkpt>
      <trkpt lat="47.27106" lon="-1.67124">
        <ele>96</ele>
        <time>2020-09-26T09:54:19.000Z</time>
      </trkpt>
      <trkpt lat="47.27115" lon="-1.67127">
        <ele>97</ele>
        <time>2020-09-26T09:54:21.000Z</time>
      </trkpt>
      <trkpt lat="47.27124" lon="-1.67132">
        <ele>97</ele>
        <time>2020-09-26T09:54:23.000Z</time>
      </trkpt>
      <trkpt lat="47.27137" lon="-1.67137">
        <ele>98</ele>
        <time>2020-09-26T09:54:26.000Z</time>
      </trkpt>
      <trkpt lat="47.2715" lon="-1.67142">
        <ele>99</ele>
        <time>2020-09-26T09:54:29.000Z</time>
      </trkpt>
      <trkpt lat="47.27163" lon="-1.67148">
        <ele>99</ele>
        <time>2020-09-26T09:54:32.000Z</time>
      </trkpt>
      <trkpt lat="47.27174" lon="-1.67153">
        <ele>99</ele>
        <time>2020-09-26T09:54:35.000Z</time>
      </trkpt>
      <trkpt lat="47.27185" lon="-1.67157">
        <ele>99</ele>
        <time>2020-09-26T09:54:38.000Z</time>
      </trkpt>
      <trkpt lat="47.27199" lon="-1.67162">
        <ele>99</ele>
        <time>2020-09-26T09:54:41.000Z</time>
      </trkpt>
      <trkpt lat="47.27211" lon="-1.67168">
        <ele>100</ele>
        <time>2020-09-26T09:54:44.000Z</time>
      </trkpt>
      <trkpt lat="47.27224" lon="-1.67173">
        <ele>100</ele>
        <time>2020-09-26T09:54:47.000Z</time>
      </trkpt>
      <trkpt lat="47.27233" lon="-1.67177">
        <ele>101</ele>
        <time>2020-09-26T09:54:49.000Z</time>
      </trkpt>
      <trkpt lat="47.27242" lon="-1.6718">
        <ele>101</ele>
        <time>2020-09-26T09:54:51.000Z</time>
      </trkpt>
      <trkpt lat="47.27251" lon="-1.67184">
        <ele>101</ele>
        <time>2020-09-26T09:54:53.000Z</time>
      </trkpt>
      <trkpt lat="47.27261" lon="-1.67187">
        <ele>101</ele>
        <time>2020-09-26T09:54:55.000Z</time>
      </trkpt>
      <trkpt lat="47.27271" lon="-1.67192">
        <ele>102</ele>
        <time>2020-09-26T09:54:57.000Z</time>
      </trkpt>
      <trkpt lat="47.2728" lon="-1.67197">
        <ele>102</ele>
        <time>2020-09-26T09:54:59.000Z</time>
      </trkpt>
      <trkpt lat="47.2729" lon="-1.67201">
        <ele>103</ele>
        <time>2020-09-26T09:55:01.000Z</time>
      </trkpt>
      <trkpt lat="47.27299" lon="-1.67205">
        <ele>104</ele>
        <time>2020-09-26T09:55:03.000Z</time>
      </trkpt>
      <trkpt lat="47.27309" lon="-1.67209">
        <ele>104</ele>
        <time>2020-09-26T09:55:05.000Z</time>
      </trkpt>
      <trkpt lat="47.27318" lon="-1.67212">
        <ele>104</ele>
        <time>2020-09-26T09:55:07.000Z</time>
      </trkpt>
      <trkpt lat="47.27328" lon="-1.67214">
        <ele>105</ele>
        <time>2020-09-26T09:55:09.000Z</time>
      </trkpt>
      <trkpt lat="47.27338" lon="-1.67214">
        <ele>105</ele>
        <time>2020-09-26T09:55:11.000Z</time>
      </trkpt>
      <trkpt lat="47.27347" lon="-1.67214">
        <ele>105</ele>
        <time>2020-09-26T09:55:13.000Z</time>
      </trkpt>
      <trkpt lat="47.27357" lon="-1.67213">
        <ele>105</ele>
        <time>2020-09-26T09:55:15.000Z</time>
      </trkpt>
      <trkpt lat="47.27367" lon="-1.6721">
        <ele>105</ele>
        <time>2020-09-26T09:55:17.000Z</time>
      </trkpt>
      <trkpt lat="47.27376" lon="-1.67206">
        <ele>105</ele>
        <time>2020-09-26T09:55:19.000Z</time>
      </trkpt>
      <trkpt lat="47.27385" lon="-1.672">
        <ele>105</ele>
        <time>2020-09-26T09:55:21.000Z</time>
      </trkpt>
      <trkpt lat="47.27394" lon="-1.67193">
        <ele>105</ele>
        <time>2020-09-26T09:55:23.000Z</time>
      </trkpt>
      <trkpt lat="47.27403" lon="-1.67185">
        <ele>105</ele>
        <time>2020-09-26T09:55:25.000Z</time>
      </trkpt>
      <trkpt lat="47.27413" lon="-1.67177">
        <ele>105</ele>
        <time>2020-09-26T09:55:27.000Z</time>
      </trkpt>
      <trkpt lat="47.27422" lon="-1.67168">
        <ele>106</ele>
        <time>2020-09-26T09:55:29.000Z</time>
      </trkpt>
      <trkpt lat="47.27431" lon="-1.6716">
        <ele>106</ele>
        <time>2020-09-26T09:55:31.000Z</time>
      </trkpt>
      <trkpt lat="47.2744" lon="-1.67151">
        <ele>106</ele>
        <time>2020-09-26T09:55:33.000Z</time>
      </trkpt>
      <trkpt lat="47.27449" lon="-1.67143">
        <ele>106</ele>
        <time>2020-09-26T09:55:35.000Z</time>
      </trkpt>
      <trkpt lat="47.27458" lon="-1.67133">
        <ele>106</ele>
        <time>2020-09-26T09:55:37.000Z</time>
      </trkpt>
      <trkpt lat="47.27466" lon="-1.67126">
        <ele>106</ele>
        <time>2020-09-26T09:55:39.000Z</time>
      </trkpt>
      <trkpt lat="47.27476" lon="-1.67117">
        <ele>106</ele>
        <time>2020-09-26T09:55:41.000Z</time>
      </trkpt>
      <trkpt lat="47.27485" lon="-1.67107">
        <ele>107</ele>
        <time>2020-09-26T09:55:43.000Z</time>
      </trkpt>
      <trkpt lat="47.27494" lon="-1.67099">
        <ele>107</ele>
        <time>2020-09-26T09:55:45.000Z</time>
      </trkpt>
      <trkpt lat="47.27503" lon="-1.6709">
        <ele>107</ele>
        <time>2020-09-26T09:55:47.000Z</time>
      </trkpt>
      <trkpt lat="47.27513" lon="-1.67082">
        <ele>108</ele>
        <time>2020-09-26T09:55:49.000Z</time>
      </trkpt>
      <trkpt lat="47.27524" lon="-1.67077">
        <ele>109</ele>
        <time>2020-09-26T09:55:51.000Z</time>
      </trkpt>
      <trkpt lat="47.27532" lon="-1.67088">
        <ele>109</ele>
        <time>2020-09-26T09:55:53.000Z</time>
      </trkpt>
      <trkpt lat="47.27536" lon="-1.67103">
        <ele>109</ele>
        <time>2020-09-26T09:55:55.000Z</time>
      </trkpt>
      <trkpt lat="47.27539" lon="-1.67118">
        <ele>110</ele>
        <time>2020-09-26T09:55:57.000Z</time>
      </trkpt>
      <trkpt lat="47.27542" lon="-1.67133">
        <ele>111</ele>
        <time>2020-09-26T09:55:59.000Z</time>
      </trkpt>
      <trkpt lat="47.27544" lon="-1.67147">
        <ele>112</ele>
        <time>2020-09-26T09:56:01.000Z</time>
      </trkpt>
      <trkpt lat="47.27547" lon="-1.67163">
        <ele>112</ele>
        <time>2020-09-26T09:56:03.000Z</time>
      </trkpt>
      <trkpt lat="47.2755" lon="-1.67178">
        <ele>112</ele>
        <time>2020-09-26T09:56:05.000Z</time>
      </trkpt>
      <trkpt lat="47.27553" lon="-1.67193">
        <ele>112</ele>
        <time>2020-09-26T09:56:07.000Z</time>
      </trkpt>
      <trkpt lat="47.27556" lon="-1.67208">
        <ele>113</ele>
        <time>2020-09-26T09:56:09.000Z</time>
      </trkpt>
      <trkpt lat="47.27559" lon="-1.67223">
        <ele>113</ele>
        <time>2020-09-26T09:56:11.000Z</time>
      </trkpt>
      <trkpt lat="47.27561" lon="-1.67238">
        <ele>113</ele>
        <time>2020-09-26T09:56:13.000Z</time>
      </trkpt>
      <trkpt lat="47.27565" lon="-1.67254">
        <ele>112</ele>
        <time>2020-09-26T09:56:15.000Z</time>
      </trkpt>
      <trkpt lat="47.27569" lon="-1.6727">
        <ele>113</ele>
        <time>2020-09-26T09:56:17.000Z</time>
      </trkpt>
      <trkpt lat="47.27575" lon="-1.67286">
        <ele>114</ele>
        <time>2020-09-26T09:56:19.000Z</time>
      </trkpt>
      <trkpt lat="47.27582" lon="-1.67299">
        <ele>114</ele>
        <time>2020-09-26T09:56:21.000Z</time>
      </trkpt>
      <trkpt lat="47.2759" lon="-1.67311">
        <ele>114</ele>
        <time>2020-09-26T09:56:23.000Z</time>
      </trkpt>
      <trkpt lat="47.27598" lon="-1.67323">
        <ele>114</ele>
        <time>2020-09-26T09:56:25.000Z</time>
      </trkpt>
      <trkpt lat="47.27607" lon="-1.67335">
        <ele>115</ele>
        <time>2020-09-26T09:56:27.000Z</time>
      </trkpt>
      <trkpt lat="47.27615" lon="-1.67347">
        <ele>115</ele>
        <time>2020-09-26T09:56:29.000Z</time>
      </trkpt>
      <trkpt lat="47.27625" lon="-1.67359">
        <ele>115</ele>
        <time>2020-09-26T09:56:31.000Z</time>
      </trkpt>
      <trkpt lat="47.27634" lon="-1.67372">
        <ele>114</ele>
        <time>2020-09-26T09:56:33.000Z</time>
      </trkpt>
      <trkpt lat="47.27644" lon="-1.67382">
        <ele>114</ele>
        <time>2020-09-26T09:56:35.000Z</time>
      </trkpt>
      <trkpt lat="47.27655" lon="-1.67391">
        <ele>113</ele>
        <time>2020-09-26T09:56:37.000Z</time>
      </trkpt>
      <trkpt lat="47.27666" lon="-1.67398">
        <ele>113</ele>
        <time>2020-09-26T09:56:39.000Z</time>
      </trkpt>
      <trkpt lat="47.27679" lon="-1.67403">
        <ele>113</ele>
        <time>2020-09-26T09:56:41.000Z</time>
      </trkpt>
      <trkpt lat="47.27692" lon="-1.67407">
        <ele>112</ele>
        <time>2020-09-26T09:56:43.000Z</time>
      </trkpt>
      <trkpt lat="47.27706" lon="-1.67411">
        <ele>112</ele>
        <time>2020-09-26T09:56:45.000Z</time>
      </trkpt>
      <trkpt lat="47.27719" lon="-1.67416">
        <ele>112</ele>
        <time>2020-09-26T09:56:47.000Z</time>
      </trkpt>
      <trkpt lat="47.27733" lon="-1.6742">
        <ele>112</ele>
        <time>2020-09-26T09:56:49.000Z</time>
      </trkpt>
      <trkpt lat="47.27748" lon="-1.67423">
        <ele>112</ele>
        <time>2020-09-26T09:56:51.000Z</time>
      </trkpt>
      <trkpt lat="47.27763" lon="-1.67427">
        <ele>112</ele>
        <time>2020-09-26T09:56:53.000Z</time>
      </trkpt>
      <trkpt lat="47.27777" lon="-1.67429">
        <ele>112</ele>
        <time>2020-09-26T09:56:55.000Z</time>
      </trkpt>
      <trkpt lat="47.27792" lon="-1.6743">
        <ele>111</ele>
        <time>2020-09-26T09:56:57.000Z</time>
      </trkpt>
      <trkpt lat="47.27807" lon="-1.67432">
        <ele>110</ele>
        <time>2020-09-26T09:56:59.000Z</time>
      </trkpt>
      <trkpt lat="47.27823" lon="-1.6743">
        <ele>110</ele>
        <time>2020-09-26T09:57:01.000Z</time>
      </trkpt>
      <trkpt lat="47.27838" lon="-1.6743">
        <ele>109</ele>
        <time>2020-09-26T09:57:03.000Z</time>
      </trkpt>
      <trkpt lat="47.27853" lon="-1.6743">
        <ele>108</ele>
        <time>2020-09-26T09:57:05.000Z</time>
      </trkpt>
      <trkpt lat="47.27869" lon="-1.67429">
        <ele>108</ele>
        <time>2020-09-26T09:57:07.000Z</time>
      </trkpt>
      <trkpt lat="47.27884" lon="-1.6743">
        <ele>108</ele>
        <time>2020-09-26T09:57:09.000Z</time>
      </trkpt>
      <trkpt lat="47.27901" lon="-1.6743">
        <ele>107</ele>
        <time>2020-09-26T09:57:11.000Z</time>
      </trkpt>
      <trkpt lat="47.27916" lon="-1.67432">
        <ele>107</ele>
        <time>2020-09-26T09:57:13.000Z</time>
      </trkpt>
      <trkpt lat="47.27932" lon="-1.67435">
        <ele>107</ele>
        <time>2020-09-26T09:57:15.000Z</time>
      </trkpt>
      <trkpt lat="47.27947" lon="-1.6744">
        <ele>107</ele>
        <time>2020-09-26T09:57:17.000Z</time>
      </trkpt>
      <trkpt lat="47.27962" lon="-1.67445">
        <ele>106</ele>
        <time>2020-09-26T09:57:19.000Z</time>
      </trkpt>
      <trkpt lat="47.27977" lon="-1.67451">
        <ele>107</ele>
        <time>2020-09-26T09:57:21.000Z</time>
      </trkpt>
      <trkpt lat="47.2799" lon="-1.67458">
        <ele>107</ele>
        <time>2020-09-26T09:57:23.000Z</time>
      </trkpt>
      <trkpt lat="47.28004" lon="-1.67466">
        <ele>107</ele>
        <time>2020-09-26T09:57:25.000Z</time>
      </trkpt>
      <trkpt lat="47.28017" lon="-1.67474">
        <ele>107</ele>
        <time>2020-09-26T09:57:27.000Z</time>
      </trkpt>
      <trkpt lat="47.28029" lon="-1.67482">
        <ele>107</ele>
        <time>2020-09-26T09:57:29.000Z</time>
      </trkpt>
      <trkpt lat="47.28041" lon="-1.67489">
        <ele>107</ele>
        <time>2020-09-26T09:57:31.000Z</time>
      </trkpt>
      <trkpt lat="47.28052" lon="-1.67495">
        <ele>107</ele>
        <time>2020-09-26T09:57:33.000Z</time>
      </trkpt>
      <trkpt lat="47.28064" lon="-1.67501">
        <ele>108</ele>
        <time>2020-09-26T09:57:35.000Z</time>
      </trkpt>
      <trkpt lat="47.28075" lon="-1.67508">
        <ele>108</ele>
        <time>2020-09-26T09:57:37.000Z</time>
      </trkpt>
      <trkpt lat="47.28086" lon="-1.67515">
        <ele>108</ele>
        <time>2020-09-26T09:57:39.000Z</time>
      </trkpt>
      <trkpt lat="47.28098" lon="-1.67522">
        <ele>108</ele>
        <time>2020-09-26T09:57:41.000Z</time>
      </trkpt>
      <trkpt lat="47.2811" lon="-1.6753">
        <ele>108</ele>
        <time>2020-09-26T09:57:43.000Z</time>
      </trkpt>
      <trkpt lat="47.28122" lon="-1.67537">
        <ele>108</ele>
        <time>2020-09-26T09:57:45.000Z</time>
      </trkpt>
      <trkpt lat="47.28134" lon="-1.67545">
        <ele>108</ele>
        <time>2020-09-26T09:57:47.000Z</time>
      </trkpt>
      <trkpt lat="47.28146" lon="-1.67551">
        <ele>108</ele>
        <time>2020-09-26T09:57:49.000Z</time>
      </trkpt>
      <trkpt lat="47.28158" lon="-1.67558">
        <ele>108</ele>
        <time>2020-09-26T09:57:51.000Z</time>
      </trkpt>
      <trkpt lat="47.28169" lon="-1.67565">
        <ele>107</ele>
        <time>2020-09-26T09:57:53.000Z</time>
      </trkpt>
      <trkpt lat="47.28181" lon="-1.67571">
        <ele>108</ele>
        <time>2020-09-26T09:57:55.000Z</time>
      </trkpt>
      <trkpt lat="47.28193" lon="-1.67578">
        <ele>107</ele>
        <time>2020-09-26T09:57:57.000Z</time>
      </trkpt>
      <trkpt lat="47.28205" lon="-1.67584">
        <ele>107</ele>
        <time>2020-09-26T09:57:59.000Z</time>
      </trkpt>
      <trkpt lat="47.28217" lon="-1.67592">
        <ele>108</ele>
        <time>2020-09-26T09:58:01.000Z</time>
      </trkpt>
      <trkpt lat="47.28229" lon="-1.676">
        <ele>108</ele>
        <time>2020-09-26T09:58:03.000Z</time>
      </trkpt>
      <trkpt lat="47.28241" lon="-1.67606">
        <ele>108</ele>
        <time>2020-09-26T09:58:05.000Z</time>
      </trkpt>
      <trkpt lat="47.28254" lon="-1.67611">
        <ele>108</ele>
        <time>2020-09-26T09:58:07.000Z</time>
      </trkpt>
      <trkpt lat="47.28267" lon="-1.67616">
        <ele>107</ele>
        <time>2020-09-26T09:58:09.000Z</time>
      </trkpt>
      <trkpt lat="47.28282" lon="-1.67617">
        <ele>107</ele>
        <time>2020-09-26T09:58:11.000Z</time>
      </trkpt>
      <trkpt lat="47.28296" lon="-1.67617">
        <ele>107</ele>
        <time>2020-09-26T09:58:13.000Z</time>
      </trkpt>
      <trkpt lat="47.2831" lon="-1.67615">
        <ele>107</ele>
        <time>2020-09-26T09:58:15.000Z</time>
      </trkpt>
      <trkpt lat="47.28324" lon="-1.67613">
        <ele>107</ele>
        <time>2020-09-26T09:58:17.000Z</time>
      </trkpt>
      <trkpt lat="47.28337" lon="-1.6761">
        <ele>108</ele>
        <time>2020-09-26T09:58:19.000Z</time>
      </trkpt>
      <trkpt lat="47.28352" lon="-1.67607">
        <ele>108</ele>
        <time>2020-09-26T09:58:21.000Z</time>
      </trkpt>
      <trkpt lat="47.28365" lon="-1.67605">
        <ele>108</ele>
        <time>2020-09-26T09:58:23.000Z</time>
      </trkpt>
      <trkpt lat="47.2838" lon="-1.67604">
        <ele>107</ele>
        <time>2020-09-26T09:58:25.000Z</time>
      </trkpt>
      <trkpt lat="47.28393" lon="-1.67602">
        <ele>106</ele>
        <time>2020-09-26T09:58:27.000Z</time>
      </trkpt>
      <trkpt lat="47.28407" lon="-1.67601">
        <ele>106</ele>
        <time>2020-09-26T09:58:29.000Z</time>
      </trkpt>
      <trkpt lat="47.28421" lon="-1.67599">
        <ele>105</ele>
        <time>2020-09-26T09:58:31.000Z</time>
      </trkpt>
      <trkpt lat="47.28435" lon="-1.67599">
        <ele>105</ele>
        <time>2020-09-26T09:58:33.000Z</time>
      </trkpt>
      <trkpt lat="47.28449" lon="-1.67601">
        <ele>105</ele>
        <time>2020-09-26T09:58:35.000Z</time>
      </trkpt>
      <trkpt lat="47.28462" lon="-1.67605">
        <ele>105</ele>
        <time>2020-09-26T09:58:37.000Z</time>
      </trkpt>
      <trkpt lat="47.28475" lon="-1.67609">
        <ele>106</ele>
        <time>2020-09-26T09:58:39.000Z</time>
      </trkpt>
      <trkpt lat="47.28489" lon="-1.67614">
        <ele>106</ele>
        <time>2020-09-26T09:58:41.000Z</time>
      </trkpt>
      <trkpt lat="47.28502" lon="-1.6762">
        <ele>106</ele>
        <time>2020-09-26T09:58:43.000Z</time>
      </trkpt>
      <trkpt lat="47.28515" lon="-1.67623">
        <ele>107</ele>
        <time>2020-09-26T09:58:45.000Z</time>
      </trkpt>
      <trkpt lat="47.28528" lon="-1.67623">
        <ele>107</ele>
        <time>2020-09-26T09:58:47.000Z</time>
      </trkpt>
      <trkpt lat="47.28542" lon="-1.67621">
        <ele>107</ele>
        <time>2020-09-26T09:58:49.000Z</time>
      </trkpt>
      <trkpt lat="47.28555" lon="-1.67615">
        <ele>107</ele>
        <time>2020-09-26T09:58:51.000Z</time>
      </trkpt>
      <trkpt lat="47.28568" lon="-1.67608">
        <ele>106</ele>
        <time>2020-09-26T09:58:53.000Z</time>
      </trkpt>
      <trkpt lat="47.2858" lon="-1.67601">
        <ele>105</ele>
        <time>2020-09-26T09:58:55.000Z</time>
      </trkpt>
      <trkpt lat="47.28594" lon="-1.67594">
        <ele>104</ele>
        <time>2020-09-26T09:58:57.000Z</time>
      </trkpt>
      <trkpt lat="47.28607" lon="-1.67587">
        <ele>104</ele>
        <time>2020-09-26T09:58:59.000Z</time>
      </trkpt>
      <trkpt lat="47.28621" lon="-1.67581">
        <ele>103</ele>
        <time>2020-09-26T09:59:01.000Z</time>
      </trkpt>
      <trkpt lat="47.28636" lon="-1.67576">
        <ele>103</ele>
        <time>2020-09-26T09:59:03.000Z</time>
      </trkpt>
      <trkpt lat="47.28651" lon="-1.67577">
        <ele>103</ele>
        <time>2020-09-26T09:59:05.000Z</time>
      </trkpt>
      <trkpt lat="47.28665" lon="-1.67582">
        <ele>103</ele>
        <time>2020-09-26T09:59:07.000Z</time>
      </trkpt>
      <trkpt lat="47.28678" lon="-1.6759">
        <ele>102</ele>
        <time>2020-09-26T09:59:09.000Z</time>
      </trkpt>
      <trkpt lat="47.28692" lon="-1.67599">
        <ele>102</ele>
        <time>2020-09-26T09:59:11.000Z</time>
      </trkpt>
      <trkpt lat="47.28706" lon="-1.67607">
        <ele>102</ele>
        <time>2020-09-26T09:59:13.000Z</time>
      </trkpt>
      <trkpt lat="47.28719" lon="-1.67615">
        <ele>102</ele>
        <time>2020-09-26T09:59:15.000Z</time>
      </trkpt>
      <trkpt lat="47.28731" lon="-1.67623">
        <ele>102</ele>
        <time>2020-09-26T09:59:17.000Z</time>
      </trkpt>
      <trkpt lat="47.28741" lon="-1.67628">
        <ele>102</ele>
        <time>2020-09-26T09:59:19.000Z</time>
      </trkpt>
      <trkpt lat="47.28753" lon="-1.67628">
        <ele>103</ele>
        <time>2020-09-26T09:59:22.000Z</time>
      </trkpt>
      <trkpt lat="47.28758" lon="-1.67616">
        <ele>103</ele>
        <time>2020-09-26T09:59:24.000Z</time>
      </trkpt>
      <trkpt lat="47.28761" lon="-1.676">
        <ele>103</ele>
        <time>2020-09-26T09:59:26.000Z</time>
      </trkpt>
      <trkpt lat="47.28765" lon="-1.67583">
        <ele>103</ele>
        <time>2020-09-26T09:59:28.000Z</time>
      </trkpt>
      <trkpt lat="47.28769" lon="-1.67565">
        <ele>103</ele>
        <time>2020-09-26T09:59:30.000Z</time>
      </trkpt>
      <trkpt lat="47.28774" lon="-1.67547">
        <ele>103</ele>
        <time>2020-09-26T09:59:32.000Z</time>
      </trkpt>
      <trkpt lat="47.28779" lon="-1.6753">
        <ele>104</ele>
        <time>2020-09-26T09:59:34.000Z</time>
      </trkpt>
      <trkpt lat="47.28784" lon="-1.67512">
        <ele>104</ele>
        <time>2020-09-26T09:59:36.000Z</time>
      </trkpt>
      <trkpt lat="47.28788" lon="-1.67494">
        <ele>103</ele>
        <time>2020-09-26T09:59:38.000Z</time>
      </trkpt>
      <trkpt lat="47.28792" lon="-1.67477">
        <ele>104</ele>
        <time>2020-09-26T09:59:40.000Z</time>
      </trkpt>
      <trkpt lat="47.28797" lon="-1.6746">
        <ele>104</ele>
        <time>2020-09-26T09:59:42.000Z</time>
      </trkpt>
      <trkpt lat="47.28803" lon="-1.67444">
        <ele>104</ele>
        <time>2020-09-26T09:59:44.000Z</time>
      </trkpt>
      <trkpt lat="47.28808" lon="-1.67428">
        <ele>104</ele>
        <time>2020-09-26T09:59:46.000Z</time>
      </trkpt>
      <trkpt lat="47.28814" lon="-1.67411">
        <ele>104</ele>
        <time>2020-09-26T09:59:48.000Z</time>
      </trkpt>
      <trkpt lat="47.2882" lon="-1.67394">
        <ele>105</ele>
        <time>2020-09-26T09:59:50.000Z</time>
      </trkpt>
      <trkpt lat="47.28826" lon="-1.67378">
        <ele>105</ele>
        <time>2020-09-26T09:59:52.000Z</time>
      </trkpt>
      <trkpt lat="47.28833" lon="-1.67364">
        <ele>105</ele>
        <time>2020-09-26T09:59:54.000Z</time>
      </trkpt>
      <trkpt lat="47.28842" lon="-1.67351">
        <ele>106</ele>
        <time>2020-09-26T09:59:56.000Z</time>
      </trkpt>
      <trkpt lat="47.28853" lon="-1.67343">
        <ele>106</ele>
        <time>2020-09-26T09:59:58.000Z</time>
      </trkpt>
      <trkpt lat="47.28865" lon="-1.67339">
        <ele>106</ele>
        <time>2020-09-26T10:00:00.000Z</time>
      </trkpt>
      <trkpt lat="47.28877" lon="-1.67336">
        <ele>106</ele>
        <time>2020-09-26T10:00:02.000Z</time>
      </trkpt>
      <trkpt lat="47.2889" lon="-1.67335">
        <ele>106</ele>
        <time>2020-09-26T10:00:04.000Z</time>
      </trkpt>
      <trkpt lat="47.28903" lon="-1.67333">
        <ele>106</ele>
        <time>2020-09-26T10:00:06.000Z</time>
      </trkpt>
      <trkpt lat="47.28916" lon="-1.67332">
        <ele>106</ele>
        <time>2020-09-26T10:00:08.000Z</time>
      </trkpt>
      <trkpt lat="47.28928" lon="-1.67335">
        <ele>106</ele>
        <time>2020-09-26T10:00:10.000Z</time>
      </trkpt>
      <trkpt lat="47.2894" lon="-1.67339">
        <ele>106</ele>
        <time>2020-09-26T10:00:12.000Z</time>
      </trkpt>
      <trkpt lat="47.28952" lon="-1.67345">
        <ele>106</ele>
        <time>2020-09-26T10:00:14.000Z</time>
      </trkpt>
      <trkpt lat="47.28964" lon="-1.67351">
        <ele>107</ele>
        <time>2020-09-26T10:00:16.000Z</time>
      </trkpt>
      <trkpt lat="47.28977" lon="-1.67356">
        <ele>107</ele>
        <time>2020-09-26T10:00:18.000Z</time>
      </trkpt>
      <trkpt lat="47.28989" lon="-1.67359">
        <ele>107</ele>
        <time>2020-09-26T10:00:20.000Z</time>
      </trkpt>
      <trkpt lat="47.29002" lon="-1.67358">
        <ele>106</ele>
        <time>2020-09-26T10:00:22.000Z</time>
      </trkpt>
      <trkpt lat="47.29014" lon="-1.67355">
        <ele>107</ele>
        <time>2020-09-26T10:00:24.000Z</time>
      </trkpt>
      <trkpt lat="47.29027" lon="-1.6735">
        <ele>107</ele>
        <time>2020-09-26T10:00:26.000Z</time>
      </trkpt>
      <trkpt lat="47.29039" lon="-1.67346">
        <ele>107</ele>
        <time>2020-09-26T10:00:28.000Z</time>
      </trkpt>
      <trkpt lat="47.29051" lon="-1.67342">
        <ele>107</ele>
        <time>2020-09-26T10:00:30.000Z</time>
      </trkpt>
      <trkpt lat="47.29063" lon="-1.67337">
        <ele>107</ele>
        <time>2020-09-26T10:00:32.000Z</time>
      </trkpt>
      <trkpt lat="47.29075" lon="-1.67333">
        <ele>108</ele>
        <time>2020-09-26T10:00:34.000Z</time>
      </trkpt>
      <trkpt lat="47.29087" lon="-1.67329">
        <ele>108</ele>
        <time>2020-09-26T10:00:36.000Z</time>
      </trkpt>
      <trkpt lat="47.29099" lon="-1.67324">
        <ele>109</ele>
        <time>2020-09-26T10:00:38.000Z</time>
      </trkpt>
      <trkpt lat="47.29111" lon="-1.6732">
        <ele>109</ele>
        <time>2020-09-26T10:00:40.000Z</time>
      </trkpt>
      <trkpt lat="47.29124" lon="-1.67316">
        <ele>110</ele>
        <time>2020-09-26T10:00:42.000Z</time>
      </trkpt>
      <trkpt lat="47.29136" lon="-1.67314">
        <ele>111</ele>
        <time>2020-09-26T10:00:44.000Z</time>
      </trkpt>
      <trkpt lat="47.29149" lon="-1.67313">
        <ele>113</ele>
        <time>2020-09-26T10:00:46.000Z</time>
      </trkpt>
      <trkpt lat="47.29162" lon="-1.67315">
        <ele>114</ele>
        <time>2020-09-26T10:00:48.000Z</time>
      </trkpt>
      <trkpt lat="47.29175" lon="-1.67319">
        <ele>114</ele>
        <time>2020-09-26T10:00:50.000Z</time>
      </trkpt>
      <trkpt lat="47.29187" lon="-1.67322">
        <ele>114</ele>
        <time>2020-09-26T10:00:52.000Z</time>
      </trkpt>
      <trkpt lat="47.29198" lon="-1.67325">
        <ele>114</ele>
        <time>2020-09-26T10:00:54.000Z</time>
      </trkpt>
      <trkpt lat="47.29209" lon="-1.67327">
        <ele>115</ele>
        <time>2020-09-26T10:00:56.000Z</time>
      </trkpt>
      <trkpt lat="47.29219" lon="-1.67328">
        <ele>115</ele>
        <time>2020-09-26T10:00:58.000Z</time>
      </trkpt>
      <trkpt lat="47.2923" lon="-1.67328">
        <ele>115</ele>
        <time>2020-09-26T10:01:00.000Z</time>
      </trkpt>
      <trkpt lat="47.29242" lon="-1.67328">
        <ele>115</ele>
        <time>2020-09-26T10:01:02.000Z</time>
      </trkpt>
      <trkpt lat="47.29254" lon="-1.67327">
        <ele>115</ele>
        <time>2020-09-26T10:01:04.000Z</time>
      </trkpt>
      <trkpt lat="47.29265" lon="-1.67324">
        <ele>115</ele>
        <time>2020-09-26T10:01:06.000Z</time>
      </trkpt>
      <trkpt lat="47.29276" lon="-1.67318">
        <ele>115</ele>
        <time>2020-09-26T10:01:08.000Z</time>
      </trkpt>
      <trkpt lat="47.29286" lon="-1.67307">
        <ele>115</ele>
        <time>2020-09-26T10:01:10.000Z</time>
      </trkpt>
      <trkpt lat="47.29295" lon="-1.67295">
        <ele>114</ele>
        <time>2020-09-26T10:01:12.000Z</time>
      </trkpt>
      <trkpt lat="47.29303" lon="-1.6728">
        <ele>114</ele>
        <time>2020-09-26T10:01:14.000Z</time>
      </trkpt>
      <trkpt lat="47.2931" lon="-1.67266">
        <ele>115</ele>
        <time>2020-09-26T10:01:16.000Z</time>
      </trkpt>
      <trkpt lat="47.29317" lon="-1.67251">
        <ele>114</ele>
        <time>2020-09-26T10:01:18.000Z</time>
      </trkpt>
      <trkpt lat="47.29324" lon="-1.67236">
        <ele>114</ele>
        <time>2020-09-26T10:01:20.000Z</time>
      </trkpt>
      <trkpt lat="47.29331" lon="-1.67221">
        <ele>114</ele>
        <time>2020-09-26T10:01:22.000Z</time>
      </trkpt>
      <trkpt lat="47.29338" lon="-1.67206">
        <ele>114</ele>
        <time>2020-09-26T10:01:24.000Z</time>
      </trkpt>
      <trkpt lat="47.29345" lon="-1.67192">
        <ele>113</ele>
        <time>2020-09-26T10:01:26.000Z</time>
      </trkpt>
      <trkpt lat="47.29353" lon="-1.67177">
        <ele>114</ele>
        <time>2020-09-26T10:01:28.000Z</time>
      </trkpt>
      <trkpt lat="47.29361" lon="-1.67162">
        <ele>113</ele>
        <time>2020-09-26T10:01:30.000Z</time>
      </trkpt>
      <trkpt lat="47.29368" lon="-1.67147">
        <ele>113</ele>
        <time>2020-09-26T10:01:32.000Z</time>
      </trkpt>
      <trkpt lat="47.29376" lon="-1.67132">
        <ele>113</ele>
        <time>2020-09-26T10:01:34.000Z</time>
      </trkpt>
      <trkpt lat="47.29383" lon="-1.67116">
        <ele>113</ele>
        <time>2020-09-26T10:01:36.000Z</time>
      </trkpt>
      <trkpt lat="47.2939" lon="-1.67101">
        <ele>114</ele>
        <time>2020-09-26T10:01:38.000Z</time>
      </trkpt>
      <trkpt lat="47.29398" lon="-1.67087">
        <ele>114</ele>
        <time>2020-09-26T10:01:40.000Z</time>
      </trkpt>
      <trkpt lat="47.29405" lon="-1.67072">
        <ele>114</ele>
        <time>2020-09-26T10:01:42.000Z</time>
      </trkpt>
      <trkpt lat="47.29413" lon="-1.67058">
        <ele>114</ele>
        <time>2020-09-26T10:01:44.000Z</time>
      </trkpt>
      <trkpt lat="47.2942" lon="-1.67043">
        <ele>114</ele>
        <time>2020-09-26T10:01:46.000Z</time>
      </trkpt>
      <trkpt lat="47.29427" lon="-1.67028">
        <ele>114</ele>
        <time>2020-09-26T10:01:48.000Z</time>
      </trkpt>
      <trkpt lat="47.29434" lon="-1.67013">
        <ele>114</ele>
        <time>2020-09-26T10:01:50.000Z</time>
      </trkpt>
      <trkpt lat="47.29443" lon="-1.67">
        <ele>115</ele>
        <time>2020-09-26T10:01:52.000Z</time>
      </trkpt>
      <trkpt lat="47.29452" lon="-1.66987">
        <ele>115</ele>
        <time>2020-09-26T10:01:54.000Z</time>
      </trkpt>
      <trkpt lat="47.29463" lon="-1.66978">
        <ele>116</ele>
        <time>2020-09-26T10:01:56.000Z</time>
      </trkpt>
      <trkpt lat="47.29475" lon="-1.6697">
        <ele>117</ele>
        <time>2020-09-26T10:01:58.000Z</time>
      </trkpt>
      <trkpt lat="47.29486" lon="-1.66963">
        <ele>117</ele>
        <time>2020-09-26T10:02:00.000Z</time>
      </trkpt>
      <trkpt lat="47.29499" lon="-1.66956">
        <ele>116</ele>
        <time>2020-09-26T10:02:02.000Z</time>
      </trkpt>
      <trkpt lat="47.29511" lon="-1.66949">
        <ele>116</ele>
        <time>2020-09-26T10:02:04.000Z</time>
      </trkpt>
      <trkpt lat="47.29523" lon="-1.66942">
        <ele>116</ele>
        <time>2020-09-26T10:02:06.000Z</time>
      </trkpt>
      <trkpt lat="47.29536" lon="-1.66935">
        <ele>115</ele>
        <time>2020-09-26T10:02:08.000Z</time>
      </trkpt>
      <trkpt lat="47.29549" lon="-1.66928">
        <ele>115</ele>
        <time>2020-09-26T10:02:10.000Z</time>
      </trkpt>
      <trkpt lat="47.29561" lon="-1.66921">
        <ele>115</ele>
        <time>2020-09-26T10:02:12.000Z</time>
      </trkpt>
      <trkpt lat="47.29574" lon="-1.66913">
        <ele>115</ele>
        <time>2020-09-26T10:02:14.000Z</time>
      </trkpt>
      <trkpt lat="47.29587" lon="-1.66905">
        <ele>115</ele>
        <time>2020-09-26T10:02:16.000Z</time>
      </trkpt>
      <trkpt lat="47.29601" lon="-1.66897">
        <ele>115</ele>
        <time>2020-09-26T10:02:18.000Z</time>
      </trkpt>
      <trkpt lat="47.29615" lon="-1.6689">
        <ele>114</ele>
        <time>2020-09-26T10:02:20.000Z</time>
      </trkpt>
      <trkpt lat="47.29629" lon="-1.66882">
        <ele>114</ele>
        <time>2020-09-26T10:02:22.000Z</time>
      </trkpt>
      <trkpt lat="47.29642" lon="-1.66873">
        <ele>113</ele>
        <time>2020-09-26T10:02:24.000Z</time>
      </trkpt>
      <trkpt lat="47.29655" lon="-1.66864">
        <ele>112</ele>
        <time>2020-09-26T10:02:26.000Z</time>
      </trkpt>
      <trkpt lat="47.29667" lon="-1.66851">
        <ele>112</ele>
        <time>2020-09-26T10:02:28.000Z</time>
      </trkpt>
      <trkpt lat="47.29678" lon="-1.66836">
        <ele>112</ele>
        <time>2020-09-26T10:02:30.000Z</time>
      </trkpt>
      <trkpt lat="47.29687" lon="-1.6682">
        <ele>112</ele>
        <time>2020-09-26T10:02:32.000Z</time>
      </trkpt>
      <trkpt lat="47.29696" lon="-1.66805">
        <ele>112</ele>
        <time>2020-09-26T10:02:34.000Z</time>
      </trkpt>
      <trkpt lat="47.29706" lon="-1.66789">
        <ele>111</ele>
        <time>2020-09-26T10:02:36.000Z</time>
      </trkpt>
      <trkpt lat="47.29714" lon="-1.66774">
        <ele>111</ele>
        <time>2020-09-26T10:02:38.000Z</time>
      </trkpt>
      <trkpt lat="47.29723" lon="-1.66759">
        <ele>111</ele>
        <time>2020-09-26T10:02:40.000Z</time>
      </trkpt>
      <trkpt lat="47.29732" lon="-1.66745">
        <ele>111</ele>
        <time>2020-09-26T10:02:42.000Z</time>
      </trkpt>
      <trkpt lat="47.29741" lon="-1.66729">
        <ele>112</ele>
        <time>2020-09-26T10:02:44.000Z</time>
      </trkpt>
      <trkpt lat="47.2975" lon="-1.66716">
        <ele>112</ele>
        <time>2020-09-26T10:02:46.000Z</time>
      </trkpt>
      <trkpt lat="47.2976" lon="-1.667">
        <ele>112</ele>
        <time>2020-09-26T10:02:48.000Z</time>
      </trkpt>
      <trkpt lat="47.29771" lon="-1.66687">
        <ele>112</ele>
        <time>2020-09-26T10:02:50.000Z</time>
      </trkpt>
      <trkpt lat="47.29781" lon="-1.66675">
        <ele>112</ele>
        <time>2020-09-26T10:02:52.000Z</time>
      </trkpt>
      <trkpt lat="47.29792" lon="-1.66664">
        <ele>113</ele>
        <time>2020-09-26T10:02:54.000Z</time>
      </trkpt>
      <trkpt lat="47.29802" lon="-1.66652">
        <ele>113</ele>
        <time>2020-09-26T10:02:56.000Z</time>
      </trkpt>
      <trkpt lat="47.29811" lon="-1.66642">
        <ele>114</ele>
        <time>2020-09-26T10:02:58.000Z</time>
      </trkpt>
      <trkpt lat="47.29821" lon="-1.6663">
        <ele>115</ele>
        <time>2020-09-26T10:03:00.000Z</time>
      </trkpt>
      <trkpt lat="47.29832" lon="-1.66619">
        <ele>115</ele>
        <time>2020-09-26T10:03:02.000Z</time>
      </trkpt>
      <trkpt lat="47.29842" lon="-1.66607">
        <ele>116</ele>
        <time>2020-09-26T10:03:04.000Z</time>
      </trkpt>
      <trkpt lat="47.29853" lon="-1.66596">
        <ele>115</ele>
        <time>2020-09-26T10:03:06.000Z</time>
      </trkpt>
      <trkpt lat="47.29863" lon="-1.66583">
        <ele>115</ele>
        <time>2020-09-26T10:03:08.000Z</time>
      </trkpt>
      <trkpt lat="47.29873" lon="-1.66569">
        <ele>115</ele>
        <time>2020-09-26T10:03:10.000Z</time>
      </trkpt>
      <trkpt lat="47.29881" lon="-1.66555">
        <ele>115</ele>
        <time>2020-09-26T10:03:12.000Z</time>
      </trkpt>
      <trkpt lat="47.29889" lon="-1.66542">
        <ele>115</ele>
        <time>2020-09-26T10:03:14.000Z</time>
      </trkpt>
      <trkpt lat="47.29897" lon="-1.66528">
        <ele>117</ele>
        <time>2020-09-26T10:03:16.000Z</time>
      </trkpt>
      <trkpt lat="47.29905" lon="-1.66513">
        <ele>116</ele>
        <time>2020-09-26T10:03:18.000Z</time>
      </trkpt>
      <trkpt lat="47.29915" lon="-1.66498">
        <ele>116</ele>
        <time>2020-09-26T10:03:20.000Z</time>
      </trkpt>
      <trkpt lat="47.29923" lon="-1.66486">
        <ele>115</ele>
        <time>2020-09-26T10:03:22.000Z</time>
      </trkpt>
      <trkpt lat="47.2993" lon="-1.66474">
        <ele>115</ele>
        <time>2020-09-26T10:03:24.000Z</time>
      </trkpt>
      <trkpt lat="47.29937" lon="-1.66463">
        <ele>116</ele>
        <time>2020-09-26T10:03:26.000Z</time>
      </trkpt>
      <trkpt lat="47.29943" lon="-1.66453">
        <ele>116</ele>
        <time>2020-09-26T10:03:29.000Z</time>
      </trkpt>
      <trkpt lat="47.2995" lon="-1.66443">
        <ele>115</ele>
        <time>2020-09-26T10:03:32.000Z</time>
      </trkpt>
      <trkpt lat="47.29958" lon="-1.66432">
        <ele>115</ele>
        <time>2020-09-26T10:03:34.000Z</time>
      </trkpt>
      <trkpt lat="47.29967" lon="-1.6642">
        <ele>114</ele>
        <time>2020-09-26T10:03:36.000Z</time>
      </trkpt>
      <trkpt lat="47.29976" lon="-1.66406">
        <ele>114</ele>
        <time>2020-09-26T10:03:38.000Z</time>
      </trkpt>
      <trkpt lat="47.29985" lon="-1.66392">
        <ele>113</ele>
        <time>2020-09-26T10:03:40.000Z</time>
      </trkpt>
      <trkpt lat="47.29994" lon="-1.66377">
        <ele>113</ele>
        <time>2020-09-26T10:03:42.000Z</time>
      </trkpt>
      <trkpt lat="47.30004" lon="-1.66362">
        <ele>112</ele>
        <time>2020-09-26T10:03:44.000Z</time>
      </trkpt>
      <trkpt lat="47.30013" lon="-1.66347">
        <ele>112</ele>
        <time>2020-09-26T10:03:46.000Z</time>
      </trkpt>
      <trkpt lat="47.30023" lon="-1.66332">
        <ele>112</ele>
        <time>2020-09-26T10:03:48.000Z</time>
      </trkpt>
      <trkpt lat="47.30032" lon="-1.66317">
        <ele>112</ele>
        <time>2020-09-26T10:03:50.000Z</time>
      </trkpt>
      <trkpt lat="47.30041" lon="-1.66303">
        <ele>112</ele>
        <time>2020-09-26T10:03:52.000Z</time>
      </trkpt>
      <trkpt lat="47.3005" lon="-1.66288">
        <ele>112</ele>
        <time>2020-09-26T10:03:54.000Z</time>
      </trkpt>
      <trkpt lat="47.3006" lon="-1.66273">
        <ele>112</ele>
        <time>2020-09-26T10:03:56.000Z</time>
      </trkpt>
      <trkpt lat="47.3007" lon="-1.66258">
        <ele>112</ele>
        <time>2020-09-26T10:03:58.000Z</time>
      </trkpt>
      <trkpt lat="47.30079" lon="-1.66243">
        <ele>112</ele>
        <time>2020-09-26T10:04:00.000Z</time>
      </trkpt>
      <trkpt lat="47.30089" lon="-1.66228">
        <ele>112</ele>
        <time>2020-09-26T10:04:02.000Z</time>
      </trkpt>
      <trkpt lat="47.30099" lon="-1.66214">
        <ele>112</ele>
        <time>2020-09-26T10:04:04.000Z</time>
      </trkpt>
      <trkpt lat="47.30108" lon="-1.66201">
        <ele>112</ele>
        <time>2020-09-26T10:04:06.000Z</time>
      </trkpt>
      <trkpt lat="47.30118" lon="-1.66189">
        <ele>112</ele>
        <time>2020-09-26T10:04:08.000Z</time>
      </trkpt>
      <trkpt lat="47.30129" lon="-1.66177">
        <ele>112</ele>
        <time>2020-09-26T10:04:10.000Z</time>
      </trkpt>
      <trkpt lat="47.3014" lon="-1.66165">
        <ele>112</ele>
        <time>2020-09-26T10:04:12.000Z</time>
      </trkpt>
      <trkpt lat="47.3015" lon="-1.66154">
        <ele>113</ele>
        <time>2020-09-26T10:04:14.000Z</time>
      </trkpt>
      <trkpt lat="47.3016" lon="-1.66143">
        <ele>114</ele>
        <time>2020-09-26T10:04:16.000Z</time>
      </trkpt>
      <trkpt lat="47.30171" lon="-1.66132">
        <ele>114</ele>
        <time>2020-09-26T10:04:18.000Z</time>
      </trkpt>
      <trkpt lat="47.30181" lon="-1.66121">
        <ele>115</ele>
        <time>2020-09-26T10:04:20.000Z</time>
      </trkpt>
      <trkpt lat="47.30192" lon="-1.6611">
        <ele>115</ele>
        <time>2020-09-26T10:04:22.000Z</time>
      </trkpt>
      <trkpt lat="47.30203" lon="-1.66098">
        <ele>115</ele>
        <time>2020-09-26T10:04:24.000Z</time>
      </trkpt>
      <trkpt lat="47.30214" lon="-1.66087">
        <ele>115</ele>
        <time>2020-09-26T10:04:26.000Z</time>
      </trkpt>
      <trkpt lat="47.30224" lon="-1.66076">
        <ele>115</ele>
        <time>2020-09-26T10:04:28.000Z</time>
      </trkpt>
      <trkpt lat="47.30236" lon="-1.66065">
        <ele>115</ele>
        <time>2020-09-26T10:04:30.000Z</time>
      </trkpt>
      <trkpt lat="47.30246" lon="-1.66055">
        <ele>115</ele>
        <time>2020-09-26T10:04:32.000Z</time>
      </trkpt>
      <trkpt lat="47.30257" lon="-1.66044">
        <ele>115</ele>
        <time>2020-09-26T10:04:34.000Z</time>
      </trkpt>
      <trkpt lat="47.30267" lon="-1.66033">
        <ele>115</ele>
        <time>2020-09-26T10:04:36.000Z</time>
      </trkpt>
      <trkpt lat="47.30278" lon="-1.66022">
        <ele>115</ele>
        <time>2020-09-26T10:04:38.000Z</time>
      </trkpt>
      <trkpt lat="47.30289" lon="-1.6601">
        <ele>115</ele>
        <time>2020-09-26T10:04:40.000Z</time>
      </trkpt>
      <trkpt lat="47.303" lon="-1.65999">
        <ele>115</ele>
        <time>2020-09-26T10:04:42.000Z</time>
      </trkpt>
      <trkpt lat="47.30311" lon="-1.65987">
        <ele>115</ele>
        <time>2020-09-26T10:04:44.000Z</time>
      </trkpt>
      <trkpt lat="47.30321" lon="-1.65976">
        <ele>115</ele>
        <time>2020-09-26T10:04:46.000Z</time>
      </trkpt>
      <trkpt lat="47.30332" lon="-1.65965">
        <ele>115</ele>
        <time>2020-09-26T10:04:48.000Z</time>
      </trkpt>
      <trkpt lat="47.30342" lon="-1.65953">
        <ele>115</ele>
        <time>2020-09-26T10:04:50.000Z</time>
      </trkpt>
      <trkpt lat="47.30353" lon="-1.65942">
        <ele>115</ele>
        <time>2020-09-26T10:04:52.000Z</time>
      </trkpt>
      <trkpt lat="47.30364" lon="-1.65931">
        <ele>114</ele>
        <time>2020-09-26T10:04:54.000Z</time>
      </trkpt>
      <trkpt lat="47.30376" lon="-1.65919">
        <ele>114</ele>
        <time>2020-09-26T10:04:56.000Z</time>
      </trkpt>
      <trkpt lat="47.30387" lon="-1.65908">
        <ele>114</ele>
        <time>2020-09-26T10:04:58.000Z</time>
      </trkpt>
      <trkpt lat="47.30398" lon="-1.65897">
        <ele>115</ele>
        <time>2020-09-26T10:05:00.000Z</time>
      </trkpt>
      <trkpt lat="47.30409" lon="-1.65885">
        <ele>115</ele>
        <time>2020-09-26T10:05:02.000Z</time>
      </trkpt>
      <trkpt lat="47.3042" lon="-1.65874">
        <ele>115</ele>
        <time>2020-09-26T10:05:04.000Z</time>
      </trkpt>
      <trkpt lat="47.3043" lon="-1.65863">
        <ele>115</ele>
        <time>2020-09-26T10:05:06.000Z</time>
      </trkpt>
      <trkpt lat="47.30441" lon="-1.65852">
        <ele>115</ele>
        <time>2020-09-26T10:05:08.000Z</time>
      </trkpt>
      <trkpt lat="47.30451" lon="-1.65842">
        <ele>115</ele>
        <time>2020-09-26T10:05:10.000Z</time>
      </trkpt>
      <trkpt lat="47.30463" lon="-1.65831">
        <ele>115</ele>
        <time>2020-09-26T10:05:12.000Z</time>
      </trkpt>
      <trkpt lat="47.30474" lon="-1.65819">
        <ele>115</ele>
        <time>2020-09-26T10:05:14.000Z</time>
      </trkpt>
      <trkpt lat="47.30485" lon="-1.65808">
        <ele>115</ele>
        <time>2020-09-26T10:05:16.000Z</time>
      </trkpt>
      <trkpt lat="47.30496" lon="-1.65796">
        <ele>115</ele>
        <time>2020-09-26T10:05:18.000Z</time>
      </trkpt>
      <trkpt lat="47.30507" lon="-1.65784">
        <ele>115</ele>
        <time>2020-09-26T10:05:20.000Z</time>
      </trkpt>
      <trkpt lat="47.30517" lon="-1.65773">
        <ele>115</ele>
        <time>2020-09-26T10:05:22.000Z</time>
      </trkpt>
      <trkpt lat="47.30528" lon="-1.65761">
        <ele>115</ele>
        <time>2020-09-26T10:05:24.000Z</time>
      </trkpt>
      <trkpt lat="47.30539" lon="-1.6575">
        <ele>115</ele>
        <time>2020-09-26T10:05:26.000Z</time>
      </trkpt>
      <trkpt lat="47.3055" lon="-1.65738">
        <ele>115</ele>
        <time>2020-09-26T10:05:28.000Z</time>
      </trkpt>
      <trkpt lat="47.30561" lon="-1.65727">
        <ele>115</ele>
        <time>2020-09-26T10:05:30.000Z</time>
      </trkpt>
      <trkpt lat="47.30572" lon="-1.65716">
        <ele>115</ele>
        <time>2020-09-26T10:05:32.000Z</time>
      </trkpt>
      <trkpt lat="47.30582" lon="-1.65705">
        <ele>116</ele>
        <time>2020-09-26T10:05:34.000Z</time>
      </trkpt>
      <trkpt lat="47.30593" lon="-1.65694">
        <ele>116</ele>
        <time>2020-09-26T10:05:36.000Z</time>
      </trkpt>
      <trkpt lat="47.30604" lon="-1.65683">
        <ele>116</ele>
        <time>2020-09-26T10:05:38.000Z</time>
      </trkpt>
      <trkpt lat="47.30615" lon="-1.65671">
        <ele>116</ele>
        <time>2020-09-26T10:05:40.000Z</time>
      </trkpt>
      <trkpt lat="47.30626" lon="-1.6566">
        <ele>116</ele>
        <time>2020-09-26T10:05:42.000Z</time>
      </trkpt>
      <trkpt lat="47.30637" lon="-1.65649">
        <ele>116</ele>
        <time>2020-09-26T10:05:44.000Z</time>
      </trkpt>
      <trkpt lat="47.30647" lon="-1.65638">
        <ele>116</ele>
        <time>2020-09-26T10:05:46.000Z</time>
      </trkpt>
      <trkpt lat="47.30659" lon="-1.65627">
        <ele>116</ele>
        <time>2020-09-26T10:05:48.000Z</time>
      </trkpt>
      <trkpt lat="47.30669" lon="-1.65615">
        <ele>116</ele>
        <time>2020-09-26T10:05:50.000Z</time>
      </trkpt>
      <trkpt lat="47.3068" lon="-1.65604">
        <ele>116</ele>
        <time>2020-09-26T10:05:52.000Z</time>
      </trkpt>
      <trkpt lat="47.30691" lon="-1.65592">
        <ele>116</ele>
        <time>2020-09-26T10:05:54.000Z</time>
      </trkpt>
      <trkpt lat="47.30702" lon="-1.65579">
        <ele>116</ele>
        <time>2020-09-26T10:05:56.000Z</time>
      </trkpt>
      <trkpt lat="47.30713" lon="-1.65567">
        <ele>116</ele>
        <time>2020-09-26T10:05:58.000Z</time>
      </trkpt>
      <trkpt lat="47.30724" lon="-1.65555">
        <ele>116</ele>
        <time>2020-09-26T10:06:00.000Z</time>
      </trkpt>
      <trkpt lat="47.30734" lon="-1.65541">
        <ele>116</ele>
        <time>2020-09-26T10:06:02.000Z</time>
      </trkpt>
      <trkpt lat="47.30741" lon="-1.65526">
        <ele>116</ele>
        <time>2020-09-26T10:06:04.000Z</time>
      </trkpt>
      <trkpt lat="47.30747" lon="-1.6551">
        <ele>116</ele>
        <time>2020-09-26T10:06:06.000Z</time>
      </trkpt>
      <trkpt lat="47.30755" lon="-1.65493">
        <ele>116</ele>
        <time>2020-09-26T10:06:08.000Z</time>
      </trkpt>
      <trkpt lat="47.30764" lon="-1.65477">
        <ele>115</ele>
        <time>2020-09-26T10:06:10.000Z</time>
      </trkpt>
      <trkpt lat="47.30773" lon="-1.65462">
        <ele>115</ele>
        <time>2020-09-26T10:06:12.000Z</time>
      </trkpt>
      <trkpt lat="47.30782" lon="-1.65447">
        <ele>115</ele>
        <time>2020-09-26T10:06:14.000Z</time>
      </trkpt>
      <trkpt lat="47.3079" lon="-1.65431">
        <ele>115</ele>
        <time>2020-09-26T10:06:16.000Z</time>
      </trkpt>
      <trkpt lat="47.30799" lon="-1.65416">
        <ele>115</ele>
        <time>2020-09-26T10:06:18.000Z</time>
      </trkpt>
      <trkpt lat="47.30808" lon="-1.654">
        <ele>116</ele>
        <time>2020-09-26T10:06:20.000Z</time>
      </trkpt>
      <trkpt lat="47.30816" lon="-1.65385">
        <ele>116</ele>
        <time>2020-09-26T10:06:22.000Z</time>
      </trkpt>
      <trkpt lat="47.30825" lon="-1.65369">
        <ele>116</ele>
        <time>2020-09-26T10:06:24.000Z</time>
      </trkpt>
      <trkpt lat="47.30834" lon="-1.65353">
        <ele>116</ele>
        <time>2020-09-26T10:06:26.000Z</time>
      </trkpt>
      <trkpt lat="47.30842" lon="-1.65337">
        <ele>116</ele>
        <time>2020-09-26T10:06:28.000Z</time>
      </trkpt>
      <trkpt lat="47.30852" lon="-1.65322">
        <ele>116</ele>
        <time>2020-09-26T10:06:30.000Z</time>
      </trkpt>
      <trkpt lat="47.3086" lon="-1.65305">
        <ele>115</ele>
        <time>2020-09-26T10:06:32.000Z</time>
      </trkpt>
      <trkpt lat="47.3087" lon="-1.65288">
        <ele>115</ele>
        <time>2020-09-26T10:06:34.000Z</time>
      </trkpt>
      <trkpt lat="47.30879" lon="-1.65272">
        <ele>115</ele>
        <time>2020-09-26T10:06:36.000Z</time>
      </trkpt>
      <trkpt lat="47.30888" lon="-1.65256">
        <ele>115</ele>
        <time>2020-09-26T10:06:38.000Z</time>
      </trkpt>
      <trkpt lat="47.30898" lon="-1.6524">
        <ele>114</ele>
        <time>2020-09-26T10:06:40.000Z</time>
      </trkpt>
      <trkpt lat="47.30907" lon="-1.65224">
        <ele>114</ele>
        <time>2020-09-26T10:06:42.000Z</time>
      </trkpt>
      <trkpt lat="47.30916" lon="-1.65207">
        <ele>113</ele>
        <time>2020-09-26T10:06:44.000Z</time>
      </trkpt>
      <trkpt lat="47.30925" lon="-1.6519">
        <ele>113</ele>
        <time>2020-09-26T10:06:46.000Z</time>
      </trkpt>
      <trkpt lat="47.30935" lon="-1.65174">
        <ele>113</ele>
        <time>2020-09-26T10:06:48.000Z</time>
      </trkpt>
      <trkpt lat="47.30945" lon="-1.65156">
        <ele>113</ele>
        <time>2020-09-26T10:06:50.000Z</time>
      </trkpt>
      <trkpt lat="47.30955" lon="-1.65139">
        <ele>113</ele>
        <time>2020-09-26T10:06:52.000Z</time>
      </trkpt>
      <trkpt lat="47.30965" lon="-1.65122">
        <ele>112</ele>
        <time>2020-09-26T10:06:54.000Z</time>
      </trkpt>
      <trkpt lat="47.30974" lon="-1.65105">
        <ele>113</ele>
        <time>2020-09-26T10:06:56.000Z</time>
      </trkpt>
      <trkpt lat="47.30984" lon="-1.65091">
        <ele>113</ele>
        <time>2020-09-26T10:06:58.000Z</time>
      </trkpt>
      <trkpt lat="47.30995" lon="-1.6508">
        <ele>113</ele>
        <time>2020-09-26T10:07:00.000Z</time>
      </trkpt>
      <trkpt lat="47.31008" lon="-1.65073">
        <ele>114</ele>
        <time>2020-09-26T10:07:02.000Z</time>
      </trkpt>
      <trkpt lat="47.3102" lon="-1.65066">
        <ele>114</ele>
        <time>2020-09-26T10:07:04.000Z</time>
      </trkpt>
      <trkpt lat="47.31033" lon="-1.65059">
        <ele>114</ele>
        <time>2020-09-26T10:07:06.000Z</time>
      </trkpt>
      <trkpt lat="47.31047" lon="-1.65052">
        <ele>114</ele>
        <time>2020-09-26T10:07:08.000Z</time>
      </trkpt>
      <trkpt lat="47.31062" lon="-1.65047">
        <ele>114</ele>
        <time>2020-09-26T10:07:10.000Z</time>
      </trkpt>
      <trkpt lat="47.31076" lon="-1.65042">
        <ele>113</ele>
        <time>2020-09-26T10:07:12.000Z</time>
      </trkpt>
      <trkpt lat="47.3109" lon="-1.65037">
        <ele>113</ele>
        <time>2020-09-26T10:07:14.000Z</time>
      </trkpt>
      <trkpt lat="47.31105" lon="-1.65033">
        <ele>113</ele>
        <time>2020-09-26T10:07:16.000Z</time>
      </trkpt>
      <trkpt lat="47.31119" lon="-1.65032">
        <ele>113</ele>
        <time>2020-09-26T10:07:18.000Z</time>
      </trkpt>
      <trkpt lat="47.31132" lon="-1.65035">
        <ele>113</ele>
        <time>2020-09-26T10:07:20.000Z</time>
      </trkpt>
      <trkpt lat="47.31145" lon="-1.65042">
        <ele>113</ele>
        <time>2020-09-26T10:07:22.000Z</time>
      </trkpt>
      <trkpt lat="47.31158" lon="-1.65051">
        <ele>113</ele>
        <time>2020-09-26T10:07:24.000Z</time>
      </trkpt>
      <trkpt lat="47.31171" lon="-1.65057">
        <ele>113</ele>
        <time>2020-09-26T10:07:26.000Z</time>
      </trkpt>
      <trkpt lat="47.31183" lon="-1.65058">
        <ele>112</ele>
        <time>2020-09-26T10:07:28.000Z</time>
      </trkpt>
      <trkpt lat="47.31194" lon="-1.65056">
        <ele>113</ele>
        <time>2020-09-26T10:07:30.000Z</time>
      </trkpt>
      <trkpt lat="47.31205" lon="-1.65052">
        <ele>113</ele>
        <time>2020-09-26T10:07:32.000Z</time>
      </trkpt>
      <trkpt lat="47.31215" lon="-1.65048">
        <ele>114</ele>
        <time>2020-09-26T10:07:34.000Z</time>
      </trkpt>
      <trkpt lat="47.31225" lon="-1.65041">
        <ele>114</ele>
        <time>2020-09-26T10:07:36.000Z</time>
      </trkpt>
      <trkpt lat="47.31235" lon="-1.65035">
        <ele>115</ele>
        <time>2020-09-26T10:07:38.000Z</time>
      </trkpt>
      <trkpt lat="47.31244" lon="-1.65029">
        <ele>115</ele>
        <time>2020-09-26T10:07:40.000Z</time>
      </trkpt>
      <trkpt lat="47.31254" lon="-1.65024">
        <ele>116</ele>
        <time>2020-09-26T10:07:42.000Z</time>
      </trkpt>
      <trkpt lat="47.31263" lon="-1.65018">
        <ele>116</ele>
        <time>2020-09-26T10:07:44.000Z</time>
      </trkpt>
      <trkpt lat="47.31273" lon="-1.65013">
        <ele>117</ele>
        <time>2020-09-26T10:07:46.000Z</time>
      </trkpt>
      <trkpt lat="47.31283" lon="-1.65007">
        <ele>117</ele>
        <time>2020-09-26T10:07:48.000Z</time>
      </trkpt>
      <trkpt lat="47.31294" lon="-1.65001">
        <ele>117</ele>
        <time>2020-09-26T10:07:50.000Z</time>
      </trkpt>
      <trkpt lat="47.31304" lon="-1.64995">
        <ele>117</ele>
        <time>2020-09-26T10:07:52.000Z</time>
      </trkpt>
      <trkpt lat="47.31314" lon="-1.64988">
        <ele>117</ele>
        <time>2020-09-26T10:07:54.000Z</time>
      </trkpt>
      <trkpt lat="47.31325" lon="-1.64982">
        <ele>117</ele>
        <time>2020-09-26T10:07:56.000Z</time>
      </trkpt>
      <trkpt lat="47.31336" lon="-1.64975">
        <ele>117</ele>
        <time>2020-09-26T10:07:58.000Z</time>
      </trkpt>
      <trkpt lat="47.31346" lon="-1.64968">
        <ele>117</ele>
        <time>2020-09-26T10:08:00.000Z</time>
      </trkpt>
      <trkpt lat="47.31357" lon="-1.64962">
        <ele>117</ele>
        <time>2020-09-26T10:08:02.000Z</time>
      </trkpt>
      <trkpt lat="47.31367" lon="-1.64956">
        <ele>117</ele>
        <time>2020-09-26T10:08:04.000Z</time>
      </trkpt>
      <trkpt lat="47.31378" lon="-1.64949">
        <ele>117</ele>
        <time>2020-09-26T10:08:06.000Z</time>
      </trkpt>
      <trkpt lat="47.31389" lon="-1.64941">
        <ele>117</ele>
        <time>2020-09-26T10:08:08.000Z</time>
      </trkpt>
      <trkpt lat="47.314" lon="-1.64934">
        <ele>117</ele>
        <time>2020-09-26T10:08:10.000Z</time>
      </trkpt>
      <trkpt lat="47.31412" lon="-1.64927">
        <ele>118</ele>
        <time>2020-09-26T10:08:12.000Z</time>
      </trkpt>
      <trkpt lat="47.31424" lon="-1.64921">
        <ele>117</ele>
        <time>2020-09-26T10:08:14.000Z</time>
      </trkpt>
      <trkpt lat="47.31436" lon="-1.64916">
        <ele>116</ele>
        <time>2020-09-26T10:08:16.000Z</time>
      </trkpt>
      <trkpt lat="47.3145" lon="-1.64915">
        <ele>116</ele>
        <time>2020-09-26T10:08:18.000Z</time>
      </trkpt>
      <trkpt lat="47.31465" lon="-1.64914">
        <ele>116</ele>
        <time>2020-09-26T10:08:20.000Z</time>
      </trkpt>
      <trkpt lat="47.3148" lon="-1.64914">
        <ele>115</ele>
        <time>2020-09-26T10:08:22.000Z</time>
      </trkpt>
      <trkpt lat="47.31492" lon="-1.64914">
        <ele>115</ele>
        <time>2020-09-26T10:08:24.000Z</time>
      </trkpt>
      <trkpt lat="47.31502" lon="-1.64913">
        <ele>114</ele>
        <time>2020-09-26T10:08:26.000Z</time>
      </trkpt>
      <trkpt lat="47.31512" lon="-1.64914">
        <ele>114</ele>
        <time>2020-09-26T10:08:29.000Z</time>
      </trkpt>
      <trkpt lat="47.31522" lon="-1.64908">
        <ele>114</ele>
        <time>2020-09-26T10:08:33.000Z</time>
      </trkpt>
      <trkpt lat="47.31532" lon="-1.64901">
        <ele>113</ele>
        <time>2020-09-26T10:08:35.000Z</time>
      </trkpt>
      <trkpt lat="47.31543" lon="-1.64894">
        <ele>112</ele>
        <time>2020-09-26T10:08:37.000Z</time>
      </trkpt>
      <trkpt lat="47.31554" lon="-1.64886">
        <ele>111</ele>
        <time>2020-09-26T10:08:39.000Z</time>
      </trkpt>
      <trkpt lat="47.31566" lon="-1.64877">
        <ele>111</ele>
        <time>2020-09-26T10:08:41.000Z</time>
      </trkpt>
      <trkpt lat="47.31577" lon="-1.64869">
        <ele>111</ele>
        <time>2020-09-26T10:08:43.000Z</time>
      </trkpt>
      <trkpt lat="47.31589" lon="-1.6486">
        <ele>110</ele>
        <time>2020-09-26T10:08:45.000Z</time>
      </trkpt>
      <trkpt lat="47.31602" lon="-1.64851">
        <ele>110</ele>
        <time>2020-09-26T10:08:47.000Z</time>
      </trkpt>
      <trkpt lat="47.31614" lon="-1.64842">
        <ele>109</ele>
        <time>2020-09-26T10:08:49.000Z</time>
      </trkpt>
      <trkpt lat="47.31627" lon="-1.6483">
        <ele>108</ele>
        <time>2020-09-26T10:08:51.000Z</time>
      </trkpt>
      <trkpt lat="47.31639" lon="-1.64816">
        <ele>108</ele>
        <time>2020-09-26T10:08:53.000Z</time>
      </trkpt>
      <trkpt lat="47.31652" lon="-1.64802">
        <ele>106</ele>
        <time>2020-09-26T10:08:55.000Z</time>
      </trkpt>
      <trkpt lat="47.31665" lon="-1.64787">
        <ele>105</ele>
        <time>2020-09-26T10:08:57.000Z</time>
      </trkpt>
      <trkpt lat="47.31678" lon="-1.64772">
        <ele>105</ele>
        <time>2020-09-26T10:08:59.000Z</time>
      </trkpt>
      <trkpt lat="47.31691" lon="-1.64758">
        <ele>104</ele>
        <time>2020-09-26T10:09:01.000Z</time>
      </trkpt>
      <trkpt lat="47.31704" lon="-1.64746">
        <ele>103</ele>
        <time>2020-09-26T10:09:03.000Z</time>
      </trkpt>
      <trkpt lat="47.31717" lon="-1.64733">
        <ele>103</ele>
        <time>2020-09-26T10:09:05.000Z</time>
      </trkpt>
      <trkpt lat="47.3173" lon="-1.6472">
        <ele>102</ele>
        <time>2020-09-26T10:09:07.000Z</time>
      </trkpt>
      <trkpt lat="47.31744" lon="-1.64709">
        <ele>102</ele>
        <time>2020-09-26T10:09:09.000Z</time>
      </trkpt>
      <trkpt lat="47.31757" lon="-1.64698">
        <ele>102</ele>
        <time>2020-09-26T10:09:11.000Z</time>
      </trkpt>
      <trkpt lat="47.31771" lon="-1.64691">
        <ele>103</ele>
        <time>2020-09-26T10:09:13.000Z</time>
      </trkpt>
      <trkpt lat="47.31786" lon="-1.64684">
        <ele>103</ele>
        <time>2020-09-26T10:09:15.000Z</time>
      </trkpt>
      <trkpt lat="47.31802" lon="-1.64678">
        <ele>102</ele>
        <time>2020-09-26T10:09:17.000Z</time>
      </trkpt>
      <trkpt lat="47.31817" lon="-1.64672">
        <ele>102</ele>
        <time>2020-09-26T10:09:19.000Z</time>
      </trkpt>
      <trkpt lat="47.31832" lon="-1.64667">
        <ele>101</ele>
        <time>2020-09-26T10:09:21.000Z</time>
      </trkpt>
      <trkpt lat="47.31847" lon="-1.64662">
        <ele>101</ele>
        <time>2020-09-26T10:09:23.000Z</time>
      </trkpt>
      <trkpt lat="47.31861" lon="-1.64657">
        <ele>101</ele>
        <time>2020-09-26T10:09:25.000Z</time>
      </trkpt>
      <trkpt lat="47.31876" lon="-1.64651">
        <ele>101</ele>
        <time>2020-09-26T10:09:27.000Z</time>
      </trkpt>
      <trkpt lat="47.3189" lon="-1.64646">
        <ele>101</ele>
        <time>2020-09-26T10:09:29.000Z</time>
      </trkpt>
      <trkpt lat="47.31904" lon="-1.64641">
        <ele>100</ele>
        <time>2020-09-26T10:09:31.000Z</time>
      </trkpt>
      <trkpt lat="47.31918" lon="-1.64636">
        <ele>100</ele>
        <time>2020-09-26T10:09:33.000Z</time>
      </trkpt>
      <trkpt lat="47.31933" lon="-1.6463">
        <ele>100</ele>
        <time>2020-09-26T10:09:35.000Z</time>
      </trkpt>
      <trkpt lat="47.31948" lon="-1.64624">
        <ele>99</ele>
        <time>2020-09-26T10:09:37.000Z</time>
      </trkpt>
      <trkpt lat="47.31962" lon="-1.64618">
        <ele>98</ele>
        <time>2020-09-26T10:09:39.000Z</time>
      </trkpt>
      <trkpt lat="47.31978" lon="-1.64612">
        <ele>98</ele>
        <time>2020-09-26T10:09:41.000Z</time>
      </trkpt>
      <trkpt lat="47.31993" lon="-1.64606">
        <ele>97</ele>
        <time>2020-09-26T10:09:43.000Z</time>
      </trkpt>
      <trkpt lat="47.32009" lon="-1.64601">
        <ele>96</ele>
        <time>2020-09-26T10:09:45.000Z</time>
      </trkpt>
      <trkpt lat="47.32024" lon="-1.64596">
        <ele>96</ele>
        <time>2020-09-26T10:09:47.000Z</time>
      </trkpt>
      <trkpt lat="47.3204" lon="-1.64591">
        <ele>95</ele>
        <time>2020-09-26T10:09:49.000Z</time>
      </trkpt>
      <trkpt lat="47.32056" lon="-1.64585">
        <ele>94</ele>
        <time>2020-09-26T10:09:51.000Z</time>
      </trkpt>
      <trkpt lat="47.32072" lon="-1.64579">
        <ele>94</ele>
        <time>2020-09-26T10:09:53.000Z</time>
      </trkpt>
      <trkpt lat="47.32088" lon="-1.64573">
        <ele>93</ele>
        <time>2020-09-26T10:09:55.000Z</time>
      </trkpt>
      <trkpt lat="47.32104" lon="-1.64567">
        <ele>91</ele>
        <time>2020-09-26T10:09:57.000Z</time>
      </trkpt>
      <trkpt lat="47.32121" lon="-1.6456">
        <ele>90</ele>
        <time>2020-09-26T10:09:59.000Z</time>
      </trkpt>
      <trkpt lat="47.32138" lon="-1.64553">
        <ele>88</ele>
        <time>2020-09-26T10:10:01.000Z</time>
      </trkpt>
      <trkpt lat="47.32147" lon="-1.64548">
        <ele>88</ele>
        <time>2020-09-26T10:10:02.000Z</time>
      </trkpt>
      <trkpt lat="47.32156" lon="-1.64543">
        <ele>87</ele>
        <time>2020-09-26T10:10:03.000Z</time>
      </trkpt>
      <trkpt lat="47.32164" lon="-1.64536">
        <ele>86</ele>
        <time>2020-09-26T10:10:04.000Z</time>
      </trkpt>
      <trkpt lat="47.32172" lon="-1.64527">
        <ele>85</ele>
        <time>2020-09-26T10:10:05.000Z</time>
      </trkpt>
      <trkpt lat="47.3218" lon="-1.64517">
        <ele>85</ele>
        <time>2020-09-26T10:10:06.000Z</time>
      </trkpt>
      <trkpt lat="47.32187" lon="-1.64506">
        <ele>85</ele>
        <time>2020-09-26T10:10:07.000Z</time>
      </trkpt>
      <trkpt lat="47.32194" lon="-1.64493">
        <ele>84</ele>
        <time>2020-09-26T10:10:08.000Z</time>
      </trkpt>
      <trkpt lat="47.322" lon="-1.64479">
        <ele>84</ele>
        <time>2020-09-26T10:10:09.000Z</time>
      </trkpt>
      <trkpt lat="47.32206" lon="-1.64467">
        <ele>84</ele>
        <time>2020-09-26T10:10:10.000Z</time>
      </trkpt>
      <trkpt lat="47.32211" lon="-1.64455">
        <ele>83</ele>
        <time>2020-09-26T10:10:11.000Z</time>
      </trkpt>
      <trkpt lat="47.32218" lon="-1.64443">
        <ele>82</ele>
        <time>2020-09-26T10:10:12.000Z</time>
      </trkpt>
      <trkpt lat="47.32224" lon="-1.64432">
        <ele>82</ele>
        <time>2020-09-26T10:10:13.000Z</time>
      </trkpt>
      <trkpt lat="47.32229" lon="-1.6442">
        <ele>81</ele>
        <time>2020-09-26T10:10:14.000Z</time>
      </trkpt>
      <trkpt lat="47.32234" lon="-1.64407">
        <ele>80</ele>
        <time>2020-09-26T10:10:15.000Z</time>
      </trkpt>
      <trkpt lat="47.32239" lon="-1.64394">
        <ele>79</ele>
        <time>2020-09-26T10:10:16.000Z</time>
      </trkpt>
      <trkpt lat="47.32243" lon="-1.6438">
        <ele>78</ele>
        <time>2020-09-26T10:10:17.000Z</time>
      </trkpt>
      <trkpt lat="47.32246" lon="-1.64365">
        <ele>76</ele>
        <time>2020-09-26T10:10:18.000Z</time>
      </trkpt>
      <trkpt lat="47.3225" lon="-1.6435">
        <ele>75</ele>
        <time>2020-09-26T10:10:19.000Z</time>
      </trkpt>
      <trkpt lat="47.32253" lon="-1.64336">
        <ele>74</ele>
        <time>2020-09-26T10:10:20.000Z</time>
      </trkpt>
      <trkpt lat="47.32257" lon="-1.64316">
        <ele>74</ele>
        <time>2020-09-26T10:10:22.000Z</time>
      </trkpt>
      <trkpt lat="47.32264" lon="-1.64304">
        <ele>74</ele>
        <time>2020-09-26T10:10:24.000Z</time>
      </trkpt>
      <trkpt lat="47.32279" lon="-1.64309">
        <ele>74</ele>
        <time>2020-09-26T10:10:26.000Z</time>
      </trkpt>
      <trkpt lat="47.32293" lon="-1.64317">
        <ele>73</ele>
        <time>2020-09-26T10:10:28.000Z</time>
      </trkpt>
      <trkpt lat="47.32307" lon="-1.64325">
        <ele>73</ele>
        <time>2020-09-26T10:10:30.000Z</time>
      </trkpt>
      <trkpt lat="47.32321" lon="-1.64333">
        <ele>72</ele>
        <time>2020-09-26T10:10:32.000Z</time>
      </trkpt>
      <trkpt lat="47.32337" lon="-1.64339">
        <ele>71</ele>
        <time>2020-09-26T10:10:34.000Z</time>
      </trkpt>
      <trkpt lat="47.32352" lon="-1.64343">
        <ele>71</ele>
        <time>2020-09-26T10:10:36.000Z</time>
      </trkpt>
      <trkpt lat="47.32368" lon="-1.64345">
        <ele>70</ele>
        <time>2020-09-26T10:10:38.000Z</time>
      </trkpt>
      <trkpt lat="47.32383" lon="-1.64348">
        <ele>70</ele>
        <time>2020-09-26T10:10:40.000Z</time>
      </trkpt>
      <trkpt lat="47.32398" lon="-1.64351">
        <ele>70</ele>
        <time>2020-09-26T10:10:42.000Z</time>
      </trkpt>
      <trkpt lat="47.32412" lon="-1.64353">
        <ele>70</ele>
        <time>2020-09-26T10:10:44.000Z</time>
      </trkpt>
      <trkpt lat="47.32427" lon="-1.64356">
        <ele>70</ele>
        <time>2020-09-26T10:10:46.000Z</time>
      </trkpt>
      <trkpt lat="47.32441" lon="-1.64358">
        <ele>69</ele>
        <time>2020-09-26T10:10:48.000Z</time>
      </trkpt>
      <trkpt lat="47.32455" lon="-1.64363">
        <ele>70</ele>
        <time>2020-09-26T10:10:50.000Z</time>
      </trkpt>
      <trkpt lat="47.32469" lon="-1.6437">
        <ele>69</ele>
        <time>2020-09-26T10:10:52.000Z</time>
      </trkpt>
      <trkpt lat="47.3248" lon="-1.64379">
        <ele>70</ele>
        <time>2020-09-26T10:10:54.000Z</time>
      </trkpt>
      <trkpt lat="47.32492" lon="-1.64387">
        <ele>69</ele>
        <time>2020-09-26T10:10:56.000Z</time>
      </trkpt>
      <trkpt lat="47.32504" lon="-1.64393">
        <ele>69</ele>
        <time>2020-09-26T10:10:58.000Z</time>
      </trkpt>
      <trkpt lat="47.32515" lon="-1.64397">
        <ele>70</ele>
        <time>2020-09-26T10:11:00.000Z</time>
      </trkpt>
      <trkpt lat="47.32527" lon="-1.64399">
        <ele>70</ele>
        <time>2020-09-26T10:11:02.000Z</time>
      </trkpt>
      <trkpt lat="47.32538" lon="-1.64399">
        <ele>70</ele>
        <time>2020-09-26T10:11:04.000Z</time>
      </trkpt>
      <trkpt lat="47.32547" lon="-1.64396">
        <ele>72</ele>
        <time>2020-09-26T10:11:06.000Z</time>
      </trkpt>
      <trkpt lat="47.32558" lon="-1.64395">
        <ele>72</ele>
        <time>2020-09-26T10:11:08.000Z</time>
      </trkpt>
      <trkpt lat="47.32567" lon="-1.64393">
        <ele>73</ele>
        <time>2020-09-26T10:11:10.000Z</time>
      </trkpt>
      <trkpt lat="47.32577" lon="-1.6439">
        <ele>73</ele>
        <time>2020-09-26T10:11:12.000Z</time>
      </trkpt>
      <trkpt lat="47.32586" lon="-1.64387">
        <ele>74</ele>
        <time>2020-09-26T10:11:14.000Z</time>
      </trkpt>
      <trkpt lat="47.32595" lon="-1.64385">
        <ele>74</ele>
        <time>2020-09-26T10:11:16.000Z</time>
      </trkpt>
      <trkpt lat="47.32604" lon="-1.64382">
        <ele>75</ele>
        <time>2020-09-26T10:11:18.000Z</time>
      </trkpt>
      <trkpt lat="47.32614" lon="-1.64379">
        <ele>75</ele>
        <time>2020-09-26T10:11:20.000Z</time>
      </trkpt>
      <trkpt lat="47.32623" lon="-1.64377">
        <ele>75</ele>
        <time>2020-09-26T10:11:22.000Z</time>
      </trkpt>
      <trkpt lat="47.32632" lon="-1.64375">
        <ele>75</ele>
        <time>2020-09-26T10:11:24.000Z</time>
      </trkpt>
      <trkpt lat="47.32641" lon="-1.64372">
        <ele>76</ele>
        <time>2020-09-26T10:11:26.000Z</time>
      </trkpt>
      <trkpt lat="47.32651" lon="-1.64368">
        <ele>77</ele>
        <time>2020-09-26T10:11:28.000Z</time>
      </trkpt>
      <trkpt lat="47.32661" lon="-1.64365">
        <ele>77</ele>
        <time>2020-09-26T10:11:30.000Z</time>
      </trkpt>
      <trkpt lat="47.3267" lon="-1.64362">
        <ele>78</ele>
        <time>2020-09-26T10:11:32.000Z</time>
      </trkpt>
      <trkpt lat="47.3268" lon="-1.6436">
        <ele>78</ele>
        <time>2020-09-26T10:11:34.000Z</time>
      </trkpt>
      <trkpt lat="47.32689" lon="-1.64357">
        <ele>79</ele>
        <time>2020-09-26T10:11:36.000Z</time>
      </trkpt>
      <trkpt lat="47.32699" lon="-1.64355">
        <ele>79</ele>
        <time>2020-09-26T10:11:38.000Z</time>
      </trkpt>
      <trkpt lat="47.32708" lon="-1.64352">
        <ele>79</ele>
        <time>2020-09-26T10:11:40.000Z</time>
      </trkpt>
      <trkpt lat="47.32721" lon="-1.64346">
        <ele>79</ele>
        <time>2020-09-26T10:11:43.000Z</time>
      </trkpt>
      <trkpt lat="47.3273" lon="-1.64344">
        <ele>80</ele>
        <time>2020-09-26T10:11:45.000Z</time>
      </trkpt>
      <trkpt lat="47.32739" lon="-1.64342">
        <ele>81</ele>
        <time>2020-09-26T10:11:47.000Z</time>
      </trkpt>
      <trkpt lat="47.32748" lon="-1.64339">
        <ele>81</ele>
        <time>2020-09-26T10:11:49.000Z</time>
      </trkpt>
      <trkpt lat="47.32758" lon="-1.64338">
        <ele>82</ele>
        <time>2020-09-26T10:11:51.000Z</time>
      </trkpt>
      <trkpt lat="47.32771" lon="-1.64337">
        <ele>82</ele>
        <time>2020-09-26T10:11:54.000Z</time>
      </trkpt>
      <trkpt lat="47.32785" lon="-1.64336">
        <ele>82</ele>
        <time>2020-09-26T10:11:57.000Z</time>
      </trkpt>
      <trkpt lat="47.32794" lon="-1.64334">
        <ele>82</ele>
        <time>2020-09-26T10:11:59.000Z</time>
      </trkpt>
      <trkpt lat="47.32803" lon="-1.64333">
        <ele>82</ele>
        <time>2020-09-26T10:12:01.000Z</time>
      </trkpt>
      <trkpt lat="47.32812" lon="-1.64331">
        <ele>83</ele>
        <time>2020-09-26T10:12:03.000Z</time>
      </trkpt>
      <trkpt lat="47.32822" lon="-1.6433">
        <ele>83</ele>
        <time>2020-09-26T10:12:05.000Z</time>
      </trkpt>
      <trkpt lat="47.3283" lon="-1.64328">
        <ele>84</ele>
        <time>2020-09-26T10:12:07.000Z</time>
      </trkpt>
      <trkpt lat="47.32843" lon="-1.64326">
        <ele>85</ele>
        <time>2020-09-26T10:12:10.000Z</time>
      </trkpt>
      <trkpt lat="47.32856" lon="-1.64323">
        <ele>85</ele>
        <time>2020-09-26T10:12:13.000Z</time>
      </trkpt>
      <trkpt lat="47.32869" lon="-1.64321">
        <ele>86</ele>
        <time>2020-09-26T10:12:16.000Z</time>
      </trkpt>
      <trkpt lat="47.32879" lon="-1.64318">
        <ele>87</ele>
        <time>2020-09-26T10:12:18.000Z</time>
      </trkpt>
      <trkpt lat="47.32888" lon="-1.64317">
        <ele>87</ele>
        <time>2020-09-26T10:12:20.000Z</time>
      </trkpt>
      <trkpt lat="47.32898" lon="-1.64315">
        <ele>89</ele>
        <time>2020-09-26T10:12:22.000Z</time>
      </trkpt>
      <trkpt lat="47.32908" lon="-1.64314">
        <ele>89</ele>
        <time>2020-09-26T10:12:24.000Z</time>
      </trkpt>
      <trkpt lat="47.32917" lon="-1.64312">
        <ele>90</ele>
        <time>2020-09-26T10:12:26.000Z</time>
      </trkpt>
      <trkpt lat="47.32927" lon="-1.64311">
        <ele>90</ele>
        <time>2020-09-26T10:12:28.000Z</time>
      </trkpt>
      <trkpt lat="47.32936" lon="-1.6431">
        <ele>90</ele>
        <time>2020-09-26T10:12:30.000Z</time>
      </trkpt>
      <trkpt lat="47.32945" lon="-1.6431">
        <ele>91</ele>
        <time>2020-09-26T10:12:32.000Z</time>
      </trkpt>
      <trkpt lat="47.32955" lon="-1.64309">
        <ele>91</ele>
        <time>2020-09-26T10:12:34.000Z</time>
      </trkpt>
      <trkpt lat="47.32968" lon="-1.64309">
        <ele>92</ele>
        <time>2020-09-26T10:12:37.000Z</time>
      </trkpt>
      <trkpt lat="47.32981" lon="-1.64309">
        <ele>93</ele>
        <time>2020-09-26T10:12:40.000Z</time>
      </trkpt>
      <trkpt lat="47.32994" lon="-1.64311">
        <ele>93</ele>
        <time>2020-09-26T10:12:43.000Z</time>
      </trkpt>
      <trkpt lat="47.33007" lon="-1.64316">
        <ele>94</ele>
        <time>2020-09-26T10:12:46.000Z</time>
      </trkpt>
      <trkpt lat="47.3302" lon="-1.6432">
        <ele>94</ele>
        <time>2020-09-26T10:12:49.000Z</time>
      </trkpt>
      <trkpt lat="47.33032" lon="-1.64323">
        <ele>94</ele>
        <time>2020-09-26T10:12:52.000Z</time>
      </trkpt>
      <trkpt lat="47.33043" lon="-1.64328">
        <ele>96</ele>
        <time>2020-09-26T10:12:55.000Z</time>
      </trkpt>
      <trkpt lat="47.33056" lon="-1.64332">
        <ele>97</ele>
        <time>2020-09-26T10:12:58.000Z</time>
      </trkpt>
      <trkpt lat="47.33067" lon="-1.64337">
        <ele>98</ele>
        <time>2020-09-26T10:13:01.000Z</time>
      </trkpt>
      <trkpt lat="47.3308" lon="-1.64341">
        <ele>99</ele>
        <time>2020-09-26T10:13:04.000Z</time>
      </trkpt>
      <trkpt lat="47.33092" lon="-1.64344">
        <ele>100</ele>
        <time>2020-09-26T10:13:07.000Z</time>
      </trkpt>
      <trkpt lat="47.33101" lon="-1.64347">
        <ele>100</ele>
        <time>2020-09-26T10:13:10.000Z</time>
      </trkpt>
      <trkpt lat="47.3311" lon="-1.64347">
        <ele>100</ele>
        <time>2020-09-26T10:13:13.000Z</time>
      </trkpt>
      <trkpt lat="47.33123" lon="-1.64346">
        <ele>101</ele>
        <time>2020-09-26T10:13:16.000Z</time>
      </trkpt>
      <trkpt lat="47.33132" lon="-1.64345">
        <ele>102</ele>
        <time>2020-09-26T10:13:18.000Z</time>
      </trkpt>
      <trkpt lat="47.33141" lon="-1.64343">
        <ele>102</ele>
        <time>2020-09-26T10:13:20.000Z</time>
      </trkpt>
      <trkpt lat="47.33154" lon="-1.64339">
        <ele>103</ele>
        <time>2020-09-26T10:13:23.000Z</time>
      </trkpt>
      <trkpt lat="47.33166" lon="-1.64335">
        <ele>104</ele>
        <time>2020-09-26T10:13:26.000Z</time>
      </trkpt>
      <trkpt lat="47.33179" lon="-1.64331">
        <ele>104</ele>
        <time>2020-09-26T10:13:29.000Z</time>
      </trkpt>
      <trkpt lat="47.33191" lon="-1.64326">
        <ele>105</ele>
        <time>2020-09-26T10:13:32.000Z</time>
      </trkpt>
      <trkpt lat="47.33204" lon="-1.64323">
        <ele>105</ele>
        <time>2020-09-26T10:13:35.000Z</time>
      </trkpt>
      <trkpt lat="47.33216" lon="-1.6432">
        <ele>107</ele>
        <time>2020-09-26T10:13:38.000Z</time>
      </trkpt>
      <trkpt lat="47.33225" lon="-1.64317">
        <ele>107</ele>
        <time>2020-09-26T10:13:40.000Z</time>
      </trkpt>
      <trkpt lat="47.33234" lon="-1.64313">
        <ele>108</ele>
        <time>2020-09-26T10:13:42.000Z</time>
      </trkpt>
      <trkpt lat="47.33247" lon="-1.64308">
        <ele>108</ele>
        <time>2020-09-26T10:13:45.000Z</time>
      </trkpt>
      <trkpt lat="47.33255" lon="-1.64303">
        <ele>108</ele>
        <time>2020-09-26T10:13:47.000Z</time>
      </trkpt>
      <trkpt lat="47.33263" lon="-1.64296">
        <ele>108</ele>
        <time>2020-09-26T10:13:49.000Z</time>
      </trkpt>
      <trkpt lat="47.33271" lon="-1.64287">
        <ele>109</ele>
        <time>2020-09-26T10:13:51.000Z</time>
      </trkpt>
      <trkpt lat="47.33279" lon="-1.64278">
        <ele>109</ele>
        <time>2020-09-26T10:13:53.000Z</time>
      </trkpt>
      <trkpt lat="47.33287" lon="-1.64269">
        <ele>109</ele>
        <time>2020-09-26T10:13:55.000Z</time>
      </trkpt>
      <trkpt lat="47.33294" lon="-1.6426">
        <ele>109</ele>
        <time>2020-09-26T10:13:57.000Z</time>
      </trkpt>
      <trkpt lat="47.33302" lon="-1.64251">
        <ele>109</ele>
        <time>2020-09-26T10:13:59.000Z</time>
      </trkpt>
      <trkpt lat="47.3331" lon="-1.64242">
        <ele>109</ele>
        <time>2020-09-26T10:14:01.000Z</time>
      </trkpt>
      <trkpt lat="47.33318" lon="-1.64232">
        <ele>109</ele>
        <time>2020-09-26T10:14:03.000Z</time>
      </trkpt>
      <trkpt lat="47.33326" lon="-1.64222">
        <ele>109</ele>
        <time>2020-09-26T10:14:05.000Z</time>
      </trkpt>
      <trkpt lat="47.33335" lon="-1.64212">
        <ele>109</ele>
        <time>2020-09-26T10:14:07.000Z</time>
      </trkpt>
      <trkpt lat="47.33344" lon="-1.64203">
        <ele>109</ele>
        <time>2020-09-26T10:14:09.000Z</time>
      </trkpt>
      <trkpt lat="47.33353" lon="-1.64193">
        <ele>109</ele>
        <time>2020-09-26T10:14:11.000Z</time>
      </trkpt>
      <trkpt lat="47.33362" lon="-1.64182">
        <ele>109</ele>
        <time>2020-09-26T10:14:13.000Z</time>
      </trkpt>
      <trkpt lat="47.3337" lon="-1.64173">
        <ele>109</ele>
        <time>2020-09-26T10:14:15.000Z</time>
      </trkpt>
      <trkpt lat="47.33379" lon="-1.64163">
        <ele>109</ele>
        <time>2020-09-26T10:14:17.000Z</time>
      </trkpt>
      <trkpt lat="47.33388" lon="-1.64153">
        <ele>109</ele>
        <time>2020-09-26T10:14:19.000Z</time>
      </trkpt>
      <trkpt lat="47.33397" lon="-1.64142">
        <ele>109</ele>
        <time>2020-09-26T10:14:21.000Z</time>
      </trkpt>
      <trkpt lat="47.33406" lon="-1.64131">
        <ele>110</ele>
        <time>2020-09-26T10:14:23.000Z</time>
      </trkpt>
      <trkpt lat="47.33415" lon="-1.6412">
        <ele>110</ele>
        <time>2020-09-26T10:14:25.000Z</time>
      </trkpt>
      <trkpt lat="47.33423" lon="-1.64109">
        <ele>110</ele>
        <time>2020-09-26T10:14:27.000Z</time>
      </trkpt>
      <trkpt lat="47.33433" lon="-1.64099">
        <ele>110</ele>
        <time>2020-09-26T10:14:29.000Z</time>
      </trkpt>
      <trkpt lat="47.33442" lon="-1.64088">
        <ele>110</ele>
        <time>2020-09-26T10:14:31.000Z</time>
      </trkpt>
      <trkpt lat="47.33451" lon="-1.64077">
        <ele>110</ele>
        <time>2020-09-26T10:14:33.000Z</time>
      </trkpt>
      <trkpt lat="47.3346" lon="-1.64066">
        <ele>110</ele>
        <time>2020-09-26T10:14:35.000Z</time>
      </trkpt>
      <trkpt lat="47.3347" lon="-1.64055">
        <ele>110</ele>
        <time>2020-09-26T10:14:37.000Z</time>
      </trkpt>
      <trkpt lat="47.33479" lon="-1.64044">
        <ele>110</ele>
        <time>2020-09-26T10:14:39.000Z</time>
      </trkpt>
      <trkpt lat="47.33488" lon="-1.64034">
        <ele>110</ele>
        <time>2020-09-26T10:14:41.000Z</time>
      </trkpt>
      <trkpt lat="47.33498" lon="-1.64023">
        <ele>110</ele>
        <time>2020-09-26T10:14:43.000Z</time>
      </trkpt>
      <trkpt lat="47.33507" lon="-1.64012">
        <ele>110</ele>
        <time>2020-09-26T10:14:45.000Z</time>
      </trkpt>
      <trkpt lat="47.33516" lon="-1.64001">
        <ele>110</ele>
        <time>2020-09-26T10:14:47.000Z</time>
      </trkpt>
      <trkpt lat="47.33526" lon="-1.6399">
        <ele>110</ele>
        <time>2020-09-26T10:14:49.000Z</time>
      </trkpt>
      <trkpt lat="47.33535" lon="-1.6398">
        <ele>110</ele>
        <time>2020-09-26T10:14:51.000Z</time>
      </trkpt>
      <trkpt lat="47.33544" lon="-1.63969">
        <ele>110</ele>
        <time>2020-09-26T10:14:53.000Z</time>
      </trkpt>
      <trkpt lat="47.33553" lon="-1.63958">
        <ele>111</ele>
        <time>2020-09-26T10:14:55.000Z</time>
      </trkpt>
      <trkpt lat="47.33562" lon="-1.63948">
        <ele>110</ele>
        <time>2020-09-26T10:14:57.000Z</time>
      </trkpt>
      <trkpt lat="47.33571" lon="-1.63938">
        <ele>111</ele>
        <time>2020-09-26T10:14:59.000Z</time>
      </trkpt>
      <trkpt lat="47.3358" lon="-1.63926">
        <ele>111</ele>
        <time>2020-09-26T10:15:01.000Z</time>
      </trkpt>
      <trkpt lat="47.3359" lon="-1.63915">
        <ele>110</ele>
        <time>2020-09-26T10:15:03.000Z</time>
      </trkpt>
      <trkpt lat="47.336" lon="-1.63904">
        <ele>110</ele>
        <time>2020-09-26T10:15:05.000Z</time>
      </trkpt>
      <trkpt lat="47.3361" lon="-1.63893">
        <ele>110</ele>
        <time>2020-09-26T10:15:07.000Z</time>
      </trkpt>
      <trkpt lat="47.33619" lon="-1.63881">
        <ele>111</ele>
        <time>2020-09-26T10:15:09.000Z</time>
      </trkpt>
      <trkpt lat="47.33629" lon="-1.63869">
        <ele>111</ele>
        <time>2020-09-26T10:15:11.000Z</time>
      </trkpt>
      <trkpt lat="47.33639" lon="-1.63858">
        <ele>111</ele>
        <time>2020-09-26T10:15:13.000Z</time>
      </trkpt>
      <trkpt lat="47.33649" lon="-1.63846">
        <ele>111</ele>
        <time>2020-09-26T10:15:15.000Z</time>
      </trkpt>
      <trkpt lat="47.33658" lon="-1.63834">
        <ele>110</ele>
        <time>2020-09-26T10:15:17.000Z</time>
      </trkpt>
      <trkpt lat="47.33668" lon="-1.63822">
        <ele>110</ele>
        <time>2020-09-26T10:15:19.000Z</time>
      </trkpt>
      <trkpt lat="47.33678" lon="-1.6381">
        <ele>110</ele>
        <time>2020-09-26T10:15:21.000Z</time>
      </trkpt>
      <trkpt lat="47.33688" lon="-1.63798">
        <ele>109</ele>
        <time>2020-09-26T10:15:23.000Z</time>
      </trkpt>
      <trkpt lat="47.33698" lon="-1.63786">
        <ele>109</ele>
        <time>2020-09-26T10:15:25.000Z</time>
      </trkpt>
      <trkpt lat="47.33708" lon="-1.63774">
        <ele>109</ele>
        <time>2020-09-26T10:15:27.000Z</time>
      </trkpt>
      <trkpt lat="47.33718" lon="-1.63763">
        <ele>109</ele>
        <time>2020-09-26T10:15:29.000Z</time>
      </trkpt>
      <trkpt lat="47.33728" lon="-1.63752">
        <ele>110</ele>
        <time>2020-09-26T10:15:31.000Z</time>
      </trkpt>
      <trkpt lat="47.33738" lon="-1.63741">
        <ele>110</ele>
        <time>2020-09-26T10:15:33.000Z</time>
      </trkpt>
      <trkpt lat="47.33747" lon="-1.63729">
        <ele>110</ele>
        <time>2020-09-26T10:15:35.000Z</time>
      </trkpt>
      <trkpt lat="47.33757" lon="-1.63717">
        <ele>109</ele>
        <time>2020-09-26T10:15:37.000Z</time>
      </trkpt>
      <trkpt lat="47.33767" lon="-1.63706">
        <ele>110</ele>
        <time>2020-09-26T10:15:39.000Z</time>
      </trkpt>
      <trkpt lat="47.33777" lon="-1.63693">
        <ele>110</ele>
        <time>2020-09-26T10:15:41.000Z</time>
      </trkpt>
      <trkpt lat="47.33786" lon="-1.63681">
        <ele>110</ele>
        <time>2020-09-26T10:15:43.000Z</time>
      </trkpt>
      <trkpt lat="47.33796" lon="-1.6367">
        <ele>111</ele>
        <time>2020-09-26T10:15:45.000Z</time>
      </trkpt>
      <trkpt lat="47.33806" lon="-1.63658">
        <ele>111</ele>
        <time>2020-09-26T10:15:47.000Z</time>
      </trkpt>
      <trkpt lat="47.33815" lon="-1.63647">
        <ele>111</ele>
        <time>2020-09-26T10:15:49.000Z</time>
      </trkpt>
      <trkpt lat="47.33825" lon="-1.63636">
        <ele>110</ele>
        <time>2020-09-26T10:15:51.000Z</time>
      </trkpt>
      <trkpt lat="47.33834" lon="-1.63626">
        <ele>110</ele>
        <time>2020-09-26T10:15:53.000Z</time>
      </trkpt>
      <trkpt lat="47.33843" lon="-1.63616">
        <ele>110</ele>
        <time>2020-09-26T10:15:55.000Z</time>
      </trkpt>
      <trkpt lat="47.33851" lon="-1.63606">
        <ele>109</ele>
        <time>2020-09-26T10:15:57.000Z</time>
      </trkpt>
      <trkpt lat="47.33859" lon="-1.63598">
        <ele>109</ele>
        <time>2020-09-26T10:15:59.000Z</time>
      </trkpt>
      <trkpt lat="47.33869" lon="-1.63587">
        <ele>109</ele>
        <time>2020-09-26T10:16:02.000Z</time>
      </trkpt>
      <trkpt lat="47.33877" lon="-1.63576">
        <ele>109</ele>
        <time>2020-09-26T10:16:04.000Z</time>
      </trkpt>
      <trkpt lat="47.33886" lon="-1.63566">
        <ele>109</ele>
        <time>2020-09-26T10:16:06.000Z</time>
      </trkpt>
      <trkpt lat="47.33895" lon="-1.63555">
        <ele>110</ele>
        <time>2020-09-26T10:16:08.000Z</time>
      </trkpt>
      <trkpt lat="47.33904" lon="-1.63545">
        <ele>109</ele>
        <time>2020-09-26T10:16:10.000Z</time>
      </trkpt>
      <trkpt lat="47.33912" lon="-1.63536">
        <ele>110</ele>
        <time>2020-09-26T10:16:12.000Z</time>
      </trkpt>
      <trkpt lat="47.33922" lon="-1.63526">
        <ele>110</ele>
        <time>2020-09-26T10:16:15.000Z</time>
      </trkpt>
      <trkpt lat="47.33932" lon="-1.6352">
        <ele>110</ele>
        <time>2020-09-26T10:17:39.000Z</time>
      </trkpt>
      <trkpt lat="47.33941" lon="-1.63513">
        <ele>111</ele>
        <time>2020-09-26T10:17:42.000Z</time>
      </trkpt>
      <trkpt lat="47.3395" lon="-1.63506">
        <ele>111</ele>
        <time>2020-09-26T10:17:44.000Z</time>
      </trkpt>
      <trkpt lat="47.33961" lon="-1.63501">
        <ele>111</ele>
        <time>2020-09-26T10:17:46.000Z</time>
      </trkpt>
      <trkpt lat="47.33973" lon="-1.63494">
        <ele>111</ele>
        <time>2020-09-26T10:17:48.000Z</time>
      </trkpt>
      <trkpt lat="47.33985" lon="-1.63486">
        <ele>111</ele>
        <time>2020-09-26T10:17:50.000Z</time>
      </trkpt>
      <trkpt lat="47.33996" lon="-1.6348">
        <ele>111</ele>
        <time>2020-09-26T10:17:52.000Z</time>
      </trkpt>
      <trkpt lat="47.34008" lon="-1.63473">
        <ele>111</ele>
        <time>2020-09-26T10:17:54.000Z</time>
      </trkpt>
      <trkpt lat="47.3402" lon="-1.63466">
        <ele>110</ele>
        <time>2020-09-26T10:17:56.000Z</time>
      </trkpt>
      <trkpt lat="47.34033" lon="-1.63459">
        <ele>110</ele>
        <time>2020-09-26T10:17:58.000Z</time>
      </trkpt>
      <trkpt lat="47.34046" lon="-1.63451">
        <ele>110</ele>
        <time>2020-09-26T10:18:00.000Z</time>
      </trkpt>
      <trkpt lat="47.34059" lon="-1.63442">
        <ele>111</ele>
        <time>2020-09-26T10:18:02.000Z</time>
      </trkpt>
      <trkpt lat="47.34073" lon="-1.63435">
        <ele>111</ele>
        <time>2020-09-26T10:18:04.000Z</time>
      </trkpt>
      <trkpt lat="47.34087" lon="-1.63427">
        <ele>111</ele>
        <time>2020-09-26T10:18:06.000Z</time>
      </trkpt>
      <trkpt lat="47.34101" lon="-1.63419">
        <ele>111</ele>
        <time>2020-09-26T10:18:08.000Z</time>
      </trkpt>
      <trkpt lat="47.34115" lon="-1.6341">
        <ele>111</ele>
        <time>2020-09-26T10:18:10.000Z</time>
      </trkpt>
      <trkpt lat="47.34129" lon="-1.63401">
        <ele>112</ele>
        <time>2020-09-26T10:18:12.000Z</time>
      </trkpt>
      <trkpt lat="47.34143" lon="-1.63392">
        <ele>112</ele>
        <time>2020-09-26T10:18:14.000Z</time>
      </trkpt>
      <trkpt lat="47.34157" lon="-1.63381">
        <ele>112</ele>
        <time>2020-09-26T10:18:16.000Z</time>
      </trkpt>
      <trkpt lat="47.3417" lon="-1.63369">
        <ele>110</ele>
        <time>2020-09-26T10:18:18.000Z</time>
      </trkpt>
      <trkpt lat="47.34183" lon="-1.63357">
        <ele>110</ele>
        <time>2020-09-26T10:18:20.000Z</time>
      </trkpt>
      <trkpt lat="47.34195" lon="-1.63344">
        <ele>110</ele>
        <time>2020-09-26T10:18:22.000Z</time>
      </trkpt>
      <trkpt lat="47.34208" lon="-1.63332">
        <ele>110</ele>
        <time>2020-09-26T10:18:24.000Z</time>
      </trkpt>
      <trkpt lat="47.3422" lon="-1.63318">
        <ele>110</ele>
        <time>2020-09-26T10:18:26.000Z</time>
      </trkpt>
      <trkpt lat="47.34231" lon="-1.63303">
        <ele>109</ele>
        <time>2020-09-26T10:18:28.000Z</time>
      </trkpt>
      <trkpt lat="47.34242" lon="-1.63285">
        <ele>108</ele>
        <time>2020-09-26T10:18:30.000Z</time>
      </trkpt>
      <trkpt lat="47.34251" lon="-1.63266">
        <ele>108</ele>
        <time>2020-09-26T10:18:32.000Z</time>
      </trkpt>
      <trkpt lat="47.34258" lon="-1.63246">
        <ele>108</ele>
        <time>2020-09-26T10:18:34.000Z</time>
      </trkpt>
      <trkpt lat="47.34266" lon="-1.63225">
        <ele>107</ele>
        <time>2020-09-26T10:18:36.000Z</time>
      </trkpt>
      <trkpt lat="47.34273" lon="-1.63204">
        <ele>107</ele>
        <time>2020-09-26T10:18:38.000Z</time>
      </trkpt>
      <trkpt lat="47.34282" lon="-1.63184">
        <ele>107</ele>
        <time>2020-09-26T10:18:40.000Z</time>
      </trkpt>
      <trkpt lat="47.34294" lon="-1.63167">
        <ele>106</ele>
        <time>2020-09-26T10:18:42.000Z</time>
      </trkpt>
      <trkpt lat="47.34306" lon="-1.63151">
        <ele>106</ele>
        <time>2020-09-26T10:18:44.000Z</time>
      </trkpt>
      <trkpt lat="47.34319" lon="-1.63135">
        <ele>106</ele>
        <time>2020-09-26T10:18:46.000Z</time>
      </trkpt>
      <trkpt lat="47.34332" lon="-1.63121">
        <ele>105</ele>
        <time>2020-09-26T10:18:48.000Z</time>
      </trkpt>
      <trkpt lat="47.34345" lon="-1.63107">
        <ele>105</ele>
        <time>2020-09-26T10:18:50.000Z</time>
      </trkpt>
      <trkpt lat="47.34358" lon="-1.63094">
        <ele>105</ele>
        <time>2020-09-26T10:18:52.000Z</time>
      </trkpt>
      <trkpt lat="47.3437" lon="-1.6308">
        <ele>104</ele>
        <time>2020-09-26T10:18:54.000Z</time>
      </trkpt>
      <trkpt lat="47.34383" lon="-1.63068">
        <ele>104</ele>
        <time>2020-09-26T10:18:56.000Z</time>
      </trkpt>
      <trkpt lat="47.34396" lon="-1.63054">
        <ele>104</ele>
        <time>2020-09-26T10:18:58.000Z</time>
      </trkpt>
      <trkpt lat="47.34409" lon="-1.63041">
        <ele>105</ele>
        <time>2020-09-26T10:19:00.000Z</time>
      </trkpt>
      <trkpt lat="47.34422" lon="-1.63028">
        <ele>105</ele>
        <time>2020-09-26T10:19:02.000Z</time>
      </trkpt>
      <trkpt lat="47.34434" lon="-1.63015">
        <ele>105</ele>
        <time>2020-09-26T10:19:04.000Z</time>
      </trkpt>
      <trkpt lat="47.34447" lon="-1.63001">
        <ele>105</ele>
        <time>2020-09-26T10:19:06.000Z</time>
      </trkpt>
      <trkpt lat="47.34459" lon="-1.62989">
        <ele>105</ele>
        <time>2020-09-26T10:19:08.000Z</time>
      </trkpt>
      <trkpt lat="47.34471" lon="-1.62976">
        <ele>105</ele>
        <time>2020-09-26T10:19:10.000Z</time>
      </trkpt>
      <trkpt lat="47.34483" lon="-1.62964">
        <ele>105</ele>
        <time>2020-09-26T10:19:12.000Z</time>
      </trkpt>
      <trkpt lat="47.34495" lon="-1.62951">
        <ele>105</ele>
        <time>2020-09-26T10:19:14.000Z</time>
      </trkpt>
      <trkpt lat="47.34507" lon="-1.62939">
        <ele>104</ele>
        <time>2020-09-26T10:19:16.000Z</time>
      </trkpt>
      <trkpt lat="47.34519" lon="-1.62927">
        <ele>104</ele>
        <time>2020-09-26T10:19:18.000Z</time>
      </trkpt>
      <trkpt lat="47.34531" lon="-1.62914">
        <ele>104</ele>
        <time>2020-09-26T10:19:20.000Z</time>
      </trkpt>
      <trkpt lat="47.34543" lon="-1.62901">
        <ele>104</ele>
        <time>2020-09-26T10:19:22.000Z</time>
      </trkpt>
      <trkpt lat="47.34555" lon="-1.62889">
        <ele>104</ele>
        <time>2020-09-26T10:19:24.000Z</time>
      </trkpt>
      <trkpt lat="47.34568" lon="-1.62876">
        <ele>104</ele>
        <time>2020-09-26T10:19:26.000Z</time>
      </trkpt>
      <trkpt lat="47.34585" lon="-1.62858">
        <ele>103</ele>
        <time>2020-09-26T10:19:29.000Z</time>
      </trkpt>
      <trkpt lat="47.34597" lon="-1.62845">
        <ele>103</ele>
        <time>2020-09-26T10:19:31.000Z</time>
      </trkpt>
      <trkpt lat="47.34609" lon="-1.62831">
        <ele>103</ele>
        <time>2020-09-26T10:19:33.000Z</time>
      </trkpt>
      <trkpt lat="47.3462" lon="-1.62817">
        <ele>104</ele>
        <time>2020-09-26T10:19:35.000Z</time>
      </trkpt>
      <trkpt lat="47.3463" lon="-1.62802">
        <ele>103</ele>
        <time>2020-09-26T10:19:37.000Z</time>
      </trkpt>
      <trkpt lat="47.34641" lon="-1.62787">
        <ele>104</ele>
        <time>2020-09-26T10:19:39.000Z</time>
      </trkpt>
      <trkpt lat="47.34652" lon="-1.62772">
        <ele>104</ele>
        <time>2020-09-26T10:19:41.000Z</time>
      </trkpt>
      <trkpt lat="47.34662" lon="-1.62756">
        <ele>103</ele>
        <time>2020-09-26T10:19:43.000Z</time>
      </trkpt>
      <trkpt lat="47.34671" lon="-1.62738">
        <ele>102</ele>
        <time>2020-09-26T10:19:45.000Z</time>
      </trkpt>
      <trkpt lat="47.34679" lon="-1.6272">
        <ele>102</ele>
        <time>2020-09-26T10:19:47.000Z</time>
      </trkpt>
      <trkpt lat="47.34687" lon="-1.62701">
        <ele>103</ele>
        <time>2020-09-26T10:19:49.000Z</time>
      </trkpt>
      <trkpt lat="47.34694" lon="-1.62683">
        <ele>103</ele>
        <time>2020-09-26T10:19:51.000Z</time>
      </trkpt>
      <trkpt lat="47.34701" lon="-1.62666">
        <ele>103</ele>
        <time>2020-09-26T10:19:53.000Z</time>
      </trkpt>
      <trkpt lat="47.34708" lon="-1.6265">
        <ele>102</ele>
        <time>2020-09-26T10:19:55.000Z</time>
      </trkpt>
      <trkpt lat="47.34717" lon="-1.62625">
        <ele>102</ele>
        <time>2020-09-26T10:19:58.000Z</time>
      </trkpt>
      <trkpt lat="47.34723" lon="-1.62611">
        <ele>102</ele>
        <time>2020-09-26T10:20:00.000Z</time>
      </trkpt>
      <trkpt lat="47.34727" lon="-1.62599">
        <ele>102</ele>
        <time>2020-09-26T10:20:02.000Z</time>
      </trkpt>
      <trkpt lat="47.34733" lon="-1.62583">
        <ele>102</ele>
        <time>2020-09-26T10:20:06.000Z</time>
      </trkpt>
      <trkpt lat="47.3474" lon="-1.62564">
        <ele>102</ele>
        <time>2020-09-26T10:20:09.000Z</time>
      </trkpt>
      <trkpt lat="47.34747" lon="-1.6255">
        <ele>101</ele>
        <time>2020-09-26T10:20:11.000Z</time>
      </trkpt>
      <trkpt lat="47.34754" lon="-1.62533">
        <ele>101</ele>
        <time>2020-09-26T10:20:13.000Z</time>
      </trkpt>
      <trkpt lat="47.34761" lon="-1.62515">
        <ele>101</ele>
        <time>2020-09-26T10:20:15.000Z</time>
      </trkpt>
      <trkpt lat="47.34769" lon="-1.62498">
        <ele>101</ele>
        <time>2020-09-26T10:20:17.000Z</time>
      </trkpt>
      <trkpt lat="47.34776" lon="-1.62481">
        <ele>102</ele>
        <time>2020-09-26T10:20:19.000Z</time>
      </trkpt>
      <trkpt lat="47.34784" lon="-1.62464">
        <ele>102</ele>
        <time>2020-09-26T10:20:21.000Z</time>
      </trkpt>
      <trkpt lat="47.34793" lon="-1.62447">
        <ele>102</ele>
        <time>2020-09-26T10:20:23.000Z</time>
      </trkpt>
      <trkpt lat="47.34802" lon="-1.62431">
        <ele>101</ele>
        <time>2020-09-26T10:20:25.000Z</time>
      </trkpt>
      <trkpt lat="47.34812" lon="-1.62417">
        <ele>102</ele>
        <time>2020-09-26T10:20:27.000Z</time>
      </trkpt>
      <trkpt lat="47.34828" lon="-1.62393">
        <ele>102</ele>
        <time>2020-09-26T10:20:30.000Z</time>
      </trkpt>
      <trkpt lat="47.34837" lon="-1.62377">
        <ele>102</ele>
        <time>2020-09-26T10:20:32.000Z</time>
      </trkpt>
      <trkpt lat="47.34848" lon="-1.62362">
        <ele>101</ele>
        <time>2020-09-26T10:20:34.000Z</time>
      </trkpt>
      <trkpt lat="47.34858" lon="-1.62347">
        <ele>101</ele>
        <time>2020-09-26T10:20:36.000Z</time>
      </trkpt>
      <trkpt lat="47.34868" lon="-1.62332">
        <ele>101</ele>
        <time>2020-09-26T10:20:38.000Z</time>
      </trkpt>
      <trkpt lat="47.34877" lon="-1.62317">
        <ele>101</ele>
        <time>2020-09-26T10:20:40.000Z</time>
      </trkpt>
      <trkpt lat="47.34887" lon="-1.62302">
        <ele>101</ele>
        <time>2020-09-26T10:20:42.000Z</time>
      </trkpt>
      <trkpt lat="47.34896" lon="-1.62287">
        <ele>101</ele>
        <time>2020-09-26T10:20:44.000Z</time>
      </trkpt>
      <trkpt lat="47.34905" lon="-1.62271">
        <ele>102</ele>
        <time>2020-09-26T10:20:46.000Z</time>
      </trkpt>
      <trkpt lat="47.3492" lon="-1.62251">
        <ele>102</ele>
        <time>2020-09-26T10:20:49.000Z</time>
      </trkpt>
      <trkpt lat="47.34938" lon="-1.62234">
        <ele>102</ele>
        <time>2020-09-26T10:20:52.000Z</time>
      </trkpt>
      <trkpt lat="47.3495" lon="-1.62226">
        <ele>102</ele>
        <time>2020-09-26T10:20:54.000Z</time>
      </trkpt>
      <trkpt lat="47.3497" lon="-1.62216">
        <ele>102</ele>
        <time>2020-09-26T10:20:57.000Z</time>
      </trkpt>
      <trkpt lat="47.34983" lon="-1.62209">
        <ele>102</ele>
        <time>2020-09-26T10:20:59.000Z</time>
      </trkpt>
      <trkpt lat="47.34997" lon="-1.62202">
        <ele>102</ele>
        <time>2020-09-26T10:21:01.000Z</time>
      </trkpt>
      <trkpt lat="47.35009" lon="-1.62191">
        <ele>101</ele>
        <time>2020-09-26T10:21:03.000Z</time>
      </trkpt>
      <trkpt lat="47.35027" lon="-1.62172">
        <ele>100</ele>
        <time>2020-09-26T10:21:06.000Z</time>
      </trkpt>
      <trkpt lat="47.35043" lon="-1.62148">
        <ele>99</ele>
        <time>2020-09-26T10:21:09.000Z</time>
      </trkpt>
      <trkpt lat="47.3506" lon="-1.62126">
        <ele>97</ele>
        <time>2020-09-26T10:21:12.000Z</time>
      </trkpt>
      <trkpt lat="47.35078" lon="-1.62103">
        <ele>96</ele>
        <time>2020-09-26T10:21:15.000Z</time>
      </trkpt>
      <trkpt lat="47.35095" lon="-1.6208">
        <ele>96</ele>
        <time>2020-09-26T10:21:18.000Z</time>
      </trkpt>
      <trkpt lat="47.35112" lon="-1.62056">
        <ele>95</ele>
        <time>2020-09-26T10:21:21.000Z</time>
      </trkpt>
      <trkpt lat="47.35124" lon="-1.62041">
        <ele>95</ele>
        <time>2020-09-26T10:21:23.000Z</time>
      </trkpt>
      <trkpt lat="47.35135" lon="-1.62026">
        <ele>95</ele>
        <time>2020-09-26T10:21:25.000Z</time>
      </trkpt>
      <trkpt lat="47.35147" lon="-1.62011">
        <ele>94</ele>
        <time>2020-09-26T10:21:27.000Z</time>
      </trkpt>
      <trkpt lat="47.35159" lon="-1.61995">
        <ele>94</ele>
        <time>2020-09-26T10:21:29.000Z</time>
      </trkpt>
      <trkpt lat="47.3517" lon="-1.6198">
        <ele>94</ele>
        <time>2020-09-26T10:21:31.000Z</time>
      </trkpt>
      <trkpt lat="47.35182" lon="-1.61965">
        <ele>93</ele>
        <time>2020-09-26T10:21:33.000Z</time>
      </trkpt>
      <trkpt lat="47.35193" lon="-1.6195">
        <ele>93</ele>
        <time>2020-09-26T10:21:35.000Z</time>
      </trkpt>
      <trkpt lat="47.35205" lon="-1.61935">
        <ele>93</ele>
        <time>2020-09-26T10:21:37.000Z</time>
      </trkpt>
      <trkpt lat="47.35222" lon="-1.61914">
        <ele>93</ele>
        <time>2020-09-26T10:21:40.000Z</time>
      </trkpt>
      <trkpt lat="47.35233" lon="-1.619">
        <ele>93</ele>
        <time>2020-09-26T10:21:42.000Z</time>
      </trkpt>
      <trkpt lat="47.35245" lon="-1.61886">
        <ele>92</ele>
        <time>2020-09-26T10:21:44.000Z</time>
      </trkpt>
      <trkpt lat="47.35256" lon="-1.61873">
        <ele>92</ele>
        <time>2020-09-26T10:21:46.000Z</time>
      </trkpt>
      <trkpt lat="47.35267" lon="-1.6186">
        <ele>92</ele>
        <time>2020-09-26T10:21:48.000Z</time>
      </trkpt>
      <trkpt lat="47.35278" lon="-1.61846">
        <ele>91</ele>
        <time>2020-09-26T10:21:50.000Z</time>
      </trkpt>
      <trkpt lat="47.3529" lon="-1.61833">
        <ele>92</ele>
        <time>2020-09-26T10:21:52.000Z</time>
      </trkpt>
      <trkpt lat="47.35301" lon="-1.6182">
        <ele>91</ele>
        <time>2020-09-26T10:21:54.000Z</time>
      </trkpt>
      <trkpt lat="47.35313" lon="-1.61807">
        <ele>91</ele>
        <time>2020-09-26T10:21:56.000Z</time>
      </trkpt>
      <trkpt lat="47.35325" lon="-1.61794">
        <ele>91</ele>
        <time>2020-09-26T10:21:58.000Z</time>
      </trkpt>
      <trkpt lat="47.35336" lon="-1.61782">
        <ele>91</ele>
        <time>2020-09-26T10:22:00.000Z</time>
      </trkpt>
      <trkpt lat="47.35348" lon="-1.61769">
        <ele>91</ele>
        <time>2020-09-26T10:22:02.000Z</time>
      </trkpt>
      <trkpt lat="47.3536" lon="-1.61757">
        <ele>91</ele>
        <time>2020-09-26T10:22:04.000Z</time>
      </trkpt>
      <trkpt lat="47.35372" lon="-1.61745">
        <ele>91</ele>
        <time>2020-09-26T10:22:06.000Z</time>
      </trkpt>
      <trkpt lat="47.35383" lon="-1.61734">
        <ele>91</ele>
        <time>2020-09-26T10:22:08.000Z</time>
      </trkpt>
      <trkpt lat="47.35396" lon="-1.61724">
        <ele>91</ele>
        <time>2020-09-26T10:22:10.000Z</time>
      </trkpt>
      <trkpt lat="47.35408" lon="-1.61713">
        <ele>91</ele>
        <time>2020-09-26T10:22:12.000Z</time>
      </trkpt>
      <trkpt lat="47.3542" lon="-1.61703">
        <ele>91</ele>
        <time>2020-09-26T10:22:14.000Z</time>
      </trkpt>
      <trkpt lat="47.35432" lon="-1.61693">
        <ele>91</ele>
        <time>2020-09-26T10:22:16.000Z</time>
      </trkpt>
      <trkpt lat="47.3545" lon="-1.61677">
        <ele>91</ele>
        <time>2020-09-26T10:22:19.000Z</time>
      </trkpt>
      <trkpt lat="47.35463" lon="-1.61667">
        <ele>91</ele>
        <time>2020-09-26T10:22:21.000Z</time>
      </trkpt>
      <trkpt lat="47.35475" lon="-1.61657">
        <ele>90</ele>
        <time>2020-09-26T10:22:23.000Z</time>
      </trkpt>
      <trkpt lat="47.35486" lon="-1.61647">
        <ele>89</ele>
        <time>2020-09-26T10:22:25.000Z</time>
      </trkpt>
      <trkpt lat="47.35496" lon="-1.61637">
        <ele>89</ele>
        <time>2020-09-26T10:22:27.000Z</time>
      </trkpt>
      <trkpt lat="47.35506" lon="-1.61629">
        <ele>90</ele>
        <time>2020-09-26T10:22:29.000Z</time>
      </trkpt>
      <trkpt lat="47.35512" lon="-1.61617">
        <ele>90</ele>
        <time>2020-09-26T10:22:31.000Z</time>
      </trkpt>
      <trkpt lat="47.35512" lon="-1.61598">
        <ele>90</ele>
        <time>2020-09-26T10:22:33.000Z</time>
      </trkpt>
      <trkpt lat="47.35509" lon="-1.6158">
        <ele>89</ele>
        <time>2020-09-26T10:22:35.000Z</time>
      </trkpt>
      <trkpt lat="47.35506" lon="-1.6156">
        <ele>89</ele>
        <time>2020-09-26T10:22:37.000Z</time>
      </trkpt>
      <trkpt lat="47.35502" lon="-1.61538">
        <ele>88</ele>
        <time>2020-09-26T10:22:39.000Z</time>
      </trkpt>
      <trkpt lat="47.35499" lon="-1.61517">
        <ele>88</ele>
        <time>2020-09-26T10:22:41.000Z</time>
      </trkpt>
      <trkpt lat="47.35495" lon="-1.61495">
        <ele>87</ele>
        <time>2020-09-26T10:22:43.000Z</time>
      </trkpt>
      <trkpt lat="47.35492" lon="-1.61472">
        <ele>87</ele>
        <time>2020-09-26T10:22:45.000Z</time>
      </trkpt>
      <trkpt lat="47.35488" lon="-1.61449">
        <ele>86</ele>
        <time>2020-09-26T10:22:47.000Z</time>
      </trkpt>
      <trkpt lat="47.35485" lon="-1.61425">
        <ele>85</ele>
        <time>2020-09-26T10:22:49.000Z</time>
      </trkpt>
      <trkpt lat="47.35481" lon="-1.61402">
        <ele>85</ele>
        <time>2020-09-26T10:22:51.000Z</time>
      </trkpt>
      <trkpt lat="47.35476" lon="-1.61378">
        <ele>85</ele>
        <time>2020-09-26T10:22:53.000Z</time>
      </trkpt>
      <trkpt lat="47.3547" lon="-1.61355">
        <ele>85</ele>
        <time>2020-09-26T10:22:55.000Z</time>
      </trkpt>
      <trkpt lat="47.35465" lon="-1.61331">
        <ele>84</ele>
        <time>2020-09-26T10:22:57.000Z</time>
      </trkpt>
      <trkpt lat="47.3546" lon="-1.61306">
        <ele>84</ele>
        <time>2020-09-26T10:22:59.000Z</time>
      </trkpt>
      <trkpt lat="47.35454" lon="-1.61283">
        <ele>84</ele>
        <time>2020-09-26T10:23:01.000Z</time>
      </trkpt>
      <trkpt lat="47.35449" lon="-1.61259">
        <ele>84</ele>
        <time>2020-09-26T10:23:03.000Z</time>
      </trkpt>
      <trkpt lat="47.35445" lon="-1.61236">
        <ele>84</ele>
        <time>2020-09-26T10:23:05.000Z</time>
      </trkpt>
      <trkpt lat="47.3544" lon="-1.61213">
        <ele>84</ele>
        <time>2020-09-26T10:23:07.000Z</time>
      </trkpt>
      <trkpt lat="47.35438" lon="-1.6119">
        <ele>83</ele>
        <time>2020-09-26T10:23:09.000Z</time>
      </trkpt>
      <trkpt lat="47.35437" lon="-1.61167">
        <ele>83</ele>
        <time>2020-09-26T10:23:11.000Z</time>
      </trkpt>
      <trkpt lat="47.35437" lon="-1.61145">
        <ele>83</ele>
        <time>2020-09-26T10:23:13.000Z</time>
      </trkpt>
      <trkpt lat="47.35437" lon="-1.61123">
        <ele>84</ele>
        <time>2020-09-26T10:23:15.000Z</time>
      </trkpt>
      <trkpt lat="47.35437" lon="-1.61101">
        <ele>85</ele>
        <time>2020-09-26T10:23:17.000Z</time>
      </trkpt>
      <trkpt lat="47.35437" lon="-1.61079">
        <ele>84</ele>
        <time>2020-09-26T10:23:19.000Z</time>
      </trkpt>
      <trkpt lat="47.35437" lon="-1.61058">
        <ele>84</ele>
        <time>2020-09-26T10:23:21.000Z</time>
      </trkpt>
      <trkpt lat="47.35438" lon="-1.61038">
        <ele>84</ele>
        <time>2020-09-26T10:23:23.000Z</time>
      </trkpt>
      <trkpt lat="47.35438" lon="-1.61015">
        <ele>84</ele>
        <time>2020-09-26T10:23:25.000Z</time>
      </trkpt>
      <trkpt lat="47.35438" lon="-1.60993">
        <ele>84</ele>
        <time>2020-09-26T10:23:27.000Z</time>
      </trkpt>
      <trkpt lat="47.35439" lon="-1.60971">
        <ele>83</ele>
        <time>2020-09-26T10:23:29.000Z</time>
      </trkpt>
      <trkpt lat="47.35439" lon="-1.6095">
        <ele>83</ele>
        <time>2020-09-26T10:23:31.000Z</time>
      </trkpt>
      <trkpt lat="47.35439" lon="-1.60929">
        <ele>84</ele>
        <time>2020-09-26T10:23:33.000Z</time>
      </trkpt>
      <trkpt lat="47.35439" lon="-1.60907">
        <ele>83</ele>
        <time>2020-09-26T10:23:35.000Z</time>
      </trkpt>
      <trkpt lat="47.35437" lon="-1.60886">
        <ele>83</ele>
        <time>2020-09-26T10:23:37.000Z</time>
      </trkpt>
      <trkpt lat="47.35434" lon="-1.60865">
        <ele>83</ele>
        <time>2020-09-26T10:23:39.000Z</time>
      </trkpt>
      <trkpt lat="47.3543" lon="-1.60846">
        <ele>83</ele>
        <time>2020-09-26T10:23:41.000Z</time>
      </trkpt>
      <trkpt lat="47.35427" lon="-1.60827">
        <ele>84</ele>
        <time>2020-09-26T10:23:43.000Z</time>
      </trkpt>
      <trkpt lat="47.35423" lon="-1.60809">
        <ele>85</ele>
        <time>2020-09-26T10:23:45.000Z</time>
      </trkpt>
      <trkpt lat="47.35419" lon="-1.60792">
        <ele>85</ele>
        <time>2020-09-26T10:23:47.000Z</time>
      </trkpt>
      <trkpt lat="47.35416" lon="-1.60773">
        <ele>86</ele>
        <time>2020-09-26T10:23:49.000Z</time>
      </trkpt>
      <trkpt lat="47.35413" lon="-1.60756">
        <ele>86</ele>
        <time>2020-09-26T10:23:51.000Z</time>
      </trkpt>
      <trkpt lat="47.35411" lon="-1.60738">
        <ele>87</ele>
        <time>2020-09-26T10:23:53.000Z</time>
      </trkpt>
      <trkpt lat="47.35409" lon="-1.60719">
        <ele>87</ele>
        <time>2020-09-26T10:23:55.000Z</time>
      </trkpt>
      <trkpt lat="47.35409" lon="-1.60699">
        <ele>87</ele>
        <time>2020-09-26T10:23:57.000Z</time>
      </trkpt>
      <trkpt lat="47.35409" lon="-1.6068">
        <ele>88</ele>
        <time>2020-09-26T10:23:59.000Z</time>
      </trkpt>
      <trkpt lat="47.35409" lon="-1.60661">
        <ele>88</ele>
        <time>2020-09-26T10:24:01.000Z</time>
      </trkpt>
      <trkpt lat="47.3541" lon="-1.60642">
        <ele>88</ele>
        <time>2020-09-26T10:24:03.000Z</time>
      </trkpt>
      <trkpt lat="47.3541" lon="-1.60622">
        <ele>88</ele>
        <time>2020-09-26T10:24:05.000Z</time>
      </trkpt>
      <trkpt lat="47.3541" lon="-1.60603">
        <ele>88</ele>
        <time>2020-09-26T10:24:07.000Z</time>
      </trkpt>
      <trkpt lat="47.35411" lon="-1.60585">
        <ele>89</ele>
        <time>2020-09-26T10:24:09.000Z</time>
      </trkpt>
      <trkpt lat="47.35412" lon="-1.60567">
        <ele>89</ele>
        <time>2020-09-26T10:24:11.000Z</time>
      </trkpt>
      <trkpt lat="47.35413" lon="-1.60551">
        <ele>88</ele>
        <time>2020-09-26T10:24:13.000Z</time>
      </trkpt>
      <trkpt lat="47.35413" lon="-1.60534">
        <ele>88</ele>
        <time>2020-09-26T10:24:15.000Z</time>
      </trkpt>
      <trkpt lat="47.35413" lon="-1.60519">
        <ele>88</ele>
        <time>2020-09-26T10:24:17.000Z</time>
      </trkpt>
      <trkpt lat="47.35415" lon="-1.60506">
        <ele>89</ele>
        <time>2020-09-26T10:24:26.000Z</time>
      </trkpt>
      <trkpt lat="47.35423" lon="-1.60495">
        <ele>89</ele>
        <time>2020-09-26T10:24:29.000Z</time>
      </trkpt>
      <trkpt lat="47.35433" lon="-1.60493">
        <ele>89</ele>
        <time>2020-09-26T10:24:31.000Z</time>
      </trkpt>
      <trkpt lat="47.35445" lon="-1.6049">
        <ele>89</ele>
        <time>2020-09-26T10:24:33.000Z</time>
      </trkpt>
      <trkpt lat="47.35457" lon="-1.60486">
        <ele>89</ele>
        <time>2020-09-26T10:24:35.000Z</time>
      </trkpt>
      <trkpt lat="47.35469" lon="-1.60483">
        <ele>89</ele>
        <time>2020-09-26T10:24:37.000Z</time>
      </trkpt>
      <trkpt lat="47.35482" lon="-1.60479">
        <ele>90</ele>
        <time>2020-09-26T10:24:39.000Z</time>
      </trkpt>
      <trkpt lat="47.35494" lon="-1.60475">
        <ele>90</ele>
        <time>2020-09-26T10:24:41.000Z</time>
      </trkpt>
      <trkpt lat="47.35507" lon="-1.60471">
        <ele>90</ele>
        <time>2020-09-26T10:24:43.000Z</time>
      </trkpt>
      <trkpt lat="47.3552" lon="-1.60467">
        <ele>89</ele>
        <time>2020-09-26T10:24:45.000Z</time>
      </trkpt>
      <trkpt lat="47.35533" lon="-1.60463">
        <ele>89</ele>
        <time>2020-09-26T10:24:47.000Z</time>
      </trkpt>
      <trkpt lat="47.35547" lon="-1.60458">
        <ele>89</ele>
        <time>2020-09-26T10:24:49.000Z</time>
      </trkpt>
      <trkpt lat="47.35561" lon="-1.60454">
        <ele>89</ele>
        <time>2020-09-26T10:24:51.000Z</time>
      </trkpt>
      <trkpt lat="47.35574" lon="-1.6045">
        <ele>88</ele>
        <time>2020-09-26T10:24:53.000Z</time>
      </trkpt>
      <trkpt lat="47.35588" lon="-1.60446">
        <ele>88</ele>
        <time>2020-09-26T10:24:55.000Z</time>
      </trkpt>
      <trkpt lat="47.35602" lon="-1.60441">
        <ele>88</ele>
        <time>2020-09-26T10:24:57.000Z</time>
      </trkpt>
      <trkpt lat="47.35616" lon="-1.60437">
        <ele>88</ele>
        <time>2020-09-26T10:24:59.000Z</time>
      </trkpt>
      <trkpt lat="47.3563" lon="-1.60433">
        <ele>87</ele>
        <time>2020-09-26T10:25:01.000Z</time>
      </trkpt>
      <trkpt lat="47.35643" lon="-1.60428">
        <ele>87</ele>
        <time>2020-09-26T10:25:03.000Z</time>
      </trkpt>
      <trkpt lat="47.35656" lon="-1.60423">
        <ele>87</ele>
        <time>2020-09-26T10:25:05.000Z</time>
      </trkpt>
      <trkpt lat="47.35669" lon="-1.60418">
        <ele>87</ele>
        <time>2020-09-26T10:25:07.000Z</time>
      </trkpt>
      <trkpt lat="47.3568" lon="-1.60411">
        <ele>88</ele>
        <time>2020-09-26T10:25:09.000Z</time>
      </trkpt>
      <trkpt lat="47.35688" lon="-1.60398">
        <ele>87</ele>
        <time>2020-09-26T10:25:11.000Z</time>
      </trkpt>
      <trkpt lat="47.35698" lon="-1.60387">
        <ele>87</ele>
        <time>2020-09-26T10:25:13.000Z</time>
      </trkpt>
      <trkpt lat="47.3571" lon="-1.60387">
        <ele>87</ele>
        <time>2020-09-26T10:25:15.000Z</time>
      </trkpt>
      <trkpt lat="47.35721" lon="-1.60395">
        <ele>88</ele>
        <time>2020-09-26T10:25:17.000Z</time>
      </trkpt>
      <trkpt lat="47.35731" lon="-1.60406">
        <ele>88</ele>
        <time>2020-09-26T10:25:19.000Z</time>
      </trkpt>
      <trkpt lat="47.35742" lon="-1.6041">
        <ele>88</ele>
        <time>2020-09-26T10:25:21.000Z</time>
      </trkpt>
      <trkpt lat="47.35755" lon="-1.6041">
        <ele>89</ele>
        <time>2020-09-26T10:25:23.000Z</time>
      </trkpt>
      <trkpt lat="47.35768" lon="-1.60411">
        <ele>89</ele>
        <time>2020-09-26T10:25:25.000Z</time>
      </trkpt>
      <trkpt lat="47.3578" lon="-1.60414">
        <ele>89</ele>
        <time>2020-09-26T10:25:27.000Z</time>
      </trkpt>
      <trkpt lat="47.35792" lon="-1.60417">
        <ele>90</ele>
        <time>2020-09-26T10:25:29.000Z</time>
      </trkpt>
      <trkpt lat="47.35804" lon="-1.60419">
        <ele>90</ele>
        <time>2020-09-26T10:25:31.000Z</time>
      </trkpt>
      <trkpt lat="47.35816" lon="-1.60421">
        <ele>90</ele>
        <time>2020-09-26T10:25:33.000Z</time>
      </trkpt>
      <trkpt lat="47.35829" lon="-1.60426">
        <ele>91</ele>
        <time>2020-09-26T10:25:35.000Z</time>
      </trkpt>
      <trkpt lat="47.35841" lon="-1.60431">
        <ele>92</ele>
        <time>2020-09-26T10:25:37.000Z</time>
      </trkpt>
      <trkpt lat="47.35853" lon="-1.60438">
        <ele>92</ele>
        <time>2020-09-26T10:25:39.000Z</time>
      </trkpt>
      <trkpt lat="47.35865" lon="-1.60444">
        <ele>92</ele>
        <time>2020-09-26T10:25:41.000Z</time>
      </trkpt>
      <trkpt lat="47.35877" lon="-1.60451">
        <ele>93</ele>
        <time>2020-09-26T10:25:43.000Z</time>
      </trkpt>
      <trkpt lat="47.35888" lon="-1.60458">
        <ele>93</ele>
        <time>2020-09-26T10:25:45.000Z</time>
      </trkpt>
      <trkpt lat="47.359" lon="-1.60465">
        <ele>93</ele>
        <time>2020-09-26T10:25:47.000Z</time>
      </trkpt>
      <trkpt lat="47.35912" lon="-1.60472">
        <ele>93</ele>
        <time>2020-09-26T10:25:49.000Z</time>
      </trkpt>
      <trkpt lat="47.35923" lon="-1.60478">
        <ele>93</ele>
        <time>2020-09-26T10:25:51.000Z</time>
      </trkpt>
      <trkpt lat="47.35936" lon="-1.60483">
        <ele>93</ele>
        <time>2020-09-26T10:25:53.000Z</time>
      </trkpt>
      <trkpt lat="47.35949" lon="-1.60487">
        <ele>94</ele>
        <time>2020-09-26T10:25:55.000Z</time>
      </trkpt>
      <trkpt lat="47.35961" lon="-1.6049">
        <ele>94</ele>
        <time>2020-09-26T10:25:57.000Z</time>
      </trkpt>
      <trkpt lat="47.35974" lon="-1.60492">
        <ele>94</ele>
        <time>2020-09-26T10:25:59.000Z</time>
      </trkpt>
      <trkpt lat="47.35986" lon="-1.60492">
        <ele>94</ele>
        <time>2020-09-26T10:26:01.000Z</time>
      </trkpt>
      <trkpt lat="47.35999" lon="-1.60488">
        <ele>94</ele>
        <time>2020-09-26T10:26:03.000Z</time>
      </trkpt>
      <trkpt lat="47.3601" lon="-1.60492">
        <ele>94</ele>
        <time>2020-09-26T10:26:05.000Z</time>
      </trkpt>
      <trkpt lat="47.36022" lon="-1.60501">
        <ele>94</ele>
        <time>2020-09-26T10:26:07.000Z</time>
      </trkpt>
      <trkpt lat="47.36034" lon="-1.60504">
        <ele>94</ele>
        <time>2020-09-26T10:26:09.000Z</time>
      </trkpt>
      <trkpt lat="47.36047" lon="-1.60505">
        <ele>94</ele>
        <time>2020-09-26T10:26:11.000Z</time>
      </trkpt>
      <trkpt lat="47.36061" lon="-1.60507">
        <ele>94</ele>
        <time>2020-09-26T10:26:13.000Z</time>
      </trkpt>
      <trkpt lat="47.36075" lon="-1.6051">
        <ele>93</ele>
        <time>2020-09-26T10:26:15.000Z</time>
      </trkpt>
      <trkpt lat="47.3609" lon="-1.60513">
        <ele>92</ele>
        <time>2020-09-26T10:26:17.000Z</time>
      </trkpt>
      <trkpt lat="47.36105" lon="-1.60516">
        <ele>91</ele>
        <time>2020-09-26T10:26:19.000Z</time>
      </trkpt>
      <trkpt lat="47.36121" lon="-1.60519">
        <ele>90</ele>
        <time>2020-09-26T10:26:21.000Z</time>
      </trkpt>
      <trkpt lat="47.36137" lon="-1.60522">
        <ele>90</ele>
        <time>2020-09-26T10:26:23.000Z</time>
      </trkpt>
      <trkpt lat="47.36154" lon="-1.60526">
        <ele>90</ele>
        <time>2020-09-26T10:26:25.000Z</time>
      </trkpt>
      <trkpt lat="47.36171" lon="-1.60529">
        <ele>89</ele>
        <time>2020-09-26T10:26:27.000Z</time>
      </trkpt>
      <trkpt lat="47.36188" lon="-1.60532">
        <ele>89</ele>
        <time>2020-09-26T10:26:29.000Z</time>
      </trkpt>
      <trkpt lat="47.36204" lon="-1.60535">
        <ele>88</ele>
        <time>2020-09-26T10:26:31.000Z</time>
      </trkpt>
      <trkpt lat="47.36222" lon="-1.60537">
        <ele>86</ele>
        <time>2020-09-26T10:26:33.000Z</time>
      </trkpt>
      <trkpt lat="47.36239" lon="-1.60539">
        <ele>85</ele>
        <time>2020-09-26T10:26:35.000Z</time>
      </trkpt>
      <trkpt lat="47.36256" lon="-1.60543">
        <ele>84</ele>
        <time>2020-09-26T10:26:37.000Z</time>
      </trkpt>
      <trkpt lat="47.36273" lon="-1.60547">
        <ele>84</ele>
        <time>2020-09-26T10:26:39.000Z</time>
      </trkpt>
      <trkpt lat="47.3629" lon="-1.60553">
        <ele>83</ele>
        <time>2020-09-26T10:26:41.000Z</time>
      </trkpt>
      <trkpt lat="47.36307" lon="-1.60559">
        <ele>83</ele>
        <time>2020-09-26T10:26:43.000Z</time>
      </trkpt>
      <trkpt lat="47.36323" lon="-1.60565">
        <ele>82</ele>
        <time>2020-09-26T10:26:45.000Z</time>
      </trkpt>
      <trkpt lat="47.36339" lon="-1.60569">
        <ele>82</ele>
        <time>2020-09-26T10:26:47.000Z</time>
      </trkpt>
      <trkpt lat="47.36355" lon="-1.60574">
        <ele>82</ele>
        <time>2020-09-26T10:26:49.000Z</time>
      </trkpt>
      <trkpt lat="47.3637" lon="-1.6058">
        <ele>82</ele>
        <time>2020-09-26T10:26:51.000Z</time>
      </trkpt>
      <trkpt lat="47.36385" lon="-1.60586">
        <ele>82</ele>
        <time>2020-09-26T10:26:53.000Z</time>
      </trkpt>
      <trkpt lat="47.36399" lon="-1.60591">
        <ele>82</ele>
        <time>2020-09-26T10:26:55.000Z</time>
      </trkpt>
      <trkpt lat="47.36413" lon="-1.60596">
        <ele>82</ele>
        <time>2020-09-26T10:26:57.000Z</time>
      </trkpt>
      <trkpt lat="47.36427" lon="-1.60599">
        <ele>82</ele>
        <time>2020-09-26T10:26:59.000Z</time>
      </trkpt>
      <trkpt lat="47.36441" lon="-1.60598">
        <ele>82</ele>
        <time>2020-09-26T10:27:01.000Z</time>
      </trkpt>
      <trkpt lat="47.36454" lon="-1.60597">
        <ele>84</ele>
        <time>2020-09-26T10:27:03.000Z</time>
      </trkpt>
      <trkpt lat="47.36468" lon="-1.60597">
        <ele>84</ele>
        <time>2020-09-26T10:27:05.000Z</time>
      </trkpt>
      <trkpt lat="47.36482" lon="-1.60597">
        <ele>85</ele>
        <time>2020-09-26T10:27:07.000Z</time>
      </trkpt>
      <trkpt lat="47.36492" lon="-1.60596">
        <ele>85</ele>
        <time>2020-09-26T10:27:09.000Z</time>
      </trkpt>
      <trkpt lat="47.36502" lon="-1.60586">
        <ele>85</ele>
        <time>2020-09-26T10:27:12.000Z</time>
      </trkpt>
      <trkpt lat="47.36514" lon="-1.60583">
        <ele>84</ele>
        <time>2020-09-26T10:27:14.000Z</time>
      </trkpt>
      <trkpt lat="47.36526" lon="-1.60582">
        <ele>84</ele>
        <time>2020-09-26T10:27:16.000Z</time>
      </trkpt>
      <trkpt lat="47.36539" lon="-1.60581">
        <ele>82</ele>
        <time>2020-09-26T10:27:18.000Z</time>
      </trkpt>
      <trkpt lat="47.36553" lon="-1.6058">
        <ele>81</ele>
        <time>2020-09-26T10:27:20.000Z</time>
      </trkpt>
      <trkpt lat="47.36568" lon="-1.60575">
        <ele>80</ele>
        <time>2020-09-26T10:27:22.000Z</time>
      </trkpt>
      <trkpt lat="47.36583" lon="-1.6057">
        <ele>78</ele>
        <time>2020-09-26T10:27:24.000Z</time>
      </trkpt>
      <trkpt lat="47.366" lon="-1.60569">
        <ele>77</ele>
        <time>2020-09-26T10:27:26.000Z</time>
      </trkpt>
      <trkpt lat="47.36616" lon="-1.60571">
        <ele>77</ele>
        <time>2020-09-26T10:27:28.000Z</time>
      </trkpt>
      <trkpt lat="47.36632" lon="-1.60579">
        <ele>76</ele>
        <time>2020-09-26T10:27:30.000Z</time>
      </trkpt>
      <trkpt lat="47.36648" lon="-1.60584">
        <ele>75</ele>
        <time>2020-09-26T10:27:32.000Z</time>
      </trkpt>
      <trkpt lat="47.36665" lon="-1.60591">
        <ele>74</ele>
        <time>2020-09-26T10:27:34.000Z</time>
      </trkpt>
      <trkpt lat="47.36681" lon="-1.60598">
        <ele>74</ele>
        <time>2020-09-26T10:27:36.000Z</time>
      </trkpt>
      <trkpt lat="47.36696" lon="-1.60604">
        <ele>74</ele>
        <time>2020-09-26T10:27:38.000Z</time>
      </trkpt>
      <trkpt lat="47.3671" lon="-1.60607">
        <ele>74</ele>
        <time>2020-09-26T10:27:40.000Z</time>
      </trkpt>
      <trkpt lat="47.36724" lon="-1.60608">
        <ele>74</ele>
        <time>2020-09-26T10:27:42.000Z</time>
      </trkpt>
      <trkpt lat="47.36735" lon="-1.60616">
        <ele>73</ele>
        <time>2020-09-26T10:27:44.000Z</time>
      </trkpt>
      <trkpt lat="47.36746" lon="-1.60623">
        <ele>73</ele>
        <time>2020-09-26T10:27:46.000Z</time>
      </trkpt>
      <trkpt lat="47.36758" lon="-1.60628">
        <ele>74</ele>
        <time>2020-09-26T10:27:48.000Z</time>
      </trkpt>
      <trkpt lat="47.3677" lon="-1.60631">
        <ele>74</ele>
        <time>2020-09-26T10:27:50.000Z</time>
      </trkpt>
      <trkpt lat="47.36781" lon="-1.60634">
        <ele>76</ele>
        <time>2020-09-26T10:27:52.000Z</time>
      </trkpt>
      <trkpt lat="47.36791" lon="-1.60636">
        <ele>77</ele>
        <time>2020-09-26T10:27:54.000Z</time>
      </trkpt>
      <trkpt lat="47.36802" lon="-1.60637">
        <ele>78</ele>
        <time>2020-09-26T10:27:56.000Z</time>
      </trkpt>
      <trkpt lat="47.36814" lon="-1.60637">
        <ele>79</ele>
        <time>2020-09-26T10:27:58.000Z</time>
      </trkpt>
      <trkpt lat="47.36824" lon="-1.60638">
        <ele>79</ele>
        <time>2020-09-26T10:28:00.000Z</time>
      </trkpt>
      <trkpt lat="47.36835" lon="-1.60638">
        <ele>79</ele>
        <time>2020-09-26T10:28:02.000Z</time>
      </trkpt>
      <trkpt lat="47.36845" lon="-1.60638">
        <ele>79</ele>
        <time>2020-09-26T10:28:04.000Z</time>
      </trkpt>
      <trkpt lat="47.36856" lon="-1.60638">
        <ele>80</ele>
        <time>2020-09-26T10:28:06.000Z</time>
      </trkpt>
      <trkpt lat="47.36867" lon="-1.60637">
        <ele>80</ele>
        <time>2020-09-26T10:28:08.000Z</time>
      </trkpt>
      <trkpt lat="47.36878" lon="-1.60637">
        <ele>80</ele>
        <time>2020-09-26T10:28:10.000Z</time>
      </trkpt>
      <trkpt lat="47.36888" lon="-1.60636">
        <ele>81</ele>
        <time>2020-09-26T10:28:12.000Z</time>
      </trkpt>
      <trkpt lat="47.36899" lon="-1.60635">
        <ele>82</ele>
        <time>2020-09-26T10:28:14.000Z</time>
      </trkpt>
      <trkpt lat="47.3691" lon="-1.60636">
        <ele>83</ele>
        <time>2020-09-26T10:28:16.000Z</time>
      </trkpt>
      <trkpt lat="47.3692" lon="-1.60636">
        <ele>83</ele>
        <time>2020-09-26T10:28:18.000Z</time>
      </trkpt>
      <trkpt lat="47.3693" lon="-1.60633">
        <ele>83</ele>
        <time>2020-09-26T10:28:20.000Z</time>
      </trkpt>
      <trkpt lat="47.3694" lon="-1.6063">
        <ele>82</ele>
        <time>2020-09-26T10:28:22.000Z</time>
      </trkpt>
      <trkpt lat="47.36951" lon="-1.60628">
        <ele>83</ele>
        <time>2020-09-26T10:28:24.000Z</time>
      </trkpt>
      <trkpt lat="47.36962" lon="-1.60626">
        <ele>83</ele>
        <time>2020-09-26T10:28:26.000Z</time>
      </trkpt>
      <trkpt lat="47.36973" lon="-1.60625">
        <ele>83</ele>
        <time>2020-09-26T10:28:28.000Z</time>
      </trkpt>
      <trkpt lat="47.36984" lon="-1.60625">
        <ele>84</ele>
        <time>2020-09-26T10:28:30.000Z</time>
      </trkpt>
      <trkpt lat="47.36995" lon="-1.60624">
        <ele>84</ele>
        <time>2020-09-26T10:28:32.000Z</time>
      </trkpt>
      <trkpt lat="47.37006" lon="-1.60623">
        <ele>84</ele>
        <time>2020-09-26T10:28:34.000Z</time>
      </trkpt>
      <trkpt lat="47.37018" lon="-1.6062">
        <ele>83</ele>
        <time>2020-09-26T10:28:36.000Z</time>
      </trkpt>
      <trkpt lat="47.37029" lon="-1.60619">
        <ele>83</ele>
        <time>2020-09-26T10:28:38.000Z</time>
      </trkpt>
      <trkpt lat="47.3704" lon="-1.60616">
        <ele>84</ele>
        <time>2020-09-26T10:28:40.000Z</time>
      </trkpt>
      <trkpt lat="47.37051" lon="-1.60612">
        <ele>84</ele>
        <time>2020-09-26T10:28:42.000Z</time>
      </trkpt>
      <trkpt lat="47.37062" lon="-1.60608">
        <ele>84</ele>
        <time>2020-09-26T10:28:44.000Z</time>
      </trkpt>
      <trkpt lat="47.37074" lon="-1.60604">
        <ele>85</ele>
        <time>2020-09-26T10:28:46.000Z</time>
      </trkpt>
      <trkpt lat="47.37085" lon="-1.60599">
        <ele>85</ele>
        <time>2020-09-26T10:28:48.000Z</time>
      </trkpt>
      <trkpt lat="47.37097" lon="-1.60595">
        <ele>85</ele>
        <time>2020-09-26T10:28:50.000Z</time>
      </trkpt>
      <trkpt lat="47.37108" lon="-1.6059">
        <ele>85</ele>
        <time>2020-09-26T10:28:52.000Z</time>
      </trkpt>
      <trkpt lat="47.3712" lon="-1.60586">
        <ele>84</ele>
        <time>2020-09-26T10:28:54.000Z</time>
      </trkpt>
      <trkpt lat="47.37131" lon="-1.60581">
        <ele>85</ele>
        <time>2020-09-26T10:28:56.000Z</time>
      </trkpt>
      <trkpt lat="47.37143" lon="-1.60577">
        <ele>85</ele>
        <time>2020-09-26T10:28:58.000Z</time>
      </trkpt>
      <trkpt lat="47.37155" lon="-1.60572">
        <ele>85</ele>
        <time>2020-09-26T10:29:00.000Z</time>
      </trkpt>
      <trkpt lat="47.37166" lon="-1.60566">
        <ele>85</ele>
        <time>2020-09-26T10:29:02.000Z</time>
      </trkpt>
      <trkpt lat="47.37178" lon="-1.60562">
        <ele>85</ele>
        <time>2020-09-26T10:29:04.000Z</time>
      </trkpt>
      <trkpt lat="47.37191" lon="-1.60557">
        <ele>85</ele>
        <time>2020-09-26T10:29:06.000Z</time>
      </trkpt>
      <trkpt lat="47.37202" lon="-1.60551">
        <ele>85</ele>
        <time>2020-09-26T10:29:08.000Z</time>
      </trkpt>
      <trkpt lat="47.37215" lon="-1.60547">
        <ele>85</ele>
        <time>2020-09-26T10:29:10.000Z</time>
      </trkpt>
      <trkpt lat="47.37227" lon="-1.60541">
        <ele>85</ele>
        <time>2020-09-26T10:29:12.000Z</time>
      </trkpt>
      <trkpt lat="47.37239" lon="-1.60537">
        <ele>85</ele>
        <time>2020-09-26T10:29:14.000Z</time>
      </trkpt>
      <trkpt lat="47.37252" lon="-1.60532">
        <ele>84</ele>
        <time>2020-09-26T10:29:16.000Z</time>
      </trkpt>
      <trkpt lat="47.37265" lon="-1.60526">
        <ele>84</ele>
        <time>2020-09-26T10:29:18.000Z</time>
      </trkpt>
      <trkpt lat="47.37278" lon="-1.60522">
        <ele>85</ele>
        <time>2020-09-26T10:29:20.000Z</time>
      </trkpt>
      <trkpt lat="47.3729" lon="-1.60517">
        <ele>84</ele>
        <time>2020-09-26T10:29:22.000Z</time>
      </trkpt>
      <trkpt lat="47.37303" lon="-1.60513">
        <ele>84</ele>
        <time>2020-09-26T10:29:24.000Z</time>
      </trkpt>
      <trkpt lat="47.37315" lon="-1.60507">
        <ele>84</ele>
        <time>2020-09-26T10:29:26.000Z</time>
      </trkpt>
      <trkpt lat="47.37327" lon="-1.60502">
        <ele>83</ele>
        <time>2020-09-26T10:29:28.000Z</time>
      </trkpt>
      <trkpt lat="47.37339" lon="-1.60496">
        <ele>83</ele>
        <time>2020-09-26T10:29:30.000Z</time>
      </trkpt>
      <trkpt lat="47.37349" lon="-1.60487">
        <ele>83</ele>
        <time>2020-09-26T10:29:32.000Z</time>
      </trkpt>
      <trkpt lat="47.37359" lon="-1.60479">
        <ele>83</ele>
        <time>2020-09-26T10:29:34.000Z</time>
      </trkpt>
      <trkpt lat="47.37366" lon="-1.6047">
        <ele>83</ele>
        <time>2020-09-26T10:29:36.000Z</time>
      </trkpt>
      <trkpt lat="47.37369" lon="-1.60455">
        <ele>83</ele>
        <time>2020-09-26T10:29:38.000Z</time>
      </trkpt>
      <trkpt lat="47.37372" lon="-1.60438">
        <ele>83</ele>
        <time>2020-09-26T10:29:40.000Z</time>
      </trkpt>
      <trkpt lat="47.37373" lon="-1.60417">
        <ele>83</ele>
        <time>2020-09-26T10:29:42.000Z</time>
      </trkpt>
      <trkpt lat="47.37375" lon="-1.60395">
        <ele>83</ele>
        <time>2020-09-26T10:29:44.000Z</time>
      </trkpt>
      <trkpt lat="47.37377" lon="-1.60374">
        <ele>83</ele>
        <time>2020-09-26T10:29:46.000Z</time>
      </trkpt>
      <trkpt lat="47.37378" lon="-1.60352">
        <ele>83</ele>
        <time>2020-09-26T10:29:48.000Z</time>
      </trkpt>
      <trkpt lat="47.3738" lon="-1.6033">
        <ele>83</ele>
        <time>2020-09-26T10:29:50.000Z</time>
      </trkpt>
      <trkpt lat="47.37382" lon="-1.60308">
        <ele>83</ele>
        <time>2020-09-26T10:29:52.000Z</time>
      </trkpt>
      <trkpt lat="47.37383" lon="-1.60286">
        <ele>83</ele>
        <time>2020-09-26T10:29:54.000Z</time>
      </trkpt>
      <trkpt lat="47.37385" lon="-1.60264">
        <ele>83</ele>
        <time>2020-09-26T10:29:56.000Z</time>
      </trkpt>
      <trkpt lat="47.37387" lon="-1.60242">
        <ele>82</ele>
        <time>2020-09-26T10:29:58.000Z</time>
      </trkpt>
      <trkpt lat="47.37389" lon="-1.60221">
        <ele>82</ele>
        <time>2020-09-26T10:30:00.000Z</time>
      </trkpt>
      <trkpt lat="47.37391" lon="-1.602">
        <ele>82</ele>
        <time>2020-09-26T10:30:02.000Z</time>
      </trkpt>
      <trkpt lat="47.37393" lon="-1.60178">
        <ele>82</ele>
        <time>2020-09-26T10:30:04.000Z</time>
      </trkpt>
      <trkpt lat="47.37394" lon="-1.60157">
        <ele>82</ele>
        <time>2020-09-26T10:30:06.000Z</time>
      </trkpt>
      <trkpt lat="47.37395" lon="-1.60136">
        <ele>82</ele>
        <time>2020-09-26T10:30:08.000Z</time>
      </trkpt>
      <trkpt lat="47.37397" lon="-1.60114">
        <ele>82</ele>
        <time>2020-09-26T10:30:10.000Z</time>
      </trkpt>
      <trkpt lat="47.37399" lon="-1.60093">
        <ele>82</ele>
        <time>2020-09-26T10:30:12.000Z</time>
      </trkpt>
      <trkpt lat="47.37402" lon="-1.60073">
        <ele>82</ele>
        <time>2020-09-26T10:30:14.000Z</time>
      </trkpt>
      <trkpt lat="47.37404" lon="-1.60052">
        <ele>82</ele>
        <time>2020-09-26T10:30:16.000Z</time>
      </trkpt>
      <trkpt lat="47.37407" lon="-1.60031">
        <ele>82</ele>
        <time>2020-09-26T10:30:18.000Z</time>
      </trkpt>
      <trkpt lat="47.3741" lon="-1.6001">
        <ele>81</ele>
        <time>2020-09-26T10:30:20.000Z</time>
      </trkpt>
      <trkpt lat="47.37413" lon="-1.59989">
        <ele>81</ele>
        <time>2020-09-26T10:30:22.000Z</time>
      </trkpt>
      <trkpt lat="47.37416" lon="-1.59968">
        <ele>81</ele>
        <time>2020-09-26T10:30:24.000Z</time>
      </trkpt>
      <trkpt lat="47.37419" lon="-1.59947">
        <ele>81</ele>
        <time>2020-09-26T10:30:26.000Z</time>
      </trkpt>
      <trkpt lat="47.37423" lon="-1.59927">
        <ele>81</ele>
        <time>2020-09-26T10:30:28.000Z</time>
      </trkpt>
      <trkpt lat="47.37426" lon="-1.59907">
        <ele>81</ele>
        <time>2020-09-26T10:30:30.000Z</time>
      </trkpt>
      <trkpt lat="47.37428" lon="-1.59886">
        <ele>81</ele>
        <time>2020-09-26T10:30:32.000Z</time>
      </trkpt>
      <trkpt lat="47.37431" lon="-1.59866">
        <ele>81</ele>
        <time>2020-09-26T10:30:34.000Z</time>
      </trkpt>
      <trkpt lat="47.37434" lon="-1.59846">
        <ele>81</ele>
        <time>2020-09-26T10:30:36.000Z</time>
      </trkpt>
      <trkpt lat="47.37437" lon="-1.59826">
        <ele>81</ele>
        <time>2020-09-26T10:30:38.000Z</time>
      </trkpt>
      <trkpt lat="47.37441" lon="-1.59806">
        <ele>81</ele>
        <time>2020-09-26T10:30:40.000Z</time>
      </trkpt>
      <trkpt lat="47.37444" lon="-1.59786">
        <ele>81</ele>
        <time>2020-09-26T10:30:42.000Z</time>
      </trkpt>
      <trkpt lat="47.37448" lon="-1.59766">
        <ele>81</ele>
        <time>2020-09-26T10:30:44.000Z</time>
      </trkpt>
      <trkpt lat="47.37451" lon="-1.59745">
        <ele>81</ele>
        <time>2020-09-26T10:30:46.000Z</time>
      </trkpt>
      <trkpt lat="47.37455" lon="-1.59724">
        <ele>81</ele>
        <time>2020-09-26T10:30:48.000Z</time>
      </trkpt>
      <trkpt lat="47.37459" lon="-1.59705">
        <ele>80</ele>
        <time>2020-09-26T10:30:50.000Z</time>
      </trkpt>
      <trkpt lat="47.37462" lon="-1.59685">
        <ele>80</ele>
        <time>2020-09-26T10:30:52.000Z</time>
      </trkpt>
      <trkpt lat="47.37466" lon="-1.59665">
        <ele>80</ele>
        <time>2020-09-26T10:30:54.000Z</time>
      </trkpt>
      <trkpt lat="47.37469" lon="-1.59645">
        <ele>80</ele>
        <time>2020-09-26T10:30:56.000Z</time>
      </trkpt>
      <trkpt lat="47.37473" lon="-1.59625">
        <ele>80</ele>
        <time>2020-09-26T10:30:58.000Z</time>
      </trkpt>
      <trkpt lat="47.37476" lon="-1.59605">
        <ele>80</ele>
        <time>2020-09-26T10:31:00.000Z</time>
      </trkpt>
      <trkpt lat="47.3748" lon="-1.59585">
        <ele>80</ele>
        <time>2020-09-26T10:31:02.000Z</time>
      </trkpt>
      <trkpt lat="47.37483" lon="-1.59565">
        <ele>80</ele>
        <time>2020-09-26T10:31:04.000Z</time>
      </trkpt>
      <trkpt lat="47.37487" lon="-1.59546">
        <ele>80</ele>
        <time>2020-09-26T10:31:06.000Z</time>
      </trkpt>
      <trkpt lat="47.3749" lon="-1.59526">
        <ele>80</ele>
        <time>2020-09-26T10:31:08.000Z</time>
      </trkpt>
      <trkpt lat="47.37494" lon="-1.59507">
        <ele>80</ele>
        <time>2020-09-26T10:31:10.000Z</time>
      </trkpt>
      <trkpt lat="47.37497" lon="-1.59487">
        <ele>80</ele>
        <time>2020-09-26T10:31:12.000Z</time>
      </trkpt>
      <trkpt lat="47.37502" lon="-1.59467">
        <ele>80</ele>
        <time>2020-09-26T10:31:14.000Z</time>
      </trkpt>
      <trkpt lat="47.37505" lon="-1.59447">
        <ele>80</ele>
        <time>2020-09-26T10:31:16.000Z</time>
      </trkpt>
      <trkpt lat="47.37509" lon="-1.59426">
        <ele>80</ele>
        <time>2020-09-26T10:31:18.000Z</time>
      </trkpt>
      <trkpt lat="47.37512" lon="-1.59406">
        <ele>80</ele>
        <time>2020-09-26T10:31:20.000Z</time>
      </trkpt>
      <trkpt lat="47.37516" lon="-1.59385">
        <ele>80</ele>
        <time>2020-09-26T10:31:22.000Z</time>
      </trkpt>
      <trkpt lat="47.3752" lon="-1.59365">
        <ele>80</ele>
        <time>2020-09-26T10:31:24.000Z</time>
      </trkpt>
      <trkpt lat="47.37523" lon="-1.59345">
        <ele>80</ele>
        <time>2020-09-26T10:31:26.000Z</time>
      </trkpt>
      <trkpt lat="47.37526" lon="-1.59324">
        <ele>80</ele>
        <time>2020-09-26T10:31:28.000Z</time>
      </trkpt>
      <trkpt lat="47.3753" lon="-1.59303">
        <ele>80</ele>
        <time>2020-09-26T10:31:30.000Z</time>
      </trkpt>
      <trkpt lat="47.37533" lon="-1.59282">
        <ele>80</ele>
        <time>2020-09-26T10:31:32.000Z</time>
      </trkpt>
      <trkpt lat="47.37536" lon="-1.59261">
        <ele>80</ele>
        <time>2020-09-26T10:31:34.000Z</time>
      </trkpt>
      <trkpt lat="47.37539" lon="-1.5924">
        <ele>79</ele>
        <time>2020-09-26T10:31:36.000Z</time>
      </trkpt>
      <trkpt lat="47.37541" lon="-1.59219">
        <ele>80</ele>
        <time>2020-09-26T10:31:38.000Z</time>
      </trkpt>
      <trkpt lat="47.37544" lon="-1.59197">
        <ele>80</ele>
        <time>2020-09-26T10:31:40.000Z</time>
      </trkpt>
      <trkpt lat="47.37546" lon="-1.59176">
        <ele>80</ele>
        <time>2020-09-26T10:31:42.000Z</time>
      </trkpt>
      <trkpt lat="47.37549" lon="-1.59153">
        <ele>80</ele>
        <time>2020-09-26T10:31:44.000Z</time>
      </trkpt>
      <trkpt lat="47.37552" lon="-1.59131">
        <ele>80</ele>
        <time>2020-09-26T10:31:46.000Z</time>
      </trkpt>
      <trkpt lat="47.37559" lon="-1.59111">
        <ele>80</ele>
        <time>2020-09-26T10:31:48.000Z</time>
      </trkpt>
      <trkpt lat="47.37569" lon="-1.59093">
        <ele>80</ele>
        <time>2020-09-26T10:31:50.000Z</time>
      </trkpt>
      <trkpt lat="47.37582" lon="-1.59081">
        <ele>79</ele>
        <time>2020-09-26T10:31:52.000Z</time>
      </trkpt>
      <trkpt lat="47.37597" lon="-1.59071">
        <ele>79</ele>
        <time>2020-09-26T10:31:54.000Z</time>
      </trkpt>
      <trkpt lat="47.37611" lon="-1.59063">
        <ele>78</ele>
        <time>2020-09-26T10:31:56.000Z</time>
      </trkpt>
      <trkpt lat="47.37625" lon="-1.59053">
        <ele>79</ele>
        <time>2020-09-26T10:31:58.000Z</time>
      </trkpt>
      <trkpt lat="47.37639" lon="-1.59044">
        <ele>79</ele>
        <time>2020-09-26T10:32:00.000Z</time>
      </trkpt>
      <trkpt lat="47.37652" lon="-1.59034">
        <ele>78</ele>
        <time>2020-09-26T10:32:02.000Z</time>
      </trkpt>
      <trkpt lat="47.37665" lon="-1.59024">
        <ele>78</ele>
        <time>2020-09-26T10:32:04.000Z</time>
      </trkpt>
      <trkpt lat="47.37679" lon="-1.59015">
        <ele>78</ele>
        <time>2020-09-26T10:32:06.000Z</time>
      </trkpt>
      <trkpt lat="47.37692" lon="-1.59007">
        <ele>78</ele>
        <time>2020-09-26T10:32:08.000Z</time>
      </trkpt>
      <trkpt lat="47.37704" lon="-1.58997">
        <ele>79</ele>
        <time>2020-09-26T10:32:10.000Z</time>
      </trkpt>
      <trkpt lat="47.37717" lon="-1.58988">
        <ele>79</ele>
        <time>2020-09-26T10:32:12.000Z</time>
      </trkpt>
      <trkpt lat="47.3773" lon="-1.58978">
        <ele>79</ele>
        <time>2020-09-26T10:32:14.000Z</time>
      </trkpt>
      <trkpt lat="47.37743" lon="-1.58969">
        <ele>79</ele>
        <time>2020-09-26T10:32:16.000Z</time>
      </trkpt>
      <trkpt lat="47.37754" lon="-1.58959">
        <ele>80</ele>
        <time>2020-09-26T10:32:18.000Z</time>
      </trkpt>
      <trkpt lat="47.37766" lon="-1.58949">
        <ele>81</ele>
        <time>2020-09-26T10:32:20.000Z</time>
      </trkpt>
      <trkpt lat="47.37776" lon="-1.58938">
        <ele>82</ele>
        <time>2020-09-26T10:32:22.000Z</time>
      </trkpt>
      <trkpt lat="47.37786" lon="-1.58927">
        <ele>82</ele>
        <time>2020-09-26T10:32:24.000Z</time>
      </trkpt>
      <trkpt lat="47.37797" lon="-1.58916">
        <ele>82</ele>
        <time>2020-09-26T10:32:26.000Z</time>
      </trkpt>
      <trkpt lat="47.37807" lon="-1.58904">
        <ele>82</ele>
        <time>2020-09-26T10:32:28.000Z</time>
      </trkpt>
      <trkpt lat="47.37817" lon="-1.58892">
        <ele>82</ele>
        <time>2020-09-26T10:32:30.000Z</time>
      </trkpt>
      <trkpt lat="47.37827" lon="-1.5888">
        <ele>82</ele>
        <time>2020-09-26T10:32:32.000Z</time>
      </trkpt>
      <trkpt lat="47.37837" lon="-1.58869">
        <ele>82</ele>
        <time>2020-09-26T10:32:34.000Z</time>
      </trkpt>
      <trkpt lat="47.37848" lon="-1.58857">
        <ele>83</ele>
        <time>2020-09-26T10:32:36.000Z</time>
      </trkpt>
      <trkpt lat="47.37858" lon="-1.58844">
        <ele>83</ele>
        <time>2020-09-26T10:32:38.000Z</time>
      </trkpt>
      <trkpt lat="47.37868" lon="-1.58832">
        <ele>83</ele>
        <time>2020-09-26T10:32:40.000Z</time>
      </trkpt>
      <trkpt lat="47.37879" lon="-1.58819">
        <ele>83</ele>
        <time>2020-09-26T10:32:42.000Z</time>
      </trkpt>
      <trkpt lat="47.37888" lon="-1.58808">
        <ele>83</ele>
        <time>2020-09-26T10:32:44.000Z</time>
      </trkpt>
      <trkpt lat="47.37898" lon="-1.58796">
        <ele>83</ele>
        <time>2020-09-26T10:32:46.000Z</time>
      </trkpt>
      <trkpt lat="47.37908" lon="-1.58784">
        <ele>82</ele>
        <time>2020-09-26T10:32:48.000Z</time>
      </trkpt>
      <trkpt lat="47.37917" lon="-1.58772">
        <ele>83</ele>
        <time>2020-09-26T10:32:50.000Z</time>
      </trkpt>
      <trkpt lat="47.37927" lon="-1.5876">
        <ele>83</ele>
        <time>2020-09-26T10:32:52.000Z</time>
      </trkpt>
      <trkpt lat="47.37938" lon="-1.58748">
        <ele>83</ele>
        <time>2020-09-26T10:32:54.000Z</time>
      </trkpt>
      <trkpt lat="47.3795" lon="-1.58737">
        <ele>83</ele>
        <time>2020-09-26T10:32:56.000Z</time>
      </trkpt>
      <trkpt lat="47.37962" lon="-1.58727">
        <ele>83</ele>
        <time>2020-09-26T10:32:58.000Z</time>
      </trkpt>
      <trkpt lat="47.37974" lon="-1.58719">
        <ele>83</ele>
        <time>2020-09-26T10:33:00.000Z</time>
      </trkpt>
      <trkpt lat="47.37986" lon="-1.5871">
        <ele>83</ele>
        <time>2020-09-26T10:33:02.000Z</time>
      </trkpt>
      <trkpt lat="47.37998" lon="-1.58701">
        <ele>83</ele>
        <time>2020-09-26T10:33:04.000Z</time>
      </trkpt>
      <trkpt lat="47.38009" lon="-1.58692">
        <ele>83</ele>
        <time>2020-09-26T10:33:06.000Z</time>
      </trkpt>
      <trkpt lat="47.38022" lon="-1.58683">
        <ele>83</ele>
        <time>2020-09-26T10:33:08.000Z</time>
      </trkpt>
      <trkpt lat="47.38034" lon="-1.58673">
        <ele>83</ele>
        <time>2020-09-26T10:33:10.000Z</time>
      </trkpt>
      <trkpt lat="47.38045" lon="-1.58664">
        <ele>83</ele>
        <time>2020-09-26T10:33:12.000Z</time>
      </trkpt>
      <trkpt lat="47.38056" lon="-1.58653">
        <ele>83</ele>
        <time>2020-09-26T10:33:14.000Z</time>
      </trkpt>
      <trkpt lat="47.38067" lon="-1.58641">
        <ele>83</ele>
        <time>2020-09-26T10:33:16.000Z</time>
      </trkpt>
      <trkpt lat="47.38077" lon="-1.58629">
        <ele>83</ele>
        <time>2020-09-26T10:33:18.000Z</time>
      </trkpt>
      <trkpt lat="47.38089" lon="-1.58617">
        <ele>83</ele>
        <time>2020-09-26T10:33:20.000Z</time>
      </trkpt>
      <trkpt lat="47.381" lon="-1.58604">
        <ele>83</ele>
        <time>2020-09-26T10:33:22.000Z</time>
      </trkpt>
      <trkpt lat="47.38111" lon="-1.58592">
        <ele>83</ele>
        <time>2020-09-26T10:33:24.000Z</time>
      </trkpt>
      <trkpt lat="47.38122" lon="-1.5858">
        <ele>83</ele>
        <time>2020-09-26T10:33:26.000Z</time>
      </trkpt>
      <trkpt lat="47.38133" lon="-1.58566">
        <ele>84</ele>
        <time>2020-09-26T10:33:28.000Z</time>
      </trkpt>
      <trkpt lat="47.38144" lon="-1.58554">
        <ele>84</ele>
        <time>2020-09-26T10:33:30.000Z</time>
      </trkpt>
      <trkpt lat="47.38156" lon="-1.58541">
        <ele>85</ele>
        <time>2020-09-26T10:33:32.000Z</time>
      </trkpt>
      <trkpt lat="47.38167" lon="-1.58528">
        <ele>84</ele>
        <time>2020-09-26T10:33:34.000Z</time>
      </trkpt>
      <trkpt lat="47.38179" lon="-1.58516">
        <ele>83</ele>
        <time>2020-09-26T10:33:36.000Z</time>
      </trkpt>
      <trkpt lat="47.38189" lon="-1.58503">
        <ele>83</ele>
        <time>2020-09-26T10:33:38.000Z</time>
      </trkpt>
      <trkpt lat="47.382" lon="-1.5849">
        <ele>82</ele>
        <time>2020-09-26T10:33:40.000Z</time>
      </trkpt>
      <trkpt lat="47.3821" lon="-1.58476">
        <ele>82</ele>
        <time>2020-09-26T10:33:42.000Z</time>
      </trkpt>
      <trkpt lat="47.3822" lon="-1.58461">
        <ele>82</ele>
        <time>2020-09-26T10:33:44.000Z</time>
      </trkpt>
      <trkpt lat="47.3823" lon="-1.58446">
        <ele>82</ele>
        <time>2020-09-26T10:33:46.000Z</time>
      </trkpt>
      <trkpt lat="47.38239" lon="-1.58431">
        <ele>82</ele>
        <time>2020-09-26T10:33:48.000Z</time>
      </trkpt>
      <trkpt lat="47.38248" lon="-1.58416">
        <ele>82</ele>
        <time>2020-09-26T10:33:50.000Z</time>
      </trkpt>
      <trkpt lat="47.38257" lon="-1.584">
        <ele>82</ele>
        <time>2020-09-26T10:33:52.000Z</time>
      </trkpt>
      <trkpt lat="47.38266" lon="-1.58385">
        <ele>82</ele>
        <time>2020-09-26T10:33:54.000Z</time>
      </trkpt>
      <trkpt lat="47.38274" lon="-1.5837">
        <ele>82</ele>
        <time>2020-09-26T10:33:56.000Z</time>
      </trkpt>
      <trkpt lat="47.38283" lon="-1.58356">
        <ele>83</ele>
        <time>2020-09-26T10:33:58.000Z</time>
      </trkpt>
      <trkpt lat="47.38292" lon="-1.5834">
        <ele>83</ele>
        <time>2020-09-26T10:34:00.000Z</time>
      </trkpt>
      <trkpt lat="47.38301" lon="-1.58325">
        <ele>83</ele>
        <time>2020-09-26T10:34:02.000Z</time>
      </trkpt>
      <trkpt lat="47.38311" lon="-1.5831">
        <ele>83</ele>
        <time>2020-09-26T10:34:04.000Z</time>
      </trkpt>
      <trkpt lat="47.3832" lon="-1.58295">
        <ele>83</ele>
        <time>2020-09-26T10:34:06.000Z</time>
      </trkpt>
      <trkpt lat="47.38329" lon="-1.5828">
        <ele>83</ele>
        <time>2020-09-26T10:34:08.000Z</time>
      </trkpt>
      <trkpt lat="47.38339" lon="-1.58267">
        <ele>84</ele>
        <time>2020-09-26T10:34:10.000Z</time>
      </trkpt>
      <trkpt lat="47.38348" lon="-1.58253">
        <ele>84</ele>
        <time>2020-09-26T10:34:12.000Z</time>
      </trkpt>
      <trkpt lat="47.38358" lon="-1.58241">
        <ele>84</ele>
        <time>2020-09-26T10:34:14.000Z</time>
      </trkpt>
      <trkpt lat="47.38367" lon="-1.58227">
        <ele>84</ele>
        <time>2020-09-26T10:34:16.000Z</time>
      </trkpt>
      <trkpt lat="47.38376" lon="-1.58212">
        <ele>84</ele>
        <time>2020-09-26T10:34:18.000Z</time>
      </trkpt>
      <trkpt lat="47.38384" lon="-1.58196">
        <ele>84</ele>
        <time>2020-09-26T10:34:20.000Z</time>
      </trkpt>
      <trkpt lat="47.38392" lon="-1.58179">
        <ele>85</ele>
        <time>2020-09-26T10:34:22.000Z</time>
      </trkpt>
      <trkpt lat="47.38399" lon="-1.58161">
        <ele>84</ele>
        <time>2020-09-26T10:34:24.000Z</time>
      </trkpt>
      <trkpt lat="47.38407" lon="-1.58144">
        <ele>84</ele>
        <time>2020-09-26T10:34:26.000Z</time>
      </trkpt>
      <trkpt lat="47.38414" lon="-1.58127">
        <ele>84</ele>
        <time>2020-09-26T10:34:28.000Z</time>
      </trkpt>
      <trkpt lat="47.38421" lon="-1.5811">
        <ele>83</ele>
        <time>2020-09-26T10:34:30.000Z</time>
      </trkpt>
      <trkpt lat="47.38429" lon="-1.58093">
        <ele>83</ele>
        <time>2020-09-26T10:34:32.000Z</time>
      </trkpt>
      <trkpt lat="47.38437" lon="-1.58076">
        <ele>83</ele>
        <time>2020-09-26T10:34:34.000Z</time>
      </trkpt>
      <trkpt lat="47.38445" lon="-1.58058">
        <ele>83</ele>
        <time>2020-09-26T10:34:36.000Z</time>
      </trkpt>
      <trkpt lat="47.38453" lon="-1.5804">
        <ele>83</ele>
        <time>2020-09-26T10:34:38.000Z</time>
      </trkpt>
      <trkpt lat="47.38461" lon="-1.58023">
        <ele>82</ele>
        <time>2020-09-26T10:34:40.000Z</time>
      </trkpt>
      <trkpt lat="47.38468" lon="-1.58005">
        <ele>82</ele>
        <time>2020-09-26T10:34:42.000Z</time>
      </trkpt>
      <trkpt lat="47.38477" lon="-1.57987">
        <ele>81</ele>
        <time>2020-09-26T10:34:44.000Z</time>
      </trkpt>
      <trkpt lat="47.38485" lon="-1.57969">
        <ele>81</ele>
        <time>2020-09-26T10:34:46.000Z</time>
      </trkpt>
      <trkpt lat="47.38493" lon="-1.57951">
        <ele>81</ele>
        <time>2020-09-26T10:34:48.000Z</time>
      </trkpt>
      <trkpt lat="47.38501" lon="-1.57932">
        <ele>81</ele>
        <time>2020-09-26T10:34:50.000Z</time>
      </trkpt>
      <trkpt lat="47.3851" lon="-1.57914">
        <ele>81</ele>
        <time>2020-09-26T10:34:52.000Z</time>
      </trkpt>
      <trkpt lat="47.38518" lon="-1.57895">
        <ele>80</ele>
        <time>2020-09-26T10:34:54.000Z</time>
      </trkpt>
      <trkpt lat="47.38527" lon="-1.57875">
        <ele>80</ele>
        <time>2020-09-26T10:34:56.000Z</time>
      </trkpt>
      <trkpt lat="47.38535" lon="-1.57856">
        <ele>79</ele>
        <time>2020-09-26T10:34:58.000Z</time>
      </trkpt>
      <trkpt lat="47.38544" lon="-1.57837">
        <ele>79</ele>
        <time>2020-09-26T10:35:00.000Z</time>
      </trkpt>
      <trkpt lat="47.38553" lon="-1.57817">
        <ele>78</ele>
        <time>2020-09-26T10:35:02.000Z</time>
      </trkpt>
      <trkpt lat="47.38562" lon="-1.57797">
        <ele>78</ele>
        <time>2020-09-26T10:35:04.000Z</time>
      </trkpt>
      <trkpt lat="47.38571" lon="-1.57777">
        <ele>78</ele>
        <time>2020-09-26T10:35:06.000Z</time>
      </trkpt>
      <trkpt lat="47.38579" lon="-1.57757">
        <ele>78</ele>
        <time>2020-09-26T10:35:08.000Z</time>
      </trkpt>
      <trkpt lat="47.38588" lon="-1.57738">
        <ele>77</ele>
        <time>2020-09-26T10:35:10.000Z</time>
      </trkpt>
      <trkpt lat="47.38598" lon="-1.57718">
        <ele>77</ele>
        <time>2020-09-26T10:35:12.000Z</time>
      </trkpt>
      <trkpt lat="47.38606" lon="-1.57698">
        <ele>76</ele>
        <time>2020-09-26T10:35:14.000Z</time>
      </trkpt>
      <trkpt lat="47.38615" lon="-1.57678">
        <ele>76</ele>
        <time>2020-09-26T10:35:16.000Z</time>
      </trkpt>
      <trkpt lat="47.38624" lon="-1.57658">
        <ele>75</ele>
        <time>2020-09-26T10:35:18.000Z</time>
      </trkpt>
      <trkpt lat="47.38633" lon="-1.57637">
        <ele>75</ele>
        <time>2020-09-26T10:35:20.000Z</time>
      </trkpt>
      <trkpt lat="47.3864" lon="-1.57615">
        <ele>74</ele>
        <time>2020-09-26T10:35:22.000Z</time>
      </trkpt>
      <trkpt lat="47.38646" lon="-1.57592">
        <ele>74</ele>
        <time>2020-09-26T10:35:24.000Z</time>
      </trkpt>
      <trkpt lat="47.38651" lon="-1.57568">
        <ele>74</ele>
        <time>2020-09-26T10:35:26.000Z</time>
      </trkpt>
      <trkpt lat="47.38654" lon="-1.57543">
        <ele>73</ele>
        <time>2020-09-26T10:35:28.000Z</time>
      </trkpt>
      <trkpt lat="47.38657" lon="-1.5752">
        <ele>73</ele>
        <time>2020-09-26T10:35:30.000Z</time>
      </trkpt>
      <trkpt lat="47.38659" lon="-1.57496">
        <ele>73</ele>
        <time>2020-09-26T10:35:32.000Z</time>
      </trkpt>
      <trkpt lat="47.38659" lon="-1.57472">
        <ele>73</ele>
        <time>2020-09-26T10:35:34.000Z</time>
      </trkpt>
      <trkpt lat="47.38659" lon="-1.57449">
        <ele>73</ele>
        <time>2020-09-26T10:35:36.000Z</time>
      </trkpt>
      <trkpt lat="47.38658" lon="-1.57426">
        <ele>73</ele>
        <time>2020-09-26T10:35:38.000Z</time>
      </trkpt>
      <trkpt lat="47.38658" lon="-1.57402">
        <ele>73</ele>
        <time>2020-09-26T10:35:40.000Z</time>
      </trkpt>
      <trkpt lat="47.38658" lon="-1.57379">
        <ele>72</ele>
        <time>2020-09-26T10:35:42.000Z</time>
      </trkpt>
      <trkpt lat="47.38659" lon="-1.57355">
        <ele>72</ele>
        <time>2020-09-26T10:35:44.000Z</time>
      </trkpt>
      <trkpt lat="47.38659" lon="-1.57331">
        <ele>72</ele>
        <time>2020-09-26T10:35:46.000Z</time>
      </trkpt>
      <trkpt lat="47.38659" lon="-1.57307">
        <ele>73</ele>
        <time>2020-09-26T10:35:48.000Z</time>
      </trkpt>
      <trkpt lat="47.38659" lon="-1.57284">
        <ele>73</ele>
        <time>2020-09-26T10:35:50.000Z</time>
      </trkpt>
      <trkpt lat="47.38658" lon="-1.57261">
        <ele>73</ele>
        <time>2020-09-26T10:35:52.000Z</time>
      </trkpt>
      <trkpt lat="47.38656" lon="-1.57237">
        <ele>72</ele>
        <time>2020-09-26T10:35:54.000Z</time>
      </trkpt>
      <trkpt lat="47.38654" lon="-1.57214">
        <ele>72</ele>
        <time>2020-09-26T10:35:56.000Z</time>
      </trkpt>
      <trkpt lat="47.38651" lon="-1.57193">
        <ele>71</ele>
        <time>2020-09-26T10:35:58.000Z</time>
      </trkpt>
      <trkpt lat="47.38648" lon="-1.57171">
        <ele>71</ele>
        <time>2020-09-26T10:36:00.000Z</time>
      </trkpt>
      <trkpt lat="47.38645" lon="-1.57151">
        <ele>71</ele>
        <time>2020-09-26T10:36:02.000Z</time>
      </trkpt>
      <trkpt lat="47.38642" lon="-1.57131">
        <ele>71</ele>
        <time>2020-09-26T10:36:04.000Z</time>
      </trkpt>
      <trkpt lat="47.38639" lon="-1.57111">
        <ele>72</ele>
        <time>2020-09-26T10:36:06.000Z</time>
      </trkpt>
      <trkpt lat="47.38636" lon="-1.57091">
        <ele>72</ele>
        <time>2020-09-26T10:36:08.000Z</time>
      </trkpt>
      <trkpt lat="47.38634" lon="-1.57071">
        <ele>72</ele>
        <time>2020-09-26T10:36:10.000Z</time>
      </trkpt>
      <trkpt lat="47.38633" lon="-1.57052">
        <ele>73</ele>
        <time>2020-09-26T10:36:12.000Z</time>
      </trkpt>
      <trkpt lat="47.38632" lon="-1.57031">
        <ele>74</ele>
        <time>2020-09-26T10:36:14.000Z</time>
      </trkpt>
      <trkpt lat="47.38632" lon="-1.57012">
        <ele>74</ele>
        <time>2020-09-26T10:36:16.000Z</time>
      </trkpt>
      <trkpt lat="47.38632" lon="-1.56992">
        <ele>75</ele>
        <time>2020-09-26T10:36:18.000Z</time>
      </trkpt>
      <trkpt lat="47.38633" lon="-1.56973">
        <ele>75</ele>
        <time>2020-09-26T10:36:20.000Z</time>
      </trkpt>
      <trkpt lat="47.38633" lon="-1.56953">
        <ele>75</ele>
        <time>2020-09-26T10:36:22.000Z</time>
      </trkpt>
      <trkpt lat="47.38634" lon="-1.56933">
        <ele>75</ele>
        <time>2020-09-26T10:36:24.000Z</time>
      </trkpt>
      <trkpt lat="47.38635" lon="-1.56913">
        <ele>75</ele>
        <time>2020-09-26T10:36:26.000Z</time>
      </trkpt>
      <trkpt lat="47.38635" lon="-1.56892">
        <ele>75</ele>
        <time>2020-09-26T10:36:28.000Z</time>
      </trkpt>
      <trkpt lat="47.38637" lon="-1.56871">
        <ele>74</ele>
        <time>2020-09-26T10:36:30.000Z</time>
      </trkpt>
      <trkpt lat="47.38638" lon="-1.56849">
        <ele>74</ele>
        <time>2020-09-26T10:36:32.000Z</time>
      </trkpt>
      <trkpt lat="47.3864" lon="-1.56827">
        <ele>73</ele>
        <time>2020-09-26T10:36:34.000Z</time>
      </trkpt>
      <trkpt lat="47.38642" lon="-1.56804">
        <ele>73</ele>
        <time>2020-09-26T10:36:36.000Z</time>
      </trkpt>
      <trkpt lat="47.38644" lon="-1.56783">
        <ele>73</ele>
        <time>2020-09-26T10:36:38.000Z</time>
      </trkpt>
      <trkpt lat="47.38646" lon="-1.5676">
        <ele>72</ele>
        <time>2020-09-26T10:36:40.000Z</time>
      </trkpt>
      <trkpt lat="47.38647" lon="-1.56738">
        <ele>72</ele>
        <time>2020-09-26T10:36:42.000Z</time>
      </trkpt>
      <trkpt lat="47.38649" lon="-1.56717">
        <ele>72</ele>
        <time>2020-09-26T10:36:44.000Z</time>
      </trkpt>
      <trkpt lat="47.38651" lon="-1.56694">
        <ele>72</ele>
        <time>2020-09-26T10:36:46.000Z</time>
      </trkpt>
      <trkpt lat="47.38653" lon="-1.56672">
        <ele>72</ele>
        <time>2020-09-26T10:36:48.000Z</time>
      </trkpt>
      <trkpt lat="47.38655" lon="-1.5665">
        <ele>71</ele>
        <time>2020-09-26T10:36:50.000Z</time>
      </trkpt>
      <trkpt lat="47.38657" lon="-1.56627">
        <ele>71</ele>
        <time>2020-09-26T10:36:52.000Z</time>
      </trkpt>
      <trkpt lat="47.38659" lon="-1.56606">
        <ele>71</ele>
        <time>2020-09-26T10:36:54.000Z</time>
      </trkpt>
      <trkpt lat="47.38661" lon="-1.56584">
        <ele>71</ele>
        <time>2020-09-26T10:36:56.000Z</time>
      </trkpt>
      <trkpt lat="47.3866" lon="-1.56563">
        <ele>71</ele>
        <time>2020-09-26T10:36:58.000Z</time>
      </trkpt>
      <trkpt lat="47.38659" lon="-1.56543">
        <ele>71</ele>
        <time>2020-09-26T10:37:00.000Z</time>
      </trkpt>
      <trkpt lat="47.38656" lon="-1.56523">
        <ele>71</ele>
        <time>2020-09-26T10:37:02.000Z</time>
      </trkpt>
      <trkpt lat="47.38652" lon="-1.56503">
        <ele>72</ele>
        <time>2020-09-26T10:37:04.000Z</time>
      </trkpt>
      <trkpt lat="47.38648" lon="-1.56484">
        <ele>73</ele>
        <time>2020-09-26T10:37:06.000Z</time>
      </trkpt>
      <trkpt lat="47.38645" lon="-1.56464">
        <ele>73</ele>
        <time>2020-09-26T10:37:08.000Z</time>
      </trkpt>
      <trkpt lat="47.38643" lon="-1.56445">
        <ele>73</ele>
        <time>2020-09-26T10:37:10.000Z</time>
      </trkpt>
      <trkpt lat="47.38641" lon="-1.56427">
        <ele>74</ele>
        <time>2020-09-26T10:37:12.000Z</time>
      </trkpt>
      <trkpt lat="47.38641" lon="-1.5641">
        <ele>74</ele>
        <time>2020-09-26T10:37:14.000Z</time>
      </trkpt>
      <trkpt lat="47.38641" lon="-1.56393">
        <ele>75</ele>
        <time>2020-09-26T10:37:16.000Z</time>
      </trkpt>
      <trkpt lat="47.38642" lon="-1.56376">
        <ele>75</ele>
        <time>2020-09-26T10:37:18.000Z</time>
      </trkpt>
      <trkpt lat="47.38643" lon="-1.5636">
        <ele>76</ele>
        <time>2020-09-26T10:37:20.000Z</time>
      </trkpt>
      <trkpt lat="47.38644" lon="-1.56345">
        <ele>77</ele>
        <time>2020-09-26T10:37:22.000Z</time>
      </trkpt>
      <trkpt lat="47.38645" lon="-1.56331">
        <ele>77</ele>
        <time>2020-09-26T10:37:24.000Z</time>
      </trkpt>
      <trkpt lat="47.38646" lon="-1.56315">
        <ele>77</ele>
        <time>2020-09-26T10:37:26.000Z</time>
      </trkpt>
      <trkpt lat="47.38646" lon="-1.563">
        <ele>78</ele>
        <time>2020-09-26T10:37:28.000Z</time>
      </trkpt>
      <trkpt lat="47.38647" lon="-1.56285">
        <ele>78</ele>
        <time>2020-09-26T10:37:30.000Z</time>
      </trkpt>
      <trkpt lat="47.38649" lon="-1.5627">
        <ele>79</ele>
        <time>2020-09-26T10:37:32.000Z</time>
      </trkpt>
      <trkpt lat="47.3865" lon="-1.56254">
        <ele>80</ele>
        <time>2020-09-26T10:37:34.000Z</time>
      </trkpt>
      <trkpt lat="47.38651" lon="-1.56239">
        <ele>80</ele>
        <time>2020-09-26T10:37:36.000Z</time>
      </trkpt>
      <trkpt lat="47.38652" lon="-1.56223">
        <ele>80</ele>
        <time>2020-09-26T10:37:38.000Z</time>
      </trkpt>
      <trkpt lat="47.38652" lon="-1.56207">
        <ele>80</ele>
        <time>2020-09-26T10:37:40.000Z</time>
      </trkpt>
      <trkpt lat="47.38651" lon="-1.56192">
        <ele>80</ele>
        <time>2020-09-26T10:37:42.000Z</time>
      </trkpt>
      <trkpt lat="47.38651" lon="-1.56177">
        <ele>81</ele>
        <time>2020-09-26T10:37:44.000Z</time>
      </trkpt>
      <trkpt lat="47.3865" lon="-1.56161">
        <ele>82</ele>
        <time>2020-09-26T10:37:46.000Z</time>
      </trkpt>
      <trkpt lat="47.38648" lon="-1.56145">
        <ele>82</ele>
        <time>2020-09-26T10:37:48.000Z</time>
      </trkpt>
      <trkpt lat="47.38647" lon="-1.5613">
        <ele>82</ele>
        <time>2020-09-26T10:37:50.000Z</time>
      </trkpt>
      <trkpt lat="47.38644" lon="-1.56114">
        <ele>82</ele>
        <time>2020-09-26T10:37:52.000Z</time>
      </trkpt>
      <trkpt lat="47.38641" lon="-1.56098">
        <ele>82</ele>
        <time>2020-09-26T10:37:54.000Z</time>
      </trkpt>
      <trkpt lat="47.38637" lon="-1.56084">
        <ele>82</ele>
        <time>2020-09-26T10:37:56.000Z</time>
      </trkpt>
      <trkpt lat="47.38634" lon="-1.56069">
        <ele>83</ele>
        <time>2020-09-26T10:37:58.000Z</time>
      </trkpt>
      <trkpt lat="47.38631" lon="-1.56054">
        <ele>83</ele>
        <time>2020-09-26T10:38:00.000Z</time>
      </trkpt>
      <trkpt lat="47.38628" lon="-1.56038">
        <ele>83</ele>
        <time>2020-09-26T10:38:02.000Z</time>
      </trkpt>
      <trkpt lat="47.38624" lon="-1.56022">
        <ele>83</ele>
        <time>2020-09-26T10:38:04.000Z</time>
      </trkpt>
      <trkpt lat="47.38621" lon="-1.56009">
        <ele>84</ele>
        <time>2020-09-26T10:38:06.000Z</time>
      </trkpt>
      <trkpt lat="47.38618" lon="-1.55994">
        <ele>85</ele>
        <time>2020-09-26T10:38:08.000Z</time>
      </trkpt>
      <trkpt lat="47.38616" lon="-1.5598">
        <ele>85</ele>
        <time>2020-09-26T10:38:10.000Z</time>
      </trkpt>
      <trkpt lat="47.38613" lon="-1.55963">
        <ele>85</ele>
        <time>2020-09-26T10:38:13.000Z</time>
      </trkpt>
      <trkpt lat="47.38619" lon="-1.5595">
        <ele>85</ele>
        <time>2020-09-26T10:38:16.000Z</time>
      </trkpt>
      <trkpt lat="47.38627" lon="-1.55943">
        <ele>85</ele>
        <time>2020-09-26T10:38:18.000Z</time>
      </trkpt>
      <trkpt lat="47.38639" lon="-1.55936">
        <ele>85</ele>
        <time>2020-09-26T10:38:20.000Z</time>
      </trkpt>
      <trkpt lat="47.38651" lon="-1.55928">
        <ele>85</ele>
        <time>2020-09-26T10:38:22.000Z</time>
      </trkpt>
      <trkpt lat="47.38662" lon="-1.55917">
        <ele>85</ele>
        <time>2020-09-26T10:38:24.000Z</time>
      </trkpt>
      <trkpt lat="47.3867" lon="-1.55904">
        <ele>85</ele>
        <time>2020-09-26T10:38:26.000Z</time>
      </trkpt>
      <trkpt lat="47.38675" lon="-1.55886">
        <ele>85</ele>
        <time>2020-09-26T10:38:28.000Z</time>
      </trkpt>
      <trkpt lat="47.38681" lon="-1.55867">
        <ele>85</ele>
        <time>2020-09-26T10:38:30.000Z</time>
      </trkpt>
      <trkpt lat="47.38686" lon="-1.55849">
        <ele>84</ele>
        <time>2020-09-26T10:38:32.000Z</time>
      </trkpt>
      <trkpt lat="47.38691" lon="-1.55829">
        <ele>83</ele>
        <time>2020-09-26T10:38:34.000Z</time>
      </trkpt>
      <trkpt lat="47.38697" lon="-1.55811">
        <ele>83</ele>
        <time>2020-09-26T10:38:36.000Z</time>
      </trkpt>
      <trkpt lat="47.38703" lon="-1.55793">
        <ele>83</ele>
        <time>2020-09-26T10:38:38.000Z</time>
      </trkpt>
      <trkpt lat="47.38709" lon="-1.55775">
        <ele>82</ele>
        <time>2020-09-26T10:38:40.000Z</time>
      </trkpt>
      <trkpt lat="47.38715" lon="-1.55757">
        <ele>82</ele>
        <time>2020-09-26T10:38:42.000Z</time>
      </trkpt>
      <trkpt lat="47.38721" lon="-1.5574">
        <ele>83</ele>
        <time>2020-09-26T10:38:44.000Z</time>
      </trkpt>
      <trkpt lat="47.38729" lon="-1.55724">
        <ele>83</ele>
        <time>2020-09-26T10:38:46.000Z</time>
      </trkpt>
      <trkpt lat="47.38737" lon="-1.55709">
        <ele>83</ele>
        <time>2020-09-26T10:38:48.000Z</time>
      </trkpt>
      <trkpt lat="47.38745" lon="-1.55694">
        <ele>82</ele>
        <time>2020-09-26T10:38:50.000Z</time>
      </trkpt>
      <trkpt lat="47.38756" lon="-1.55682">
        <ele>82</ele>
        <time>2020-09-26T10:38:52.000Z</time>
      </trkpt>
      <trkpt lat="47.38766" lon="-1.55669">
        <ele>81</ele>
        <time>2020-09-26T10:38:54.000Z</time>
      </trkpt>
      <trkpt lat="47.38777" lon="-1.55656">
        <ele>81</ele>
        <time>2020-09-26T10:38:56.000Z</time>
      </trkpt>
      <trkpt lat="47.38787" lon="-1.55642">
        <ele>80</ele>
        <time>2020-09-26T10:38:58.000Z</time>
      </trkpt>
      <trkpt lat="47.38797" lon="-1.55627">
        <ele>80</ele>
        <time>2020-09-26T10:39:00.000Z</time>
      </trkpt>
      <trkpt lat="47.38808" lon="-1.55616">
        <ele>80</ele>
        <time>2020-09-26T10:39:02.000Z</time>
      </trkpt>
      <trkpt lat="47.38819" lon="-1.55604">
        <ele>79</ele>
        <time>2020-09-26T10:39:04.000Z</time>
      </trkpt>
      <trkpt lat="47.38831" lon="-1.55593">
        <ele>78</ele>
        <time>2020-09-26T10:39:06.000Z</time>
      </trkpt>
      <trkpt lat="47.38843" lon="-1.55584">
        <ele>78</ele>
        <time>2020-09-26T10:39:08.000Z</time>
      </trkpt>
      <trkpt lat="47.38856" lon="-1.55574">
        <ele>78</ele>
        <time>2020-09-26T10:39:10.000Z</time>
      </trkpt>
      <trkpt lat="47.38867" lon="-1.5556">
        <ele>77</ele>
        <time>2020-09-26T10:39:12.000Z</time>
      </trkpt>
      <trkpt lat="47.38877" lon="-1.55544">
        <ele>77</ele>
        <time>2020-09-26T10:39:14.000Z</time>
      </trkpt>
      <trkpt lat="47.38889" lon="-1.55534">
        <ele>77</ele>
        <time>2020-09-26T10:39:16.000Z</time>
      </trkpt>
      <trkpt lat="47.38902" lon="-1.55524">
        <ele>76</ele>
        <time>2020-09-26T10:39:18.000Z</time>
      </trkpt>
      <trkpt lat="47.38913" lon="-1.55511">
        <ele>76</ele>
        <time>2020-09-26T10:39:20.000Z</time>
      </trkpt>
      <trkpt lat="47.38925" lon="-1.55498">
        <ele>75</ele>
        <time>2020-09-26T10:39:22.000Z</time>
      </trkpt>
      <trkpt lat="47.38937" lon="-1.55484">
        <ele>74</ele>
        <time>2020-09-26T10:39:24.000Z</time>
      </trkpt>
      <trkpt lat="47.38948" lon="-1.55471">
        <ele>74</ele>
        <time>2020-09-26T10:39:26.000Z</time>
      </trkpt>
      <trkpt lat="47.3896" lon="-1.55457">
        <ele>74</ele>
        <time>2020-09-26T10:39:28.000Z</time>
      </trkpt>
      <trkpt lat="47.38971" lon="-1.55444">
        <ele>74</ele>
        <time>2020-09-26T10:39:30.000Z</time>
      </trkpt>
      <trkpt lat="47.38981" lon="-1.5543">
        <ele>74</ele>
        <time>2020-09-26T10:39:32.000Z</time>
      </trkpt>
      <trkpt lat="47.38991" lon="-1.55417">
        <ele>74</ele>
        <time>2020-09-26T10:39:34.000Z</time>
      </trkpt>
      <trkpt lat="47.39001" lon="-1.55403">
        <ele>73</ele>
        <time>2020-09-26T10:39:36.000Z</time>
      </trkpt>
      <trkpt lat="47.39012" lon="-1.55389">
        <ele>73</ele>
        <time>2020-09-26T10:39:38.000Z</time>
      </trkpt>
      <trkpt lat="47.39023" lon="-1.55374">
        <ele>73</ele>
        <time>2020-09-26T10:39:40.000Z</time>
      </trkpt>
      <trkpt lat="47.39033" lon="-1.5536">
        <ele>73</ele>
        <time>2020-09-26T10:39:42.000Z</time>
      </trkpt>
      <trkpt lat="47.39044" lon="-1.55346">
        <ele>73</ele>
        <time>2020-09-26T10:39:44.000Z</time>
      </trkpt>
      <trkpt lat="47.39054" lon="-1.55333">
        <ele>73</ele>
        <time>2020-09-26T10:39:46.000Z</time>
      </trkpt>
      <trkpt lat="47.39064" lon="-1.55319">
        <ele>73</ele>
        <time>2020-09-26T10:39:48.000Z</time>
      </trkpt>
      <trkpt lat="47.39074" lon="-1.55306">
        <ele>74</ele>
        <time>2020-09-26T10:39:50.000Z</time>
      </trkpt>
      <trkpt lat="47.39084" lon="-1.55292">
        <ele>74</ele>
        <time>2020-09-26T10:39:52.000Z</time>
      </trkpt>
      <trkpt lat="47.39092" lon="-1.55279">
        <ele>75</ele>
        <time>2020-09-26T10:39:54.000Z</time>
      </trkpt>
      <trkpt lat="47.39101" lon="-1.55266">
        <ele>75</ele>
        <time>2020-09-26T10:39:56.000Z</time>
      </trkpt>
      <trkpt lat="47.3911" lon="-1.55252">
        <ele>75</ele>
        <time>2020-09-26T10:39:58.000Z</time>
      </trkpt>
      <trkpt lat="47.39118" lon="-1.55238">
        <ele>76</ele>
        <time>2020-09-26T10:40:00.000Z</time>
      </trkpt>
      <trkpt lat="47.39127" lon="-1.55223">
        <ele>76</ele>
        <time>2020-09-26T10:40:02.000Z</time>
      </trkpt>
      <trkpt lat="47.39135" lon="-1.55208">
        <ele>76</ele>
        <time>2020-09-26T10:40:04.000Z</time>
      </trkpt>
      <trkpt lat="47.39144" lon="-1.55193">
        <ele>77</ele>
        <time>2020-09-26T10:40:06.000Z</time>
      </trkpt>
      <trkpt lat="47.39153" lon="-1.55178">
        <ele>77</ele>
        <time>2020-09-26T10:40:08.000Z</time>
      </trkpt>
      <trkpt lat="47.39162" lon="-1.55164">
        <ele>77</ele>
        <time>2020-09-26T10:40:10.000Z</time>
      </trkpt>
      <trkpt lat="47.3917" lon="-1.55149">
        <ele>77</ele>
        <time>2020-09-26T10:40:12.000Z</time>
      </trkpt>
      <trkpt lat="47.39178" lon="-1.55134">
        <ele>77</ele>
        <time>2020-09-26T10:40:14.000Z</time>
      </trkpt>
      <trkpt lat="47.39187" lon="-1.55119">
        <ele>77</ele>
        <time>2020-09-26T10:40:16.000Z</time>
      </trkpt>
      <trkpt lat="47.39195" lon="-1.55104">
        <ele>77</ele>
        <time>2020-09-26T10:40:18.000Z</time>
      </trkpt>
      <trkpt lat="47.39203" lon="-1.55089">
        <ele>77</ele>
        <time>2020-09-26T10:40:20.000Z</time>
      </trkpt>
      <trkpt lat="47.39212" lon="-1.55074">
        <ele>76</ele>
        <time>2020-09-26T10:40:22.000Z</time>
      </trkpt>
      <trkpt lat="47.39221" lon="-1.55058">
        <ele>76</ele>
        <time>2020-09-26T10:40:24.000Z</time>
      </trkpt>
      <trkpt lat="47.39229" lon="-1.55042">
        <ele>76</ele>
        <time>2020-09-26T10:40:26.000Z</time>
      </trkpt>
      <trkpt lat="47.39238" lon="-1.55026">
        <ele>75</ele>
        <time>2020-09-26T10:40:28.000Z</time>
      </trkpt>
      <trkpt lat="47.39247" lon="-1.55011">
        <ele>75</ele>
        <time>2020-09-26T10:40:30.000Z</time>
      </trkpt>
      <trkpt lat="47.39256" lon="-1.54995">
        <ele>74</ele>
        <time>2020-09-26T10:40:32.000Z</time>
      </trkpt>
      <trkpt lat="47.39265" lon="-1.54979">
        <ele>74</ele>
        <time>2020-09-26T10:40:34.000Z</time>
      </trkpt>
      <trkpt lat="47.39274" lon="-1.54963">
        <ele>73</ele>
        <time>2020-09-26T10:40:36.000Z</time>
      </trkpt>
      <trkpt lat="47.39284" lon="-1.54945">
        <ele>73</ele>
        <time>2020-09-26T10:40:38.000Z</time>
      </trkpt>
      <trkpt lat="47.39294" lon="-1.54928">
        <ele>72</ele>
        <time>2020-09-26T10:40:40.000Z</time>
      </trkpt>
      <trkpt lat="47.39305" lon="-1.54909">
        <ele>71</ele>
        <time>2020-09-26T10:40:42.000Z</time>
      </trkpt>
      <trkpt lat="47.39316" lon="-1.54889">
        <ele>70</ele>
        <time>2020-09-26T10:40:44.000Z</time>
      </trkpt>
      <trkpt lat="47.39326" lon="-1.54869">
        <ele>69</ele>
        <time>2020-09-26T10:40:46.000Z</time>
      </trkpt>
      <trkpt lat="47.39336" lon="-1.54848">
        <ele>68</ele>
        <time>2020-09-26T10:40:48.000Z</time>
      </trkpt>
      <trkpt lat="47.39345" lon="-1.54826">
        <ele>67</ele>
        <time>2020-09-26T10:40:50.000Z</time>
      </trkpt>
      <trkpt lat="47.39354" lon="-1.54803">
        <ele>66</ele>
        <time>2020-09-26T10:40:52.000Z</time>
      </trkpt>
      <trkpt lat="47.39362" lon="-1.5478">
        <ele>66</ele>
        <time>2020-09-26T10:40:54.000Z</time>
      </trkpt>
      <trkpt lat="47.39369" lon="-1.54757">
        <ele>65</ele>
        <time>2020-09-26T10:40:56.000Z</time>
      </trkpt>
      <trkpt lat="47.39376" lon="-1.54734">
        <ele>65</ele>
        <time>2020-09-26T10:40:58.000Z</time>
      </trkpt>
      <trkpt lat="47.39383" lon="-1.5471">
        <ele>64</ele>
        <time>2020-09-26T10:41:00.000Z</time>
      </trkpt>
      <trkpt lat="47.3939" lon="-1.54686">
        <ele>64</ele>
        <time>2020-09-26T10:41:02.000Z</time>
      </trkpt>
      <trkpt lat="47.39397" lon="-1.54662">
        <ele>63</ele>
        <time>2020-09-26T10:41:04.000Z</time>
      </trkpt>
      <trkpt lat="47.39403" lon="-1.54638">
        <ele>63</ele>
        <time>2020-09-26T10:41:06.000Z</time>
      </trkpt>
      <trkpt lat="47.3941" lon="-1.54615">
        <ele>63</ele>
        <time>2020-09-26T10:41:08.000Z</time>
      </trkpt>
      <trkpt lat="47.39417" lon="-1.54592">
        <ele>62</ele>
        <time>2020-09-26T10:41:10.000Z</time>
      </trkpt>
      <trkpt lat="47.39424" lon="-1.54569">
        <ele>62</ele>
        <time>2020-09-26T10:41:12.000Z</time>
      </trkpt>
      <trkpt lat="47.39432" lon="-1.54547">
        <ele>62</ele>
        <time>2020-09-26T10:41:14.000Z</time>
      </trkpt>
      <trkpt lat="47.39439" lon="-1.54526">
        <ele>62</ele>
        <time>2020-09-26T10:41:16.000Z</time>
      </trkpt>
      <trkpt lat="47.39449" lon="-1.54508">
        <ele>62</ele>
        <time>2020-09-26T10:41:18.000Z</time>
      </trkpt>
      <trkpt lat="47.3946" lon="-1.54491">
        <ele>63</ele>
        <time>2020-09-26T10:41:20.000Z</time>
      </trkpt>
      <trkpt lat="47.39472" lon="-1.54479">
        <ele>63</ele>
        <time>2020-09-26T10:41:22.000Z</time>
      </trkpt>
      <trkpt lat="47.39483" lon="-1.54468">
        <ele>63</ele>
        <time>2020-09-26T10:41:24.000Z</time>
      </trkpt>
      <trkpt lat="47.39494" lon="-1.5446">
        <ele>64</ele>
        <time>2020-09-26T10:41:26.000Z</time>
      </trkpt>
      <trkpt lat="47.39504" lon="-1.54453">
        <ele>64</ele>
        <time>2020-09-26T10:41:28.000Z</time>
      </trkpt>
      <trkpt lat="47.39515" lon="-1.54445">
        <ele>64</ele>
        <time>2020-09-26T10:41:30.000Z</time>
      </trkpt>
      <trkpt lat="47.39525" lon="-1.54438">
        <ele>65</ele>
        <time>2020-09-26T10:41:32.000Z</time>
      </trkpt>
      <trkpt lat="47.39535" lon="-1.54431">
        <ele>65</ele>
        <time>2020-09-26T10:41:34.000Z</time>
      </trkpt>
      <trkpt lat="47.39545" lon="-1.54424">
        <ele>66</ele>
        <time>2020-09-26T10:41:36.000Z</time>
      </trkpt>
      <trkpt lat="47.39555" lon="-1.54418">
        <ele>67</ele>
        <time>2020-09-26T10:41:38.000Z</time>
      </trkpt>
      <trkpt lat="47.39564" lon="-1.54411">
        <ele>67</ele>
        <time>2020-09-26T10:41:40.000Z</time>
      </trkpt>
      <trkpt lat="47.39575" lon="-1.54404">
        <ele>68</ele>
        <time>2020-09-26T10:41:42.000Z</time>
      </trkpt>
      <trkpt lat="47.39584" lon="-1.54396">
        <ele>69</ele>
        <time>2020-09-26T10:41:44.000Z</time>
      </trkpt>
      <trkpt lat="47.39594" lon="-1.54389">
        <ele>70</ele>
        <time>2020-09-26T10:41:46.000Z</time>
      </trkpt>
      <trkpt lat="47.39604" lon="-1.54382">
        <ele>71</ele>
        <time>2020-09-26T10:41:48.000Z</time>
      </trkpt>
      <trkpt lat="47.39614" lon="-1.54376">
        <ele>70</ele>
        <time>2020-09-26T10:41:50.000Z</time>
      </trkpt>
      <trkpt lat="47.39624" lon="-1.5437">
        <ele>71</ele>
        <time>2020-09-26T10:41:52.000Z</time>
      </trkpt>
      <trkpt lat="47.39634" lon="-1.54364">
        <ele>71</ele>
        <time>2020-09-26T10:41:54.000Z</time>
      </trkpt>
      <trkpt lat="47.39644" lon="-1.54358">
        <ele>72</ele>
        <time>2020-09-26T10:41:56.000Z</time>
      </trkpt>
      <trkpt lat="47.39655" lon="-1.54352">
        <ele>72</ele>
        <time>2020-09-26T10:41:58.000Z</time>
      </trkpt>
      <trkpt lat="47.39666" lon="-1.54346">
        <ele>72</ele>
        <time>2020-09-26T10:42:00.000Z</time>
      </trkpt>
      <trkpt lat="47.39678" lon="-1.54339">
        <ele>72</ele>
        <time>2020-09-26T10:42:02.000Z</time>
      </trkpt>
      <trkpt lat="47.3969" lon="-1.54331">
        <ele>71</ele>
        <time>2020-09-26T10:42:04.000Z</time>
      </trkpt>
      <trkpt lat="47.39703" lon="-1.54322">
        <ele>71</ele>
        <time>2020-09-26T10:42:06.000Z</time>
      </trkpt>
      <trkpt lat="47.39715" lon="-1.54313">
        <ele>70</ele>
        <time>2020-09-26T10:42:08.000Z</time>
      </trkpt>
      <trkpt lat="47.39727" lon="-1.54304">
        <ele>70</ele>
        <time>2020-09-26T10:42:10.000Z</time>
      </trkpt>
      <trkpt lat="47.39739" lon="-1.54294">
        <ele>69</ele>
        <time>2020-09-26T10:42:12.000Z</time>
      </trkpt>
      <trkpt lat="47.39752" lon="-1.54283">
        <ele>69</ele>
        <time>2020-09-26T10:42:14.000Z</time>
      </trkpt>
      <trkpt lat="47.39765" lon="-1.54272">
        <ele>69</ele>
        <time>2020-09-26T10:42:16.000Z</time>
      </trkpt>
      <trkpt lat="47.39778" lon="-1.54262">
        <ele>68</ele>
        <time>2020-09-26T10:42:18.000Z</time>
      </trkpt>
      <trkpt lat="47.39791" lon="-1.5425">
        <ele>68</ele>
        <time>2020-09-26T10:42:20.000Z</time>
      </trkpt>
      <trkpt lat="47.39804" lon="-1.5424">
        <ele>68</ele>
        <time>2020-09-26T10:42:22.000Z</time>
      </trkpt>
      <trkpt lat="47.39817" lon="-1.5423">
        <ele>68</ele>
        <time>2020-09-26T10:42:24.000Z</time>
      </trkpt>
      <trkpt lat="47.39829" lon="-1.54219">
        <ele>68</ele>
        <time>2020-09-26T10:42:26.000Z</time>
      </trkpt>
      <trkpt lat="47.39842" lon="-1.54208">
        <ele>67</ele>
        <time>2020-09-26T10:42:28.000Z</time>
      </trkpt>
      <trkpt lat="47.39853" lon="-1.54195">
        <ele>67</ele>
        <time>2020-09-26T10:42:30.000Z</time>
      </trkpt>
      <trkpt lat="47.39863" lon="-1.5418">
        <ele>67</ele>
        <time>2020-09-26T10:42:32.000Z</time>
      </trkpt>
      <trkpt lat="47.39872" lon="-1.54164">
        <ele>67</ele>
        <time>2020-09-26T10:42:34.000Z</time>
      </trkpt>
      <trkpt lat="47.39881" lon="-1.54148">
        <ele>66</ele>
        <time>2020-09-26T10:42:36.000Z</time>
      </trkpt>
      <trkpt lat="47.39889" lon="-1.54131">
        <ele>67</ele>
        <time>2020-09-26T10:42:38.000Z</time>
      </trkpt>
      <trkpt lat="47.39897" lon="-1.54115">
        <ele>67</ele>
        <time>2020-09-26T10:42:40.000Z</time>
      </trkpt>
      <trkpt lat="47.39907" lon="-1.54101">
        <ele>67</ele>
        <time>2020-09-26T10:42:42.000Z</time>
      </trkpt>
      <trkpt lat="47.39918" lon="-1.54088">
        <ele>67</ele>
        <time>2020-09-26T10:42:44.000Z</time>
      </trkpt>
      <trkpt lat="47.3993" lon="-1.54076">
        <ele>67</ele>
        <time>2020-09-26T10:42:46.000Z</time>
      </trkpt>
      <trkpt lat="47.39943" lon="-1.54068">
        <ele>66</ele>
        <time>2020-09-26T10:42:48.000Z</time>
      </trkpt>
      <trkpt lat="47.39956" lon="-1.54061">
        <ele>66</ele>
        <time>2020-09-26T10:42:50.000Z</time>
      </trkpt>
      <trkpt lat="47.3997" lon="-1.54056">
        <ele>66</ele>
        <time>2020-09-26T10:42:52.000Z</time>
      </trkpt>
      <trkpt lat="47.39985" lon="-1.54051">
        <ele>65</ele>
        <time>2020-09-26T10:42:54.000Z</time>
      </trkpt>
      <trkpt lat="47.39999" lon="-1.54046">
        <ele>65</ele>
        <time>2020-09-26T10:42:56.000Z</time>
      </trkpt>
      <trkpt lat="47.40013" lon="-1.5404">
        <ele>65</ele>
        <time>2020-09-26T10:42:58.000Z</time>
      </trkpt>
      <trkpt lat="47.40027" lon="-1.54035">
        <ele>65</ele>
        <time>2020-09-26T10:43:00.000Z</time>
      </trkpt>
      <trkpt lat="47.40041" lon="-1.54027">
        <ele>65</ele>
        <time>2020-09-26T10:43:02.000Z</time>
      </trkpt>
      <trkpt lat="47.40054" lon="-1.54017">
        <ele>64</ele>
        <time>2020-09-26T10:43:04.000Z</time>
      </trkpt>
      <trkpt lat="47.40068" lon="-1.54005">
        <ele>64</ele>
        <time>2020-09-26T10:43:06.000Z</time>
      </trkpt>
      <trkpt lat="47.40081" lon="-1.53993">
        <ele>64</ele>
        <time>2020-09-26T10:43:08.000Z</time>
      </trkpt>
      <trkpt lat="47.40094" lon="-1.53981">
        <ele>63</ele>
        <time>2020-09-26T10:43:10.000Z</time>
      </trkpt>
      <trkpt lat="47.40107" lon="-1.5397">
        <ele>62</ele>
        <time>2020-09-26T10:43:12.000Z</time>
      </trkpt>
      <trkpt lat="47.4012" lon="-1.53958">
        <ele>62</ele>
        <time>2020-09-26T10:43:14.000Z</time>
      </trkpt>
      <trkpt lat="47.40133" lon="-1.53945">
        <ele>62</ele>
        <time>2020-09-26T10:43:16.000Z</time>
      </trkpt>
      <trkpt lat="47.40146" lon="-1.53933">
        <ele>60</ele>
        <time>2020-09-26T10:43:18.000Z</time>
      </trkpt>
      <trkpt lat="47.40159" lon="-1.53919">
        <ele>59</ele>
        <time>2020-09-26T10:43:20.000Z</time>
      </trkpt>
      <trkpt lat="47.40173" lon="-1.53904">
        <ele>59</ele>
        <time>2020-09-26T10:43:22.000Z</time>
      </trkpt>
      <trkpt lat="47.40186" lon="-1.53888">
        <ele>58</ele>
        <time>2020-09-26T10:43:24.000Z</time>
      </trkpt>
      <trkpt lat="47.40199" lon="-1.53872">
        <ele>58</ele>
        <time>2020-09-26T10:43:26.000Z</time>
      </trkpt>
      <trkpt lat="47.40212" lon="-1.53857">
        <ele>57</ele>
        <time>2020-09-26T10:43:28.000Z</time>
      </trkpt>
      <trkpt lat="47.40226" lon="-1.53843">
        <ele>56</ele>
        <time>2020-09-26T10:43:30.000Z</time>
      </trkpt>
      <trkpt lat="47.40242" lon="-1.53834">
        <ele>56</ele>
        <time>2020-09-26T10:43:32.000Z</time>
      </trkpt>
      <trkpt lat="47.40258" lon="-1.53831">
        <ele>56</ele>
        <time>2020-09-26T10:43:34.000Z</time>
      </trkpt>
      <trkpt lat="47.40274" lon="-1.5383">
        <ele>56</ele>
        <time>2020-09-26T10:43:36.000Z</time>
      </trkpt>
      <trkpt lat="47.4029" lon="-1.5383">
        <ele>56</ele>
        <time>2020-09-26T10:43:38.000Z</time>
      </trkpt>
      <trkpt lat="47.40304" lon="-1.5383">
        <ele>56</ele>
        <time>2020-09-26T10:43:40.000Z</time>
      </trkpt>
      <trkpt lat="47.40319" lon="-1.5383">
        <ele>57</ele>
        <time>2020-09-26T10:43:42.000Z</time>
      </trkpt>
      <trkpt lat="47.40332" lon="-1.5383">
        <ele>57</ele>
        <time>2020-09-26T10:43:44.000Z</time>
      </trkpt>
      <trkpt lat="47.40344" lon="-1.53829">
        <ele>58</ele>
        <time>2020-09-26T10:43:46.000Z</time>
      </trkpt>
      <trkpt lat="47.40357" lon="-1.53827">
        <ele>58</ele>
        <time>2020-09-26T10:43:48.000Z</time>
      </trkpt>
      <trkpt lat="47.4037" lon="-1.53824">
        <ele>58</ele>
        <time>2020-09-26T10:43:50.000Z</time>
      </trkpt>
      <trkpt lat="47.40382" lon="-1.53819">
        <ele>58</ele>
        <time>2020-09-26T10:43:52.000Z</time>
      </trkpt>
      <trkpt lat="47.40396" lon="-1.53812">
        <ele>57</ele>
        <time>2020-09-26T10:43:54.000Z</time>
      </trkpt>
      <trkpt lat="47.40409" lon="-1.53803">
        <ele>57</ele>
        <time>2020-09-26T10:43:56.000Z</time>
      </trkpt>
      <trkpt lat="47.40421" lon="-1.53793">
        <ele>57</ele>
        <time>2020-09-26T10:43:58.000Z</time>
      </trkpt>
      <trkpt lat="47.40433" lon="-1.53781">
        <ele>57</ele>
        <time>2020-09-26T10:44:00.000Z</time>
      </trkpt>
      <trkpt lat="47.40446" lon="-1.53768">
        <ele>57</ele>
        <time>2020-09-26T10:44:02.000Z</time>
      </trkpt>
      <trkpt lat="47.40458" lon="-1.53755">
        <ele>57</ele>
        <time>2020-09-26T10:44:04.000Z</time>
      </trkpt>
      <trkpt lat="47.40471" lon="-1.53741">
        <ele>57</ele>
        <time>2020-09-26T10:44:06.000Z</time>
      </trkpt>
      <trkpt lat="47.40483" lon="-1.53728">
        <ele>56</ele>
        <time>2020-09-26T10:44:08.000Z</time>
      </trkpt>
      <trkpt lat="47.40495" lon="-1.53715">
        <ele>56</ele>
        <time>2020-09-26T10:44:10.000Z</time>
      </trkpt>
      <trkpt lat="47.40507" lon="-1.53702">
        <ele>55</ele>
        <time>2020-09-26T10:44:12.000Z</time>
      </trkpt>
      <trkpt lat="47.40518" lon="-1.53691">
        <ele>55</ele>
        <time>2020-09-26T10:44:14.000Z</time>
      </trkpt>
      <trkpt lat="47.4053" lon="-1.53679">
        <ele>55</ele>
        <time>2020-09-26T10:44:16.000Z</time>
      </trkpt>
      <trkpt lat="47.40541" lon="-1.53667">
        <ele>55</ele>
        <time>2020-09-26T10:44:18.000Z</time>
      </trkpt>
      <trkpt lat="47.40553" lon="-1.53656">
        <ele>55</ele>
        <time>2020-09-26T10:44:20.000Z</time>
      </trkpt>
      <trkpt lat="47.40564" lon="-1.53645">
        <ele>55</ele>
        <time>2020-09-26T10:44:22.000Z</time>
      </trkpt>
      <trkpt lat="47.40575" lon="-1.53632">
        <ele>54</ele>
        <time>2020-09-26T10:44:24.000Z</time>
      </trkpt>
      <trkpt lat="47.40586" lon="-1.53621">
        <ele>54</ele>
        <time>2020-09-26T10:44:26.000Z</time>
      </trkpt>
      <trkpt lat="47.40597" lon="-1.5361">
        <ele>54</ele>
        <time>2020-09-26T10:44:28.000Z</time>
      </trkpt>
      <trkpt lat="47.40608" lon="-1.53598">
        <ele>55</ele>
        <time>2020-09-26T10:44:30.000Z</time>
      </trkpt>
      <trkpt lat="47.40619" lon="-1.53586">
        <ele>54</ele>
        <time>2020-09-26T10:44:32.000Z</time>
      </trkpt>
      <trkpt lat="47.4063" lon="-1.53576">
        <ele>54</ele>
        <time>2020-09-26T10:44:34.000Z</time>
      </trkpt>
      <trkpt lat="47.40642" lon="-1.53565">
        <ele>54</ele>
        <time>2020-09-26T10:44:36.000Z</time>
      </trkpt>
      <trkpt lat="47.40653" lon="-1.53554">
        <ele>55</ele>
        <time>2020-09-26T10:44:38.000Z</time>
      </trkpt>
      <trkpt lat="47.40665" lon="-1.53547">
        <ele>55</ele>
        <time>2020-09-26T10:44:40.000Z</time>
      </trkpt>
      <trkpt lat="47.40678" lon="-1.53542">
        <ele>55</ele>
        <time>2020-09-26T10:44:42.000Z</time>
      </trkpt>
      <trkpt lat="47.40691" lon="-1.53539">
        <ele>55</ele>
        <time>2020-09-26T10:44:44.000Z</time>
      </trkpt>
      <trkpt lat="47.40703" lon="-1.53537">
        <ele>55</ele>
        <time>2020-09-26T10:44:46.000Z</time>
      </trkpt>
      <trkpt lat="47.40716" lon="-1.53536">
        <ele>55</ele>
        <time>2020-09-26T10:44:48.000Z</time>
      </trkpt>
      <trkpt lat="47.40729" lon="-1.53534">
        <ele>55</ele>
        <time>2020-09-26T10:44:50.000Z</time>
      </trkpt>
      <trkpt lat="47.40741" lon="-1.53531">
        <ele>55</ele>
        <time>2020-09-26T10:44:52.000Z</time>
      </trkpt>
      <trkpt lat="47.40754" lon="-1.53529">
        <ele>56</ele>
        <time>2020-09-26T10:44:54.000Z</time>
      </trkpt>
      <trkpt lat="47.40767" lon="-1.53527">
        <ele>56</ele>
        <time>2020-09-26T10:44:56.000Z</time>
      </trkpt>
      <trkpt lat="47.40779" lon="-1.53526">
        <ele>56</ele>
        <time>2020-09-26T10:44:58.000Z</time>
      </trkpt>
      <trkpt lat="47.40792" lon="-1.53525">
        <ele>56</ele>
        <time>2020-09-26T10:45:00.000Z</time>
      </trkpt>
      <trkpt lat="47.40805" lon="-1.53523">
        <ele>56</ele>
        <time>2020-09-26T10:45:02.000Z</time>
      </trkpt>
      <trkpt lat="47.40818" lon="-1.53522">
        <ele>56</ele>
        <time>2020-09-26T10:45:04.000Z</time>
      </trkpt>
      <trkpt lat="47.4083" lon="-1.53519">
        <ele>56</ele>
        <time>2020-09-26T10:45:06.000Z</time>
      </trkpt>
      <trkpt lat="47.40842" lon="-1.53518">
        <ele>57</ele>
        <time>2020-09-26T10:45:08.000Z</time>
      </trkpt>
      <trkpt lat="47.40855" lon="-1.53518">
        <ele>57</ele>
        <time>2020-09-26T10:45:10.000Z</time>
      </trkpt>
      <trkpt lat="47.40868" lon="-1.53519">
        <ele>57</ele>
        <time>2020-09-26T10:45:12.000Z</time>
      </trkpt>
      <trkpt lat="47.40881" lon="-1.53521">
        <ele>57</ele>
        <time>2020-09-26T10:45:14.000Z</time>
      </trkpt>
      <trkpt lat="47.40895" lon="-1.53524">
        <ele>57</ele>
        <time>2020-09-26T10:45:16.000Z</time>
      </trkpt>
      <trkpt lat="47.40908" lon="-1.53527">
        <ele>57</ele>
        <time>2020-09-26T10:45:18.000Z</time>
      </trkpt>
      <trkpt lat="47.40922" lon="-1.53529">
        <ele>57</ele>
        <time>2020-09-26T10:45:20.000Z</time>
      </trkpt>
      <trkpt lat="47.40936" lon="-1.53532">
        <ele>57</ele>
        <time>2020-09-26T10:45:22.000Z</time>
      </trkpt>
      <trkpt lat="47.4095" lon="-1.53534">
        <ele>57</ele>
        <time>2020-09-26T10:45:24.000Z</time>
      </trkpt>
      <trkpt lat="47.40963" lon="-1.53537">
        <ele>57</ele>
        <time>2020-09-26T10:45:26.000Z</time>
      </trkpt>
      <trkpt lat="47.40977" lon="-1.53537">
        <ele>57</ele>
        <time>2020-09-26T10:45:28.000Z</time>
      </trkpt>
      <trkpt lat="47.40991" lon="-1.53533">
        <ele>56</ele>
        <time>2020-09-26T10:45:30.000Z</time>
      </trkpt>
      <trkpt lat="47.41003" lon="-1.53525">
        <ele>56</ele>
        <time>2020-09-26T10:45:32.000Z</time>
      </trkpt>
      <trkpt lat="47.41012" lon="-1.53511">
        <ele>56</ele>
        <time>2020-09-26T10:45:34.000Z</time>
      </trkpt>
      <trkpt lat="47.41019" lon="-1.53495">
        <ele>57</ele>
        <time>2020-09-26T10:45:36.000Z</time>
      </trkpt>
      <trkpt lat="47.41027" lon="-1.5348">
        <ele>57</ele>
        <time>2020-09-26T10:45:38.000Z</time>
      </trkpt>
      <trkpt lat="47.41034" lon="-1.53464">
        <ele>57</ele>
        <time>2020-09-26T10:45:40.000Z</time>
      </trkpt>
      <trkpt lat="47.41042" lon="-1.53447">
        <ele>56</ele>
        <time>2020-09-26T10:45:42.000Z</time>
      </trkpt>
      <trkpt lat="47.41051" lon="-1.53429">
        <ele>55</ele>
        <time>2020-09-26T10:45:44.000Z</time>
      </trkpt>
      <trkpt lat="47.41062" lon="-1.53411">
        <ele>55</ele>
        <time>2020-09-26T10:45:46.000Z</time>
      </trkpt>
      <trkpt lat="47.41076" lon="-1.534">
        <ele>55</ele>
        <time>2020-09-26T10:45:48.000Z</time>
      </trkpt>
      <trkpt lat="47.41091" lon="-1.53394">
        <ele>56</ele>
        <time>2020-09-26T10:45:50.000Z</time>
      </trkpt>
      <trkpt lat="47.41106" lon="-1.53392">
        <ele>55</ele>
        <time>2020-09-26T10:45:52.000Z</time>
      </trkpt>
      <trkpt lat="47.4112" lon="-1.53391">
        <ele>55</ele>
        <time>2020-09-26T10:45:54.000Z</time>
      </trkpt>
      <trkpt lat="47.41133" lon="-1.53389">
        <ele>56</ele>
        <time>2020-09-26T10:45:56.000Z</time>
      </trkpt>
      <trkpt lat="47.41146" lon="-1.53386">
        <ele>57</ele>
        <time>2020-09-26T10:45:58.000Z</time>
      </trkpt>
      <trkpt lat="47.41159" lon="-1.53384">
        <ele>57</ele>
        <time>2020-09-26T10:46:00.000Z</time>
      </trkpt>
      <trkpt lat="47.41171" lon="-1.53381">
        <ele>58</ele>
        <time>2020-09-26T10:46:02.000Z</time>
      </trkpt>
      <trkpt lat="47.41185" lon="-1.53378">
        <ele>58</ele>
        <time>2020-09-26T10:46:04.000Z</time>
      </trkpt>
      <trkpt lat="47.41198" lon="-1.53373">
        <ele>58</ele>
        <time>2020-09-26T10:46:06.000Z</time>
      </trkpt>
      <trkpt lat="47.4121" lon="-1.53366">
        <ele>58</ele>
        <time>2020-09-26T10:46:08.000Z</time>
      </trkpt>
      <trkpt lat="47.41222" lon="-1.53359">
        <ele>58</ele>
        <time>2020-09-26T10:46:10.000Z</time>
      </trkpt>
      <trkpt lat="47.41232" lon="-1.53348">
        <ele>58</ele>
        <time>2020-09-26T10:46:12.000Z</time>
      </trkpt>
      <trkpt lat="47.41242" lon="-1.53335">
        <ele>58</ele>
        <time>2020-09-26T10:46:14.000Z</time>
      </trkpt>
      <trkpt lat="47.4125" lon="-1.53321">
        <ele>58</ele>
        <time>2020-09-26T10:46:16.000Z</time>
      </trkpt>
      <trkpt lat="47.41259" lon="-1.53306">
        <ele>58</ele>
        <time>2020-09-26T10:46:18.000Z</time>
      </trkpt>
      <trkpt lat="47.41266" lon="-1.53291">
        <ele>59</ele>
        <time>2020-09-26T10:46:20.000Z</time>
      </trkpt>
      <trkpt lat="47.41274" lon="-1.53274">
        <ele>59</ele>
        <time>2020-09-26T10:46:22.000Z</time>
      </trkpt>
      <trkpt lat="47.41281" lon="-1.53257">
        <ele>60</ele>
        <time>2020-09-26T10:46:24.000Z</time>
      </trkpt>
      <trkpt lat="47.41287" lon="-1.53239">
        <ele>60</ele>
        <time>2020-09-26T10:46:26.000Z</time>
      </trkpt>
      <trkpt lat="47.41294" lon="-1.53223">
        <ele>60</ele>
        <time>2020-09-26T10:46:28.000Z</time>
      </trkpt>
      <trkpt lat="47.41302" lon="-1.53206">
        <ele>60</ele>
        <time>2020-09-26T10:46:30.000Z</time>
      </trkpt>
      <trkpt lat="47.41309" lon="-1.53189">
        <ele>60</ele>
        <time>2020-09-26T10:46:32.000Z</time>
      </trkpt>
      <trkpt lat="47.41316" lon="-1.53173">
        <ele>59</ele>
        <time>2020-09-26T10:46:34.000Z</time>
      </trkpt>
      <trkpt lat="47.41323" lon="-1.53156">
        <ele>59</ele>
        <time>2020-09-26T10:46:36.000Z</time>
      </trkpt>
      <trkpt lat="47.4133" lon="-1.53139">
        <ele>59</ele>
        <time>2020-09-26T10:46:38.000Z</time>
      </trkpt>
      <trkpt lat="47.41337" lon="-1.53123">
        <ele>59</ele>
        <time>2020-09-26T10:46:40.000Z</time>
      </trkpt>
      <trkpt lat="47.41345" lon="-1.53107">
        <ele>59</ele>
        <time>2020-09-26T10:46:42.000Z</time>
      </trkpt>
      <trkpt lat="47.41353" lon="-1.53092">
        <ele>59</ele>
        <time>2020-09-26T10:46:44.000Z</time>
      </trkpt>
      <trkpt lat="47.41361" lon="-1.53076">
        <ele>59</ele>
        <time>2020-09-26T10:46:46.000Z</time>
      </trkpt>
      <trkpt lat="47.41369" lon="-1.53061">
        <ele>59</ele>
        <time>2020-09-26T10:46:48.000Z</time>
      </trkpt>
      <trkpt lat="47.41378" lon="-1.53046">
        <ele>59</ele>
        <time>2020-09-26T10:46:50.000Z</time>
      </trkpt>
      <trkpt lat="47.41387" lon="-1.53032">
        <ele>59</ele>
        <time>2020-09-26T10:46:52.000Z</time>
      </trkpt>
      <trkpt lat="47.41397" lon="-1.53018">
        <ele>59</ele>
        <time>2020-09-26T10:46:54.000Z</time>
      </trkpt>
      <trkpt lat="47.41406" lon="-1.53004">
        <ele>59</ele>
        <time>2020-09-26T10:46:56.000Z</time>
      </trkpt>
      <trkpt lat="47.41416" lon="-1.5299">
        <ele>59</ele>
        <time>2020-09-26T10:46:58.000Z</time>
      </trkpt>
      <trkpt lat="47.41426" lon="-1.52976">
        <ele>59</ele>
        <time>2020-09-26T10:47:00.000Z</time>
      </trkpt>
      <trkpt lat="47.41436" lon="-1.52961">
        <ele>59</ele>
        <time>2020-09-26T10:47:02.000Z</time>
      </trkpt>
      <trkpt lat="47.41446" lon="-1.52947">
        <ele>59</ele>
        <time>2020-09-26T10:47:04.000Z</time>
      </trkpt>
      <trkpt lat="47.41456" lon="-1.52933">
        <ele>59</ele>
        <time>2020-09-26T10:47:06.000Z</time>
      </trkpt>
      <trkpt lat="47.41466" lon="-1.52918">
        <ele>59</ele>
        <time>2020-09-26T10:47:08.000Z</time>
      </trkpt>
      <trkpt lat="47.41476" lon="-1.52904">
        <ele>59</ele>
        <time>2020-09-26T10:47:10.000Z</time>
      </trkpt>
      <trkpt lat="47.41486" lon="-1.5289">
        <ele>59</ele>
        <time>2020-09-26T10:47:12.000Z</time>
      </trkpt>
      <trkpt lat="47.41495" lon="-1.52876">
        <ele>59</ele>
        <time>2020-09-26T10:47:14.000Z</time>
      </trkpt>
      <trkpt lat="47.41505" lon="-1.5286">
        <ele>59</ele>
        <time>2020-09-26T10:47:16.000Z</time>
      </trkpt>
      <trkpt lat="47.41514" lon="-1.52845">
        <ele>59</ele>
        <time>2020-09-26T10:47:18.000Z</time>
      </trkpt>
      <trkpt lat="47.41523" lon="-1.52829">
        <ele>59</ele>
        <time>2020-09-26T10:47:20.000Z</time>
      </trkpt>
      <trkpt lat="47.41531" lon="-1.52814">
        <ele>59</ele>
        <time>2020-09-26T10:47:22.000Z</time>
      </trkpt>
      <trkpt lat="47.4154" lon="-1.52798">
        <ele>59</ele>
        <time>2020-09-26T10:47:24.000Z</time>
      </trkpt>
      <trkpt lat="47.41548" lon="-1.52781">
        <ele>59</ele>
        <time>2020-09-26T10:47:26.000Z</time>
      </trkpt>
      <trkpt lat="47.41556" lon="-1.52764">
        <ele>59</ele>
        <time>2020-09-26T10:47:28.000Z</time>
      </trkpt>
      <trkpt lat="47.41564" lon="-1.52748">
        <ele>59</ele>
        <time>2020-09-26T10:47:30.000Z</time>
      </trkpt>
      <trkpt lat="47.41571" lon="-1.52731">
        <ele>59</ele>
        <time>2020-09-26T10:47:32.000Z</time>
      </trkpt>
      <trkpt lat="47.41579" lon="-1.52714">
        <ele>59</ele>
        <time>2020-09-26T10:47:34.000Z</time>
      </trkpt>
      <trkpt lat="47.41587" lon="-1.52697">
        <ele>59</ele>
        <time>2020-09-26T10:47:36.000Z</time>
      </trkpt>
      <trkpt lat="47.41594" lon="-1.52679">
        <ele>59</ele>
        <time>2020-09-26T10:47:38.000Z</time>
      </trkpt>
      <trkpt lat="47.41602" lon="-1.52661">
        <ele>59</ele>
        <time>2020-09-26T10:47:40.000Z</time>
      </trkpt>
      <trkpt lat="47.41609" lon="-1.52645">
        <ele>59</ele>
        <time>2020-09-26T10:47:42.000Z</time>
      </trkpt>
      <trkpt lat="47.41616" lon="-1.52627">
        <ele>58</ele>
        <time>2020-09-26T10:47:44.000Z</time>
      </trkpt>
      <trkpt lat="47.41623" lon="-1.52609">
        <ele>58</ele>
        <time>2020-09-26T10:47:46.000Z</time>
      </trkpt>
      <trkpt lat="47.4163" lon="-1.52592">
        <ele>58</ele>
        <time>2020-09-26T10:47:48.000Z</time>
      </trkpt>
      <trkpt lat="47.41637" lon="-1.52574">
        <ele>58</ele>
        <time>2020-09-26T10:47:50.000Z</time>
      </trkpt>
      <trkpt lat="47.41644" lon="-1.52557">
        <ele>58</ele>
        <time>2020-09-26T10:47:52.000Z</time>
      </trkpt>
      <trkpt lat="47.4165" lon="-1.52539">
        <ele>58</ele>
        <time>2020-09-26T10:47:54.000Z</time>
      </trkpt>
      <trkpt lat="47.41657" lon="-1.52521">
        <ele>58</ele>
        <time>2020-09-26T10:47:56.000Z</time>
      </trkpt>
      <trkpt lat="47.41664" lon="-1.52502">
        <ele>58</ele>
        <time>2020-09-26T10:47:58.000Z</time>
      </trkpt>
      <trkpt lat="47.4167" lon="-1.52484">
        <ele>58</ele>
        <time>2020-09-26T10:48:00.000Z</time>
      </trkpt>
      <trkpt lat="47.41677" lon="-1.52466">
        <ele>58</ele>
        <time>2020-09-26T10:48:02.000Z</time>
      </trkpt>
      <trkpt lat="47.41684" lon="-1.52447">
        <ele>58</ele>
        <time>2020-09-26T10:48:04.000Z</time>
      </trkpt>
      <trkpt lat="47.41691" lon="-1.52429">
        <ele>58</ele>
        <time>2020-09-26T10:48:06.000Z</time>
      </trkpt>
      <trkpt lat="47.41698" lon="-1.52411">
        <ele>58</ele>
        <time>2020-09-26T10:48:08.000Z</time>
      </trkpt>
      <trkpt lat="47.41705" lon="-1.52392">
        <ele>58</ele>
        <time>2020-09-26T10:48:10.000Z</time>
      </trkpt>
      <trkpt lat="47.41712" lon="-1.52374">
        <ele>58</ele>
        <time>2020-09-26T10:48:12.000Z</time>
      </trkpt>
      <trkpt lat="47.41719" lon="-1.52354">
        <ele>58</ele>
        <time>2020-09-26T10:48:14.000Z</time>
      </trkpt>
      <trkpt lat="47.41726" lon="-1.52335">
        <ele>57</ele>
        <time>2020-09-26T10:48:16.000Z</time>
      </trkpt>
      <trkpt lat="47.41733" lon="-1.52316">
        <ele>57</ele>
        <time>2020-09-26T10:48:18.000Z</time>
      </trkpt>
      <trkpt lat="47.41741" lon="-1.52297">
        <ele>57</ele>
        <time>2020-09-26T10:48:20.000Z</time>
      </trkpt>
      <trkpt lat="47.41748" lon="-1.52277">
        <ele>57</ele>
        <time>2020-09-26T10:48:22.000Z</time>
      </trkpt>
      <trkpt lat="47.41756" lon="-1.52257">
        <ele>57</ele>
        <time>2020-09-26T10:48:24.000Z</time>
      </trkpt>
      <trkpt lat="47.41764" lon="-1.52237">
        <ele>57</ele>
        <time>2020-09-26T10:48:26.000Z</time>
      </trkpt>
      <trkpt lat="47.41771" lon="-1.52217">
        <ele>57</ele>
        <time>2020-09-26T10:48:28.000Z</time>
      </trkpt>
      <trkpt lat="47.41778" lon="-1.52197">
        <ele>57</ele>
        <time>2020-09-26T10:48:30.000Z</time>
      </trkpt>
      <trkpt lat="47.41786" lon="-1.52177">
        <ele>56</ele>
        <time>2020-09-26T10:48:32.000Z</time>
      </trkpt>
      <trkpt lat="47.41794" lon="-1.52156">
        <ele>56</ele>
        <time>2020-09-26T10:48:34.000Z</time>
      </trkpt>
      <trkpt lat="47.41801" lon="-1.52135">
        <ele>56</ele>
        <time>2020-09-26T10:48:36.000Z</time>
      </trkpt>
      <trkpt lat="47.41809" lon="-1.52115">
        <ele>56</ele>
        <time>2020-09-26T10:48:38.000Z</time>
      </trkpt>
      <trkpt lat="47.41817" lon="-1.52095">
        <ele>55</ele>
        <time>2020-09-26T10:48:40.000Z</time>
      </trkpt>
      <trkpt lat="47.41825" lon="-1.52073">
        <ele>55</ele>
        <time>2020-09-26T10:48:42.000Z</time>
      </trkpt>
      <trkpt lat="47.41832" lon="-1.52053">
        <ele>55</ele>
        <time>2020-09-26T10:48:44.000Z</time>
      </trkpt>
      <trkpt lat="47.4184" lon="-1.52033">
        <ele>55</ele>
        <time>2020-09-26T10:48:46.000Z</time>
      </trkpt>
      <trkpt lat="47.41847" lon="-1.52013">
        <ele>55</ele>
        <time>2020-09-26T10:48:48.000Z</time>
      </trkpt>
      <trkpt lat="47.41855" lon="-1.51993">
        <ele>54</ele>
        <time>2020-09-26T10:48:50.000Z</time>
      </trkpt>
      <trkpt lat="47.41862" lon="-1.51973">
        <ele>54</ele>
        <time>2020-09-26T10:48:52.000Z</time>
      </trkpt>
      <trkpt lat="47.4187" lon="-1.51954">
        <ele>54</ele>
        <time>2020-09-26T10:48:54.000Z</time>
      </trkpt>
      <trkpt lat="47.41877" lon="-1.51934">
        <ele>54</ele>
        <time>2020-09-26T10:48:56.000Z</time>
      </trkpt>
      <trkpt lat="47.41884" lon="-1.51915">
        <ele>55</ele>
        <time>2020-09-26T10:48:58.000Z</time>
      </trkpt>
      <trkpt lat="47.41891" lon="-1.51896">
        <ele>55</ele>
        <time>2020-09-26T10:49:00.000Z</time>
      </trkpt>
      <trkpt lat="47.41899" lon="-1.51877">
        <ele>55</ele>
        <time>2020-09-26T10:49:02.000Z</time>
      </trkpt>
      <trkpt lat="47.41906" lon="-1.51858">
        <ele>55</ele>
        <time>2020-09-26T10:49:04.000Z</time>
      </trkpt>
      <trkpt lat="47.41913" lon="-1.5184">
        <ele>55</ele>
        <time>2020-09-26T10:49:06.000Z</time>
      </trkpt>
      <trkpt lat="47.4192" lon="-1.51821">
        <ele>55</ele>
        <time>2020-09-26T10:49:08.000Z</time>
      </trkpt>
      <trkpt lat="47.41927" lon="-1.51803">
        <ele>55</ele>
        <time>2020-09-26T10:49:10.000Z</time>
      </trkpt>
      <trkpt lat="47.41935" lon="-1.51785">
        <ele>55</ele>
        <time>2020-09-26T10:49:12.000Z</time>
      </trkpt>
      <trkpt lat="47.41942" lon="-1.51767">
        <ele>55</ele>
        <time>2020-09-26T10:49:14.000Z</time>
      </trkpt>
      <trkpt lat="47.41949" lon="-1.5175">
        <ele>55</ele>
        <time>2020-09-26T10:49:16.000Z</time>
      </trkpt>
      <trkpt lat="47.41957" lon="-1.51732">
        <ele>55</ele>
        <time>2020-09-26T10:49:18.000Z</time>
      </trkpt>
      <trkpt lat="47.41965" lon="-1.51715">
        <ele>56</ele>
        <time>2020-09-26T10:49:20.000Z</time>
      </trkpt>
      <trkpt lat="47.41974" lon="-1.51698">
        <ele>56</ele>
        <time>2020-09-26T10:49:22.000Z</time>
      </trkpt>
      <trkpt lat="47.41983" lon="-1.51682">
        <ele>56</ele>
        <time>2020-09-26T10:49:24.000Z</time>
      </trkpt>
      <trkpt lat="47.41992" lon="-1.51666">
        <ele>56</ele>
        <time>2020-09-26T10:49:26.000Z</time>
      </trkpt>
      <trkpt lat="47.42001" lon="-1.5165">
        <ele>56</ele>
        <time>2020-09-26T10:49:28.000Z</time>
      </trkpt>
      <trkpt lat="47.42011" lon="-1.51635">
        <ele>56</ele>
        <time>2020-09-26T10:49:30.000Z</time>
      </trkpt>
      <trkpt lat="47.42021" lon="-1.5162">
        <ele>56</ele>
        <time>2020-09-26T10:49:32.000Z</time>
      </trkpt>
      <trkpt lat="47.42031" lon="-1.51604">
        <ele>56</ele>
        <time>2020-09-26T10:49:34.000Z</time>
      </trkpt>
      <trkpt lat="47.42041" lon="-1.5159">
        <ele>57</ele>
        <time>2020-09-26T10:49:36.000Z</time>
      </trkpt>
      <trkpt lat="47.42051" lon="-1.51575">
        <ele>56</ele>
        <time>2020-09-26T10:49:38.000Z</time>
      </trkpt>
      <trkpt lat="47.42061" lon="-1.51559">
        <ele>57</ele>
        <time>2020-09-26T10:49:40.000Z</time>
      </trkpt>
      <trkpt lat="47.42071" lon="-1.51544">
        <ele>57</ele>
        <time>2020-09-26T10:49:42.000Z</time>
      </trkpt>
      <trkpt lat="47.42081" lon="-1.51528">
        <ele>57</ele>
        <time>2020-09-26T10:49:44.000Z</time>
      </trkpt>
      <trkpt lat="47.4209" lon="-1.51512">
        <ele>57</ele>
        <time>2020-09-26T10:49:46.000Z</time>
      </trkpt>
      <trkpt lat="47.421" lon="-1.51495">
        <ele>56</ele>
        <time>2020-09-26T10:49:48.000Z</time>
      </trkpt>
      <trkpt lat="47.42109" lon="-1.51478">
        <ele>56</ele>
        <time>2020-09-26T10:49:50.000Z</time>
      </trkpt>
      <trkpt lat="47.42118" lon="-1.5146">
        <ele>56</ele>
        <time>2020-09-26T10:49:52.000Z</time>
      </trkpt>
      <trkpt lat="47.42126" lon="-1.51442">
        <ele>56</ele>
        <time>2020-09-26T10:49:54.000Z</time>
      </trkpt>
      <trkpt lat="47.42134" lon="-1.51424">
        <ele>56</ele>
        <time>2020-09-26T10:49:56.000Z</time>
      </trkpt>
      <trkpt lat="47.42143" lon="-1.51407">
        <ele>56</ele>
        <time>2020-09-26T10:49:58.000Z</time>
      </trkpt>
      <trkpt lat="47.4215" lon="-1.51388">
        <ele>56</ele>
        <time>2020-09-26T10:50:00.000Z</time>
      </trkpt>
      <trkpt lat="47.42158" lon="-1.5137">
        <ele>56</ele>
        <time>2020-09-26T10:50:02.000Z</time>
      </trkpt>
      <trkpt lat="47.42166" lon="-1.51352">
        <ele>56</ele>
        <time>2020-09-26T10:50:04.000Z</time>
      </trkpt>
      <trkpt lat="47.42173" lon="-1.51334">
        <ele>57</ele>
        <time>2020-09-26T10:50:06.000Z</time>
      </trkpt>
      <trkpt lat="47.42181" lon="-1.51316">
        <ele>57</ele>
        <time>2020-09-26T10:50:08.000Z</time>
      </trkpt>
      <trkpt lat="47.42188" lon="-1.51299">
        <ele>57</ele>
        <time>2020-09-26T10:50:10.000Z</time>
      </trkpt>
      <trkpt lat="47.42196" lon="-1.5128">
        <ele>57</ele>
        <time>2020-09-26T10:50:12.000Z</time>
      </trkpt>
      <trkpt lat="47.42204" lon="-1.51262">
        <ele>57</ele>
        <time>2020-09-26T10:50:14.000Z</time>
      </trkpt>
      <trkpt lat="47.42212" lon="-1.51244">
        <ele>57</ele>
        <time>2020-09-26T10:50:16.000Z</time>
      </trkpt>
      <trkpt lat="47.42219" lon="-1.51226">
        <ele>57</ele>
        <time>2020-09-26T10:50:18.000Z</time>
      </trkpt>
      <trkpt lat="47.42227" lon="-1.51208">
        <ele>58</ele>
        <time>2020-09-26T10:50:20.000Z</time>
      </trkpt>
      <trkpt lat="47.42235" lon="-1.5119">
        <ele>58</ele>
        <time>2020-09-26T10:50:22.000Z</time>
      </trkpt>
      <trkpt lat="47.42243" lon="-1.51172">
        <ele>57</ele>
        <time>2020-09-26T10:50:24.000Z</time>
      </trkpt>
      <trkpt lat="47.42251" lon="-1.51154">
        <ele>58</ele>
        <time>2020-09-26T10:50:26.000Z</time>
      </trkpt>
      <trkpt lat="47.42259" lon="-1.51136">
        <ele>58</ele>
        <time>2020-09-26T10:50:28.000Z</time>
      </trkpt>
      <trkpt lat="47.42266" lon="-1.51117">
        <ele>58</ele>
        <time>2020-09-26T10:50:30.000Z</time>
      </trkpt>
      <trkpt lat="47.42274" lon="-1.511">
        <ele>58</ele>
        <time>2020-09-26T10:50:32.000Z</time>
      </trkpt>
      <trkpt lat="47.42282" lon="-1.51083">
        <ele>58</ele>
        <time>2020-09-26T10:50:34.000Z</time>
      </trkpt>
      <trkpt lat="47.42289" lon="-1.51066">
        <ele>58</ele>
        <time>2020-09-26T10:50:36.000Z</time>
      </trkpt>
      <trkpt lat="47.42296" lon="-1.51049">
        <ele>58</ele>
        <time>2020-09-26T10:50:38.000Z</time>
      </trkpt>
      <trkpt lat="47.42304" lon="-1.51032">
        <ele>58</ele>
        <time>2020-09-26T10:50:40.000Z</time>
      </trkpt>
      <trkpt lat="47.42311" lon="-1.51015">
        <ele>58</ele>
        <time>2020-09-26T10:50:42.000Z</time>
      </trkpt>
      <trkpt lat="47.42319" lon="-1.50998">
        <ele>58</ele>
        <time>2020-09-26T10:50:44.000Z</time>
      </trkpt>
      <trkpt lat="47.42326" lon="-1.5098">
        <ele>58</ele>
        <time>2020-09-26T10:50:46.000Z</time>
      </trkpt>
      <trkpt lat="47.42334" lon="-1.50963">
        <ele>58</ele>
        <time>2020-09-26T10:50:48.000Z</time>
      </trkpt>
      <trkpt lat="47.42342" lon="-1.50945">
        <ele>58</ele>
        <time>2020-09-26T10:50:50.000Z</time>
      </trkpt>
      <trkpt lat="47.42349" lon="-1.50928">
        <ele>58</ele>
        <time>2020-09-26T10:50:52.000Z</time>
      </trkpt>
      <trkpt lat="47.42358" lon="-1.50912">
        <ele>58</ele>
        <time>2020-09-26T10:50:54.000Z</time>
      </trkpt>
      <trkpt lat="47.42366" lon="-1.50896">
        <ele>58</ele>
        <time>2020-09-26T10:50:56.000Z</time>
      </trkpt>
      <trkpt lat="47.42376" lon="-1.50881">
        <ele>58</ele>
        <time>2020-09-26T10:50:58.000Z</time>
      </trkpt>
      <trkpt lat="47.42386" lon="-1.50867">
        <ele>58</ele>
        <time>2020-09-26T10:51:00.000Z</time>
      </trkpt>
      <trkpt lat="47.42397" lon="-1.50854">
        <ele>58</ele>
        <time>2020-09-26T10:51:02.000Z</time>
      </trkpt>
      <trkpt lat="47.42409" lon="-1.50843">
        <ele>58</ele>
        <time>2020-09-26T10:51:04.000Z</time>
      </trkpt>
      <trkpt lat="47.4242" lon="-1.50832">
        <ele>58</ele>
        <time>2020-09-26T10:51:06.000Z</time>
      </trkpt>
      <trkpt lat="47.42432" lon="-1.50821">
        <ele>59</ele>
        <time>2020-09-26T10:51:08.000Z</time>
      </trkpt>
      <trkpt lat="47.42444" lon="-1.50811">
        <ele>59</ele>
        <time>2020-09-26T10:51:10.000Z</time>
      </trkpt>
      <trkpt lat="47.42456" lon="-1.50802">
        <ele>59</ele>
        <time>2020-09-26T10:51:12.000Z</time>
      </trkpt>
      <trkpt lat="47.42468" lon="-1.50792">
        <ele>59</ele>
        <time>2020-09-26T10:51:14.000Z</time>
      </trkpt>
      <trkpt lat="47.42479" lon="-1.50782">
        <ele>59</ele>
        <time>2020-09-26T10:51:16.000Z</time>
      </trkpt>
      <trkpt lat="47.42491" lon="-1.50772">
        <ele>59</ele>
        <time>2020-09-26T10:51:18.000Z</time>
      </trkpt>
      <trkpt lat="47.42503" lon="-1.50763">
        <ele>59</ele>
        <time>2020-09-26T10:51:20.000Z</time>
      </trkpt>
      <trkpt lat="47.42515" lon="-1.50753">
        <ele>59</ele>
        <time>2020-09-26T10:51:22.000Z</time>
      </trkpt>
      <trkpt lat="47.42527" lon="-1.50744">
        <ele>59</ele>
        <time>2020-09-26T10:51:24.000Z</time>
      </trkpt>
      <trkpt lat="47.42539" lon="-1.50735">
        <ele>58</ele>
        <time>2020-09-26T10:51:26.000Z</time>
      </trkpt>
      <trkpt lat="47.42551" lon="-1.50724">
        <ele>58</ele>
        <time>2020-09-26T10:51:28.000Z</time>
      </trkpt>
      <trkpt lat="47.42563" lon="-1.50714">
        <ele>59</ele>
        <time>2020-09-26T10:51:30.000Z</time>
      </trkpt>
      <trkpt lat="47.42575" lon="-1.50704">
        <ele>58</ele>
        <time>2020-09-26T10:51:32.000Z</time>
      </trkpt>
      <trkpt lat="47.42587" lon="-1.50695">
        <ele>59</ele>
        <time>2020-09-26T10:51:34.000Z</time>
      </trkpt>
      <trkpt lat="47.42599" lon="-1.50685">
        <ele>59</ele>
        <time>2020-09-26T10:51:36.000Z</time>
      </trkpt>
      <trkpt lat="47.42611" lon="-1.50675">
        <ele>58</ele>
        <time>2020-09-26T10:51:38.000Z</time>
      </trkpt>
      <trkpt lat="47.42624" lon="-1.50665">
        <ele>59</ele>
        <time>2020-09-26T10:51:40.000Z</time>
      </trkpt>
      <trkpt lat="47.42635" lon="-1.50655">
        <ele>58</ele>
        <time>2020-09-26T10:51:42.000Z</time>
      </trkpt>
      <trkpt lat="47.42648" lon="-1.50645">
        <ele>59</ele>
        <time>2020-09-26T10:51:44.000Z</time>
      </trkpt>
      <trkpt lat="47.4266" lon="-1.50635">
        <ele>58</ele>
        <time>2020-09-26T10:51:46.000Z</time>
      </trkpt>
      <trkpt lat="47.42672" lon="-1.50625">
        <ele>59</ele>
        <time>2020-09-26T10:51:48.000Z</time>
      </trkpt>
      <trkpt lat="47.42684" lon="-1.50615">
        <ele>59</ele>
        <time>2020-09-26T10:51:50.000Z</time>
      </trkpt>
      <trkpt lat="47.42696" lon="-1.50606">
        <ele>59</ele>
        <time>2020-09-26T10:51:52.000Z</time>
      </trkpt>
      <trkpt lat="47.42708" lon="-1.50596">
        <ele>59</ele>
        <time>2020-09-26T10:51:54.000Z</time>
      </trkpt>
      <trkpt lat="47.4272" lon="-1.50586">
        <ele>59</ele>
        <time>2020-09-26T10:51:56.000Z</time>
      </trkpt>
      <trkpt lat="47.42732" lon="-1.50575">
        <ele>59</ele>
        <time>2020-09-26T10:51:58.000Z</time>
      </trkpt>
      <trkpt lat="47.42744" lon="-1.50566">
        <ele>59</ele>
        <time>2020-09-26T10:52:00.000Z</time>
      </trkpt>
      <trkpt lat="47.42756" lon="-1.50556">
        <ele>59</ele>
        <time>2020-09-26T10:52:02.000Z</time>
      </trkpt>
      <trkpt lat="47.42768" lon="-1.50546">
        <ele>59</ele>
        <time>2020-09-26T10:52:04.000Z</time>
      </trkpt>
      <trkpt lat="47.4278" lon="-1.50535">
        <ele>59</ele>
        <time>2020-09-26T10:52:06.000Z</time>
      </trkpt>
      <trkpt lat="47.42793" lon="-1.50525">
        <ele>59</ele>
        <time>2020-09-26T10:52:08.000Z</time>
      </trkpt>
      <trkpt lat="47.42806" lon="-1.50515">
        <ele>59</ele>
        <time>2020-09-26T10:52:10.000Z</time>
      </trkpt>
      <trkpt lat="47.42818" lon="-1.50505">
        <ele>59</ele>
        <time>2020-09-26T10:52:12.000Z</time>
      </trkpt>
      <trkpt lat="47.42831" lon="-1.50495">
        <ele>59</ele>
        <time>2020-09-26T10:52:14.000Z</time>
      </trkpt>
      <trkpt lat="47.42843" lon="-1.50485">
        <ele>58</ele>
        <time>2020-09-26T10:52:16.000Z</time>
      </trkpt>
      <trkpt lat="47.42855" lon="-1.50475">
        <ele>58</ele>
        <time>2020-09-26T10:52:18.000Z</time>
      </trkpt>
      <trkpt lat="47.42867" lon="-1.50466">
        <ele>58</ele>
        <time>2020-09-26T10:52:20.000Z</time>
      </trkpt>
      <trkpt lat="47.42879" lon="-1.50456">
        <ele>57</ele>
        <time>2020-09-26T10:52:22.000Z</time>
      </trkpt>
      <trkpt lat="47.42892" lon="-1.50445">
        <ele>57</ele>
        <time>2020-09-26T10:52:24.000Z</time>
      </trkpt>
      <trkpt lat="47.42904" lon="-1.50435">
        <ele>57</ele>
        <time>2020-09-26T10:52:26.000Z</time>
      </trkpt>
      <trkpt lat="47.42917" lon="-1.50425">
        <ele>57</ele>
        <time>2020-09-26T10:52:28.000Z</time>
      </trkpt>
      <trkpt lat="47.42929" lon="-1.50415">
        <ele>57</ele>
        <time>2020-09-26T10:52:30.000Z</time>
      </trkpt>
      <trkpt lat="47.42941" lon="-1.50405">
        <ele>57</ele>
        <time>2020-09-26T10:52:32.000Z</time>
      </trkpt>
      <trkpt lat="47.42952" lon="-1.50395">
        <ele>57</ele>
        <time>2020-09-26T10:52:34.000Z</time>
      </trkpt>
      <trkpt lat="47.42964" lon="-1.50386">
        <ele>57</ele>
        <time>2020-09-26T10:52:36.000Z</time>
      </trkpt>
      <trkpt lat="47.42976" lon="-1.50377">
        <ele>57</ele>
        <time>2020-09-26T10:52:38.000Z</time>
      </trkpt>
      <trkpt lat="47.42988" lon="-1.5037">
        <ele>57</ele>
        <time>2020-09-26T10:52:40.000Z</time>
      </trkpt>
      <trkpt lat="47.43001" lon="-1.50366">
        <ele>58</ele>
        <time>2020-09-26T10:52:42.000Z</time>
      </trkpt>
      <trkpt lat="47.43014" lon="-1.50365">
        <ele>58</ele>
        <time>2020-09-26T10:52:44.000Z</time>
      </trkpt>
      <trkpt lat="47.43028" lon="-1.50364">
        <ele>58</ele>
        <time>2020-09-26T10:52:46.000Z</time>
      </trkpt>
      <trkpt lat="47.43042" lon="-1.50362">
        <ele>58</ele>
        <time>2020-09-26T10:52:48.000Z</time>
      </trkpt>
      <trkpt lat="47.43055" lon="-1.50361">
        <ele>58</ele>
        <time>2020-09-26T10:52:50.000Z</time>
      </trkpt>
      <trkpt lat="47.43067" lon="-1.50357">
        <ele>57</ele>
        <time>2020-09-26T10:52:52.000Z</time>
      </trkpt>
      <trkpt lat="47.43078" lon="-1.50348">
        <ele>57</ele>
        <time>2020-09-26T10:52:54.000Z</time>
      </trkpt>
      <trkpt lat="47.43086" lon="-1.50334">
        <ele>57</ele>
        <time>2020-09-26T10:52:56.000Z</time>
      </trkpt>
      <trkpt lat="47.43091" lon="-1.50316">
        <ele>57</ele>
        <time>2020-09-26T10:52:58.000Z</time>
      </trkpt>
      <trkpt lat="47.43097" lon="-1.50297">
        <ele>57</ele>
        <time>2020-09-26T10:53:00.000Z</time>
      </trkpt>
      <trkpt lat="47.43104" lon="-1.50279">
        <ele>57</ele>
        <time>2020-09-26T10:53:02.000Z</time>
      </trkpt>
      <trkpt lat="47.43114" lon="-1.50264">
        <ele>58</ele>
        <time>2020-09-26T10:53:04.000Z</time>
      </trkpt>
      <trkpt lat="47.43126" lon="-1.50252">
        <ele>57</ele>
        <time>2020-09-26T10:53:06.000Z</time>
      </trkpt>
      <trkpt lat="47.43138" lon="-1.50242">
        <ele>57</ele>
        <time>2020-09-26T10:53:08.000Z</time>
      </trkpt>
      <trkpt lat="47.43151" lon="-1.50233">
        <ele>57</ele>
        <time>2020-09-26T10:53:10.000Z</time>
      </trkpt>
      <trkpt lat="47.43163" lon="-1.50223">
        <ele>57</ele>
        <time>2020-09-26T10:53:12.000Z</time>
      </trkpt>
      <trkpt lat="47.43175" lon="-1.50212">
        <ele>57</ele>
        <time>2020-09-26T10:53:14.000Z</time>
      </trkpt>
      <trkpt lat="47.43188" lon="-1.50202">
        <ele>57</ele>
        <time>2020-09-26T10:53:16.000Z</time>
      </trkpt>
      <trkpt lat="47.43201" lon="-1.50192">
        <ele>57</ele>
        <time>2020-09-26T10:53:18.000Z</time>
      </trkpt>
      <trkpt lat="47.43213" lon="-1.50181">
        <ele>58</ele>
        <time>2020-09-26T10:53:20.000Z</time>
      </trkpt>
      <trkpt lat="47.43226" lon="-1.50171">
        <ele>58</ele>
        <time>2020-09-26T10:53:22.000Z</time>
      </trkpt>
      <trkpt lat="47.43238" lon="-1.5016">
        <ele>57</ele>
        <time>2020-09-26T10:53:24.000Z</time>
      </trkpt>
      <trkpt lat="47.43251" lon="-1.5015">
        <ele>57</ele>
        <time>2020-09-26T10:53:26.000Z</time>
      </trkpt>
      <trkpt lat="47.43263" lon="-1.5014">
        <ele>57</ele>
        <time>2020-09-26T10:53:28.000Z</time>
      </trkpt>
      <trkpt lat="47.43276" lon="-1.5013">
        <ele>58</ele>
        <time>2020-09-26T10:53:30.000Z</time>
      </trkpt>
      <trkpt lat="47.43288" lon="-1.50119">
        <ele>58</ele>
        <time>2020-09-26T10:53:32.000Z</time>
      </trkpt>
      <trkpt lat="47.433" lon="-1.50109">
        <ele>58</ele>
        <time>2020-09-26T10:53:34.000Z</time>
      </trkpt>
      <trkpt lat="47.43312" lon="-1.50099">
        <ele>58</ele>
        <time>2020-09-26T10:53:36.000Z</time>
      </trkpt>
      <trkpt lat="47.43324" lon="-1.50088">
        <ele>57</ele>
        <time>2020-09-26T10:53:38.000Z</time>
      </trkpt>
      <trkpt lat="47.43337" lon="-1.50077">
        <ele>57</ele>
        <time>2020-09-26T10:53:40.000Z</time>
      </trkpt>
      <trkpt lat="47.4335" lon="-1.50066">
        <ele>57</ele>
        <time>2020-09-26T10:53:42.000Z</time>
      </trkpt>
      <trkpt lat="47.43363" lon="-1.50056">
        <ele>56</ele>
        <time>2020-09-26T10:53:44.000Z</time>
      </trkpt>
      <trkpt lat="47.43376" lon="-1.50046">
        <ele>56</ele>
        <time>2020-09-26T10:53:46.000Z</time>
      </trkpt>
      <trkpt lat="47.43389" lon="-1.50036">
        <ele>56</ele>
        <time>2020-09-26T10:53:48.000Z</time>
      </trkpt>
      <trkpt lat="47.43402" lon="-1.50026">
        <ele>56</ele>
        <time>2020-09-26T10:53:50.000Z</time>
      </trkpt>
      <trkpt lat="47.43415" lon="-1.50017">
        <ele>56</ele>
        <time>2020-09-26T10:53:52.000Z</time>
      </trkpt>
      <trkpt lat="47.43428" lon="-1.50008">
        <ele>56</ele>
        <time>2020-09-26T10:53:54.000Z</time>
      </trkpt>
      <trkpt lat="47.43442" lon="-1.50001">
        <ele>56</ele>
        <time>2020-09-26T10:53:56.000Z</time>
      </trkpt>
      <trkpt lat="47.43456" lon="-1.49995">
        <ele>56</ele>
        <time>2020-09-26T10:53:58.000Z</time>
      </trkpt>
      <trkpt lat="47.43471" lon="-1.49992">
        <ele>56</ele>
        <time>2020-09-26T10:54:00.000Z</time>
      </trkpt>
      <trkpt lat="47.43486" lon="-1.4999">
        <ele>55</ele>
        <time>2020-09-26T10:54:02.000Z</time>
      </trkpt>
      <trkpt lat="47.43501" lon="-1.49986">
        <ele>55</ele>
        <time>2020-09-26T10:54:04.000Z</time>
      </trkpt>
      <trkpt lat="47.43515" lon="-1.49984">
        <ele>55</ele>
        <time>2020-09-26T10:54:06.000Z</time>
      </trkpt>
      <trkpt lat="47.4353" lon="-1.49984">
        <ele>54</ele>
        <time>2020-09-26T10:54:08.000Z</time>
      </trkpt>
      <trkpt lat="47.43545" lon="-1.49986">
        <ele>56</ele>
        <time>2020-09-26T10:54:10.000Z</time>
      </trkpt>
      <trkpt lat="47.4356" lon="-1.49989">
        <ele>56</ele>
        <time>2020-09-26T10:54:12.000Z</time>
      </trkpt>
      <trkpt lat="47.43574" lon="-1.49995">
        <ele>56</ele>
        <time>2020-09-26T10:54:14.000Z</time>
      </trkpt>
      <trkpt lat="47.43588" lon="-1.50001">
        <ele>56</ele>
        <time>2020-09-26T10:54:16.000Z</time>
      </trkpt>
      <trkpt lat="47.43602" lon="-1.50006">
        <ele>57</ele>
        <time>2020-09-26T10:54:18.000Z</time>
      </trkpt>
      <trkpt lat="47.43614" lon="-1.50012">
        <ele>57</ele>
        <time>2020-09-26T10:54:20.000Z</time>
      </trkpt>
      <trkpt lat="47.43628" lon="-1.50015">
        <ele>57</ele>
        <time>2020-09-26T10:54:22.000Z</time>
      </trkpt>
      <trkpt lat="47.43642" lon="-1.50017">
        <ele>56</ele>
        <time>2020-09-26T10:54:24.000Z</time>
      </trkpt>
      <trkpt lat="47.43656" lon="-1.50018">
        <ele>56</ele>
        <time>2020-09-26T10:54:26.000Z</time>
      </trkpt>
      <trkpt lat="47.4367" lon="-1.50018">
        <ele>56</ele>
        <time>2020-09-26T10:54:28.000Z</time>
      </trkpt>
      <trkpt lat="47.43684" lon="-1.50015">
        <ele>57</ele>
        <time>2020-09-26T10:54:30.000Z</time>
      </trkpt>
      <trkpt lat="47.43698" lon="-1.50012">
        <ele>57</ele>
        <time>2020-09-26T10:54:32.000Z</time>
      </trkpt>
      <trkpt lat="47.43712" lon="-1.50009">
        <ele>57</ele>
        <time>2020-09-26T10:54:34.000Z</time>
      </trkpt>
      <trkpt lat="47.43725" lon="-1.50006">
        <ele>58</ele>
        <time>2020-09-26T10:54:36.000Z</time>
      </trkpt>
      <trkpt lat="47.43739" lon="-1.50003">
        <ele>58</ele>
        <time>2020-09-26T10:54:38.000Z</time>
      </trkpt>
      <trkpt lat="47.43752" lon="-1.5">
        <ele>59</ele>
        <time>2020-09-26T10:54:40.000Z</time>
      </trkpt>
      <trkpt lat="47.43762" lon="-1.49997">
        <ele>61</ele>
        <time>2020-09-26T10:54:42.000Z</time>
      </trkpt>
      <trkpt lat="47.43775" lon="-1.49991">
        <ele>61</ele>
        <time>2020-09-26T10:54:45.000Z</time>
      </trkpt>
      <trkpt lat="47.43782" lon="-1.49982">
        <ele>61</ele>
        <time>2020-09-26T10:54:47.000Z</time>
      </trkpt>
      <trkpt lat="47.43788" lon="-1.49969">
        <ele>60</ele>
        <time>2020-09-26T10:54:49.000Z</time>
      </trkpt>
      <trkpt lat="47.43791" lon="-1.49951">
        <ele>60</ele>
        <time>2020-09-26T10:54:51.000Z</time>
      </trkpt>
      <trkpt lat="47.43795" lon="-1.49932">
        <ele>59</ele>
        <time>2020-09-26T10:54:53.000Z</time>
      </trkpt>
      <trkpt lat="47.438" lon="-1.49911">
        <ele>60</ele>
        <time>2020-09-26T10:54:55.000Z</time>
      </trkpt>
      <trkpt lat="47.43805" lon="-1.4989">
        <ele>60</ele>
        <time>2020-09-26T10:54:57.000Z</time>
      </trkpt>
      <trkpt lat="47.43809" lon="-1.49869">
        <ele>60</ele>
        <time>2020-09-26T10:54:59.000Z</time>
      </trkpt>
      <trkpt lat="47.43814" lon="-1.49846">
        <ele>59</ele>
        <time>2020-09-26T10:55:01.000Z</time>
      </trkpt>
      <trkpt lat="47.43818" lon="-1.49822">
        <ele>58</ele>
        <time>2020-09-26T10:55:03.000Z</time>
      </trkpt>
      <trkpt lat="47.43822" lon="-1.49799">
        <ele>57</ele>
        <time>2020-09-26T10:55:05.000Z</time>
      </trkpt>
      <trkpt lat="47.43827" lon="-1.49775">
        <ele>56</ele>
        <time>2020-09-26T10:55:07.000Z</time>
      </trkpt>
      <trkpt lat="47.43832" lon="-1.49751">
        <ele>54</ele>
        <time>2020-09-26T10:55:09.000Z</time>
      </trkpt>
      <trkpt lat="47.43837" lon="-1.49728">
        <ele>53</ele>
        <time>2020-09-26T10:55:11.000Z</time>
      </trkpt>
      <trkpt lat="47.43841" lon="-1.49706">
        <ele>53</ele>
        <time>2020-09-26T10:55:13.000Z</time>
      </trkpt>
      <trkpt lat="47.43846" lon="-1.49684">
        <ele>53</ele>
        <time>2020-09-26T10:55:15.000Z</time>
      </trkpt>
      <trkpt lat="47.43851" lon="-1.49662">
        <ele>53</ele>
        <time>2020-09-26T10:55:17.000Z</time>
      </trkpt>
      <trkpt lat="47.43855" lon="-1.49641">
        <ele>53</ele>
        <time>2020-09-26T10:55:19.000Z</time>
      </trkpt>
      <trkpt lat="47.4386" lon="-1.4962">
        <ele>53</ele>
        <time>2020-09-26T10:55:21.000Z</time>
      </trkpt>
      <trkpt lat="47.43866" lon="-1.49602">
        <ele>53</ele>
        <time>2020-09-26T10:55:23.000Z</time>
      </trkpt>
      <trkpt lat="47.4388" lon="-1.49595">
        <ele>53</ele>
        <time>2020-09-26T10:55:25.000Z</time>
      </trkpt>
      <trkpt lat="47.43894" lon="-1.49601">
        <ele>53</ele>
        <time>2020-09-26T10:55:27.000Z</time>
      </trkpt>
      <trkpt lat="47.43907" lon="-1.49607">
        <ele>54</ele>
        <time>2020-09-26T10:55:29.000Z</time>
      </trkpt>
      <trkpt lat="47.43921" lon="-1.49613">
        <ele>54</ele>
        <time>2020-09-26T10:55:31.000Z</time>
      </trkpt>
      <trkpt lat="47.43934" lon="-1.49619">
        <ele>55</ele>
        <time>2020-09-26T10:55:33.000Z</time>
      </trkpt>
      <trkpt lat="47.43946" lon="-1.49625">
        <ele>55</ele>
        <time>2020-09-26T10:55:35.000Z</time>
      </trkpt>
      <trkpt lat="47.43959" lon="-1.49631">
        <ele>55</ele>
        <time>2020-09-26T10:55:37.000Z</time>
      </trkpt>
      <trkpt lat="47.43971" lon="-1.49634">
        <ele>55</ele>
        <time>2020-09-26T10:55:39.000Z</time>
      </trkpt>
      <trkpt lat="47.43982" lon="-1.4963">
        <ele>54</ele>
        <time>2020-09-26T10:55:41.000Z</time>
      </trkpt>
      <trkpt lat="47.4399" lon="-1.49616">
        <ele>54</ele>
        <time>2020-09-26T10:55:43.000Z</time>
      </trkpt>
      <trkpt lat="47.43992" lon="-1.49598">
        <ele>53</ele>
        <time>2020-09-26T10:55:45.000Z</time>
      </trkpt>
      <trkpt lat="47.43993" lon="-1.49577">
        <ele>53</ele>
        <time>2020-09-26T10:55:47.000Z</time>
      </trkpt>
      <trkpt lat="47.43993" lon="-1.49556">
        <ele>54</ele>
        <time>2020-09-26T10:55:49.000Z</time>
      </trkpt>
      <trkpt lat="47.43994" lon="-1.49534">
        <ele>54</ele>
        <time>2020-09-26T10:55:51.000Z</time>
      </trkpt>
      <trkpt lat="47.43995" lon="-1.49513">
        <ele>54</ele>
        <time>2020-09-26T10:55:53.000Z</time>
      </trkpt>
      <trkpt lat="47.43996" lon="-1.49493">
        <ele>54</ele>
        <time>2020-09-26T10:55:55.000Z</time>
      </trkpt>
      <trkpt lat="47.43996" lon="-1.49472">
        <ele>53</ele>
        <time>2020-09-26T10:55:57.000Z</time>
      </trkpt>
      <trkpt lat="47.43995" lon="-1.49449">
        <ele>53</ele>
        <time>2020-09-26T10:55:59.000Z</time>
      </trkpt>
      <trkpt lat="47.43997" lon="-1.49426">
        <ele>54</ele>
        <time>2020-09-26T10:56:01.000Z</time>
      </trkpt>
      <trkpt lat="47.44" lon="-1.49404">
        <ele>54</ele>
        <time>2020-09-26T10:56:03.000Z</time>
      </trkpt>
      <trkpt lat="47.44003" lon="-1.49384">
        <ele>55</ele>
        <time>2020-09-26T10:56:05.000Z</time>
      </trkpt>
      <trkpt lat="47.44006" lon="-1.49365">
        <ele>56</ele>
        <time>2020-09-26T10:56:07.000Z</time>
      </trkpt>
      <trkpt lat="47.4401" lon="-1.49346">
        <ele>56</ele>
        <time>2020-09-26T10:56:09.000Z</time>
      </trkpt>
      <trkpt lat="47.44012" lon="-1.49328">
        <ele>56</ele>
        <time>2020-09-26T10:56:11.000Z</time>
      </trkpt>
      <trkpt lat="47.44014" lon="-1.4931">
        <ele>57</ele>
        <time>2020-09-26T10:56:13.000Z</time>
      </trkpt>
      <trkpt lat="47.44016" lon="-1.49292">
        <ele>57</ele>
        <time>2020-09-26T10:56:15.000Z</time>
      </trkpt>
      <trkpt lat="47.44016" lon="-1.49274">
        <ele>57</ele>
        <time>2020-09-26T10:56:17.000Z</time>
      </trkpt>
      <trkpt lat="47.44016" lon="-1.49256">
        <ele>57</ele>
        <time>2020-09-26T10:56:19.000Z</time>
      </trkpt>
      <trkpt lat="47.44017" lon="-1.49238">
        <ele>58</ele>
        <time>2020-09-26T10:56:21.000Z</time>
      </trkpt>
      <trkpt lat="47.44016" lon="-1.4922">
        <ele>58</ele>
        <time>2020-09-26T10:56:23.000Z</time>
      </trkpt>
      <trkpt lat="47.44015" lon="-1.49202">
        <ele>59</ele>
        <time>2020-09-26T10:56:25.000Z</time>
      </trkpt>
      <trkpt lat="47.44014" lon="-1.49183">
        <ele>61</ele>
        <time>2020-09-26T10:56:27.000Z</time>
      </trkpt>
      <trkpt lat="47.44013" lon="-1.49165">
        <ele>61</ele>
        <time>2020-09-26T10:56:29.000Z</time>
      </trkpt>
      <trkpt lat="47.44014" lon="-1.49147">
        <ele>62</ele>
        <time>2020-09-26T10:56:31.000Z</time>
      </trkpt>
      <trkpt lat="47.44015" lon="-1.4913">
        <ele>62</ele>
        <time>2020-09-26T10:56:33.000Z</time>
      </trkpt>
      <trkpt lat="47.44014" lon="-1.49112">
        <ele>63</ele>
        <time>2020-09-26T10:56:35.000Z</time>
      </trkpt>
      <trkpt lat="47.44014" lon="-1.49093">
        <ele>63</ele>
        <time>2020-09-26T10:56:37.000Z</time>
      </trkpt>
      <trkpt lat="47.44013" lon="-1.49075">
        <ele>64</ele>
        <time>2020-09-26T10:56:39.000Z</time>
      </trkpt>
      <trkpt lat="47.44012" lon="-1.49057">
        <ele>64</ele>
        <time>2020-09-26T10:56:41.000Z</time>
      </trkpt>
      <trkpt lat="47.44012" lon="-1.49039">
        <ele>65</ele>
        <time>2020-09-26T10:56:43.000Z</time>
      </trkpt>
      <trkpt lat="47.44012" lon="-1.49022">
        <ele>66</ele>
        <time>2020-09-26T10:56:45.000Z</time>
      </trkpt>
      <trkpt lat="47.44013" lon="-1.49005">
        <ele>67</ele>
        <time>2020-09-26T10:56:47.000Z</time>
      </trkpt>
      <trkpt lat="47.44015" lon="-1.48986">
        <ele>68</ele>
        <time>2020-09-26T10:56:49.000Z</time>
      </trkpt>
      <trkpt lat="47.44018" lon="-1.48968">
        <ele>68</ele>
        <time>2020-09-26T10:56:51.000Z</time>
      </trkpt>
      <trkpt lat="47.44021" lon="-1.48949">
        <ele>67</ele>
        <time>2020-09-26T10:56:53.000Z</time>
      </trkpt>
      <trkpt lat="47.44024" lon="-1.4893">
        <ele>67</ele>
        <time>2020-09-26T10:56:55.000Z</time>
      </trkpt>
      <trkpt lat="47.44027" lon="-1.4891">
        <ele>66</ele>
        <time>2020-09-26T10:56:57.000Z</time>
      </trkpt>
      <trkpt lat="47.44029" lon="-1.48891">
        <ele>66</ele>
        <time>2020-09-26T10:56:59.000Z</time>
      </trkpt>
      <trkpt lat="47.44032" lon="-1.48872">
        <ele>66</ele>
        <time>2020-09-26T10:57:01.000Z</time>
      </trkpt>
      <trkpt lat="47.44034" lon="-1.48853">
        <ele>66</ele>
        <time>2020-09-26T10:57:03.000Z</time>
      </trkpt>
      <trkpt lat="47.44037" lon="-1.48833">
        <ele>67</ele>
        <time>2020-09-26T10:57:05.000Z</time>
      </trkpt>
      <trkpt lat="47.44039" lon="-1.48813">
        <ele>66</ele>
        <time>2020-09-26T10:57:07.000Z</time>
      </trkpt>
      <trkpt lat="47.44042" lon="-1.48793">
        <ele>66</ele>
        <time>2020-09-26T10:57:09.000Z</time>
      </trkpt>
      <trkpt lat="47.44045" lon="-1.48773">
        <ele>65</ele>
        <time>2020-09-26T10:57:11.000Z</time>
      </trkpt>
      <trkpt lat="47.44049" lon="-1.48754">
        <ele>65</ele>
        <time>2020-09-26T10:57:13.000Z</time>
      </trkpt>
      <trkpt lat="47.44052" lon="-1.48733">
        <ele>64</ele>
        <time>2020-09-26T10:57:15.000Z</time>
      </trkpt>
      <trkpt lat="47.44054" lon="-1.48713">
        <ele>63</ele>
        <time>2020-09-26T10:57:17.000Z</time>
      </trkpt>
      <trkpt lat="47.44057" lon="-1.48691">
        <ele>63</ele>
        <time>2020-09-26T10:57:19.000Z</time>
      </trkpt>
      <trkpt lat="47.4406" lon="-1.48668">
        <ele>63</ele>
        <time>2020-09-26T10:57:21.000Z</time>
      </trkpt>
      <trkpt lat="47.44063" lon="-1.48646">
        <ele>62</ele>
        <time>2020-09-26T10:57:23.000Z</time>
      </trkpt>
      <trkpt lat="47.44066" lon="-1.48622">
        <ele>62</ele>
        <time>2020-09-26T10:57:25.000Z</time>
      </trkpt>
      <trkpt lat="47.44067" lon="-1.48599">
        <ele>62</ele>
        <time>2020-09-26T10:57:27.000Z</time>
      </trkpt>
      <trkpt lat="47.44068" lon="-1.48576">
        <ele>62</ele>
        <time>2020-09-26T10:57:29.000Z</time>
      </trkpt>
      <trkpt lat="47.44067" lon="-1.48553">
        <ele>62</ele>
        <time>2020-09-26T10:57:31.000Z</time>
      </trkpt>
      <trkpt lat="47.44068" lon="-1.48531">
        <ele>62</ele>
        <time>2020-09-26T10:57:33.000Z</time>
      </trkpt>
      <trkpt lat="47.44068" lon="-1.48509">
        <ele>62</ele>
        <time>2020-09-26T10:57:35.000Z</time>
      </trkpt>
      <trkpt lat="47.44069" lon="-1.48487">
        <ele>61</ele>
        <time>2020-09-26T10:57:37.000Z</time>
      </trkpt>
      <trkpt lat="47.44069" lon="-1.48466">
        <ele>61</ele>
        <time>2020-09-26T10:57:39.000Z</time>
      </trkpt>
      <trkpt lat="47.44068" lon="-1.48445">
        <ele>62</ele>
        <time>2020-09-26T10:57:41.000Z</time>
      </trkpt>
      <trkpt lat="47.4407" lon="-1.48424">
        <ele>62</ele>
        <time>2020-09-26T10:57:43.000Z</time>
      </trkpt>
      <trkpt lat="47.44074" lon="-1.48403">
        <ele>63</ele>
        <time>2020-09-26T10:57:45.000Z</time>
      </trkpt>
      <trkpt lat="47.44073" lon="-1.48383">
        <ele>63</ele>
        <time>2020-09-26T10:57:47.000Z</time>
      </trkpt>
      <trkpt lat="47.44072" lon="-1.48362">
        <ele>64</ele>
        <time>2020-09-26T10:57:49.000Z</time>
      </trkpt>
      <trkpt lat="47.44073" lon="-1.48341">
        <ele>64</ele>
        <time>2020-09-26T10:57:51.000Z</time>
      </trkpt>
      <trkpt lat="47.44074" lon="-1.48319">
        <ele>63</ele>
        <time>2020-09-26T10:57:53.000Z</time>
      </trkpt>
      <trkpt lat="47.44074" lon="-1.48298">
        <ele>63</ele>
        <time>2020-09-26T10:57:55.000Z</time>
      </trkpt>
      <trkpt lat="47.44076" lon="-1.48279">
        <ele>62</ele>
        <time>2020-09-26T10:57:57.000Z</time>
      </trkpt>
      <trkpt lat="47.44077" lon="-1.48258">
        <ele>62</ele>
        <time>2020-09-26T10:57:59.000Z</time>
      </trkpt>
      <trkpt lat="47.44077" lon="-1.48236">
        <ele>62</ele>
        <time>2020-09-26T10:58:01.000Z</time>
      </trkpt>
      <trkpt lat="47.44078" lon="-1.48215">
        <ele>61</ele>
        <time>2020-09-26T10:58:03.000Z</time>
      </trkpt>
      <trkpt lat="47.44078" lon="-1.48194">
        <ele>61</ele>
        <time>2020-09-26T10:58:05.000Z</time>
      </trkpt>
      <trkpt lat="47.44078" lon="-1.48172">
        <ele>61</ele>
        <time>2020-09-26T10:58:07.000Z</time>
      </trkpt>
      <trkpt lat="47.44079" lon="-1.48149">
        <ele>61</ele>
        <time>2020-09-26T10:58:09.000Z</time>
      </trkpt>
      <trkpt lat="47.44079" lon="-1.48127">
        <ele>61</ele>
        <time>2020-09-26T10:58:11.000Z</time>
      </trkpt>
      <trkpt lat="47.44078" lon="-1.48105">
        <ele>61</ele>
        <time>2020-09-26T10:58:13.000Z</time>
      </trkpt>
      <trkpt lat="47.44077" lon="-1.48082">
        <ele>61</ele>
        <time>2020-09-26T10:58:15.000Z</time>
      </trkpt>
      <trkpt lat="47.44076" lon="-1.48061">
        <ele>61</ele>
        <time>2020-09-26T10:58:17.000Z</time>
      </trkpt>
      <trkpt lat="47.4407" lon="-1.48041">
        <ele>61</ele>
        <time>2020-09-26T10:58:19.000Z</time>
      </trkpt>
      <trkpt lat="47.44059" lon="-1.48027">
        <ele>61</ele>
        <time>2020-09-26T10:58:21.000Z</time>
      </trkpt>
      <trkpt lat="47.4405" lon="-1.4801">
        <ele>60</ele>
        <time>2020-09-26T10:58:23.000Z</time>
      </trkpt>
      <trkpt lat="47.44048" lon="-1.47987">
        <ele>60</ele>
        <time>2020-09-26T10:58:25.000Z</time>
      </trkpt>
      <trkpt lat="47.44053" lon="-1.47965">
        <ele>60</ele>
        <time>2020-09-26T10:58:27.000Z</time>
      </trkpt>
      <trkpt lat="47.44061" lon="-1.47947">
        <ele>59</ele>
        <time>2020-09-26T10:58:29.000Z</time>
      </trkpt>
      <trkpt lat="47.44058" lon="-1.47926">
        <ele>58</ele>
        <time>2020-09-26T10:58:31.000Z</time>
      </trkpt>
      <trkpt lat="47.44054" lon="-1.47904">
        <ele>58</ele>
        <time>2020-09-26T10:58:33.000Z</time>
      </trkpt>
      <trkpt lat="47.44049" lon="-1.4788">
        <ele>59</ele>
        <time>2020-09-26T10:58:35.000Z</time>
      </trkpt>
      <trkpt lat="47.44045" lon="-1.47858">
        <ele>59</ele>
        <time>2020-09-26T10:58:37.000Z</time>
      </trkpt>
      <trkpt lat="47.44041" lon="-1.47836">
        <ele>59</ele>
        <time>2020-09-26T10:58:39.000Z</time>
      </trkpt>
      <trkpt lat="47.44037" lon="-1.47814">
        <ele>59</ele>
        <time>2020-09-26T10:58:41.000Z</time>
      </trkpt>
      <trkpt lat="47.44033" lon="-1.47793">
        <ele>59</ele>
        <time>2020-09-26T10:58:43.000Z</time>
      </trkpt>
      <trkpt lat="47.44029" lon="-1.47771">
        <ele>59</ele>
        <time>2020-09-26T10:58:45.000Z</time>
      </trkpt>
      <trkpt lat="47.44025" lon="-1.47748">
        <ele>60</ele>
        <time>2020-09-26T10:58:47.000Z</time>
      </trkpt>
      <trkpt lat="47.44021" lon="-1.47727">
        <ele>59</ele>
        <time>2020-09-26T10:58:49.000Z</time>
      </trkpt>
      <trkpt lat="47.44017" lon="-1.47704">
        <ele>59</ele>
        <time>2020-09-26T10:58:51.000Z</time>
      </trkpt>
      <trkpt lat="47.44013" lon="-1.47682">
        <ele>58</ele>
        <time>2020-09-26T10:58:53.000Z</time>
      </trkpt>
      <trkpt lat="47.44009" lon="-1.4766">
        <ele>58</ele>
        <time>2020-09-26T10:58:55.000Z</time>
      </trkpt>
      <trkpt lat="47.44006" lon="-1.47638">
        <ele>57</ele>
        <time>2020-09-26T10:58:57.000Z</time>
      </trkpt>
      <trkpt lat="47.44001" lon="-1.47615">
        <ele>57</ele>
        <time>2020-09-26T10:58:59.000Z</time>
      </trkpt>
      <trkpt lat="47.43997" lon="-1.47592">
        <ele>57</ele>
        <time>2020-09-26T10:59:01.000Z</time>
      </trkpt>
      <trkpt lat="47.43993" lon="-1.4757">
        <ele>57</ele>
        <time>2020-09-26T10:59:03.000Z</time>
      </trkpt>
      <trkpt lat="47.4399" lon="-1.47548">
        <ele>56</ele>
        <time>2020-09-26T10:59:05.000Z</time>
      </trkpt>
      <trkpt lat="47.43986" lon="-1.47525">
        <ele>55</ele>
        <time>2020-09-26T10:59:07.000Z</time>
      </trkpt>
      <trkpt lat="47.43982" lon="-1.47501">
        <ele>55</ele>
        <time>2020-09-26T10:59:09.000Z</time>
      </trkpt>
      <trkpt lat="47.43978" lon="-1.47479">
        <ele>55</ele>
        <time>2020-09-26T10:59:11.000Z</time>
      </trkpt>
      <trkpt lat="47.43973" lon="-1.47457">
        <ele>55</ele>
        <time>2020-09-26T10:59:13.000Z</time>
      </trkpt>
      <trkpt lat="47.4397" lon="-1.47435">
        <ele>55</ele>
        <time>2020-09-26T10:59:15.000Z</time>
      </trkpt>
      <trkpt lat="47.43966" lon="-1.47414">
        <ele>55</ele>
        <time>2020-09-26T10:59:17.000Z</time>
      </trkpt>
      <trkpt lat="47.43963" lon="-1.47393">
        <ele>55</ele>
        <time>2020-09-26T10:59:19.000Z</time>
      </trkpt>
      <trkpt lat="47.4396" lon="-1.47373">
        <ele>56</ele>
        <time>2020-09-26T10:59:21.000Z</time>
      </trkpt>
      <trkpt lat="47.43956" lon="-1.47352">
        <ele>56</ele>
        <time>2020-09-26T10:59:23.000Z</time>
      </trkpt>
      <trkpt lat="47.43952" lon="-1.47332">
        <ele>56</ele>
        <time>2020-09-26T10:59:25.000Z</time>
      </trkpt>
      <trkpt lat="47.43949" lon="-1.47311">
        <ele>57</ele>
        <time>2020-09-26T10:59:27.000Z</time>
      </trkpt>
      <trkpt lat="47.43946" lon="-1.47291">
        <ele>57</ele>
        <time>2020-09-26T10:59:29.000Z</time>
      </trkpt>
      <trkpt lat="47.43942" lon="-1.47271">
        <ele>58</ele>
        <time>2020-09-26T10:59:31.000Z</time>
      </trkpt>
      <trkpt lat="47.43938" lon="-1.47251">
        <ele>58</ele>
        <time>2020-09-26T10:59:33.000Z</time>
      </trkpt>
      <trkpt lat="47.43935" lon="-1.47231">
        <ele>58</ele>
        <time>2020-09-26T10:59:35.000Z</time>
      </trkpt>
      <trkpt lat="47.43931" lon="-1.47212">
        <ele>59</ele>
        <time>2020-09-26T10:59:37.000Z</time>
      </trkpt>
      <trkpt lat="47.43928" lon="-1.47191">
        <ele>59</ele>
        <time>2020-09-26T10:59:39.000Z</time>
      </trkpt>
      <trkpt lat="47.43924" lon="-1.47172">
        <ele>59</ele>
        <time>2020-09-26T10:59:41.000Z</time>
      </trkpt>
      <trkpt lat="47.43921" lon="-1.47153">
        <ele>60</ele>
        <time>2020-09-26T10:59:43.000Z</time>
      </trkpt>
      <trkpt lat="47.43918" lon="-1.47134">
        <ele>60</ele>
        <time>2020-09-26T10:59:45.000Z</time>
      </trkpt>
      <trkpt lat="47.43914" lon="-1.47115">
        <ele>60</ele>
        <time>2020-09-26T10:59:47.000Z</time>
      </trkpt>
      <trkpt lat="47.43911" lon="-1.47096">
        <ele>60</ele>
        <time>2020-09-26T10:59:49.000Z</time>
      </trkpt>
      <trkpt lat="47.43907" lon="-1.47077">
        <ele>60</ele>
        <time>2020-09-26T10:59:51.000Z</time>
      </trkpt>
      <trkpt lat="47.43904" lon="-1.47058">
        <ele>60</ele>
        <time>2020-09-26T10:59:53.000Z</time>
      </trkpt>
      <trkpt lat="47.43901" lon="-1.47039">
        <ele>60</ele>
        <time>2020-09-26T10:59:55.000Z</time>
      </trkpt>
      <trkpt lat="47.43897" lon="-1.47021">
        <ele>60</ele>
        <time>2020-09-26T10:59:57.000Z</time>
      </trkpt>
      <trkpt lat="47.43893" lon="-1.47002">
        <ele>60</ele>
        <time>2020-09-26T10:59:59.000Z</time>
      </trkpt>
      <trkpt lat="47.4389" lon="-1.46982">
        <ele>60</ele>
        <time>2020-09-26T11:00:01.000Z</time>
      </trkpt>
      <trkpt lat="47.43886" lon="-1.46963">
        <ele>60</ele>
        <time>2020-09-26T11:00:03.000Z</time>
      </trkpt>
      <trkpt lat="47.43882" lon="-1.46944">
        <ele>60</ele>
        <time>2020-09-26T11:00:05.000Z</time>
      </trkpt>
      <trkpt lat="47.43879" lon="-1.46924">
        <ele>60</ele>
        <time>2020-09-26T11:00:07.000Z</time>
      </trkpt>
      <trkpt lat="47.43875" lon="-1.46903">
        <ele>59</ele>
        <time>2020-09-26T11:00:09.000Z</time>
      </trkpt>
      <trkpt lat="47.4387" lon="-1.46873">
        <ele>59</ele>
        <time>2020-09-26T11:00:12.000Z</time>
      </trkpt>
      <trkpt lat="47.43866" lon="-1.46852">
        <ele>59</ele>
        <time>2020-09-26T11:00:14.000Z</time>
      </trkpt>
      <trkpt lat="47.43862" lon="-1.46831">
        <ele>58</ele>
        <time>2020-09-26T11:00:16.000Z</time>
      </trkpt>
      <trkpt lat="47.43859" lon="-1.4681">
        <ele>58</ele>
        <time>2020-09-26T11:00:18.000Z</time>
      </trkpt>
      <trkpt lat="47.43855" lon="-1.46788">
        <ele>58</ele>
        <time>2020-09-26T11:00:20.000Z</time>
      </trkpt>
      <trkpt lat="47.43851" lon="-1.46767">
        <ele>58</ele>
        <time>2020-09-26T11:00:22.000Z</time>
      </trkpt>
      <trkpt lat="47.43847" lon="-1.46746">
        <ele>58</ele>
        <time>2020-09-26T11:00:24.000Z</time>
      </trkpt>
      <trkpt lat="47.43843" lon="-1.46723">
        <ele>58</ele>
        <time>2020-09-26T11:00:26.000Z</time>
      </trkpt>
      <trkpt lat="47.43839" lon="-1.46701">
        <ele>57</ele>
        <time>2020-09-26T11:00:28.000Z</time>
      </trkpt>
      <trkpt lat="47.43835" lon="-1.46678">
        <ele>57</ele>
        <time>2020-09-26T11:00:30.000Z</time>
      </trkpt>
      <trkpt lat="47.4383" lon="-1.46656">
        <ele>57</ele>
        <time>2020-09-26T11:00:32.000Z</time>
      </trkpt>
      <trkpt lat="47.43825" lon="-1.46635">
        <ele>56</ele>
        <time>2020-09-26T11:00:34.000Z</time>
      </trkpt>
      <trkpt lat="47.4382" lon="-1.46613">
        <ele>56</ele>
        <time>2020-09-26T11:00:36.000Z</time>
      </trkpt>
      <trkpt lat="47.43812" lon="-1.4658">
        <ele>56</ele>
        <time>2020-09-26T11:00:39.000Z</time>
      </trkpt>
      <trkpt lat="47.43806" lon="-1.46559">
        <ele>56</ele>
        <time>2020-09-26T11:00:41.000Z</time>
      </trkpt>
      <trkpt lat="47.438" lon="-1.46537">
        <ele>56</ele>
        <time>2020-09-26T11:00:43.000Z</time>
      </trkpt>
      <trkpt lat="47.43794" lon="-1.46516">
        <ele>56</ele>
        <time>2020-09-26T11:00:45.000Z</time>
      </trkpt>
      <trkpt lat="47.43788" lon="-1.46496">
        <ele>57</ele>
        <time>2020-09-26T11:00:47.000Z</time>
      </trkpt>
      <trkpt lat="47.43778" lon="-1.46465">
        <ele>57</ele>
        <time>2020-09-26T11:00:50.000Z</time>
      </trkpt>
      <trkpt lat="47.43773" lon="-1.46444">
        <ele>58</ele>
        <time>2020-09-26T11:00:52.000Z</time>
      </trkpt>
      <trkpt lat="47.43764" lon="-1.46414">
        <ele>59</ele>
        <time>2020-09-26T11:00:55.000Z</time>
      </trkpt>
      <trkpt lat="47.43759" lon="-1.46395">
        <ele>59</ele>
        <time>2020-09-26T11:00:57.000Z</time>
      </trkpt>
      <trkpt lat="47.43754" lon="-1.46375">
        <ele>59</ele>
        <time>2020-09-26T11:00:59.000Z</time>
      </trkpt>
      <trkpt lat="47.43749" lon="-1.46354">
        <ele>60</ele>
        <time>2020-09-26T11:01:01.000Z</time>
      </trkpt>
      <trkpt lat="47.43745" lon="-1.46333">
        <ele>59</ele>
        <time>2020-09-26T11:01:03.000Z</time>
      </trkpt>
      <trkpt lat="47.43743" lon="-1.4631">
        <ele>59</ele>
        <time>2020-09-26T11:01:05.000Z</time>
      </trkpt>
      <trkpt lat="47.43742" lon="-1.46289">
        <ele>59</ele>
        <time>2020-09-26T11:01:07.000Z</time>
      </trkpt>
      <trkpt lat="47.43741" lon="-1.46268">
        <ele>59</ele>
        <time>2020-09-26T11:01:09.000Z</time>
      </trkpt>
      <trkpt lat="47.4374" lon="-1.46247">
        <ele>58</ele>
        <time>2020-09-26T11:01:11.000Z</time>
      </trkpt>
      <trkpt lat="47.43739" lon="-1.46226">
        <ele>58</ele>
        <time>2020-09-26T11:01:13.000Z</time>
      </trkpt>
      <trkpt lat="47.43739" lon="-1.46205">
        <ele>57</ele>
        <time>2020-09-26T11:01:15.000Z</time>
      </trkpt>
      <trkpt lat="47.43738" lon="-1.46184">
        <ele>58</ele>
        <time>2020-09-26T11:01:17.000Z</time>
      </trkpt>
      <trkpt lat="47.43738" lon="-1.46163">
        <ele>58</ele>
        <time>2020-09-26T11:01:19.000Z</time>
      </trkpt>
      <trkpt lat="47.43737" lon="-1.46143">
        <ele>58</ele>
        <time>2020-09-26T11:01:21.000Z</time>
      </trkpt>
      <trkpt lat="47.43738" lon="-1.46123">
        <ele>58</ele>
        <time>2020-09-26T11:01:23.000Z</time>
      </trkpt>
      <trkpt lat="47.43738" lon="-1.46104">
        <ele>59</ele>
        <time>2020-09-26T11:01:25.000Z</time>
      </trkpt>
      <trkpt lat="47.4374" lon="-1.46083">
        <ele>59</ele>
        <time>2020-09-26T11:01:27.000Z</time>
      </trkpt>
      <trkpt lat="47.43742" lon="-1.46063">
        <ele>59</ele>
        <time>2020-09-26T11:01:29.000Z</time>
      </trkpt>
      <trkpt lat="47.4374" lon="-1.46044">
        <ele>59</ele>
        <time>2020-09-26T11:01:31.000Z</time>
      </trkpt>
      <trkpt lat="47.4373" lon="-1.46031">
        <ele>59</ele>
        <time>2020-09-26T11:01:33.000Z</time>
      </trkpt>
      <trkpt lat="47.43717" lon="-1.46024">
        <ele>59</ele>
        <time>2020-09-26T11:01:35.000Z</time>
      </trkpt>
      <trkpt lat="47.43702" lon="-1.46017">
        <ele>59</ele>
        <time>2020-09-26T11:01:37.000Z</time>
      </trkpt>
      <trkpt lat="47.43688" lon="-1.46009">
        <ele>59</ele>
        <time>2020-09-26T11:01:39.000Z</time>
      </trkpt>
      <trkpt lat="47.43674" lon="-1.46001">
        <ele>59</ele>
        <time>2020-09-26T11:01:41.000Z</time>
      </trkpt>
      <trkpt lat="47.4366" lon="-1.45992">
        <ele>58</ele>
        <time>2020-09-26T11:01:43.000Z</time>
      </trkpt>
      <trkpt lat="47.43646" lon="-1.45983">
        <ele>58</ele>
        <time>2020-09-26T11:01:45.000Z</time>
      </trkpt>
      <trkpt lat="47.43631" lon="-1.45976">
        <ele>58</ele>
        <time>2020-09-26T11:01:47.000Z</time>
      </trkpt>
      <trkpt lat="47.43617" lon="-1.45968">
        <ele>58</ele>
        <time>2020-09-26T11:01:49.000Z</time>
      </trkpt>
      <trkpt lat="47.43603" lon="-1.4596">
        <ele>57</ele>
        <time>2020-09-26T11:01:51.000Z</time>
      </trkpt>
      <trkpt lat="47.43589" lon="-1.45952">
        <ele>57</ele>
        <time>2020-09-26T11:01:53.000Z</time>
      </trkpt>
      <trkpt lat="47.43574" lon="-1.45945">
        <ele>56</ele>
        <time>2020-09-26T11:01:55.000Z</time>
      </trkpt>
      <trkpt lat="47.4356" lon="-1.45938">
        <ele>56</ele>
        <time>2020-09-26T11:01:57.000Z</time>
      </trkpt>
      <trkpt lat="47.43544" lon="-1.45933">
        <ele>56</ele>
        <time>2020-09-26T11:01:59.000Z</time>
      </trkpt>
      <trkpt lat="47.43529" lon="-1.45929">
        <ele>55</ele>
        <time>2020-09-26T11:02:01.000Z</time>
      </trkpt>
      <trkpt lat="47.43513" lon="-1.45925">
        <ele>55</ele>
        <time>2020-09-26T11:02:03.000Z</time>
      </trkpt>
      <trkpt lat="47.43489" lon="-1.45921">
        <ele>53</ele>
        <time>2020-09-26T11:02:06.000Z</time>
      </trkpt>
      <trkpt lat="47.43473" lon="-1.45919">
        <ele>53</ele>
        <time>2020-09-26T11:02:08.000Z</time>
      </trkpt>
      <trkpt lat="47.43456" lon="-1.45916">
        <ele>52</ele>
        <time>2020-09-26T11:02:10.000Z</time>
      </trkpt>
      <trkpt lat="47.4344" lon="-1.45913">
        <ele>52</ele>
        <time>2020-09-26T11:02:12.000Z</time>
      </trkpt>
      <trkpt lat="47.43425" lon="-1.4591">
        <ele>53</ele>
        <time>2020-09-26T11:02:14.000Z</time>
      </trkpt>
      <trkpt lat="47.43409" lon="-1.45908">
        <ele>53</ele>
        <time>2020-09-26T11:02:16.000Z</time>
      </trkpt>
      <trkpt lat="47.43394" lon="-1.45905">
        <ele>53</ele>
        <time>2020-09-26T11:02:18.000Z</time>
      </trkpt>
      <trkpt lat="47.43379" lon="-1.45902">
        <ele>53</ele>
        <time>2020-09-26T11:02:20.000Z</time>
      </trkpt>
      <trkpt lat="47.43365" lon="-1.459">
        <ele>53</ele>
        <time>2020-09-26T11:02:22.000Z</time>
      </trkpt>
      <trkpt lat="47.43351" lon="-1.45898">
        <ele>53</ele>
        <time>2020-09-26T11:02:24.000Z</time>
      </trkpt>
      <trkpt lat="47.43336" lon="-1.45896">
        <ele>53</ele>
        <time>2020-09-26T11:02:26.000Z</time>
      </trkpt>
      <trkpt lat="47.43322" lon="-1.45893">
        <ele>53</ele>
        <time>2020-09-26T11:02:28.000Z</time>
      </trkpt>
      <trkpt lat="47.43308" lon="-1.45891">
        <ele>54</ele>
        <time>2020-09-26T11:02:30.000Z</time>
      </trkpt>
      <trkpt lat="47.43294" lon="-1.45889">
        <ele>53</ele>
        <time>2020-09-26T11:02:32.000Z</time>
      </trkpt>
      <trkpt lat="47.43281" lon="-1.45887">
        <ele>53</ele>
        <time>2020-09-26T11:02:34.000Z</time>
      </trkpt>
      <trkpt lat="47.43268" lon="-1.45885">
        <ele>53</ele>
        <time>2020-09-26T11:02:36.000Z</time>
      </trkpt>
      <trkpt lat="47.43254" lon="-1.45882">
        <ele>53</ele>
        <time>2020-09-26T11:02:38.000Z</time>
      </trkpt>
      <trkpt lat="47.4324" lon="-1.45879">
        <ele>53</ele>
        <time>2020-09-26T11:02:40.000Z</time>
      </trkpt>
      <trkpt lat="47.43227" lon="-1.45877">
        <ele>53</ele>
        <time>2020-09-26T11:02:42.000Z</time>
      </trkpt>
      <trkpt lat="47.43213" lon="-1.45875">
        <ele>53</ele>
        <time>2020-09-26T11:02:44.000Z</time>
      </trkpt>
      <trkpt lat="47.432" lon="-1.45872">
        <ele>54</ele>
        <time>2020-09-26T11:02:46.000Z</time>
      </trkpt>
      <trkpt lat="47.43186" lon="-1.4587">
        <ele>54</ele>
        <time>2020-09-26T11:02:48.000Z</time>
      </trkpt>
      <trkpt lat="47.43173" lon="-1.45868">
        <ele>54</ele>
        <time>2020-09-26T11:02:50.000Z</time>
      </trkpt>
      <trkpt lat="47.43159" lon="-1.45866">
        <ele>54</ele>
        <time>2020-09-26T11:02:52.000Z</time>
      </trkpt>
      <trkpt lat="47.43146" lon="-1.45865">
        <ele>54</ele>
        <time>2020-09-26T11:02:54.000Z</time>
      </trkpt>
      <trkpt lat="47.43133" lon="-1.45862">
        <ele>54</ele>
        <time>2020-09-26T11:02:56.000Z</time>
      </trkpt>
      <trkpt lat="47.4312" lon="-1.4586">
        <ele>54</ele>
        <time>2020-09-26T11:02:58.000Z</time>
      </trkpt>
      <trkpt lat="47.43107" lon="-1.45858">
        <ele>54</ele>
        <time>2020-09-26T11:03:00.000Z</time>
      </trkpt>
      <trkpt lat="47.43095" lon="-1.45856">
        <ele>54</ele>
        <time>2020-09-26T11:03:02.000Z</time>
      </trkpt>
      <trkpt lat="47.43082" lon="-1.45851">
        <ele>54</ele>
        <time>2020-09-26T11:03:04.000Z</time>
      </trkpt>
      <trkpt lat="47.4307" lon="-1.45844">
        <ele>54</ele>
        <time>2020-09-26T11:03:06.000Z</time>
      </trkpt>
      <trkpt lat="47.43058" lon="-1.45834">
        <ele>54</ele>
        <time>2020-09-26T11:03:08.000Z</time>
      </trkpt>
      <trkpt lat="47.43047" lon="-1.45821">
        <ele>55</ele>
        <time>2020-09-26T11:03:10.000Z</time>
      </trkpt>
      <trkpt lat="47.43038" lon="-1.45806">
        <ele>54</ele>
        <time>2020-09-26T11:03:12.000Z</time>
      </trkpt>
      <trkpt lat="47.4303" lon="-1.45789">
        <ele>55</ele>
        <time>2020-09-26T11:03:14.000Z</time>
      </trkpt>
      <trkpt lat="47.43024" lon="-1.4577">
        <ele>55</ele>
        <time>2020-09-26T11:03:16.000Z</time>
      </trkpt>
      <trkpt lat="47.43018" lon="-1.45751">
        <ele>55</ele>
        <time>2020-09-26T11:03:18.000Z</time>
      </trkpt>
      <trkpt lat="47.43012" lon="-1.45732">
        <ele>56</ele>
        <time>2020-09-26T11:03:20.000Z</time>
      </trkpt>
      <trkpt lat="47.43007" lon="-1.45713">
        <ele>56</ele>
        <time>2020-09-26T11:03:22.000Z</time>
      </trkpt>
      <trkpt lat="47.43002" lon="-1.45693">
        <ele>56</ele>
        <time>2020-09-26T11:03:24.000Z</time>
      </trkpt>
      <trkpt lat="47.42996" lon="-1.45665">
        <ele>55</ele>
        <time>2020-09-26T11:03:27.000Z</time>
      </trkpt>
      <trkpt lat="47.42992" lon="-1.45646">
        <ele>55</ele>
        <time>2020-09-26T11:03:29.000Z</time>
      </trkpt>
      <trkpt lat="47.42987" lon="-1.45627">
        <ele>55</ele>
        <time>2020-09-26T11:03:31.000Z</time>
      </trkpt>
      <trkpt lat="47.42982" lon="-1.45608">
        <ele>55</ele>
        <time>2020-09-26T11:03:33.000Z</time>
      </trkpt>
      <trkpt lat="47.42978" lon="-1.45588">
        <ele>56</ele>
        <time>2020-09-26T11:03:35.000Z</time>
      </trkpt>
      <trkpt lat="47.42973" lon="-1.45568">
        <ele>55</ele>
        <time>2020-09-26T11:03:37.000Z</time>
      </trkpt>
      <trkpt lat="47.42968" lon="-1.45548">
        <ele>55</ele>
        <time>2020-09-26T11:03:39.000Z</time>
      </trkpt>
      <trkpt lat="47.42963" lon="-1.45529">
        <ele>56</ele>
        <time>2020-09-26T11:03:41.000Z</time>
      </trkpt>
      <trkpt lat="47.42958" lon="-1.45509">
        <ele>56</ele>
        <time>2020-09-26T11:03:43.000Z</time>
      </trkpt>
      <trkpt lat="47.42953" lon="-1.4549">
        <ele>56</ele>
        <time>2020-09-26T11:03:45.000Z</time>
      </trkpt>
      <trkpt lat="47.42948" lon="-1.4547">
        <ele>56</ele>
        <time>2020-09-26T11:03:47.000Z</time>
      </trkpt>
      <trkpt lat="47.42944" lon="-1.4545">
        <ele>56</ele>
        <time>2020-09-26T11:03:49.000Z</time>
      </trkpt>
      <trkpt lat="47.42939" lon="-1.4543">
        <ele>56</ele>
        <time>2020-09-26T11:03:51.000Z</time>
      </trkpt>
      <trkpt lat="47.42934" lon="-1.4541">
        <ele>56</ele>
        <time>2020-09-26T11:03:53.000Z</time>
      </trkpt>
      <trkpt lat="47.42926" lon="-1.45381">
        <ele>55</ele>
        <time>2020-09-26T11:03:56.000Z</time>
      </trkpt>
      <trkpt lat="47.42921" lon="-1.45362">
        <ele>55</ele>
        <time>2020-09-26T11:03:58.000Z</time>
      </trkpt>
      <trkpt lat="47.42916" lon="-1.45342">
        <ele>55</ele>
        <time>2020-09-26T11:04:00.000Z</time>
      </trkpt>
      <trkpt lat="47.42912" lon="-1.45322">
        <ele>55</ele>
        <time>2020-09-26T11:04:02.000Z</time>
      </trkpt>
      <trkpt lat="47.42907" lon="-1.45303">
        <ele>55</ele>
        <time>2020-09-26T11:04:04.000Z</time>
      </trkpt>
      <trkpt lat="47.42903" lon="-1.45284">
        <ele>55</ele>
        <time>2020-09-26T11:04:06.000Z</time>
      </trkpt>
      <trkpt lat="47.42898" lon="-1.45265">
        <ele>55</ele>
        <time>2020-09-26T11:04:08.000Z</time>
      </trkpt>
      <trkpt lat="47.42894" lon="-1.45245">
        <ele>54</ele>
        <time>2020-09-26T11:04:10.000Z</time>
      </trkpt>
      <trkpt lat="47.42888" lon="-1.45226">
        <ele>55</ele>
        <time>2020-09-26T11:04:12.000Z</time>
      </trkpt>
      <trkpt lat="47.42883" lon="-1.45207">
        <ele>54</ele>
        <time>2020-09-26T11:04:14.000Z</time>
      </trkpt>
      <trkpt lat="47.42878" lon="-1.45188">
        <ele>55</ele>
        <time>2020-09-26T11:04:16.000Z</time>
      </trkpt>
      <trkpt lat="47.42872" lon="-1.45169">
        <ele>55</ele>
        <time>2020-09-26T11:04:18.000Z</time>
      </trkpt>
      <trkpt lat="47.42865" lon="-1.45151">
        <ele>54</ele>
        <time>2020-09-26T11:04:20.000Z</time>
      </trkpt>
      <trkpt lat="47.42859" lon="-1.45133">
        <ele>54</ele>
        <time>2020-09-26T11:04:22.000Z</time>
      </trkpt>
      <trkpt lat="47.42852" lon="-1.45115">
        <ele>54</ele>
        <time>2020-09-26T11:04:24.000Z</time>
      </trkpt>
      <trkpt lat="47.42846" lon="-1.45098">
        <ele>55</ele>
        <time>2020-09-26T11:04:26.000Z</time>
      </trkpt>
      <trkpt lat="47.42839" lon="-1.45081">
        <ele>55</ele>
        <time>2020-09-26T11:04:28.000Z</time>
      </trkpt>
      <trkpt lat="47.42829" lon="-1.45057">
        <ele>55</ele>
        <time>2020-09-26T11:04:31.000Z</time>
      </trkpt>
      <trkpt lat="47.42821" lon="-1.45041">
        <ele>55</ele>
        <time>2020-09-26T11:04:33.000Z</time>
      </trkpt>
      <trkpt lat="47.42815" lon="-1.45025">
        <ele>56</ele>
        <time>2020-09-26T11:04:35.000Z</time>
      </trkpt>
      <trkpt lat="47.42809" lon="-1.45009">
        <ele>55</ele>
        <time>2020-09-26T11:04:37.000Z</time>
      </trkpt>
      <trkpt lat="47.42802" lon="-1.44992">
        <ele>55</ele>
        <time>2020-09-26T11:04:39.000Z</time>
      </trkpt>
      <trkpt lat="47.42796" lon="-1.44976">
        <ele>56</ele>
        <time>2020-09-26T11:04:41.000Z</time>
      </trkpt>
      <trkpt lat="47.42791" lon="-1.44958">
        <ele>55</ele>
        <time>2020-09-26T11:04:43.000Z</time>
      </trkpt>
      <trkpt lat="47.42787" lon="-1.4494">
        <ele>55</ele>
        <time>2020-09-26T11:04:45.000Z</time>
      </trkpt>
      <trkpt lat="47.42783" lon="-1.44922">
        <ele>55</ele>
        <time>2020-09-26T11:04:47.000Z</time>
      </trkpt>
      <trkpt lat="47.42779" lon="-1.44903">
        <ele>55</ele>
        <time>2020-09-26T11:04:49.000Z</time>
      </trkpt>
      <trkpt lat="47.42775" lon="-1.44884">
        <ele>55</ele>
        <time>2020-09-26T11:04:51.000Z</time>
      </trkpt>
      <trkpt lat="47.42771" lon="-1.44865">
        <ele>55</ele>
        <time>2020-09-26T11:04:53.000Z</time>
      </trkpt>
      <trkpt lat="47.42767" lon="-1.44846">
        <ele>55</ele>
        <time>2020-09-26T11:04:55.000Z</time>
      </trkpt>
      <trkpt lat="47.42763" lon="-1.44828">
        <ele>56</ele>
        <time>2020-09-26T11:04:57.000Z</time>
      </trkpt>
      <trkpt lat="47.42759" lon="-1.44809">
        <ele>56</ele>
        <time>2020-09-26T11:04:59.000Z</time>
      </trkpt>
      <trkpt lat="47.42756" lon="-1.44791">
        <ele>56</ele>
        <time>2020-09-26T11:05:01.000Z</time>
      </trkpt>
      <trkpt lat="47.42751" lon="-1.44772">
        <ele>55</ele>
        <time>2020-09-26T11:05:03.000Z</time>
      </trkpt>
      <trkpt lat="47.42748" lon="-1.44753">
        <ele>55</ele>
        <time>2020-09-26T11:05:05.000Z</time>
      </trkpt>
      <trkpt lat="47.42744" lon="-1.44735">
        <ele>56</ele>
        <time>2020-09-26T11:05:07.000Z</time>
      </trkpt>
      <trkpt lat="47.4274" lon="-1.44716">
        <ele>56</ele>
        <time>2020-09-26T11:05:09.000Z</time>
      </trkpt>
      <trkpt lat="47.42737" lon="-1.44697">
        <ele>57</ele>
        <time>2020-09-26T11:05:11.000Z</time>
      </trkpt>
      <trkpt lat="47.42733" lon="-1.44679">
        <ele>57</ele>
        <time>2020-09-26T11:05:13.000Z</time>
      </trkpt>
      <trkpt lat="47.42728" lon="-1.4466">
        <ele>57</ele>
        <time>2020-09-26T11:05:15.000Z</time>
      </trkpt>
      <trkpt lat="47.42725" lon="-1.44641">
        <ele>57</ele>
        <time>2020-09-26T11:05:17.000Z</time>
      </trkpt>
      <trkpt lat="47.42721" lon="-1.44621">
        <ele>57</ele>
        <time>2020-09-26T11:05:19.000Z</time>
      </trkpt>
      <trkpt lat="47.42717" lon="-1.44603">
        <ele>57</ele>
        <time>2020-09-26T11:05:21.000Z</time>
      </trkpt>
      <trkpt lat="47.42713" lon="-1.44583">
        <ele>57</ele>
        <time>2020-09-26T11:05:23.000Z</time>
      </trkpt>
      <trkpt lat="47.42708" lon="-1.44564">
        <ele>57</ele>
        <time>2020-09-26T11:05:25.000Z</time>
      </trkpt>
      <trkpt lat="47.42705" lon="-1.44544">
        <ele>58</ele>
        <time>2020-09-26T11:05:27.000Z</time>
      </trkpt>
      <trkpt lat="47.42702" lon="-1.44523">
        <ele>58</ele>
        <time>2020-09-26T11:05:29.000Z</time>
      </trkpt>
      <trkpt lat="47.427" lon="-1.44502">
        <ele>58</ele>
        <time>2020-09-26T11:05:31.000Z</time>
      </trkpt>
      <trkpt lat="47.42698" lon="-1.44481">
        <ele>58</ele>
        <time>2020-09-26T11:05:33.000Z</time>
      </trkpt>
      <trkpt lat="47.42697" lon="-1.4446">
        <ele>58</ele>
        <time>2020-09-26T11:05:35.000Z</time>
      </trkpt>
      <trkpt lat="47.42697" lon="-1.44439">
        <ele>58</ele>
        <time>2020-09-26T11:05:37.000Z</time>
      </trkpt>
      <trkpt lat="47.42697" lon="-1.44417">
        <ele>58</ele>
        <time>2020-09-26T11:05:39.000Z</time>
      </trkpt>
      <trkpt lat="47.42697" lon="-1.44396">
        <ele>58</ele>
        <time>2020-09-26T11:05:41.000Z</time>
      </trkpt>
      <trkpt lat="47.42696" lon="-1.44374">
        <ele>58</ele>
        <time>2020-09-26T11:05:43.000Z</time>
      </trkpt>
      <trkpt lat="47.42696" lon="-1.44352">
        <ele>57</ele>
        <time>2020-09-26T11:05:45.000Z</time>
      </trkpt>
      <trkpt lat="47.42694" lon="-1.44331">
        <ele>57</ele>
        <time>2020-09-26T11:05:47.000Z</time>
      </trkpt>
      <trkpt lat="47.42691" lon="-1.4431">
        <ele>56</ele>
        <time>2020-09-26T11:05:49.000Z</time>
      </trkpt>
      <trkpt lat="47.42687" lon="-1.4429">
        <ele>56</ele>
        <time>2020-09-26T11:05:51.000Z</time>
      </trkpt>
      <trkpt lat="47.42682" lon="-1.4427">
        <ele>56</ele>
        <time>2020-09-26T11:05:53.000Z</time>
      </trkpt>
      <trkpt lat="47.42676" lon="-1.44251">
        <ele>55</ele>
        <time>2020-09-26T11:05:55.000Z</time>
      </trkpt>
      <trkpt lat="47.42668" lon="-1.44232">
        <ele>55</ele>
        <time>2020-09-26T11:05:57.000Z</time>
      </trkpt>
      <trkpt lat="47.42661" lon="-1.44214">
        <ele>56</ele>
        <time>2020-09-26T11:05:59.000Z</time>
      </trkpt>
      <trkpt lat="47.42652" lon="-1.44197">
        <ele>56</ele>
        <time>2020-09-26T11:06:01.000Z</time>
      </trkpt>
      <trkpt lat="47.42642" lon="-1.4418">
        <ele>56</ele>
        <time>2020-09-26T11:06:03.000Z</time>
      </trkpt>
      <trkpt lat="47.42634" lon="-1.44164">
        <ele>56</ele>
        <time>2020-09-26T11:06:05.000Z</time>
      </trkpt>
      <trkpt lat="47.42625" lon="-1.44148">
        <ele>56</ele>
        <time>2020-09-26T11:06:07.000Z</time>
      </trkpt>
      <trkpt lat="47.42615" lon="-1.44131">
        <ele>56</ele>
        <time>2020-09-26T11:06:09.000Z</time>
      </trkpt>
      <trkpt lat="47.42606" lon="-1.44114">
        <ele>56</ele>
        <time>2020-09-26T11:06:11.000Z</time>
      </trkpt>
      <trkpt lat="47.42597" lon="-1.44097">
        <ele>56</ele>
        <time>2020-09-26T11:06:13.000Z</time>
      </trkpt>
      <trkpt lat="47.42588" lon="-1.44081">
        <ele>56</ele>
        <time>2020-09-26T11:06:15.000Z</time>
      </trkpt>
      <trkpt lat="47.42579" lon="-1.44064">
        <ele>57</ele>
        <time>2020-09-26T11:06:17.000Z</time>
      </trkpt>
      <trkpt lat="47.4257" lon="-1.44049">
        <ele>57</ele>
        <time>2020-09-26T11:06:19.000Z</time>
      </trkpt>
      <trkpt lat="47.42562" lon="-1.44033">
        <ele>57</ele>
        <time>2020-09-26T11:06:21.000Z</time>
      </trkpt>
      <trkpt lat="47.42553" lon="-1.44017">
        <ele>57</ele>
        <time>2020-09-26T11:06:23.000Z</time>
      </trkpt>
      <trkpt lat="47.42544" lon="-1.44001">
        <ele>57</ele>
        <time>2020-09-26T11:06:25.000Z</time>
      </trkpt>
      <trkpt lat="47.42535" lon="-1.43986">
        <ele>57</ele>
        <time>2020-09-26T11:06:27.000Z</time>
      </trkpt>
      <trkpt lat="47.42527" lon="-1.43969">
        <ele>57</ele>
        <time>2020-09-26T11:06:29.000Z</time>
      </trkpt>
      <trkpt lat="47.42518" lon="-1.43953">
        <ele>58</ele>
        <time>2020-09-26T11:06:31.000Z</time>
      </trkpt>
      <trkpt lat="47.4251" lon="-1.43938">
        <ele>58</ele>
        <time>2020-09-26T11:06:33.000Z</time>
      </trkpt>
      <trkpt lat="47.42502" lon="-1.43922">
        <ele>58</ele>
        <time>2020-09-26T11:06:35.000Z</time>
      </trkpt>
      <trkpt lat="47.42494" lon="-1.43906">
        <ele>59</ele>
        <time>2020-09-26T11:06:37.000Z</time>
      </trkpt>
      <trkpt lat="47.42486" lon="-1.43889">
        <ele>59</ele>
        <time>2020-09-26T11:06:39.000Z</time>
      </trkpt>
      <trkpt lat="47.42478" lon="-1.43872">
        <ele>59</ele>
        <time>2020-09-26T11:06:41.000Z</time>
      </trkpt>
      <trkpt lat="47.42471" lon="-1.43855">
        <ele>59</ele>
        <time>2020-09-26T11:06:43.000Z</time>
      </trkpt>
      <trkpt lat="47.42463" lon="-1.43838">
        <ele>60</ele>
        <time>2020-09-26T11:06:45.000Z</time>
      </trkpt>
      <trkpt lat="47.42455" lon="-1.43821">
        <ele>60</ele>
        <time>2020-09-26T11:06:47.000Z</time>
      </trkpt>
      <trkpt lat="47.42448" lon="-1.43804">
        <ele>60</ele>
        <time>2020-09-26T11:06:49.000Z</time>
      </trkpt>
      <trkpt lat="47.4244" lon="-1.43787">
        <ele>60</ele>
        <time>2020-09-26T11:06:51.000Z</time>
      </trkpt>
      <trkpt lat="47.42432" lon="-1.43769">
        <ele>60</ele>
        <time>2020-09-26T11:06:53.000Z</time>
      </trkpt>
      <trkpt lat="47.42425" lon="-1.43752">
        <ele>61</ele>
        <time>2020-09-26T11:06:55.000Z</time>
      </trkpt>
      <trkpt lat="47.42417" lon="-1.43736">
        <ele>61</ele>
        <time>2020-09-26T11:06:57.000Z</time>
      </trkpt>
      <trkpt lat="47.4241" lon="-1.4372">
        <ele>61</ele>
        <time>2020-09-26T11:06:59.000Z</time>
      </trkpt>
      <trkpt lat="47.42402" lon="-1.43704">
        <ele>61</ele>
        <time>2020-09-26T11:07:01.000Z</time>
      </trkpt>
      <trkpt lat="47.42394" lon="-1.43688">
        <ele>62</ele>
        <time>2020-09-26T11:07:03.000Z</time>
      </trkpt>
      <trkpt lat="47.42386" lon="-1.43673">
        <ele>62</ele>
        <time>2020-09-26T11:07:05.000Z</time>
      </trkpt>
      <trkpt lat="47.42375" lon="-1.43659">
        <ele>62</ele>
        <time>2020-09-26T11:07:07.000Z</time>
      </trkpt>
      <trkpt lat="47.42365" lon="-1.43648">
        <ele>62</ele>
        <time>2020-09-26T11:07:09.000Z</time>
      </trkpt>
      <trkpt lat="47.42353" lon="-1.43637">
        <ele>62</ele>
        <time>2020-09-26T11:07:11.000Z</time>
      </trkpt>
      <trkpt lat="47.42343" lon="-1.43628">
        <ele>63</ele>
        <time>2020-09-26T11:07:13.000Z</time>
      </trkpt>
      <trkpt lat="47.42334" lon="-1.43617">
        <ele>63</ele>
        <time>2020-09-26T11:07:15.000Z</time>
      </trkpt>
      <trkpt lat="47.42328" lon="-1.43604">
        <ele>63</ele>
        <time>2020-09-26T11:07:17.000Z</time>
      </trkpt>
      <trkpt lat="47.42324" lon="-1.43591">
        <ele>63</ele>
        <time>2020-09-26T11:07:19.000Z</time>
      </trkpt>
      <trkpt lat="47.42321" lon="-1.43575">
        <ele>62</ele>
        <time>2020-09-26T11:07:21.000Z</time>
      </trkpt>
      <trkpt lat="47.42318" lon="-1.43556">
        <ele>63</ele>
        <time>2020-09-26T11:07:23.000Z</time>
      </trkpt>
      <trkpt lat="47.42315" lon="-1.43535">
        <ele>63</ele>
        <time>2020-09-26T11:07:25.000Z</time>
      </trkpt>
      <trkpt lat="47.42311" lon="-1.43515">
        <ele>62</ele>
        <time>2020-09-26T11:07:27.000Z</time>
      </trkpt>
      <trkpt lat="47.42306" lon="-1.43494">
        <ele>63</ele>
        <time>2020-09-26T11:07:29.000Z</time>
      </trkpt>
      <trkpt lat="47.42298" lon="-1.43475">
        <ele>62</ele>
        <time>2020-09-26T11:07:31.000Z</time>
      </trkpt>
      <trkpt lat="47.4229" lon="-1.43457">
        <ele>62</ele>
        <time>2020-09-26T11:07:33.000Z</time>
      </trkpt>
      <trkpt lat="47.42282" lon="-1.43439">
        <ele>62</ele>
        <time>2020-09-26T11:07:35.000Z</time>
      </trkpt>
      <trkpt lat="47.42274" lon="-1.43422">
        <ele>62</ele>
        <time>2020-09-26T11:07:37.000Z</time>
      </trkpt>
      <trkpt lat="47.42266" lon="-1.43405">
        <ele>62</ele>
        <time>2020-09-26T11:07:39.000Z</time>
      </trkpt>
      <trkpt lat="47.42259" lon="-1.43389">
        <ele>62</ele>
        <time>2020-09-26T11:07:41.000Z</time>
      </trkpt>
      <trkpt lat="47.42252" lon="-1.43371">
        <ele>63</ele>
        <time>2020-09-26T11:07:43.000Z</time>
      </trkpt>
      <trkpt lat="47.42246" lon="-1.43354">
        <ele>63</ele>
        <time>2020-09-26T11:07:45.000Z</time>
      </trkpt>
      <trkpt lat="47.4224" lon="-1.43337">
        <ele>64</ele>
        <time>2020-09-26T11:07:47.000Z</time>
      </trkpt>
      <trkpt lat="47.42234" lon="-1.43319">
        <ele>64</ele>
        <time>2020-09-26T11:07:49.000Z</time>
      </trkpt>
      <trkpt lat="47.42228" lon="-1.43301">
        <ele>64</ele>
        <time>2020-09-26T11:07:51.000Z</time>
      </trkpt>
      <trkpt lat="47.42224" lon="-1.43282">
        <ele>65</ele>
        <time>2020-09-26T11:07:53.000Z</time>
      </trkpt>
      <trkpt lat="47.4222" lon="-1.43264">
        <ele>65</ele>
        <time>2020-09-26T11:07:55.000Z</time>
      </trkpt>
      <trkpt lat="47.42217" lon="-1.43245">
        <ele>66</ele>
        <time>2020-09-26T11:07:57.000Z</time>
      </trkpt>
      <trkpt lat="47.42215" lon="-1.43225">
        <ele>65</ele>
        <time>2020-09-26T11:07:59.000Z</time>
      </trkpt>
      <trkpt lat="47.42213" lon="-1.43204">
        <ele>65</ele>
        <time>2020-09-26T11:08:01.000Z</time>
      </trkpt>
      <trkpt lat="47.42211" lon="-1.43184">
        <ele>65</ele>
        <time>2020-09-26T11:08:03.000Z</time>
      </trkpt>
      <trkpt lat="47.42209" lon="-1.43163">
        <ele>65</ele>
        <time>2020-09-26T11:08:05.000Z</time>
      </trkpt>
      <trkpt lat="47.42207" lon="-1.43141">
        <ele>65</ele>
        <time>2020-09-26T11:08:07.000Z</time>
      </trkpt>
      <trkpt lat="47.42205" lon="-1.43119">
        <ele>65</ele>
        <time>2020-09-26T11:08:09.000Z</time>
      </trkpt>
      <trkpt lat="47.42203" lon="-1.43097">
        <ele>64</ele>
        <time>2020-09-26T11:08:11.000Z</time>
      </trkpt>
      <trkpt lat="47.42201" lon="-1.43075">
        <ele>64</ele>
        <time>2020-09-26T11:08:13.000Z</time>
      </trkpt>
      <trkpt lat="47.42198" lon="-1.43053">
        <ele>64</ele>
        <time>2020-09-26T11:08:15.000Z</time>
      </trkpt>
      <trkpt lat="47.42196" lon="-1.4303">
        <ele>64</ele>
        <time>2020-09-26T11:08:17.000Z</time>
      </trkpt>
      <trkpt lat="47.42193" lon="-1.43009">
        <ele>64</ele>
        <time>2020-09-26T11:08:19.000Z</time>
      </trkpt>
      <trkpt lat="47.4219" lon="-1.42987">
        <ele>64</ele>
        <time>2020-09-26T11:08:21.000Z</time>
      </trkpt>
      <trkpt lat="47.42186" lon="-1.42966">
        <ele>64</ele>
        <time>2020-09-26T11:08:23.000Z</time>
      </trkpt>
      <trkpt lat="47.42183" lon="-1.42946">
        <ele>64</ele>
        <time>2020-09-26T11:08:25.000Z</time>
      </trkpt>
      <trkpt lat="47.4218" lon="-1.42925">
        <ele>64</ele>
        <time>2020-09-26T11:08:27.000Z</time>
      </trkpt>
      <trkpt lat="47.42176" lon="-1.42904">
        <ele>64</ele>
        <time>2020-09-26T11:08:29.000Z</time>
      </trkpt>
      <trkpt lat="47.42173" lon="-1.42884">
        <ele>64</ele>
        <time>2020-09-26T11:08:31.000Z</time>
      </trkpt>
      <trkpt lat="47.4217" lon="-1.42863">
        <ele>64</ele>
        <time>2020-09-26T11:08:33.000Z</time>
      </trkpt>
      <trkpt lat="47.42167" lon="-1.42842">
        <ele>64</ele>
        <time>2020-09-26T11:08:35.000Z</time>
      </trkpt>
      <trkpt lat="47.42163" lon="-1.42821">
        <ele>64</ele>
        <time>2020-09-26T11:08:37.000Z</time>
      </trkpt>
      <trkpt lat="47.4216" lon="-1.428">
        <ele>64</ele>
        <time>2020-09-26T11:08:39.000Z</time>
      </trkpt>
      <trkpt lat="47.42157" lon="-1.42778">
        <ele>63</ele>
        <time>2020-09-26T11:08:41.000Z</time>
      </trkpt>
      <trkpt lat="47.42153" lon="-1.42756">
        <ele>63</ele>
        <time>2020-09-26T11:08:43.000Z</time>
      </trkpt>
      <trkpt lat="47.4215" lon="-1.42735">
        <ele>63</ele>
        <time>2020-09-26T11:08:45.000Z</time>
      </trkpt>
      <trkpt lat="47.42146" lon="-1.42713">
        <ele>62</ele>
        <time>2020-09-26T11:08:47.000Z</time>
      </trkpt>
      <trkpt lat="47.42143" lon="-1.42692">
        <ele>62</ele>
        <time>2020-09-26T11:08:49.000Z</time>
      </trkpt>
      <trkpt lat="47.42139" lon="-1.42671">
        <ele>62</ele>
        <time>2020-09-26T11:08:51.000Z</time>
      </trkpt>
      <trkpt lat="47.42135" lon="-1.4265">
        <ele>62</ele>
        <time>2020-09-26T11:08:53.000Z</time>
      </trkpt>
      <trkpt lat="47.42131" lon="-1.42628">
        <ele>61</ele>
        <time>2020-09-26T11:08:55.000Z</time>
      </trkpt>
      <trkpt lat="47.42126" lon="-1.42607">
        <ele>61</ele>
        <time>2020-09-26T11:08:57.000Z</time>
      </trkpt>
      <trkpt lat="47.4212" lon="-1.42585">
        <ele>60</ele>
        <time>2020-09-26T11:08:59.000Z</time>
      </trkpt>
      <trkpt lat="47.42115" lon="-1.42564">
        <ele>60</ele>
        <time>2020-09-26T11:09:01.000Z</time>
      </trkpt>
      <trkpt lat="47.42109" lon="-1.42543">
        <ele>59</ele>
        <time>2020-09-26T11:09:03.000Z</time>
      </trkpt>
      <trkpt lat="47.42103" lon="-1.42521">
        <ele>59</ele>
        <time>2020-09-26T11:09:05.000Z</time>
      </trkpt>
      <trkpt lat="47.42097" lon="-1.425">
        <ele>59</ele>
        <time>2020-09-26T11:09:07.000Z</time>
      </trkpt>
      <trkpt lat="47.42091" lon="-1.42478">
        <ele>59</ele>
        <time>2020-09-26T11:09:09.000Z</time>
      </trkpt>
      <trkpt lat="47.42084" lon="-1.42458">
        <ele>58</ele>
        <time>2020-09-26T11:09:11.000Z</time>
      </trkpt>
      <trkpt lat="47.42077" lon="-1.42438">
        <ele>58</ele>
        <time>2020-09-26T11:09:13.000Z</time>
      </trkpt>
      <trkpt lat="47.42069" lon="-1.42418">
        <ele>58</ele>
        <time>2020-09-26T11:09:15.000Z</time>
      </trkpt>
      <trkpt lat="47.42061" lon="-1.42399">
        <ele>58</ele>
        <time>2020-09-26T11:09:17.000Z</time>
      </trkpt>
      <trkpt lat="47.42054" lon="-1.42379">
        <ele>58</ele>
        <time>2020-09-26T11:09:19.000Z</time>
      </trkpt>
      <trkpt lat="47.42046" lon="-1.42361">
        <ele>58</ele>
        <time>2020-09-26T11:09:21.000Z</time>
      </trkpt>
      <trkpt lat="47.42038" lon="-1.42342">
        <ele>58</ele>
        <time>2020-09-26T11:09:23.000Z</time>
      </trkpt>
      <trkpt lat="47.4203" lon="-1.42324">
        <ele>58</ele>
        <time>2020-09-26T11:09:25.000Z</time>
      </trkpt>
      <trkpt lat="47.42022" lon="-1.42307">
        <ele>58</ele>
        <time>2020-09-26T11:09:27.000Z</time>
      </trkpt>
      <trkpt lat="47.42014" lon="-1.42289">
        <ele>58</ele>
        <time>2020-09-26T11:09:29.000Z</time>
      </trkpt>
      <trkpt lat="47.42005" lon="-1.42271">
        <ele>58</ele>
        <time>2020-09-26T11:09:31.000Z</time>
      </trkpt>
      <trkpt lat="47.41996" lon="-1.42254">
        <ele>59</ele>
        <time>2020-09-26T11:09:33.000Z</time>
      </trkpt>
      <trkpt lat="47.41987" lon="-1.42238">
        <ele>59</ele>
        <time>2020-09-26T11:09:35.000Z</time>
      </trkpt>
      <trkpt lat="47.41977" lon="-1.42221">
        <ele>59</ele>
        <time>2020-09-26T11:09:37.000Z</time>
      </trkpt>
      <trkpt lat="47.41968" lon="-1.42204">
        <ele>59</ele>
        <time>2020-09-26T11:09:39.000Z</time>
      </trkpt>
      <trkpt lat="47.41959" lon="-1.42187">
        <ele>59</ele>
        <time>2020-09-26T11:09:41.000Z</time>
      </trkpt>
      <trkpt lat="47.4195" lon="-1.42171">
        <ele>59</ele>
        <time>2020-09-26T11:09:43.000Z</time>
      </trkpt>
      <trkpt lat="47.41941" lon="-1.42155">
        <ele>59</ele>
        <time>2020-09-26T11:09:45.000Z</time>
      </trkpt>
      <trkpt lat="47.41932" lon="-1.42138">
        <ele>59</ele>
        <time>2020-09-26T11:09:47.000Z</time>
      </trkpt>
      <trkpt lat="47.41923" lon="-1.42123">
        <ele>59</ele>
        <time>2020-09-26T11:09:49.000Z</time>
      </trkpt>
      <trkpt lat="47.41915" lon="-1.42107">
        <ele>59</ele>
        <time>2020-09-26T11:09:51.000Z</time>
      </trkpt>
      <trkpt lat="47.41906" lon="-1.42092">
        <ele>59</ele>
        <time>2020-09-26T11:09:53.000Z</time>
      </trkpt>
      <trkpt lat="47.41897" lon="-1.42076">
        <ele>59</ele>
        <time>2020-09-26T11:09:55.000Z</time>
      </trkpt>
      <trkpt lat="47.41888" lon="-1.42061">
        <ele>59</ele>
        <time>2020-09-26T11:09:57.000Z</time>
      </trkpt>
      <trkpt lat="47.4188" lon="-1.42045">
        <ele>59</ele>
        <time>2020-09-26T11:09:59.000Z</time>
      </trkpt>
      <trkpt lat="47.41871" lon="-1.4203">
        <ele>59</ele>
        <time>2020-09-26T11:10:01.000Z</time>
      </trkpt>
      <trkpt lat="47.41863" lon="-1.42015">
        <ele>59</ele>
        <time>2020-09-26T11:10:03.000Z</time>
      </trkpt>
      <trkpt lat="47.41854" lon="-1.41999">
        <ele>59</ele>
        <time>2020-09-26T11:10:05.000Z</time>
      </trkpt>
      <trkpt lat="47.41846" lon="-1.41984">
        <ele>59</ele>
        <time>2020-09-26T11:10:07.000Z</time>
      </trkpt>
      <trkpt lat="47.41837" lon="-1.41967">
        <ele>59</ele>
        <time>2020-09-26T11:10:09.000Z</time>
      </trkpt>
      <trkpt lat="47.41828" lon="-1.41951">
        <ele>59</ele>
        <time>2020-09-26T11:10:11.000Z</time>
      </trkpt>
      <trkpt lat="47.41819" lon="-1.41936">
        <ele>60</ele>
        <time>2020-09-26T11:10:13.000Z</time>
      </trkpt>
      <trkpt lat="47.4181" lon="-1.4192">
        <ele>59</ele>
        <time>2020-09-26T11:10:15.000Z</time>
      </trkpt>
      <trkpt lat="47.41801" lon="-1.41904">
        <ele>59</ele>
        <time>2020-09-26T11:10:17.000Z</time>
      </trkpt>
      <trkpt lat="47.41793" lon="-1.41888">
        <ele>59</ele>
        <time>2020-09-26T11:10:19.000Z</time>
      </trkpt>
      <trkpt lat="47.41784" lon="-1.41873">
        <ele>59</ele>
        <time>2020-09-26T11:10:21.000Z</time>
      </trkpt>
      <trkpt lat="47.41775" lon="-1.41857">
        <ele>59</ele>
        <time>2020-09-26T11:10:23.000Z</time>
      </trkpt>
      <trkpt lat="47.41766" lon="-1.41841">
        <ele>59</ele>
        <time>2020-09-26T11:10:25.000Z</time>
      </trkpt>
      <trkpt lat="47.41757" lon="-1.41826">
        <ele>59</ele>
        <time>2020-09-26T11:10:27.000Z</time>
      </trkpt>
      <trkpt lat="47.41749" lon="-1.4181">
        <ele>59</ele>
        <time>2020-09-26T11:10:29.000Z</time>
      </trkpt>
      <trkpt lat="47.4174" lon="-1.41795">
        <ele>59</ele>
        <time>2020-09-26T11:10:31.000Z</time>
      </trkpt>
      <trkpt lat="47.41732" lon="-1.41779">
        <ele>59</ele>
        <time>2020-09-26T11:10:33.000Z</time>
      </trkpt>
      <trkpt lat="47.41722" lon="-1.41764">
        <ele>59</ele>
        <time>2020-09-26T11:10:35.000Z</time>
      </trkpt>
      <trkpt lat="47.41713" lon="-1.41748">
        <ele>59</ele>
        <time>2020-09-26T11:10:37.000Z</time>
      </trkpt>
      <trkpt lat="47.41704" lon="-1.41732">
        <ele>59</ele>
        <time>2020-09-26T11:10:39.000Z</time>
      </trkpt>
      <trkpt lat="47.41696" lon="-1.41716">
        <ele>59</ele>
        <time>2020-09-26T11:10:41.000Z</time>
      </trkpt>
      <trkpt lat="47.41687" lon="-1.41699">
        <ele>59</ele>
        <time>2020-09-26T11:10:43.000Z</time>
      </trkpt>
      <trkpt lat="47.41678" lon="-1.41682">
        <ele>59</ele>
        <time>2020-09-26T11:10:45.000Z</time>
      </trkpt>
      <trkpt lat="47.4167" lon="-1.41665">
        <ele>59</ele>
        <time>2020-09-26T11:10:47.000Z</time>
      </trkpt>
      <trkpt lat="47.41663" lon="-1.41647">
        <ele>59</ele>
        <time>2020-09-26T11:10:49.000Z</time>
      </trkpt>
      <trkpt lat="47.41656" lon="-1.4163">
        <ele>59</ele>
        <time>2020-09-26T11:10:51.000Z</time>
      </trkpt>
      <trkpt lat="47.41649" lon="-1.41612">
        <ele>59</ele>
        <time>2020-09-26T11:10:53.000Z</time>
      </trkpt>
      <trkpt lat="47.41643" lon="-1.41593">
        <ele>59</ele>
        <time>2020-09-26T11:10:55.000Z</time>
      </trkpt>
      <trkpt lat="47.41637" lon="-1.41574">
        <ele>60</ele>
        <time>2020-09-26T11:10:57.000Z</time>
      </trkpt>
      <trkpt lat="47.41632" lon="-1.41555">
        <ele>60</ele>
        <time>2020-09-26T11:10:59.000Z</time>
      </trkpt>
      <trkpt lat="47.41628" lon="-1.41535">
        <ele>61</ele>
        <time>2020-09-26T11:11:01.000Z</time>
      </trkpt>
      <trkpt lat="47.41624" lon="-1.41515">
        <ele>61</ele>
        <time>2020-09-26T11:11:03.000Z</time>
      </trkpt>
      <trkpt lat="47.4162" lon="-1.41495">
        <ele>61</ele>
        <time>2020-09-26T11:11:05.000Z</time>
      </trkpt>
      <trkpt lat="47.41617" lon="-1.41475">
        <ele>61</ele>
        <time>2020-09-26T11:11:07.000Z</time>
      </trkpt>
      <trkpt lat="47.41613" lon="-1.41455">
        <ele>61</ele>
        <time>2020-09-26T11:11:09.000Z</time>
      </trkpt>
      <trkpt lat="47.41609" lon="-1.41435">
        <ele>61</ele>
        <time>2020-09-26T11:11:11.000Z</time>
      </trkpt>
      <trkpt lat="47.41605" lon="-1.41415">
        <ele>61</ele>
        <time>2020-09-26T11:11:13.000Z</time>
      </trkpt>
      <trkpt lat="47.41601" lon="-1.41395">
        <ele>61</ele>
        <time>2020-09-26T11:11:15.000Z</time>
      </trkpt>
      <trkpt lat="47.41597" lon="-1.41376">
        <ele>62</ele>
        <time>2020-09-26T11:11:17.000Z</time>
      </trkpt>
      <trkpt lat="47.41593" lon="-1.41355">
        <ele>62</ele>
        <time>2020-09-26T11:11:19.000Z</time>
      </trkpt>
      <trkpt lat="47.41589" lon="-1.41336">
        <ele>62</ele>
        <time>2020-09-26T11:11:21.000Z</time>
      </trkpt>
      <trkpt lat="47.41585" lon="-1.41317">
        <ele>62</ele>
        <time>2020-09-26T11:11:23.000Z</time>
      </trkpt>
      <trkpt lat="47.4158" lon="-1.41298">
        <ele>62</ele>
        <time>2020-09-26T11:11:25.000Z</time>
      </trkpt>
      <trkpt lat="47.41575" lon="-1.41278">
        <ele>62</ele>
        <time>2020-09-26T11:11:27.000Z</time>
      </trkpt>
      <trkpt lat="47.41571" lon="-1.41259">
        <ele>62</ele>
        <time>2020-09-26T11:11:29.000Z</time>
      </trkpt>
      <trkpt lat="47.41566" lon="-1.41238">
        <ele>61</ele>
        <time>2020-09-26T11:11:31.000Z</time>
      </trkpt>
      <trkpt lat="47.41562" lon="-1.41219">
        <ele>61</ele>
        <time>2020-09-26T11:11:33.000Z</time>
      </trkpt>
      <trkpt lat="47.41558" lon="-1.412">
        <ele>61</ele>
        <time>2020-09-26T11:11:35.000Z</time>
      </trkpt>
      <trkpt lat="47.41553" lon="-1.4118">
        <ele>61</ele>
        <time>2020-09-26T11:11:37.000Z</time>
      </trkpt>
      <trkpt lat="47.41549" lon="-1.41161">
        <ele>61</ele>
        <time>2020-09-26T11:11:39.000Z</time>
      </trkpt>
      <trkpt lat="47.41545" lon="-1.41141">
        <ele>61</ele>
        <time>2020-09-26T11:11:41.000Z</time>
      </trkpt>
      <trkpt lat="47.4154" lon="-1.41122">
        <ele>61</ele>
        <time>2020-09-26T11:11:43.000Z</time>
      </trkpt>
      <trkpt lat="47.41535" lon="-1.41103">
        <ele>61</ele>
        <time>2020-09-26T11:11:45.000Z</time>
      </trkpt>
      <trkpt lat="47.41531" lon="-1.41083">
        <ele>61</ele>
        <time>2020-09-26T11:11:47.000Z</time>
      </trkpt>
      <trkpt lat="47.41526" lon="-1.41064">
        <ele>61</ele>
        <time>2020-09-26T11:11:49.000Z</time>
      </trkpt>
      <trkpt lat="47.41522" lon="-1.41044">
        <ele>61</ele>
        <time>2020-09-26T11:11:51.000Z</time>
      </trkpt>
      <trkpt lat="47.41517" lon="-1.41025">
        <ele>61</ele>
        <time>2020-09-26T11:11:53.000Z</time>
      </trkpt>
      <trkpt lat="47.41513" lon="-1.41006">
        <ele>61</ele>
        <time>2020-09-26T11:11:55.000Z</time>
      </trkpt>
      <trkpt lat="47.41509" lon="-1.40986">
        <ele>61</ele>
        <time>2020-09-26T11:11:57.000Z</time>
      </trkpt>
      <trkpt lat="47.41504" lon="-1.40967">
        <ele>62</ele>
        <time>2020-09-26T11:11:59.000Z</time>
      </trkpt>
      <trkpt lat="47.41499" lon="-1.40948">
        <ele>62</ele>
        <time>2020-09-26T11:12:01.000Z</time>
      </trkpt>
      <trkpt lat="47.41495" lon="-1.40928">
        <ele>62</ele>
        <time>2020-09-26T11:12:03.000Z</time>
      </trkpt>
      <trkpt lat="47.41491" lon="-1.4091">
        <ele>61</ele>
        <time>2020-09-26T11:12:05.000Z</time>
      </trkpt>
      <trkpt lat="47.41486" lon="-1.40892">
        <ele>62</ele>
        <time>2020-09-26T11:12:07.000Z</time>
      </trkpt>
      <trkpt lat="47.41482" lon="-1.40872">
        <ele>62</ele>
        <time>2020-09-26T11:12:09.000Z</time>
      </trkpt>
      <trkpt lat="47.4148" lon="-1.40852">
        <ele>61</ele>
        <time>2020-09-26T11:12:11.000Z</time>
      </trkpt>
      <trkpt lat="47.41478" lon="-1.40832">
        <ele>61</ele>
        <time>2020-09-26T11:12:13.000Z</time>
      </trkpt>
      <trkpt lat="47.41476" lon="-1.40811">
        <ele>62</ele>
        <time>2020-09-26T11:12:15.000Z</time>
      </trkpt>
      <trkpt lat="47.41475" lon="-1.4079">
        <ele>62</ele>
        <time>2020-09-26T11:12:17.000Z</time>
      </trkpt>
      <trkpt lat="47.41474" lon="-1.4077">
        <ele>63</ele>
        <time>2020-09-26T11:12:19.000Z</time>
      </trkpt>
      <trkpt lat="47.41472" lon="-1.4075">
        <ele>63</ele>
        <time>2020-09-26T11:12:21.000Z</time>
      </trkpt>
      <trkpt lat="47.41471" lon="-1.4073">
        <ele>63</ele>
        <time>2020-09-26T11:12:23.000Z</time>
      </trkpt>
      <trkpt lat="47.41469" lon="-1.4071">
        <ele>63</ele>
        <time>2020-09-26T11:12:25.000Z</time>
      </trkpt>
      <trkpt lat="47.41468" lon="-1.4069">
        <ele>63</ele>
        <time>2020-09-26T11:12:27.000Z</time>
      </trkpt>
      <trkpt lat="47.41466" lon="-1.4067">
        <ele>63</ele>
        <time>2020-09-26T11:12:29.000Z</time>
      </trkpt>
      <trkpt lat="47.41464" lon="-1.4065">
        <ele>63</ele>
        <time>2020-09-26T11:12:31.000Z</time>
      </trkpt>
      <trkpt lat="47.41463" lon="-1.4063">
        <ele>63</ele>
        <time>2020-09-26T11:12:33.000Z</time>
      </trkpt>
      <trkpt lat="47.41462" lon="-1.40611">
        <ele>63</ele>
        <time>2020-09-26T11:12:35.000Z</time>
      </trkpt>
      <trkpt lat="47.41461" lon="-1.40591">
        <ele>63</ele>
        <time>2020-09-26T11:12:37.000Z</time>
      </trkpt>
      <trkpt lat="47.41459" lon="-1.40572">
        <ele>63</ele>
        <time>2020-09-26T11:12:39.000Z</time>
      </trkpt>
      <trkpt lat="47.41458" lon="-1.40553">
        <ele>63</ele>
        <time>2020-09-26T11:12:41.000Z</time>
      </trkpt>
      <trkpt lat="47.41457" lon="-1.40533">
        <ele>63</ele>
        <time>2020-09-26T11:12:43.000Z</time>
      </trkpt>
      <trkpt lat="47.41456" lon="-1.40514">
        <ele>63</ele>
        <time>2020-09-26T11:12:45.000Z</time>
      </trkpt>
      <trkpt lat="47.41454" lon="-1.40494">
        <ele>63</ele>
        <time>2020-09-26T11:12:47.000Z</time>
      </trkpt>
      <trkpt lat="47.41453" lon="-1.40474">
        <ele>62</ele>
        <time>2020-09-26T11:12:49.000Z</time>
      </trkpt>
      <trkpt lat="47.41451" lon="-1.40454">
        <ele>63</ele>
        <time>2020-09-26T11:12:51.000Z</time>
      </trkpt>
      <trkpt lat="47.4145" lon="-1.40435">
        <ele>63</ele>
        <time>2020-09-26T11:12:53.000Z</time>
      </trkpt>
      <trkpt lat="47.41448" lon="-1.40415">
        <ele>63</ele>
        <time>2020-09-26T11:12:55.000Z</time>
      </trkpt>
      <trkpt lat="47.41447" lon="-1.40396">
        <ele>63</ele>
        <time>2020-09-26T11:12:57.000Z</time>
      </trkpt>
      <trkpt lat="47.41445" lon="-1.40375">
        <ele>63</ele>
        <time>2020-09-26T11:12:59.000Z</time>
      </trkpt>
      <trkpt lat="47.41444" lon="-1.40356">
        <ele>63</ele>
        <time>2020-09-26T11:13:01.000Z</time>
      </trkpt>
      <trkpt lat="47.41443" lon="-1.40336">
        <ele>64</ele>
        <time>2020-09-26T11:13:03.000Z</time>
      </trkpt>
      <trkpt lat="47.41442" lon="-1.40317">
        <ele>64</ele>
        <time>2020-09-26T11:13:05.000Z</time>
      </trkpt>
      <trkpt lat="47.4144" lon="-1.40298">
        <ele>64</ele>
        <time>2020-09-26T11:13:07.000Z</time>
      </trkpt>
      <trkpt lat="47.41439" lon="-1.4028">
        <ele>64</ele>
        <time>2020-09-26T11:13:09.000Z</time>
      </trkpt>
      <trkpt lat="47.41438" lon="-1.40262">
        <ele>65</ele>
        <time>2020-09-26T11:13:11.000Z</time>
      </trkpt>
      <trkpt lat="47.41436" lon="-1.40245">
        <ele>65</ele>
        <time>2020-09-26T11:13:13.000Z</time>
      </trkpt>
      <trkpt lat="47.41435" lon="-1.40228">
        <ele>66</ele>
        <time>2020-09-26T11:13:15.000Z</time>
      </trkpt>
      <trkpt lat="47.41434" lon="-1.40211">
        <ele>66</ele>
        <time>2020-09-26T11:13:17.000Z</time>
      </trkpt>
      <trkpt lat="47.41432" lon="-1.40196">
        <ele>67</ele>
        <time>2020-09-26T11:13:19.000Z</time>
      </trkpt>
      <trkpt lat="47.41431" lon="-1.4018">
        <ele>67</ele>
        <time>2020-09-26T11:13:21.000Z</time>
      </trkpt>
      <trkpt lat="47.41431" lon="-1.40165">
        <ele>67</ele>
        <time>2020-09-26T11:13:23.000Z</time>
      </trkpt>
      <trkpt lat="47.4143" lon="-1.4015">
        <ele>68</ele>
        <time>2020-09-26T11:13:25.000Z</time>
      </trkpt>
      <trkpt lat="47.41428" lon="-1.40135">
        <ele>68</ele>
        <time>2020-09-26T11:13:27.000Z</time>
      </trkpt>
      <trkpt lat="47.41427" lon="-1.4012">
        <ele>69</ele>
        <time>2020-09-26T11:13:29.000Z</time>
      </trkpt>
      <trkpt lat="47.41425" lon="-1.40106">
        <ele>70</ele>
        <time>2020-09-26T11:13:31.000Z</time>
      </trkpt>
      <trkpt lat="47.41424" lon="-1.40091">
        <ele>71</ele>
        <time>2020-09-26T11:13:33.000Z</time>
      </trkpt>
      <trkpt lat="47.41423" lon="-1.40076">
        <ele>71</ele>
        <time>2020-09-26T11:13:35.000Z</time>
      </trkpt>
      <trkpt lat="47.41422" lon="-1.40061">
        <ele>72</ele>
        <time>2020-09-26T11:13:37.000Z</time>
      </trkpt>
      <trkpt lat="47.41421" lon="-1.40046">
        <ele>72</ele>
        <time>2020-09-26T11:13:39.000Z</time>
      </trkpt>
      <trkpt lat="47.4142" lon="-1.40031">
        <ele>72</ele>
        <time>2020-09-26T11:13:41.000Z</time>
      </trkpt>
      <trkpt lat="47.41419" lon="-1.40016">
        <ele>73</ele>
        <time>2020-09-26T11:13:43.000Z</time>
      </trkpt>
      <trkpt lat="47.41417" lon="-1.40001">
        <ele>74</ele>
        <time>2020-09-26T11:13:45.000Z</time>
      </trkpt>
      <trkpt lat="47.41416" lon="-1.39986">
        <ele>75</ele>
        <time>2020-09-26T11:13:47.000Z</time>
      </trkpt>
      <trkpt lat="47.41415" lon="-1.39971">
        <ele>75</ele>
        <time>2020-09-26T11:13:49.000Z</time>
      </trkpt>
      <trkpt lat="47.41414" lon="-1.39956">
        <ele>76</ele>
        <time>2020-09-26T11:13:51.000Z</time>
      </trkpt>
      <trkpt lat="47.41413" lon="-1.39941">
        <ele>77</ele>
        <time>2020-09-26T11:13:53.000Z</time>
      </trkpt>
      <trkpt lat="47.41412" lon="-1.39926">
        <ele>78</ele>
        <time>2020-09-26T11:13:55.000Z</time>
      </trkpt>
      <trkpt lat="47.41411" lon="-1.39912">
        <ele>78</ele>
        <time>2020-09-26T11:13:57.000Z</time>
      </trkpt>
      <trkpt lat="47.41409" lon="-1.39898">
        <ele>79</ele>
        <time>2020-09-26T11:13:59.000Z</time>
      </trkpt>
      <trkpt lat="47.41408" lon="-1.39884">
        <ele>79</ele>
        <time>2020-09-26T11:14:01.000Z</time>
      </trkpt>
      <trkpt lat="47.41407" lon="-1.3987">
        <ele>79</ele>
        <time>2020-09-26T11:14:03.000Z</time>
      </trkpt>
      <trkpt lat="47.41406" lon="-1.39856">
        <ele>79</ele>
        <time>2020-09-26T11:14:05.000Z</time>
      </trkpt>
      <trkpt lat="47.41405" lon="-1.39842">
        <ele>80</ele>
        <time>2020-09-26T11:14:07.000Z</time>
      </trkpt>
      <trkpt lat="47.41405" lon="-1.39827">
        <ele>80</ele>
        <time>2020-09-26T11:14:09.000Z</time>
      </trkpt>
      <trkpt lat="47.41404" lon="-1.39813">
        <ele>80</ele>
        <time>2020-09-26T11:14:11.000Z</time>
      </trkpt>
      <trkpt lat="47.41403" lon="-1.39799">
        <ele>81</ele>
        <time>2020-09-26T11:14:13.000Z</time>
      </trkpt>
      <trkpt lat="47.41401" lon="-1.39784">
        <ele>81</ele>
        <time>2020-09-26T11:14:15.000Z</time>
      </trkpt>
      <trkpt lat="47.414" lon="-1.3977">
        <ele>81</ele>
        <time>2020-09-26T11:14:17.000Z</time>
      </trkpt>
      <trkpt lat="47.41399" lon="-1.39754">
        <ele>81</ele>
        <time>2020-09-26T11:14:19.000Z</time>
      </trkpt>
      <trkpt lat="47.41398" lon="-1.39739">
        <ele>82</ele>
        <time>2020-09-26T11:14:21.000Z</time>
      </trkpt>
      <trkpt lat="47.41397" lon="-1.39724">
        <ele>82</ele>
        <time>2020-09-26T11:14:23.000Z</time>
      </trkpt>
      <trkpt lat="47.41396" lon="-1.39709">
        <ele>83</ele>
        <time>2020-09-26T11:14:25.000Z</time>
      </trkpt>
      <trkpt lat="47.41394" lon="-1.39694">
        <ele>83</ele>
        <time>2020-09-26T11:14:27.000Z</time>
      </trkpt>
      <trkpt lat="47.41394" lon="-1.39678">
        <ele>83</ele>
        <time>2020-09-26T11:14:29.000Z</time>
      </trkpt>
      <trkpt lat="47.41392" lon="-1.39663">
        <ele>83</ele>
        <time>2020-09-26T11:14:31.000Z</time>
      </trkpt>
      <trkpt lat="47.41391" lon="-1.39647">
        <ele>84</ele>
        <time>2020-09-26T11:14:33.000Z</time>
      </trkpt>
      <trkpt lat="47.4139" lon="-1.39631">
        <ele>84</ele>
        <time>2020-09-26T11:14:35.000Z</time>
      </trkpt>
      <trkpt lat="47.41389" lon="-1.39614">
        <ele>83</ele>
        <time>2020-09-26T11:14:37.000Z</time>
      </trkpt>
      <trkpt lat="47.41388" lon="-1.39598">
        <ele>83</ele>
        <time>2020-09-26T11:14:39.000Z</time>
      </trkpt>
      <trkpt lat="47.41387" lon="-1.39581">
        <ele>83</ele>
        <time>2020-09-26T11:14:41.000Z</time>
      </trkpt>
      <trkpt lat="47.41385" lon="-1.39565">
        <ele>83</ele>
        <time>2020-09-26T11:14:43.000Z</time>
      </trkpt>
      <trkpt lat="47.41384" lon="-1.39548">
        <ele>83</ele>
        <time>2020-09-26T11:14:45.000Z</time>
      </trkpt>
      <trkpt lat="47.41383" lon="-1.39531">
        <ele>83</ele>
        <time>2020-09-26T11:14:47.000Z</time>
      </trkpt>
      <trkpt lat="47.41382" lon="-1.39513">
        <ele>82</ele>
        <time>2020-09-26T11:14:49.000Z</time>
      </trkpt>
      <trkpt lat="47.4138" lon="-1.39494">
        <ele>82</ele>
        <time>2020-09-26T11:14:51.000Z</time>
      </trkpt>
      <trkpt lat="47.41379" lon="-1.39475">
        <ele>82</ele>
        <time>2020-09-26T11:14:53.000Z</time>
      </trkpt>
      <trkpt lat="47.41377" lon="-1.39455">
        <ele>81</ele>
        <time>2020-09-26T11:14:55.000Z</time>
      </trkpt>
      <trkpt lat="47.41376" lon="-1.39434">
        <ele>81</ele>
        <time>2020-09-26T11:14:57.000Z</time>
      </trkpt>
      <trkpt lat="47.41375" lon="-1.39413">
        <ele>80</ele>
        <time>2020-09-26T11:14:59.000Z</time>
      </trkpt>
      <trkpt lat="47.41373" lon="-1.39392">
        <ele>80</ele>
        <time>2020-09-26T11:15:01.000Z</time>
      </trkpt>
      <trkpt lat="47.41372" lon="-1.39372">
        <ele>80</ele>
        <time>2020-09-26T11:15:03.000Z</time>
      </trkpt>
      <trkpt lat="47.4137" lon="-1.39351">
        <ele>80</ele>
        <time>2020-09-26T11:15:05.000Z</time>
      </trkpt>
      <trkpt lat="47.41368" lon="-1.3933">
        <ele>80</ele>
        <time>2020-09-26T11:15:07.000Z</time>
      </trkpt>
      <trkpt lat="47.41367" lon="-1.3931">
        <ele>80</ele>
        <time>2020-09-26T11:15:09.000Z</time>
      </trkpt>
      <trkpt lat="47.41365" lon="-1.3929">
        <ele>80</ele>
        <time>2020-09-26T11:15:11.000Z</time>
      </trkpt>
      <trkpt lat="47.41364" lon="-1.3927">
        <ele>80</ele>
        <time>2020-09-26T11:15:13.000Z</time>
      </trkpt>
      <trkpt lat="47.41363" lon="-1.39249">
        <ele>80</ele>
        <time>2020-09-26T11:15:15.000Z</time>
      </trkpt>
      <trkpt lat="47.41361" lon="-1.3923">
        <ele>80</ele>
        <time>2020-09-26T11:15:17.000Z</time>
      </trkpt>
      <trkpt lat="47.41359" lon="-1.3921">
        <ele>80</ele>
        <time>2020-09-26T11:15:19.000Z</time>
      </trkpt>
      <trkpt lat="47.41355" lon="-1.39192">
        <ele>80</ele>
        <time>2020-09-26T11:15:21.000Z</time>
      </trkpt>
      <trkpt lat="47.41349" lon="-1.39175">
        <ele>80</ele>
        <time>2020-09-26T11:15:23.000Z</time>
      </trkpt>
      <trkpt lat="47.41346" lon="-1.39158">
        <ele>81</ele>
        <time>2020-09-26T11:15:25.000Z</time>
      </trkpt>
      <trkpt lat="47.41349" lon="-1.39138">
        <ele>81</ele>
        <time>2020-09-26T11:15:27.000Z</time>
      </trkpt>
      <trkpt lat="47.41351" lon="-1.39117">
        <ele>81</ele>
        <time>2020-09-26T11:15:29.000Z</time>
      </trkpt>
      <trkpt lat="47.41351" lon="-1.39097">
        <ele>80</ele>
        <time>2020-09-26T11:15:31.000Z</time>
      </trkpt>
      <trkpt lat="47.4135" lon="-1.39077">
        <ele>80</ele>
        <time>2020-09-26T11:15:33.000Z</time>
      </trkpt>
      <trkpt lat="47.41349" lon="-1.39058">
        <ele>80</ele>
        <time>2020-09-26T11:15:35.000Z</time>
      </trkpt>
      <trkpt lat="47.41348" lon="-1.39039">
        <ele>80</ele>
        <time>2020-09-26T11:15:37.000Z</time>
      </trkpt>
      <trkpt lat="47.41346" lon="-1.3902">
        <ele>80</ele>
        <time>2020-09-26T11:15:39.000Z</time>
      </trkpt>
      <trkpt lat="47.41345" lon="-1.39001">
        <ele>80</ele>
        <time>2020-09-26T11:15:41.000Z</time>
      </trkpt>
      <trkpt lat="47.41343" lon="-1.38981">
        <ele>81</ele>
        <time>2020-09-26T11:15:43.000Z</time>
      </trkpt>
      <trkpt lat="47.41342" lon="-1.38963">
        <ele>81</ele>
        <time>2020-09-26T11:15:45.000Z</time>
      </trkpt>
      <trkpt lat="47.4134" lon="-1.38944">
        <ele>80</ele>
        <time>2020-09-26T11:15:47.000Z</time>
      </trkpt>
      <trkpt lat="47.41339" lon="-1.38925">
        <ele>80</ele>
        <time>2020-09-26T11:15:49.000Z</time>
      </trkpt>
      <trkpt lat="47.41337" lon="-1.38907">
        <ele>80</ele>
        <time>2020-09-26T11:15:51.000Z</time>
      </trkpt>
      <trkpt lat="47.41336" lon="-1.38888">
        <ele>81</ele>
        <time>2020-09-26T11:15:53.000Z</time>
      </trkpt>
      <trkpt lat="47.41335" lon="-1.38869">
        <ele>80</ele>
        <time>2020-09-26T11:15:55.000Z</time>
      </trkpt>
      <trkpt lat="47.41334" lon="-1.38851">
        <ele>81</ele>
        <time>2020-09-26T11:15:57.000Z</time>
      </trkpt>
      <trkpt lat="47.41332" lon="-1.38833">
        <ele>81</ele>
        <time>2020-09-26T11:15:59.000Z</time>
      </trkpt>
      <trkpt lat="47.4133" lon="-1.38814">
        <ele>81</ele>
        <time>2020-09-26T11:16:01.000Z</time>
      </trkpt>
      <trkpt lat="47.41329" lon="-1.38796">
        <ele>81</ele>
        <time>2020-09-26T11:16:03.000Z</time>
      </trkpt>
      <trkpt lat="47.41328" lon="-1.38778">
        <ele>81</ele>
        <time>2020-09-26T11:16:05.000Z</time>
      </trkpt>
      <trkpt lat="47.41327" lon="-1.3876">
        <ele>81</ele>
        <time>2020-09-26T11:16:07.000Z</time>
      </trkpt>
      <trkpt lat="47.41325" lon="-1.3874">
        <ele>81</ele>
        <time>2020-09-26T11:16:09.000Z</time>
      </trkpt>
      <trkpt lat="47.41324" lon="-1.38721">
        <ele>81</ele>
        <time>2020-09-26T11:16:11.000Z</time>
      </trkpt>
      <trkpt lat="47.41323" lon="-1.38703">
        <ele>81</ele>
        <time>2020-09-26T11:16:13.000Z</time>
      </trkpt>
      <trkpt lat="47.41321" lon="-1.38684">
        <ele>81</ele>
        <time>2020-09-26T11:16:15.000Z</time>
      </trkpt>
      <trkpt lat="47.4132" lon="-1.38665">
        <ele>81</ele>
        <time>2020-09-26T11:16:17.000Z</time>
      </trkpt>
      <trkpt lat="47.4132" lon="-1.38647">
        <ele>82</ele>
        <time>2020-09-26T11:16:19.000Z</time>
      </trkpt>
      <trkpt lat="47.41318" lon="-1.38629">
        <ele>82</ele>
        <time>2020-09-26T11:16:21.000Z</time>
      </trkpt>
      <trkpt lat="47.41317" lon="-1.38611">
        <ele>82</ele>
        <time>2020-09-26T11:16:23.000Z</time>
      </trkpt>
      <trkpt lat="47.41314" lon="-1.38592">
        <ele>82</ele>
        <time>2020-09-26T11:16:25.000Z</time>
      </trkpt>
      <trkpt lat="47.41313" lon="-1.38572">
        <ele>82</ele>
        <time>2020-09-26T11:16:27.000Z</time>
      </trkpt>
      <trkpt lat="47.41312" lon="-1.38553">
        <ele>82</ele>
        <time>2020-09-26T11:16:29.000Z</time>
      </trkpt>
      <trkpt lat="47.4131" lon="-1.38534">
        <ele>81</ele>
        <time>2020-09-26T11:16:31.000Z</time>
      </trkpt>
      <trkpt lat="47.41309" lon="-1.38515">
        <ele>81</ele>
        <time>2020-09-26T11:16:33.000Z</time>
      </trkpt>
      <trkpt lat="47.41307" lon="-1.38496">
        <ele>81</ele>
        <time>2020-09-26T11:16:35.000Z</time>
      </trkpt>
      <trkpt lat="47.41305" lon="-1.38477">
        <ele>82</ele>
        <time>2020-09-26T11:16:37.000Z</time>
      </trkpt>
      <trkpt lat="47.41303" lon="-1.38459">
        <ele>82</ele>
        <time>2020-09-26T11:16:39.000Z</time>
      </trkpt>
      <trkpt lat="47.41301" lon="-1.38439">
        <ele>82</ele>
        <time>2020-09-26T11:16:41.000Z</time>
      </trkpt>
      <trkpt lat="47.41299" lon="-1.3842">
        <ele>82</ele>
        <time>2020-09-26T11:16:43.000Z</time>
      </trkpt>
      <trkpt lat="47.41297" lon="-1.384">
        <ele>82</ele>
        <time>2020-09-26T11:16:45.000Z</time>
      </trkpt>
      <trkpt lat="47.41294" lon="-1.38382">
        <ele>83</ele>
        <time>2020-09-26T11:16:47.000Z</time>
      </trkpt>
      <trkpt lat="47.41292" lon="-1.38363">
        <ele>83</ele>
        <time>2020-09-26T11:16:49.000Z</time>
      </trkpt>
      <trkpt lat="47.41289" lon="-1.38344">
        <ele>83</ele>
        <time>2020-09-26T11:16:51.000Z</time>
      </trkpt>
      <trkpt lat="47.41288" lon="-1.38326">
        <ele>83</ele>
        <time>2020-09-26T11:16:53.000Z</time>
      </trkpt>
      <trkpt lat="47.41286" lon="-1.38307">
        <ele>83</ele>
        <time>2020-09-26T11:16:55.000Z</time>
      </trkpt>
      <trkpt lat="47.41283" lon="-1.38288">
        <ele>83</ele>
        <time>2020-09-26T11:16:57.000Z</time>
      </trkpt>
      <trkpt lat="47.41281" lon="-1.38268">
        <ele>83</ele>
        <time>2020-09-26T11:16:59.000Z</time>
      </trkpt>
      <trkpt lat="47.41278" lon="-1.38249">
        <ele>83</ele>
        <time>2020-09-26T11:17:01.000Z</time>
      </trkpt>
      <trkpt lat="47.41276" lon="-1.3823">
        <ele>84</ele>
        <time>2020-09-26T11:17:03.000Z</time>
      </trkpt>
      <trkpt lat="47.41274" lon="-1.38211">
        <ele>83</ele>
        <time>2020-09-26T11:17:05.000Z</time>
      </trkpt>
      <trkpt lat="47.41272" lon="-1.38193">
        <ele>83</ele>
        <time>2020-09-26T11:17:07.000Z</time>
      </trkpt>
      <trkpt lat="47.4127" lon="-1.38174">
        <ele>83</ele>
        <time>2020-09-26T11:17:09.000Z</time>
      </trkpt>
      <trkpt lat="47.41268" lon="-1.38156">
        <ele>84</ele>
        <time>2020-09-26T11:17:11.000Z</time>
      </trkpt>
      <trkpt lat="47.41266" lon="-1.38137">
        <ele>83</ele>
        <time>2020-09-26T11:17:13.000Z</time>
      </trkpt>
      <trkpt lat="47.41263" lon="-1.38118">
        <ele>83</ele>
        <time>2020-09-26T11:17:15.000Z</time>
      </trkpt>
      <trkpt lat="47.4126" lon="-1.38099">
        <ele>83</ele>
        <time>2020-09-26T11:17:17.000Z</time>
      </trkpt>
      <trkpt lat="47.41258" lon="-1.3808">
        <ele>84</ele>
        <time>2020-09-26T11:17:19.000Z</time>
      </trkpt>
      <trkpt lat="47.41256" lon="-1.38061">
        <ele>83</ele>
        <time>2020-09-26T11:17:21.000Z</time>
      </trkpt>
      <trkpt lat="47.41254" lon="-1.38043">
        <ele>83</ele>
        <time>2020-09-26T11:17:23.000Z</time>
      </trkpt>
      <trkpt lat="47.41252" lon="-1.38024">
        <ele>84</ele>
        <time>2020-09-26T11:17:25.000Z</time>
      </trkpt>
      <trkpt lat="47.4125" lon="-1.38006">
        <ele>84</ele>
        <time>2020-09-26T11:17:27.000Z</time>
      </trkpt>
      <trkpt lat="47.41247" lon="-1.37988">
        <ele>85</ele>
        <time>2020-09-26T11:17:29.000Z</time>
      </trkpt>
      <trkpt lat="47.41245" lon="-1.37968">
        <ele>85</ele>
        <time>2020-09-26T11:17:31.000Z</time>
      </trkpt>
      <trkpt lat="47.41242" lon="-1.3795">
        <ele>86</ele>
        <time>2020-09-26T11:17:33.000Z</time>
      </trkpt>
      <trkpt lat="47.4124" lon="-1.37929">
        <ele>86</ele>
        <time>2020-09-26T11:17:35.000Z</time>
      </trkpt>
      <trkpt lat="47.41238" lon="-1.37909">
        <ele>86</ele>
        <time>2020-09-26T11:17:37.000Z</time>
      </trkpt>
      <trkpt lat="47.41235" lon="-1.37891">
        <ele>86</ele>
        <time>2020-09-26T11:17:39.000Z</time>
      </trkpt>
      <trkpt lat="47.41233" lon="-1.37871">
        <ele>86</ele>
        <time>2020-09-26T11:17:41.000Z</time>
      </trkpt>
      <trkpt lat="47.41229" lon="-1.37851">
        <ele>86</ele>
        <time>2020-09-26T11:17:43.000Z</time>
      </trkpt>
      <trkpt lat="47.41228" lon="-1.37831">
        <ele>87</ele>
        <time>2020-09-26T11:17:45.000Z</time>
      </trkpt>
      <trkpt lat="47.41225" lon="-1.37812">
        <ele>87</ele>
        <time>2020-09-26T11:17:47.000Z</time>
      </trkpt>
      <trkpt lat="47.41222" lon="-1.37795">
        <ele>87</ele>
        <time>2020-09-26T11:17:49.000Z</time>
      </trkpt>
      <trkpt lat="47.41218" lon="-1.37777">
        <ele>86</ele>
        <time>2020-09-26T11:17:51.000Z</time>
      </trkpt>
      <trkpt lat="47.41215" lon="-1.3776">
        <ele>87</ele>
        <time>2020-09-26T11:17:53.000Z</time>
      </trkpt>
      <trkpt lat="47.41212" lon="-1.37744">
        <ele>87</ele>
        <time>2020-09-26T11:17:55.000Z</time>
      </trkpt>
      <trkpt lat="47.41207" lon="-1.37731">
        <ele>87</ele>
        <time>2020-09-26T11:17:57.000Z</time>
      </trkpt>
      <trkpt lat="47.41202" lon="-1.37717">
        <ele>87</ele>
        <time>2020-09-26T11:17:59.000Z</time>
      </trkpt>
      <trkpt lat="47.41196" lon="-1.377">
        <ele>86</ele>
        <time>2020-09-26T11:18:01.000Z</time>
      </trkpt>
      <trkpt lat="47.41195" lon="-1.37681">
        <ele>87</ele>
        <time>2020-09-26T11:18:03.000Z</time>
      </trkpt>
      <trkpt lat="47.41194" lon="-1.37663">
        <ele>87</ele>
        <time>2020-09-26T11:18:05.000Z</time>
      </trkpt>
      <trkpt lat="47.41185" lon="-1.3765">
        <ele>86</ele>
        <time>2020-09-26T11:18:07.000Z</time>
      </trkpt>
      <trkpt lat="47.41172" lon="-1.37642">
        <ele>86</ele>
        <time>2020-09-26T11:18:09.000Z</time>
      </trkpt>
      <trkpt lat="47.4116" lon="-1.37633">
        <ele>86</ele>
        <time>2020-09-26T11:18:11.000Z</time>
      </trkpt>
      <trkpt lat="47.41149" lon="-1.37625">
        <ele>85</ele>
        <time>2020-09-26T11:18:13.000Z</time>
      </trkpt>
      <trkpt lat="47.41139" lon="-1.37614">
        <ele>85</ele>
        <time>2020-09-26T11:18:15.000Z</time>
      </trkpt>
      <trkpt lat="47.41129" lon="-1.37602">
        <ele>85</ele>
        <time>2020-09-26T11:18:17.000Z</time>
      </trkpt>
      <trkpt lat="47.41118" lon="-1.37594">
        <ele>84</ele>
        <time>2020-09-26T11:18:19.000Z</time>
      </trkpt>
      <trkpt lat="47.41107" lon="-1.37589">
        <ele>85</ele>
        <time>2020-09-26T11:18:21.000Z</time>
      </trkpt>
      <trkpt lat="47.41095" lon="-1.37584">
        <ele>85</ele>
        <time>2020-09-26T11:18:23.000Z</time>
      </trkpt>
      <trkpt lat="47.41082" lon="-1.37586">
        <ele>85</ele>
        <time>2020-09-26T11:18:25.000Z</time>
      </trkpt>
      <trkpt lat="47.4107" lon="-1.3759">
        <ele>84</ele>
        <time>2020-09-26T11:18:27.000Z</time>
      </trkpt>
      <trkpt lat="47.41056" lon="-1.37593">
        <ele>85</ele>
        <time>2020-09-26T11:18:29.000Z</time>
      </trkpt>
      <trkpt lat="47.41043" lon="-1.37598">
        <ele>86</ele>
        <time>2020-09-26T11:18:31.000Z</time>
      </trkpt>
      <trkpt lat="47.41031" lon="-1.37602">
        <ele>86</ele>
        <time>2020-09-26T11:18:33.000Z</time>
      </trkpt>
      <trkpt lat="47.41019" lon="-1.37606">
        <ele>85</ele>
        <time>2020-09-26T11:18:35.000Z</time>
      </trkpt>
      <trkpt lat="47.41006" lon="-1.37611">
        <ele>84</ele>
        <time>2020-09-26T11:18:37.000Z</time>
      </trkpt>
      <trkpt lat="47.40993" lon="-1.37615">
        <ele>84</ele>
        <time>2020-09-26T11:18:39.000Z</time>
      </trkpt>
      <trkpt lat="47.40981" lon="-1.37619">
        <ele>85</ele>
        <time>2020-09-26T11:18:41.000Z</time>
      </trkpt>
      <trkpt lat="47.40968" lon="-1.37621">
        <ele>85</ele>
        <time>2020-09-26T11:18:43.000Z</time>
      </trkpt>
      <trkpt lat="47.40955" lon="-1.37624">
        <ele>85</ele>
        <time>2020-09-26T11:18:45.000Z</time>
      </trkpt>
      <trkpt lat="47.40942" lon="-1.37629">
        <ele>85</ele>
        <time>2020-09-26T11:18:47.000Z</time>
      </trkpt>
      <trkpt lat="47.40929" lon="-1.37632">
        <ele>85</ele>
        <time>2020-09-26T11:18:49.000Z</time>
      </trkpt>
      <trkpt lat="47.40916" lon="-1.37636">
        <ele>84</ele>
        <time>2020-09-26T11:18:51.000Z</time>
      </trkpt>
      <trkpt lat="47.40902" lon="-1.3764">
        <ele>84</ele>
        <time>2020-09-26T11:18:53.000Z</time>
      </trkpt>
      <trkpt lat="47.4089" lon="-1.37645">
        <ele>84</ele>
        <time>2020-09-26T11:18:55.000Z</time>
      </trkpt>
      <trkpt lat="47.40878" lon="-1.37652">
        <ele>84</ele>
        <time>2020-09-26T11:18:57.000Z</time>
      </trkpt>
      <trkpt lat="47.40865" lon="-1.37654">
        <ele>83</ele>
        <time>2020-09-26T11:18:59.000Z</time>
      </trkpt>
      <trkpt lat="47.40851" lon="-1.37656">
        <ele>83</ele>
        <time>2020-09-26T11:19:01.000Z</time>
      </trkpt>
      <trkpt lat="47.40838" lon="-1.3766">
        <ele>82</ele>
        <time>2020-09-26T11:19:03.000Z</time>
      </trkpt>
      <trkpt lat="47.40824" lon="-1.37663">
        <ele>82</ele>
        <time>2020-09-26T11:19:05.000Z</time>
      </trkpt>
      <trkpt lat="47.4081" lon="-1.37668">
        <ele>82</ele>
        <time>2020-09-26T11:19:07.000Z</time>
      </trkpt>
      <trkpt lat="47.40797" lon="-1.37672">
        <ele>82</ele>
        <time>2020-09-26T11:19:09.000Z</time>
      </trkpt>
      <trkpt lat="47.40782" lon="-1.37677">
        <ele>82</ele>
        <time>2020-09-26T11:19:11.000Z</time>
      </trkpt>
      <trkpt lat="47.40768" lon="-1.37682">
        <ele>81</ele>
        <time>2020-09-26T11:19:13.000Z</time>
      </trkpt>
      <trkpt lat="47.40754" lon="-1.37688">
        <ele>81</ele>
        <time>2020-09-26T11:19:15.000Z</time>
      </trkpt>
      <trkpt lat="47.40741" lon="-1.37694">
        <ele>80</ele>
        <time>2020-09-26T11:19:17.000Z</time>
      </trkpt>
      <trkpt lat="47.40727" lon="-1.37698">
        <ele>80</ele>
        <time>2020-09-26T11:19:19.000Z</time>
      </trkpt>
      <trkpt lat="47.40713" lon="-1.37702">
        <ele>80</ele>
        <time>2020-09-26T11:19:21.000Z</time>
      </trkpt>
      <trkpt lat="47.407" lon="-1.37704">
        <ele>80</ele>
        <time>2020-09-26T11:19:23.000Z</time>
      </trkpt>
      <trkpt lat="47.40688" lon="-1.37705">
        <ele>80</ele>
        <time>2020-09-26T11:19:25.000Z</time>
      </trkpt>
      <trkpt lat="47.40673" lon="-1.37708">
        <ele>81</ele>
        <time>2020-09-26T11:19:27.000Z</time>
      </trkpt>
      <trkpt lat="47.4066" lon="-1.3771">
        <ele>81</ele>
        <time>2020-09-26T11:19:29.000Z</time>
      </trkpt>
      <trkpt lat="47.40648" lon="-1.37712">
        <ele>81</ele>
        <time>2020-09-26T11:19:31.000Z</time>
      </trkpt>
      <trkpt lat="47.40635" lon="-1.37713">
        <ele>80</ele>
        <time>2020-09-26T11:19:33.000Z</time>
      </trkpt>
      <trkpt lat="47.40622" lon="-1.37714">
        <ele>80</ele>
        <time>2020-09-26T11:19:35.000Z</time>
      </trkpt>
      <trkpt lat="47.4061" lon="-1.37716">
        <ele>81</ele>
        <time>2020-09-26T11:19:37.000Z</time>
      </trkpt>
      <trkpt lat="47.40597" lon="-1.37717">
        <ele>81</ele>
        <time>2020-09-26T11:19:39.000Z</time>
      </trkpt>
      <trkpt lat="47.40584" lon="-1.37718">
        <ele>81</ele>
        <time>2020-09-26T11:19:41.000Z</time>
      </trkpt>
      <trkpt lat="47.40572" lon="-1.3772">
        <ele>81</ele>
        <time>2020-09-26T11:19:43.000Z</time>
      </trkpt>
      <trkpt lat="47.40559" lon="-1.3772">
        <ele>81</ele>
        <time>2020-09-26T11:19:45.000Z</time>
      </trkpt>
      <trkpt lat="47.40547" lon="-1.3772">
        <ele>81</ele>
        <time>2020-09-26T11:19:47.000Z</time>
      </trkpt>
      <trkpt lat="47.40535" lon="-1.37721">
        <ele>81</ele>
        <time>2020-09-26T11:19:49.000Z</time>
      </trkpt>
      <trkpt lat="47.40522" lon="-1.37723">
        <ele>81</ele>
        <time>2020-09-26T11:19:51.000Z</time>
      </trkpt>
      <trkpt lat="47.4051" lon="-1.37729">
        <ele>82</ele>
        <time>2020-09-26T11:19:53.000Z</time>
      </trkpt>
      <trkpt lat="47.40498" lon="-1.37732">
        <ele>83</ele>
        <time>2020-09-26T11:19:55.000Z</time>
      </trkpt>
      <trkpt lat="47.40486" lon="-1.37731">
        <ele>83</ele>
        <time>2020-09-26T11:19:57.000Z</time>
      </trkpt>
      <trkpt lat="47.40474" lon="-1.37728">
        <ele>83</ele>
        <time>2020-09-26T11:19:59.000Z</time>
      </trkpt>
      <trkpt lat="47.40462" lon="-1.37728">
        <ele>83</ele>
        <time>2020-09-26T11:20:01.000Z</time>
      </trkpt>
      <trkpt lat="47.40449" lon="-1.37729">
        <ele>83</ele>
        <time>2020-09-26T11:20:03.000Z</time>
      </trkpt>
      <trkpt lat="47.40438" lon="-1.3773">
        <ele>83</ele>
        <time>2020-09-26T11:20:05.000Z</time>
      </trkpt>
      <trkpt lat="47.40426" lon="-1.3773">
        <ele>84</ele>
        <time>2020-09-26T11:20:07.000Z</time>
      </trkpt>
      <trkpt lat="47.40413" lon="-1.37731">
        <ele>84</ele>
        <time>2020-09-26T11:20:09.000Z</time>
      </trkpt>
      <trkpt lat="47.40401" lon="-1.37732">
        <ele>85</ele>
        <time>2020-09-26T11:20:11.000Z</time>
      </trkpt>
      <trkpt lat="47.40388" lon="-1.37735">
        <ele>85</ele>
        <time>2020-09-26T11:20:13.000Z</time>
      </trkpt>
      <trkpt lat="47.40377" lon="-1.37735">
        <ele>85</ele>
        <time>2020-09-26T11:20:15.000Z</time>
      </trkpt>
      <trkpt lat="47.40365" lon="-1.37736">
        <ele>85</ele>
        <time>2020-09-26T11:20:17.000Z</time>
      </trkpt>
      <trkpt lat="47.40353" lon="-1.37737">
        <ele>85</ele>
        <time>2020-09-26T11:20:19.000Z</time>
      </trkpt>
      <trkpt lat="47.40341" lon="-1.37738">
        <ele>85</ele>
        <time>2020-09-26T11:20:21.000Z</time>
      </trkpt>
      <trkpt lat="47.4033" lon="-1.37739">
        <ele>85</ele>
        <time>2020-09-26T11:20:23.000Z</time>
      </trkpt>
      <trkpt lat="47.40318" lon="-1.3774">
        <ele>86</ele>
        <time>2020-09-26T11:20:25.000Z</time>
      </trkpt>
      <trkpt lat="47.40307" lon="-1.37741">
        <ele>87</ele>
        <time>2020-09-26T11:20:27.000Z</time>
      </trkpt>
      <trkpt lat="47.40297" lon="-1.37742">
        <ele>87</ele>
        <time>2020-09-26T11:20:29.000Z</time>
      </trkpt>
      <trkpt lat="47.40287" lon="-1.37742">
        <ele>88</ele>
        <time>2020-09-26T11:20:31.000Z</time>
      </trkpt>
      <trkpt lat="47.40277" lon="-1.37743">
        <ele>88</ele>
        <time>2020-09-26T11:20:33.000Z</time>
      </trkpt>
      <trkpt lat="47.40267" lon="-1.37745">
        <ele>88</ele>
        <time>2020-09-26T11:20:35.000Z</time>
      </trkpt>
      <trkpt lat="47.40257" lon="-1.37746">
        <ele>88</ele>
        <time>2020-09-26T11:20:37.000Z</time>
      </trkpt>
      <trkpt lat="47.40248" lon="-1.37747">
        <ele>89</ele>
        <time>2020-09-26T11:20:39.000Z</time>
      </trkpt>
      <trkpt lat="47.40237" lon="-1.37747">
        <ele>89</ele>
        <time>2020-09-26T11:20:41.000Z</time>
      </trkpt>
      <trkpt lat="47.40228" lon="-1.3774">
        <ele>90</ele>
        <time>2020-09-26T11:20:43.000Z</time>
      </trkpt>
      <trkpt lat="47.40219" lon="-1.37731">
        <ele>91</ele>
        <time>2020-09-26T11:20:45.000Z</time>
      </trkpt>
      <trkpt lat="47.4021" lon="-1.37723">
        <ele>91</ele>
        <time>2020-09-26T11:20:47.000Z</time>
      </trkpt>
      <trkpt lat="47.402" lon="-1.37716">
        <ele>91</ele>
        <time>2020-09-26T11:20:49.000Z</time>
      </trkpt>
      <trkpt lat="47.40191" lon="-1.37708">
        <ele>92</ele>
        <time>2020-09-26T11:20:51.000Z</time>
      </trkpt>
      <trkpt lat="47.40182" lon="-1.37701">
        <ele>92</ele>
        <time>2020-09-26T11:20:53.000Z</time>
      </trkpt>
      <trkpt lat="47.40173" lon="-1.37693">
        <ele>93</ele>
        <time>2020-09-26T11:20:55.000Z</time>
      </trkpt>
      <trkpt lat="47.40163" lon="-1.37686">
        <ele>93</ele>
        <time>2020-09-26T11:20:57.000Z</time>
      </trkpt>
      <trkpt lat="47.40154" lon="-1.37678">
        <ele>94</ele>
        <time>2020-09-26T11:20:59.000Z</time>
      </trkpt>
      <trkpt lat="47.40145" lon="-1.37671">
        <ele>94</ele>
        <time>2020-09-26T11:21:01.000Z</time>
      </trkpt>
      <trkpt lat="47.40136" lon="-1.37664">
        <ele>94</ele>
        <time>2020-09-26T11:21:03.000Z</time>
      </trkpt>
      <trkpt lat="47.40127" lon="-1.37656">
        <ele>95</ele>
        <time>2020-09-26T11:21:05.000Z</time>
      </trkpt>
      <trkpt lat="47.40119" lon="-1.3765">
        <ele>95</ele>
        <time>2020-09-26T11:21:07.000Z</time>
      </trkpt>
      <trkpt lat="47.4011" lon="-1.37642">
        <ele>95</ele>
        <time>2020-09-26T11:21:09.000Z</time>
      </trkpt>
      <trkpt lat="47.40101" lon="-1.37634">
        <ele>96</ele>
        <time>2020-09-26T11:21:11.000Z</time>
      </trkpt>
      <trkpt lat="47.40092" lon="-1.37627">
        <ele>96</ele>
        <time>2020-09-26T11:21:13.000Z</time>
      </trkpt>
      <trkpt lat="47.40084" lon="-1.3762">
        <ele>96</ele>
        <time>2020-09-26T11:21:15.000Z</time>
      </trkpt>
      <trkpt lat="47.40075" lon="-1.37612">
        <ele>97</ele>
        <time>2020-09-26T11:21:17.000Z</time>
      </trkpt>
      <trkpt lat="47.40066" lon="-1.37606">
        <ele>97</ele>
        <time>2020-09-26T11:21:19.000Z</time>
      </trkpt>
      <trkpt lat="47.40057" lon="-1.37598">
        <ele>98</ele>
        <time>2020-09-26T11:21:21.000Z</time>
      </trkpt>
      <trkpt lat="47.40048" lon="-1.37591">
        <ele>98</ele>
        <time>2020-09-26T11:21:23.000Z</time>
      </trkpt>
      <trkpt lat="47.40038" lon="-1.37583">
        <ele>98</ele>
        <time>2020-09-26T11:21:25.000Z</time>
      </trkpt>
      <trkpt lat="47.40029" lon="-1.37575">
        <ele>98</ele>
        <time>2020-09-26T11:21:27.000Z</time>
      </trkpt>
      <trkpt lat="47.4002" lon="-1.37568">
        <ele>98</ele>
        <time>2020-09-26T11:21:29.000Z</time>
      </trkpt>
      <trkpt lat="47.40011" lon="-1.3756">
        <ele>99</ele>
        <time>2020-09-26T11:21:31.000Z</time>
      </trkpt>
      <trkpt lat="47.40002" lon="-1.37552">
        <ele>99</ele>
        <time>2020-09-26T11:21:33.000Z</time>
      </trkpt>
      <trkpt lat="47.39992" lon="-1.37544">
        <ele>98</ele>
        <time>2020-09-26T11:21:35.000Z</time>
      </trkpt>
      <trkpt lat="47.39982" lon="-1.37536">
        <ele>98</ele>
        <time>2020-09-26T11:21:37.000Z</time>
      </trkpt>
      <trkpt lat="47.39972" lon="-1.37528">
        <ele>99</ele>
        <time>2020-09-26T11:21:39.000Z</time>
      </trkpt>
      <trkpt lat="47.39962" lon="-1.37521">
        <ele>99</ele>
        <time>2020-09-26T11:21:41.000Z</time>
      </trkpt>
      <trkpt lat="47.39952" lon="-1.37512">
        <ele>99</ele>
        <time>2020-09-26T11:21:43.000Z</time>
      </trkpt>
      <trkpt lat="47.39942" lon="-1.37504">
        <ele>99</ele>
        <time>2020-09-26T11:21:45.000Z</time>
      </trkpt>
      <trkpt lat="47.39931" lon="-1.37495">
        <ele>99</ele>
        <time>2020-09-26T11:21:47.000Z</time>
      </trkpt>
      <trkpt lat="47.3992" lon="-1.37486">
        <ele>99</ele>
        <time>2020-09-26T11:21:49.000Z</time>
      </trkpt>
      <trkpt lat="47.39909" lon="-1.37478">
        <ele>100</ele>
        <time>2020-09-26T11:21:51.000Z</time>
      </trkpt>
      <trkpt lat="47.39898" lon="-1.37469">
        <ele>99</ele>
        <time>2020-09-26T11:21:53.000Z</time>
      </trkpt>
      <trkpt lat="47.39887" lon="-1.3746">
        <ele>99</ele>
        <time>2020-09-26T11:21:55.000Z</time>
      </trkpt>
      <trkpt lat="47.39876" lon="-1.3745">
        <ele>100</ele>
        <time>2020-09-26T11:21:57.000Z</time>
      </trkpt>
      <trkpt lat="47.39865" lon="-1.37441">
        <ele>100</ele>
        <time>2020-09-26T11:21:59.000Z</time>
      </trkpt>
      <trkpt lat="47.39853" lon="-1.37432">
        <ele>100</ele>
        <time>2020-09-26T11:22:01.000Z</time>
      </trkpt>
      <trkpt lat="47.39841" lon="-1.37422">
        <ele>100</ele>
        <time>2020-09-26T11:22:03.000Z</time>
      </trkpt>
      <trkpt lat="47.3983" lon="-1.37413">
        <ele>100</ele>
        <time>2020-09-26T11:22:05.000Z</time>
      </trkpt>
      <trkpt lat="47.39819" lon="-1.37402">
        <ele>99</ele>
        <time>2020-09-26T11:22:07.000Z</time>
      </trkpt>
      <trkpt lat="47.39807" lon="-1.37393">
        <ele>99</ele>
        <time>2020-09-26T11:22:09.000Z</time>
      </trkpt>
      <trkpt lat="47.39795" lon="-1.37383">
        <ele>100</ele>
        <time>2020-09-26T11:22:11.000Z</time>
      </trkpt>
      <trkpt lat="47.39783" lon="-1.37373">
        <ele>100</ele>
        <time>2020-09-26T11:22:13.000Z</time>
      </trkpt>
      <trkpt lat="47.39771" lon="-1.37362">
        <ele>100</ele>
        <time>2020-09-26T11:22:15.000Z</time>
      </trkpt>
      <trkpt lat="47.39758" lon="-1.37353">
        <ele>100</ele>
        <time>2020-09-26T11:22:17.000Z</time>
      </trkpt>
      <trkpt lat="47.39746" lon="-1.37343">
        <ele>101</ele>
        <time>2020-09-26T11:22:19.000Z</time>
      </trkpt>
      <trkpt lat="47.39734" lon="-1.37333">
        <ele>100</ele>
        <time>2020-09-26T11:22:21.000Z</time>
      </trkpt>
      <trkpt lat="47.39722" lon="-1.37323">
        <ele>100</ele>
        <time>2020-09-26T11:22:23.000Z</time>
      </trkpt>
      <trkpt lat="47.39711" lon="-1.37313">
        <ele>100</ele>
        <time>2020-09-26T11:22:25.000Z</time>
      </trkpt>
      <trkpt lat="47.39699" lon="-1.37304">
        <ele>101</ele>
        <time>2020-09-26T11:22:27.000Z</time>
      </trkpt>
      <trkpt lat="47.39688" lon="-1.37295">
        <ele>101</ele>
        <time>2020-09-26T11:22:29.000Z</time>
      </trkpt>
      <trkpt lat="47.39677" lon="-1.37286">
        <ele>101</ele>
        <time>2020-09-26T11:22:31.000Z</time>
      </trkpt>
      <trkpt lat="47.39665" lon="-1.37277">
        <ele>101</ele>
        <time>2020-09-26T11:22:33.000Z</time>
      </trkpt>
      <trkpt lat="47.39655" lon="-1.37268">
        <ele>101</ele>
        <time>2020-09-26T11:22:35.000Z</time>
      </trkpt>
      <trkpt lat="47.39644" lon="-1.37259">
        <ele>101</ele>
        <time>2020-09-26T11:22:37.000Z</time>
      </trkpt>
      <trkpt lat="47.39632" lon="-1.3725">
        <ele>101</ele>
        <time>2020-09-26T11:22:39.000Z</time>
      </trkpt>
      <trkpt lat="47.39621" lon="-1.37241">
        <ele>101</ele>
        <time>2020-09-26T11:22:41.000Z</time>
      </trkpt>
      <trkpt lat="47.39608" lon="-1.3723">
        <ele>101</ele>
        <time>2020-09-26T11:22:43.000Z</time>
      </trkpt>
      <trkpt lat="47.39596" lon="-1.3722">
        <ele>101</ele>
        <time>2020-09-26T11:22:45.000Z</time>
      </trkpt>
      <trkpt lat="47.39583" lon="-1.37209">
        <ele>101</ele>
        <time>2020-09-26T11:22:47.000Z</time>
      </trkpt>
      <trkpt lat="47.3957" lon="-1.37198">
        <ele>101</ele>
        <time>2020-09-26T11:22:49.000Z</time>
      </trkpt>
      <trkpt lat="47.39557" lon="-1.37188">
        <ele>101</ele>
        <time>2020-09-26T11:22:51.000Z</time>
      </trkpt>
      <trkpt lat="47.39544" lon="-1.37177">
        <ele>100</ele>
        <time>2020-09-26T11:22:53.000Z</time>
      </trkpt>
      <trkpt lat="47.39531" lon="-1.37167">
        <ele>100</ele>
        <time>2020-09-26T11:22:55.000Z</time>
      </trkpt>
      <trkpt lat="47.39518" lon="-1.37157">
        <ele>100</ele>
        <time>2020-09-26T11:22:57.000Z</time>
      </trkpt>
      <trkpt lat="47.39506" lon="-1.37146">
        <ele>101</ele>
        <time>2020-09-26T11:22:59.000Z</time>
      </trkpt>
      <trkpt lat="47.39493" lon="-1.37135">
        <ele>100</ele>
        <time>2020-09-26T11:23:01.000Z</time>
      </trkpt>
      <trkpt lat="47.3948" lon="-1.37125">
        <ele>100</ele>
        <time>2020-09-26T11:23:03.000Z</time>
      </trkpt>
      <trkpt lat="47.39467" lon="-1.37114">
        <ele>100</ele>
        <time>2020-09-26T11:23:05.000Z</time>
      </trkpt>
      <trkpt lat="47.39455" lon="-1.37103">
        <ele>100</ele>
        <time>2020-09-26T11:23:07.000Z</time>
      </trkpt>
      <trkpt lat="47.39442" lon="-1.37092">
        <ele>99</ele>
        <time>2020-09-26T11:23:09.000Z</time>
      </trkpt>
      <trkpt lat="47.39429" lon="-1.37082">
        <ele>99</ele>
        <time>2020-09-26T11:23:11.000Z</time>
      </trkpt>
      <trkpt lat="47.39416" lon="-1.37072">
        <ele>98</ele>
        <time>2020-09-26T11:23:13.000Z</time>
      </trkpt>
      <trkpt lat="47.39403" lon="-1.37061">
        <ele>98</ele>
        <time>2020-09-26T11:23:15.000Z</time>
      </trkpt>
      <trkpt lat="47.39391" lon="-1.3705">
        <ele>98</ele>
        <time>2020-09-26T11:23:17.000Z</time>
      </trkpt>
      <trkpt lat="47.39377" lon="-1.37039">
        <ele>98</ele>
        <time>2020-09-26T11:23:19.000Z</time>
      </trkpt>
      <trkpt lat="47.39365" lon="-1.37029">
        <ele>98</ele>
        <time>2020-09-26T11:23:21.000Z</time>
      </trkpt>
      <trkpt lat="47.39352" lon="-1.37019">
        <ele>97</ele>
        <time>2020-09-26T11:23:23.000Z</time>
      </trkpt>
      <trkpt lat="47.39339" lon="-1.37009">
        <ele>98</ele>
        <time>2020-09-26T11:23:25.000Z</time>
      </trkpt>
      <trkpt lat="47.39326" lon="-1.36998">
        <ele>97</ele>
        <time>2020-09-26T11:23:27.000Z</time>
      </trkpt>
      <trkpt lat="47.39313" lon="-1.36987">
        <ele>96</ele>
        <time>2020-09-26T11:23:29.000Z</time>
      </trkpt>
      <trkpt lat="47.393" lon="-1.36977">
        <ele>96</ele>
        <time>2020-09-26T11:23:31.000Z</time>
      </trkpt>
      <trkpt lat="47.39287" lon="-1.36966">
        <ele>96</ele>
        <time>2020-09-26T11:23:33.000Z</time>
      </trkpt>
      <trkpt lat="47.39275" lon="-1.36956">
        <ele>96</ele>
        <time>2020-09-26T11:23:35.000Z</time>
      </trkpt>
      <trkpt lat="47.39262" lon="-1.36945">
        <ele>96</ele>
        <time>2020-09-26T11:23:37.000Z</time>
      </trkpt>
      <trkpt lat="47.39248" lon="-1.36935">
        <ele>96</ele>
        <time>2020-09-26T11:23:39.000Z</time>
      </trkpt>
      <trkpt lat="47.39236" lon="-1.36924">
        <ele>96</ele>
        <time>2020-09-26T11:23:41.000Z</time>
      </trkpt>
      <trkpt lat="47.39223" lon="-1.36914">
        <ele>95</ele>
        <time>2020-09-26T11:23:43.000Z</time>
      </trkpt>
      <trkpt lat="47.3921" lon="-1.36903">
        <ele>95</ele>
        <time>2020-09-26T11:23:45.000Z</time>
      </trkpt>
      <trkpt lat="47.39198" lon="-1.36892">
        <ele>94</ele>
        <time>2020-09-26T11:23:47.000Z</time>
      </trkpt>
      <trkpt lat="47.39184" lon="-1.36882">
        <ele>94</ele>
        <time>2020-09-26T11:23:49.000Z</time>
      </trkpt>
      <trkpt lat="47.39172" lon="-1.36872">
        <ele>93</ele>
        <time>2020-09-26T11:23:51.000Z</time>
      </trkpt>
      <trkpt lat="47.39159" lon="-1.36862">
        <ele>93</ele>
        <time>2020-09-26T11:23:53.000Z</time>
      </trkpt>
      <trkpt lat="47.39146" lon="-1.36852">
        <ele>93</ele>
        <time>2020-09-26T11:23:55.000Z</time>
      </trkpt>
      <trkpt lat="47.39134" lon="-1.36841">
        <ele>93</ele>
        <time>2020-09-26T11:23:57.000Z</time>
      </trkpt>
      <trkpt lat="47.39122" lon="-1.36831">
        <ele>92</ele>
        <time>2020-09-26T11:23:59.000Z</time>
      </trkpt>
      <trkpt lat="47.39109" lon="-1.36821">
        <ele>92</ele>
        <time>2020-09-26T11:24:01.000Z</time>
      </trkpt>
      <trkpt lat="47.39098" lon="-1.36811">
        <ele>92</ele>
        <time>2020-09-26T11:24:03.000Z</time>
      </trkpt>
      <trkpt lat="47.39086" lon="-1.368">
        <ele>92</ele>
        <time>2020-09-26T11:24:05.000Z</time>
      </trkpt>
      <trkpt lat="47.39075" lon="-1.3679">
        <ele>91</ele>
        <time>2020-09-26T11:24:07.000Z</time>
      </trkpt>
      <trkpt lat="47.39063" lon="-1.3678">
        <ele>91</ele>
        <time>2020-09-26T11:24:09.000Z</time>
      </trkpt>
      <trkpt lat="47.39052" lon="-1.36771">
        <ele>91</ele>
        <time>2020-09-26T11:24:11.000Z</time>
      </trkpt>
      <trkpt lat="47.3904" lon="-1.36762">
        <ele>91</ele>
        <time>2020-09-26T11:24:13.000Z</time>
      </trkpt>
      <trkpt lat="47.39028" lon="-1.36752">
        <ele>91</ele>
        <time>2020-09-26T11:24:15.000Z</time>
      </trkpt>
      <trkpt lat="47.39016" lon="-1.36742">
        <ele>91</ele>
        <time>2020-09-26T11:24:17.000Z</time>
      </trkpt>
      <trkpt lat="47.39004" lon="-1.36733">
        <ele>91</ele>
        <time>2020-09-26T11:24:19.000Z</time>
      </trkpt>
      <trkpt lat="47.38992" lon="-1.36723">
        <ele>92</ele>
        <time>2020-09-26T11:24:21.000Z</time>
      </trkpt>
      <trkpt lat="47.38981" lon="-1.36713">
        <ele>92</ele>
        <time>2020-09-26T11:24:23.000Z</time>
      </trkpt>
      <trkpt lat="47.38969" lon="-1.36704">
        <ele>92</ele>
        <time>2020-09-26T11:24:25.000Z</time>
      </trkpt>
      <trkpt lat="47.38956" lon="-1.36694">
        <ele>92</ele>
        <time>2020-09-26T11:24:27.000Z</time>
      </trkpt>
      <trkpt lat="47.38944" lon="-1.36684">
        <ele>91</ele>
        <time>2020-09-26T11:24:29.000Z</time>
      </trkpt>
      <trkpt lat="47.38931" lon="-1.36674">
        <ele>91</ele>
        <time>2020-09-26T11:24:31.000Z</time>
      </trkpt>
      <trkpt lat="47.38919" lon="-1.36664">
        <ele>90</ele>
        <time>2020-09-26T11:24:33.000Z</time>
      </trkpt>
      <trkpt lat="47.38906" lon="-1.36653">
        <ele>90</ele>
        <time>2020-09-26T11:24:35.000Z</time>
      </trkpt>
      <trkpt lat="47.38893" lon="-1.36642">
        <ele>90</ele>
        <time>2020-09-26T11:24:37.000Z</time>
      </trkpt>
      <trkpt lat="47.38881" lon="-1.36631">
        <ele>90</ele>
        <time>2020-09-26T11:24:39.000Z</time>
      </trkpt>
      <trkpt lat="47.38867" lon="-1.36621">
        <ele>89</ele>
        <time>2020-09-26T11:24:41.000Z</time>
      </trkpt>
      <trkpt lat="47.38855" lon="-1.3661">
        <ele>89</ele>
        <time>2020-09-26T11:24:43.000Z</time>
      </trkpt>
      <trkpt lat="47.38842" lon="-1.36599">
        <ele>89</ele>
        <time>2020-09-26T11:24:45.000Z</time>
      </trkpt>
      <trkpt lat="47.38829" lon="-1.3659">
        <ele>88</ele>
        <time>2020-09-26T11:24:47.000Z</time>
      </trkpt>
      <trkpt lat="47.38816" lon="-1.36579">
        <ele>88</ele>
        <time>2020-09-26T11:24:49.000Z</time>
      </trkpt>
      <trkpt lat="47.38803" lon="-1.36568">
        <ele>87</ele>
        <time>2020-09-26T11:24:51.000Z</time>
      </trkpt>
      <trkpt lat="47.3879" lon="-1.36558">
        <ele>87</ele>
        <time>2020-09-26T11:24:53.000Z</time>
      </trkpt>
      <trkpt lat="47.38776" lon="-1.36547">
        <ele>87</ele>
        <time>2020-09-26T11:24:55.000Z</time>
      </trkpt>
      <trkpt lat="47.38763" lon="-1.36536">
        <ele>87</ele>
        <time>2020-09-26T11:24:57.000Z</time>
      </trkpt>
      <trkpt lat="47.38749" lon="-1.36525">
        <ele>86</ele>
        <time>2020-09-26T11:24:59.000Z</time>
      </trkpt>
      <trkpt lat="47.38735" lon="-1.36513">
        <ele>86</ele>
        <time>2020-09-26T11:25:01.000Z</time>
      </trkpt>
      <trkpt lat="47.38721" lon="-1.36502">
        <ele>85</ele>
        <time>2020-09-26T11:25:03.000Z</time>
      </trkpt>
      <trkpt lat="47.38706" lon="-1.36494">
        <ele>85</ele>
        <time>2020-09-26T11:25:05.000Z</time>
      </trkpt>
      <trkpt lat="47.3869" lon="-1.36492">
        <ele>85</ele>
        <time>2020-09-26T11:25:07.000Z</time>
      </trkpt>
      <trkpt lat="47.38674" lon="-1.36495">
        <ele>85</ele>
        <time>2020-09-26T11:25:09.000Z</time>
      </trkpt>
      <trkpt lat="47.38659" lon="-1.36502">
        <ele>84</ele>
        <time>2020-09-26T11:25:11.000Z</time>
      </trkpt>
      <trkpt lat="47.38644" lon="-1.36507">
        <ele>85</ele>
        <time>2020-09-26T11:25:13.000Z</time>
      </trkpt>
      <trkpt lat="47.3863" lon="-1.36508">
        <ele>85</ele>
        <time>2020-09-26T11:25:15.000Z</time>
      </trkpt>
      <trkpt lat="47.38615" lon="-1.36503">
        <ele>85</ele>
        <time>2020-09-26T11:25:17.000Z</time>
      </trkpt>
      <trkpt lat="47.386" lon="-1.36495">
        <ele>85</ele>
        <time>2020-09-26T11:25:19.000Z</time>
      </trkpt>
      <trkpt lat="47.38587" lon="-1.36485">
        <ele>85</ele>
        <time>2020-09-26T11:25:21.000Z</time>
      </trkpt>
      <trkpt lat="47.38574" lon="-1.36474">
        <ele>85</ele>
        <time>2020-09-26T11:25:23.000Z</time>
      </trkpt>
      <trkpt lat="47.38561" lon="-1.36462">
        <ele>85</ele>
        <time>2020-09-26T11:25:25.000Z</time>
      </trkpt>
      <trkpt lat="47.38548" lon="-1.36451">
        <ele>85</ele>
        <time>2020-09-26T11:25:27.000Z</time>
      </trkpt>
      <trkpt lat="47.38535" lon="-1.36438">
        <ele>84</ele>
        <time>2020-09-26T11:25:29.000Z</time>
      </trkpt>
      <trkpt lat="47.38521" lon="-1.36426">
        <ele>84</ele>
        <time>2020-09-26T11:25:31.000Z</time>
      </trkpt>
      <trkpt lat="47.38507" lon="-1.36413">
        <ele>83</ele>
        <time>2020-09-26T11:25:33.000Z</time>
      </trkpt>
      <trkpt lat="47.38494" lon="-1.36401">
        <ele>83</ele>
        <time>2020-09-26T11:25:35.000Z</time>
      </trkpt>
      <trkpt lat="47.38481" lon="-1.36389">
        <ele>83</ele>
        <time>2020-09-26T11:25:37.000Z</time>
      </trkpt>
      <trkpt lat="47.38468" lon="-1.36377">
        <ele>83</ele>
        <time>2020-09-26T11:25:39.000Z</time>
      </trkpt>
      <trkpt lat="47.38455" lon="-1.36365">
        <ele>83</ele>
        <time>2020-09-26T11:25:41.000Z</time>
      </trkpt>
      <trkpt lat="47.38442" lon="-1.36353">
        <ele>82</ele>
        <time>2020-09-26T11:25:43.000Z</time>
      </trkpt>
      <trkpt lat="47.38429" lon="-1.36341">
        <ele>82</ele>
        <time>2020-09-26T11:25:45.000Z</time>
      </trkpt>
      <trkpt lat="47.38416" lon="-1.36329">
        <ele>82</ele>
        <time>2020-09-26T11:25:47.000Z</time>
      </trkpt>
      <trkpt lat="47.38403" lon="-1.36317">
        <ele>82</ele>
        <time>2020-09-26T11:25:49.000Z</time>
      </trkpt>
      <trkpt lat="47.3839" lon="-1.36305">
        <ele>81</ele>
        <time>2020-09-26T11:25:51.000Z</time>
      </trkpt>
      <trkpt lat="47.38377" lon="-1.36293">
        <ele>80</ele>
        <time>2020-09-26T11:25:53.000Z</time>
      </trkpt>
      <trkpt lat="47.38364" lon="-1.36281">
        <ele>80</ele>
        <time>2020-09-26T11:25:55.000Z</time>
      </trkpt>
      <trkpt lat="47.38351" lon="-1.36269">
        <ele>80</ele>
        <time>2020-09-26T11:25:57.000Z</time>
      </trkpt>
      <trkpt lat="47.38338" lon="-1.36258">
        <ele>80</ele>
        <time>2020-09-26T11:25:59.000Z</time>
      </trkpt>
      <trkpt lat="47.38325" lon="-1.36247">
        <ele>81</ele>
        <time>2020-09-26T11:26:01.000Z</time>
      </trkpt>
      <trkpt lat="47.38314" lon="-1.36236">
        <ele>81</ele>
        <time>2020-09-26T11:26:03.000Z</time>
      </trkpt>
      <trkpt lat="47.38302" lon="-1.36225">
        <ele>82</ele>
        <time>2020-09-26T11:26:05.000Z</time>
      </trkpt>
      <trkpt lat="47.38291" lon="-1.36216">
        <ele>81</ele>
        <time>2020-09-26T11:26:07.000Z</time>
      </trkpt>
      <trkpt lat="47.38281" lon="-1.36206">
        <ele>82</ele>
        <time>2020-09-26T11:26:09.000Z</time>
      </trkpt>
      <trkpt lat="47.38271" lon="-1.36197">
        <ele>82</ele>
        <time>2020-09-26T11:26:11.000Z</time>
      </trkpt>
      <trkpt lat="47.38261" lon="-1.36187">
        <ele>82</ele>
        <time>2020-09-26T11:26:13.000Z</time>
      </trkpt>
      <trkpt lat="47.38251" lon="-1.36178">
        <ele>83</ele>
        <time>2020-09-26T11:26:15.000Z</time>
      </trkpt>
      <trkpt lat="47.38241" lon="-1.36169">
        <ele>83</ele>
        <time>2020-09-26T11:26:17.000Z</time>
      </trkpt>
      <trkpt lat="47.38231" lon="-1.3616">
        <ele>83</ele>
        <time>2020-09-26T11:26:19.000Z</time>
      </trkpt>
      <trkpt lat="47.38221" lon="-1.36151">
        <ele>84</ele>
        <time>2020-09-26T11:26:21.000Z</time>
      </trkpt>
      <trkpt lat="47.38211" lon="-1.36142">
        <ele>85</ele>
        <time>2020-09-26T11:26:23.000Z</time>
      </trkpt>
      <trkpt lat="47.38201" lon="-1.36133">
        <ele>85</ele>
        <time>2020-09-26T11:26:25.000Z</time>
      </trkpt>
      <trkpt lat="47.3819" lon="-1.36123">
        <ele>85</ele>
        <time>2020-09-26T11:26:27.000Z</time>
      </trkpt>
      <trkpt lat="47.38179" lon="-1.36114">
        <ele>85</ele>
        <time>2020-09-26T11:26:29.000Z</time>
      </trkpt>
      <trkpt lat="47.38168" lon="-1.36104">
        <ele>86</ele>
        <time>2020-09-26T11:26:31.000Z</time>
      </trkpt>
      <trkpt lat="47.38158" lon="-1.36094">
        <ele>86</ele>
        <time>2020-09-26T11:26:33.000Z</time>
      </trkpt>
      <trkpt lat="47.38146" lon="-1.36084">
        <ele>86</ele>
        <time>2020-09-26T11:26:35.000Z</time>
      </trkpt>
      <trkpt lat="47.38136" lon="-1.36075">
        <ele>87</ele>
        <time>2020-09-26T11:26:37.000Z</time>
      </trkpt>
      <trkpt lat="47.38126" lon="-1.36065">
        <ele>87</ele>
        <time>2020-09-26T11:26:39.000Z</time>
      </trkpt>
      <trkpt lat="47.38116" lon="-1.36057">
        <ele>88</ele>
        <time>2020-09-26T11:26:41.000Z</time>
      </trkpt>
      <trkpt lat="47.38106" lon="-1.36047">
        <ele>89</ele>
        <time>2020-09-26T11:26:43.000Z</time>
      </trkpt>
      <trkpt lat="47.38096" lon="-1.36038">
        <ele>89</ele>
        <time>2020-09-26T11:26:45.000Z</time>
      </trkpt>
      <trkpt lat="47.38086" lon="-1.36029">
        <ele>90</ele>
        <time>2020-09-26T11:26:47.000Z</time>
      </trkpt>
      <trkpt lat="47.38076" lon="-1.36021">
        <ele>90</ele>
        <time>2020-09-26T11:26:49.000Z</time>
      </trkpt>
      <trkpt lat="47.38066" lon="-1.36011">
        <ele>90</ele>
        <time>2020-09-26T11:26:51.000Z</time>
      </trkpt>
      <trkpt lat="47.38055" lon="-1.36001">
        <ele>91</ele>
        <time>2020-09-26T11:26:53.000Z</time>
      </trkpt>
      <trkpt lat="47.38045" lon="-1.35992">
        <ele>91</ele>
        <time>2020-09-26T11:26:55.000Z</time>
      </trkpt>
      <trkpt lat="47.38035" lon="-1.35983">
        <ele>91</ele>
        <time>2020-09-26T11:26:57.000Z</time>
      </trkpt>
      <trkpt lat="47.38024" lon="-1.35973">
        <ele>91</ele>
        <time>2020-09-26T11:26:59.000Z</time>
      </trkpt>
      <trkpt lat="47.38014" lon="-1.35964">
        <ele>92</ele>
        <time>2020-09-26T11:27:01.000Z</time>
      </trkpt>
      <trkpt lat="47.38003" lon="-1.35954">
        <ele>92</ele>
        <time>2020-09-26T11:27:03.000Z</time>
      </trkpt>
      <trkpt lat="47.37992" lon="-1.35944">
        <ele>93</ele>
        <time>2020-09-26T11:27:05.000Z</time>
      </trkpt>
      <trkpt lat="47.37981" lon="-1.35935">
        <ele>93</ele>
        <time>2020-09-26T11:27:07.000Z</time>
      </trkpt>
      <trkpt lat="47.37971" lon="-1.35925">
        <ele>93</ele>
        <time>2020-09-26T11:27:09.000Z</time>
      </trkpt>
      <trkpt lat="47.37961" lon="-1.35915">
        <ele>93</ele>
        <time>2020-09-26T11:27:11.000Z</time>
      </trkpt>
      <trkpt lat="47.3795" lon="-1.35905">
        <ele>93</ele>
        <time>2020-09-26T11:27:13.000Z</time>
      </trkpt>
      <trkpt lat="47.3794" lon="-1.35896">
        <ele>93</ele>
        <time>2020-09-26T11:27:15.000Z</time>
      </trkpt>
      <trkpt lat="47.37929" lon="-1.35886">
        <ele>93</ele>
        <time>2020-09-26T11:27:17.000Z</time>
      </trkpt>
      <trkpt lat="47.37918" lon="-1.35876">
        <ele>93</ele>
        <time>2020-09-26T11:27:19.000Z</time>
      </trkpt>
      <trkpt lat="47.37907" lon="-1.35867">
        <ele>93</ele>
        <time>2020-09-26T11:27:21.000Z</time>
      </trkpt>
      <trkpt lat="47.37897" lon="-1.35857">
        <ele>93</ele>
        <time>2020-09-26T11:27:23.000Z</time>
      </trkpt>
      <trkpt lat="47.37885" lon="-1.35847">
        <ele>93</ele>
        <time>2020-09-26T11:27:25.000Z</time>
      </trkpt>
      <trkpt lat="47.37874" lon="-1.35838">
        <ele>93</ele>
        <time>2020-09-26T11:27:27.000Z</time>
      </trkpt>
      <trkpt lat="47.37863" lon="-1.35828">
        <ele>93</ele>
        <time>2020-09-26T11:27:29.000Z</time>
      </trkpt>
      <trkpt lat="47.37851" lon="-1.35817">
        <ele>93</ele>
        <time>2020-09-26T11:27:31.000Z</time>
      </trkpt>
      <trkpt lat="47.3784" lon="-1.35807">
        <ele>92</ele>
        <time>2020-09-26T11:27:33.000Z</time>
      </trkpt>
      <trkpt lat="47.37828" lon="-1.35796">
        <ele>92</ele>
        <time>2020-09-26T11:27:35.000Z</time>
      </trkpt>
      <trkpt lat="47.37816" lon="-1.35785">
        <ele>92</ele>
        <time>2020-09-26T11:27:37.000Z</time>
      </trkpt>
      <trkpt lat="47.37803" lon="-1.35774">
        <ele>91</ele>
        <time>2020-09-26T11:27:39.000Z</time>
      </trkpt>
      <trkpt lat="47.37791" lon="-1.35763">
        <ele>91</ele>
        <time>2020-09-26T11:27:41.000Z</time>
      </trkpt>
      <trkpt lat="47.3778" lon="-1.35752">
        <ele>91</ele>
        <time>2020-09-26T11:27:43.000Z</time>
      </trkpt>
      <trkpt lat="47.37768" lon="-1.35741">
        <ele>90</ele>
        <time>2020-09-26T11:27:45.000Z</time>
      </trkpt>
      <trkpt lat="47.37757" lon="-1.35729">
        <ele>90</ele>
        <time>2020-09-26T11:27:47.000Z</time>
      </trkpt>
      <trkpt lat="47.37745" lon="-1.35719">
        <ele>90</ele>
        <time>2020-09-26T11:27:49.000Z</time>
      </trkpt>
      <trkpt lat="47.37733" lon="-1.35709">
        <ele>90</ele>
        <time>2020-09-26T11:27:51.000Z</time>
      </trkpt>
      <trkpt lat="47.37722" lon="-1.35698">
        <ele>90</ele>
        <time>2020-09-26T11:27:53.000Z</time>
      </trkpt>
      <trkpt lat="47.3771" lon="-1.35689">
        <ele>90</ele>
        <time>2020-09-26T11:27:55.000Z</time>
      </trkpt>
      <trkpt lat="47.37699" lon="-1.35679">
        <ele>91</ele>
        <time>2020-09-26T11:27:57.000Z</time>
      </trkpt>
      <trkpt lat="47.37688" lon="-1.35669">
        <ele>91</ele>
        <time>2020-09-26T11:27:59.000Z</time>
      </trkpt>
      <trkpt lat="47.37678" lon="-1.35659">
        <ele>92</ele>
        <time>2020-09-26T11:28:01.000Z</time>
      </trkpt>
      <trkpt lat="47.37667" lon="-1.35649">
        <ele>93</ele>
        <time>2020-09-26T11:28:03.000Z</time>
      </trkpt>
      <trkpt lat="47.37656" lon="-1.35639">
        <ele>93</ele>
        <time>2020-09-26T11:28:05.000Z</time>
      </trkpt>
      <trkpt lat="47.37645" lon="-1.35628">
        <ele>93</ele>
        <time>2020-09-26T11:28:07.000Z</time>
      </trkpt>
      <trkpt lat="47.37633" lon="-1.35618">
        <ele>93</ele>
        <time>2020-09-26T11:28:09.000Z</time>
      </trkpt>
      <trkpt lat="47.37621" lon="-1.35608">
        <ele>94</ele>
        <time>2020-09-26T11:28:11.000Z</time>
      </trkpt>
      <trkpt lat="47.3761" lon="-1.35598">
        <ele>94</ele>
        <time>2020-09-26T11:28:13.000Z</time>
      </trkpt>
      <trkpt lat="47.37598" lon="-1.35589">
        <ele>95</ele>
        <time>2020-09-26T11:28:15.000Z</time>
      </trkpt>
      <trkpt lat="47.37587" lon="-1.35579">
        <ele>95</ele>
        <time>2020-09-26T11:28:17.000Z</time>
      </trkpt>
      <trkpt lat="47.37576" lon="-1.35568">
        <ele>95</ele>
        <time>2020-09-26T11:28:19.000Z</time>
      </trkpt>
      <trkpt lat="47.37565" lon="-1.35558">
        <ele>96</ele>
        <time>2020-09-26T11:28:21.000Z</time>
      </trkpt>
      <trkpt lat="47.37553" lon="-1.35548">
        <ele>95</ele>
        <time>2020-09-26T11:28:23.000Z</time>
      </trkpt>
      <trkpt lat="47.37542" lon="-1.35538">
        <ele>96</ele>
        <time>2020-09-26T11:28:25.000Z</time>
      </trkpt>
      <trkpt lat="47.3753" lon="-1.35529">
        <ele>96</ele>
        <time>2020-09-26T11:28:27.000Z</time>
      </trkpt>
      <trkpt lat="47.37519" lon="-1.35518">
        <ele>96</ele>
        <time>2020-09-26T11:28:29.000Z</time>
      </trkpt>
      <trkpt lat="47.37507" lon="-1.35506">
        <ele>96</ele>
        <time>2020-09-26T11:28:31.000Z</time>
      </trkpt>
      <trkpt lat="47.37496" lon="-1.35495">
        <ele>96</ele>
        <time>2020-09-26T11:28:33.000Z</time>
      </trkpt>
      <trkpt lat="47.37484" lon="-1.35484">
        <ele>96</ele>
        <time>2020-09-26T11:28:35.000Z</time>
      </trkpt>
      <trkpt lat="47.37472" lon="-1.35474">
        <ele>96</ele>
        <time>2020-09-26T11:28:37.000Z</time>
      </trkpt>
      <trkpt lat="47.37459" lon="-1.35465">
        <ele>96</ele>
        <time>2020-09-26T11:28:39.000Z</time>
      </trkpt>
      <trkpt lat="47.37447" lon="-1.35456">
        <ele>96</ele>
        <time>2020-09-26T11:28:41.000Z</time>
      </trkpt>
      <trkpt lat="47.37434" lon="-1.35449">
        <ele>96</ele>
        <time>2020-09-26T11:28:43.000Z</time>
      </trkpt>
      <trkpt lat="47.3742" lon="-1.35442">
        <ele>95</ele>
        <time>2020-09-26T11:28:45.000Z</time>
      </trkpt>
      <trkpt lat="47.37406" lon="-1.35437">
        <ele>95</ele>
        <time>2020-09-26T11:28:47.000Z</time>
      </trkpt>
      <trkpt lat="47.37392" lon="-1.35434">
        <ele>94</ele>
        <time>2020-09-26T11:28:49.000Z</time>
      </trkpt>
      <trkpt lat="47.37377" lon="-1.35432">
        <ele>94</ele>
        <time>2020-09-26T11:28:51.000Z</time>
      </trkpt>
      <trkpt lat="47.37361" lon="-1.35431">
        <ele>94</ele>
        <time>2020-09-26T11:28:53.000Z</time>
      </trkpt>
      <trkpt lat="47.37347" lon="-1.3543">
        <ele>93</ele>
        <time>2020-09-26T11:28:55.000Z</time>
      </trkpt>
      <trkpt lat="47.37331" lon="-1.35429">
        <ele>93</ele>
        <time>2020-09-26T11:28:57.000Z</time>
      </trkpt>
      <trkpt lat="47.37317" lon="-1.35427">
        <ele>92</ele>
        <time>2020-09-26T11:28:59.000Z</time>
      </trkpt>
      <trkpt lat="47.37302" lon="-1.35425">
        <ele>92</ele>
        <time>2020-09-26T11:29:01.000Z</time>
      </trkpt>
      <trkpt lat="47.37288" lon="-1.35421">
        <ele>91</ele>
        <time>2020-09-26T11:29:03.000Z</time>
      </trkpt>
      <trkpt lat="47.37274" lon="-1.35413">
        <ele>90</ele>
        <time>2020-09-26T11:29:05.000Z</time>
      </trkpt>
      <trkpt lat="47.37261" lon="-1.35402">
        <ele>91</ele>
        <time>2020-09-26T11:29:07.000Z</time>
      </trkpt>
      <trkpt lat="47.37248" lon="-1.35391">
        <ele>91</ele>
        <time>2020-09-26T11:29:09.000Z</time>
      </trkpt>
      <trkpt lat="47.37236" lon="-1.3538">
        <ele>90</ele>
        <time>2020-09-26T11:29:11.000Z</time>
      </trkpt>
      <trkpt lat="47.37224" lon="-1.35372">
        <ele>91</ele>
        <time>2020-09-26T11:29:13.000Z</time>
      </trkpt>
      <trkpt lat="47.37211" lon="-1.35365">
        <ele>91</ele>
        <time>2020-09-26T11:29:15.000Z</time>
      </trkpt>
      <trkpt lat="47.37199" lon="-1.35361">
        <ele>92</ele>
        <time>2020-09-26T11:29:17.000Z</time>
      </trkpt>
      <trkpt lat="47.37188" lon="-1.35359">
        <ele>92</ele>
        <time>2020-09-26T11:29:19.000Z</time>
      </trkpt>
      <trkpt lat="47.37176" lon="-1.35357">
        <ele>92</ele>
        <time>2020-09-26T11:29:21.000Z</time>
      </trkpt>
      <trkpt lat="47.37164" lon="-1.35355">
        <ele>94</ele>
        <time>2020-09-26T11:29:23.000Z</time>
      </trkpt>
      <trkpt lat="47.37154" lon="-1.35353">
        <ele>94</ele>
        <time>2020-09-26T11:29:25.000Z</time>
      </trkpt>
      <trkpt lat="47.37143" lon="-1.35351">
        <ele>95</ele>
        <time>2020-09-26T11:29:27.000Z</time>
      </trkpt>
      <trkpt lat="47.37133" lon="-1.3535">
        <ele>95</ele>
        <time>2020-09-26T11:29:29.000Z</time>
      </trkpt>
      <trkpt lat="47.37122" lon="-1.35348">
        <ele>96</ele>
        <time>2020-09-26T11:29:31.000Z</time>
      </trkpt>
      <trkpt lat="47.37111" lon="-1.35345">
        <ele>96</ele>
        <time>2020-09-26T11:29:33.000Z</time>
      </trkpt>
      <trkpt lat="47.37101" lon="-1.35343">
        <ele>97</ele>
        <time>2020-09-26T11:29:35.000Z</time>
      </trkpt>
      <trkpt lat="47.3709" lon="-1.35341">
        <ele>98</ele>
        <time>2020-09-26T11:29:37.000Z</time>
      </trkpt>
      <trkpt lat="47.37079" lon="-1.35339">
        <ele>98</ele>
        <time>2020-09-26T11:29:39.000Z</time>
      </trkpt>
      <trkpt lat="47.37068" lon="-1.35337">
        <ele>99</ele>
        <time>2020-09-26T11:29:41.000Z</time>
      </trkpt>
      <trkpt lat="47.37057" lon="-1.35334">
        <ele>99</ele>
        <time>2020-09-26T11:29:43.000Z</time>
      </trkpt>
      <trkpt lat="47.37045" lon="-1.35332">
        <ele>99</ele>
        <time>2020-09-26T11:29:45.000Z</time>
      </trkpt>
      <trkpt lat="47.37035" lon="-1.3533">
        <ele>100</ele>
        <time>2020-09-26T11:29:47.000Z</time>
      </trkpt>
      <trkpt lat="47.37024" lon="-1.35328">
        <ele>100</ele>
        <time>2020-09-26T11:29:49.000Z</time>
      </trkpt>
      <trkpt lat="47.37013" lon="-1.35326">
        <ele>100</ele>
        <time>2020-09-26T11:29:51.000Z</time>
      </trkpt>
      <trkpt lat="47.37003" lon="-1.35325">
        <ele>100</ele>
        <time>2020-09-26T11:29:53.000Z</time>
      </trkpt>
      <trkpt lat="47.36991" lon="-1.35322">
        <ele>101</ele>
        <time>2020-09-26T11:29:55.000Z</time>
      </trkpt>
      <trkpt lat="47.3698" lon="-1.3532">
        <ele>101</ele>
        <time>2020-09-26T11:29:57.000Z</time>
      </trkpt>
      <trkpt lat="47.36969" lon="-1.35318">
        <ele>101</ele>
        <time>2020-09-26T11:29:59.000Z</time>
      </trkpt>
      <trkpt lat="47.36959" lon="-1.35316">
        <ele>101</ele>
        <time>2020-09-26T11:30:01.000Z</time>
      </trkpt>
      <trkpt lat="47.36948" lon="-1.35313">
        <ele>101</ele>
        <time>2020-09-26T11:30:03.000Z</time>
      </trkpt>
      <trkpt lat="47.36937" lon="-1.35311">
        <ele>101</ele>
        <time>2020-09-26T11:30:05.000Z</time>
      </trkpt>
      <trkpt lat="47.36926" lon="-1.35309">
        <ele>101</ele>
        <time>2020-09-26T11:30:07.000Z</time>
      </trkpt>
      <trkpt lat="47.36915" lon="-1.35306">
        <ele>101</ele>
        <time>2020-09-26T11:30:09.000Z</time>
      </trkpt>
      <trkpt lat="47.36903" lon="-1.35303">
        <ele>101</ele>
        <time>2020-09-26T11:30:11.000Z</time>
      </trkpt>
      <trkpt lat="47.36891" lon="-1.35301">
        <ele>101</ele>
        <time>2020-09-26T11:30:13.000Z</time>
      </trkpt>
      <trkpt lat="47.36879" lon="-1.35299">
        <ele>101</ele>
        <time>2020-09-26T11:30:15.000Z</time>
      </trkpt>
      <trkpt lat="47.36867" lon="-1.35296">
        <ele>100</ele>
        <time>2020-09-26T11:30:17.000Z</time>
      </trkpt>
      <trkpt lat="47.36855" lon="-1.35293">
        <ele>101</ele>
        <time>2020-09-26T11:30:19.000Z</time>
      </trkpt>
      <trkpt lat="47.36843" lon="-1.35291">
        <ele>100</ele>
        <time>2020-09-26T11:30:21.000Z</time>
      </trkpt>
      <trkpt lat="47.36831" lon="-1.35289">
        <ele>100</ele>
        <time>2020-09-26T11:30:23.000Z</time>
      </trkpt>
      <trkpt lat="47.36819" lon="-1.35286">
        <ele>100</ele>
        <time>2020-09-26T11:30:25.000Z</time>
      </trkpt>
      <trkpt lat="47.36807" lon="-1.35284">
        <ele>100</ele>
        <time>2020-09-26T11:30:27.000Z</time>
      </trkpt>
      <trkpt lat="47.36796" lon="-1.35281">
        <ele>100</ele>
        <time>2020-09-26T11:30:29.000Z</time>
      </trkpt>
      <trkpt lat="47.36785" lon="-1.35279">
        <ele>101</ele>
        <time>2020-09-26T11:30:31.000Z</time>
      </trkpt>
      <trkpt lat="47.36773" lon="-1.35277">
        <ele>101</ele>
        <time>2020-09-26T11:30:33.000Z</time>
      </trkpt>
      <trkpt lat="47.36762" lon="-1.35275">
        <ele>101</ele>
        <time>2020-09-26T11:30:35.000Z</time>
      </trkpt>
      <trkpt lat="47.36751" lon="-1.35273">
        <ele>102</ele>
        <time>2020-09-26T11:30:37.000Z</time>
      </trkpt>
      <trkpt lat="47.36741" lon="-1.3527">
        <ele>102</ele>
        <time>2020-09-26T11:30:39.000Z</time>
      </trkpt>
      <trkpt lat="47.3673" lon="-1.35268">
        <ele>103</ele>
        <time>2020-09-26T11:30:41.000Z</time>
      </trkpt>
      <trkpt lat="47.3672" lon="-1.35266">
        <ele>103</ele>
        <time>2020-09-26T11:30:43.000Z</time>
      </trkpt>
      <trkpt lat="47.36709" lon="-1.35264">
        <ele>103</ele>
        <time>2020-09-26T11:30:45.000Z</time>
      </trkpt>
      <trkpt lat="47.36698" lon="-1.35262">
        <ele>103</ele>
        <time>2020-09-26T11:30:47.000Z</time>
      </trkpt>
      <trkpt lat="47.36688" lon="-1.35259">
        <ele>103</ele>
        <time>2020-09-26T11:30:49.000Z</time>
      </trkpt>
      <trkpt lat="47.36677" lon="-1.35257">
        <ele>103</ele>
        <time>2020-09-26T11:30:51.000Z</time>
      </trkpt>
      <trkpt lat="47.36666" lon="-1.35255">
        <ele>104</ele>
        <time>2020-09-26T11:30:53.000Z</time>
      </trkpt>
      <trkpt lat="47.36655" lon="-1.35253">
        <ele>104</ele>
        <time>2020-09-26T11:30:55.000Z</time>
      </trkpt>
      <trkpt lat="47.36644" lon="-1.35251">
        <ele>104</ele>
        <time>2020-09-26T11:30:57.000Z</time>
      </trkpt>
      <trkpt lat="47.36633" lon="-1.35248">
        <ele>104</ele>
        <time>2020-09-26T11:30:59.000Z</time>
      </trkpt>
      <trkpt lat="47.36623" lon="-1.35246">
        <ele>105</ele>
        <time>2020-09-26T11:31:01.000Z</time>
      </trkpt>
      <trkpt lat="47.36612" lon="-1.35244">
        <ele>105</ele>
        <time>2020-09-26T11:31:03.000Z</time>
      </trkpt>
      <trkpt lat="47.36602" lon="-1.35241">
        <ele>105</ele>
        <time>2020-09-26T11:31:05.000Z</time>
      </trkpt>
      <trkpt lat="47.36591" lon="-1.35239">
        <ele>105</ele>
        <time>2020-09-26T11:31:07.000Z</time>
      </trkpt>
      <trkpt lat="47.3658" lon="-1.35236">
        <ele>106</ele>
        <time>2020-09-26T11:31:09.000Z</time>
      </trkpt>
      <trkpt lat="47.36569" lon="-1.35234">
        <ele>106</ele>
        <time>2020-09-26T11:31:11.000Z</time>
      </trkpt>
      <trkpt lat="47.36558" lon="-1.35232">
        <ele>106</ele>
        <time>2020-09-26T11:31:13.000Z</time>
      </trkpt>
      <trkpt lat="47.36548" lon="-1.3523">
        <ele>107</ele>
        <time>2020-09-26T11:31:15.000Z</time>
      </trkpt>
      <trkpt lat="47.36537" lon="-1.35228">
        <ele>107</ele>
        <time>2020-09-26T11:31:17.000Z</time>
      </trkpt>
      <trkpt lat="47.36526" lon="-1.35226">
        <ele>107</ele>
        <time>2020-09-26T11:31:19.000Z</time>
      </trkpt>
      <trkpt lat="47.36514" lon="-1.35224">
        <ele>108</ele>
        <time>2020-09-26T11:31:21.000Z</time>
      </trkpt>
      <trkpt lat="47.36504" lon="-1.35222">
        <ele>108</ele>
        <time>2020-09-26T11:31:23.000Z</time>
      </trkpt>
      <trkpt lat="47.36494" lon="-1.3522">
        <ele>108</ele>
        <time>2020-09-26T11:31:25.000Z</time>
      </trkpt>
      <trkpt lat="47.36483" lon="-1.35218">
        <ele>108</ele>
        <time>2020-09-26T11:31:27.000Z</time>
      </trkpt>
      <trkpt lat="47.36473" lon="-1.35216">
        <ele>108</ele>
        <time>2020-09-26T11:31:29.000Z</time>
      </trkpt>
      <trkpt lat="47.36462" lon="-1.35213">
        <ele>109</ele>
        <time>2020-09-26T11:31:31.000Z</time>
      </trkpt>
      <trkpt lat="47.36451" lon="-1.35211">
        <ele>109</ele>
        <time>2020-09-26T11:31:33.000Z</time>
      </trkpt>
      <trkpt lat="47.3644" lon="-1.35209">
        <ele>110</ele>
        <time>2020-09-26T11:31:35.000Z</time>
      </trkpt>
      <trkpt lat="47.36429" lon="-1.35206">
        <ele>110</ele>
        <time>2020-09-26T11:31:37.000Z</time>
      </trkpt>
      <trkpt lat="47.36419" lon="-1.35204">
        <ele>110</ele>
        <time>2020-09-26T11:31:39.000Z</time>
      </trkpt>
      <trkpt lat="47.36408" lon="-1.35202">
        <ele>110</ele>
        <time>2020-09-26T11:31:41.000Z</time>
      </trkpt>
      <trkpt lat="47.36398" lon="-1.352">
        <ele>110</ele>
        <time>2020-09-26T11:31:43.000Z</time>
      </trkpt>
      <trkpt lat="47.36387" lon="-1.35197">
        <ele>111</ele>
        <time>2020-09-26T11:31:45.000Z</time>
      </trkpt>
      <trkpt lat="47.36376" lon="-1.35195">
        <ele>111</ele>
        <time>2020-09-26T11:31:47.000Z</time>
      </trkpt>
      <trkpt lat="47.36365" lon="-1.35194">
        <ele>111</ele>
        <time>2020-09-26T11:31:49.000Z</time>
      </trkpt>
      <trkpt lat="47.36354" lon="-1.35192">
        <ele>111</ele>
        <time>2020-09-26T11:31:51.000Z</time>
      </trkpt>
      <trkpt lat="47.36344" lon="-1.3519">
        <ele>112</ele>
        <time>2020-09-26T11:31:53.000Z</time>
      </trkpt>
      <trkpt lat="47.36333" lon="-1.35188">
        <ele>112</ele>
        <time>2020-09-26T11:31:55.000Z</time>
      </trkpt>
      <trkpt lat="47.36322" lon="-1.35185">
        <ele>112</ele>
        <time>2020-09-26T11:31:57.000Z</time>
      </trkpt>
      <trkpt lat="47.36311" lon="-1.35183">
        <ele>112</ele>
        <time>2020-09-26T11:31:59.000Z</time>
      </trkpt>
      <trkpt lat="47.363" lon="-1.35181">
        <ele>112</ele>
        <time>2020-09-26T11:32:01.000Z</time>
      </trkpt>
      <trkpt lat="47.36289" lon="-1.35178">
        <ele>112</ele>
        <time>2020-09-26T11:32:03.000Z</time>
      </trkpt>
      <trkpt lat="47.36278" lon="-1.35176">
        <ele>112</ele>
        <time>2020-09-26T11:32:05.000Z</time>
      </trkpt>
      <trkpt lat="47.36267" lon="-1.35174">
        <ele>113</ele>
        <time>2020-09-26T11:32:07.000Z</time>
      </trkpt>
      <trkpt lat="47.36255" lon="-1.35172">
        <ele>113</ele>
        <time>2020-09-26T11:32:09.000Z</time>
      </trkpt>
      <trkpt lat="47.36244" lon="-1.35169">
        <ele>114</ele>
        <time>2020-09-26T11:32:11.000Z</time>
      </trkpt>
      <trkpt lat="47.36233" lon="-1.35167">
        <ele>114</ele>
        <time>2020-09-26T11:32:13.000Z</time>
      </trkpt>
      <trkpt lat="47.36223" lon="-1.35164">
        <ele>114</ele>
        <time>2020-09-26T11:32:15.000Z</time>
      </trkpt>
      <trkpt lat="47.36211" lon="-1.35162">
        <ele>114</ele>
        <time>2020-09-26T11:32:17.000Z</time>
      </trkpt>
      <trkpt lat="47.362" lon="-1.3516">
        <ele>114</ele>
        <time>2020-09-26T11:32:19.000Z</time>
      </trkpt>
      <trkpt lat="47.36189" lon="-1.35157">
        <ele>114</ele>
        <time>2020-09-26T11:32:21.000Z</time>
      </trkpt>
      <trkpt lat="47.36178" lon="-1.35155">
        <ele>115</ele>
        <time>2020-09-26T11:32:23.000Z</time>
      </trkpt>
      <trkpt lat="47.36167" lon="-1.35153">
        <ele>115</ele>
        <time>2020-09-26T11:32:25.000Z</time>
      </trkpt>
      <trkpt lat="47.36156" lon="-1.35151">
        <ele>115</ele>
        <time>2020-09-26T11:32:27.000Z</time>
      </trkpt>
      <trkpt lat="47.36144" lon="-1.35148">
        <ele>115</ele>
        <time>2020-09-26T11:32:29.000Z</time>
      </trkpt>
      <trkpt lat="47.36133" lon="-1.35146">
        <ele>115</ele>
        <time>2020-09-26T11:32:31.000Z</time>
      </trkpt>
      <trkpt lat="47.36121" lon="-1.35144">
        <ele>115</ele>
        <time>2020-09-26T11:32:33.000Z</time>
      </trkpt>
      <trkpt lat="47.36108" lon="-1.35141">
        <ele>114</ele>
        <time>2020-09-26T11:32:35.000Z</time>
      </trkpt>
      <trkpt lat="47.36096" lon="-1.35139">
        <ele>114</ele>
        <time>2020-09-26T11:32:37.000Z</time>
      </trkpt>
      <trkpt lat="47.36083" lon="-1.35136">
        <ele>114</ele>
        <time>2020-09-26T11:32:39.000Z</time>
      </trkpt>
      <trkpt lat="47.36071" lon="-1.35133">
        <ele>114</ele>
        <time>2020-09-26T11:32:41.000Z</time>
      </trkpt>
      <trkpt lat="47.36058" lon="-1.3513">
        <ele>114</ele>
        <time>2020-09-26T11:32:43.000Z</time>
      </trkpt>
      <trkpt lat="47.36045" lon="-1.35128">
        <ele>113</ele>
        <time>2020-09-26T11:32:45.000Z</time>
      </trkpt>
      <trkpt lat="47.36033" lon="-1.35126">
        <ele>113</ele>
        <time>2020-09-26T11:32:47.000Z</time>
      </trkpt>
      <trkpt lat="47.3602" lon="-1.35123">
        <ele>113</ele>
        <time>2020-09-26T11:32:49.000Z</time>
      </trkpt>
      <trkpt lat="47.36008" lon="-1.35121">
        <ele>114</ele>
        <time>2020-09-26T11:32:51.000Z</time>
      </trkpt>
      <trkpt lat="47.35994" lon="-1.35118">
        <ele>113</ele>
        <time>2020-09-26T11:32:53.000Z</time>
      </trkpt>
      <trkpt lat="47.35982" lon="-1.35115">
        <ele>113</ele>
        <time>2020-09-26T11:32:55.000Z</time>
      </trkpt>
      <trkpt lat="47.35968" lon="-1.35113">
        <ele>112</ele>
        <time>2020-09-26T11:32:57.000Z</time>
      </trkpt>
      <trkpt lat="47.35954" lon="-1.35109">
        <ele>112</ele>
        <time>2020-09-26T11:32:59.000Z</time>
      </trkpt>
      <trkpt lat="47.3594" lon="-1.35106">
        <ele>111</ele>
        <time>2020-09-26T11:33:01.000Z</time>
      </trkpt>
      <trkpt lat="47.35925" lon="-1.35103">
        <ele>111</ele>
        <time>2020-09-26T11:33:03.000Z</time>
      </trkpt>
      <trkpt lat="47.3591" lon="-1.35099">
        <ele>110</ele>
        <time>2020-09-26T11:33:05.000Z</time>
      </trkpt>
      <trkpt lat="47.35896" lon="-1.35096">
        <ele>109</ele>
        <time>2020-09-26T11:33:07.000Z</time>
      </trkpt>
      <trkpt lat="47.3588" lon="-1.35093">
        <ele>108</ele>
        <time>2020-09-26T11:33:09.000Z</time>
      </trkpt>
      <trkpt lat="47.35865" lon="-1.3509">
        <ele>107</ele>
        <time>2020-09-26T11:33:11.000Z</time>
      </trkpt>
      <trkpt lat="47.3585" lon="-1.35086">
        <ele>107</ele>
        <time>2020-09-26T11:33:13.000Z</time>
      </trkpt>
      <trkpt lat="47.35835" lon="-1.35083">
        <ele>106</ele>
        <time>2020-09-26T11:33:15.000Z</time>
      </trkpt>
      <trkpt lat="47.35819" lon="-1.3508">
        <ele>105</ele>
        <time>2020-09-26T11:33:17.000Z</time>
      </trkpt>
      <trkpt lat="47.35803" lon="-1.35077">
        <ele>105</ele>
        <time>2020-09-26T11:33:19.000Z</time>
      </trkpt>
      <trkpt lat="47.35788" lon="-1.35073">
        <ele>105</ele>
        <time>2020-09-26T11:33:21.000Z</time>
      </trkpt>
      <trkpt lat="47.35774" lon="-1.35071">
        <ele>106</ele>
        <time>2020-09-26T11:33:23.000Z</time>
      </trkpt>
      <trkpt lat="47.35761" lon="-1.35069">
        <ele>106</ele>
        <time>2020-09-26T11:33:25.000Z</time>
      </trkpt>
      <trkpt lat="47.35749" lon="-1.35066">
        <ele>106</ele>
        <time>2020-09-26T11:33:27.000Z</time>
      </trkpt>
      <trkpt lat="47.35737" lon="-1.35063">
        <ele>107</ele>
        <time>2020-09-26T11:33:29.000Z</time>
      </trkpt>
      <trkpt lat="47.35725" lon="-1.3506">
        <ele>107</ele>
        <time>2020-09-26T11:33:31.000Z</time>
      </trkpt>
      <trkpt lat="47.35713" lon="-1.35058">
        <ele>108</ele>
        <time>2020-09-26T11:33:33.000Z</time>
      </trkpt>
      <trkpt lat="47.35701" lon="-1.35055">
        <ele>108</ele>
        <time>2020-09-26T11:33:35.000Z</time>
      </trkpt>
      <trkpt lat="47.35689" lon="-1.35053">
        <ele>108</ele>
        <time>2020-09-26T11:33:37.000Z</time>
      </trkpt>
      <trkpt lat="47.35678" lon="-1.3505">
        <ele>108</ele>
        <time>2020-09-26T11:33:39.000Z</time>
      </trkpt>
      <trkpt lat="47.35665" lon="-1.35048">
        <ele>108</ele>
        <time>2020-09-26T11:33:41.000Z</time>
      </trkpt>
      <trkpt lat="47.35653" lon="-1.35046">
        <ele>109</ele>
        <time>2020-09-26T11:33:43.000Z</time>
      </trkpt>
      <trkpt lat="47.35641" lon="-1.35043">
        <ele>109</ele>
        <time>2020-09-26T11:33:45.000Z</time>
      </trkpt>
      <trkpt lat="47.3563" lon="-1.3504">
        <ele>110</ele>
        <time>2020-09-26T11:33:47.000Z</time>
      </trkpt>
      <trkpt lat="47.35619" lon="-1.35038">
        <ele>110</ele>
        <time>2020-09-26T11:33:49.000Z</time>
      </trkpt>
      <trkpt lat="47.35607" lon="-1.35037">
        <ele>111</ele>
        <time>2020-09-26T11:33:51.000Z</time>
      </trkpt>
      <trkpt lat="47.35595" lon="-1.35034">
        <ele>112</ele>
        <time>2020-09-26T11:33:53.000Z</time>
      </trkpt>
      <trkpt lat="47.35584" lon="-1.35033">
        <ele>112</ele>
        <time>2020-09-26T11:33:55.000Z</time>
      </trkpt>
      <trkpt lat="47.35573" lon="-1.35031">
        <ele>113</ele>
        <time>2020-09-26T11:33:57.000Z</time>
      </trkpt>
      <trkpt lat="47.35561" lon="-1.35029">
        <ele>113</ele>
        <time>2020-09-26T11:33:59.000Z</time>
      </trkpt>
      <trkpt lat="47.3555" lon="-1.35026">
        <ele>114</ele>
        <time>2020-09-26T11:34:01.000Z</time>
      </trkpt>
      <trkpt lat="47.35538" lon="-1.35024">
        <ele>115</ele>
        <time>2020-09-26T11:34:03.000Z</time>
      </trkpt>
      <trkpt lat="47.35525" lon="-1.35021">
        <ele>115</ele>
        <time>2020-09-26T11:34:05.000Z</time>
      </trkpt>
      <trkpt lat="47.35513" lon="-1.35019">
        <ele>115</ele>
        <time>2020-09-26T11:34:07.000Z</time>
      </trkpt>
      <trkpt lat="47.355" lon="-1.35016">
        <ele>115</ele>
        <time>2020-09-26T11:34:09.000Z</time>
      </trkpt>
      <trkpt lat="47.35488" lon="-1.35013">
        <ele>116</ele>
        <time>2020-09-26T11:34:11.000Z</time>
      </trkpt>
      <trkpt lat="47.35476" lon="-1.3501">
        <ele>116</ele>
        <time>2020-09-26T11:34:13.000Z</time>
      </trkpt>
      <trkpt lat="47.35464" lon="-1.35007">
        <ele>117</ele>
        <time>2020-09-26T11:34:15.000Z</time>
      </trkpt>
      <trkpt lat="47.35452" lon="-1.35004">
        <ele>117</ele>
        <time>2020-09-26T11:34:17.000Z</time>
      </trkpt>
      <trkpt lat="47.35441" lon="-1.35002">
        <ele>117</ele>
        <time>2020-09-26T11:34:19.000Z</time>
      </trkpt>
      <trkpt lat="47.35428" lon="-1.35">
        <ele>117</ele>
        <time>2020-09-26T11:34:21.000Z</time>
      </trkpt>
      <trkpt lat="47.35416" lon="-1.34996">
        <ele>117</ele>
        <time>2020-09-26T11:34:23.000Z</time>
      </trkpt>
      <trkpt lat="47.35404" lon="-1.34994">
        <ele>118</ele>
        <time>2020-09-26T11:34:25.000Z</time>
      </trkpt>
      <trkpt lat="47.35393" lon="-1.34992">
        <ele>118</ele>
        <time>2020-09-26T11:34:27.000Z</time>
      </trkpt>
      <trkpt lat="47.35382" lon="-1.3499">
        <ele>118</ele>
        <time>2020-09-26T11:34:29.000Z</time>
      </trkpt>
      <trkpt lat="47.3537" lon="-1.34988">
        <ele>118</ele>
        <time>2020-09-26T11:34:31.000Z</time>
      </trkpt>
      <trkpt lat="47.35358" lon="-1.34986">
        <ele>119</ele>
        <time>2020-09-26T11:34:33.000Z</time>
      </trkpt>
      <trkpt lat="47.35346" lon="-1.34983">
        <ele>120</ele>
        <time>2020-09-26T11:34:35.000Z</time>
      </trkpt>
      <trkpt lat="47.35334" lon="-1.34981">
        <ele>120</ele>
        <time>2020-09-26T11:34:37.000Z</time>
      </trkpt>
      <trkpt lat="47.35322" lon="-1.34978">
        <ele>120</ele>
        <time>2020-09-26T11:34:39.000Z</time>
      </trkpt>
      <trkpt lat="47.3531" lon="-1.34974">
        <ele>119</ele>
        <time>2020-09-26T11:34:41.000Z</time>
      </trkpt>
      <trkpt lat="47.35297" lon="-1.34971">
        <ele>119</ele>
        <time>2020-09-26T11:34:43.000Z</time>
      </trkpt>
      <trkpt lat="47.35285" lon="-1.34968">
        <ele>119</ele>
        <time>2020-09-26T11:34:45.000Z</time>
      </trkpt>
      <trkpt lat="47.35273" lon="-1.34965">
        <ele>119</ele>
        <time>2020-09-26T11:34:47.000Z</time>
      </trkpt>
      <trkpt lat="47.35261" lon="-1.34962">
        <ele>119</ele>
        <time>2020-09-26T11:34:49.000Z</time>
      </trkpt>
      <trkpt lat="47.3525" lon="-1.3496">
        <ele>119</ele>
        <time>2020-09-26T11:34:51.000Z</time>
      </trkpt>
      <trkpt lat="47.35239" lon="-1.3496">
        <ele>119</ele>
        <time>2020-09-26T11:34:53.000Z</time>
      </trkpt>
      <trkpt lat="47.35229" lon="-1.34961">
        <ele>120</ele>
        <time>2020-09-26T11:34:55.000Z</time>
      </trkpt>
      <trkpt lat="47.35218" lon="-1.34961">
        <ele>120</ele>
        <time>2020-09-26T11:34:57.000Z</time>
      </trkpt>
      <trkpt lat="47.35208" lon="-1.34962">
        <ele>120</ele>
        <time>2020-09-26T11:34:59.000Z</time>
      </trkpt>
      <trkpt lat="47.35197" lon="-1.34964">
        <ele>120</ele>
        <time>2020-09-26T11:35:01.000Z</time>
      </trkpt>
      <trkpt lat="47.35187" lon="-1.34965">
        <ele>120</ele>
        <time>2020-09-26T11:35:03.000Z</time>
      </trkpt>
      <trkpt lat="47.35177" lon="-1.34968">
        <ele>121</ele>
        <time>2020-09-26T11:35:05.000Z</time>
      </trkpt>
      <trkpt lat="47.35166" lon="-1.34971">
        <ele>121</ele>
        <time>2020-09-26T11:35:07.000Z</time>
      </trkpt>
      <trkpt lat="47.35156" lon="-1.34974">
        <ele>121</ele>
        <time>2020-09-26T11:35:09.000Z</time>
      </trkpt>
      <trkpt lat="47.35146" lon="-1.34978">
        <ele>121</ele>
        <time>2020-09-26T11:35:11.000Z</time>
      </trkpt>
      <trkpt lat="47.35136" lon="-1.34981">
        <ele>122</ele>
        <time>2020-09-26T11:35:13.000Z</time>
      </trkpt>
      <trkpt lat="47.35126" lon="-1.34985">
        <ele>122</ele>
        <time>2020-09-26T11:35:15.000Z</time>
      </trkpt>
      <trkpt lat="47.35116" lon="-1.34989">
        <ele>122</ele>
        <time>2020-09-26T11:35:17.000Z</time>
      </trkpt>
      <trkpt lat="47.35105" lon="-1.34992">
        <ele>123</ele>
        <time>2020-09-26T11:35:19.000Z</time>
      </trkpt>
      <trkpt lat="47.35094" lon="-1.34996">
        <ele>123</ele>
        <time>2020-09-26T11:35:21.000Z</time>
      </trkpt>
      <trkpt lat="47.35084" lon="-1.35">
        <ele>123</ele>
        <time>2020-09-26T11:35:23.000Z</time>
      </trkpt>
      <trkpt lat="47.35073" lon="-1.35004">
        <ele>123</ele>
        <time>2020-09-26T11:35:25.000Z</time>
      </trkpt>
      <trkpt lat="47.35061" lon="-1.35008">
        <ele>123</ele>
        <time>2020-09-26T11:35:27.000Z</time>
      </trkpt>
      <trkpt lat="47.3505" lon="-1.35012">
        <ele>122</ele>
        <time>2020-09-26T11:35:29.000Z</time>
      </trkpt>
      <trkpt lat="47.35038" lon="-1.35016">
        <ele>122</ele>
        <time>2020-09-26T11:35:31.000Z</time>
      </trkpt>
      <trkpt lat="47.35027" lon="-1.35019">
        <ele>122</ele>
        <time>2020-09-26T11:35:33.000Z</time>
      </trkpt>
      <trkpt lat="47.35015" lon="-1.35024">
        <ele>122</ele>
        <time>2020-09-26T11:35:35.000Z</time>
      </trkpt>
      <trkpt lat="47.35004" lon="-1.35029">
        <ele>122</ele>
        <time>2020-09-26T11:35:37.000Z</time>
      </trkpt>
      <trkpt lat="47.34992" lon="-1.35033">
        <ele>122</ele>
        <time>2020-09-26T11:35:39.000Z</time>
      </trkpt>
      <trkpt lat="47.3498" lon="-1.35038">
        <ele>122</ele>
        <time>2020-09-26T11:35:41.000Z</time>
      </trkpt>
      <trkpt lat="47.34968" lon="-1.35042">
        <ele>122</ele>
        <time>2020-09-26T11:35:43.000Z</time>
      </trkpt>
      <trkpt lat="47.34957" lon="-1.35046">
        <ele>122</ele>
        <time>2020-09-26T11:35:45.000Z</time>
      </trkpt>
      <trkpt lat="47.34945" lon="-1.3505">
        <ele>122</ele>
        <time>2020-09-26T11:35:47.000Z</time>
      </trkpt>
      <trkpt lat="47.34934" lon="-1.35054">
        <ele>122</ele>
        <time>2020-09-26T11:35:49.000Z</time>
      </trkpt>
      <trkpt lat="47.34923" lon="-1.35058">
        <ele>122</ele>
        <time>2020-09-26T11:35:51.000Z</time>
      </trkpt>
      <trkpt lat="47.34911" lon="-1.35061">
        <ele>123</ele>
        <time>2020-09-26T11:35:53.000Z</time>
      </trkpt>
      <trkpt lat="47.34899" lon="-1.35063">
        <ele>123</ele>
        <time>2020-09-26T11:35:55.000Z</time>
      </trkpt>
      <trkpt lat="47.34886" lon="-1.35064">
        <ele>124</ele>
        <time>2020-09-26T11:35:57.000Z</time>
      </trkpt>
      <trkpt lat="47.34874" lon="-1.35065">
        <ele>124</ele>
        <time>2020-09-26T11:35:59.000Z</time>
      </trkpt>
      <trkpt lat="47.34861" lon="-1.35064">
        <ele>123</ele>
        <time>2020-09-26T11:36:01.000Z</time>
      </trkpt>
      <trkpt lat="47.34848" lon="-1.35062">
        <ele>123</ele>
        <time>2020-09-26T11:36:03.000Z</time>
      </trkpt>
      <trkpt lat="47.34834" lon="-1.35059">
        <ele>123</ele>
        <time>2020-09-26T11:36:05.000Z</time>
      </trkpt>
      <trkpt lat="47.3482" lon="-1.35056">
        <ele>122</ele>
        <time>2020-09-26T11:36:07.000Z</time>
      </trkpt>
      <trkpt lat="47.34806" lon="-1.35049">
        <ele>122</ele>
        <time>2020-09-26T11:36:09.000Z</time>
      </trkpt>
      <trkpt lat="47.34793" lon="-1.35042">
        <ele>121</ele>
        <time>2020-09-26T11:36:11.000Z</time>
      </trkpt>
      <trkpt lat="47.3478" lon="-1.35035">
        <ele>121</ele>
        <time>2020-09-26T11:36:13.000Z</time>
      </trkpt>
      <trkpt lat="47.34768" lon="-1.35026">
        <ele>121</ele>
        <time>2020-09-26T11:36:15.000Z</time>
      </trkpt>
      <trkpt lat="47.34755" lon="-1.3502">
        <ele>121</ele>
        <time>2020-09-26T11:36:17.000Z</time>
      </trkpt>
      <trkpt lat="47.34742" lon="-1.35012">
        <ele>120</ele>
        <time>2020-09-26T11:36:19.000Z</time>
      </trkpt>
      <trkpt lat="47.34729" lon="-1.35005">
        <ele>120</ele>
        <time>2020-09-26T11:36:21.000Z</time>
      </trkpt>
      <trkpt lat="47.34716" lon="-1.34998">
        <ele>120</ele>
        <time>2020-09-26T11:36:23.000Z</time>
      </trkpt>
      <trkpt lat="47.34704" lon="-1.34989">
        <ele>119</ele>
        <time>2020-09-26T11:36:25.000Z</time>
      </trkpt>
      <trkpt lat="47.34691" lon="-1.34981">
        <ele>119</ele>
        <time>2020-09-26T11:36:27.000Z</time>
      </trkpt>
      <trkpt lat="47.34678" lon="-1.34973">
        <ele>119</ele>
        <time>2020-09-26T11:36:29.000Z</time>
      </trkpt>
      <trkpt lat="47.34664" lon="-1.34965">
        <ele>119</ele>
        <time>2020-09-26T11:36:31.000Z</time>
      </trkpt>
      <trkpt lat="47.34652" lon="-1.34957">
        <ele>118</ele>
        <time>2020-09-26T11:36:33.000Z</time>
      </trkpt>
      <trkpt lat="47.34639" lon="-1.34949">
        <ele>118</ele>
        <time>2020-09-26T11:36:35.000Z</time>
      </trkpt>
      <trkpt lat="47.34627" lon="-1.34942">
        <ele>118</ele>
        <time>2020-09-26T11:36:37.000Z</time>
      </trkpt>
      <trkpt lat="47.34614" lon="-1.34935">
        <ele>118</ele>
        <time>2020-09-26T11:36:39.000Z</time>
      </trkpt>
      <trkpt lat="47.34601" lon="-1.34928">
        <ele>117</ele>
        <time>2020-09-26T11:36:41.000Z</time>
      </trkpt>
      <trkpt lat="47.3459" lon="-1.34921">
        <ele>118</ele>
        <time>2020-09-26T11:36:43.000Z</time>
      </trkpt>
      <trkpt lat="47.34578" lon="-1.34914">
        <ele>118</ele>
        <time>2020-09-26T11:36:45.000Z</time>
      </trkpt>
      <trkpt lat="47.34567" lon="-1.34911">
        <ele>118</ele>
        <time>2020-09-26T11:36:47.000Z</time>
      </trkpt>
      <trkpt lat="47.34558" lon="-1.34921">
        <ele>118</ele>
        <time>2020-09-26T11:36:49.000Z</time>
      </trkpt>
      <trkpt lat="47.34555" lon="-1.34938">
        <ele>118</ele>
        <time>2020-09-26T11:36:51.000Z</time>
      </trkpt>
      <trkpt lat="47.34554" lon="-1.34954">
        <ele>119</ele>
        <time>2020-09-26T11:36:53.000Z</time>
      </trkpt>
      <trkpt lat="47.34552" lon="-1.3497">
        <ele>119</ele>
        <time>2020-09-26T11:36:55.000Z</time>
      </trkpt>
      <trkpt lat="47.34548" lon="-1.34987">
        <ele>119</ele>
        <time>2020-09-26T11:36:57.000Z</time>
      </trkpt>
      <trkpt lat="47.34545" lon="-1.35003">
        <ele>119</ele>
        <time>2020-09-26T11:36:59.000Z</time>
      </trkpt>
      <trkpt lat="47.34543" lon="-1.35018">
        <ele>119</ele>
        <time>2020-09-26T11:37:01.000Z</time>
      </trkpt>
      <trkpt lat="47.34541" lon="-1.35034">
        <ele>120</ele>
        <time>2020-09-26T11:37:03.000Z</time>
      </trkpt>
      <trkpt lat="47.34539" lon="-1.35049">
        <ele>120</ele>
        <time>2020-09-26T11:37:05.000Z</time>
      </trkpt>
      <trkpt lat="47.34536" lon="-1.35064">
        <ele>120</ele>
        <time>2020-09-26T11:37:07.000Z</time>
      </trkpt>
      <trkpt lat="47.34534" lon="-1.35079">
        <ele>121</ele>
        <time>2020-09-26T11:37:09.000Z</time>
      </trkpt>
      <trkpt lat="47.34531" lon="-1.35094">
        <ele>121</ele>
        <time>2020-09-26T11:37:11.000Z</time>
      </trkpt>
      <trkpt lat="47.34529" lon="-1.35108">
        <ele>121</ele>
        <time>2020-09-26T11:37:13.000Z</time>
      </trkpt>
      <trkpt lat="47.34527" lon="-1.35123">
        <ele>121</ele>
        <time>2020-09-26T11:37:15.000Z</time>
      </trkpt>
      <trkpt lat="47.34525" lon="-1.35137">
        <ele>122</ele>
        <time>2020-09-26T11:37:17.000Z</time>
      </trkpt>
      <trkpt lat="47.34522" lon="-1.35151">
        <ele>122</ele>
        <time>2020-09-26T11:37:19.000Z</time>
      </trkpt>
      <trkpt lat="47.3452" lon="-1.35166">
        <ele>123</ele>
        <time>2020-09-26T11:37:21.000Z</time>
      </trkpt>
      <trkpt lat="47.34518" lon="-1.35181">
        <ele>123</ele>
        <time>2020-09-26T11:37:23.000Z</time>
      </trkpt>
      <trkpt lat="47.34516" lon="-1.35195">
        <ele>124</ele>
        <time>2020-09-26T11:37:25.000Z</time>
      </trkpt>
      <trkpt lat="47.34515" lon="-1.3521">
        <ele>124</ele>
        <time>2020-09-26T11:37:27.000Z</time>
      </trkpt>
      <trkpt lat="47.34513" lon="-1.35226">
        <ele>124</ele>
        <time>2020-09-26T11:37:29.000Z</time>
      </trkpt>
      <trkpt lat="47.34512" lon="-1.35241">
        <ele>124</ele>
        <time>2020-09-26T11:37:31.000Z</time>
      </trkpt>
      <trkpt lat="47.3451" lon="-1.35257">
        <ele>124</ele>
        <time>2020-09-26T11:37:33.000Z</time>
      </trkpt>
      <trkpt lat="47.34507" lon="-1.35274">
        <ele>124</ele>
        <time>2020-09-26T11:37:35.000Z</time>
      </trkpt>
      <trkpt lat="47.34505" lon="-1.3529">
        <ele>124</ele>
        <time>2020-09-26T11:37:37.000Z</time>
      </trkpt>
      <trkpt lat="47.34504" lon="-1.35306">
        <ele>123</ele>
        <time>2020-09-26T11:37:39.000Z</time>
      </trkpt>
      <trkpt lat="47.34504" lon="-1.35322">
        <ele>124</ele>
        <time>2020-09-26T11:37:41.000Z</time>
      </trkpt>
      <trkpt lat="47.34506" lon="-1.35337">
        <ele>124</ele>
        <time>2020-09-26T11:37:43.000Z</time>
      </trkpt>
      <trkpt lat="47.34509" lon="-1.35351">
        <ele>123</ele>
        <time>2020-09-26T11:37:45.000Z</time>
      </trkpt>
      <trkpt lat="47.34512" lon="-1.35367">
        <ele>124</ele>
        <time>2020-09-26T11:37:47.000Z</time>
      </trkpt>
      <trkpt lat="47.34515" lon="-1.35382">
        <ele>124</ele>
        <time>2020-09-26T11:37:49.000Z</time>
      </trkpt>
      <trkpt lat="47.34518" lon="-1.35397">
        <ele>124</ele>
        <time>2020-09-26T11:37:51.000Z</time>
      </trkpt>
      <trkpt lat="47.3452" lon="-1.35412">
        <ele>125</ele>
        <time>2020-09-26T11:37:53.000Z</time>
      </trkpt>
      <trkpt lat="47.34521" lon="-1.35428">
        <ele>125</ele>
        <time>2020-09-26T11:37:55.000Z</time>
      </trkpt>
      <trkpt lat="47.3452" lon="-1.35444">
        <ele>125</ele>
        <time>2020-09-26T11:37:57.000Z</time>
      </trkpt>
      <trkpt lat="47.34519" lon="-1.35461">
        <ele>125</ele>
        <time>2020-09-26T11:37:59.000Z</time>
      </trkpt>
      <trkpt lat="47.34518" lon="-1.35478">
        <ele>125</ele>
        <time>2020-09-26T11:38:01.000Z</time>
      </trkpt>
      <trkpt lat="47.34517" lon="-1.35494">
        <ele>125</ele>
        <time>2020-09-26T11:38:03.000Z</time>
      </trkpt>
      <trkpt lat="47.34515" lon="-1.3551">
        <ele>125</ele>
        <time>2020-09-26T11:38:05.000Z</time>
      </trkpt>
      <trkpt lat="47.34514" lon="-1.35526">
        <ele>124</ele>
        <time>2020-09-26T11:38:07.000Z</time>
      </trkpt>
      <trkpt lat="47.34513" lon="-1.35543">
        <ele>125</ele>
        <time>2020-09-26T11:38:09.000Z</time>
      </trkpt>
      <trkpt lat="47.34512" lon="-1.35558">
        <ele>125</ele>
        <time>2020-09-26T11:38:11.000Z</time>
      </trkpt>
      <trkpt lat="47.34511" lon="-1.35574">
        <ele>125</ele>
        <time>2020-09-26T11:38:13.000Z</time>
      </trkpt>
      <trkpt lat="47.3451" lon="-1.35591">
        <ele>126</ele>
        <time>2020-09-26T11:38:15.000Z</time>
      </trkpt>
      <trkpt lat="47.34507" lon="-1.35607">
        <ele>126</ele>
        <time>2020-09-26T11:38:17.000Z</time>
      </trkpt>
      <trkpt lat="47.34506" lon="-1.35623">
        <ele>126</ele>
        <time>2020-09-26T11:38:19.000Z</time>
      </trkpt>
      <trkpt lat="47.34504" lon="-1.35639">
        <ele>126</ele>
        <time>2020-09-26T11:38:21.000Z</time>
      </trkpt>
      <trkpt lat="47.34501" lon="-1.35655">
        <ele>126</ele>
        <time>2020-09-26T11:38:23.000Z</time>
      </trkpt>
      <trkpt lat="47.34498" lon="-1.35671">
        <ele>126</ele>
        <time>2020-09-26T11:38:25.000Z</time>
      </trkpt>
      <trkpt lat="47.34497" lon="-1.35687">
        <ele>126</ele>
        <time>2020-09-26T11:38:27.000Z</time>
      </trkpt>
      <trkpt lat="47.34495" lon="-1.35702">
        <ele>126</ele>
        <time>2020-09-26T11:38:29.000Z</time>
      </trkpt>
      <trkpt lat="47.34493" lon="-1.35716">
        <ele>126</ele>
        <time>2020-09-26T11:38:31.000Z</time>
      </trkpt>
      <trkpt lat="47.3449" lon="-1.35733">
        <ele>126</ele>
        <time>2020-09-26T11:38:34.000Z</time>
      </trkpt>
      <trkpt lat="47.34479" lon="-1.3573">
        <ele>126</ele>
        <time>2020-09-26T11:38:39.000Z</time>
      </trkpt>
      <trkpt lat="47.3447" lon="-1.35717">
        <ele>126</ele>
        <time>2020-09-26T11:38:42.000Z</time>
      </trkpt>
      <trkpt lat="47.34465" lon="-1.35705">
        <ele>126</ele>
        <time>2020-09-26T11:38:45.000Z</time>
      </trkpt>
      <trkpt lat="47.34458" lon="-1.3569">
        <ele>126</ele>
        <time>2020-09-26T11:38:48.000Z</time>
      </trkpt>
      <trkpt lat="47.34451" lon="-1.35678">
        <ele>126</ele>
        <time>2020-09-26T11:38:50.000Z</time>
      </trkpt>
      <trkpt lat="47.34443" lon="-1.35666">
        <ele>127</ele>
        <time>2020-09-26T11:38:52.000Z</time>
      </trkpt>
      <trkpt lat="47.34433" lon="-1.35653">
        <ele>126</ele>
        <time>2020-09-26T11:38:54.000Z</time>
      </trkpt>
      <trkpt lat="47.34424" lon="-1.35638">
        <ele>126</ele>
        <time>2020-09-26T11:38:56.000Z</time>
      </trkpt>
      <trkpt lat="47.34413" lon="-1.35621">
        <ele>126</ele>
        <time>2020-09-26T11:38:58.000Z</time>
      </trkpt>
      <trkpt lat="47.34404" lon="-1.35605">
        <ele>127</ele>
        <time>2020-09-26T11:39:00.000Z</time>
      </trkpt>
      <trkpt lat="47.34395" lon="-1.35589">
        <ele>127</ele>
        <time>2020-09-26T11:39:02.000Z</time>
      </trkpt>
      <trkpt lat="47.34386" lon="-1.35573">
        <ele>127</ele>
        <time>2020-09-26T11:39:04.000Z</time>
      </trkpt>
      <trkpt lat="47.34377" lon="-1.35558">
        <ele>127</ele>
        <time>2020-09-26T11:39:06.000Z</time>
      </trkpt>
      <trkpt lat="47.34369" lon="-1.35543">
        <ele>127</ele>
        <time>2020-09-26T11:39:08.000Z</time>
      </trkpt>
      <trkpt lat="47.34361" lon="-1.35528">
        <ele>127</ele>
        <time>2020-09-26T11:39:10.000Z</time>
      </trkpt>
      <trkpt lat="47.34353" lon="-1.35513">
        <ele>127</ele>
        <time>2020-09-26T11:39:12.000Z</time>
      </trkpt>
      <trkpt lat="47.34344" lon="-1.35498">
        <ele>127</ele>
        <time>2020-09-26T11:39:14.000Z</time>
      </trkpt>
      <trkpt lat="47.34336" lon="-1.35483">
        <ele>127</ele>
        <time>2020-09-26T11:39:16.000Z</time>
      </trkpt>
      <trkpt lat="47.34327" lon="-1.35468">
        <ele>127</ele>
        <time>2020-09-26T11:39:18.000Z</time>
      </trkpt>
      <trkpt lat="47.34319" lon="-1.35453">
        <ele>127</ele>
        <time>2020-09-26T11:39:20.000Z</time>
      </trkpt>
      <trkpt lat="47.3431" lon="-1.35438">
        <ele>127</ele>
        <time>2020-09-26T11:39:22.000Z</time>
      </trkpt>
      <trkpt lat="47.34301" lon="-1.35424">
        <ele>127</ele>
        <time>2020-09-26T11:39:24.000Z</time>
      </trkpt>
      <trkpt lat="47.34293" lon="-1.3541">
        <ele>127</ele>
        <time>2020-09-26T11:39:26.000Z</time>
      </trkpt>
      <trkpt lat="47.34285" lon="-1.35396">
        <ele>127</ele>
        <time>2020-09-26T11:39:28.000Z</time>
      </trkpt>
      <trkpt lat="47.34277" lon="-1.35381">
        <ele>127</ele>
        <time>2020-09-26T11:39:30.000Z</time>
      </trkpt>
      <trkpt lat="47.34268" lon="-1.35367">
        <ele>126</ele>
        <time>2020-09-26T11:39:32.000Z</time>
      </trkpt>
      <trkpt lat="47.3426" lon="-1.35352">
        <ele>127</ele>
        <time>2020-09-26T11:39:34.000Z</time>
      </trkpt>
      <trkpt lat="47.34251" lon="-1.35338">
        <ele>127</ele>
        <time>2020-09-26T11:39:36.000Z</time>
      </trkpt>
      <trkpt lat="47.34242" lon="-1.35324">
        <ele>127</ele>
        <time>2020-09-26T11:39:38.000Z</time>
      </trkpt>
      <trkpt lat="47.34233" lon="-1.3531">
        <ele>127</ele>
        <time>2020-09-26T11:39:40.000Z</time>
      </trkpt>
      <trkpt lat="47.34225" lon="-1.35296">
        <ele>127</ele>
        <time>2020-09-26T11:39:42.000Z</time>
      </trkpt>
      <trkpt lat="47.34216" lon="-1.35282">
        <ele>127</ele>
        <time>2020-09-26T11:39:44.000Z</time>
      </trkpt>
      <trkpt lat="47.34208" lon="-1.35267">
        <ele>128</ele>
        <time>2020-09-26T11:39:46.000Z</time>
      </trkpt>
      <trkpt lat="47.34199" lon="-1.35253">
        <ele>128</ele>
        <time>2020-09-26T11:39:48.000Z</time>
      </trkpt>
      <trkpt lat="47.3419" lon="-1.35239">
        <ele>128</ele>
        <time>2020-09-26T11:39:50.000Z</time>
      </trkpt>
      <trkpt lat="47.34182" lon="-1.35225">
        <ele>128</ele>
        <time>2020-09-26T11:39:52.000Z</time>
      </trkpt>
      <trkpt lat="47.34173" lon="-1.35211">
        <ele>127</ele>
        <time>2020-09-26T11:39:54.000Z</time>
      </trkpt>
      <trkpt lat="47.34164" lon="-1.35197">
        <ele>127</ele>
        <time>2020-09-26T11:39:56.000Z</time>
      </trkpt>
      <trkpt lat="47.34156" lon="-1.35182">
        <ele>127</ele>
        <time>2020-09-26T11:39:58.000Z</time>
      </trkpt>
      <trkpt lat="47.34147" lon="-1.35167">
        <ele>126</ele>
        <time>2020-09-26T11:40:00.000Z</time>
      </trkpt>
      <trkpt lat="47.34138" lon="-1.35151">
        <ele>126</ele>
        <time>2020-09-26T11:40:02.000Z</time>
      </trkpt>
      <trkpt lat="47.34129" lon="-1.35136">
        <ele>126</ele>
        <time>2020-09-26T11:40:04.000Z</time>
      </trkpt>
      <trkpt lat="47.3412" lon="-1.3512">
        <ele>126</ele>
        <time>2020-09-26T11:40:06.000Z</time>
      </trkpt>
      <trkpt lat="47.34111" lon="-1.35105">
        <ele>125</ele>
        <time>2020-09-26T11:40:08.000Z</time>
      </trkpt>
      <trkpt lat="47.34102" lon="-1.3509">
        <ele>125</ele>
        <time>2020-09-26T11:40:10.000Z</time>
      </trkpt>
      <trkpt lat="47.34093" lon="-1.35075">
        <ele>125</ele>
        <time>2020-09-26T11:40:12.000Z</time>
      </trkpt>
      <trkpt lat="47.34084" lon="-1.3506">
        <ele>126</ele>
        <time>2020-09-26T11:40:14.000Z</time>
      </trkpt>
      <trkpt lat="47.34075" lon="-1.35045">
        <ele>126</ele>
        <time>2020-09-26T11:40:16.000Z</time>
      </trkpt>
      <trkpt lat="47.34066" lon="-1.3503">
        <ele>125</ele>
        <time>2020-09-26T11:40:18.000Z</time>
      </trkpt>
      <trkpt lat="47.34053" lon="-1.35008">
        <ele>125</ele>
        <time>2020-09-26T11:40:21.000Z</time>
      </trkpt>
      <trkpt lat="47.34044" lon="-1.34994">
        <ele>125</ele>
        <time>2020-09-26T11:40:23.000Z</time>
      </trkpt>
      <trkpt lat="47.34036" lon="-1.34981">
        <ele>125</ele>
        <time>2020-09-26T11:40:25.000Z</time>
      </trkpt>
      <trkpt lat="47.34027" lon="-1.34971">
        <ele>124</ele>
        <time>2020-09-26T11:40:27.000Z</time>
      </trkpt>
      <trkpt lat="47.34019" lon="-1.34964">
        <ele>124</ele>
        <time>2020-09-26T11:40:29.000Z</time>
      </trkpt>
      <trkpt lat="47.3401" lon="-1.34961">
        <ele>125</ele>
        <time>2020-09-26T11:40:37.000Z</time>
      </trkpt>
      <trkpt lat="47.33997" lon="-1.34955">
        <ele>126</ele>
        <time>2020-09-26T11:40:40.000Z</time>
      </trkpt>
      <trkpt lat="47.33989" lon="-1.34939">
        <ele>126</ele>
        <time>2020-09-26T11:40:42.000Z</time>
      </trkpt>
      <trkpt lat="47.33982" lon="-1.34921">
        <ele>125</ele>
        <time>2020-09-26T11:40:44.000Z</time>
      </trkpt>
      <trkpt lat="47.33971" lon="-1.34908">
        <ele>125</ele>
        <time>2020-09-26T11:40:46.000Z</time>
      </trkpt>
      <trkpt lat="47.33959" lon="-1.34896">
        <ele>125</ele>
        <time>2020-09-26T11:40:48.000Z</time>
      </trkpt>
      <trkpt lat="47.33947" lon="-1.34884">
        <ele>125</ele>
        <time>2020-09-26T11:40:50.000Z</time>
      </trkpt>
      <trkpt lat="47.33935" lon="-1.34873">
        <ele>124</ele>
        <time>2020-09-26T11:40:52.000Z</time>
      </trkpt>
      <trkpt lat="47.33923" lon="-1.34862">
        <ele>124</ele>
        <time>2020-09-26T11:40:54.000Z</time>
      </trkpt>
      <trkpt lat="47.33906" lon="-1.34844">
        <ele>125</ele>
        <time>2020-09-26T11:40:57.000Z</time>
      </trkpt>
      <trkpt lat="47.33894" lon="-1.3483">
        <ele>125</ele>
        <time>2020-09-26T11:40:59.000Z</time>
      </trkpt>
      <trkpt lat="47.33883" lon="-1.34816">
        <ele>125</ele>
        <time>2020-09-26T11:41:01.000Z</time>
      </trkpt>
      <trkpt lat="47.33873" lon="-1.34801">
        <ele>125</ele>
        <time>2020-09-26T11:41:03.000Z</time>
      </trkpt>
      <trkpt lat="47.33862" lon="-1.34786">
        <ele>125</ele>
        <time>2020-09-26T11:41:05.000Z</time>
      </trkpt>
      <trkpt lat="47.33851" lon="-1.34771">
        <ele>125</ele>
        <time>2020-09-26T11:41:07.000Z</time>
      </trkpt>
      <trkpt lat="47.3384" lon="-1.34756">
        <ele>125</ele>
        <time>2020-09-26T11:41:09.000Z</time>
      </trkpt>
      <trkpt lat="47.3383" lon="-1.34741">
        <ele>125</ele>
        <time>2020-09-26T11:41:11.000Z</time>
      </trkpt>
      <trkpt lat="47.33818" lon="-1.34727">
        <ele>125</ele>
        <time>2020-09-26T11:41:13.000Z</time>
      </trkpt>
      <trkpt lat="47.33808" lon="-1.34711">
        <ele>125</ele>
        <time>2020-09-26T11:41:15.000Z</time>
      </trkpt>
      <trkpt lat="47.33791" lon="-1.34689">
        <ele>125</ele>
        <time>2020-09-26T11:41:18.000Z</time>
      </trkpt>
      <trkpt lat="47.3378" lon="-1.34673">
        <ele>125</ele>
        <time>2020-09-26T11:41:20.000Z</time>
      </trkpt>
      <trkpt lat="47.33764" lon="-1.34652">
        <ele>125</ele>
        <time>2020-09-26T11:41:23.000Z</time>
      </trkpt>
      <trkpt lat="47.33753" lon="-1.34637">
        <ele>125</ele>
        <time>2020-09-26T11:41:25.000Z</time>
      </trkpt>
      <trkpt lat="47.33741" lon="-1.34622">
        <ele>125</ele>
        <time>2020-09-26T11:41:27.000Z</time>
      </trkpt>
      <trkpt lat="47.33725" lon="-1.346">
        <ele>125</ele>
        <time>2020-09-26T11:41:30.000Z</time>
      </trkpt>
      <trkpt lat="47.33709" lon="-1.34576">
        <ele>125</ele>
        <time>2020-09-26T11:41:33.000Z</time>
      </trkpt>
      <trkpt lat="47.33698" lon="-1.34562">
        <ele>125</ele>
        <time>2020-09-26T11:41:35.000Z</time>
      </trkpt>
      <trkpt lat="47.33688" lon="-1.34547">
        <ele>125</ele>
        <time>2020-09-26T11:41:37.000Z</time>
      </trkpt>
      <trkpt lat="47.33677" lon="-1.34532">
        <ele>125</ele>
        <time>2020-09-26T11:41:39.000Z</time>
      </trkpt>
      <trkpt lat="47.33666" lon="-1.34517">
        <ele>125</ele>
        <time>2020-09-26T11:41:41.000Z</time>
      </trkpt>
      <trkpt lat="47.33656" lon="-1.34502">
        <ele>125</ele>
        <time>2020-09-26T11:41:43.000Z</time>
      </trkpt>
      <trkpt lat="47.33645" lon="-1.34487">
        <ele>124</ele>
        <time>2020-09-26T11:41:45.000Z</time>
      </trkpt>
      <trkpt lat="47.33633" lon="-1.34475">
        <ele>124</ele>
        <time>2020-09-26T11:41:47.000Z</time>
      </trkpt>
      <trkpt lat="47.3362" lon="-1.34463">
        <ele>124</ele>
        <time>2020-09-26T11:41:49.000Z</time>
      </trkpt>
      <trkpt lat="47.33605" lon="-1.34456">
        <ele>124</ele>
        <time>2020-09-26T11:41:51.000Z</time>
      </trkpt>
      <trkpt lat="47.33583" lon="-1.34446">
        <ele>124</ele>
        <time>2020-09-26T11:41:54.000Z</time>
      </trkpt>
      <trkpt lat="47.33569" lon="-1.34439">
        <ele>124</ele>
        <time>2020-09-26T11:41:56.000Z</time>
      </trkpt>
      <trkpt lat="47.33547" lon="-1.34428">
        <ele>123</ele>
        <time>2020-09-26T11:41:59.000Z</time>
      </trkpt>
      <trkpt lat="47.33533" lon="-1.34421">
        <ele>123</ele>
        <time>2020-09-26T11:42:01.000Z</time>
      </trkpt>
      <trkpt lat="47.33519" lon="-1.34413">
        <ele>122</ele>
        <time>2020-09-26T11:42:03.000Z</time>
      </trkpt>
      <trkpt lat="47.33504" lon="-1.34407">
        <ele>122</ele>
        <time>2020-09-26T11:42:05.000Z</time>
      </trkpt>
      <trkpt lat="47.33489" lon="-1.344">
        <ele>123</ele>
        <time>2020-09-26T11:42:07.000Z</time>
      </trkpt>
      <trkpt lat="47.33474" lon="-1.34393">
        <ele>122</ele>
        <time>2020-09-26T11:42:09.000Z</time>
      </trkpt>
      <trkpt lat="47.33459" lon="-1.34386">
        <ele>122</ele>
        <time>2020-09-26T11:42:11.000Z</time>
      </trkpt>
      <trkpt lat="47.33444" lon="-1.34378">
        <ele>122</ele>
        <time>2020-09-26T11:42:13.000Z</time>
      </trkpt>
      <trkpt lat="47.33429" lon="-1.3437">
        <ele>122</ele>
        <time>2020-09-26T11:42:15.000Z</time>
      </trkpt>
      <trkpt lat="47.33414" lon="-1.34362">
        <ele>122</ele>
        <time>2020-09-26T11:42:17.000Z</time>
      </trkpt>
      <trkpt lat="47.33391" lon="-1.34351">
        <ele>122</ele>
        <time>2020-09-26T11:42:20.000Z</time>
      </trkpt>
      <trkpt lat="47.33376" lon="-1.34344">
        <ele>122</ele>
        <time>2020-09-26T11:42:22.000Z</time>
      </trkpt>
      <trkpt lat="47.3336" lon="-1.34337">
        <ele>122</ele>
        <time>2020-09-26T11:42:24.000Z</time>
      </trkpt>
      <trkpt lat="47.33345" lon="-1.3433">
        <ele>121</ele>
        <time>2020-09-26T11:42:26.000Z</time>
      </trkpt>
      <trkpt lat="47.3333" lon="-1.34323">
        <ele>121</ele>
        <time>2020-09-26T11:42:28.000Z</time>
      </trkpt>
      <trkpt lat="47.33315" lon="-1.34316">
        <ele>121</ele>
        <time>2020-09-26T11:42:30.000Z</time>
      </trkpt>
      <trkpt lat="47.333" lon="-1.34311">
        <ele>121</ele>
        <time>2020-09-26T11:42:32.000Z</time>
      </trkpt>
      <trkpt lat="47.33284" lon="-1.34308">
        <ele>121</ele>
        <time>2020-09-26T11:42:34.000Z</time>
      </trkpt>
      <trkpt lat="47.33268" lon="-1.34305">
        <ele>120</ele>
        <time>2020-09-26T11:42:36.000Z</time>
      </trkpt>
      <trkpt lat="47.33252" lon="-1.34303">
        <ele>121</ele>
        <time>2020-09-26T11:42:38.000Z</time>
      </trkpt>
      <trkpt lat="47.33237" lon="-1.34301">
        <ele>121</ele>
        <time>2020-09-26T11:42:40.000Z</time>
      </trkpt>
      <trkpt lat="47.33221" lon="-1.34299">
        <ele>121</ele>
        <time>2020-09-26T11:42:42.000Z</time>
      </trkpt>
      <trkpt lat="47.33207" lon="-1.34297">
        <ele>120</ele>
        <time>2020-09-26T11:42:44.000Z</time>
      </trkpt>
      <trkpt lat="47.33192" lon="-1.34294">
        <ele>120</ele>
        <time>2020-09-26T11:42:46.000Z</time>
      </trkpt>
      <trkpt lat="47.33177" lon="-1.34291">
        <ele>119</ele>
        <time>2020-09-26T11:42:48.000Z</time>
      </trkpt>
      <trkpt lat="47.33162" lon="-1.34286">
        <ele>118</ele>
        <time>2020-09-26T11:42:50.000Z</time>
      </trkpt>
      <trkpt lat="47.33146" lon="-1.3428">
        <ele>118</ele>
        <time>2020-09-26T11:42:52.000Z</time>
      </trkpt>
      <trkpt lat="47.33132" lon="-1.34272">
        <ele>117</ele>
        <time>2020-09-26T11:42:54.000Z</time>
      </trkpt>
      <trkpt lat="47.33118" lon="-1.34262">
        <ele>117</ele>
        <time>2020-09-26T11:42:56.000Z</time>
      </trkpt>
      <trkpt lat="47.33097" lon="-1.34247">
        <ele>116</ele>
        <time>2020-09-26T11:42:59.000Z</time>
      </trkpt>
      <trkpt lat="47.33082" lon="-1.34237">
        <ele>115</ele>
        <time>2020-09-26T11:43:01.000Z</time>
      </trkpt>
      <trkpt lat="47.33067" lon="-1.34227">
        <ele>115</ele>
        <time>2020-09-26T11:43:03.000Z</time>
      </trkpt>
      <trkpt lat="47.33052" lon="-1.34216">
        <ele>114</ele>
        <time>2020-09-26T11:43:05.000Z</time>
      </trkpt>
      <trkpt lat="47.33036" lon="-1.34206">
        <ele>113</ele>
        <time>2020-09-26T11:43:07.000Z</time>
      </trkpt>
      <trkpt lat="47.3302" lon="-1.34195">
        <ele>112</ele>
        <time>2020-09-26T11:43:09.000Z</time>
      </trkpt>
      <trkpt lat="47.33004" lon="-1.34185">
        <ele>111</ele>
        <time>2020-09-26T11:43:11.000Z</time>
      </trkpt>
      <trkpt lat="47.32995" lon="-1.34179">
        <ele>110</ele>
        <time>2020-09-26T11:43:12.000Z</time>
      </trkpt>
      <trkpt lat="47.32979" lon="-1.34167">
        <ele>109</ele>
        <time>2020-09-26T11:43:14.000Z</time>
      </trkpt>
      <trkpt lat="47.32972" lon="-1.34159">
        <ele>108</ele>
        <time>2020-09-26T11:43:15.000Z</time>
      </trkpt>
      <trkpt lat="47.32964" lon="-1.34149">
        <ele>109</ele>
        <time>2020-09-26T11:43:16.000Z</time>
      </trkpt>
      <trkpt lat="47.32958" lon="-1.34138">
        <ele>108</ele>
        <time>2020-09-26T11:43:17.000Z</time>
      </trkpt>
      <trkpt lat="47.32952" lon="-1.34127">
        <ele>108</ele>
        <time>2020-09-26T11:43:18.000Z</time>
      </trkpt>
      <trkpt lat="47.32947" lon="-1.34114">
        <ele>108</ele>
        <time>2020-09-26T11:43:19.000Z</time>
      </trkpt>
      <trkpt lat="47.32942" lon="-1.34102">
        <ele>108</ele>
        <time>2020-09-26T11:43:20.000Z</time>
      </trkpt>
      <trkpt lat="47.32938" lon="-1.34089">
        <ele>107</ele>
        <time>2020-09-26T11:43:21.000Z</time>
      </trkpt>
      <trkpt lat="47.32936" lon="-1.34075">
        <ele>107</ele>
        <time>2020-09-26T11:43:22.000Z</time>
      </trkpt>
      <trkpt lat="47.32936" lon="-1.34061">
        <ele>107</ele>
        <time>2020-09-26T11:43:23.000Z</time>
      </trkpt>
      <trkpt lat="47.32937" lon="-1.34047">
        <ele>107</ele>
        <time>2020-09-26T11:43:24.000Z</time>
      </trkpt>
      <trkpt lat="47.32939" lon="-1.34034">
        <ele>107</ele>
        <time>2020-09-26T11:43:25.000Z</time>
      </trkpt>
      <trkpt lat="47.32942" lon="-1.3402">
        <ele>106</ele>
        <time>2020-09-26T11:43:26.000Z</time>
      </trkpt>
      <trkpt lat="47.32945" lon="-1.34008">
        <ele>106</ele>
        <time>2020-09-26T11:43:27.000Z</time>
      </trkpt>
      <trkpt lat="47.32949" lon="-1.33996">
        <ele>105</ele>
        <time>2020-09-26T11:43:28.000Z</time>
      </trkpt>
      <trkpt lat="47.32954" lon="-1.33984">
        <ele>104</ele>
        <time>2020-09-26T11:43:29.000Z</time>
      </trkpt>
      <trkpt lat="47.32958" lon="-1.33971">
        <ele>104</ele>
        <time>2020-09-26T11:43:30.000Z</time>
      </trkpt>
      <trkpt lat="47.32962" lon="-1.33959">
        <ele>104</ele>
        <time>2020-09-26T11:43:31.000Z</time>
      </trkpt>
      <trkpt lat="47.32971" lon="-1.33936">
        <ele>103</ele>
        <time>2020-09-26T11:43:33.000Z</time>
      </trkpt>
      <trkpt lat="47.32975" lon="-1.33924">
        <ele>102</ele>
        <time>2020-09-26T11:43:34.000Z</time>
      </trkpt>
      <trkpt lat="47.32979" lon="-1.33912">
        <ele>102</ele>
        <time>2020-09-26T11:43:35.000Z</time>
      </trkpt>
      <trkpt lat="47.32984" lon="-1.339">
        <ele>101</ele>
        <time>2020-09-26T11:43:36.000Z</time>
      </trkpt>
      <trkpt lat="47.32988" lon="-1.33888">
        <ele>100</ele>
        <time>2020-09-26T11:43:37.000Z</time>
      </trkpt>
      <trkpt lat="47.32997" lon="-1.33864">
        <ele>99</ele>
        <time>2020-09-26T11:43:39.000Z</time>
      </trkpt>
      <trkpt lat="47.33002" lon="-1.33852">
        <ele>98</ele>
        <time>2020-09-26T11:43:40.000Z</time>
      </trkpt>
      <trkpt lat="47.33006" lon="-1.3384">
        <ele>97</ele>
        <time>2020-09-26T11:43:41.000Z</time>
      </trkpt>
      <trkpt lat="47.3301" lon="-1.33828">
        <ele>97</ele>
        <time>2020-09-26T11:43:42.000Z</time>
      </trkpt>
      <trkpt lat="47.33015" lon="-1.33816">
        <ele>96</ele>
        <time>2020-09-26T11:43:43.000Z</time>
      </trkpt>
      <trkpt lat="47.33024" lon="-1.33791">
        <ele>95</ele>
        <time>2020-09-26T11:43:45.000Z</time>
      </trkpt>
      <trkpt lat="47.33029" lon="-1.33779">
        <ele>94</ele>
        <time>2020-09-26T11:43:46.000Z</time>
      </trkpt>
      <trkpt lat="47.33035" lon="-1.33768">
        <ele>94</ele>
        <time>2020-09-26T11:43:47.000Z</time>
      </trkpt>
      <trkpt lat="47.33041" lon="-1.33756">
        <ele>93</ele>
        <time>2020-09-26T11:43:48.000Z</time>
      </trkpt>
      <trkpt lat="47.33047" lon="-1.33745">
        <ele>93</ele>
        <time>2020-09-26T11:43:49.000Z</time>
      </trkpt>
      <trkpt lat="47.33053" lon="-1.33733">
        <ele>92</ele>
        <time>2020-09-26T11:43:50.000Z</time>
      </trkpt>
      <trkpt lat="47.3306" lon="-1.33722">
        <ele>91</ele>
        <time>2020-09-26T11:43:51.000Z</time>
      </trkpt>
      <trkpt lat="47.33066" lon="-1.33711">
        <ele>91</ele>
        <time>2020-09-26T11:43:52.000Z</time>
      </trkpt>
      <trkpt lat="47.33071" lon="-1.33699">
        <ele>90</ele>
        <time>2020-09-26T11:43:53.000Z</time>
      </trkpt>
      <trkpt lat="47.33077" lon="-1.33687">
        <ele>89</ele>
        <time>2020-09-26T11:43:54.000Z</time>
      </trkpt>
      <trkpt lat="47.33082" lon="-1.33674">
        <ele>89</ele>
        <time>2020-09-26T11:43:55.000Z</time>
      </trkpt>
      <trkpt lat="47.33086" lon="-1.3366">
        <ele>88</ele>
        <time>2020-09-26T11:43:56.000Z</time>
      </trkpt>
      <trkpt lat="47.3309" lon="-1.33646">
        <ele>88</ele>
        <time>2020-09-26T11:43:57.000Z</time>
      </trkpt>
      <trkpt lat="47.33094" lon="-1.33633">
        <ele>87</ele>
        <time>2020-09-26T11:43:58.000Z</time>
      </trkpt>
      <trkpt lat="47.33098" lon="-1.33619">
        <ele>86</ele>
        <time>2020-09-26T11:43:59.000Z</time>
      </trkpt>
      <trkpt lat="47.33102" lon="-1.33606">
        <ele>85</ele>
        <time>2020-09-26T11:44:00.000Z</time>
      </trkpt>
      <trkpt lat="47.33106" lon="-1.33592">
        <ele>85</ele>
        <time>2020-09-26T11:44:01.000Z</time>
      </trkpt>
      <trkpt lat="47.3311" lon="-1.33578">
        <ele>84</ele>
        <time>2020-09-26T11:44:02.000Z</time>
      </trkpt>
      <trkpt lat="47.33114" lon="-1.33563">
        <ele>84</ele>
        <time>2020-09-26T11:44:03.000Z</time>
      </trkpt>
      <trkpt lat="47.33117" lon="-1.33549">
        <ele>84</ele>
        <time>2020-09-26T11:44:04.000Z</time>
      </trkpt>
      <trkpt lat="47.3312" lon="-1.33534">
        <ele>83</ele>
        <time>2020-09-26T11:44:05.000Z</time>
      </trkpt>
      <trkpt lat="47.3312" lon="-1.33518">
        <ele>83</ele>
        <time>2020-09-26T11:44:06.000Z</time>
      </trkpt>
      <trkpt lat="47.33118" lon="-1.33503">
        <ele>83</ele>
        <time>2020-09-26T11:44:07.000Z</time>
      </trkpt>
      <trkpt lat="47.33116" lon="-1.33489">
        <ele>83</ele>
        <time>2020-09-26T11:44:08.000Z</time>
      </trkpt>
      <trkpt lat="47.33111" lon="-1.33477">
        <ele>83</ele>
        <time>2020-09-26T11:44:09.000Z</time>
      </trkpt>
      <trkpt lat="47.33106" lon="-1.33466">
        <ele>83</ele>
        <time>2020-09-26T11:44:10.000Z</time>
      </trkpt>
      <trkpt lat="47.33098" lon="-1.33456">
        <ele>83</ele>
        <time>2020-09-26T11:44:11.000Z</time>
      </trkpt>
      <trkpt lat="47.33091" lon="-1.33446">
        <ele>82</ele>
        <time>2020-09-26T11:44:12.000Z</time>
      </trkpt>
      <trkpt lat="47.33082" lon="-1.33437">
        <ele>82</ele>
        <time>2020-09-26T11:44:13.000Z</time>
      </trkpt>
      <trkpt lat="47.33074" lon="-1.33429">
        <ele>82</ele>
        <time>2020-09-26T11:44:14.000Z</time>
      </trkpt>
      <trkpt lat="47.33066" lon="-1.3342">
        <ele>82</ele>
        <time>2020-09-26T11:44:15.000Z</time>
      </trkpt>
      <trkpt lat="47.33058" lon="-1.33412">
        <ele>83</ele>
        <time>2020-09-26T11:44:16.000Z</time>
      </trkpt>
      <trkpt lat="47.3305" lon="-1.33403">
        <ele>83</ele>
        <time>2020-09-26T11:44:17.000Z</time>
      </trkpt>
      <trkpt lat="47.33042" lon="-1.33394">
        <ele>82</ele>
        <time>2020-09-26T11:44:18.000Z</time>
      </trkpt>
      <trkpt lat="47.33034" lon="-1.33385">
        <ele>82</ele>
        <time>2020-09-26T11:44:19.000Z</time>
      </trkpt>
      <trkpt lat="47.33026" lon="-1.33376">
        <ele>82</ele>
        <time>2020-09-26T11:44:20.000Z</time>
      </trkpt>
      <trkpt lat="47.33018" lon="-1.33367">
        <ele>82</ele>
        <time>2020-09-26T11:44:21.000Z</time>
      </trkpt>
      <trkpt lat="47.3301" lon="-1.33358">
        <ele>82</ele>
        <time>2020-09-26T11:44:22.000Z</time>
      </trkpt>
      <trkpt lat="47.33001" lon="-1.33349">
        <ele>81</ele>
        <time>2020-09-26T11:44:23.000Z</time>
      </trkpt>
      <trkpt lat="47.32993" lon="-1.3334">
        <ele>80</ele>
        <time>2020-09-26T11:44:24.000Z</time>
      </trkpt>
      <trkpt lat="47.32985" lon="-1.33331">
        <ele>80</ele>
        <time>2020-09-26T11:44:25.000Z</time>
      </trkpt>
      <trkpt lat="47.32977" lon="-1.33321">
        <ele>80</ele>
        <time>2020-09-26T11:44:26.000Z</time>
      </trkpt>
      <trkpt lat="47.32969" lon="-1.33312">
        <ele>79</ele>
        <time>2020-09-26T11:44:27.000Z</time>
      </trkpt>
      <trkpt lat="47.3296" lon="-1.33303">
        <ele>78</ele>
        <time>2020-09-26T11:44:28.000Z</time>
      </trkpt>
      <trkpt lat="47.32952" lon="-1.33294">
        <ele>78</ele>
        <time>2020-09-26T11:44:29.000Z</time>
      </trkpt>
      <trkpt lat="47.32944" lon="-1.33284">
        <ele>78</ele>
        <time>2020-09-26T11:44:30.000Z</time>
      </trkpt>
      <trkpt lat="47.32936" lon="-1.33274">
        <ele>77</ele>
        <time>2020-09-26T11:44:31.000Z</time>
      </trkpt>
      <trkpt lat="47.32927" lon="-1.33263">
        <ele>77</ele>
        <time>2020-09-26T11:44:32.000Z</time>
      </trkpt>
      <trkpt lat="47.32917" lon="-1.33252">
        <ele>76</ele>
        <time>2020-09-26T11:44:33.000Z</time>
      </trkpt>
      <trkpt lat="47.32907" lon="-1.33242">
        <ele>74</ele>
        <time>2020-09-26T11:44:34.000Z</time>
      </trkpt>
      <trkpt lat="47.32897" lon="-1.33232">
        <ele>73</ele>
        <time>2020-09-26T11:44:35.000Z</time>
      </trkpt>
      <trkpt lat="47.32879" lon="-1.33213">
        <ele>71</ele>
        <time>2020-09-26T11:44:37.000Z</time>
      </trkpt>
      <trkpt lat="47.32869" lon="-1.33204">
        <ele>70</ele>
        <time>2020-09-26T11:44:38.000Z</time>
      </trkpt>
      <trkpt lat="47.32859" lon="-1.33197">
        <ele>69</ele>
        <time>2020-09-26T11:44:39.000Z</time>
      </trkpt>
      <trkpt lat="47.32849" lon="-1.33189">
        <ele>67</ele>
        <time>2020-09-26T11:44:40.000Z</time>
      </trkpt>
      <trkpt lat="47.32839" lon="-1.3318">
        <ele>66</ele>
        <time>2020-09-26T11:44:41.000Z</time>
      </trkpt>
      <trkpt lat="47.3283" lon="-1.33172">
        <ele>66</ele>
        <time>2020-09-26T11:44:42.000Z</time>
      </trkpt>
      <trkpt lat="47.3282" lon="-1.33163">
        <ele>65</ele>
        <time>2020-09-26T11:44:43.000Z</time>
      </trkpt>
      <trkpt lat="47.32811" lon="-1.33155">
        <ele>64</ele>
        <time>2020-09-26T11:44:44.000Z</time>
      </trkpt>
      <trkpt lat="47.32801" lon="-1.33147">
        <ele>64</ele>
        <time>2020-09-26T11:44:45.000Z</time>
      </trkpt>
      <trkpt lat="47.32791" lon="-1.33139">
        <ele>63</ele>
        <time>2020-09-26T11:44:46.000Z</time>
      </trkpt>
      <trkpt lat="47.32781" lon="-1.33131">
        <ele>63</ele>
        <time>2020-09-26T11:44:47.000Z</time>
      </trkpt>
      <trkpt lat="47.32772" lon="-1.33123">
        <ele>63</ele>
        <time>2020-09-26T11:44:48.000Z</time>
      </trkpt>
      <trkpt lat="47.32762" lon="-1.33114">
        <ele>63</ele>
        <time>2020-09-26T11:44:49.000Z</time>
      </trkpt>
      <trkpt lat="47.32754" lon="-1.33105">
        <ele>62</ele>
        <time>2020-09-26T11:44:50.000Z</time>
      </trkpt>
      <trkpt lat="47.32745" lon="-1.33096">
        <ele>61</ele>
        <time>2020-09-26T11:44:51.000Z</time>
      </trkpt>
      <trkpt lat="47.32736" lon="-1.33086">
        <ele>60</ele>
        <time>2020-09-26T11:44:52.000Z</time>
      </trkpt>
      <trkpt lat="47.32727" lon="-1.33076">
        <ele>59</ele>
        <time>2020-09-26T11:44:53.000Z</time>
      </trkpt>
      <trkpt lat="47.32719" lon="-1.33067">
        <ele>59</ele>
        <time>2020-09-26T11:44:54.000Z</time>
      </trkpt>
      <trkpt lat="47.3271" lon="-1.33058">
        <ele>58</ele>
        <time>2020-09-26T11:44:55.000Z</time>
      </trkpt>
      <trkpt lat="47.327" lon="-1.33049">
        <ele>57</ele>
        <time>2020-09-26T11:44:56.000Z</time>
      </trkpt>
      <trkpt lat="47.3269" lon="-1.3304">
        <ele>57</ele>
        <time>2020-09-26T11:44:57.000Z</time>
      </trkpt>
      <trkpt lat="47.3268" lon="-1.33033">
        <ele>57</ele>
        <time>2020-09-26T11:44:58.000Z</time>
      </trkpt>
      <trkpt lat="47.32671" lon="-1.33024">
        <ele>56</ele>
        <time>2020-09-26T11:44:59.000Z</time>
      </trkpt>
      <trkpt lat="47.32662" lon="-1.33016">
        <ele>55</ele>
        <time>2020-09-26T11:45:00.000Z</time>
      </trkpt>
      <trkpt lat="47.32653" lon="-1.33007">
        <ele>55</ele>
        <time>2020-09-26T11:45:01.000Z</time>
      </trkpt>
      <trkpt lat="47.32646" lon="-1.32998">
        <ele>54</ele>
        <time>2020-09-26T11:45:02.000Z</time>
      </trkpt>
      <trkpt lat="47.32639" lon="-1.32988">
        <ele>53</ele>
        <time>2020-09-26T11:45:03.000Z</time>
      </trkpt>
      <trkpt lat="47.32628" lon="-1.32971">
        <ele>53</ele>
        <time>2020-09-26T11:45:05.000Z</time>
      </trkpt>
      <trkpt lat="47.32621" lon="-1.32958">
        <ele>52</ele>
        <time>2020-09-26T11:45:07.000Z</time>
      </trkpt>
      <trkpt lat="47.32609" lon="-1.32956">
        <ele>52</ele>
        <time>2020-09-26T11:45:10.000Z</time>
      </trkpt>
      <trkpt lat="47.32602" lon="-1.32966">
        <ele>53</ele>
        <time>2020-09-26T11:45:12.000Z</time>
      </trkpt>
      <trkpt lat="47.32594" lon="-1.32978">
        <ele>54</ele>
        <time>2020-09-26T11:45:14.000Z</time>
      </trkpt>
      <trkpt lat="47.32586" lon="-1.32989">
        <ele>55</ele>
        <time>2020-09-26T11:45:16.000Z</time>
      </trkpt>
      <trkpt lat="47.32578" lon="-1.32998">
        <ele>56</ele>
        <time>2020-09-26T11:45:18.000Z</time>
      </trkpt>
      <trkpt lat="47.3257" lon="-1.33007">
        <ele>56</ele>
        <time>2020-09-26T11:45:20.000Z</time>
      </trkpt>
      <trkpt lat="47.32561" lon="-1.33016">
        <ele>55</ele>
        <time>2020-09-26T11:45:22.000Z</time>
      </trkpt>
      <trkpt lat="47.32552" lon="-1.33026">
        <ele>56</ele>
        <time>2020-09-26T11:45:24.000Z</time>
      </trkpt>
      <trkpt lat="47.32542" lon="-1.33035">
        <ele>55</ele>
        <time>2020-09-26T11:45:26.000Z</time>
      </trkpt>
      <trkpt lat="47.3253" lon="-1.33045">
        <ele>54</ele>
        <time>2020-09-26T11:45:28.000Z</time>
      </trkpt>
      <trkpt lat="47.32519" lon="-1.33057">
        <ele>54</ele>
        <time>2020-09-26T11:45:30.000Z</time>
      </trkpt>
      <trkpt lat="47.32507" lon="-1.33068">
        <ele>53</ele>
        <time>2020-09-26T11:45:32.000Z</time>
      </trkpt>
      <trkpt lat="47.32496" lon="-1.3308">
        <ele>53</ele>
        <time>2020-09-26T11:45:34.000Z</time>
      </trkpt>
      <trkpt lat="47.32485" lon="-1.33091">
        <ele>52</ele>
        <time>2020-09-26T11:45:36.000Z</time>
      </trkpt>
      <trkpt lat="47.32473" lon="-1.33104">
        <ele>53</ele>
        <time>2020-09-26T11:45:38.000Z</time>
      </trkpt>
      <trkpt lat="47.32463" lon="-1.33116">
        <ele>52</ele>
        <time>2020-09-26T11:45:40.000Z</time>
      </trkpt>
      <trkpt lat="47.32454" lon="-1.33129">
        <ele>52</ele>
        <time>2020-09-26T11:45:42.000Z</time>
      </trkpt>
      <trkpt lat="47.32445" lon="-1.3314">
        <ele>53</ele>
        <time>2020-09-26T11:45:44.000Z</time>
      </trkpt>
      <trkpt lat="47.32436" lon="-1.33144">
        <ele>53</ele>
        <time>2020-09-26T11:45:46.000Z</time>
      </trkpt>
      <trkpt lat="47.32427" lon="-1.33145">
        <ele>53</ele>
        <time>2020-09-26T11:45:48.000Z</time>
      </trkpt>
      <trkpt lat="47.32418" lon="-1.33149">
        <ele>52</ele>
        <time>2020-09-26T11:45:50.000Z</time>
      </trkpt>
      <trkpt lat="47.32408" lon="-1.33157">
        <ele>52</ele>
        <time>2020-09-26T11:45:52.000Z</time>
      </trkpt>
      <trkpt lat="47.32397" lon="-1.33169">
        <ele>52</ele>
        <time>2020-09-26T11:45:54.000Z</time>
      </trkpt>
      <trkpt lat="47.32388" lon="-1.33183">
        <ele>51</ele>
        <time>2020-09-26T11:45:56.000Z</time>
      </trkpt>
      <trkpt lat="47.3238" lon="-1.33198">
        <ele>51</ele>
        <time>2020-09-26T11:45:58.000Z</time>
      </trkpt>
      <trkpt lat="47.32372" lon="-1.33213">
        <ele>51</ele>
        <time>2020-09-26T11:46:00.000Z</time>
      </trkpt>
      <trkpt lat="47.32365" lon="-1.33229">
        <ele>50</ele>
        <time>2020-09-26T11:46:02.000Z</time>
      </trkpt>
      <trkpt lat="47.32357" lon="-1.33244">
        <ele>50</ele>
        <time>2020-09-26T11:46:04.000Z</time>
      </trkpt>
      <trkpt lat="47.3235" lon="-1.33261">
        <ele>51</ele>
        <time>2020-09-26T11:46:06.000Z</time>
      </trkpt>
      <trkpt lat="47.32342" lon="-1.33277">
        <ele>51</ele>
        <time>2020-09-26T11:46:08.000Z</time>
      </trkpt>
      <trkpt lat="47.32334" lon="-1.33294">
        <ele>51</ele>
        <time>2020-09-26T11:46:10.000Z</time>
      </trkpt>
      <trkpt lat="47.32327" lon="-1.3331">
        <ele>51</ele>
        <time>2020-09-26T11:46:12.000Z</time>
      </trkpt>
      <trkpt lat="47.3232" lon="-1.33328">
        <ele>51</ele>
        <time>2020-09-26T11:46:14.000Z</time>
      </trkpt>
      <trkpt lat="47.32312" lon="-1.33344">
        <ele>51</ele>
        <time>2020-09-26T11:46:16.000Z</time>
      </trkpt>
      <trkpt lat="47.32305" lon="-1.3336">
        <ele>52</ele>
        <time>2020-09-26T11:46:18.000Z</time>
      </trkpt>
      <trkpt lat="47.32297" lon="-1.33376">
        <ele>52</ele>
        <time>2020-09-26T11:46:20.000Z</time>
      </trkpt>
      <trkpt lat="47.3229" lon="-1.33392">
        <ele>52</ele>
        <time>2020-09-26T11:46:22.000Z</time>
      </trkpt>
      <trkpt lat="47.32283" lon="-1.33409">
        <ele>52</ele>
        <time>2020-09-26T11:46:24.000Z</time>
      </trkpt>
      <trkpt lat="47.32275" lon="-1.33424">
        <ele>52</ele>
        <time>2020-09-26T11:46:26.000Z</time>
      </trkpt>
      <trkpt lat="47.32268" lon="-1.33441">
        <ele>52</ele>
        <time>2020-09-26T11:46:28.000Z</time>
      </trkpt>
      <trkpt lat="47.32262" lon="-1.33456">
        <ele>52</ele>
        <time>2020-09-26T11:46:30.000Z</time>
      </trkpt>
      <trkpt lat="47.32254" lon="-1.33472">
        <ele>52</ele>
        <time>2020-09-26T11:46:32.000Z</time>
      </trkpt>
      <trkpt lat="47.32247" lon="-1.33488">
        <ele>52</ele>
        <time>2020-09-26T11:46:34.000Z</time>
      </trkpt>
      <trkpt lat="47.32239" lon="-1.33503">
        <ele>53</ele>
        <time>2020-09-26T11:46:36.000Z</time>
      </trkpt>
      <trkpt lat="47.32232" lon="-1.33518">
        <ele>52</ele>
        <time>2020-09-26T11:46:38.000Z</time>
      </trkpt>
      <trkpt lat="47.32224" lon="-1.33533">
        <ele>52</ele>
        <time>2020-09-26T11:46:40.000Z</time>
      </trkpt>
      <trkpt lat="47.32217" lon="-1.33548">
        <ele>52</ele>
        <time>2020-09-26T11:46:42.000Z</time>
      </trkpt>
      <trkpt lat="47.32212" lon="-1.33565">
        <ele>52</ele>
        <time>2020-09-26T11:46:44.000Z</time>
      </trkpt>
      <trkpt lat="47.32205" lon="-1.33579">
        <ele>52</ele>
        <time>2020-09-26T11:46:46.000Z</time>
      </trkpt>
      <trkpt lat="47.32198" lon="-1.33595">
        <ele>51</ele>
        <time>2020-09-26T11:46:48.000Z</time>
      </trkpt>
      <trkpt lat="47.32192" lon="-1.3361">
        <ele>51</ele>
        <time>2020-09-26T11:46:50.000Z</time>
      </trkpt>
      <trkpt lat="47.32187" lon="-1.33624">
        <ele>51</ele>
        <time>2020-09-26T11:46:52.000Z</time>
      </trkpt>
      <trkpt lat="47.32182" lon="-1.33636">
        <ele>52</ele>
        <time>2020-09-26T11:46:54.000Z</time>
      </trkpt>
      <trkpt lat="47.32177" lon="-1.33651">
        <ele>52</ele>
        <time>2020-09-26T11:46:58.000Z</time>
      </trkpt>
      <trkpt lat="47.32169" lon="-1.33669">
        <ele>51</ele>
        <time>2020-09-26T11:47:01.000Z</time>
      </trkpt>
      <trkpt lat="47.32162" lon="-1.33683">
        <ele>50</ele>
        <time>2020-09-26T11:47:03.000Z</time>
      </trkpt>
      <trkpt lat="47.32157" lon="-1.33698">
        <ele>50</ele>
        <time>2020-09-26T11:47:05.000Z</time>
      </trkpt>
      <trkpt lat="47.32151" lon="-1.33712">
        <ele>49</ele>
        <time>2020-09-26T11:47:07.000Z</time>
      </trkpt>
      <trkpt lat="47.32145" lon="-1.33728">
        <ele>49</ele>
        <time>2020-09-26T11:47:09.000Z</time>
      </trkpt>
      <trkpt lat="47.32138" lon="-1.33743">
        <ele>49</ele>
        <time>2020-09-26T11:47:11.000Z</time>
      </trkpt>
      <trkpt lat="47.32132" lon="-1.33758">
        <ele>50</ele>
        <time>2020-09-26T11:47:13.000Z</time>
      </trkpt>
      <trkpt lat="47.32126" lon="-1.33772">
        <ele>50</ele>
        <time>2020-09-26T11:47:15.000Z</time>
      </trkpt>
      <trkpt lat="47.3212" lon="-1.33787">
        <ele>50</ele>
        <time>2020-09-26T11:47:17.000Z</time>
      </trkpt>
      <trkpt lat="47.32114" lon="-1.33803">
        <ele>51</ele>
        <time>2020-09-26T11:47:19.000Z</time>
      </trkpt>
      <trkpt lat="47.32107" lon="-1.33818">
        <ele>52</ele>
        <time>2020-09-26T11:47:21.000Z</time>
      </trkpt>
      <trkpt lat="47.321" lon="-1.33832">
        <ele>52</ele>
        <time>2020-09-26T11:47:23.000Z</time>
      </trkpt>
      <trkpt lat="47.32093" lon="-1.33847">
        <ele>52</ele>
        <time>2020-09-26T11:47:25.000Z</time>
      </trkpt>
      <trkpt lat="47.32087" lon="-1.3386">
        <ele>51</ele>
        <time>2020-09-26T11:47:27.000Z</time>
      </trkpt>
      <trkpt lat="47.32079" lon="-1.33875">
        <ele>52</ele>
        <time>2020-09-26T11:47:29.000Z</time>
      </trkpt>
      <trkpt lat="47.32072" lon="-1.33889">
        <ele>52</ele>
        <time>2020-09-26T11:47:31.000Z</time>
      </trkpt>
      <trkpt lat="47.32064" lon="-1.33903">
        <ele>52</ele>
        <time>2020-09-26T11:47:33.000Z</time>
      </trkpt>
      <trkpt lat="47.32056" lon="-1.33916">
        <ele>52</ele>
        <time>2020-09-26T11:47:35.000Z</time>
      </trkpt>
      <trkpt lat="47.32048" lon="-1.33929">
        <ele>52</ele>
        <time>2020-09-26T11:47:37.000Z</time>
      </trkpt>
      <trkpt lat="47.3204" lon="-1.33943">
        <ele>53</ele>
        <time>2020-09-26T11:47:39.000Z</time>
      </trkpt>
      <trkpt lat="47.32034" lon="-1.33956">
        <ele>54</ele>
        <time>2020-09-26T11:47:41.000Z</time>
      </trkpt>
      <trkpt lat="47.32028" lon="-1.33966">
        <ele>55</ele>
        <time>2020-09-26T11:47:43.000Z</time>
      </trkpt>
      <trkpt lat="47.32022" lon="-1.33977">
        <ele>56</ele>
        <time>2020-09-26T11:47:45.000Z</time>
      </trkpt>
      <trkpt lat="47.32014" lon="-1.33989">
        <ele>56</ele>
        <time>2020-09-26T11:47:47.000Z</time>
      </trkpt>
      <trkpt lat="47.32006" lon="-1.34001">
        <ele>56</ele>
        <time>2020-09-26T11:47:49.000Z</time>
      </trkpt>
      <trkpt lat="47.31998" lon="-1.34014">
        <ele>56</ele>
        <time>2020-09-26T11:47:51.000Z</time>
      </trkpt>
      <trkpt lat="47.3199" lon="-1.34027">
        <ele>56</ele>
        <time>2020-09-26T11:47:53.000Z</time>
      </trkpt>
      <trkpt lat="47.31982" lon="-1.3404">
        <ele>55</ele>
        <time>2020-09-26T11:47:55.000Z</time>
      </trkpt>
      <trkpt lat="47.31974" lon="-1.34053">
        <ele>55</ele>
        <time>2020-09-26T11:47:57.000Z</time>
      </trkpt>
      <trkpt lat="47.31966" lon="-1.34065">
        <ele>55</ele>
        <time>2020-09-26T11:47:59.000Z</time>
      </trkpt>
      <trkpt lat="47.31959" lon="-1.34077">
        <ele>55</ele>
        <time>2020-09-26T11:48:01.000Z</time>
      </trkpt>
      <trkpt lat="47.31951" lon="-1.34089">
        <ele>55</ele>
        <time>2020-09-26T11:48:03.000Z</time>
      </trkpt>
      <trkpt lat="47.31944" lon="-1.34101">
        <ele>55</ele>
        <time>2020-09-26T11:48:05.000Z</time>
      </trkpt>
      <trkpt lat="47.31937" lon="-1.34114">
        <ele>55</ele>
        <time>2020-09-26T11:48:07.000Z</time>
      </trkpt>
      <trkpt lat="47.31929" lon="-1.34125">
        <ele>55</ele>
        <time>2020-09-26T11:48:09.000Z</time>
      </trkpt>
      <trkpt lat="47.31921" lon="-1.34136">
        <ele>55</ele>
        <time>2020-09-26T11:48:11.000Z</time>
      </trkpt>
      <trkpt lat="47.31913" lon="-1.34148">
        <ele>55</ele>
        <time>2020-09-26T11:48:13.000Z</time>
      </trkpt>
      <trkpt lat="47.31906" lon="-1.3416">
        <ele>54</ele>
        <time>2020-09-26T11:48:15.000Z</time>
      </trkpt>
      <trkpt lat="47.31897" lon="-1.34172">
        <ele>53</ele>
        <time>2020-09-26T11:48:17.000Z</time>
      </trkpt>
      <trkpt lat="47.31888" lon="-1.34186">
        <ele>52</ele>
        <time>2020-09-26T11:48:19.000Z</time>
      </trkpt>
      <trkpt lat="47.31878" lon="-1.34199">
        <ele>52</ele>
        <time>2020-09-26T11:48:21.000Z</time>
      </trkpt>
      <trkpt lat="47.31869" lon="-1.34212">
        <ele>52</ele>
        <time>2020-09-26T11:48:23.000Z</time>
      </trkpt>
      <trkpt lat="47.3186" lon="-1.34226">
        <ele>52</ele>
        <time>2020-09-26T11:48:25.000Z</time>
      </trkpt>
      <trkpt lat="47.3185" lon="-1.3424">
        <ele>51</ele>
        <time>2020-09-26T11:48:27.000Z</time>
      </trkpt>
      <trkpt lat="47.31841" lon="-1.34254">
        <ele>51</ele>
        <time>2020-09-26T11:48:29.000Z</time>
      </trkpt>
      <trkpt lat="47.31832" lon="-1.34268">
        <ele>51</ele>
        <time>2020-09-26T11:48:31.000Z</time>
      </trkpt>
      <trkpt lat="47.31822" lon="-1.34283">
        <ele>52</ele>
        <time>2020-09-26T11:48:33.000Z</time>
      </trkpt>
      <trkpt lat="47.31813" lon="-1.34298">
        <ele>51</ele>
        <time>2020-09-26T11:48:35.000Z</time>
      </trkpt>
      <trkpt lat="47.31805" lon="-1.34311">
        <ele>51</ele>
        <time>2020-09-26T11:48:37.000Z</time>
      </trkpt>
      <trkpt lat="47.31796" lon="-1.34325">
        <ele>51</ele>
        <time>2020-09-26T11:48:39.000Z</time>
      </trkpt>
      <trkpt lat="47.31787" lon="-1.34338">
        <ele>51</ele>
        <time>2020-09-26T11:48:41.000Z</time>
      </trkpt>
      <trkpt lat="47.31779" lon="-1.34352">
        <ele>50</ele>
        <time>2020-09-26T11:48:43.000Z</time>
      </trkpt>
      <trkpt lat="47.3177" lon="-1.34365">
        <ele>51</ele>
        <time>2020-09-26T11:48:45.000Z</time>
      </trkpt>
      <trkpt lat="47.31762" lon="-1.34377">
        <ele>51</ele>
        <time>2020-09-26T11:48:47.000Z</time>
      </trkpt>
      <trkpt lat="47.31754" lon="-1.34391">
        <ele>50</ele>
        <time>2020-09-26T11:48:49.000Z</time>
      </trkpt>
      <trkpt lat="47.31747" lon="-1.34404">
        <ele>50</ele>
        <time>2020-09-26T11:48:51.000Z</time>
      </trkpt>
      <trkpt lat="47.31739" lon="-1.34417">
        <ele>50</ele>
        <time>2020-09-26T11:48:53.000Z</time>
      </trkpt>
      <trkpt lat="47.3173" lon="-1.34431">
        <ele>50</ele>
        <time>2020-09-26T11:48:55.000Z</time>
      </trkpt>
      <trkpt lat="47.31722" lon="-1.34444">
        <ele>50</ele>
        <time>2020-09-26T11:48:57.000Z</time>
      </trkpt>
      <trkpt lat="47.31713" lon="-1.34457">
        <ele>51</ele>
        <time>2020-09-26T11:48:59.000Z</time>
      </trkpt>
      <trkpt lat="47.31705" lon="-1.3447">
        <ele>51</ele>
        <time>2020-09-26T11:49:01.000Z</time>
      </trkpt>
      <trkpt lat="47.31697" lon="-1.34482">
        <ele>51</ele>
        <time>2020-09-26T11:49:03.000Z</time>
      </trkpt>
      <trkpt lat="47.31688" lon="-1.34496">
        <ele>51</ele>
        <time>2020-09-26T11:49:05.000Z</time>
      </trkpt>
      <trkpt lat="47.3168" lon="-1.34509">
        <ele>51</ele>
        <time>2020-09-26T11:49:07.000Z</time>
      </trkpt>
      <trkpt lat="47.31672" lon="-1.34522">
        <ele>50</ele>
        <time>2020-09-26T11:49:09.000Z</time>
      </trkpt>
      <trkpt lat="47.31664" lon="-1.34535">
        <ele>50</ele>
        <time>2020-09-26T11:49:11.000Z</time>
      </trkpt>
      <trkpt lat="47.31655" lon="-1.34547">
        <ele>50</ele>
        <time>2020-09-26T11:49:13.000Z</time>
      </trkpt>
      <trkpt lat="47.31648" lon="-1.34561">
        <ele>50</ele>
        <time>2020-09-26T11:49:15.000Z</time>
      </trkpt>
      <trkpt lat="47.31641" lon="-1.34573">
        <ele>51</ele>
        <time>2020-09-26T11:49:17.000Z</time>
      </trkpt>
      <trkpt lat="47.31634" lon="-1.34585">
        <ele>51</ele>
        <time>2020-09-26T11:49:19.000Z</time>
      </trkpt>
      <trkpt lat="47.31626" lon="-1.34598">
        <ele>51</ele>
        <time>2020-09-26T11:49:21.000Z</time>
      </trkpt>
      <trkpt lat="47.31618" lon="-1.34611">
        <ele>51</ele>
        <time>2020-09-26T11:49:23.000Z</time>
      </trkpt>
      <trkpt lat="47.31609" lon="-1.34624">
        <ele>51</ele>
        <time>2020-09-26T11:49:25.000Z</time>
      </trkpt>
      <trkpt lat="47.31601" lon="-1.34637">
        <ele>51</ele>
        <time>2020-09-26T11:49:27.000Z</time>
      </trkpt>
      <trkpt lat="47.31593" lon="-1.3465">
        <ele>51</ele>
        <time>2020-09-26T11:49:29.000Z</time>
      </trkpt>
      <trkpt lat="47.31585" lon="-1.34663">
        <ele>51</ele>
        <time>2020-09-26T11:49:31.000Z</time>
      </trkpt>
      <trkpt lat="47.31577" lon="-1.34676">
        <ele>51</ele>
        <time>2020-09-26T11:49:33.000Z</time>
      </trkpt>
      <trkpt lat="47.31569" lon="-1.3469">
        <ele>51</ele>
        <time>2020-09-26T11:49:35.000Z</time>
      </trkpt>
      <trkpt lat="47.31562" lon="-1.34703">
        <ele>52</ele>
        <time>2020-09-26T11:49:37.000Z</time>
      </trkpt>
      <trkpt lat="47.31553" lon="-1.34716">
        <ele>52</ele>
        <time>2020-09-26T11:49:39.000Z</time>
      </trkpt>
      <trkpt lat="47.31546" lon="-1.34729">
        <ele>52</ele>
        <time>2020-09-26T11:49:41.000Z</time>
      </trkpt>
      <trkpt lat="47.31537" lon="-1.34741">
        <ele>52</ele>
        <time>2020-09-26T11:49:43.000Z</time>
      </trkpt>
      <trkpt lat="47.31529" lon="-1.34753">
        <ele>51</ele>
        <time>2020-09-26T11:49:45.000Z</time>
      </trkpt>
      <trkpt lat="47.31521" lon="-1.34766">
        <ele>51</ele>
        <time>2020-09-26T11:49:47.000Z</time>
      </trkpt>
      <trkpt lat="47.31513" lon="-1.34778">
        <ele>51</ele>
        <time>2020-09-26T11:49:49.000Z</time>
      </trkpt>
      <trkpt lat="47.31505" lon="-1.34791">
        <ele>51</ele>
        <time>2020-09-26T11:49:51.000Z</time>
      </trkpt>
      <trkpt lat="47.31496" lon="-1.34803">
        <ele>51</ele>
        <time>2020-09-26T11:49:53.000Z</time>
      </trkpt>
      <trkpt lat="47.31488" lon="-1.34816">
        <ele>51</ele>
        <time>2020-09-26T11:49:55.000Z</time>
      </trkpt>
      <trkpt lat="47.3148" lon="-1.34829">
        <ele>51</ele>
        <time>2020-09-26T11:49:57.000Z</time>
      </trkpt>
      <trkpt lat="47.31472" lon="-1.34843">
        <ele>52</ele>
        <time>2020-09-26T11:49:59.000Z</time>
      </trkpt>
      <trkpt lat="47.31463" lon="-1.34856">
        <ele>52</ele>
        <time>2020-09-26T11:50:01.000Z</time>
      </trkpt>
      <trkpt lat="47.31455" lon="-1.34869">
        <ele>52</ele>
        <time>2020-09-26T11:50:03.000Z</time>
      </trkpt>
      <trkpt lat="47.31447" lon="-1.34882">
        <ele>52</ele>
        <time>2020-09-26T11:50:05.000Z</time>
      </trkpt>
      <trkpt lat="47.31439" lon="-1.34896">
        <ele>53</ele>
        <time>2020-09-26T11:50:07.000Z</time>
      </trkpt>
      <trkpt lat="47.3143" lon="-1.34909">
        <ele>53</ele>
        <time>2020-09-26T11:50:09.000Z</time>
      </trkpt>
      <trkpt lat="47.31422" lon="-1.34922">
        <ele>53</ele>
        <time>2020-09-26T11:50:11.000Z</time>
      </trkpt>
      <trkpt lat="47.31414" lon="-1.34935">
        <ele>53</ele>
        <time>2020-09-26T11:50:13.000Z</time>
      </trkpt>
      <trkpt lat="47.31405" lon="-1.34948">
        <ele>52</ele>
        <time>2020-09-26T11:50:15.000Z</time>
      </trkpt>
      <trkpt lat="47.31397" lon="-1.3496">
        <ele>53</ele>
        <time>2020-09-26T11:50:17.000Z</time>
      </trkpt>
      <trkpt lat="47.3139" lon="-1.34974">
        <ele>53</ele>
        <time>2020-09-26T11:50:19.000Z</time>
      </trkpt>
      <trkpt lat="47.31382" lon="-1.34987">
        <ele>53</ele>
        <time>2020-09-26T11:50:21.000Z</time>
      </trkpt>
      <trkpt lat="47.31374" lon="-1.35">
        <ele>53</ele>
        <time>2020-09-26T11:50:23.000Z</time>
      </trkpt>
      <trkpt lat="47.31366" lon="-1.35013">
        <ele>53</ele>
        <time>2020-09-26T11:50:25.000Z</time>
      </trkpt>
      <trkpt lat="47.31358" lon="-1.35026">
        <ele>53</ele>
        <time>2020-09-26T11:50:27.000Z</time>
      </trkpt>
      <trkpt lat="47.3135" lon="-1.35038">
        <ele>53</ele>
        <time>2020-09-26T11:50:29.000Z</time>
      </trkpt>
      <trkpt lat="47.31343" lon="-1.3505">
        <ele>53</ele>
        <time>2020-09-26T11:50:31.000Z</time>
      </trkpt>
      <trkpt lat="47.31336" lon="-1.35062">
        <ele>52</ele>
        <time>2020-09-26T11:50:33.000Z</time>
      </trkpt>
      <trkpt lat="47.31328" lon="-1.35074">
        <ele>52</ele>
        <time>2020-09-26T11:50:35.000Z</time>
      </trkpt>
      <trkpt lat="47.31321" lon="-1.35082">
        <ele>53</ele>
        <time>2020-09-26T11:50:37.000Z</time>
      </trkpt>
      <trkpt lat="47.3131" lon="-1.35085">
        <ele>52</ele>
        <time>2020-09-26T11:50:39.000Z</time>
      </trkpt>
      <trkpt lat="47.313" lon="-1.35095">
        <ele>51</ele>
        <time>2020-09-26T11:50:41.000Z</time>
      </trkpt>
      <trkpt lat="47.31292" lon="-1.35108">
        <ele>52</ele>
        <time>2020-09-26T11:50:43.000Z</time>
      </trkpt>
      <trkpt lat="47.31287" lon="-1.35119">
        <ele>51</ele>
        <time>2020-09-26T11:50:45.000Z</time>
      </trkpt>
      <trkpt lat="47.31281" lon="-1.35132">
        <ele>50</ele>
        <time>2020-09-26T11:50:47.000Z</time>
      </trkpt>
      <trkpt lat="47.31275" lon="-1.35147">
        <ele>50</ele>
        <time>2020-09-26T11:50:49.000Z</time>
      </trkpt>
      <trkpt lat="47.31268" lon="-1.35161">
        <ele>50</ele>
        <time>2020-09-26T11:50:51.000Z</time>
      </trkpt>
      <trkpt lat="47.3126" lon="-1.35175">
        <ele>50</ele>
        <time>2020-09-26T11:50:53.000Z</time>
      </trkpt>
      <trkpt lat="47.31252" lon="-1.35188">
        <ele>50</ele>
        <time>2020-09-26T11:50:55.000Z</time>
      </trkpt>
      <trkpt lat="47.31244" lon="-1.35202">
        <ele>50</ele>
        <time>2020-09-26T11:50:57.000Z</time>
      </trkpt>
      <trkpt lat="47.31235" lon="-1.35215">
        <ele>50</ele>
        <time>2020-09-26T11:50:59.000Z</time>
      </trkpt>
      <trkpt lat="47.31227" lon="-1.35228">
        <ele>50</ele>
        <time>2020-09-26T11:51:01.000Z</time>
      </trkpt>
      <trkpt lat="47.31219" lon="-1.35241">
        <ele>50</ele>
        <time>2020-09-26T11:51:03.000Z</time>
      </trkpt>
      <trkpt lat="47.31211" lon="-1.35255">
        <ele>50</ele>
        <time>2020-09-26T11:51:05.000Z</time>
      </trkpt>
      <trkpt lat="47.31202" lon="-1.35269">
        <ele>50</ele>
        <time>2020-09-26T11:51:07.000Z</time>
      </trkpt>
      <trkpt lat="47.31194" lon="-1.35282">
        <ele>50</ele>
        <time>2020-09-26T11:51:09.000Z</time>
      </trkpt>
      <trkpt lat="47.31186" lon="-1.35296">
        <ele>50</ele>
        <time>2020-09-26T11:51:11.000Z</time>
      </trkpt>
      <trkpt lat="47.31177" lon="-1.35309">
        <ele>50</ele>
        <time>2020-09-26T11:51:13.000Z</time>
      </trkpt>
      <trkpt lat="47.31169" lon="-1.35322">
        <ele>50</ele>
        <time>2020-09-26T11:51:15.000Z</time>
      </trkpt>
      <trkpt lat="47.3116" lon="-1.35336">
        <ele>49</ele>
        <time>2020-09-26T11:51:17.000Z</time>
      </trkpt>
      <trkpt lat="47.31151" lon="-1.3535">
        <ele>50</ele>
        <time>2020-09-26T11:51:19.000Z</time>
      </trkpt>
      <trkpt lat="47.31143" lon="-1.35363">
        <ele>50</ele>
        <time>2020-09-26T11:51:21.000Z</time>
      </trkpt>
      <trkpt lat="47.31134" lon="-1.35377">
        <ele>50</ele>
        <time>2020-09-26T11:51:23.000Z</time>
      </trkpt>
      <trkpt lat="47.31125" lon="-1.3539">
        <ele>50</ele>
        <time>2020-09-26T11:51:25.000Z</time>
      </trkpt>
      <trkpt lat="47.31116" lon="-1.35403">
        <ele>50</ele>
        <time>2020-09-26T11:51:27.000Z</time>
      </trkpt>
      <trkpt lat="47.31107" lon="-1.35417">
        <ele>50</ele>
        <time>2020-09-26T11:51:29.000Z</time>
      </trkpt>
      <trkpt lat="47.31098" lon="-1.3543">
        <ele>50</ele>
        <time>2020-09-26T11:51:31.000Z</time>
      </trkpt>
      <trkpt lat="47.31088" lon="-1.35443">
        <ele>50</ele>
        <time>2020-09-26T11:51:33.000Z</time>
      </trkpt>
      <trkpt lat="47.31078" lon="-1.35456">
        <ele>49</ele>
        <time>2020-09-26T11:51:35.000Z</time>
      </trkpt>
      <trkpt lat="47.31068" lon="-1.35469">
        <ele>50</ele>
        <time>2020-09-26T11:51:37.000Z</time>
      </trkpt>
      <trkpt lat="47.31058" lon="-1.35481">
        <ele>50</ele>
        <time>2020-09-26T11:51:39.000Z</time>
      </trkpt>
      <trkpt lat="47.31048" lon="-1.35493">
        <ele>51</ele>
        <time>2020-09-26T11:51:41.000Z</time>
      </trkpt>
      <trkpt lat="47.31038" lon="-1.35505">
        <ele>52</ele>
        <time>2020-09-26T11:51:43.000Z</time>
      </trkpt>
      <trkpt lat="47.31027" lon="-1.35517">
        <ele>52</ele>
        <time>2020-09-26T11:51:45.000Z</time>
      </trkpt>
      <trkpt lat="47.31017" lon="-1.35529">
        <ele>52</ele>
        <time>2020-09-26T11:51:47.000Z</time>
      </trkpt>
      <trkpt lat="47.31007" lon="-1.35541">
        <ele>53</ele>
        <time>2020-09-26T11:51:49.000Z</time>
      </trkpt>
      <trkpt lat="47.30996" lon="-1.35552">
        <ele>53</ele>
        <time>2020-09-26T11:51:51.000Z</time>
      </trkpt>
      <trkpt lat="47.30985" lon="-1.35564">
        <ele>52</ele>
        <time>2020-09-26T11:51:53.000Z</time>
      </trkpt>
      <trkpt lat="47.30975" lon="-1.35577">
        <ele>52</ele>
        <time>2020-09-26T11:51:55.000Z</time>
      </trkpt>
      <trkpt lat="47.30964" lon="-1.35588">
        <ele>52</ele>
        <time>2020-09-26T11:51:57.000Z</time>
      </trkpt>
      <trkpt lat="47.30954" lon="-1.35601">
        <ele>52</ele>
        <time>2020-09-26T11:51:59.000Z</time>
      </trkpt>
      <trkpt lat="47.30944" lon="-1.35612">
        <ele>51</ele>
        <time>2020-09-26T11:52:01.000Z</time>
      </trkpt>
      <trkpt lat="47.30934" lon="-1.35624">
        <ele>51</ele>
        <time>2020-09-26T11:52:03.000Z</time>
      </trkpt>
      <trkpt lat="47.30923" lon="-1.35636">
        <ele>52</ele>
        <time>2020-09-26T11:52:05.000Z</time>
      </trkpt>
      <trkpt lat="47.30913" lon="-1.35647">
        <ele>51</ele>
        <time>2020-09-26T11:52:07.000Z</time>
      </trkpt>
      <trkpt lat="47.30903" lon="-1.35659">
        <ele>51</ele>
        <time>2020-09-26T11:52:09.000Z</time>
      </trkpt>
      <trkpt lat="47.30892" lon="-1.35671">
        <ele>51</ele>
        <time>2020-09-26T11:52:11.000Z</time>
      </trkpt>
      <trkpt lat="47.30882" lon="-1.35683">
        <ele>50</ele>
        <time>2020-09-26T11:52:13.000Z</time>
      </trkpt>
      <trkpt lat="47.30872" lon="-1.35696">
        <ele>50</ele>
        <time>2020-09-26T11:52:15.000Z</time>
      </trkpt>
      <trkpt lat="47.30862" lon="-1.35708">
        <ele>50</ele>
        <time>2020-09-26T11:52:17.000Z</time>
      </trkpt>
      <trkpt lat="47.30852" lon="-1.35719">
        <ele>50</ele>
        <time>2020-09-26T11:52:19.000Z</time>
      </trkpt>
      <trkpt lat="47.30842" lon="-1.35731">
        <ele>50</ele>
        <time>2020-09-26T11:52:21.000Z</time>
      </trkpt>
      <trkpt lat="47.30833" lon="-1.35744">
        <ele>50</ele>
        <time>2020-09-26T11:52:23.000Z</time>
      </trkpt>
      <trkpt lat="47.30823" lon="-1.35756">
        <ele>51</ele>
        <time>2020-09-26T11:52:25.000Z</time>
      </trkpt>
      <trkpt lat="47.30813" lon="-1.35768">
        <ele>51</ele>
        <time>2020-09-26T11:52:27.000Z</time>
      </trkpt>
      <trkpt lat="47.30803" lon="-1.3578">
        <ele>51</ele>
        <time>2020-09-26T11:52:29.000Z</time>
      </trkpt>
      <trkpt lat="47.30793" lon="-1.35792">
        <ele>51</ele>
        <time>2020-09-26T11:52:31.000Z</time>
      </trkpt>
      <trkpt lat="47.30783" lon="-1.35803">
        <ele>51</ele>
        <time>2020-09-26T11:52:33.000Z</time>
      </trkpt>
      <trkpt lat="47.30773" lon="-1.35815">
        <ele>51</ele>
        <time>2020-09-26T11:52:35.000Z</time>
      </trkpt>
      <trkpt lat="47.30762" lon="-1.35826">
        <ele>51</ele>
        <time>2020-09-26T11:52:37.000Z</time>
      </trkpt>
      <trkpt lat="47.30752" lon="-1.35838">
        <ele>51</ele>
        <time>2020-09-26T11:52:39.000Z</time>
      </trkpt>
      <trkpt lat="47.30742" lon="-1.35849">
        <ele>51</ele>
        <time>2020-09-26T11:52:41.000Z</time>
      </trkpt>
      <trkpt lat="47.30732" lon="-1.35861">
        <ele>51</ele>
        <time>2020-09-26T11:52:43.000Z</time>
      </trkpt>
      <trkpt lat="47.30722" lon="-1.35871">
        <ele>51</ele>
        <time>2020-09-26T11:52:45.000Z</time>
      </trkpt>
      <trkpt lat="47.30712" lon="-1.35882">
        <ele>51</ele>
        <time>2020-09-26T11:52:47.000Z</time>
      </trkpt>
      <trkpt lat="47.30703" lon="-1.35893">
        <ele>50</ele>
        <time>2020-09-26T11:52:49.000Z</time>
      </trkpt>
      <trkpt lat="47.30693" lon="-1.35904">
        <ele>50</ele>
        <time>2020-09-26T11:52:51.000Z</time>
      </trkpt>
      <trkpt lat="47.30683" lon="-1.35916">
        <ele>50</ele>
        <time>2020-09-26T11:52:53.000Z</time>
      </trkpt>
      <trkpt lat="47.30673" lon="-1.35928">
        <ele>50</ele>
        <time>2020-09-26T11:52:55.000Z</time>
      </trkpt>
      <trkpt lat="47.30663" lon="-1.35941">
        <ele>51</ele>
        <time>2020-09-26T11:52:57.000Z</time>
      </trkpt>
      <trkpt lat="47.30653" lon="-1.35952">
        <ele>51</ele>
        <time>2020-09-26T11:52:59.000Z</time>
      </trkpt>
      <trkpt lat="47.30643" lon="-1.35965">
        <ele>50</ele>
        <time>2020-09-26T11:53:01.000Z</time>
      </trkpt>
      <trkpt lat="47.30633" lon="-1.35977">
        <ele>51</ele>
        <time>2020-09-26T11:53:03.000Z</time>
      </trkpt>
      <trkpt lat="47.30623" lon="-1.35988">
        <ele>51</ele>
        <time>2020-09-26T11:53:05.000Z</time>
      </trkpt>
      <trkpt lat="47.30613" lon="-1.35999">
        <ele>51</ele>
        <time>2020-09-26T11:53:07.000Z</time>
      </trkpt>
      <trkpt lat="47.30603" lon="-1.36009">
        <ele>51</ele>
        <time>2020-09-26T11:53:09.000Z</time>
      </trkpt>
      <trkpt lat="47.30594" lon="-1.36019">
        <ele>51</ele>
        <time>2020-09-26T11:53:11.000Z</time>
      </trkpt>
      <trkpt lat="47.30585" lon="-1.36028">
        <ele>50</ele>
        <time>2020-09-26T11:53:13.000Z</time>
      </trkpt>
      <trkpt lat="47.3058" lon="-1.36045">
        <ele>50</ele>
        <time>2020-09-26T11:53:16.000Z</time>
      </trkpt>
      <trkpt lat="47.30573" lon="-1.36055">
        <ele>50</ele>
        <time>2020-09-26T11:53:18.000Z</time>
      </trkpt>
      <trkpt lat="47.30564" lon="-1.36067">
        <ele>50</ele>
        <time>2020-09-26T11:53:20.000Z</time>
      </trkpt>
      <trkpt lat="47.30555" lon="-1.3608">
        <ele>50</ele>
        <time>2020-09-26T11:53:22.000Z</time>
      </trkpt>
      <trkpt lat="47.30546" lon="-1.36092">
        <ele>49</ele>
        <time>2020-09-26T11:53:24.000Z</time>
      </trkpt>
      <trkpt lat="47.30538" lon="-1.36106">
        <ele>49</ele>
        <time>2020-09-26T11:53:26.000Z</time>
      </trkpt>
      <trkpt lat="47.3053" lon="-1.36119">
        <ele>49</ele>
        <time>2020-09-26T11:53:28.000Z</time>
      </trkpt>
      <trkpt lat="47.30521" lon="-1.36133">
        <ele>48</ele>
        <time>2020-09-26T11:53:30.000Z</time>
      </trkpt>
      <trkpt lat="47.30513" lon="-1.36147">
        <ele>48</ele>
        <time>2020-09-26T11:53:32.000Z</time>
      </trkpt>
      <trkpt lat="47.30504" lon="-1.36162">
        <ele>48</ele>
        <time>2020-09-26T11:53:34.000Z</time>
      </trkpt>
      <trkpt lat="47.30496" lon="-1.36176">
        <ele>48</ele>
        <time>2020-09-26T11:53:36.000Z</time>
      </trkpt>
      <trkpt lat="47.30488" lon="-1.36191">
        <ele>49</ele>
        <time>2020-09-26T11:53:38.000Z</time>
      </trkpt>
      <trkpt lat="47.30481" lon="-1.36205">
        <ele>48</ele>
        <time>2020-09-26T11:53:40.000Z</time>
      </trkpt>
      <trkpt lat="47.30473" lon="-1.3622">
        <ele>48</ele>
        <time>2020-09-26T11:53:42.000Z</time>
      </trkpt>
      <trkpt lat="47.30465" lon="-1.36235">
        <ele>48</ele>
        <time>2020-09-26T11:53:44.000Z</time>
      </trkpt>
      <trkpt lat="47.30457" lon="-1.36251">
        <ele>48</ele>
        <time>2020-09-26T11:53:46.000Z</time>
      </trkpt>
      <trkpt lat="47.3045" lon="-1.36266">
        <ele>48</ele>
        <time>2020-09-26T11:53:48.000Z</time>
      </trkpt>
      <trkpt lat="47.30443" lon="-1.36281">
        <ele>48</ele>
        <time>2020-09-26T11:53:50.000Z</time>
      </trkpt>
      <trkpt lat="47.30436" lon="-1.36296">
        <ele>49</ele>
        <time>2020-09-26T11:53:52.000Z</time>
      </trkpt>
      <trkpt lat="47.30429" lon="-1.3631">
        <ele>49</ele>
        <time>2020-09-26T11:53:54.000Z</time>
      </trkpt>
      <trkpt lat="47.30422" lon="-1.36325">
        <ele>48</ele>
        <time>2020-09-26T11:53:56.000Z</time>
      </trkpt>
      <trkpt lat="47.30414" lon="-1.3634">
        <ele>49</ele>
        <time>2020-09-26T11:53:58.000Z</time>
      </trkpt>
      <trkpt lat="47.30407" lon="-1.36355">
        <ele>49</ele>
        <time>2020-09-26T11:54:00.000Z</time>
      </trkpt>
      <trkpt lat="47.304" lon="-1.36371">
        <ele>49</ele>
        <time>2020-09-26T11:54:02.000Z</time>
      </trkpt>
      <trkpt lat="47.30393" lon="-1.36385">
        <ele>49</ele>
        <time>2020-09-26T11:54:04.000Z</time>
      </trkpt>
      <trkpt lat="47.30385" lon="-1.36401">
        <ele>50</ele>
        <time>2020-09-26T11:54:06.000Z</time>
      </trkpt>
      <trkpt lat="47.30378" lon="-1.36416">
        <ele>49</ele>
        <time>2020-09-26T11:54:08.000Z</time>
      </trkpt>
      <trkpt lat="47.30371" lon="-1.3643">
        <ele>49</ele>
        <time>2020-09-26T11:54:10.000Z</time>
      </trkpt>
      <trkpt lat="47.30364" lon="-1.36446">
        <ele>49</ele>
        <time>2020-09-26T11:54:12.000Z</time>
      </trkpt>
      <trkpt lat="47.30357" lon="-1.36461">
        <ele>49</ele>
        <time>2020-09-26T11:54:14.000Z</time>
      </trkpt>
      <trkpt lat="47.3035" lon="-1.36476">
        <ele>49</ele>
        <time>2020-09-26T11:54:16.000Z</time>
      </trkpt>
      <trkpt lat="47.30342" lon="-1.36491">
        <ele>49</ele>
        <time>2020-09-26T11:54:18.000Z</time>
      </trkpt>
      <trkpt lat="47.30335" lon="-1.36507">
        <ele>49</ele>
        <time>2020-09-26T11:54:20.000Z</time>
      </trkpt>
      <trkpt lat="47.30327" lon="-1.36523">
        <ele>49</ele>
        <time>2020-09-26T11:54:22.000Z</time>
      </trkpt>
      <trkpt lat="47.3032" lon="-1.36539">
        <ele>50</ele>
        <time>2020-09-26T11:54:24.000Z</time>
      </trkpt>
      <trkpt lat="47.30312" lon="-1.36555">
        <ele>50</ele>
        <time>2020-09-26T11:54:26.000Z</time>
      </trkpt>
      <trkpt lat="47.30304" lon="-1.3657">
        <ele>50</ele>
        <time>2020-09-26T11:54:28.000Z</time>
      </trkpt>
      <trkpt lat="47.30296" lon="-1.36586">
        <ele>50</ele>
        <time>2020-09-26T11:54:30.000Z</time>
      </trkpt>
      <trkpt lat="47.30289" lon="-1.36601">
        <ele>50</ele>
        <time>2020-09-26T11:54:32.000Z</time>
      </trkpt>
      <trkpt lat="47.30281" lon="-1.36615">
        <ele>51</ele>
        <time>2020-09-26T11:54:34.000Z</time>
      </trkpt>
      <trkpt lat="47.30274" lon="-1.3663">
        <ele>50</ele>
        <time>2020-09-26T11:54:36.000Z</time>
      </trkpt>
      <trkpt lat="47.30266" lon="-1.36646">
        <ele>50</ele>
        <time>2020-09-26T11:54:38.000Z</time>
      </trkpt>
      <trkpt lat="47.30259" lon="-1.36662">
        <ele>50</ele>
        <time>2020-09-26T11:54:40.000Z</time>
      </trkpt>
      <trkpt lat="47.30251" lon="-1.36677">
        <ele>50</ele>
        <time>2020-09-26T11:54:42.000Z</time>
      </trkpt>
      <trkpt lat="47.30244" lon="-1.36693">
        <ele>50</ele>
        <time>2020-09-26T11:54:44.000Z</time>
      </trkpt>
      <trkpt lat="47.30236" lon="-1.36708">
        <ele>49</ele>
        <time>2020-09-26T11:54:46.000Z</time>
      </trkpt>
      <trkpt lat="47.30229" lon="-1.36723">
        <ele>49</ele>
        <time>2020-09-26T11:54:48.000Z</time>
      </trkpt>
      <trkpt lat="47.30221" lon="-1.36738">
        <ele>49</ele>
        <time>2020-09-26T11:54:50.000Z</time>
      </trkpt>
      <trkpt lat="47.30214" lon="-1.36753">
        <ele>50</ele>
        <time>2020-09-26T11:54:52.000Z</time>
      </trkpt>
      <trkpt lat="47.30207" lon="-1.36768">
        <ele>50</ele>
        <time>2020-09-26T11:54:54.000Z</time>
      </trkpt>
      <trkpt lat="47.30199" lon="-1.36783">
        <ele>50</ele>
        <time>2020-09-26T11:54:56.000Z</time>
      </trkpt>
      <trkpt lat="47.30192" lon="-1.36798">
        <ele>50</ele>
        <time>2020-09-26T11:54:58.000Z</time>
      </trkpt>
      <trkpt lat="47.30186" lon="-1.36813">
        <ele>50</ele>
        <time>2020-09-26T11:55:00.000Z</time>
      </trkpt>
      <trkpt lat="47.30178" lon="-1.36828">
        <ele>50</ele>
        <time>2020-09-26T11:55:02.000Z</time>
      </trkpt>
      <trkpt lat="47.30172" lon="-1.36843">
        <ele>51</ele>
        <time>2020-09-26T11:55:04.000Z</time>
      </trkpt>
      <trkpt lat="47.30164" lon="-1.36858">
        <ele>50</ele>
        <time>2020-09-26T11:55:06.000Z</time>
      </trkpt>
      <trkpt lat="47.30157" lon="-1.36873">
        <ele>50</ele>
        <time>2020-09-26T11:55:08.000Z</time>
      </trkpt>
      <trkpt lat="47.30149" lon="-1.36888">
        <ele>50</ele>
        <time>2020-09-26T11:55:10.000Z</time>
      </trkpt>
      <trkpt lat="47.30142" lon="-1.36903">
        <ele>50</ele>
        <time>2020-09-26T11:55:12.000Z</time>
      </trkpt>
      <trkpt lat="47.30135" lon="-1.36919">
        <ele>49</ele>
        <time>2020-09-26T11:55:14.000Z</time>
      </trkpt>
      <trkpt lat="47.30127" lon="-1.36933">
        <ele>49</ele>
        <time>2020-09-26T11:55:16.000Z</time>
      </trkpt>
      <trkpt lat="47.3012" lon="-1.36948">
        <ele>48</ele>
        <time>2020-09-26T11:55:18.000Z</time>
      </trkpt>
      <trkpt lat="47.30115" lon="-1.36965">
        <ele>49</ele>
        <time>2020-09-26T11:55:20.000Z</time>
      </trkpt>
      <trkpt lat="47.30109" lon="-1.3698">
        <ele>49</ele>
        <time>2020-09-26T11:55:22.000Z</time>
      </trkpt>
      <trkpt lat="47.30101" lon="-1.36994">
        <ele>49</ele>
        <time>2020-09-26T11:55:24.000Z</time>
      </trkpt>
      <trkpt lat="47.30094" lon="-1.3701">
        <ele>49</ele>
        <time>2020-09-26T11:55:26.000Z</time>
      </trkpt>
      <trkpt lat="47.30086" lon="-1.37024">
        <ele>49</ele>
        <time>2020-09-26T11:55:28.000Z</time>
      </trkpt>
      <trkpt lat="47.30078" lon="-1.37038">
        <ele>49</ele>
        <time>2020-09-26T11:55:30.000Z</time>
      </trkpt>
      <trkpt lat="47.3007" lon="-1.37052">
        <ele>49</ele>
        <time>2020-09-26T11:55:32.000Z</time>
      </trkpt>
      <trkpt lat="47.30062" lon="-1.37067">
        <ele>48</ele>
        <time>2020-09-26T11:55:34.000Z</time>
      </trkpt>
      <trkpt lat="47.30054" lon="-1.37081">
        <ele>48</ele>
        <time>2020-09-26T11:55:36.000Z</time>
      </trkpt>
      <trkpt lat="47.30045" lon="-1.37095">
        <ele>49</ele>
        <time>2020-09-26T11:55:38.000Z</time>
      </trkpt>
      <trkpt lat="47.30037" lon="-1.3711">
        <ele>49</ele>
        <time>2020-09-26T11:55:40.000Z</time>
      </trkpt>
      <trkpt lat="47.30029" lon="-1.37124">
        <ele>49</ele>
        <time>2020-09-26T11:55:42.000Z</time>
      </trkpt>
      <trkpt lat="47.3002" lon="-1.37138">
        <ele>49</ele>
        <time>2020-09-26T11:55:44.000Z</time>
      </trkpt>
      <trkpt lat="47.3001" lon="-1.37151">
        <ele>49</ele>
        <time>2020-09-26T11:55:46.000Z</time>
      </trkpt>
      <trkpt lat="47.30001" lon="-1.37164">
        <ele>49</ele>
        <time>2020-09-26T11:55:48.000Z</time>
      </trkpt>
      <trkpt lat="47.29992" lon="-1.37178">
        <ele>49</ele>
        <time>2020-09-26T11:55:50.000Z</time>
      </trkpt>
      <trkpt lat="47.29983" lon="-1.37192">
        <ele>49</ele>
        <time>2020-09-26T11:55:52.000Z</time>
      </trkpt>
      <trkpt lat="47.29974" lon="-1.37205">
        <ele>49</ele>
        <time>2020-09-26T11:55:54.000Z</time>
      </trkpt>
      <trkpt lat="47.29966" lon="-1.37219">
        <ele>50</ele>
        <time>2020-09-26T11:55:56.000Z</time>
      </trkpt>
      <trkpt lat="47.29958" lon="-1.37232">
        <ele>50</ele>
        <time>2020-09-26T11:55:58.000Z</time>
      </trkpt>
      <trkpt lat="47.29949" lon="-1.37245">
        <ele>49</ele>
        <time>2020-09-26T11:56:00.000Z</time>
      </trkpt>
      <trkpt lat="47.2994" lon="-1.37259">
        <ele>49</ele>
        <time>2020-09-26T11:56:02.000Z</time>
      </trkpt>
      <trkpt lat="47.29931" lon="-1.37273">
        <ele>49</ele>
        <time>2020-09-26T11:56:04.000Z</time>
      </trkpt>
      <trkpt lat="47.29921" lon="-1.37286">
        <ele>49</ele>
        <time>2020-09-26T11:56:06.000Z</time>
      </trkpt>
      <trkpt lat="47.29912" lon="-1.37301">
        <ele>49</ele>
        <time>2020-09-26T11:56:08.000Z</time>
      </trkpt>
      <trkpt lat="47.29903" lon="-1.37315">
        <ele>48</ele>
        <time>2020-09-26T11:56:10.000Z</time>
      </trkpt>
      <trkpt lat="47.29894" lon="-1.3733">
        <ele>48</ele>
        <time>2020-09-26T11:56:12.000Z</time>
      </trkpt>
      <trkpt lat="47.29885" lon="-1.37343">
        <ele>48</ele>
        <time>2020-09-26T11:56:14.000Z</time>
      </trkpt>
      <trkpt lat="47.29876" lon="-1.37356">
        <ele>49</ele>
        <time>2020-09-26T11:56:16.000Z</time>
      </trkpt>
      <trkpt lat="47.29867" lon="-1.3737">
        <ele>49</ele>
        <time>2020-09-26T11:56:18.000Z</time>
      </trkpt>
      <trkpt lat="47.29858" lon="-1.37383">
        <ele>49</ele>
        <time>2020-09-26T11:56:20.000Z</time>
      </trkpt>
      <trkpt lat="47.2985" lon="-1.37397">
        <ele>49</ele>
        <time>2020-09-26T11:56:22.000Z</time>
      </trkpt>
      <trkpt lat="47.29841" lon="-1.37411">
        <ele>49</ele>
        <time>2020-09-26T11:56:24.000Z</time>
      </trkpt>
      <trkpt lat="47.29833" lon="-1.37424">
        <ele>49</ele>
        <time>2020-09-26T11:56:26.000Z</time>
      </trkpt>
      <trkpt lat="47.29825" lon="-1.37436">
        <ele>50</ele>
        <time>2020-09-26T11:56:28.000Z</time>
      </trkpt>
      <trkpt lat="47.29818" lon="-1.37449">
        <ele>50</ele>
        <time>2020-09-26T11:56:30.000Z</time>
      </trkpt>
      <trkpt lat="47.29809" lon="-1.37463">
        <ele>49</ele>
        <time>2020-09-26T11:56:32.000Z</time>
      </trkpt>
      <trkpt lat="47.298" lon="-1.37477">
        <ele>49</ele>
        <time>2020-09-26T11:56:34.000Z</time>
      </trkpt>
      <trkpt lat="47.29792" lon="-1.37492">
        <ele>49</ele>
        <time>2020-09-26T11:56:36.000Z</time>
      </trkpt>
      <trkpt lat="47.29783" lon="-1.37506">
        <ele>49</ele>
        <time>2020-09-26T11:56:38.000Z</time>
      </trkpt>
      <trkpt lat="47.29776" lon="-1.37521">
        <ele>49</ele>
        <time>2020-09-26T11:56:40.000Z</time>
      </trkpt>
      <trkpt lat="47.29767" lon="-1.37535">
        <ele>49</ele>
        <time>2020-09-26T11:56:42.000Z</time>
      </trkpt>
      <trkpt lat="47.2976" lon="-1.3755">
        <ele>49</ele>
        <time>2020-09-26T11:56:44.000Z</time>
      </trkpt>
      <trkpt lat="47.29752" lon="-1.37565">
        <ele>49</ele>
        <time>2020-09-26T11:56:46.000Z</time>
      </trkpt>
      <trkpt lat="47.29745" lon="-1.3758">
        <ele>49</ele>
        <time>2020-09-26T11:56:48.000Z</time>
      </trkpt>
      <trkpt lat="47.29737" lon="-1.37595">
        <ele>49</ele>
        <time>2020-09-26T11:56:50.000Z</time>
      </trkpt>
      <trkpt lat="47.2973" lon="-1.37609">
        <ele>49</ele>
        <time>2020-09-26T11:56:52.000Z</time>
      </trkpt>
      <trkpt lat="47.29722" lon="-1.37625">
        <ele>49</ele>
        <time>2020-09-26T11:56:54.000Z</time>
      </trkpt>
      <trkpt lat="47.29715" lon="-1.3764">
        <ele>49</ele>
        <time>2020-09-26T11:56:56.000Z</time>
      </trkpt>
      <trkpt lat="47.29707" lon="-1.37655">
        <ele>49</ele>
        <time>2020-09-26T11:56:58.000Z</time>
      </trkpt>
      <trkpt lat="47.29699" lon="-1.3767">
        <ele>49</ele>
        <time>2020-09-26T11:57:00.000Z</time>
      </trkpt>
      <trkpt lat="47.29692" lon="-1.37685">
        <ele>49</ele>
        <time>2020-09-26T11:57:02.000Z</time>
      </trkpt>
      <trkpt lat="47.29685" lon="-1.37699">
        <ele>48</ele>
        <time>2020-09-26T11:57:04.000Z</time>
      </trkpt>
      <trkpt lat="47.29677" lon="-1.37714">
        <ele>48</ele>
        <time>2020-09-26T11:57:06.000Z</time>
      </trkpt>
      <trkpt lat="47.2967" lon="-1.37729">
        <ele>48</ele>
        <time>2020-09-26T11:57:08.000Z</time>
      </trkpt>
      <trkpt lat="47.29662" lon="-1.37744">
        <ele>48</ele>
        <time>2020-09-26T11:57:10.000Z</time>
      </trkpt>
      <trkpt lat="47.29655" lon="-1.37758">
        <ele>48</ele>
        <time>2020-09-26T11:57:12.000Z</time>
      </trkpt>
      <trkpt lat="47.29647" lon="-1.37773">
        <ele>49</ele>
        <time>2020-09-26T11:57:14.000Z</time>
      </trkpt>
      <trkpt lat="47.2964" lon="-1.37787">
        <ele>49</ele>
        <time>2020-09-26T11:57:16.000Z</time>
      </trkpt>
      <trkpt lat="47.29632" lon="-1.37799">
        <ele>49</ele>
        <time>2020-09-26T11:57:18.000Z</time>
      </trkpt>
      <trkpt lat="47.29624" lon="-1.37812">
        <ele>49</ele>
        <time>2020-09-26T11:57:20.000Z</time>
      </trkpt>
      <trkpt lat="47.29617" lon="-1.37826">
        <ele>49</ele>
        <time>2020-09-26T11:57:22.000Z</time>
      </trkpt>
      <trkpt lat="47.29611" lon="-1.3784">
        <ele>49</ele>
        <time>2020-09-26T11:57:24.000Z</time>
      </trkpt>
      <trkpt lat="47.29604" lon="-1.37855">
        <ele>50</ele>
        <time>2020-09-26T11:57:26.000Z</time>
      </trkpt>
      <trkpt lat="47.29597" lon="-1.37869">
        <ele>49</ele>
        <time>2020-09-26T11:57:28.000Z</time>
      </trkpt>
      <trkpt lat="47.2959" lon="-1.37883">
        <ele>50</ele>
        <time>2020-09-26T11:57:30.000Z</time>
      </trkpt>
      <trkpt lat="47.29584" lon="-1.37897">
        <ele>50</ele>
        <time>2020-09-26T11:57:32.000Z</time>
      </trkpt>
      <trkpt lat="47.29578" lon="-1.37913">
        <ele>50</ele>
        <time>2020-09-26T11:57:34.000Z</time>
      </trkpt>
      <trkpt lat="47.29571" lon="-1.37928">
        <ele>51</ele>
        <time>2020-09-26T11:57:36.000Z</time>
      </trkpt>
      <trkpt lat="47.29564" lon="-1.37943">
        <ele>51</ele>
        <time>2020-09-26T11:57:38.000Z</time>
      </trkpt>
      <trkpt lat="47.29558" lon="-1.37959">
        <ele>51</ele>
        <time>2020-09-26T11:57:40.000Z</time>
      </trkpt>
      <trkpt lat="47.29552" lon="-1.37975">
        <ele>52</ele>
        <time>2020-09-26T11:57:42.000Z</time>
      </trkpt>
      <trkpt lat="47.29547" lon="-1.37991">
        <ele>52</ele>
        <time>2020-09-26T11:57:44.000Z</time>
      </trkpt>
      <trkpt lat="47.29541" lon="-1.38006">
        <ele>52</ele>
        <time>2020-09-26T11:57:46.000Z</time>
      </trkpt>
      <trkpt lat="47.29535" lon="-1.38022">
        <ele>52</ele>
        <time>2020-09-26T11:57:48.000Z</time>
      </trkpt>
      <trkpt lat="47.29529" lon="-1.38038">
        <ele>52</ele>
        <time>2020-09-26T11:57:50.000Z</time>
      </trkpt>
      <trkpt lat="47.29524" lon="-1.38054">
        <ele>51</ele>
        <time>2020-09-26T11:57:52.000Z</time>
      </trkpt>
      <trkpt lat="47.29519" lon="-1.38071">
        <ele>51</ele>
        <time>2020-09-26T11:57:54.000Z</time>
      </trkpt>
      <trkpt lat="47.29514" lon="-1.38087">
        <ele>51</ele>
        <time>2020-09-26T11:57:56.000Z</time>
      </trkpt>
      <trkpt lat="47.29509" lon="-1.38104">
        <ele>51</ele>
        <time>2020-09-26T11:57:58.000Z</time>
      </trkpt>
      <trkpt lat="47.29505" lon="-1.3812">
        <ele>51</ele>
        <time>2020-09-26T11:58:00.000Z</time>
      </trkpt>
      <trkpt lat="47.295" lon="-1.38137">
        <ele>51</ele>
        <time>2020-09-26T11:58:02.000Z</time>
      </trkpt>
      <trkpt lat="47.29496" lon="-1.38154">
        <ele>51</ele>
        <time>2020-09-26T11:58:04.000Z</time>
      </trkpt>
      <trkpt lat="47.29491" lon="-1.38171">
        <ele>51</ele>
        <time>2020-09-26T11:58:06.000Z</time>
      </trkpt>
      <trkpt lat="47.29486" lon="-1.38188">
        <ele>51</ele>
        <time>2020-09-26T11:58:08.000Z</time>
      </trkpt>
      <trkpt lat="47.29482" lon="-1.38205">
        <ele>51</ele>
        <time>2020-09-26T11:58:10.000Z</time>
      </trkpt>
      <trkpt lat="47.29477" lon="-1.38223">
        <ele>51</ele>
        <time>2020-09-26T11:58:12.000Z</time>
      </trkpt>
      <trkpt lat="47.29472" lon="-1.3824">
        <ele>51</ele>
        <time>2020-09-26T11:58:14.000Z</time>
      </trkpt>
      <trkpt lat="47.29467" lon="-1.38257">
        <ele>51</ele>
        <time>2020-09-26T11:58:16.000Z</time>
      </trkpt>
      <trkpt lat="47.29462" lon="-1.38273">
        <ele>51</ele>
        <time>2020-09-26T11:58:18.000Z</time>
      </trkpt>
      <trkpt lat="47.29458" lon="-1.3829">
        <ele>51</ele>
        <time>2020-09-26T11:58:20.000Z</time>
      </trkpt>
      <trkpt lat="47.29453" lon="-1.38306">
        <ele>51</ele>
        <time>2020-09-26T11:58:22.000Z</time>
      </trkpt>
      <trkpt lat="47.29448" lon="-1.3832">
        <ele>52</ele>
        <time>2020-09-26T11:58:24.000Z</time>
      </trkpt>
      <trkpt lat="47.29441" lon="-1.38331">
        <ele>52</ele>
        <time>2020-09-26T11:58:26.000Z</time>
      </trkpt>
      <trkpt lat="47.29437" lon="-1.38345">
        <ele>52</ele>
        <time>2020-09-26T11:58:28.000Z</time>
      </trkpt>
      <trkpt lat="47.29435" lon="-1.38362">
        <ele>51</ele>
        <time>2020-09-26T11:58:30.000Z</time>
      </trkpt>
      <trkpt lat="47.29432" lon="-1.3838">
        <ele>51</ele>
        <time>2020-09-26T11:58:32.000Z</time>
      </trkpt>
      <trkpt lat="47.29427" lon="-1.38398">
        <ele>51</ele>
        <time>2020-09-26T11:58:34.000Z</time>
      </trkpt>
      <trkpt lat="47.29422" lon="-1.38417">
        <ele>50</ele>
        <time>2020-09-26T11:58:36.000Z</time>
      </trkpt>
      <trkpt lat="47.29418" lon="-1.38435">
        <ele>50</ele>
        <time>2020-09-26T11:58:38.000Z</time>
      </trkpt>
      <trkpt lat="47.29414" lon="-1.38452">
        <ele>50</ele>
        <time>2020-09-26T11:58:40.000Z</time>
      </trkpt>
      <trkpt lat="47.29409" lon="-1.38469">
        <ele>50</ele>
        <time>2020-09-26T11:58:42.000Z</time>
      </trkpt>
      <trkpt lat="47.29404" lon="-1.38486">
        <ele>50</ele>
        <time>2020-09-26T11:58:44.000Z</time>
      </trkpt>
      <trkpt lat="47.294" lon="-1.38503">
        <ele>50</ele>
        <time>2020-09-26T11:58:46.000Z</time>
      </trkpt>
      <trkpt lat="47.29395" lon="-1.38521">
        <ele>51</ele>
        <time>2020-09-26T11:58:48.000Z</time>
      </trkpt>
      <trkpt lat="47.2939" lon="-1.38538">
        <ele>51</ele>
        <time>2020-09-26T11:58:50.000Z</time>
      </trkpt>
      <trkpt lat="47.29385" lon="-1.38555">
        <ele>51</ele>
        <time>2020-09-26T11:58:52.000Z</time>
      </trkpt>
      <trkpt lat="47.29381" lon="-1.38571">
        <ele>51</ele>
        <time>2020-09-26T11:58:54.000Z</time>
      </trkpt>
      <trkpt lat="47.29376" lon="-1.38588">
        <ele>50</ele>
        <time>2020-09-26T11:58:56.000Z</time>
      </trkpt>
      <trkpt lat="47.29371" lon="-1.38604">
        <ele>50</ele>
        <time>2020-09-26T11:58:58.000Z</time>
      </trkpt>
      <trkpt lat="47.29367" lon="-1.38622">
        <ele>50</ele>
        <time>2020-09-26T11:59:00.000Z</time>
      </trkpt>
      <trkpt lat="47.29362" lon="-1.38639">
        <ele>50</ele>
        <time>2020-09-26T11:59:02.000Z</time>
      </trkpt>
      <trkpt lat="47.29357" lon="-1.38655">
        <ele>50</ele>
        <time>2020-09-26T11:59:04.000Z</time>
      </trkpt>
      <trkpt lat="47.29352" lon="-1.38671">
        <ele>51</ele>
        <time>2020-09-26T11:59:06.000Z</time>
      </trkpt>
      <trkpt lat="47.29347" lon="-1.38688">
        <ele>50</ele>
        <time>2020-09-26T11:59:08.000Z</time>
      </trkpt>
      <trkpt lat="47.29342" lon="-1.38705">
        <ele>51</ele>
        <time>2020-09-26T11:59:10.000Z</time>
      </trkpt>
      <trkpt lat="47.29338" lon="-1.38722">
        <ele>51</ele>
        <time>2020-09-26T11:59:12.000Z</time>
      </trkpt>
      <trkpt lat="47.29334" lon="-1.38739">
        <ele>51</ele>
        <time>2020-09-26T11:59:14.000Z</time>
      </trkpt>
      <trkpt lat="47.29329" lon="-1.38756">
        <ele>51</ele>
        <time>2020-09-26T11:59:16.000Z</time>
      </trkpt>
      <trkpt lat="47.29324" lon="-1.38774">
        <ele>51</ele>
        <time>2020-09-26T11:59:18.000Z</time>
      </trkpt>
      <trkpt lat="47.2932" lon="-1.38791">
        <ele>51</ele>
        <time>2020-09-26T11:59:20.000Z</time>
      </trkpt>
      <trkpt lat="47.29315" lon="-1.38808">
        <ele>51</ele>
        <time>2020-09-26T11:59:22.000Z</time>
      </trkpt>
      <trkpt lat="47.2931" lon="-1.38825">
        <ele>51</ele>
        <time>2020-09-26T11:59:24.000Z</time>
      </trkpt>
      <trkpt lat="47.29305" lon="-1.38841">
        <ele>51</ele>
        <time>2020-09-26T11:59:26.000Z</time>
      </trkpt>
      <trkpt lat="47.293" lon="-1.38858">
        <ele>50</ele>
        <time>2020-09-26T11:59:28.000Z</time>
      </trkpt>
      <trkpt lat="47.29296" lon="-1.38876">
        <ele>50</ele>
        <time>2020-09-26T11:59:30.000Z</time>
      </trkpt>
      <trkpt lat="47.29291" lon="-1.38893">
        <ele>50</ele>
        <time>2020-09-26T11:59:32.000Z</time>
      </trkpt>
      <trkpt lat="47.29287" lon="-1.3891">
        <ele>50</ele>
        <time>2020-09-26T11:59:34.000Z</time>
      </trkpt>
      <trkpt lat="47.29282" lon="-1.38927">
        <ele>50</ele>
        <time>2020-09-26T11:59:36.000Z</time>
      </trkpt>
      <trkpt lat="47.29278" lon="-1.38944">
        <ele>50</ele>
        <time>2020-09-26T11:59:38.000Z</time>
      </trkpt>
      <trkpt lat="47.29273" lon="-1.38962">
        <ele>50</ele>
        <time>2020-09-26T11:59:40.000Z</time>
      </trkpt>
      <trkpt lat="47.29268" lon="-1.38978">
        <ele>50</ele>
        <time>2020-09-26T11:59:42.000Z</time>
      </trkpt>
      <trkpt lat="47.29264" lon="-1.38994">
        <ele>50</ele>
        <time>2020-09-26T11:59:44.000Z</time>
      </trkpt>
      <trkpt lat="47.29259" lon="-1.39012">
        <ele>49</ele>
        <time>2020-09-26T11:59:46.000Z</time>
      </trkpt>
      <trkpt lat="47.29255" lon="-1.39029">
        <ele>49</ele>
        <time>2020-09-26T11:59:48.000Z</time>
      </trkpt>
      <trkpt lat="47.2925" lon="-1.39046">
        <ele>49</ele>
        <time>2020-09-26T11:59:50.000Z</time>
      </trkpt>
      <trkpt lat="47.29245" lon="-1.39063">
        <ele>50</ele>
        <time>2020-09-26T11:59:52.000Z</time>
      </trkpt>
      <trkpt lat="47.2924" lon="-1.3908">
        <ele>50</ele>
        <time>2020-09-26T11:59:54.000Z</time>
      </trkpt>
      <trkpt lat="47.29235" lon="-1.39096">
        <ele>50</ele>
        <time>2020-09-26T11:59:56.000Z</time>
      </trkpt>
      <trkpt lat="47.29227" lon="-1.3911">
        <ele>50</ele>
        <time>2020-09-26T11:59:58.000Z</time>
      </trkpt>
      <trkpt lat="47.29219" lon="-1.39125">
        <ele>50</ele>
        <time>2020-09-26T12:00:00.000Z</time>
      </trkpt>
      <trkpt lat="47.2921" lon="-1.39138">
        <ele>50</ele>
        <time>2020-09-26T12:00:02.000Z</time>
      </trkpt>
      <trkpt lat="47.29201" lon="-1.3915">
        <ele>50</ele>
        <time>2020-09-26T12:00:04.000Z</time>
      </trkpt>
      <trkpt lat="47.2919" lon="-1.39162">
        <ele>49</ele>
        <time>2020-09-26T12:00:06.000Z</time>
      </trkpt>
      <trkpt lat="47.2918" lon="-1.39174">
        <ele>49</ele>
        <time>2020-09-26T12:00:08.000Z</time>
      </trkpt>
      <trkpt lat="47.2917" lon="-1.39187">
        <ele>49</ele>
        <time>2020-09-26T12:00:10.000Z</time>
      </trkpt>
      <trkpt lat="47.29159" lon="-1.39199">
        <ele>49</ele>
        <time>2020-09-26T12:00:12.000Z</time>
      </trkpt>
      <trkpt lat="47.29149" lon="-1.39212">
        <ele>49</ele>
        <time>2020-09-26T12:00:14.000Z</time>
      </trkpt>
      <trkpt lat="47.29139" lon="-1.39224">
        <ele>49</ele>
        <time>2020-09-26T12:00:16.000Z</time>
      </trkpt>
      <trkpt lat="47.2913" lon="-1.39236">
        <ele>49</ele>
        <time>2020-09-26T12:00:18.000Z</time>
      </trkpt>
      <trkpt lat="47.2912" lon="-1.39249">
        <ele>49</ele>
        <time>2020-09-26T12:00:20.000Z</time>
      </trkpt>
      <trkpt lat="47.29112" lon="-1.39262">
        <ele>49</ele>
        <time>2020-09-26T12:00:22.000Z</time>
      </trkpt>
      <trkpt lat="47.29104" lon="-1.39276">
        <ele>49</ele>
        <time>2020-09-26T12:00:24.000Z</time>
      </trkpt>
      <trkpt lat="47.29097" lon="-1.39291">
        <ele>49</ele>
        <time>2020-09-26T12:00:26.000Z</time>
      </trkpt>
      <trkpt lat="47.2909" lon="-1.39306">
        <ele>50</ele>
        <time>2020-09-26T12:00:28.000Z</time>
      </trkpt>
      <trkpt lat="47.29081" lon="-1.39314">
        <ele>51</ele>
        <time>2020-09-26T12:00:30.000Z</time>
      </trkpt>
      <trkpt lat="47.2907" lon="-1.39318">
        <ele>50</ele>
        <time>2020-09-26T12:00:32.000Z</time>
      </trkpt>
      <trkpt lat="47.29058" lon="-1.39325">
        <ele>48</ele>
        <time>2020-09-26T12:00:34.000Z</time>
      </trkpt>
      <trkpt lat="47.29046" lon="-1.39335">
        <ele>48</ele>
        <time>2020-09-26T12:00:36.000Z</time>
      </trkpt>
      <trkpt lat="47.29034" lon="-1.39349">
        <ele>48</ele>
        <time>2020-09-26T12:00:38.000Z</time>
      </trkpt>
      <trkpt lat="47.29023" lon="-1.39363">
        <ele>48</ele>
        <time>2020-09-26T12:00:40.000Z</time>
      </trkpt>
      <trkpt lat="47.29012" lon="-1.39376">
        <ele>48</ele>
        <time>2020-09-26T12:00:42.000Z</time>
      </trkpt>
      <trkpt lat="47.29001" lon="-1.3939">
        <ele>48</ele>
        <time>2020-09-26T12:00:44.000Z</time>
      </trkpt>
      <trkpt lat="47.2899" lon="-1.39404">
        <ele>48</ele>
        <time>2020-09-26T12:00:46.000Z</time>
      </trkpt>
      <trkpt lat="47.28979" lon="-1.39417">
        <ele>47</ele>
        <time>2020-09-26T12:00:48.000Z</time>
      </trkpt>
      <trkpt lat="47.28969" lon="-1.39429">
        <ele>47</ele>
        <time>2020-09-26T12:00:50.000Z</time>
      </trkpt>
      <trkpt lat="47.28958" lon="-1.39442">
        <ele>47</ele>
        <time>2020-09-26T12:00:52.000Z</time>
      </trkpt>
      <trkpt lat="47.28948" lon="-1.39455">
        <ele>47</ele>
        <time>2020-09-26T12:00:54.000Z</time>
      </trkpt>
      <trkpt lat="47.28937" lon="-1.39468">
        <ele>47</ele>
        <time>2020-09-26T12:00:56.000Z</time>
      </trkpt>
      <trkpt lat="47.28926" lon="-1.39481">
        <ele>47</ele>
        <time>2020-09-26T12:00:58.000Z</time>
      </trkpt>
      <trkpt lat="47.28915" lon="-1.39494">
        <ele>47</ele>
        <time>2020-09-26T12:01:00.000Z</time>
      </trkpt>
      <trkpt lat="47.28904" lon="-1.39507">
        <ele>47</ele>
        <time>2020-09-26T12:01:02.000Z</time>
      </trkpt>
      <trkpt lat="47.28893" lon="-1.39519">
        <ele>47</ele>
        <time>2020-09-26T12:01:04.000Z</time>
      </trkpt>
      <trkpt lat="47.28882" lon="-1.39532">
        <ele>47</ele>
        <time>2020-09-26T12:01:06.000Z</time>
      </trkpt>
      <trkpt lat="47.28872" lon="-1.39545">
        <ele>47</ele>
        <time>2020-09-26T12:01:08.000Z</time>
      </trkpt>
      <trkpt lat="47.28861" lon="-1.39558">
        <ele>48</ele>
        <time>2020-09-26T12:01:10.000Z</time>
      </trkpt>
      <trkpt lat="47.2885" lon="-1.39571">
        <ele>48</ele>
        <time>2020-09-26T12:01:12.000Z</time>
      </trkpt>
      <trkpt lat="47.28839" lon="-1.39584">
        <ele>47</ele>
        <time>2020-09-26T12:01:14.000Z</time>
      </trkpt>
      <trkpt lat="47.28829" lon="-1.39597">
        <ele>47</ele>
        <time>2020-09-26T12:01:16.000Z</time>
      </trkpt>
      <trkpt lat="47.28818" lon="-1.39609">
        <ele>46</ele>
        <time>2020-09-26T12:01:18.000Z</time>
      </trkpt>
      <trkpt lat="47.28807" lon="-1.39622">
        <ele>46</ele>
        <time>2020-09-26T12:01:20.000Z</time>
      </trkpt>
      <trkpt lat="47.28796" lon="-1.39635">
        <ele>46</ele>
        <time>2020-09-26T12:01:22.000Z</time>
      </trkpt>
      <trkpt lat="47.28785" lon="-1.39649">
        <ele>46</ele>
        <time>2020-09-26T12:01:24.000Z</time>
      </trkpt>
      <trkpt lat="47.28775" lon="-1.39661">
        <ele>46</ele>
        <time>2020-09-26T12:01:26.000Z</time>
      </trkpt>
      <trkpt lat="47.28764" lon="-1.39674">
        <ele>46</ele>
        <time>2020-09-26T12:01:28.000Z</time>
      </trkpt>
      <trkpt lat="47.28754" lon="-1.39687">
        <ele>47</ele>
        <time>2020-09-26T12:01:30.000Z</time>
      </trkpt>
      <trkpt lat="47.28744" lon="-1.39699">
        <ele>47</ele>
        <time>2020-09-26T12:01:32.000Z</time>
      </trkpt>
      <trkpt lat="47.28734" lon="-1.39711">
        <ele>47</ele>
        <time>2020-09-26T12:01:34.000Z</time>
      </trkpt>
      <trkpt lat="47.28724" lon="-1.39723">
        <ele>47</ele>
        <time>2020-09-26T12:01:36.000Z</time>
      </trkpt>
      <trkpt lat="47.28715" lon="-1.39735">
        <ele>46</ele>
        <time>2020-09-26T12:01:38.000Z</time>
      </trkpt>
      <trkpt lat="47.28705" lon="-1.39747">
        <ele>47</ele>
        <time>2020-09-26T12:01:40.000Z</time>
      </trkpt>
      <trkpt lat="47.28695" lon="-1.39759">
        <ele>47</ele>
        <time>2020-09-26T12:01:42.000Z</time>
      </trkpt>
      <trkpt lat="47.28685" lon="-1.39771">
        <ele>47</ele>
        <time>2020-09-26T12:01:44.000Z</time>
      </trkpt>
      <trkpt lat="47.28675" lon="-1.39784">
        <ele>47</ele>
        <time>2020-09-26T12:01:46.000Z</time>
      </trkpt>
      <trkpt lat="47.28666" lon="-1.39797">
        <ele>47</ele>
        <time>2020-09-26T12:01:48.000Z</time>
      </trkpt>
      <trkpt lat="47.28657" lon="-1.39811">
        <ele>47</ele>
        <time>2020-09-26T12:01:50.000Z</time>
      </trkpt>
      <trkpt lat="47.28648" lon="-1.39825">
        <ele>48</ele>
        <time>2020-09-26T12:01:52.000Z</time>
      </trkpt>
      <trkpt lat="47.28639" lon="-1.39839">
        <ele>48</ele>
        <time>2020-09-26T12:01:54.000Z</time>
      </trkpt>
      <trkpt lat="47.2863" lon="-1.39852">
        <ele>48</ele>
        <time>2020-09-26T12:01:56.000Z</time>
      </trkpt>
      <trkpt lat="47.28622" lon="-1.39865">
        <ele>48</ele>
        <time>2020-09-26T12:01:58.000Z</time>
      </trkpt>
      <trkpt lat="47.28614" lon="-1.39878">
        <ele>48</ele>
        <time>2020-09-26T12:02:00.000Z</time>
      </trkpt>
      <trkpt lat="47.28605" lon="-1.39891">
        <ele>48</ele>
        <time>2020-09-26T12:02:02.000Z</time>
      </trkpt>
      <trkpt lat="47.28597" lon="-1.39904">
        <ele>48</ele>
        <time>2020-09-26T12:02:04.000Z</time>
      </trkpt>
      <trkpt lat="47.28588" lon="-1.39917">
        <ele>48</ele>
        <time>2020-09-26T12:02:06.000Z</time>
      </trkpt>
      <trkpt lat="47.28579" lon="-1.39929">
        <ele>48</ele>
        <time>2020-09-26T12:02:08.000Z</time>
      </trkpt>
      <trkpt lat="47.2857" lon="-1.39942">
        <ele>48</ele>
        <time>2020-09-26T12:02:10.000Z</time>
      </trkpt>
      <trkpt lat="47.28561" lon="-1.39956">
        <ele>48</ele>
        <time>2020-09-26T12:02:12.000Z</time>
      </trkpt>
      <trkpt lat="47.28552" lon="-1.39969">
        <ele>48</ele>
        <time>2020-09-26T12:02:14.000Z</time>
      </trkpt>
      <trkpt lat="47.28542" lon="-1.39981">
        <ele>48</ele>
        <time>2020-09-26T12:02:16.000Z</time>
      </trkpt>
      <trkpt lat="47.28533" lon="-1.39994">
        <ele>48</ele>
        <time>2020-09-26T12:02:18.000Z</time>
      </trkpt>
      <trkpt lat="47.28524" lon="-1.40006">
        <ele>48</ele>
        <time>2020-09-26T12:02:20.000Z</time>
      </trkpt>
      <trkpt lat="47.28516" lon="-1.4002">
        <ele>48</ele>
        <time>2020-09-26T12:02:22.000Z</time>
      </trkpt>
      <trkpt lat="47.28508" lon="-1.40033">
        <ele>47</ele>
        <time>2020-09-26T12:02:24.000Z</time>
      </trkpt>
      <trkpt lat="47.285" lon="-1.40048">
        <ele>47</ele>
        <time>2020-09-26T12:02:26.000Z</time>
      </trkpt>
      <trkpt lat="47.28492" lon="-1.40063">
        <ele>47</ele>
        <time>2020-09-26T12:02:28.000Z</time>
      </trkpt>
      <trkpt lat="47.28486" lon="-1.4008">
        <ele>47</ele>
        <time>2020-09-26T12:02:30.000Z</time>
      </trkpt>
      <trkpt lat="47.28479" lon="-1.40096">
        <ele>47</ele>
        <time>2020-09-26T12:02:32.000Z</time>
      </trkpt>
      <trkpt lat="47.28472" lon="-1.40112">
        <ele>47</ele>
        <time>2020-09-26T12:02:34.000Z</time>
      </trkpt>
      <trkpt lat="47.28466" lon="-1.40128">
        <ele>46</ele>
        <time>2020-09-26T12:02:36.000Z</time>
      </trkpt>
      <trkpt lat="47.2846" lon="-1.40145">
        <ele>46</ele>
        <time>2020-09-26T12:02:38.000Z</time>
      </trkpt>
      <trkpt lat="47.28453" lon="-1.40161">
        <ele>47</ele>
        <time>2020-09-26T12:02:40.000Z</time>
      </trkpt>
      <trkpt lat="47.28446" lon="-1.40177">
        <ele>47</ele>
        <time>2020-09-26T12:02:42.000Z</time>
      </trkpt>
      <trkpt lat="47.2844" lon="-1.40193">
        <ele>47</ele>
        <time>2020-09-26T12:02:44.000Z</time>
      </trkpt>
      <trkpt lat="47.28434" lon="-1.40208">
        <ele>47</ele>
        <time>2020-09-26T12:02:46.000Z</time>
      </trkpt>
      <trkpt lat="47.28427" lon="-1.40224">
        <ele>47</ele>
        <time>2020-09-26T12:02:48.000Z</time>
      </trkpt>
      <trkpt lat="47.28421" lon="-1.40241">
        <ele>46</ele>
        <time>2020-09-26T12:02:50.000Z</time>
      </trkpt>
      <trkpt lat="47.28414" lon="-1.40257">
        <ele>47</ele>
        <time>2020-09-26T12:02:52.000Z</time>
      </trkpt>
      <trkpt lat="47.28407" lon="-1.40273">
        <ele>46</ele>
        <time>2020-09-26T12:02:54.000Z</time>
      </trkpt>
      <trkpt lat="47.28399" lon="-1.40289">
        <ele>46</ele>
        <time>2020-09-26T12:02:56.000Z</time>
      </trkpt>
      <trkpt lat="47.28391" lon="-1.40304">
        <ele>46</ele>
        <time>2020-09-26T12:02:58.000Z</time>
      </trkpt>
      <trkpt lat="47.28383" lon="-1.40318">
        <ele>46</ele>
        <time>2020-09-26T12:03:00.000Z</time>
      </trkpt>
      <trkpt lat="47.28374" lon="-1.40332">
        <ele>46</ele>
        <time>2020-09-26T12:03:02.000Z</time>
      </trkpt>
      <trkpt lat="47.28365" lon="-1.40345">
        <ele>46</ele>
        <time>2020-09-26T12:03:04.000Z</time>
      </trkpt>
      <trkpt lat="47.28356" lon="-1.40358">
        <ele>46</ele>
        <time>2020-09-26T12:03:06.000Z</time>
      </trkpt>
      <trkpt lat="47.28347" lon="-1.4037">
        <ele>46</ele>
        <time>2020-09-26T12:03:08.000Z</time>
      </trkpt>
      <trkpt lat="47.28338" lon="-1.40383">
        <ele>46</ele>
        <time>2020-09-26T12:03:10.000Z</time>
      </trkpt>
      <trkpt lat="47.28328" lon="-1.40395">
        <ele>46</ele>
        <time>2020-09-26T12:03:12.000Z</time>
      </trkpt>
      <trkpt lat="47.28318" lon="-1.40408">
        <ele>46</ele>
        <time>2020-09-26T12:03:14.000Z</time>
      </trkpt>
      <trkpt lat="47.28308" lon="-1.4042">
        <ele>46</ele>
        <time>2020-09-26T12:03:16.000Z</time>
      </trkpt>
      <trkpt lat="47.28297" lon="-1.4043">
        <ele>46</ele>
        <time>2020-09-26T12:03:18.000Z</time>
      </trkpt>
      <trkpt lat="47.28286" lon="-1.40441">
        <ele>46</ele>
        <time>2020-09-26T12:03:20.000Z</time>
      </trkpt>
      <trkpt lat="47.28275" lon="-1.40451">
        <ele>45</ele>
        <time>2020-09-26T12:03:22.000Z</time>
      </trkpt>
      <trkpt lat="47.28265" lon="-1.40461">
        <ele>46</ele>
        <time>2020-09-26T12:03:24.000Z</time>
      </trkpt>
      <trkpt lat="47.28255" lon="-1.40471">
        <ele>46</ele>
        <time>2020-09-26T12:03:26.000Z</time>
      </trkpt>
      <trkpt lat="47.28244" lon="-1.40481">
        <ele>45</ele>
        <time>2020-09-26T12:03:28.000Z</time>
      </trkpt>
      <trkpt lat="47.28233" lon="-1.40491">
        <ele>45</ele>
        <time>2020-09-26T12:03:30.000Z</time>
      </trkpt>
      <trkpt lat="47.28223" lon="-1.40503">
        <ele>45</ele>
        <time>2020-09-26T12:03:32.000Z</time>
      </trkpt>
      <trkpt lat="47.28212" lon="-1.40513">
        <ele>45</ele>
        <time>2020-09-26T12:03:34.000Z</time>
      </trkpt>
      <trkpt lat="47.28201" lon="-1.40524">
        <ele>45</ele>
        <time>2020-09-26T12:03:36.000Z</time>
      </trkpt>
      <trkpt lat="47.28189" lon="-1.40535">
        <ele>45</ele>
        <time>2020-09-26T12:03:38.000Z</time>
      </trkpt>
      <trkpt lat="47.28178" lon="-1.40545">
        <ele>45</ele>
        <time>2020-09-26T12:03:40.000Z</time>
      </trkpt>
      <trkpt lat="47.28167" lon="-1.40556">
        <ele>45</ele>
        <time>2020-09-26T12:03:42.000Z</time>
      </trkpt>
      <trkpt lat="47.28156" lon="-1.40567">
        <ele>45</ele>
        <time>2020-09-26T12:03:44.000Z</time>
      </trkpt>
      <trkpt lat="47.28144" lon="-1.40578">
        <ele>45</ele>
        <time>2020-09-26T12:03:46.000Z</time>
      </trkpt>
      <trkpt lat="47.28134" lon="-1.40588">
        <ele>45</ele>
        <time>2020-09-26T12:03:48.000Z</time>
      </trkpt>
      <trkpt lat="47.28123" lon="-1.40599">
        <ele>45</ele>
        <time>2020-09-26T12:03:50.000Z</time>
      </trkpt>
      <trkpt lat="47.28112" lon="-1.40609">
        <ele>45</ele>
        <time>2020-09-26T12:03:52.000Z</time>
      </trkpt>
      <trkpt lat="47.28101" lon="-1.4062">
        <ele>45</ele>
        <time>2020-09-26T12:03:54.000Z</time>
      </trkpt>
      <trkpt lat="47.2809" lon="-1.40631">
        <ele>45</ele>
        <time>2020-09-26T12:03:56.000Z</time>
      </trkpt>
      <trkpt lat="47.28079" lon="-1.40642">
        <ele>45</ele>
        <time>2020-09-26T12:03:58.000Z</time>
      </trkpt>
      <trkpt lat="47.28067" lon="-1.40652">
        <ele>45</ele>
        <time>2020-09-26T12:04:00.000Z</time>
      </trkpt>
      <trkpt lat="47.28056" lon="-1.40663">
        <ele>45</ele>
        <time>2020-09-26T12:04:02.000Z</time>
      </trkpt>
      <trkpt lat="47.28044" lon="-1.40674">
        <ele>45</ele>
        <time>2020-09-26T12:04:04.000Z</time>
      </trkpt>
      <trkpt lat="47.28033" lon="-1.40686">
        <ele>45</ele>
        <time>2020-09-26T12:04:06.000Z</time>
      </trkpt>
      <trkpt lat="47.28022" lon="-1.40698">
        <ele>45</ele>
        <time>2020-09-26T12:04:08.000Z</time>
      </trkpt>
      <trkpt lat="47.2801" lon="-1.4071">
        <ele>45</ele>
        <time>2020-09-26T12:04:10.000Z</time>
      </trkpt>
      <trkpt lat="47.27999" lon="-1.40721">
        <ele>45</ele>
        <time>2020-09-26T12:04:12.000Z</time>
      </trkpt>
      <trkpt lat="47.27988" lon="-1.40733">
        <ele>45</ele>
        <time>2020-09-26T12:04:14.000Z</time>
      </trkpt>
      <trkpt lat="47.27976" lon="-1.40743">
        <ele>46</ele>
        <time>2020-09-26T12:04:16.000Z</time>
      </trkpt>
      <trkpt lat="47.27964" lon="-1.40754">
        <ele>46</ele>
        <time>2020-09-26T12:04:18.000Z</time>
      </trkpt>
      <trkpt lat="47.27952" lon="-1.40765">
        <ele>46</ele>
        <time>2020-09-26T12:04:20.000Z</time>
      </trkpt>
      <trkpt lat="47.2794" lon="-1.40776">
        <ele>47</ele>
        <time>2020-09-26T12:04:22.000Z</time>
      </trkpt>
      <trkpt lat="47.27928" lon="-1.40786">
        <ele>47</ele>
        <time>2020-09-26T12:04:24.000Z</time>
      </trkpt>
      <trkpt lat="47.27917" lon="-1.40797">
        <ele>47</ele>
        <time>2020-09-26T12:04:26.000Z</time>
      </trkpt>
      <trkpt lat="47.27906" lon="-1.40808">
        <ele>46</ele>
        <time>2020-09-26T12:04:28.000Z</time>
      </trkpt>
      <trkpt lat="47.27894" lon="-1.40819">
        <ele>46</ele>
        <time>2020-09-26T12:04:30.000Z</time>
      </trkpt>
      <trkpt lat="47.27885" lon="-1.40832">
        <ele>46</ele>
        <time>2020-09-26T12:04:32.000Z</time>
      </trkpt>
      <trkpt lat="47.27876" lon="-1.40847">
        <ele>46</ele>
        <time>2020-09-26T12:04:34.000Z</time>
      </trkpt>
      <trkpt lat="47.27869" lon="-1.40863">
        <ele>46</ele>
        <time>2020-09-26T12:04:36.000Z</time>
      </trkpt>
      <trkpt lat="47.27862" lon="-1.40879">
        <ele>46</ele>
        <time>2020-09-26T12:04:38.000Z</time>
      </trkpt>
      <trkpt lat="47.27854" lon="-1.40894">
        <ele>46</ele>
        <time>2020-09-26T12:04:40.000Z</time>
      </trkpt>
      <trkpt lat="47.27847" lon="-1.4091">
        <ele>46</ele>
        <time>2020-09-26T12:04:42.000Z</time>
      </trkpt>
      <trkpt lat="47.2784" lon="-1.40924">
        <ele>46</ele>
        <time>2020-09-26T12:04:44.000Z</time>
      </trkpt>
      <trkpt lat="47.27832" lon="-1.40939">
        <ele>46</ele>
        <time>2020-09-26T12:04:46.000Z</time>
      </trkpt>
      <trkpt lat="47.27824" lon="-1.40954">
        <ele>46</ele>
        <time>2020-09-26T12:04:48.000Z</time>
      </trkpt>
      <trkpt lat="47.27817" lon="-1.40968">
        <ele>46</ele>
        <time>2020-09-26T12:04:50.000Z</time>
      </trkpt>
      <trkpt lat="47.27808" lon="-1.40983">
        <ele>46</ele>
        <time>2020-09-26T12:04:52.000Z</time>
      </trkpt>
      <trkpt lat="47.278" lon="-1.40997">
        <ele>46</ele>
        <time>2020-09-26T12:04:54.000Z</time>
      </trkpt>
      <trkpt lat="47.27791" lon="-1.41009">
        <ele>46</ele>
        <time>2020-09-26T12:04:56.000Z</time>
      </trkpt>
      <trkpt lat="47.27782" lon="-1.41022">
        <ele>46</ele>
        <time>2020-09-26T12:04:58.000Z</time>
      </trkpt>
      <trkpt lat="47.27775" lon="-1.41037">
        <ele>46</ele>
        <time>2020-09-26T12:05:00.000Z</time>
      </trkpt>
      <trkpt lat="47.2777" lon="-1.41053">
        <ele>46</ele>
        <time>2020-09-26T12:05:02.000Z</time>
      </trkpt>
      <trkpt lat="47.27762" lon="-1.4107">
        <ele>46</ele>
        <time>2020-09-26T12:05:04.000Z</time>
      </trkpt>
      <trkpt lat="47.27751" lon="-1.41082">
        <ele>46</ele>
        <time>2020-09-26T12:05:06.000Z</time>
      </trkpt>
      <trkpt lat="47.2774" lon="-1.41093">
        <ele>45</ele>
        <time>2020-09-26T12:05:08.000Z</time>
      </trkpt>
      <trkpt lat="47.27728" lon="-1.41104">
        <ele>45</ele>
        <time>2020-09-26T12:05:10.000Z</time>
      </trkpt>
      <trkpt lat="47.27717" lon="-1.41115">
        <ele>45</ele>
        <time>2020-09-26T12:05:12.000Z</time>
      </trkpt>
      <trkpt lat="47.27706" lon="-1.41126">
        <ele>45</ele>
        <time>2020-09-26T12:05:14.000Z</time>
      </trkpt>
      <trkpt lat="47.27696" lon="-1.41137">
        <ele>45</ele>
        <time>2020-09-26T12:05:16.000Z</time>
      </trkpt>
      <trkpt lat="47.27685" lon="-1.4115">
        <ele>45</ele>
        <time>2020-09-26T12:05:18.000Z</time>
      </trkpt>
      <trkpt lat="47.27675" lon="-1.41161">
        <ele>44</ele>
        <time>2020-09-26T12:05:20.000Z</time>
      </trkpt>
      <trkpt lat="47.27665" lon="-1.41173">
        <ele>44</ele>
        <time>2020-09-26T12:05:22.000Z</time>
      </trkpt>
      <trkpt lat="47.27655" lon="-1.41184">
        <ele>44</ele>
        <time>2020-09-26T12:05:24.000Z</time>
      </trkpt>
      <trkpt lat="47.27644" lon="-1.41195">
        <ele>45</ele>
        <time>2020-09-26T12:05:26.000Z</time>
      </trkpt>
      <trkpt lat="47.27633" lon="-1.41206">
        <ele>45</ele>
        <time>2020-09-26T12:05:28.000Z</time>
      </trkpt>
      <trkpt lat="47.27622" lon="-1.41217">
        <ele>45</ele>
        <time>2020-09-26T12:05:30.000Z</time>
      </trkpt>
      <trkpt lat="47.27612" lon="-1.41228">
        <ele>45</ele>
        <time>2020-09-26T12:05:32.000Z</time>
      </trkpt>
      <trkpt lat="47.27601" lon="-1.41239">
        <ele>45</ele>
        <time>2020-09-26T12:05:34.000Z</time>
      </trkpt>
      <trkpt lat="47.27591" lon="-1.4125">
        <ele>44</ele>
        <time>2020-09-26T12:05:36.000Z</time>
      </trkpt>
      <trkpt lat="47.2758" lon="-1.41262">
        <ele>45</ele>
        <time>2020-09-26T12:05:38.000Z</time>
      </trkpt>
      <trkpt lat="47.2757" lon="-1.41274">
        <ele>45</ele>
        <time>2020-09-26T12:05:40.000Z</time>
      </trkpt>
      <trkpt lat="47.2756" lon="-1.41287">
        <ele>45</ele>
        <time>2020-09-26T12:05:42.000Z</time>
      </trkpt>
      <trkpt lat="47.2755" lon="-1.41299">
        <ele>45</ele>
        <time>2020-09-26T12:05:44.000Z</time>
      </trkpt>
      <trkpt lat="47.2754" lon="-1.41312">
        <ele>45</ele>
        <time>2020-09-26T12:05:46.000Z</time>
      </trkpt>
      <trkpt lat="47.27531" lon="-1.41325">
        <ele>45</ele>
        <time>2020-09-26T12:05:48.000Z</time>
      </trkpt>
      <trkpt lat="47.27522" lon="-1.41338">
        <ele>45</ele>
        <time>2020-09-26T12:05:50.000Z</time>
      </trkpt>
      <trkpt lat="47.27512" lon="-1.4135">
        <ele>45</ele>
        <time>2020-09-26T12:05:52.000Z</time>
      </trkpt>
      <trkpt lat="47.27503" lon="-1.41363">
        <ele>45</ele>
        <time>2020-09-26T12:05:54.000Z</time>
      </trkpt>
      <trkpt lat="47.27495" lon="-1.41377">
        <ele>45</ele>
        <time>2020-09-26T12:05:56.000Z</time>
      </trkpt>
      <trkpt lat="47.27487" lon="-1.41391">
        <ele>45</ele>
        <time>2020-09-26T12:05:58.000Z</time>
      </trkpt>
      <trkpt lat="47.27478" lon="-1.41405">
        <ele>45</ele>
        <time>2020-09-26T12:06:00.000Z</time>
      </trkpt>
      <trkpt lat="47.2747" lon="-1.41419">
        <ele>45</ele>
        <time>2020-09-26T12:06:02.000Z</time>
      </trkpt>
      <trkpt lat="47.27462" lon="-1.41433">
        <ele>45</ele>
        <time>2020-09-26T12:06:04.000Z</time>
      </trkpt>
      <trkpt lat="47.27454" lon="-1.41447">
        <ele>45</ele>
        <time>2020-09-26T12:06:06.000Z</time>
      </trkpt>
      <trkpt lat="47.27446" lon="-1.41462">
        <ele>45</ele>
        <time>2020-09-26T12:06:08.000Z</time>
      </trkpt>
      <trkpt lat="47.27438" lon="-1.41476">
        <ele>45</ele>
        <time>2020-09-26T12:06:10.000Z</time>
      </trkpt>
      <trkpt lat="47.2743" lon="-1.41491">
        <ele>44</ele>
        <time>2020-09-26T12:06:12.000Z</time>
      </trkpt>
      <trkpt lat="47.27421" lon="-1.41505">
        <ele>44</ele>
        <time>2020-09-26T12:06:14.000Z</time>
      </trkpt>
      <trkpt lat="47.27413" lon="-1.41518">
        <ele>44</ele>
        <time>2020-09-26T12:06:16.000Z</time>
      </trkpt>
      <trkpt lat="47.27404" lon="-1.41532">
        <ele>44</ele>
        <time>2020-09-26T12:06:18.000Z</time>
      </trkpt>
      <trkpt lat="47.27395" lon="-1.41546">
        <ele>44</ele>
        <time>2020-09-26T12:06:20.000Z</time>
      </trkpt>
      <trkpt lat="47.27386" lon="-1.4156">
        <ele>43</ele>
        <time>2020-09-26T12:06:22.000Z</time>
      </trkpt>
      <trkpt lat="47.27377" lon="-1.41575">
        <ele>43</ele>
        <time>2020-09-26T12:06:24.000Z</time>
      </trkpt>
      <trkpt lat="47.27368" lon="-1.41589">
        <ele>43</ele>
        <time>2020-09-26T12:06:26.000Z</time>
      </trkpt>
      <trkpt lat="47.27359" lon="-1.41603">
        <ele>43</ele>
        <time>2020-09-26T12:06:28.000Z</time>
      </trkpt>
      <trkpt lat="47.27349" lon="-1.41616">
        <ele>44</ele>
        <time>2020-09-26T12:06:30.000Z</time>
      </trkpt>
      <trkpt lat="47.2734" lon="-1.4163">
        <ele>43</ele>
        <time>2020-09-26T12:06:32.000Z</time>
      </trkpt>
      <trkpt lat="47.2733" lon="-1.41645">
        <ele>43</ele>
        <time>2020-09-26T12:06:34.000Z</time>
      </trkpt>
      <trkpt lat="47.27322" lon="-1.4166">
        <ele>43</ele>
        <time>2020-09-26T12:06:36.000Z</time>
      </trkpt>
      <trkpt lat="47.27313" lon="-1.41675">
        <ele>43</ele>
        <time>2020-09-26T12:06:38.000Z</time>
      </trkpt>
      <trkpt lat="47.27305" lon="-1.4169">
        <ele>43</ele>
        <time>2020-09-26T12:06:40.000Z</time>
      </trkpt>
      <trkpt lat="47.27297" lon="-1.41706">
        <ele>43</ele>
        <time>2020-09-26T12:06:42.000Z</time>
      </trkpt>
      <trkpt lat="47.27289" lon="-1.41722">
        <ele>43</ele>
        <time>2020-09-26T12:06:44.000Z</time>
      </trkpt>
      <trkpt lat="47.27281" lon="-1.41738">
        <ele>43</ele>
        <time>2020-09-26T12:06:46.000Z</time>
      </trkpt>
      <trkpt lat="47.27272" lon="-1.41755">
        <ele>43</ele>
        <time>2020-09-26T12:06:48.000Z</time>
      </trkpt>
      <trkpt lat="47.27264" lon="-1.4177">
        <ele>44</ele>
        <time>2020-09-26T12:06:50.000Z</time>
      </trkpt>
      <trkpt lat="47.27257" lon="-1.41785">
        <ele>44</ele>
        <time>2020-09-26T12:06:52.000Z</time>
      </trkpt>
      <trkpt lat="47.27249" lon="-1.418">
        <ele>44</ele>
        <time>2020-09-26T12:06:54.000Z</time>
      </trkpt>
      <trkpt lat="47.2724" lon="-1.41815">
        <ele>44</ele>
        <time>2020-09-26T12:06:56.000Z</time>
      </trkpt>
      <trkpt lat="47.27232" lon="-1.4183">
        <ele>44</ele>
        <time>2020-09-26T12:06:58.000Z</time>
      </trkpt>
      <trkpt lat="47.27224" lon="-1.41845">
        <ele>44</ele>
        <time>2020-09-26T12:07:00.000Z</time>
      </trkpt>
      <trkpt lat="47.27215" lon="-1.41859">
        <ele>44</ele>
        <time>2020-09-26T12:07:02.000Z</time>
      </trkpt>
      <trkpt lat="47.27206" lon="-1.41874">
        <ele>44</ele>
        <time>2020-09-26T12:07:04.000Z</time>
      </trkpt>
      <trkpt lat="47.27198" lon="-1.41888">
        <ele>44</ele>
        <time>2020-09-26T12:07:06.000Z</time>
      </trkpt>
      <trkpt lat="47.2719" lon="-1.41904">
        <ele>44</ele>
        <time>2020-09-26T12:07:08.000Z</time>
      </trkpt>
      <trkpt lat="47.27182" lon="-1.41919">
        <ele>44</ele>
        <time>2020-09-26T12:07:10.000Z</time>
      </trkpt>
      <trkpt lat="47.27173" lon="-1.41933">
        <ele>44</ele>
        <time>2020-09-26T12:07:12.000Z</time>
      </trkpt>
      <trkpt lat="47.27164" lon="-1.41948">
        <ele>45</ele>
        <time>2020-09-26T12:07:14.000Z</time>
      </trkpt>
      <trkpt lat="47.27156" lon="-1.41964">
        <ele>44</ele>
        <time>2020-09-26T12:07:16.000Z</time>
      </trkpt>
      <trkpt lat="47.27147" lon="-1.41979">
        <ele>44</ele>
        <time>2020-09-26T12:07:18.000Z</time>
      </trkpt>
      <trkpt lat="47.27139" lon="-1.41994">
        <ele>44</ele>
        <time>2020-09-26T12:07:20.000Z</time>
      </trkpt>
      <trkpt lat="47.2713" lon="-1.42009">
        <ele>44</ele>
        <time>2020-09-26T12:07:22.000Z</time>
      </trkpt>
      <trkpt lat="47.27121" lon="-1.42023">
        <ele>44</ele>
        <time>2020-09-26T12:07:24.000Z</time>
      </trkpt>
      <trkpt lat="47.27112" lon="-1.42037">
        <ele>43</ele>
        <time>2020-09-26T12:07:26.000Z</time>
      </trkpt>
      <trkpt lat="47.27103" lon="-1.42051">
        <ele>43</ele>
        <time>2020-09-26T12:07:28.000Z</time>
      </trkpt>
      <trkpt lat="47.27094" lon="-1.42064">
        <ele>43</ele>
        <time>2020-09-26T12:07:30.000Z</time>
      </trkpt>
      <trkpt lat="47.27086" lon="-1.42078">
        <ele>44</ele>
        <time>2020-09-26T12:07:32.000Z</time>
      </trkpt>
      <trkpt lat="47.27077" lon="-1.42092">
        <ele>44</ele>
        <time>2020-09-26T12:07:34.000Z</time>
      </trkpt>
      <trkpt lat="47.2707" lon="-1.42107">
        <ele>44</ele>
        <time>2020-09-26T12:07:36.000Z</time>
      </trkpt>
      <trkpt lat="47.27062" lon="-1.42121">
        <ele>44</ele>
        <time>2020-09-26T12:07:38.000Z</time>
      </trkpt>
      <trkpt lat="47.27055" lon="-1.42136">
        <ele>44</ele>
        <time>2020-09-26T12:07:40.000Z</time>
      </trkpt>
      <trkpt lat="47.27047" lon="-1.4215">
        <ele>44</ele>
        <time>2020-09-26T12:07:42.000Z</time>
      </trkpt>
      <trkpt lat="47.27039" lon="-1.42165">
        <ele>45</ele>
        <time>2020-09-26T12:07:44.000Z</time>
      </trkpt>
      <trkpt lat="47.27031" lon="-1.42178">
        <ele>45</ele>
        <time>2020-09-26T12:07:46.000Z</time>
      </trkpt>
      <trkpt lat="47.27023" lon="-1.42193">
        <ele>45</ele>
        <time>2020-09-26T12:07:48.000Z</time>
      </trkpt>
      <trkpt lat="47.27015" lon="-1.42206">
        <ele>44</ele>
        <time>2020-09-26T12:07:50.000Z</time>
      </trkpt>
      <trkpt lat="47.27007" lon="-1.42221">
        <ele>45</ele>
        <time>2020-09-26T12:07:52.000Z</time>
      </trkpt>
      <trkpt lat="47.26999" lon="-1.42235">
        <ele>45</ele>
        <time>2020-09-26T12:07:54.000Z</time>
      </trkpt>
      <trkpt lat="47.2699" lon="-1.42249">
        <ele>45</ele>
        <time>2020-09-26T12:07:56.000Z</time>
      </trkpt>
      <trkpt lat="47.26982" lon="-1.42263">
        <ele>45</ele>
        <time>2020-09-26T12:07:58.000Z</time>
      </trkpt>
      <trkpt lat="47.26975" lon="-1.42277">
        <ele>45</ele>
        <time>2020-09-26T12:08:00.000Z</time>
      </trkpt>
      <trkpt lat="47.26967" lon="-1.42291">
        <ele>45</ele>
        <time>2020-09-26T12:08:02.000Z</time>
      </trkpt>
      <trkpt lat="47.2696" lon="-1.42305">
        <ele>45</ele>
        <time>2020-09-26T12:08:04.000Z</time>
      </trkpt>
      <trkpt lat="47.26952" lon="-1.4232">
        <ele>45</ele>
        <time>2020-09-26T12:08:06.000Z</time>
      </trkpt>
      <trkpt lat="47.26945" lon="-1.42335">
        <ele>45</ele>
        <time>2020-09-26T12:08:08.000Z</time>
      </trkpt>
      <trkpt lat="47.26937" lon="-1.42349">
        <ele>45</ele>
        <time>2020-09-26T12:08:10.000Z</time>
      </trkpt>
      <trkpt lat="47.2693" lon="-1.42364">
        <ele>45</ele>
        <time>2020-09-26T12:08:12.000Z</time>
      </trkpt>
      <trkpt lat="47.26924" lon="-1.42379">
        <ele>45</ele>
        <time>2020-09-26T12:08:14.000Z</time>
      </trkpt>
      <trkpt lat="47.26916" lon="-1.42393">
        <ele>45</ele>
        <time>2020-09-26T12:08:16.000Z</time>
      </trkpt>
      <trkpt lat="47.26909" lon="-1.42408">
        <ele>44</ele>
        <time>2020-09-26T12:08:18.000Z</time>
      </trkpt>
      <trkpt lat="47.26902" lon="-1.42423">
        <ele>44</ele>
        <time>2020-09-26T12:08:20.000Z</time>
      </trkpt>
      <trkpt lat="47.26894" lon="-1.42437">
        <ele>44</ele>
        <time>2020-09-26T12:08:22.000Z</time>
      </trkpt>
      <trkpt lat="47.26886" lon="-1.42451">
        <ele>44</ele>
        <time>2020-09-26T12:08:24.000Z</time>
      </trkpt>
      <trkpt lat="47.26878" lon="-1.42466">
        <ele>43</ele>
        <time>2020-09-26T12:08:26.000Z</time>
      </trkpt>
      <trkpt lat="47.2687" lon="-1.42481">
        <ele>43</ele>
        <time>2020-09-26T12:08:28.000Z</time>
      </trkpt>
      <trkpt lat="47.26862" lon="-1.42496">
        <ele>43</ele>
        <time>2020-09-26T12:08:30.000Z</time>
      </trkpt>
      <trkpt lat="47.26854" lon="-1.4251">
        <ele>43</ele>
        <time>2020-09-26T12:08:32.000Z</time>
      </trkpt>
      <trkpt lat="47.26846" lon="-1.42526">
        <ele>43</ele>
        <time>2020-09-26T12:08:34.000Z</time>
      </trkpt>
      <trkpt lat="47.26839" lon="-1.42541">
        <ele>44</ele>
        <time>2020-09-26T12:08:36.000Z</time>
      </trkpt>
      <trkpt lat="47.26831" lon="-1.42556">
        <ele>44</ele>
        <time>2020-09-26T12:08:38.000Z</time>
      </trkpt>
      <trkpt lat="47.26824" lon="-1.4257">
        <ele>44</ele>
        <time>2020-09-26T12:08:40.000Z</time>
      </trkpt>
      <trkpt lat="47.26817" lon="-1.42586">
        <ele>44</ele>
        <time>2020-09-26T12:08:42.000Z</time>
      </trkpt>
      <trkpt lat="47.2681" lon="-1.42601">
        <ele>44</ele>
        <time>2020-09-26T12:08:44.000Z</time>
      </trkpt>
      <trkpt lat="47.26804" lon="-1.42617">
        <ele>43</ele>
        <time>2020-09-26T12:08:46.000Z</time>
      </trkpt>
      <trkpt lat="47.26798" lon="-1.42633">
        <ele>44</ele>
        <time>2020-09-26T12:08:48.000Z</time>
      </trkpt>
      <trkpt lat="47.26791" lon="-1.42648">
        <ele>43</ele>
        <time>2020-09-26T12:08:50.000Z</time>
      </trkpt>
      <trkpt lat="47.26786" lon="-1.42664">
        <ele>42</ele>
        <time>2020-09-26T12:08:52.000Z</time>
      </trkpt>
      <trkpt lat="47.2678" lon="-1.42681">
        <ele>42</ele>
        <time>2020-09-26T12:08:54.000Z</time>
      </trkpt>
      <trkpt lat="47.26774" lon="-1.42697">
        <ele>42</ele>
        <time>2020-09-26T12:08:56.000Z</time>
      </trkpt>
      <trkpt lat="47.26767" lon="-1.42713">
        <ele>42</ele>
        <time>2020-09-26T12:08:58.000Z</time>
      </trkpt>
      <trkpt lat="47.2676" lon="-1.42728">
        <ele>43</ele>
        <time>2020-09-26T12:09:00.000Z</time>
      </trkpt>
      <trkpt lat="47.26753" lon="-1.42743">
        <ele>43</ele>
        <time>2020-09-26T12:09:02.000Z</time>
      </trkpt>
      <trkpt lat="47.26745" lon="-1.42758">
        <ele>43</ele>
        <time>2020-09-26T12:09:04.000Z</time>
      </trkpt>
      <trkpt lat="47.26737" lon="-1.42773">
        <ele>43</ele>
        <time>2020-09-26T12:09:06.000Z</time>
      </trkpt>
      <trkpt lat="47.26732" lon="-1.42788">
        <ele>43</ele>
        <time>2020-09-26T12:09:08.000Z</time>
      </trkpt>
      <trkpt lat="47.26728" lon="-1.42805">
        <ele>43</ele>
        <time>2020-09-26T12:09:10.000Z</time>
      </trkpt>
      <trkpt lat="47.26723" lon="-1.42822">
        <ele>44</ele>
        <time>2020-09-26T12:09:12.000Z</time>
      </trkpt>
      <trkpt lat="47.26717" lon="-1.4284">
        <ele>44</ele>
        <time>2020-09-26T12:09:14.000Z</time>
      </trkpt>
      <trkpt lat="47.26709" lon="-1.42857">
        <ele>44</ele>
        <time>2020-09-26T12:09:16.000Z</time>
      </trkpt>
      <trkpt lat="47.26702" lon="-1.42874">
        <ele>44</ele>
        <time>2020-09-26T12:09:18.000Z</time>
      </trkpt>
      <trkpt lat="47.26694" lon="-1.42891">
        <ele>44</ele>
        <time>2020-09-26T12:09:20.000Z</time>
      </trkpt>
      <trkpt lat="47.26685" lon="-1.42907">
        <ele>43</ele>
        <time>2020-09-26T12:09:22.000Z</time>
      </trkpt>
      <trkpt lat="47.26678" lon="-1.42924">
        <ele>43</ele>
        <time>2020-09-26T12:09:24.000Z</time>
      </trkpt>
      <trkpt lat="47.2667" lon="-1.4294">
        <ele>44</ele>
        <time>2020-09-26T12:09:26.000Z</time>
      </trkpt>
      <trkpt lat="47.26662" lon="-1.42956">
        <ele>44</ele>
        <time>2020-09-26T12:09:28.000Z</time>
      </trkpt>
      <trkpt lat="47.26655" lon="-1.42972">
        <ele>44</ele>
        <time>2020-09-26T12:09:30.000Z</time>
      </trkpt>
      <trkpt lat="47.26646" lon="-1.42987">
        <ele>44</ele>
        <time>2020-09-26T12:09:32.000Z</time>
      </trkpt>
      <trkpt lat="47.26639" lon="-1.43002">
        <ele>44</ele>
        <time>2020-09-26T12:09:34.000Z</time>
      </trkpt>
      <trkpt lat="47.26632" lon="-1.43018">
        <ele>44</ele>
        <time>2020-09-26T12:09:36.000Z</time>
      </trkpt>
      <trkpt lat="47.26624" lon="-1.43033">
        <ele>44</ele>
        <time>2020-09-26T12:09:38.000Z</time>
      </trkpt>
      <trkpt lat="47.26616" lon="-1.43048">
        <ele>44</ele>
        <time>2020-09-26T12:09:40.000Z</time>
      </trkpt>
      <trkpt lat="47.26608" lon="-1.43063">
        <ele>43</ele>
        <time>2020-09-26T12:09:42.000Z</time>
      </trkpt>
      <trkpt lat="47.26601" lon="-1.43077">
        <ele>43</ele>
        <time>2020-09-26T12:09:44.000Z</time>
      </trkpt>
      <trkpt lat="47.26592" lon="-1.43092">
        <ele>43</ele>
        <time>2020-09-26T12:09:46.000Z</time>
      </trkpt>
      <trkpt lat="47.26584" lon="-1.43106">
        <ele>43</ele>
        <time>2020-09-26T12:09:48.000Z</time>
      </trkpt>
      <trkpt lat="47.26576" lon="-1.4312">
        <ele>43</ele>
        <time>2020-09-26T12:09:50.000Z</time>
      </trkpt>
      <trkpt lat="47.26567" lon="-1.43134">
        <ele>43</ele>
        <time>2020-09-26T12:09:52.000Z</time>
      </trkpt>
      <trkpt lat="47.26558" lon="-1.43147">
        <ele>43</ele>
        <time>2020-09-26T12:09:54.000Z</time>
      </trkpt>
      <trkpt lat="47.26549" lon="-1.4316">
        <ele>43</ele>
        <time>2020-09-26T12:09:56.000Z</time>
      </trkpt>
      <trkpt lat="47.2654" lon="-1.43174">
        <ele>43</ele>
        <time>2020-09-26T12:09:58.000Z</time>
      </trkpt>
      <trkpt lat="47.26532" lon="-1.43187">
        <ele>43</ele>
        <time>2020-09-26T12:10:00.000Z</time>
      </trkpt>
      <trkpt lat="47.26522" lon="-1.432">
        <ele>43</ele>
        <time>2020-09-26T12:10:02.000Z</time>
      </trkpt>
      <trkpt lat="47.26514" lon="-1.43213">
        <ele>44</ele>
        <time>2020-09-26T12:10:04.000Z</time>
      </trkpt>
      <trkpt lat="47.26504" lon="-1.43226">
        <ele>44</ele>
        <time>2020-09-26T12:10:06.000Z</time>
      </trkpt>
      <trkpt lat="47.26495" lon="-1.43238">
        <ele>44</ele>
        <time>2020-09-26T12:10:08.000Z</time>
      </trkpt>
      <trkpt lat="47.26486" lon="-1.4325">
        <ele>45</ele>
        <time>2020-09-26T12:10:10.000Z</time>
      </trkpt>
      <trkpt lat="47.26476" lon="-1.43262">
        <ele>45</ele>
        <time>2020-09-26T12:10:12.000Z</time>
      </trkpt>
      <trkpt lat="47.26467" lon="-1.43275">
        <ele>45</ele>
        <time>2020-09-26T12:10:14.000Z</time>
      </trkpt>
      <trkpt lat="47.26459" lon="-1.43289">
        <ele>45</ele>
        <time>2020-09-26T12:10:16.000Z</time>
      </trkpt>
      <trkpt lat="47.2645" lon="-1.43302">
        <ele>45</ele>
        <time>2020-09-26T12:10:18.000Z</time>
      </trkpt>
      <trkpt lat="47.26442" lon="-1.43316">
        <ele>45</ele>
        <time>2020-09-26T12:10:20.000Z</time>
      </trkpt>
      <trkpt lat="47.26434" lon="-1.43328">
        <ele>45</ele>
        <time>2020-09-26T12:10:22.000Z</time>
      </trkpt>
      <trkpt lat="47.26425" lon="-1.4334">
        <ele>45</ele>
        <time>2020-09-26T12:10:24.000Z</time>
      </trkpt>
      <trkpt lat="47.26416" lon="-1.43352">
        <ele>45</ele>
        <time>2020-09-26T12:10:26.000Z</time>
      </trkpt>
      <trkpt lat="47.26406" lon="-1.43363">
        <ele>45</ele>
        <time>2020-09-26T12:10:28.000Z</time>
      </trkpt>
      <trkpt lat="47.26397" lon="-1.43375">
        <ele>46</ele>
        <time>2020-09-26T12:10:30.000Z</time>
      </trkpt>
      <trkpt lat="47.26387" lon="-1.43387">
        <ele>46</ele>
        <time>2020-09-26T12:10:32.000Z</time>
      </trkpt>
      <trkpt lat="47.26377" lon="-1.43398">
        <ele>46</ele>
        <time>2020-09-26T12:10:34.000Z</time>
      </trkpt>
      <trkpt lat="47.26366" lon="-1.43409">
        <ele>46</ele>
        <time>2020-09-26T12:10:36.000Z</time>
      </trkpt>
      <trkpt lat="47.26357" lon="-1.43421">
        <ele>46</ele>
        <time>2020-09-26T12:10:38.000Z</time>
      </trkpt>
      <trkpt lat="47.26347" lon="-1.43431">
        <ele>46</ele>
        <time>2020-09-26T12:10:40.000Z</time>
      </trkpt>
      <trkpt lat="47.26337" lon="-1.43441">
        <ele>45</ele>
        <time>2020-09-26T12:10:42.000Z</time>
      </trkpt>
      <trkpt lat="47.26327" lon="-1.43451">
        <ele>45</ele>
        <time>2020-09-26T12:10:44.000Z</time>
      </trkpt>
      <trkpt lat="47.26318" lon="-1.43461">
        <ele>45</ele>
        <time>2020-09-26T12:10:46.000Z</time>
      </trkpt>
      <trkpt lat="47.26307" lon="-1.43472">
        <ele>45</ele>
        <time>2020-09-26T12:10:48.000Z</time>
      </trkpt>
      <trkpt lat="47.26297" lon="-1.43481">
        <ele>45</ele>
        <time>2020-09-26T12:10:50.000Z</time>
      </trkpt>
      <trkpt lat="47.26287" lon="-1.43487">
        <ele>46</ele>
        <time>2020-09-26T12:10:52.000Z</time>
      </trkpt>
      <trkpt lat="47.26276" lon="-1.43491">
        <ele>46</ele>
        <time>2020-09-26T12:10:54.000Z</time>
      </trkpt>
      <trkpt lat="47.26263" lon="-1.43494">
        <ele>45</ele>
        <time>2020-09-26T12:10:56.000Z</time>
      </trkpt>
      <trkpt lat="47.26252" lon="-1.43503">
        <ele>45</ele>
        <time>2020-09-26T12:10:58.000Z</time>
      </trkpt>
      <trkpt lat="47.26241" lon="-1.43515">
        <ele>45</ele>
        <time>2020-09-26T12:11:00.000Z</time>
      </trkpt>
      <trkpt lat="47.26231" lon="-1.43524">
        <ele>45</ele>
        <time>2020-09-26T12:11:02.000Z</time>
      </trkpt>
      <trkpt lat="47.26223" lon="-1.43535">
        <ele>45</ele>
        <time>2020-09-26T12:11:04.000Z</time>
      </trkpt>
      <trkpt lat="47.26217" lon="-1.43548">
        <ele>45</ele>
        <time>2020-09-26T12:11:06.000Z</time>
      </trkpt>
      <trkpt lat="47.26215" lon="-1.43566">
        <ele>45</ele>
        <time>2020-09-26T12:11:08.000Z</time>
      </trkpt>
      <trkpt lat="47.26209" lon="-1.43582">
        <ele>44</ele>
        <time>2020-09-26T12:11:10.000Z</time>
      </trkpt>
      <trkpt lat="47.262" lon="-1.43596">
        <ele>44</ele>
        <time>2020-09-26T12:11:12.000Z</time>
      </trkpt>
      <trkpt lat="47.26191" lon="-1.43609">
        <ele>44</ele>
        <time>2020-09-26T12:11:14.000Z</time>
      </trkpt>
      <trkpt lat="47.26183" lon="-1.43621">
        <ele>44</ele>
        <time>2020-09-26T12:11:16.000Z</time>
      </trkpt>
      <trkpt lat="47.26177" lon="-1.43637">
        <ele>44</ele>
        <time>2020-09-26T12:11:18.000Z</time>
      </trkpt>
      <trkpt lat="47.26169" lon="-1.43652">
        <ele>44</ele>
        <time>2020-09-26T12:11:20.000Z</time>
      </trkpt>
      <trkpt lat="47.26159" lon="-1.43666">
        <ele>44</ele>
        <time>2020-09-26T12:11:22.000Z</time>
      </trkpt>
      <trkpt lat="47.2615" lon="-1.43679">
        <ele>44</ele>
        <time>2020-09-26T12:11:24.000Z</time>
      </trkpt>
      <trkpt lat="47.26142" lon="-1.43694">
        <ele>43</ele>
        <time>2020-09-26T12:11:26.000Z</time>
      </trkpt>
      <trkpt lat="47.26133" lon="-1.43707">
        <ele>43</ele>
        <time>2020-09-26T12:11:28.000Z</time>
      </trkpt>
      <trkpt lat="47.26125" lon="-1.43721">
        <ele>43</ele>
        <time>2020-09-26T12:11:30.000Z</time>
      </trkpt>
      <trkpt lat="47.26115" lon="-1.43734">
        <ele>43</ele>
        <time>2020-09-26T12:11:32.000Z</time>
      </trkpt>
      <trkpt lat="47.26105" lon="-1.43747">
        <ele>43</ele>
        <time>2020-09-26T12:11:34.000Z</time>
      </trkpt>
      <trkpt lat="47.26095" lon="-1.43759">
        <ele>43</ele>
        <time>2020-09-26T12:11:36.000Z</time>
      </trkpt>
      <trkpt lat="47.26084" lon="-1.43772">
        <ele>43</ele>
        <time>2020-09-26T12:11:38.000Z</time>
      </trkpt>
      <trkpt lat="47.26074" lon="-1.43786">
        <ele>43</ele>
        <time>2020-09-26T12:11:40.000Z</time>
      </trkpt>
      <trkpt lat="47.26064" lon="-1.438">
        <ele>44</ele>
        <time>2020-09-26T12:11:42.000Z</time>
      </trkpt>
      <trkpt lat="47.26055" lon="-1.43814">
        <ele>44</ele>
        <time>2020-09-26T12:11:44.000Z</time>
      </trkpt>
      <trkpt lat="47.26048" lon="-1.43831">
        <ele>44</ele>
        <time>2020-09-26T12:11:46.000Z</time>
      </trkpt>
      <trkpt lat="47.26041" lon="-1.43848">
        <ele>45</ele>
        <time>2020-09-26T12:11:48.000Z</time>
      </trkpt>
      <trkpt lat="47.26032" lon="-1.43862">
        <ele>45</ele>
        <time>2020-09-26T12:11:50.000Z</time>
      </trkpt>
      <trkpt lat="47.26021" lon="-1.43872">
        <ele>44</ele>
        <time>2020-09-26T12:11:52.000Z</time>
      </trkpt>
      <trkpt lat="47.2601" lon="-1.43882">
        <ele>44</ele>
        <time>2020-09-26T12:11:54.000Z</time>
      </trkpt>
      <trkpt lat="47.26" lon="-1.43893">
        <ele>44</ele>
        <time>2020-09-26T12:11:56.000Z</time>
      </trkpt>
      <trkpt lat="47.2599" lon="-1.43904">
        <ele>44</ele>
        <time>2020-09-26T12:11:58.000Z</time>
      </trkpt>
      <trkpt lat="47.25979" lon="-1.43917">
        <ele>45</ele>
        <time>2020-09-26T12:12:00.000Z</time>
      </trkpt>
      <trkpt lat="47.25969" lon="-1.4393">
        <ele>44</ele>
        <time>2020-09-26T12:12:02.000Z</time>
      </trkpt>
      <trkpt lat="47.25958" lon="-1.43943">
        <ele>45</ele>
        <time>2020-09-26T12:12:04.000Z</time>
      </trkpt>
      <trkpt lat="47.25947" lon="-1.43956">
        <ele>45</ele>
        <time>2020-09-26T12:12:06.000Z</time>
      </trkpt>
      <trkpt lat="47.25936" lon="-1.43968">
        <ele>45</ele>
        <time>2020-09-26T12:12:08.000Z</time>
      </trkpt>
      <trkpt lat="47.25926" lon="-1.43979">
        <ele>46</ele>
        <time>2020-09-26T12:12:10.000Z</time>
      </trkpt>
      <trkpt lat="47.25915" lon="-1.43992">
        <ele>45</ele>
        <time>2020-09-26T12:12:12.000Z</time>
      </trkpt>
      <trkpt lat="47.25905" lon="-1.44004">
        <ele>44</ele>
        <time>2020-09-26T12:12:14.000Z</time>
      </trkpt>
      <trkpt lat="47.25895" lon="-1.44017">
        <ele>44</ele>
        <time>2020-09-26T12:12:16.000Z</time>
      </trkpt>
      <trkpt lat="47.25883" lon="-1.4403">
        <ele>45</ele>
        <time>2020-09-26T12:12:18.000Z</time>
      </trkpt>
      <trkpt lat="47.25875" lon="-1.44046">
        <ele>45</ele>
        <time>2020-09-26T12:12:20.000Z</time>
      </trkpt>
      <trkpt lat="47.25869" lon="-1.44064">
        <ele>45</ele>
        <time>2020-09-26T12:12:22.000Z</time>
      </trkpt>
      <trkpt lat="47.25863" lon="-1.4408">
        <ele>45</ele>
        <time>2020-09-26T12:12:24.000Z</time>
      </trkpt>
      <trkpt lat="47.25854" lon="-1.44093">
        <ele>45</ele>
        <time>2020-09-26T12:12:26.000Z</time>
      </trkpt>
      <trkpt lat="47.25845" lon="-1.44105">
        <ele>45</ele>
        <time>2020-09-26T12:12:28.000Z</time>
      </trkpt>
      <trkpt lat="47.25835" lon="-1.44115">
        <ele>45</ele>
        <time>2020-09-26T12:12:30.000Z</time>
      </trkpt>
      <trkpt lat="47.25825" lon="-1.44126">
        <ele>44</ele>
        <time>2020-09-26T12:12:32.000Z</time>
      </trkpt>
      <trkpt lat="47.25815" lon="-1.44136">
        <ele>45</ele>
        <time>2020-09-26T12:12:34.000Z</time>
      </trkpt>
      <trkpt lat="47.25804" lon="-1.44148">
        <ele>45</ele>
        <time>2020-09-26T12:12:36.000Z</time>
      </trkpt>
      <trkpt lat="47.25795" lon="-1.44159">
        <ele>46</ele>
        <time>2020-09-26T12:12:38.000Z</time>
      </trkpt>
      <trkpt lat="47.25785" lon="-1.44171">
        <ele>46</ele>
        <time>2020-09-26T12:12:40.000Z</time>
      </trkpt>
      <trkpt lat="47.25775" lon="-1.44182">
        <ele>46</ele>
        <time>2020-09-26T12:12:42.000Z</time>
      </trkpt>
      <trkpt lat="47.25765" lon="-1.44194">
        <ele>46</ele>
        <time>2020-09-26T12:12:44.000Z</time>
      </trkpt>
      <trkpt lat="47.25755" lon="-1.44207">
        <ele>46</ele>
        <time>2020-09-26T12:12:46.000Z</time>
      </trkpt>
      <trkpt lat="47.25745" lon="-1.4422">
        <ele>46</ele>
        <time>2020-09-26T12:12:48.000Z</time>
      </trkpt>
      <trkpt lat="47.25735" lon="-1.44232">
        <ele>46</ele>
        <time>2020-09-26T12:12:50.000Z</time>
      </trkpt>
      <trkpt lat="47.25726" lon="-1.44244">
        <ele>46</ele>
        <time>2020-09-26T12:12:52.000Z</time>
      </trkpt>
      <trkpt lat="47.25717" lon="-1.44256">
        <ele>47</ele>
        <time>2020-09-26T12:12:54.000Z</time>
      </trkpt>
      <trkpt lat="47.25707" lon="-1.44268">
        <ele>47</ele>
        <time>2020-09-26T12:12:56.000Z</time>
      </trkpt>
      <trkpt lat="47.25697" lon="-1.4428">
        <ele>46</ele>
        <time>2020-09-26T12:12:58.000Z</time>
      </trkpt>
      <trkpt lat="47.25688" lon="-1.44291">
        <ele>46</ele>
        <time>2020-09-26T12:13:00.000Z</time>
      </trkpt>
      <trkpt lat="47.25678" lon="-1.44303">
        <ele>46</ele>
        <time>2020-09-26T12:13:02.000Z</time>
      </trkpt>
      <trkpt lat="47.25669" lon="-1.44315">
        <ele>46</ele>
        <time>2020-09-26T12:13:04.000Z</time>
      </trkpt>
      <trkpt lat="47.25659" lon="-1.44328">
        <ele>46</ele>
        <time>2020-09-26T12:13:06.000Z</time>
      </trkpt>
      <trkpt lat="47.25649" lon="-1.44339">
        <ele>46</ele>
        <time>2020-09-26T12:13:08.000Z</time>
      </trkpt>
      <trkpt lat="47.25639" lon="-1.44351">
        <ele>46</ele>
        <time>2020-09-26T12:13:10.000Z</time>
      </trkpt>
      <trkpt lat="47.25628" lon="-1.44362">
        <ele>46</ele>
        <time>2020-09-26T12:13:12.000Z</time>
      </trkpt>
      <trkpt lat="47.25617" lon="-1.44375">
        <ele>46</ele>
        <time>2020-09-26T12:13:14.000Z</time>
      </trkpt>
      <trkpt lat="47.25607" lon="-1.44386">
        <ele>47</ele>
        <time>2020-09-26T12:13:16.000Z</time>
      </trkpt>
      <trkpt lat="47.25597" lon="-1.44397">
        <ele>46</ele>
        <time>2020-09-26T12:13:18.000Z</time>
      </trkpt>
      <trkpt lat="47.25587" lon="-1.44409">
        <ele>46</ele>
        <time>2020-09-26T12:13:20.000Z</time>
      </trkpt>
      <trkpt lat="47.25577" lon="-1.4442">
        <ele>46</ele>
        <time>2020-09-26T12:13:22.000Z</time>
      </trkpt>
      <trkpt lat="47.25567" lon="-1.44433">
        <ele>46</ele>
        <time>2020-09-26T12:13:24.000Z</time>
      </trkpt>
      <trkpt lat="47.25558" lon="-1.44446">
        <ele>46</ele>
        <time>2020-09-26T12:13:26.000Z</time>
      </trkpt>
      <trkpt lat="47.25549" lon="-1.4446">
        <ele>46</ele>
        <time>2020-09-26T12:13:28.000Z</time>
      </trkpt>
      <trkpt lat="47.25539" lon="-1.44473">
        <ele>47</ele>
        <time>2020-09-26T12:13:30.000Z</time>
      </trkpt>
      <trkpt lat="47.2553" lon="-1.44486">
        <ele>47</ele>
        <time>2020-09-26T12:13:32.000Z</time>
      </trkpt>
      <trkpt lat="47.25521" lon="-1.445">
        <ele>46</ele>
        <time>2020-09-26T12:13:34.000Z</time>
      </trkpt>
      <trkpt lat="47.25512" lon="-1.44514">
        <ele>46</ele>
        <time>2020-09-26T12:13:36.000Z</time>
      </trkpt>
      <trkpt lat="47.25503" lon="-1.44527">
        <ele>45</ele>
        <time>2020-09-26T12:13:38.000Z</time>
      </trkpt>
      <trkpt lat="47.25494" lon="-1.44541">
        <ele>45</ele>
        <time>2020-09-26T12:13:40.000Z</time>
      </trkpt>
      <trkpt lat="47.25484" lon="-1.44554">
        <ele>44</ele>
        <time>2020-09-26T12:13:42.000Z</time>
      </trkpt>
      <trkpt lat="47.25475" lon="-1.44567">
        <ele>44</ele>
        <time>2020-09-26T12:13:44.000Z</time>
      </trkpt>
      <trkpt lat="47.25466" lon="-1.4458">
        <ele>44</ele>
        <time>2020-09-26T12:13:46.000Z</time>
      </trkpt>
      <trkpt lat="47.25457" lon="-1.44594">
        <ele>45</ele>
        <time>2020-09-26T12:13:48.000Z</time>
      </trkpt>
      <trkpt lat="47.25449" lon="-1.44607">
        <ele>45</ele>
        <time>2020-09-26T12:13:50.000Z</time>
      </trkpt>
      <trkpt lat="47.2544" lon="-1.4462">
        <ele>45</ele>
        <time>2020-09-26T12:13:52.000Z</time>
      </trkpt>
      <trkpt lat="47.25431" lon="-1.44633">
        <ele>45</ele>
        <time>2020-09-26T12:13:54.000Z</time>
      </trkpt>
      <trkpt lat="47.25422" lon="-1.44646">
        <ele>45</ele>
        <time>2020-09-26T12:13:56.000Z</time>
      </trkpt>
      <trkpt lat="47.25412" lon="-1.44658">
        <ele>45</ele>
        <time>2020-09-26T12:13:58.000Z</time>
      </trkpt>
      <trkpt lat="47.25402" lon="-1.44671">
        <ele>44</ele>
        <time>2020-09-26T12:14:00.000Z</time>
      </trkpt>
      <trkpt lat="47.25393" lon="-1.44684">
        <ele>44</ele>
        <time>2020-09-26T12:14:02.000Z</time>
      </trkpt>
      <trkpt lat="47.25382" lon="-1.44697">
        <ele>43</ele>
        <time>2020-09-26T12:14:04.000Z</time>
      </trkpt>
      <trkpt lat="47.25372" lon="-1.44708">
        <ele>43</ele>
        <time>2020-09-26T12:14:06.000Z</time>
      </trkpt>
      <trkpt lat="47.25362" lon="-1.4472">
        <ele>43</ele>
        <time>2020-09-26T12:14:08.000Z</time>
      </trkpt>
      <trkpt lat="47.25352" lon="-1.44731">
        <ele>43</ele>
        <time>2020-09-26T12:14:10.000Z</time>
      </trkpt>
      <trkpt lat="47.25341" lon="-1.44741">
        <ele>43</ele>
        <time>2020-09-26T12:14:12.000Z</time>
      </trkpt>
      <trkpt lat="47.2533" lon="-1.44751">
        <ele>43</ele>
        <time>2020-09-26T12:14:14.000Z</time>
      </trkpt>
      <trkpt lat="47.25319" lon="-1.44761">
        <ele>43</ele>
        <time>2020-09-26T12:14:16.000Z</time>
      </trkpt>
      <trkpt lat="47.25309" lon="-1.44772">
        <ele>43</ele>
        <time>2020-09-26T12:14:18.000Z</time>
      </trkpt>
      <trkpt lat="47.25299" lon="-1.44784">
        <ele>43</ele>
        <time>2020-09-26T12:14:20.000Z</time>
      </trkpt>
      <trkpt lat="47.25288" lon="-1.44795">
        <ele>43</ele>
        <time>2020-09-26T12:14:22.000Z</time>
      </trkpt>
      <trkpt lat="47.25278" lon="-1.44808">
        <ele>43</ele>
        <time>2020-09-26T12:14:24.000Z</time>
      </trkpt>
      <trkpt lat="47.25268" lon="-1.4482">
        <ele>42</ele>
        <time>2020-09-26T12:14:26.000Z</time>
      </trkpt>
      <trkpt lat="47.25258" lon="-1.44832">
        <ele>42</ele>
        <time>2020-09-26T12:14:28.000Z</time>
      </trkpt>
      <trkpt lat="47.25247" lon="-1.44844">
        <ele>42</ele>
        <time>2020-09-26T12:14:30.000Z</time>
      </trkpt>
      <trkpt lat="47.25236" lon="-1.44855">
        <ele>42</ele>
        <time>2020-09-26T12:14:32.000Z</time>
      </trkpt>
      <trkpt lat="47.25225" lon="-1.44866">
        <ele>42</ele>
        <time>2020-09-26T12:14:34.000Z</time>
      </trkpt>
      <trkpt lat="47.25214" lon="-1.44876">
        <ele>42</ele>
        <time>2020-09-26T12:14:36.000Z</time>
      </trkpt>
      <trkpt lat="47.25203" lon="-1.44886">
        <ele>43</ele>
        <time>2020-09-26T12:14:38.000Z</time>
      </trkpt>
      <trkpt lat="47.25192" lon="-1.44896">
        <ele>43</ele>
        <time>2020-09-26T12:14:40.000Z</time>
      </trkpt>
      <trkpt lat="47.2518" lon="-1.44905">
        <ele>43</ele>
        <time>2020-09-26T12:14:42.000Z</time>
      </trkpt>
      <trkpt lat="47.25169" lon="-1.44914">
        <ele>43</ele>
        <time>2020-09-26T12:14:44.000Z</time>
      </trkpt>
      <trkpt lat="47.25157" lon="-1.44923">
        <ele>43</ele>
        <time>2020-09-26T12:14:46.000Z</time>
      </trkpt>
      <trkpt lat="47.25146" lon="-1.44933">
        <ele>43</ele>
        <time>2020-09-26T12:14:48.000Z</time>
      </trkpt>
      <trkpt lat="47.25135" lon="-1.44944">
        <ele>43</ele>
        <time>2020-09-26T12:14:50.000Z</time>
      </trkpt>
      <trkpt lat="47.25124" lon="-1.44955">
        <ele>43</ele>
        <time>2020-09-26T12:14:52.000Z</time>
      </trkpt>
      <trkpt lat="47.25113" lon="-1.44965">
        <ele>43</ele>
        <time>2020-09-26T12:14:54.000Z</time>
      </trkpt>
      <trkpt lat="47.25103" lon="-1.44976">
        <ele>44</ele>
        <time>2020-09-26T12:14:56.000Z</time>
      </trkpt>
      <trkpt lat="47.25092" lon="-1.44985">
        <ele>44</ele>
        <time>2020-09-26T12:14:58.000Z</time>
      </trkpt>
      <trkpt lat="47.25081" lon="-1.44994">
        <ele>44</ele>
        <time>2020-09-26T12:15:00.000Z</time>
      </trkpt>
      <trkpt lat="47.2507" lon="-1.45003">
        <ele>45</ele>
        <time>2020-09-26T12:15:02.000Z</time>
      </trkpt>
      <trkpt lat="47.25059" lon="-1.45013">
        <ele>46</ele>
        <time>2020-09-26T12:15:04.000Z</time>
      </trkpt>
      <trkpt lat="47.25048" lon="-1.45021">
        <ele>46</ele>
        <time>2020-09-26T12:15:06.000Z</time>
      </trkpt>
      <trkpt lat="47.25036" lon="-1.4503">
        <ele>46</ele>
        <time>2020-09-26T12:15:08.000Z</time>
      </trkpt>
      <trkpt lat="47.25024" lon="-1.45038">
        <ele>46</ele>
        <time>2020-09-26T12:15:10.000Z</time>
      </trkpt>
      <trkpt lat="47.25013" lon="-1.45048">
        <ele>45</ele>
        <time>2020-09-26T12:15:12.000Z</time>
      </trkpt>
      <trkpt lat="47.25003" lon="-1.45058">
        <ele>45</ele>
        <time>2020-09-26T12:15:14.000Z</time>
      </trkpt>
      <trkpt lat="47.24992" lon="-1.4507">
        <ele>45</ele>
        <time>2020-09-26T12:15:16.000Z</time>
      </trkpt>
      <trkpt lat="47.24982" lon="-1.45082">
        <ele>45</ele>
        <time>2020-09-26T12:15:18.000Z</time>
      </trkpt>
      <trkpt lat="47.24972" lon="-1.45093">
        <ele>45</ele>
        <time>2020-09-26T12:15:20.000Z</time>
      </trkpt>
      <trkpt lat="47.24962" lon="-1.45104">
        <ele>45</ele>
        <time>2020-09-26T12:15:22.000Z</time>
      </trkpt>
      <trkpt lat="47.24952" lon="-1.45115">
        <ele>44</ele>
        <time>2020-09-26T12:15:24.000Z</time>
      </trkpt>
      <trkpt lat="47.24942" lon="-1.45126">
        <ele>44</ele>
        <time>2020-09-26T12:15:26.000Z</time>
      </trkpt>
      <trkpt lat="47.24932" lon="-1.45136">
        <ele>44</ele>
        <time>2020-09-26T12:15:28.000Z</time>
      </trkpt>
      <trkpt lat="47.24921" lon="-1.45147">
        <ele>44</ele>
        <time>2020-09-26T12:15:30.000Z</time>
      </trkpt>
      <trkpt lat="47.24911" lon="-1.45158">
        <ele>43</ele>
        <time>2020-09-26T12:15:32.000Z</time>
      </trkpt>
      <trkpt lat="47.24902" lon="-1.45169">
        <ele>43</ele>
        <time>2020-09-26T12:15:34.000Z</time>
      </trkpt>
      <trkpt lat="47.24894" lon="-1.45181">
        <ele>44</ele>
        <time>2020-09-26T12:15:36.000Z</time>
      </trkpt>
      <trkpt lat="47.24886" lon="-1.45193">
        <ele>44</ele>
        <time>2020-09-26T12:15:38.000Z</time>
      </trkpt>
      <trkpt lat="47.24878" lon="-1.45205">
        <ele>44</ele>
        <time>2020-09-26T12:15:40.000Z</time>
      </trkpt>
      <trkpt lat="47.2487" lon="-1.45217">
        <ele>44</ele>
        <time>2020-09-26T12:15:42.000Z</time>
      </trkpt>
      <trkpt lat="47.24862" lon="-1.4523">
        <ele>45</ele>
        <time>2020-09-26T12:15:44.000Z</time>
      </trkpt>
      <trkpt lat="47.24853" lon="-1.45242">
        <ele>45</ele>
        <time>2020-09-26T12:15:46.000Z</time>
      </trkpt>
      <trkpt lat="47.24844" lon="-1.45256">
        <ele>44</ele>
        <time>2020-09-26T12:15:48.000Z</time>
      </trkpt>
      <trkpt lat="47.24835" lon="-1.4527">
        <ele>44</ele>
        <time>2020-09-26T12:15:50.000Z</time>
      </trkpt>
      <trkpt lat="47.24826" lon="-1.45284">
        <ele>44</ele>
        <time>2020-09-26T12:15:52.000Z</time>
      </trkpt>
      <trkpt lat="47.24818" lon="-1.45298">
        <ele>44</ele>
        <time>2020-09-26T12:15:54.000Z</time>
      </trkpt>
      <trkpt lat="47.24811" lon="-1.45312">
        <ele>44</ele>
        <time>2020-09-26T12:15:56.000Z</time>
      </trkpt>
      <trkpt lat="47.24804" lon="-1.45328">
        <ele>44</ele>
        <time>2020-09-26T12:15:58.000Z</time>
      </trkpt>
      <trkpt lat="47.24797" lon="-1.45342">
        <ele>43</ele>
        <time>2020-09-26T12:16:00.000Z</time>
      </trkpt>
      <trkpt lat="47.2479" lon="-1.45357">
        <ele>43</ele>
        <time>2020-09-26T12:16:02.000Z</time>
      </trkpt>
      <trkpt lat="47.24785" lon="-1.45372">
        <ele>43</ele>
        <time>2020-09-26T12:16:04.000Z</time>
      </trkpt>
      <trkpt lat="47.24779" lon="-1.45388">
        <ele>43</ele>
        <time>2020-09-26T12:16:06.000Z</time>
      </trkpt>
      <trkpt lat="47.24773" lon="-1.45403">
        <ele>43</ele>
        <time>2020-09-26T12:16:08.000Z</time>
      </trkpt>
      <trkpt lat="47.24766" lon="-1.45419">
        <ele>44</ele>
        <time>2020-09-26T12:16:10.000Z</time>
      </trkpt>
      <trkpt lat="47.2476" lon="-1.45435">
        <ele>43</ele>
        <time>2020-09-26T12:16:12.000Z</time>
      </trkpt>
      <trkpt lat="47.24754" lon="-1.45451">
        <ele>43</ele>
        <time>2020-09-26T12:16:14.000Z</time>
      </trkpt>
      <trkpt lat="47.24748" lon="-1.45467">
        <ele>44</ele>
        <time>2020-09-26T12:16:16.000Z</time>
      </trkpt>
      <trkpt lat="47.24742" lon="-1.45483">
        <ele>44</ele>
        <time>2020-09-26T12:16:18.000Z</time>
      </trkpt>
      <trkpt lat="47.24735" lon="-1.45499">
        <ele>44</ele>
        <time>2020-09-26T12:16:20.000Z</time>
      </trkpt>
      <trkpt lat="47.24729" lon="-1.45516">
        <ele>43</ele>
        <time>2020-09-26T12:16:22.000Z</time>
      </trkpt>
      <trkpt lat="47.24723" lon="-1.45532">
        <ele>43</ele>
        <time>2020-09-26T12:16:24.000Z</time>
      </trkpt>
      <trkpt lat="47.24717" lon="-1.45548">
        <ele>43</ele>
        <time>2020-09-26T12:16:26.000Z</time>
      </trkpt>
      <trkpt lat="47.24711" lon="-1.45565">
        <ele>44</ele>
        <time>2020-09-26T12:16:28.000Z</time>
      </trkpt>
      <trkpt lat="47.24706" lon="-1.45581">
        <ele>44</ele>
        <time>2020-09-26T12:16:30.000Z</time>
      </trkpt>
      <trkpt lat="47.24701" lon="-1.45598">
        <ele>44</ele>
        <time>2020-09-26T12:16:32.000Z</time>
      </trkpt>
      <trkpt lat="47.24696" lon="-1.45614">
        <ele>45</ele>
        <time>2020-09-26T12:16:34.000Z</time>
      </trkpt>
      <trkpt lat="47.2469" lon="-1.4563">
        <ele>45</ele>
        <time>2020-09-26T12:16:36.000Z</time>
      </trkpt>
      <trkpt lat="47.24685" lon="-1.45646">
        <ele>45</ele>
        <time>2020-09-26T12:16:38.000Z</time>
      </trkpt>
      <trkpt lat="47.2468" lon="-1.45662">
        <ele>45</ele>
        <time>2020-09-26T12:16:40.000Z</time>
      </trkpt>
      <trkpt lat="47.24676" lon="-1.45677">
        <ele>45</ele>
        <time>2020-09-26T12:16:42.000Z</time>
      </trkpt>
      <trkpt lat="47.24673" lon="-1.45693">
        <ele>45</ele>
        <time>2020-09-26T12:16:44.000Z</time>
      </trkpt>
      <trkpt lat="47.24668" lon="-1.4571">
        <ele>44</ele>
        <time>2020-09-26T12:16:46.000Z</time>
      </trkpt>
      <trkpt lat="47.24664" lon="-1.45728">
        <ele>44</ele>
        <time>2020-09-26T12:16:48.000Z</time>
      </trkpt>
      <trkpt lat="47.2466" lon="-1.45746">
        <ele>43</ele>
        <time>2020-09-26T12:16:50.000Z</time>
      </trkpt>
      <trkpt lat="47.24656" lon="-1.45763">
        <ele>43</ele>
        <time>2020-09-26T12:16:52.000Z</time>
      </trkpt>
      <trkpt lat="47.24652" lon="-1.45779">
        <ele>43</ele>
        <time>2020-09-26T12:16:54.000Z</time>
      </trkpt>
      <trkpt lat="47.24647" lon="-1.45796">
        <ele>43</ele>
        <time>2020-09-26T12:16:56.000Z</time>
      </trkpt>
      <trkpt lat="47.24641" lon="-1.45813">
        <ele>43</ele>
        <time>2020-09-26T12:16:58.000Z</time>
      </trkpt>
      <trkpt lat="47.24636" lon="-1.4583">
        <ele>43</ele>
        <time>2020-09-26T12:17:00.000Z</time>
      </trkpt>
      <trkpt lat="47.2463" lon="-1.45847">
        <ele>43</ele>
        <time>2020-09-26T12:17:02.000Z</time>
      </trkpt>
      <trkpt lat="47.24626" lon="-1.45865">
        <ele>44</ele>
        <time>2020-09-26T12:17:04.000Z</time>
      </trkpt>
      <trkpt lat="47.24621" lon="-1.45883">
        <ele>43</ele>
        <time>2020-09-26T12:17:06.000Z</time>
      </trkpt>
      <trkpt lat="47.24616" lon="-1.45901">
        <ele>44</ele>
        <time>2020-09-26T12:17:08.000Z</time>
      </trkpt>
      <trkpt lat="47.2461" lon="-1.45917">
        <ele>44</ele>
        <time>2020-09-26T12:17:10.000Z</time>
      </trkpt>
      <trkpt lat="47.24605" lon="-1.45933">
        <ele>43</ele>
        <time>2020-09-26T12:17:12.000Z</time>
      </trkpt>
      <trkpt lat="47.24598" lon="-1.45948">
        <ele>42</ele>
        <time>2020-09-26T12:17:14.000Z</time>
      </trkpt>
      <trkpt lat="47.2459" lon="-1.45964">
        <ele>42</ele>
        <time>2020-09-26T12:17:16.000Z</time>
      </trkpt>
      <trkpt lat="47.24584" lon="-1.45979">
        <ele>42</ele>
        <time>2020-09-26T12:17:18.000Z</time>
      </trkpt>
      <trkpt lat="47.24577" lon="-1.45994">
        <ele>42</ele>
        <time>2020-09-26T12:17:20.000Z</time>
      </trkpt>
      <trkpt lat="47.24569" lon="-1.46009">
        <ele>41</ele>
        <time>2020-09-26T12:17:22.000Z</time>
      </trkpt>
      <trkpt lat="47.24561" lon="-1.46025">
        <ele>41</ele>
        <time>2020-09-26T12:17:24.000Z</time>
      </trkpt>
      <trkpt lat="47.24553" lon="-1.4604">
        <ele>41</ele>
        <time>2020-09-26T12:17:26.000Z</time>
      </trkpt>
      <trkpt lat="47.24545" lon="-1.46054">
        <ele>41</ele>
        <time>2020-09-26T12:17:28.000Z</time>
      </trkpt>
      <trkpt lat="47.24537" lon="-1.4607">
        <ele>40</ele>
        <time>2020-09-26T12:17:30.000Z</time>
      </trkpt>
      <trkpt lat="47.24529" lon="-1.46084">
        <ele>40</ele>
        <time>2020-09-26T12:17:32.000Z</time>
      </trkpt>
      <trkpt lat="47.24521" lon="-1.46099">
        <ele>39</ele>
        <time>2020-09-26T12:17:34.000Z</time>
      </trkpt>
      <trkpt lat="47.24512" lon="-1.46111">
        <ele>40</ele>
        <time>2020-09-26T12:17:36.000Z</time>
      </trkpt>
      <trkpt lat="47.24502" lon="-1.46122">
        <ele>40</ele>
        <time>2020-09-26T12:17:38.000Z</time>
      </trkpt>
      <trkpt lat="47.24492" lon="-1.46134">
        <ele>40</ele>
        <time>2020-09-26T12:17:40.000Z</time>
      </trkpt>
      <trkpt lat="47.24483" lon="-1.46147">
        <ele>39</ele>
        <time>2020-09-26T12:17:42.000Z</time>
      </trkpt>
      <trkpt lat="47.24473" lon="-1.4616">
        <ele>39</ele>
        <time>2020-09-26T12:17:44.000Z</time>
      </trkpt>
      <trkpt lat="47.24463" lon="-1.46171">
        <ele>39</ele>
        <time>2020-09-26T12:17:46.000Z</time>
      </trkpt>
      <trkpt lat="47.24454" lon="-1.46182">
        <ele>39</ele>
        <time>2020-09-26T12:17:48.000Z</time>
      </trkpt>
      <trkpt lat="47.24444" lon="-1.46195">
        <ele>38</ele>
        <time>2020-09-26T12:17:50.000Z</time>
      </trkpt>
      <trkpt lat="47.24434" lon="-1.46207">
        <ele>38</ele>
        <time>2020-09-26T12:17:52.000Z</time>
      </trkpt>
      <trkpt lat="47.24424" lon="-1.4622">
        <ele>38</ele>
        <time>2020-09-26T12:17:54.000Z</time>
      </trkpt>
      <trkpt lat="47.24415" lon="-1.46233">
        <ele>38</ele>
        <time>2020-09-26T12:17:56.000Z</time>
      </trkpt>
      <trkpt lat="47.24407" lon="-1.46246">
        <ele>38</ele>
        <time>2020-09-26T12:17:58.000Z</time>
      </trkpt>
      <trkpt lat="47.24397" lon="-1.46259">
        <ele>39</ele>
        <time>2020-09-26T12:18:00.000Z</time>
      </trkpt>
      <trkpt lat="47.24388" lon="-1.46271">
        <ele>38</ele>
        <time>2020-09-26T12:18:02.000Z</time>
      </trkpt>
      <trkpt lat="47.24379" lon="-1.46285">
        <ele>39</ele>
        <time>2020-09-26T12:18:04.000Z</time>
      </trkpt>
      <trkpt lat="47.2437" lon="-1.46298">
        <ele>38</ele>
        <time>2020-09-26T12:18:06.000Z</time>
      </trkpt>
      <trkpt lat="47.24362" lon="-1.4631">
        <ele>39</ele>
        <time>2020-09-26T12:18:08.000Z</time>
      </trkpt>
      <trkpt lat="47.24354" lon="-1.46323">
        <ele>39</ele>
        <time>2020-09-26T12:18:10.000Z</time>
      </trkpt>
      <trkpt lat="47.24345" lon="-1.46337">
        <ele>40</ele>
        <time>2020-09-26T12:18:12.000Z</time>
      </trkpt>
      <trkpt lat="47.24337" lon="-1.46352">
        <ele>40</ele>
        <time>2020-09-26T12:18:14.000Z</time>
      </trkpt>
      <trkpt lat="47.24329" lon="-1.46367">
        <ele>41</ele>
        <time>2020-09-26T12:18:16.000Z</time>
      </trkpt>
      <trkpt lat="47.2432" lon="-1.46382">
        <ele>42</ele>
        <time>2020-09-26T12:18:18.000Z</time>
      </trkpt>
      <trkpt lat="47.24312" lon="-1.46396">
        <ele>42</ele>
        <time>2020-09-26T12:18:20.000Z</time>
      </trkpt>
      <trkpt lat="47.24304" lon="-1.4641">
        <ele>42</ele>
        <time>2020-09-26T12:18:22.000Z</time>
      </trkpt>
      <trkpt lat="47.24296" lon="-1.46424">
        <ele>42</ele>
        <time>2020-09-26T12:18:24.000Z</time>
      </trkpt>
      <trkpt lat="47.24288" lon="-1.46437">
        <ele>42</ele>
        <time>2020-09-26T12:18:26.000Z</time>
      </trkpt>
      <trkpt lat="47.24279" lon="-1.4645">
        <ele>42</ele>
        <time>2020-09-26T12:18:28.000Z</time>
      </trkpt>
      <trkpt lat="47.2427" lon="-1.46462">
        <ele>42</ele>
        <time>2020-09-26T12:18:30.000Z</time>
      </trkpt>
      <trkpt lat="47.24261" lon="-1.46474">
        <ele>42</ele>
        <time>2020-09-26T12:18:32.000Z</time>
      </trkpt>
      <trkpt lat="47.24251" lon="-1.46485">
        <ele>42</ele>
        <time>2020-09-26T12:18:34.000Z</time>
      </trkpt>
      <trkpt lat="47.24242" lon="-1.46498">
        <ele>42</ele>
        <time>2020-09-26T12:18:36.000Z</time>
      </trkpt>
      <trkpt lat="47.24233" lon="-1.4651">
        <ele>42</ele>
        <time>2020-09-26T12:18:38.000Z</time>
      </trkpt>
      <trkpt lat="47.24223" lon="-1.46521">
        <ele>41</ele>
        <time>2020-09-26T12:18:40.000Z</time>
      </trkpt>
      <trkpt lat="47.24214" lon="-1.46533">
        <ele>41</ele>
        <time>2020-09-26T12:18:42.000Z</time>
      </trkpt>
      <trkpt lat="47.24204" lon="-1.46545">
        <ele>41</ele>
        <time>2020-09-26T12:18:44.000Z</time>
      </trkpt>
      <trkpt lat="47.24195" lon="-1.46556">
        <ele>41</ele>
        <time>2020-09-26T12:18:46.000Z</time>
      </trkpt>
      <trkpt lat="47.24186" lon="-1.46569">
        <ele>41</ele>
        <time>2020-09-26T12:18:48.000Z</time>
      </trkpt>
      <trkpt lat="47.24176" lon="-1.4658">
        <ele>40</ele>
        <time>2020-09-26T12:18:50.000Z</time>
      </trkpt>
      <trkpt lat="47.24166" lon="-1.46592">
        <ele>40</ele>
        <time>2020-09-26T12:18:52.000Z</time>
      </trkpt>
      <trkpt lat="47.24158" lon="-1.46604">
        <ele>40</ele>
        <time>2020-09-26T12:18:54.000Z</time>
      </trkpt>
      <trkpt lat="47.24149" lon="-1.46615">
        <ele>41</ele>
        <time>2020-09-26T12:18:56.000Z</time>
      </trkpt>
      <trkpt lat="47.2414" lon="-1.46627">
        <ele>41</ele>
        <time>2020-09-26T12:18:58.000Z</time>
      </trkpt>
      <trkpt lat="47.24131" lon="-1.46639">
        <ele>40</ele>
        <time>2020-09-26T12:19:00.000Z</time>
      </trkpt>
      <trkpt lat="47.24122" lon="-1.46651">
        <ele>40</ele>
        <time>2020-09-26T12:19:02.000Z</time>
      </trkpt>
      <trkpt lat="47.24114" lon="-1.46663">
        <ele>40</ele>
        <time>2020-09-26T12:19:04.000Z</time>
      </trkpt>
      <trkpt lat="47.24104" lon="-1.46676">
        <ele>40</ele>
        <time>2020-09-26T12:19:06.000Z</time>
      </trkpt>
      <trkpt lat="47.24095" lon="-1.4669">
        <ele>40</ele>
        <time>2020-09-26T12:19:08.000Z</time>
      </trkpt>
      <trkpt lat="47.24087" lon="-1.46702">
        <ele>41</ele>
        <time>2020-09-26T12:19:10.000Z</time>
      </trkpt>
      <trkpt lat="47.24081" lon="-1.46717">
        <ele>42</ele>
        <time>2020-09-26T12:19:12.000Z</time>
      </trkpt>
      <trkpt lat="47.24076" lon="-1.46732">
        <ele>42</ele>
        <time>2020-09-26T12:19:14.000Z</time>
      </trkpt>
      <trkpt lat="47.24066" lon="-1.46742">
        <ele>42</ele>
        <time>2020-09-26T12:19:16.000Z</time>
      </trkpt>
      <trkpt lat="47.24053" lon="-1.46749">
        <ele>42</ele>
        <time>2020-09-26T12:19:18.000Z</time>
      </trkpt>
      <trkpt lat="47.24043" lon="-1.4676">
        <ele>42</ele>
        <time>2020-09-26T12:19:20.000Z</time>
      </trkpt>
      <trkpt lat="47.24033" lon="-1.4677">
        <ele>42</ele>
        <time>2020-09-26T12:19:22.000Z</time>
      </trkpt>
      <trkpt lat="47.24022" lon="-1.46782">
        <ele>42</ele>
        <time>2020-09-26T12:19:24.000Z</time>
      </trkpt>
      <trkpt lat="47.24012" lon="-1.46793">
        <ele>42</ele>
        <time>2020-09-26T12:19:26.000Z</time>
      </trkpt>
      <trkpt lat="47.24002" lon="-1.46805">
        <ele>42</ele>
        <time>2020-09-26T12:19:28.000Z</time>
      </trkpt>
      <trkpt lat="47.23992" lon="-1.46815">
        <ele>42</ele>
        <time>2020-09-26T12:19:30.000Z</time>
      </trkpt>
      <trkpt lat="47.23982" lon="-1.46826">
        <ele>42</ele>
        <time>2020-09-26T12:19:32.000Z</time>
      </trkpt>
      <trkpt lat="47.23971" lon="-1.46837">
        <ele>42</ele>
        <time>2020-09-26T12:19:34.000Z</time>
      </trkpt>
      <trkpt lat="47.23961" lon="-1.46849">
        <ele>42</ele>
        <time>2020-09-26T12:19:36.000Z</time>
      </trkpt>
      <trkpt lat="47.2395" lon="-1.4686">
        <ele>43</ele>
        <time>2020-09-26T12:19:38.000Z</time>
      </trkpt>
      <trkpt lat="47.23939" lon="-1.46869">
        <ele>43</ele>
        <time>2020-09-26T12:19:40.000Z</time>
      </trkpt>
      <trkpt lat="47.23928" lon="-1.46878">
        <ele>42</ele>
        <time>2020-09-26T12:19:42.000Z</time>
      </trkpt>
      <trkpt lat="47.23918" lon="-1.46889">
        <ele>43</ele>
        <time>2020-09-26T12:19:44.000Z</time>
      </trkpt>
      <trkpt lat="47.23908" lon="-1.46901">
        <ele>43</ele>
        <time>2020-09-26T12:19:46.000Z</time>
      </trkpt>
      <trkpt lat="47.23898" lon="-1.46914">
        <ele>43</ele>
        <time>2020-09-26T12:19:48.000Z</time>
      </trkpt>
      <trkpt lat="47.23889" lon="-1.46927">
        <ele>42</ele>
        <time>2020-09-26T12:19:50.000Z</time>
      </trkpt>
      <trkpt lat="47.23879" lon="-1.46939">
        <ele>42</ele>
        <time>2020-09-26T12:19:52.000Z</time>
      </trkpt>
      <trkpt lat="47.23868" lon="-1.46952">
        <ele>42</ele>
        <time>2020-09-26T12:19:54.000Z</time>
      </trkpt>
      <trkpt lat="47.23859" lon="-1.46965">
        <ele>42</ele>
        <time>2020-09-26T12:19:56.000Z</time>
      </trkpt>
      <trkpt lat="47.23849" lon="-1.46978">
        <ele>42</ele>
        <time>2020-09-26T12:19:58.000Z</time>
      </trkpt>
      <trkpt lat="47.23839" lon="-1.46992">
        <ele>42</ele>
        <time>2020-09-26T12:20:00.000Z</time>
      </trkpt>
      <trkpt lat="47.2383" lon="-1.47006">
        <ele>42</ele>
        <time>2020-09-26T12:20:02.000Z</time>
      </trkpt>
      <trkpt lat="47.23821" lon="-1.4702">
        <ele>43</ele>
        <time>2020-09-26T12:20:04.000Z</time>
      </trkpt>
      <trkpt lat="47.23812" lon="-1.47033">
        <ele>43</ele>
        <time>2020-09-26T12:20:06.000Z</time>
      </trkpt>
      <trkpt lat="47.23802" lon="-1.47046">
        <ele>43</ele>
        <time>2020-09-26T12:20:08.000Z</time>
      </trkpt>
      <trkpt lat="47.23793" lon="-1.47059">
        <ele>43</ele>
        <time>2020-09-26T12:20:10.000Z</time>
      </trkpt>
      <trkpt lat="47.23783" lon="-1.47072">
        <ele>43</ele>
        <time>2020-09-26T12:20:12.000Z</time>
      </trkpt>
      <trkpt lat="47.23773" lon="-1.47086">
        <ele>42</ele>
        <time>2020-09-26T12:20:14.000Z</time>
      </trkpt>
      <trkpt lat="47.23763" lon="-1.47099">
        <ele>42</ele>
        <time>2020-09-26T12:20:16.000Z</time>
      </trkpt>
      <trkpt lat="47.23754" lon="-1.47112">
        <ele>42</ele>
        <time>2020-09-26T12:20:18.000Z</time>
      </trkpt>
      <trkpt lat="47.23744" lon="-1.47125">
        <ele>42</ele>
        <time>2020-09-26T12:20:20.000Z</time>
      </trkpt>
      <trkpt lat="47.23733" lon="-1.47136">
        <ele>42</ele>
        <time>2020-09-26T12:20:22.000Z</time>
      </trkpt>
      <trkpt lat="47.23724" lon="-1.47149">
        <ele>42</ele>
        <time>2020-09-26T12:20:24.000Z</time>
      </trkpt>
      <trkpt lat="47.23714" lon="-1.47163">
        <ele>42</ele>
        <time>2020-09-26T12:20:26.000Z</time>
      </trkpt>
      <trkpt lat="47.23704" lon="-1.47176">
        <ele>41</ele>
        <time>2020-09-26T12:20:28.000Z</time>
      </trkpt>
      <trkpt lat="47.23695" lon="-1.4719">
        <ele>41</ele>
        <time>2020-09-26T12:20:30.000Z</time>
      </trkpt>
      <trkpt lat="47.23686" lon="-1.47205">
        <ele>41</ele>
        <time>2020-09-26T12:20:32.000Z</time>
      </trkpt>
      <trkpt lat="47.23678" lon="-1.47219">
        <ele>41</ele>
        <time>2020-09-26T12:20:34.000Z</time>
      </trkpt>
      <trkpt lat="47.23667" lon="-1.47232">
        <ele>42</ele>
        <time>2020-09-26T12:20:36.000Z</time>
      </trkpt>
      <trkpt lat="47.23656" lon="-1.47244">
        <ele>42</ele>
        <time>2020-09-26T12:20:38.000Z</time>
      </trkpt>
      <trkpt lat="47.23645" lon="-1.47256">
        <ele>42</ele>
        <time>2020-09-26T12:20:40.000Z</time>
      </trkpt>
      <trkpt lat="47.23634" lon="-1.47268">
        <ele>43</ele>
        <time>2020-09-26T12:20:42.000Z</time>
      </trkpt>
      <trkpt lat="47.23624" lon="-1.4728">
        <ele>43</ele>
        <time>2020-09-26T12:20:44.000Z</time>
      </trkpt>
      <trkpt lat="47.23613" lon="-1.47291">
        <ele>43</ele>
        <time>2020-09-26T12:20:46.000Z</time>
      </trkpt>
      <trkpt lat="47.23603" lon="-1.47302">
        <ele>42</ele>
        <time>2020-09-26T12:20:48.000Z</time>
      </trkpt>
      <trkpt lat="47.23592" lon="-1.47313">
        <ele>42</ele>
        <time>2020-09-26T12:20:50.000Z</time>
      </trkpt>
      <trkpt lat="47.23581" lon="-1.47323">
        <ele>43</ele>
        <time>2020-09-26T12:20:52.000Z</time>
      </trkpt>
      <trkpt lat="47.23569" lon="-1.47333">
        <ele>43</ele>
        <time>2020-09-26T12:20:54.000Z</time>
      </trkpt>
      <trkpt lat="47.23557" lon="-1.47343">
        <ele>43</ele>
        <time>2020-09-26T12:20:56.000Z</time>
      </trkpt>
      <trkpt lat="47.23545" lon="-1.47352">
        <ele>43</ele>
        <time>2020-09-26T12:20:58.000Z</time>
      </trkpt>
      <trkpt lat="47.23534" lon="-1.47363">
        <ele>43</ele>
        <time>2020-09-26T12:21:00.000Z</time>
      </trkpt>
      <trkpt lat="47.23522" lon="-1.47372">
        <ele>43</ele>
        <time>2020-09-26T12:21:02.000Z</time>
      </trkpt>
      <trkpt lat="47.23511" lon="-1.47382">
        <ele>42</ele>
        <time>2020-09-26T12:21:04.000Z</time>
      </trkpt>
      <trkpt lat="47.23499" lon="-1.47392">
        <ele>43</ele>
        <time>2020-09-26T12:21:06.000Z</time>
      </trkpt>
      <trkpt lat="47.23487" lon="-1.47399">
        <ele>43</ele>
        <time>2020-09-26T12:21:08.000Z</time>
      </trkpt>
      <trkpt lat="47.23474" lon="-1.47405">
        <ele>43</ele>
        <time>2020-09-26T12:21:10.000Z</time>
      </trkpt>
      <trkpt lat="47.23461" lon="-1.47411">
        <ele>43</ele>
        <time>2020-09-26T12:21:12.000Z</time>
      </trkpt>
      <trkpt lat="47.23449" lon="-1.47416">
        <ele>43</ele>
        <time>2020-09-26T12:21:14.000Z</time>
      </trkpt>
      <trkpt lat="47.23436" lon="-1.47418">
        <ele>43</ele>
        <time>2020-09-26T12:21:16.000Z</time>
      </trkpt>
      <trkpt lat="47.23424" lon="-1.47425">
        <ele>43</ele>
        <time>2020-09-26T12:21:18.000Z</time>
      </trkpt>
      <trkpt lat="47.23406" lon="-1.47439">
        <ele>43</ele>
        <time>2020-09-26T12:21:21.000Z</time>
      </trkpt>
      <trkpt lat="47.23394" lon="-1.47448">
        <ele>43</ele>
        <time>2020-09-26T12:21:23.000Z</time>
      </trkpt>
      <trkpt lat="47.23375" lon="-1.4746">
        <ele>43</ele>
        <time>2020-09-26T12:21:26.000Z</time>
      </trkpt>
      <trkpt lat="47.23363" lon="-1.47465">
        <ele>43</ele>
        <time>2020-09-26T12:21:28.000Z</time>
      </trkpt>
      <trkpt lat="47.2335" lon="-1.47471">
        <ele>43</ele>
        <time>2020-09-26T12:21:30.000Z</time>
      </trkpt>
      <trkpt lat="47.23338" lon="-1.47477">
        <ele>43</ele>
        <time>2020-09-26T12:21:32.000Z</time>
      </trkpt>
      <trkpt lat="47.23327" lon="-1.47485">
        <ele>43</ele>
        <time>2020-09-26T12:21:34.000Z</time>
      </trkpt>
      <trkpt lat="47.23317" lon="-1.47497">
        <ele>43</ele>
        <time>2020-09-26T12:21:36.000Z</time>
      </trkpt>
      <trkpt lat="47.23305" lon="-1.47504">
        <ele>43</ele>
        <time>2020-09-26T12:21:38.000Z</time>
      </trkpt>
      <trkpt lat="47.23292" lon="-1.47511">
        <ele>43</ele>
        <time>2020-09-26T12:21:40.000Z</time>
      </trkpt>
      <trkpt lat="47.2328" lon="-1.47516">
        <ele>43</ele>
        <time>2020-09-26T12:21:42.000Z</time>
      </trkpt>
      <trkpt lat="47.23268" lon="-1.47525">
        <ele>42</ele>
        <time>2020-09-26T12:21:44.000Z</time>
      </trkpt>
      <trkpt lat="47.23254" lon="-1.47546">
        <ele>42</ele>
        <time>2020-09-26T12:21:47.000Z</time>
      </trkpt>
      <trkpt lat="47.23246" lon="-1.47561">
        <ele>42</ele>
        <time>2020-09-26T12:21:49.000Z</time>
      </trkpt>
      <trkpt lat="47.23238" lon="-1.47575">
        <ele>42</ele>
        <time>2020-09-26T12:21:51.000Z</time>
      </trkpt>
      <trkpt lat="47.2323" lon="-1.47589">
        <ele>42</ele>
        <time>2020-09-26T12:21:53.000Z</time>
      </trkpt>
      <trkpt lat="47.23219" lon="-1.4761">
        <ele>42</ele>
        <time>2020-09-26T12:21:56.000Z</time>
      </trkpt>
      <trkpt lat="47.23213" lon="-1.47625">
        <ele>41</ele>
        <time>2020-09-26T12:21:58.000Z</time>
      </trkpt>
      <trkpt lat="47.23206" lon="-1.47641">
        <ele>41</ele>
        <time>2020-09-26T12:22:00.000Z</time>
      </trkpt>
      <trkpt lat="47.232" lon="-1.47657">
        <ele>40</ele>
        <time>2020-09-26T12:22:02.000Z</time>
      </trkpt>
      <trkpt lat="47.23189" lon="-1.47682">
        <ele>41</ele>
        <time>2020-09-26T12:22:05.000Z</time>
      </trkpt>
      <trkpt lat="47.23183" lon="-1.47697">
        <ele>40</ele>
        <time>2020-09-26T12:22:07.000Z</time>
      </trkpt>
      <trkpt lat="47.23171" lon="-1.47722">
        <ele>40</ele>
        <time>2020-09-26T12:22:10.000Z</time>
      </trkpt>
      <trkpt lat="47.2316" lon="-1.47747">
        <ele>40</ele>
        <time>2020-09-26T12:22:13.000Z</time>
      </trkpt>
      <trkpt lat="47.23153" lon="-1.47763">
        <ele>40</ele>
        <time>2020-09-26T12:22:15.000Z</time>
      </trkpt>
      <trkpt lat="47.23143" lon="-1.47787">
        <ele>41</ele>
        <time>2020-09-26T12:22:18.000Z</time>
      </trkpt>
      <trkpt lat="47.23138" lon="-1.47803">
        <ele>41</ele>
        <time>2020-09-26T12:22:20.000Z</time>
      </trkpt>
      <trkpt lat="47.23133" lon="-1.47818">
        <ele>41</ele>
        <time>2020-09-26T12:22:22.000Z</time>
      </trkpt>
      <trkpt lat="47.23127" lon="-1.47834">
        <ele>41</ele>
        <time>2020-09-26T12:22:24.000Z</time>
      </trkpt>
      <trkpt lat="47.23116" lon="-1.47856">
        <ele>41</ele>
        <time>2020-09-26T12:22:27.000Z</time>
      </trkpt>
      <trkpt lat="47.23104" lon="-1.47876">
        <ele>40</ele>
        <time>2020-09-26T12:22:30.000Z</time>
      </trkpt>
      <trkpt lat="47.23095" lon="-1.4789">
        <ele>40</ele>
        <time>2020-09-26T12:22:32.000Z</time>
      </trkpt>
      <trkpt lat="47.23085" lon="-1.47902">
        <ele>40</ele>
        <time>2020-09-26T12:22:34.000Z</time>
      </trkpt>
      <trkpt lat="47.23075" lon="-1.47914">
        <ele>40</ele>
        <time>2020-09-26T12:22:36.000Z</time>
      </trkpt>
      <trkpt lat="47.23066" lon="-1.47927">
        <ele>39</ele>
        <time>2020-09-26T12:22:38.000Z</time>
      </trkpt>
      <trkpt lat="47.23056" lon="-1.47939">
        <ele>40</ele>
        <time>2020-09-26T12:22:40.000Z</time>
      </trkpt>
      <trkpt lat="47.23046" lon="-1.47952">
        <ele>39</ele>
        <time>2020-09-26T12:22:42.000Z</time>
      </trkpt>
      <trkpt lat="47.23035" lon="-1.47964">
        <ele>39</ele>
        <time>2020-09-26T12:22:44.000Z</time>
      </trkpt>
      <trkpt lat="47.23026" lon="-1.47978">
        <ele>38</ele>
        <time>2020-09-26T12:22:46.000Z</time>
      </trkpt>
      <trkpt lat="47.23017" lon="-1.47992">
        <ele>38</ele>
        <time>2020-09-26T12:22:48.000Z</time>
      </trkpt>
      <trkpt lat="47.23008" lon="-1.48006">
        <ele>38</ele>
        <time>2020-09-26T12:22:50.000Z</time>
      </trkpt>
      <trkpt lat="47.22994" lon="-1.48027">
        <ele>38</ele>
        <time>2020-09-26T12:22:53.000Z</time>
      </trkpt>
      <trkpt lat="47.22986" lon="-1.48041">
        <ele>38</ele>
        <time>2020-09-26T12:22:55.000Z</time>
      </trkpt>
      <trkpt lat="47.22977" lon="-1.48056">
        <ele>38</ele>
        <time>2020-09-26T12:22:57.000Z</time>
      </trkpt>
      <trkpt lat="47.2297" lon="-1.4807">
        <ele>39</ele>
        <time>2020-09-26T12:22:59.000Z</time>
      </trkpt>
      <trkpt lat="47.22962" lon="-1.48082">
        <ele>39</ele>
        <time>2020-09-26T12:23:01.000Z</time>
      </trkpt>
      <trkpt lat="47.22951" lon="-1.48101">
        <ele>40</ele>
        <time>2020-09-26T12:23:05.000Z</time>
      </trkpt>
      <trkpt lat="47.22942" lon="-1.48109">
        <ele>40</ele>
        <time>2020-09-26T12:23:07.000Z</time>
      </trkpt>
      <trkpt lat="47.2293" lon="-1.4811">
        <ele>40</ele>
        <time>2020-09-26T12:23:09.000Z</time>
      </trkpt>
      <trkpt lat="47.22918" lon="-1.48113">
        <ele>40</ele>
        <time>2020-09-26T12:23:11.000Z</time>
      </trkpt>
      <trkpt lat="47.22906" lon="-1.4812">
        <ele>41</ele>
        <time>2020-09-26T12:23:13.000Z</time>
      </trkpt>
      <trkpt lat="47.22896" lon="-1.48133">
        <ele>41</ele>
        <time>2020-09-26T12:23:15.000Z</time>
      </trkpt>
      <trkpt lat="47.22887" lon="-1.48146">
        <ele>40</ele>
        <time>2020-09-26T12:23:17.000Z</time>
      </trkpt>
      <trkpt lat="47.22879" lon="-1.48159">
        <ele>40</ele>
        <time>2020-09-26T12:23:19.000Z</time>
      </trkpt>
      <trkpt lat="47.2287" lon="-1.48172">
        <ele>40</ele>
        <time>2020-09-26T12:23:21.000Z</time>
      </trkpt>
      <trkpt lat="47.22861" lon="-1.48186">
        <ele>41</ele>
        <time>2020-09-26T12:23:23.000Z</time>
      </trkpt>
      <trkpt lat="47.22852" lon="-1.482">
        <ele>41</ele>
        <time>2020-09-26T12:23:25.000Z</time>
      </trkpt>
      <trkpt lat="47.22843" lon="-1.48212">
        <ele>41</ele>
        <time>2020-09-26T12:23:27.000Z</time>
      </trkpt>
      <trkpt lat="47.22835" lon="-1.48226">
        <ele>41</ele>
        <time>2020-09-26T12:23:29.000Z</time>
      </trkpt>
      <trkpt lat="47.22825" lon="-1.48239">
        <ele>41</ele>
        <time>2020-09-26T12:23:31.000Z</time>
      </trkpt>
      <trkpt lat="47.22817" lon="-1.48253">
        <ele>41</ele>
        <time>2020-09-26T12:23:33.000Z</time>
      </trkpt>
      <trkpt lat="47.22808" lon="-1.48267">
        <ele>42</ele>
        <time>2020-09-26T12:23:35.000Z</time>
      </trkpt>
      <trkpt lat="47.22799" lon="-1.48281">
        <ele>42</ele>
        <time>2020-09-26T12:23:37.000Z</time>
      </trkpt>
      <trkpt lat="47.22791" lon="-1.48295">
        <ele>43</ele>
        <time>2020-09-26T12:23:39.000Z</time>
      </trkpt>
      <trkpt lat="47.22781" lon="-1.4831">
        <ele>43</ele>
        <time>2020-09-26T12:23:41.000Z</time>
      </trkpt>
      <trkpt lat="47.22772" lon="-1.48324">
        <ele>43</ele>
        <time>2020-09-26T12:23:43.000Z</time>
      </trkpt>
      <trkpt lat="47.22763" lon="-1.48337">
        <ele>44</ele>
        <time>2020-09-26T12:23:45.000Z</time>
      </trkpt>
      <trkpt lat="47.22754" lon="-1.48349">
        <ele>44</ele>
        <time>2020-09-26T12:23:47.000Z</time>
      </trkpt>
      <trkpt lat="47.22745" lon="-1.48362">
        <ele>44</ele>
        <time>2020-09-26T12:23:49.000Z</time>
      </trkpt>
      <trkpt lat="47.22737" lon="-1.48375">
        <ele>43</ele>
        <time>2020-09-26T12:23:51.000Z</time>
      </trkpt>
      <trkpt lat="47.22727" lon="-1.48386">
        <ele>43</ele>
        <time>2020-09-26T12:23:53.000Z</time>
      </trkpt>
      <trkpt lat="47.22717" lon="-1.48399">
        <ele>43</ele>
        <time>2020-09-26T12:23:55.000Z</time>
      </trkpt>
      <trkpt lat="47.22705" lon="-1.48421">
        <ele>42</ele>
        <time>2020-09-26T12:23:58.000Z</time>
      </trkpt>
      <trkpt lat="47.22699" lon="-1.48439">
        <ele>41</ele>
        <time>2020-09-26T12:24:00.000Z</time>
      </trkpt>
      <trkpt lat="47.22693" lon="-1.48456">
        <ele>41</ele>
        <time>2020-09-26T12:24:02.000Z</time>
      </trkpt>
      <trkpt lat="47.22686" lon="-1.48472">
        <ele>41</ele>
        <time>2020-09-26T12:24:04.000Z</time>
      </trkpt>
      <trkpt lat="47.22679" lon="-1.48488">
        <ele>41</ele>
        <time>2020-09-26T12:24:06.000Z</time>
      </trkpt>
      <trkpt lat="47.22671" lon="-1.48503">
        <ele>40</ele>
        <time>2020-09-26T12:24:08.000Z</time>
      </trkpt>
      <trkpt lat="47.22665" lon="-1.4852">
        <ele>40</ele>
        <time>2020-09-26T12:24:10.000Z</time>
      </trkpt>
      <trkpt lat="47.22661" lon="-1.48538">
        <ele>40</ele>
        <time>2020-09-26T12:24:12.000Z</time>
      </trkpt>
      <trkpt lat="47.22655" lon="-1.48557">
        <ele>40</ele>
        <time>2020-09-26T12:24:14.000Z</time>
      </trkpt>
      <trkpt lat="47.22649" lon="-1.48574">
        <ele>40</ele>
        <time>2020-09-26T12:24:16.000Z</time>
      </trkpt>
      <trkpt lat="47.22642" lon="-1.4859">
        <ele>41</ele>
        <time>2020-09-26T12:24:18.000Z</time>
      </trkpt>
      <trkpt lat="47.22636" lon="-1.48606">
        <ele>41</ele>
        <time>2020-09-26T12:24:20.000Z</time>
      </trkpt>
      <trkpt lat="47.22631" lon="-1.48621">
        <ele>41</ele>
        <time>2020-09-26T12:24:22.000Z</time>
      </trkpt>
      <trkpt lat="47.22625" lon="-1.48638">
        <ele>41</ele>
        <time>2020-09-26T12:24:24.000Z</time>
      </trkpt>
      <trkpt lat="47.2262" lon="-1.48655">
        <ele>41</ele>
        <time>2020-09-26T12:24:26.000Z</time>
      </trkpt>
      <trkpt lat="47.22614" lon="-1.48672">
        <ele>42</ele>
        <time>2020-09-26T12:24:28.000Z</time>
      </trkpt>
      <trkpt lat="47.22608" lon="-1.48691">
        <ele>42</ele>
        <time>2020-09-26T12:24:30.000Z</time>
      </trkpt>
      <trkpt lat="47.22603" lon="-1.48709">
        <ele>41</ele>
        <time>2020-09-26T12:24:32.000Z</time>
      </trkpt>
      <trkpt lat="47.22597" lon="-1.48727">
        <ele>41</ele>
        <time>2020-09-26T12:24:34.000Z</time>
      </trkpt>
      <trkpt lat="47.22592" lon="-1.48744">
        <ele>41</ele>
        <time>2020-09-26T12:24:36.000Z</time>
      </trkpt>
      <trkpt lat="47.22585" lon="-1.4877">
        <ele>41</ele>
        <time>2020-09-26T12:24:39.000Z</time>
      </trkpt>
      <trkpt lat="47.22581" lon="-1.48787">
        <ele>41</ele>
        <time>2020-09-26T12:24:41.000Z</time>
      </trkpt>
      <trkpt lat="47.22576" lon="-1.48803">
        <ele>41</ele>
        <time>2020-09-26T12:24:43.000Z</time>
      </trkpt>
      <trkpt lat="47.22569" lon="-1.4882">
        <ele>40</ele>
        <time>2020-09-26T12:24:45.000Z</time>
      </trkpt>
      <trkpt lat="47.22565" lon="-1.48836">
        <ele>40</ele>
        <time>2020-09-26T12:24:47.000Z</time>
      </trkpt>
      <trkpt lat="47.22561" lon="-1.48852">
        <ele>41</ele>
        <time>2020-09-26T12:24:49.000Z</time>
      </trkpt>
      <trkpt lat="47.22556" lon="-1.48868">
        <ele>41</ele>
        <time>2020-09-26T12:24:51.000Z</time>
      </trkpt>
      <trkpt lat="47.22551" lon="-1.48885">
        <ele>41</ele>
        <time>2020-09-26T12:24:53.000Z</time>
      </trkpt>
      <trkpt lat="47.22545" lon="-1.48903">
        <ele>41</ele>
        <time>2020-09-26T12:24:55.000Z</time>
      </trkpt>
      <trkpt lat="47.22539" lon="-1.48922">
        <ele>40</ele>
        <time>2020-09-26T12:24:57.000Z</time>
      </trkpt>
      <trkpt lat="47.22533" lon="-1.48942">
        <ele>40</ele>
        <time>2020-09-26T12:24:59.000Z</time>
      </trkpt>
      <trkpt lat="47.22526" lon="-1.48959">
        <ele>39</ele>
        <time>2020-09-26T12:25:01.000Z</time>
      </trkpt>
      <trkpt lat="47.2252" lon="-1.48976">
        <ele>39</ele>
        <time>2020-09-26T12:25:03.000Z</time>
      </trkpt>
      <trkpt lat="47.22513" lon="-1.48992">
        <ele>39</ele>
        <time>2020-09-26T12:25:05.000Z</time>
      </trkpt>
      <trkpt lat="47.22508" lon="-1.4901">
        <ele>39</ele>
        <time>2020-09-26T12:25:07.000Z</time>
      </trkpt>
      <trkpt lat="47.22503" lon="-1.49028">
        <ele>39</ele>
        <time>2020-09-26T12:25:09.000Z</time>
      </trkpt>
      <trkpt lat="47.22498" lon="-1.49046">
        <ele>40</ele>
        <time>2020-09-26T12:25:11.000Z</time>
      </trkpt>
      <trkpt lat="47.22492" lon="-1.49064">
        <ele>40</ele>
        <time>2020-09-26T12:25:13.000Z</time>
      </trkpt>
      <trkpt lat="47.22486" lon="-1.49081">
        <ele>40</ele>
        <time>2020-09-26T12:25:15.000Z</time>
      </trkpt>
      <trkpt lat="47.22479" lon="-1.49099">
        <ele>40</ele>
        <time>2020-09-26T12:25:17.000Z</time>
      </trkpt>
      <trkpt lat="47.22474" lon="-1.49117">
        <ele>39</ele>
        <time>2020-09-26T12:25:19.000Z</time>
      </trkpt>
      <trkpt lat="47.22469" lon="-1.49135">
        <ele>39</ele>
        <time>2020-09-26T12:25:21.000Z</time>
      </trkpt>
      <trkpt lat="47.22463" lon="-1.49154">
        <ele>39</ele>
        <time>2020-09-26T12:25:23.000Z</time>
      </trkpt>
      <trkpt lat="47.22456" lon="-1.49171">
        <ele>39</ele>
        <time>2020-09-26T12:25:25.000Z</time>
      </trkpt>
      <trkpt lat="47.22449" lon="-1.49187">
        <ele>39</ele>
        <time>2020-09-26T12:25:27.000Z</time>
      </trkpt>
      <trkpt lat="47.22442" lon="-1.49205">
        <ele>39</ele>
        <time>2020-09-26T12:25:29.000Z</time>
      </trkpt>
      <trkpt lat="47.22437" lon="-1.49225">
        <ele>39</ele>
        <time>2020-09-26T12:25:31.000Z</time>
      </trkpt>
      <trkpt lat="47.22431" lon="-1.49242">
        <ele>39</ele>
        <time>2020-09-26T12:25:33.000Z</time>
      </trkpt>
      <trkpt lat="47.22424" lon="-1.49259">
        <ele>38</ele>
        <time>2020-09-26T12:25:35.000Z</time>
      </trkpt>
      <trkpt lat="47.22416" lon="-1.49275">
        <ele>38</ele>
        <time>2020-09-26T12:25:37.000Z</time>
      </trkpt>
      <trkpt lat="47.2241" lon="-1.49292">
        <ele>38</ele>
        <time>2020-09-26T12:25:39.000Z</time>
      </trkpt>
      <trkpt lat="47.22404" lon="-1.49309">
        <ele>38</ele>
        <time>2020-09-26T12:25:41.000Z</time>
      </trkpt>
      <trkpt lat="47.22398" lon="-1.49326">
        <ele>39</ele>
        <time>2020-09-26T12:25:43.000Z</time>
      </trkpt>
      <trkpt lat="47.22392" lon="-1.49342">
        <ele>39</ele>
        <time>2020-09-26T12:25:45.000Z</time>
      </trkpt>
      <trkpt lat="47.22385" lon="-1.49357">
        <ele>39</ele>
        <time>2020-09-26T12:25:47.000Z</time>
      </trkpt>
      <trkpt lat="47.22378" lon="-1.49373">
        <ele>39</ele>
        <time>2020-09-26T12:25:49.000Z</time>
      </trkpt>
      <trkpt lat="47.22371" lon="-1.49388">
        <ele>39</ele>
        <time>2020-09-26T12:25:51.000Z</time>
      </trkpt>
      <trkpt lat="47.22364" lon="-1.49405">
        <ele>39</ele>
        <time>2020-09-26T12:25:53.000Z</time>
      </trkpt>
      <trkpt lat="47.22356" lon="-1.49421">
        <ele>39</ele>
        <time>2020-09-26T12:25:55.000Z</time>
      </trkpt>
      <trkpt lat="47.22349" lon="-1.49437">
        <ele>39</ele>
        <time>2020-09-26T12:25:57.000Z</time>
      </trkpt>
      <trkpt lat="47.22343" lon="-1.49454">
        <ele>40</ele>
        <time>2020-09-26T12:25:59.000Z</time>
      </trkpt>
      <trkpt lat="47.22338" lon="-1.4947">
        <ele>41</ele>
        <time>2020-09-26T12:26:01.000Z</time>
      </trkpt>
      <trkpt lat="47.22333" lon="-1.49487">
        <ele>40</ele>
        <time>2020-09-26T12:26:03.000Z</time>
      </trkpt>
      <trkpt lat="47.22327" lon="-1.49505">
        <ele>40</ele>
        <time>2020-09-26T12:26:05.000Z</time>
      </trkpt>
      <trkpt lat="47.22322" lon="-1.49521">
        <ele>39</ele>
        <time>2020-09-26T12:26:07.000Z</time>
      </trkpt>
      <trkpt lat="47.22316" lon="-1.49539">
        <ele>40</ele>
        <time>2020-09-26T12:26:09.000Z</time>
      </trkpt>
      <trkpt lat="47.22311" lon="-1.49556">
        <ele>40</ele>
        <time>2020-09-26T12:26:11.000Z</time>
      </trkpt>
      <trkpt lat="47.22305" lon="-1.49573">
        <ele>40</ele>
        <time>2020-09-26T12:26:13.000Z</time>
      </trkpt>
      <trkpt lat="47.223" lon="-1.49589">
        <ele>41</ele>
        <time>2020-09-26T12:26:15.000Z</time>
      </trkpt>
      <trkpt lat="47.22295" lon="-1.49605">
        <ele>41</ele>
        <time>2020-09-26T12:26:17.000Z</time>
      </trkpt>
      <trkpt lat="47.2229" lon="-1.49623">
        <ele>42</ele>
        <time>2020-09-26T12:26:19.000Z</time>
      </trkpt>
      <trkpt lat="47.22286" lon="-1.49641">
        <ele>42</ele>
        <time>2020-09-26T12:26:21.000Z</time>
      </trkpt>
      <trkpt lat="47.22282" lon="-1.49658">
        <ele>43</ele>
        <time>2020-09-26T12:26:23.000Z</time>
      </trkpt>
      <trkpt lat="47.22276" lon="-1.49675">
        <ele>43</ele>
        <time>2020-09-26T12:26:25.000Z</time>
      </trkpt>
      <trkpt lat="47.2227" lon="-1.49692">
        <ele>43</ele>
        <time>2020-09-26T12:26:27.000Z</time>
      </trkpt>
      <trkpt lat="47.22264" lon="-1.49708">
        <ele>43</ele>
        <time>2020-09-26T12:26:29.000Z</time>
      </trkpt>
      <trkpt lat="47.22259" lon="-1.49725">
        <ele>43</ele>
        <time>2020-09-26T12:26:31.000Z</time>
      </trkpt>
      <trkpt lat="47.22255" lon="-1.49742">
        <ele>42</ele>
        <time>2020-09-26T12:26:33.000Z</time>
      </trkpt>
      <trkpt lat="47.22252" lon="-1.4976">
        <ele>43</ele>
        <time>2020-09-26T12:26:35.000Z</time>
      </trkpt>
      <trkpt lat="47.2225" lon="-1.49778">
        <ele>43</ele>
        <time>2020-09-26T12:26:37.000Z</time>
      </trkpt>
      <trkpt lat="47.22247" lon="-1.49796">
        <ele>43</ele>
        <time>2020-09-26T12:26:39.000Z</time>
      </trkpt>
      <trkpt lat="47.22243" lon="-1.49813">
        <ele>43</ele>
        <time>2020-09-26T12:26:41.000Z</time>
      </trkpt>
      <trkpt lat="47.22239" lon="-1.49832">
        <ele>43</ele>
        <time>2020-09-26T12:26:43.000Z</time>
      </trkpt>
      <trkpt lat="47.22236" lon="-1.49849">
        <ele>42</ele>
        <time>2020-09-26T12:26:45.000Z</time>
      </trkpt>
      <trkpt lat="47.22231" lon="-1.49866">
        <ele>42</ele>
        <time>2020-09-26T12:26:47.000Z</time>
      </trkpt>
      <trkpt lat="47.22227" lon="-1.49884">
        <ele>41</ele>
        <time>2020-09-26T12:26:49.000Z</time>
      </trkpt>
      <trkpt lat="47.22222" lon="-1.49902">
        <ele>40</ele>
        <time>2020-09-26T12:26:51.000Z</time>
      </trkpt>
      <trkpt lat="47.22218" lon="-1.4992">
        <ele>41</ele>
        <time>2020-09-26T12:26:53.000Z</time>
      </trkpt>
      <trkpt lat="47.22214" lon="-1.49938">
        <ele>41</ele>
        <time>2020-09-26T12:26:55.000Z</time>
      </trkpt>
      <trkpt lat="47.22211" lon="-1.49954">
        <ele>41</ele>
        <time>2020-09-26T12:26:57.000Z</time>
      </trkpt>
      <trkpt lat="47.22207" lon="-1.4997">
        <ele>41</ele>
        <time>2020-09-26T12:26:59.000Z</time>
      </trkpt>
      <trkpt lat="47.22202" lon="-1.49987">
        <ele>42</ele>
        <time>2020-09-26T12:27:01.000Z</time>
      </trkpt>
      <trkpt lat="47.22197" lon="-1.50003">
        <ele>42</ele>
        <time>2020-09-26T12:27:03.000Z</time>
      </trkpt>
      <trkpt lat="47.22192" lon="-1.5002">
        <ele>41</ele>
        <time>2020-09-26T12:27:05.000Z</time>
      </trkpt>
      <trkpt lat="47.22188" lon="-1.50037">
        <ele>41</ele>
        <time>2020-09-26T12:27:07.000Z</time>
      </trkpt>
      <trkpt lat="47.22184" lon="-1.50055">
        <ele>41</ele>
        <time>2020-09-26T12:27:09.000Z</time>
      </trkpt>
      <trkpt lat="47.2218" lon="-1.50072">
        <ele>41</ele>
        <time>2020-09-26T12:27:11.000Z</time>
      </trkpt>
      <trkpt lat="47.22176" lon="-1.50089">
        <ele>42</ele>
        <time>2020-09-26T12:27:13.000Z</time>
      </trkpt>
      <trkpt lat="47.22171" lon="-1.50106">
        <ele>41</ele>
        <time>2020-09-26T12:27:15.000Z</time>
      </trkpt>
      <trkpt lat="47.22165" lon="-1.50123">
        <ele>41</ele>
        <time>2020-09-26T12:27:17.000Z</time>
      </trkpt>
      <trkpt lat="47.2216" lon="-1.50139">
        <ele>41</ele>
        <time>2020-09-26T12:27:19.000Z</time>
      </trkpt>
      <trkpt lat="47.22154" lon="-1.50155">
        <ele>41</ele>
        <time>2020-09-26T12:27:21.000Z</time>
      </trkpt>
      <trkpt lat="47.22149" lon="-1.50172">
        <ele>41</ele>
        <time>2020-09-26T12:27:23.000Z</time>
      </trkpt>
      <trkpt lat="47.22145" lon="-1.50189">
        <ele>40</ele>
        <time>2020-09-26T12:27:25.000Z</time>
      </trkpt>
      <trkpt lat="47.22141" lon="-1.50207">
        <ele>40</ele>
        <time>2020-09-26T12:27:27.000Z</time>
      </trkpt>
      <trkpt lat="47.22136" lon="-1.50223">
        <ele>39</ele>
        <time>2020-09-26T12:27:29.000Z</time>
      </trkpt>
      <trkpt lat="47.22133" lon="-1.50238">
        <ele>40</ele>
        <time>2020-09-26T12:27:31.000Z</time>
      </trkpt>
      <trkpt lat="47.22129" lon="-1.50255">
        <ele>40</ele>
        <time>2020-09-26T12:27:33.000Z</time>
      </trkpt>
      <trkpt lat="47.22123" lon="-1.50271">
        <ele>40</ele>
        <time>2020-09-26T12:27:35.000Z</time>
      </trkpt>
      <trkpt lat="47.22116" lon="-1.50286">
        <ele>41</ele>
        <time>2020-09-26T12:27:37.000Z</time>
      </trkpt>
      <trkpt lat="47.22109" lon="-1.50301">
        <ele>42</ele>
        <time>2020-09-26T12:27:39.000Z</time>
      </trkpt>
      <trkpt lat="47.22102" lon="-1.50316">
        <ele>42</ele>
        <time>2020-09-26T12:27:41.000Z</time>
      </trkpt>
      <trkpt lat="47.22095" lon="-1.5033">
        <ele>42</ele>
        <time>2020-09-26T12:27:43.000Z</time>
      </trkpt>
      <trkpt lat="47.2209" lon="-1.50346">
        <ele>42</ele>
        <time>2020-09-26T12:27:45.000Z</time>
      </trkpt>
      <trkpt lat="47.22085" lon="-1.50364">
        <ele>42</ele>
        <time>2020-09-26T12:27:47.000Z</time>
      </trkpt>
      <trkpt lat="47.22081" lon="-1.50382">
        <ele>42</ele>
        <time>2020-09-26T12:27:49.000Z</time>
      </trkpt>
      <trkpt lat="47.22077" lon="-1.50399">
        <ele>42</ele>
        <time>2020-09-26T12:27:51.000Z</time>
      </trkpt>
      <trkpt lat="47.22072" lon="-1.50415">
        <ele>42</ele>
        <time>2020-09-26T12:27:53.000Z</time>
      </trkpt>
      <trkpt lat="47.22069" lon="-1.50434">
        <ele>42</ele>
        <time>2020-09-26T12:27:55.000Z</time>
      </trkpt>
      <trkpt lat="47.22066" lon="-1.50453">
        <ele>41</ele>
        <time>2020-09-26T12:27:57.000Z</time>
      </trkpt>
      <trkpt lat="47.22063" lon="-1.50472">
        <ele>42</ele>
        <time>2020-09-26T12:27:59.000Z</time>
      </trkpt>
      <trkpt lat="47.2206" lon="-1.50491">
        <ele>42</ele>
        <time>2020-09-26T12:28:01.000Z</time>
      </trkpt>
      <trkpt lat="47.2206" lon="-1.50509">
        <ele>42</ele>
        <time>2020-09-26T12:28:03.000Z</time>
      </trkpt>
      <trkpt lat="47.22058" lon="-1.50527">
        <ele>42</ele>
        <time>2020-09-26T12:28:05.000Z</time>
      </trkpt>
      <trkpt lat="47.22056" lon="-1.50544">
        <ele>42</ele>
        <time>2020-09-26T12:28:07.000Z</time>
      </trkpt>
      <trkpt lat="47.22055" lon="-1.50562">
        <ele>42</ele>
        <time>2020-09-26T12:28:09.000Z</time>
      </trkpt>
      <trkpt lat="47.22053" lon="-1.5058">
        <ele>43</ele>
        <time>2020-09-26T12:28:11.000Z</time>
      </trkpt>
      <trkpt lat="47.22052" lon="-1.506">
        <ele>43</ele>
        <time>2020-09-26T12:28:13.000Z</time>
      </trkpt>
      <trkpt lat="47.22051" lon="-1.50619">
        <ele>42</ele>
        <time>2020-09-26T12:28:15.000Z</time>
      </trkpt>
      <trkpt lat="47.2205" lon="-1.50638">
        <ele>42</ele>
        <time>2020-09-26T12:28:17.000Z</time>
      </trkpt>
      <trkpt lat="47.22049" lon="-1.50656">
        <ele>41</ele>
        <time>2020-09-26T12:28:19.000Z</time>
      </trkpt>
      <trkpt lat="47.22047" lon="-1.50671">
        <ele>40</ele>
        <time>2020-09-26T12:28:21.000Z</time>
      </trkpt>
      <trkpt lat="47.22044" lon="-1.50687">
        <ele>39</ele>
        <time>2020-09-26T12:28:23.000Z</time>
      </trkpt>
      <trkpt lat="47.22042" lon="-1.50704">
        <ele>39</ele>
        <time>2020-09-26T12:28:25.000Z</time>
      </trkpt>
      <trkpt lat="47.2204" lon="-1.50723">
        <ele>39</ele>
        <time>2020-09-26T12:28:27.000Z</time>
      </trkpt>
      <trkpt lat="47.22038" lon="-1.50741">
        <ele>39</ele>
        <time>2020-09-26T12:28:29.000Z</time>
      </trkpt>
      <trkpt lat="47.22036" lon="-1.5076">
        <ele>39</ele>
        <time>2020-09-26T12:28:31.000Z</time>
      </trkpt>
      <trkpt lat="47.22031" lon="-1.50778">
        <ele>38</ele>
        <time>2020-09-26T12:28:33.000Z</time>
      </trkpt>
      <trkpt lat="47.22026" lon="-1.50797">
        <ele>38</ele>
        <time>2020-09-26T12:28:35.000Z</time>
      </trkpt>
      <trkpt lat="47.22021" lon="-1.50813">
        <ele>38</ele>
        <time>2020-09-26T12:28:37.000Z</time>
      </trkpt>
      <trkpt lat="47.22016" lon="-1.50828">
        <ele>38</ele>
        <time>2020-09-26T12:28:39.000Z</time>
      </trkpt>
      <trkpt lat="47.2201" lon="-1.50844">
        <ele>39</ele>
        <time>2020-09-26T12:28:41.000Z</time>
      </trkpt>
      <trkpt lat="47.22004" lon="-1.50861">
        <ele>38</ele>
        <time>2020-09-26T12:28:43.000Z</time>
      </trkpt>
      <trkpt lat="47.21997" lon="-1.50877">
        <ele>37</ele>
        <time>2020-09-26T12:28:45.000Z</time>
      </trkpt>
      <trkpt lat="47.21992" lon="-1.50895">
        <ele>37</ele>
        <time>2020-09-26T12:28:47.000Z</time>
      </trkpt>
      <trkpt lat="47.21987" lon="-1.50912">
        <ele>39</ele>
        <time>2020-09-26T12:28:49.000Z</time>
      </trkpt>
      <trkpt lat="47.21983" lon="-1.50929">
        <ele>39</ele>
        <time>2020-09-26T12:28:51.000Z</time>
      </trkpt>
      <trkpt lat="47.21979" lon="-1.50946">
        <ele>39</ele>
        <time>2020-09-26T12:28:53.000Z</time>
      </trkpt>
      <trkpt lat="47.21974" lon="-1.50963">
        <ele>40</ele>
        <time>2020-09-26T12:28:55.000Z</time>
      </trkpt>
      <trkpt lat="47.21968" lon="-1.50979">
        <ele>40</ele>
        <time>2020-09-26T12:28:57.000Z</time>
      </trkpt>
      <trkpt lat="47.21962" lon="-1.50997">
        <ele>40</ele>
        <time>2020-09-26T12:28:59.000Z</time>
      </trkpt>
      <trkpt lat="47.21957" lon="-1.51014">
        <ele>40</ele>
        <time>2020-09-26T12:29:01.000Z</time>
      </trkpt>
      <trkpt lat="47.21952" lon="-1.51032">
        <ele>41</ele>
        <time>2020-09-26T12:29:03.000Z</time>
      </trkpt>
      <trkpt lat="47.21948" lon="-1.51049">
        <ele>40</ele>
        <time>2020-09-26T12:29:05.000Z</time>
      </trkpt>
      <trkpt lat="47.2194" lon="-1.51062">
        <ele>41</ele>
        <time>2020-09-26T12:29:07.000Z</time>
      </trkpt>
      <trkpt lat="47.21932" lon="-1.51077">
        <ele>41</ele>
        <time>2020-09-26T12:29:09.000Z</time>
      </trkpt>
      <trkpt lat="47.21925" lon="-1.51094">
        <ele>40</ele>
        <time>2020-09-26T12:29:11.000Z</time>
      </trkpt>
      <trkpt lat="47.2192" lon="-1.51113">
        <ele>41</ele>
        <time>2020-09-26T12:29:13.000Z</time>
      </trkpt>
      <trkpt lat="47.21914" lon="-1.5113">
        <ele>41</ele>
        <time>2020-09-26T12:29:15.000Z</time>
      </trkpt>
      <trkpt lat="47.21909" lon="-1.51148">
        <ele>42</ele>
        <time>2020-09-26T12:29:17.000Z</time>
      </trkpt>
      <trkpt lat="47.21904" lon="-1.51164">
        <ele>42</ele>
        <time>2020-09-26T12:29:19.000Z</time>
      </trkpt>
      <trkpt lat="47.21898" lon="-1.51181">
        <ele>42</ele>
        <time>2020-09-26T12:29:21.000Z</time>
      </trkpt>
      <trkpt lat="47.21892" lon="-1.51198">
        <ele>42</ele>
        <time>2020-09-26T12:29:23.000Z</time>
      </trkpt>
      <trkpt lat="47.21887" lon="-1.51215">
        <ele>42</ele>
        <time>2020-09-26T12:29:25.000Z</time>
      </trkpt>
      <trkpt lat="47.21882" lon="-1.51232">
        <ele>43</ele>
        <time>2020-09-26T12:29:27.000Z</time>
      </trkpt>
      <trkpt lat="47.21877" lon="-1.51248">
        <ele>43</ele>
        <time>2020-09-26T12:29:29.000Z</time>
      </trkpt>
      <trkpt lat="47.21872" lon="-1.51264">
        <ele>43</ele>
        <time>2020-09-26T12:29:31.000Z</time>
      </trkpt>
      <trkpt lat="47.21866" lon="-1.5128">
        <ele>43</ele>
        <time>2020-09-26T12:29:33.000Z</time>
      </trkpt>
      <trkpt lat="47.21861" lon="-1.51297">
        <ele>43</ele>
        <time>2020-09-26T12:29:35.000Z</time>
      </trkpt>
      <trkpt lat="47.21856" lon="-1.51313">
        <ele>43</ele>
        <time>2020-09-26T12:29:37.000Z</time>
      </trkpt>
      <trkpt lat="47.21851" lon="-1.51329">
        <ele>42</ele>
        <time>2020-09-26T12:29:39.000Z</time>
      </trkpt>
      <trkpt lat="47.21846" lon="-1.51345">
        <ele>41</ele>
        <time>2020-09-26T12:29:41.000Z</time>
      </trkpt>
      <trkpt lat="47.21841" lon="-1.51362">
        <ele>41</ele>
        <time>2020-09-26T12:29:43.000Z</time>
      </trkpt>
      <trkpt lat="47.21836" lon="-1.51379">
        <ele>40</ele>
        <time>2020-09-26T12:29:45.000Z</time>
      </trkpt>
      <trkpt lat="47.21832" lon="-1.51396">
        <ele>40</ele>
        <time>2020-09-26T12:29:47.000Z</time>
      </trkpt>
      <trkpt lat="47.21828" lon="-1.51413">
        <ele>41</ele>
        <time>2020-09-26T12:29:49.000Z</time>
      </trkpt>
      <trkpt lat="47.21824" lon="-1.51431">
        <ele>41</ele>
        <time>2020-09-26T12:29:51.000Z</time>
      </trkpt>
      <trkpt lat="47.21821" lon="-1.51448">
        <ele>42</ele>
        <time>2020-09-26T12:29:53.000Z</time>
      </trkpt>
      <trkpt lat="47.21819" lon="-1.51466">
        <ele>42</ele>
        <time>2020-09-26T12:29:55.000Z</time>
      </trkpt>
      <trkpt lat="47.21815" lon="-1.51483">
        <ele>42</ele>
        <time>2020-09-26T12:29:57.000Z</time>
      </trkpt>
      <trkpt lat="47.21809" lon="-1.51499">
        <ele>42</ele>
        <time>2020-09-26T12:29:59.000Z</time>
      </trkpt>
      <trkpt lat="47.21802" lon="-1.51514">
        <ele>43</ele>
        <time>2020-09-26T12:30:01.000Z</time>
      </trkpt>
      <trkpt lat="47.21795" lon="-1.51529">
        <ele>43</ele>
        <time>2020-09-26T12:30:03.000Z</time>
      </trkpt>
      <trkpt lat="47.2179" lon="-1.51545">
        <ele>44</ele>
        <time>2020-09-26T12:30:05.000Z</time>
      </trkpt>
      <trkpt lat="47.21783" lon="-1.51561">
        <ele>44</ele>
        <time>2020-09-26T12:30:07.000Z</time>
      </trkpt>
      <trkpt lat="47.21776" lon="-1.51576">
        <ele>44</ele>
        <time>2020-09-26T12:30:09.000Z</time>
      </trkpt>
      <trkpt lat="47.21768" lon="-1.51588">
        <ele>44</ele>
        <time>2020-09-26T12:30:11.000Z</time>
      </trkpt>
      <trkpt lat="47.21759" lon="-1.516">
        <ele>45</ele>
        <time>2020-09-26T12:30:13.000Z</time>
      </trkpt>
      <trkpt lat="47.21751" lon="-1.51613">
        <ele>45</ele>
        <time>2020-09-26T12:30:15.000Z</time>
      </trkpt>
      <trkpt lat="47.21744" lon="-1.51628">
        <ele>45</ele>
        <time>2020-09-26T12:30:17.000Z</time>
      </trkpt>
      <trkpt lat="47.21737" lon="-1.51643">
        <ele>45</ele>
        <time>2020-09-26T12:30:19.000Z</time>
      </trkpt>
      <trkpt lat="47.2173" lon="-1.51658">
        <ele>46</ele>
        <time>2020-09-26T12:30:21.000Z</time>
      </trkpt>
      <trkpt lat="47.21723" lon="-1.51674">
        <ele>46</ele>
        <time>2020-09-26T12:30:23.000Z</time>
      </trkpt>
      <trkpt lat="47.21716" lon="-1.51688">
        <ele>46</ele>
        <time>2020-09-26T12:30:25.000Z</time>
      </trkpt>
      <trkpt lat="47.2171" lon="-1.51702">
        <ele>46</ele>
        <time>2020-09-26T12:30:27.000Z</time>
      </trkpt>
      <trkpt lat="47.21704" lon="-1.51715">
        <ele>47</ele>
        <time>2020-09-26T12:30:29.000Z</time>
      </trkpt>
      <trkpt lat="47.21697" lon="-1.51731">
        <ele>47</ele>
        <time>2020-09-26T12:30:31.000Z</time>
      </trkpt>
      <trkpt lat="47.2169" lon="-1.51747">
        <ele>46</ele>
        <time>2020-09-26T12:30:33.000Z</time>
      </trkpt>
      <trkpt lat="47.21683" lon="-1.51763">
        <ele>45</ele>
        <time>2020-09-26T12:30:35.000Z</time>
      </trkpt>
      <trkpt lat="47.21675" lon="-1.51779">
        <ele>45</ele>
        <time>2020-09-26T12:30:37.000Z</time>
      </trkpt>
      <trkpt lat="47.21669" lon="-1.51795">
        <ele>45</ele>
        <time>2020-09-26T12:30:39.000Z</time>
      </trkpt>
      <trkpt lat="47.21662" lon="-1.51811">
        <ele>45</ele>
        <time>2020-09-26T12:30:41.000Z</time>
      </trkpt>
      <trkpt lat="47.21655" lon="-1.51827">
        <ele>46</ele>
        <time>2020-09-26T12:30:43.000Z</time>
      </trkpt>
      <trkpt lat="47.2165" lon="-1.51844">
        <ele>45</ele>
        <time>2020-09-26T12:30:45.000Z</time>
      </trkpt>
      <trkpt lat="47.21646" lon="-1.5186">
        <ele>45</ele>
        <time>2020-09-26T12:30:47.000Z</time>
      </trkpt>
      <trkpt lat="47.21643" lon="-1.51878">
        <ele>46</ele>
        <time>2020-09-26T12:30:49.000Z</time>
      </trkpt>
      <trkpt lat="47.21638" lon="-1.51893">
        <ele>45</ele>
        <time>2020-09-26T12:30:51.000Z</time>
      </trkpt>
      <trkpt lat="47.2163" lon="-1.51907">
        <ele>45</ele>
        <time>2020-09-26T12:30:53.000Z</time>
      </trkpt>
      <trkpt lat="47.21624" lon="-1.51924">
        <ele>45</ele>
        <time>2020-09-26T12:30:55.000Z</time>
      </trkpt>
      <trkpt lat="47.2162" lon="-1.5194">
        <ele>45</ele>
        <time>2020-09-26T12:30:57.000Z</time>
      </trkpt>
      <trkpt lat="47.21618" lon="-1.51957">
        <ele>45</ele>
        <time>2020-09-26T12:30:59.000Z</time>
      </trkpt>
      <trkpt lat="47.21612" lon="-1.51972">
        <ele>46</ele>
        <time>2020-09-26T12:31:01.000Z</time>
      </trkpt>
      <trkpt lat="47.21604" lon="-1.51985">
        <ele>47</ele>
        <time>2020-09-26T12:31:03.000Z</time>
      </trkpt>
      <trkpt lat="47.216" lon="-1.52001">
        <ele>47</ele>
        <time>2020-09-26T12:31:05.000Z</time>
      </trkpt>
      <trkpt lat="47.21594" lon="-1.52019">
        <ele>46</ele>
        <time>2020-09-26T12:31:07.000Z</time>
      </trkpt>
      <trkpt lat="47.21588" lon="-1.52038">
        <ele>46</ele>
        <time>2020-09-26T12:31:09.000Z</time>
      </trkpt>
      <trkpt lat="47.21582" lon="-1.52056">
        <ele>46</ele>
        <time>2020-09-26T12:31:11.000Z</time>
      </trkpt>
      <trkpt lat="47.21577" lon="-1.52073">
        <ele>45</ele>
        <time>2020-09-26T12:31:13.000Z</time>
      </trkpt>
      <trkpt lat="47.21572" lon="-1.52091">
        <ele>45</ele>
        <time>2020-09-26T12:31:15.000Z</time>
      </trkpt>
      <trkpt lat="47.21566" lon="-1.52109">
        <ele>45</ele>
        <time>2020-09-26T12:31:17.000Z</time>
      </trkpt>
      <trkpt lat="47.2156" lon="-1.52126">
        <ele>46</ele>
        <time>2020-09-26T12:31:19.000Z</time>
      </trkpt>
      <trkpt lat="47.21555" lon="-1.52143">
        <ele>47</ele>
        <time>2020-09-26T12:31:21.000Z</time>
      </trkpt>
      <trkpt lat="47.2155" lon="-1.5216">
        <ele>47</ele>
        <time>2020-09-26T12:31:23.000Z</time>
      </trkpt>
      <trkpt lat="47.21544" lon="-1.52177">
        <ele>46</ele>
        <time>2020-09-26T12:31:25.000Z</time>
      </trkpt>
      <trkpt lat="47.21538" lon="-1.52194">
        <ele>46</ele>
        <time>2020-09-26T12:31:27.000Z</time>
      </trkpt>
      <trkpt lat="47.21533" lon="-1.52212">
        <ele>47</ele>
        <time>2020-09-26T12:31:29.000Z</time>
      </trkpt>
      <trkpt lat="47.21528" lon="-1.52229">
        <ele>47</ele>
        <time>2020-09-26T12:31:31.000Z</time>
      </trkpt>
      <trkpt lat="47.21522" lon="-1.52244">
        <ele>47</ele>
        <time>2020-09-26T12:31:33.000Z</time>
      </trkpt>
      <trkpt lat="47.21517" lon="-1.5226">
        <ele>47</ele>
        <time>2020-09-26T12:31:35.000Z</time>
      </trkpt>
      <trkpt lat="47.21511" lon="-1.52278">
        <ele>47</ele>
        <time>2020-09-26T12:31:37.000Z</time>
      </trkpt>
      <trkpt lat="47.21505" lon="-1.52295">
        <ele>47</ele>
        <time>2020-09-26T12:31:39.000Z</time>
      </trkpt>
      <trkpt lat="47.215" lon="-1.52312">
        <ele>46</ele>
        <time>2020-09-26T12:31:41.000Z</time>
      </trkpt>
      <trkpt lat="47.21495" lon="-1.5233">
        <ele>46</ele>
        <time>2020-09-26T12:31:43.000Z</time>
      </trkpt>
      <trkpt lat="47.2149" lon="-1.52346">
        <ele>46</ele>
        <time>2020-09-26T12:31:45.000Z</time>
      </trkpt>
      <trkpt lat="47.21485" lon="-1.52363">
        <ele>46</ele>
        <time>2020-09-26T12:31:47.000Z</time>
      </trkpt>
      <trkpt lat="47.2148" lon="-1.52379">
        <ele>47</ele>
        <time>2020-09-26T12:31:49.000Z</time>
      </trkpt>
      <trkpt lat="47.21475" lon="-1.52396">
        <ele>47</ele>
        <time>2020-09-26T12:31:51.000Z</time>
      </trkpt>
      <trkpt lat="47.21469" lon="-1.52413">
        <ele>47</ele>
        <time>2020-09-26T12:31:53.000Z</time>
      </trkpt>
      <trkpt lat="47.21463" lon="-1.5243">
        <ele>47</ele>
        <time>2020-09-26T12:31:55.000Z</time>
      </trkpt>
      <trkpt lat="47.21457" lon="-1.52446">
        <ele>47</ele>
        <time>2020-09-26T12:31:57.000Z</time>
      </trkpt>
      <trkpt lat="47.21452" lon="-1.52462">
        <ele>48</ele>
        <time>2020-09-26T12:31:59.000Z</time>
      </trkpt>
      <trkpt lat="47.21447" lon="-1.52479">
        <ele>47</ele>
        <time>2020-09-26T12:32:01.000Z</time>
      </trkpt>
      <trkpt lat="47.21442" lon="-1.52495">
        <ele>47</ele>
        <time>2020-09-26T12:32:03.000Z</time>
      </trkpt>
      <trkpt lat="47.21436" lon="-1.52512">
        <ele>47</ele>
        <time>2020-09-26T12:32:05.000Z</time>
      </trkpt>
      <trkpt lat="47.21431" lon="-1.52528">
        <ele>47</ele>
        <time>2020-09-26T12:32:07.000Z</time>
      </trkpt>
      <trkpt lat="47.21425" lon="-1.52544">
        <ele>47</ele>
        <time>2020-09-26T12:32:09.000Z</time>
      </trkpt>
      <trkpt lat="47.2142" lon="-1.5256">
        <ele>47</ele>
        <time>2020-09-26T12:32:11.000Z</time>
      </trkpt>
      <trkpt lat="47.21416" lon="-1.52576">
        <ele>48</ele>
        <time>2020-09-26T12:32:13.000Z</time>
      </trkpt>
      <trkpt lat="47.21411" lon="-1.52591">
        <ele>48</ele>
        <time>2020-09-26T12:32:15.000Z</time>
      </trkpt>
      <trkpt lat="47.21406" lon="-1.52607">
        <ele>48</ele>
        <time>2020-09-26T12:32:17.000Z</time>
      </trkpt>
      <trkpt lat="47.21401" lon="-1.52623">
        <ele>48</ele>
        <time>2020-09-26T12:32:19.000Z</time>
      </trkpt>
      <trkpt lat="47.21396" lon="-1.5264">
        <ele>48</ele>
        <time>2020-09-26T12:32:21.000Z</time>
      </trkpt>
      <trkpt lat="47.21392" lon="-1.52655">
        <ele>47</ele>
        <time>2020-09-26T12:32:23.000Z</time>
      </trkpt>
      <trkpt lat="47.21387" lon="-1.52672">
        <ele>47</ele>
        <time>2020-09-26T12:32:25.000Z</time>
      </trkpt>
      <trkpt lat="47.21383" lon="-1.5269">
        <ele>47</ele>
        <time>2020-09-26T12:32:27.000Z</time>
      </trkpt>
      <trkpt lat="47.21379" lon="-1.52705">
        <ele>48</ele>
        <time>2020-09-26T12:32:29.000Z</time>
      </trkpt>
      <trkpt lat="47.21375" lon="-1.52721">
        <ele>48</ele>
        <time>2020-09-26T12:32:31.000Z</time>
      </trkpt>
      <trkpt lat="47.21372" lon="-1.52738">
        <ele>48</ele>
        <time>2020-09-26T12:32:33.000Z</time>
      </trkpt>
      <trkpt lat="47.21369" lon="-1.52756">
        <ele>48</ele>
        <time>2020-09-26T12:32:35.000Z</time>
      </trkpt>
      <trkpt lat="47.21367" lon="-1.52773">
        <ele>48</ele>
        <time>2020-09-26T12:32:37.000Z</time>
      </trkpt>
      <trkpt lat="47.21364" lon="-1.5279">
        <ele>48</ele>
        <time>2020-09-26T12:32:39.000Z</time>
      </trkpt>
      <trkpt lat="47.21362" lon="-1.52805">
        <ele>49</ele>
        <time>2020-09-26T12:32:41.000Z</time>
      </trkpt>
      <trkpt lat="47.2136" lon="-1.52822">
        <ele>48</ele>
        <time>2020-09-26T12:32:43.000Z</time>
      </trkpt>
      <trkpt lat="47.21355" lon="-1.52839">
        <ele>48</ele>
        <time>2020-09-26T12:32:45.000Z</time>
      </trkpt>
      <trkpt lat="47.21351" lon="-1.52858">
        <ele>47</ele>
        <time>2020-09-26T12:32:47.000Z</time>
      </trkpt>
      <trkpt lat="47.21348" lon="-1.52876">
        <ele>47</ele>
        <time>2020-09-26T12:32:49.000Z</time>
      </trkpt>
      <trkpt lat="47.21344" lon="-1.52894">
        <ele>47</ele>
        <time>2020-09-26T12:32:51.000Z</time>
      </trkpt>
      <trkpt lat="47.21341" lon="-1.52912">
        <ele>47</ele>
        <time>2020-09-26T12:32:53.000Z</time>
      </trkpt>
      <trkpt lat="47.21339" lon="-1.5293">
        <ele>47</ele>
        <time>2020-09-26T12:32:55.000Z</time>
      </trkpt>
      <trkpt lat="47.21339" lon="-1.52953">
        <ele>47</ele>
        <time>2020-09-26T12:32:58.000Z</time>
      </trkpt>
      <trkpt lat="47.21336" lon="-1.52972">
        <ele>48</ele>
        <time>2020-09-26T12:33:00.000Z</time>
      </trkpt>
      <trkpt lat="47.21333" lon="-1.52991">
        <ele>47</ele>
        <time>2020-09-26T12:33:02.000Z</time>
      </trkpt>
      <trkpt lat="47.21331" lon="-1.53009">
        <ele>47</ele>
        <time>2020-09-26T12:33:04.000Z</time>
      </trkpt>
      <trkpt lat="47.2133" lon="-1.53026">
        <ele>47</ele>
        <time>2020-09-26T12:33:06.000Z</time>
      </trkpt>
      <trkpt lat="47.21328" lon="-1.53043">
        <ele>47</ele>
        <time>2020-09-26T12:33:08.000Z</time>
      </trkpt>
      <trkpt lat="47.21327" lon="-1.53061">
        <ele>48</ele>
        <time>2020-09-26T12:33:10.000Z</time>
      </trkpt>
      <trkpt lat="47.21326" lon="-1.53077">
        <ele>47</ele>
        <time>2020-09-26T12:33:12.000Z</time>
      </trkpt>
      <trkpt lat="47.21324" lon="-1.53095">
        <ele>47</ele>
        <time>2020-09-26T12:33:14.000Z</time>
      </trkpt>
      <trkpt lat="47.21322" lon="-1.53111">
        <ele>47</ele>
        <time>2020-09-26T12:33:16.000Z</time>
      </trkpt>
      <trkpt lat="47.21319" lon="-1.53128">
        <ele>47</ele>
        <time>2020-09-26T12:33:18.000Z</time>
      </trkpt>
      <trkpt lat="47.21315" lon="-1.53146">
        <ele>47</ele>
        <time>2020-09-26T12:33:20.000Z</time>
      </trkpt>
      <trkpt lat="47.21312" lon="-1.53164">
        <ele>47</ele>
        <time>2020-09-26T12:33:22.000Z</time>
      </trkpt>
      <trkpt lat="47.21311" lon="-1.53182">
        <ele>48</ele>
        <time>2020-09-26T12:33:24.000Z</time>
      </trkpt>
      <trkpt lat="47.21309" lon="-1.532">
        <ele>48</ele>
        <time>2020-09-26T12:33:26.000Z</time>
      </trkpt>
      <trkpt lat="47.21308" lon="-1.53219">
        <ele>48</ele>
        <time>2020-09-26T12:33:28.000Z</time>
      </trkpt>
      <trkpt lat="47.21307" lon="-1.53237">
        <ele>48</ele>
        <time>2020-09-26T12:33:30.000Z</time>
      </trkpt>
      <trkpt lat="47.21307" lon="-1.53253">
        <ele>49</ele>
        <time>2020-09-26T12:33:32.000Z</time>
      </trkpt>
      <trkpt lat="47.21308" lon="-1.5327">
        <ele>49</ele>
        <time>2020-09-26T12:33:34.000Z</time>
      </trkpt>
      <trkpt lat="47.21308" lon="-1.53287">
        <ele>49</ele>
        <time>2020-09-26T12:33:36.000Z</time>
      </trkpt>
      <trkpt lat="47.21307" lon="-1.53304">
        <ele>48</ele>
        <time>2020-09-26T12:33:38.000Z</time>
      </trkpt>
      <trkpt lat="47.21306" lon="-1.53323">
        <ele>49</ele>
        <time>2020-09-26T12:33:40.000Z</time>
      </trkpt>
      <trkpt lat="47.21303" lon="-1.5334">
        <ele>49</ele>
        <time>2020-09-26T12:33:42.000Z</time>
      </trkpt>
      <trkpt lat="47.21299" lon="-1.53357">
        <ele>48</ele>
        <time>2020-09-26T12:33:44.000Z</time>
      </trkpt>
      <trkpt lat="47.21296" lon="-1.53374">
        <ele>48</ele>
        <time>2020-09-26T12:33:46.000Z</time>
      </trkpt>
      <trkpt lat="47.21293" lon="-1.53392">
        <ele>47</ele>
        <time>2020-09-26T12:33:48.000Z</time>
      </trkpt>
      <trkpt lat="47.21292" lon="-1.53409">
        <ele>48</ele>
        <time>2020-09-26T12:33:50.000Z</time>
      </trkpt>
      <trkpt lat="47.2129" lon="-1.53426">
        <ele>47</ele>
        <time>2020-09-26T12:33:52.000Z</time>
      </trkpt>
      <trkpt lat="47.21288" lon="-1.53443">
        <ele>48</ele>
        <time>2020-09-26T12:33:54.000Z</time>
      </trkpt>
      <trkpt lat="47.2129" lon="-1.5346">
        <ele>47</ele>
        <time>2020-09-26T12:33:56.000Z</time>
      </trkpt>
      <trkpt lat="47.21295" lon="-1.53476">
        <ele>47</ele>
        <time>2020-09-26T12:33:58.000Z</time>
      </trkpt>
      <trkpt lat="47.21298" lon="-1.53492">
        <ele>48</ele>
        <time>2020-09-26T12:34:00.000Z</time>
      </trkpt>
      <trkpt lat="47.21299" lon="-1.5351">
        <ele>48</ele>
        <time>2020-09-26T12:34:02.000Z</time>
      </trkpt>
      <trkpt lat="47.213" lon="-1.53527">
        <ele>48</ele>
        <time>2020-09-26T12:34:04.000Z</time>
      </trkpt>
      <trkpt lat="47.213" lon="-1.53544">
        <ele>48</ele>
        <time>2020-09-26T12:34:06.000Z</time>
      </trkpt>
      <trkpt lat="47.213" lon="-1.53561">
        <ele>48</ele>
        <time>2020-09-26T12:34:08.000Z</time>
      </trkpt>
      <trkpt lat="47.21301" lon="-1.53578">
        <ele>48</ele>
        <time>2020-09-26T12:34:10.000Z</time>
      </trkpt>
      <trkpt lat="47.21302" lon="-1.53595">
        <ele>48</ele>
        <time>2020-09-26T12:34:12.000Z</time>
      </trkpt>
      <trkpt lat="47.21302" lon="-1.5361">
        <ele>48</ele>
        <time>2020-09-26T12:34:14.000Z</time>
      </trkpt>
      <trkpt lat="47.21299" lon="-1.53624">
        <ele>48</ele>
        <time>2020-09-26T12:34:16.000Z</time>
      </trkpt>
      <trkpt lat="47.21292" lon="-1.53634">
        <ele>49</ele>
        <time>2020-09-26T12:34:19.000Z</time>
      </trkpt>
      <trkpt lat="47.21292" lon="-1.53648">
        <ele>49</ele>
        <time>2020-09-26T12:34:23.000Z</time>
      </trkpt>
      <trkpt lat="47.2129" lon="-1.53661">
        <ele>48</ele>
        <time>2020-09-26T12:34:25.000Z</time>
      </trkpt>
      <trkpt lat="47.21293" lon="-1.53675">
        <ele>48</ele>
        <time>2020-09-26T12:34:27.000Z</time>
      </trkpt>
      <trkpt lat="47.21299" lon="-1.53687">
        <ele>48</ele>
        <time>2020-09-26T12:34:29.000Z</time>
      </trkpt>
      <trkpt lat="47.21304" lon="-1.53704">
        <ele>48</ele>
        <time>2020-09-26T12:34:31.000Z</time>
      </trkpt>
      <trkpt lat="47.21309" lon="-1.53718">
        <ele>48</ele>
        <time>2020-09-26T12:34:33.000Z</time>
      </trkpt>
      <trkpt lat="47.21312" lon="-1.53735">
        <ele>48</ele>
        <time>2020-09-26T12:34:35.000Z</time>
      </trkpt>
      <trkpt lat="47.21314" lon="-1.53753">
        <ele>48</ele>
        <time>2020-09-26T12:34:37.000Z</time>
      </trkpt>
      <trkpt lat="47.21316" lon="-1.5377">
        <ele>48</ele>
        <time>2020-09-26T12:34:39.000Z</time>
      </trkpt>
      <trkpt lat="47.21318" lon="-1.53787">
        <ele>49</ele>
        <time>2020-09-26T12:34:41.000Z</time>
      </trkpt>
      <trkpt lat="47.21321" lon="-1.53803">
        <ele>49</ele>
        <time>2020-09-26T12:34:43.000Z</time>
      </trkpt>
      <trkpt lat="47.21323" lon="-1.53819">
        <ele>49</ele>
        <time>2020-09-26T12:34:45.000Z</time>
      </trkpt>
      <trkpt lat="47.21325" lon="-1.53835">
        <ele>49</ele>
        <time>2020-09-26T12:34:47.000Z</time>
      </trkpt>
      <trkpt lat="47.21328" lon="-1.53851">
        <ele>49</ele>
        <time>2020-09-26T12:34:49.000Z</time>
      </trkpt>
      <trkpt lat="47.21332" lon="-1.53867">
        <ele>50</ele>
        <time>2020-09-26T12:34:51.000Z</time>
      </trkpt>
      <trkpt lat="47.21334" lon="-1.53883">
        <ele>50</ele>
        <time>2020-09-26T12:34:53.000Z</time>
      </trkpt>
      <trkpt lat="47.21337" lon="-1.53897">
        <ele>49</ele>
        <time>2020-09-26T12:34:55.000Z</time>
      </trkpt>
      <trkpt lat="47.21338" lon="-1.53916">
        <ele>50</ele>
        <time>2020-09-26T12:34:58.000Z</time>
      </trkpt>
      <trkpt lat="47.21347" lon="-1.53923">
        <ele>51</ele>
        <time>2020-09-26T12:35:01.000Z</time>
      </trkpt>
      <trkpt lat="47.21359" lon="-1.53928">
        <ele>50</ele>
        <time>2020-09-26T12:35:04.000Z</time>
      </trkpt>
      <trkpt lat="47.21371" lon="-1.53928">
        <ele>50</ele>
        <time>2020-09-26T12:35:06.000Z</time>
      </trkpt>
      <trkpt lat="47.21382" lon="-1.53936">
        <ele>50</ele>
        <time>2020-09-26T12:35:08.000Z</time>
      </trkpt>
      <trkpt lat="47.21388" lon="-1.53953">
        <ele>50</ele>
        <time>2020-09-26T12:35:10.000Z</time>
      </trkpt>
      <trkpt lat="47.21387" lon="-1.53972">
        <ele>49</ele>
        <time>2020-09-26T12:35:12.000Z</time>
      </trkpt>
      <trkpt lat="47.21382" lon="-1.53989">
        <ele>49</ele>
        <time>2020-09-26T12:35:14.000Z</time>
      </trkpt>
      <trkpt lat="47.21386" lon="-1.54006">
        <ele>48</ele>
        <time>2020-09-26T12:35:16.000Z</time>
      </trkpt>
      <trkpt lat="47.21395" lon="-1.5402">
        <ele>49</ele>
        <time>2020-09-26T12:35:18.000Z</time>
      </trkpt>
      <trkpt lat="47.21404" lon="-1.54032">
        <ele>48</ele>
        <time>2020-09-26T12:35:20.000Z</time>
      </trkpt>
      <trkpt lat="47.21413" lon="-1.54044">
        <ele>48</ele>
        <time>2020-09-26T12:35:22.000Z</time>
      </trkpt>
      <trkpt lat="47.21421" lon="-1.54056">
        <ele>47</ele>
        <time>2020-09-26T12:35:24.000Z</time>
      </trkpt>
      <trkpt lat="47.2143" lon="-1.54068">
        <ele>47</ele>
        <time>2020-09-26T12:35:26.000Z</time>
      </trkpt>
      <trkpt lat="47.21438" lon="-1.5408">
        <ele>47</ele>
        <time>2020-09-26T12:35:28.000Z</time>
      </trkpt>
      <trkpt lat="47.21447" lon="-1.54092">
        <ele>47</ele>
        <time>2020-09-26T12:35:30.000Z</time>
      </trkpt>
      <trkpt lat="47.21455" lon="-1.54105">
        <ele>48</ele>
        <time>2020-09-26T12:35:32.000Z</time>
      </trkpt>
      <trkpt lat="47.21464" lon="-1.54116">
        <ele>47</ele>
        <time>2020-09-26T12:35:34.000Z</time>
      </trkpt>
      <trkpt lat="47.21473" lon="-1.54129">
        <ele>47</ele>
        <time>2020-09-26T12:35:36.000Z</time>
      </trkpt>
      <trkpt lat="47.21481" lon="-1.54142">
        <ele>47</ele>
        <time>2020-09-26T12:35:38.000Z</time>
      </trkpt>
      <trkpt lat="47.2149" lon="-1.54155">
        <ele>48</ele>
        <time>2020-09-26T12:35:40.000Z</time>
      </trkpt>
      <trkpt lat="47.21499" lon="-1.54167">
        <ele>48</ele>
        <time>2020-09-26T12:35:42.000Z</time>
      </trkpt>
      <trkpt lat="47.21506" lon="-1.54182">
        <ele>49</ele>
        <time>2020-09-26T12:35:44.000Z</time>
      </trkpt>
      <trkpt lat="47.21513" lon="-1.54196">
        <ele>49</ele>
        <time>2020-09-26T12:35:46.000Z</time>
      </trkpt>
      <trkpt lat="47.21521" lon="-1.54209">
        <ele>48</ele>
        <time>2020-09-26T12:35:48.000Z</time>
      </trkpt>
      <trkpt lat="47.21529" lon="-1.54222">
        <ele>48</ele>
        <time>2020-09-26T12:35:50.000Z</time>
      </trkpt>
      <trkpt lat="47.21537" lon="-1.54234">
        <ele>47</ele>
        <time>2020-09-26T12:35:52.000Z</time>
      </trkpt>
      <trkpt lat="47.21545" lon="-1.54243">
        <ele>47</ele>
        <time>2020-09-26T12:35:54.000Z</time>
      </trkpt>
      <trkpt lat="47.21557" lon="-1.54247">
        <ele>48</ele>
        <time>2020-09-26T12:35:56.000Z</time>
      </trkpt>
      <trkpt lat="47.21568" lon="-1.54251">
        <ele>48</ele>
        <time>2020-09-26T12:35:58.000Z</time>
      </trkpt>
      <trkpt lat="47.21573" lon="-1.54265">
        <ele>48</ele>
        <time>2020-09-26T12:36:00.000Z</time>
      </trkpt>
      <trkpt lat="47.21575" lon="-1.54281">
        <ele>48</ele>
        <time>2020-09-26T12:36:02.000Z</time>
      </trkpt>
      <trkpt lat="47.21579" lon="-1.54297">
        <ele>49</ele>
        <time>2020-09-26T12:36:04.000Z</time>
      </trkpt>
      <trkpt lat="47.21586" lon="-1.54311">
        <ele>49</ele>
        <time>2020-09-26T12:36:06.000Z</time>
      </trkpt>
      <trkpt lat="47.21593" lon="-1.54325">
        <ele>49</ele>
        <time>2020-09-26T12:36:08.000Z</time>
      </trkpt>
      <trkpt lat="47.21599" lon="-1.5434">
        <ele>49</ele>
        <time>2020-09-26T12:36:10.000Z</time>
      </trkpt>
      <trkpt lat="47.21603" lon="-1.54358">
        <ele>50</ele>
        <time>2020-09-26T12:36:12.000Z</time>
      </trkpt>
      <trkpt lat="47.21607" lon="-1.54376">
        <ele>50</ele>
        <time>2020-09-26T12:36:14.000Z</time>
      </trkpt>
      <trkpt lat="47.21609" lon="-1.54394">
        <ele>50</ele>
        <time>2020-09-26T12:36:16.000Z</time>
      </trkpt>
      <trkpt lat="47.21611" lon="-1.54413">
        <ele>49</ele>
        <time>2020-09-26T12:36:18.000Z</time>
      </trkpt>
      <trkpt lat="47.21612" lon="-1.54431">
        <ele>50</ele>
        <time>2020-09-26T12:36:20.000Z</time>
      </trkpt>
      <trkpt lat="47.21611" lon="-1.54449">
        <ele>50</ele>
        <time>2020-09-26T12:36:22.000Z</time>
      </trkpt>
      <trkpt lat="47.21609" lon="-1.54469">
        <ele>49</ele>
        <time>2020-09-26T12:36:24.000Z</time>
      </trkpt>
      <trkpt lat="47.21606" lon="-1.54488">
        <ele>50</ele>
        <time>2020-09-26T12:36:26.000Z</time>
      </trkpt>
      <trkpt lat="47.21601" lon="-1.54506">
        <ele>50</ele>
        <time>2020-09-26T12:36:28.000Z</time>
      </trkpt>
      <trkpt lat="47.21595" lon="-1.54523">
        <ele>49</ele>
        <time>2020-09-26T12:36:30.000Z</time>
      </trkpt>
      <trkpt lat="47.21589" lon="-1.5454">
        <ele>49</ele>
        <time>2020-09-26T12:36:32.000Z</time>
      </trkpt>
      <trkpt lat="47.21584" lon="-1.54554">
        <ele>48</ele>
        <time>2020-09-26T12:36:34.000Z</time>
      </trkpt>
      <trkpt lat="47.21579" lon="-1.54569">
        <ele>49</ele>
        <time>2020-09-26T12:36:37.000Z</time>
      </trkpt>
      <trkpt lat="47.21574" lon="-1.54581">
        <ele>48</ele>
        <time>2020-09-26T12:36:43.000Z</time>
      </trkpt>
      <trkpt lat="47.21571" lon="-1.54598">
        <ele>48</ele>
        <time>2020-09-26T12:36:50.000Z</time>
      </trkpt>
      <trkpt lat="47.21564" lon="-1.54612">
        <ele>48</ele>
        <time>2020-09-26T12:36:52.000Z</time>
      </trkpt>
      <trkpt lat="47.21557" lon="-1.54629">
        <ele>48</ele>
        <time>2020-09-26T12:36:54.000Z</time>
      </trkpt>
      <trkpt lat="47.2155" lon="-1.54647">
        <ele>47</ele>
        <time>2020-09-26T12:36:56.000Z</time>
      </trkpt>
      <trkpt lat="47.21544" lon="-1.54663">
        <ele>47</ele>
        <time>2020-09-26T12:36:58.000Z</time>
      </trkpt>
      <trkpt lat="47.21538" lon="-1.54679">
        <ele>47</ele>
        <time>2020-09-26T12:37:00.000Z</time>
      </trkpt>
      <trkpt lat="47.21534" lon="-1.547">
        <ele>48</ele>
        <time>2020-09-26T12:37:02.000Z</time>
      </trkpt>
      <trkpt lat="47.21527" lon="-1.54718">
        <ele>47</ele>
        <time>2020-09-26T12:37:04.000Z</time>
      </trkpt>
      <trkpt lat="47.2152" lon="-1.54736">
        <ele>46</ele>
        <time>2020-09-26T12:37:06.000Z</time>
      </trkpt>
      <trkpt lat="47.21512" lon="-1.54755">
        <ele>45</ele>
        <time>2020-09-26T12:37:08.000Z</time>
      </trkpt>
      <trkpt lat="47.21505" lon="-1.54773">
        <ele>44</ele>
        <time>2020-09-26T12:37:10.000Z</time>
      </trkpt>
      <trkpt lat="47.21498" lon="-1.54791">
        <ele>44</ele>
        <time>2020-09-26T12:37:12.000Z</time>
      </trkpt>
      <trkpt lat="47.2149" lon="-1.54808">
        <ele>43</ele>
        <time>2020-09-26T12:37:14.000Z</time>
      </trkpt>
      <trkpt lat="47.21482" lon="-1.54825">
        <ele>43</ele>
        <time>2020-09-26T12:37:16.000Z</time>
      </trkpt>
      <trkpt lat="47.21474" lon="-1.54841">
        <ele>43</ele>
        <time>2020-09-26T12:37:18.000Z</time>
      </trkpt>
      <trkpt lat="47.21466" lon="-1.54857">
        <ele>43</ele>
        <time>2020-09-26T12:37:20.000Z</time>
      </trkpt>
      <trkpt lat="47.21458" lon="-1.54873">
        <ele>42</ele>
        <time>2020-09-26T12:37:22.000Z</time>
      </trkpt>
      <trkpt lat="47.2145" lon="-1.54889">
        <ele>42</ele>
        <time>2020-09-26T12:37:24.000Z</time>
      </trkpt>
      <trkpt lat="47.21442" lon="-1.54905">
        <ele>41</ele>
        <time>2020-09-26T12:37:26.000Z</time>
      </trkpt>
      <trkpt lat="47.21434" lon="-1.54921">
        <ele>42</ele>
        <time>2020-09-26T12:37:28.000Z</time>
      </trkpt>
      <trkpt lat="47.21427" lon="-1.54937">
        <ele>42</ele>
        <time>2020-09-26T12:37:30.000Z</time>
      </trkpt>
      <trkpt lat="47.21419" lon="-1.54954">
        <ele>42</ele>
        <time>2020-09-26T12:37:32.000Z</time>
      </trkpt>
      <trkpt lat="47.21412" lon="-1.5497">
        <ele>42</ele>
        <time>2020-09-26T12:37:34.000Z</time>
      </trkpt>
      <trkpt lat="47.21406" lon="-1.54985">
        <ele>43</ele>
        <time>2020-09-26T12:37:36.000Z</time>
      </trkpt>
      <trkpt lat="47.21401" lon="-1.54998">
        <ele>42</ele>
        <time>2020-09-26T12:37:38.000Z</time>
      </trkpt>
      <trkpt lat="47.21395" lon="-1.5501">
        <ele>42</ele>
        <time>2020-09-26T12:37:40.000Z</time>
      </trkpt>
      <trkpt lat="47.21388" lon="-1.55026">
        <ele>42</ele>
        <time>2020-09-26T12:37:42.000Z</time>
      </trkpt>
      <trkpt lat="47.21381" lon="-1.55044">
        <ele>42</ele>
        <time>2020-09-26T12:37:44.000Z</time>
      </trkpt>
      <trkpt lat="47.21373" lon="-1.55063">
        <ele>42</ele>
        <time>2020-09-26T12:37:46.000Z</time>
      </trkpt>
      <trkpt lat="47.21366" lon="-1.55082">
        <ele>42</ele>
        <time>2020-09-26T12:37:48.000Z</time>
      </trkpt>
      <trkpt lat="47.21358" lon="-1.55101">
        <ele>42</ele>
        <time>2020-09-26T12:37:50.000Z</time>
      </trkpt>
      <trkpt lat="47.2135" lon="-1.55119">
        <ele>41</ele>
        <time>2020-09-26T12:37:52.000Z</time>
      </trkpt>
      <trkpt lat="47.21342" lon="-1.55139">
        <ele>41</ele>
        <time>2020-09-26T12:37:54.000Z</time>
      </trkpt>
      <trkpt lat="47.21335" lon="-1.55158">
        <ele>41</ele>
        <time>2020-09-26T12:37:56.000Z</time>
      </trkpt>
      <trkpt lat="47.21328" lon="-1.55175">
        <ele>41</ele>
        <time>2020-09-26T12:37:58.000Z</time>
      </trkpt>
      <trkpt lat="47.2132" lon="-1.55192">
        <ele>42</ele>
        <time>2020-09-26T12:38:00.000Z</time>
      </trkpt>
      <trkpt lat="47.21314" lon="-1.55208">
        <ele>42</ele>
        <time>2020-09-26T12:38:02.000Z</time>
      </trkpt>
      <trkpt lat="47.21307" lon="-1.55225">
        <ele>42</ele>
        <time>2020-09-26T12:38:04.000Z</time>
      </trkpt>
      <trkpt lat="47.21301" lon="-1.55241">
        <ele>42</ele>
        <time>2020-09-26T12:38:06.000Z</time>
      </trkpt>
      <trkpt lat="47.21294" lon="-1.55258">
        <ele>42</ele>
        <time>2020-09-26T12:38:08.000Z</time>
      </trkpt>
      <trkpt lat="47.21287" lon="-1.55275">
        <ele>41</ele>
        <time>2020-09-26T12:38:10.000Z</time>
      </trkpt>
      <trkpt lat="47.2128" lon="-1.55289">
        <ele>42</ele>
        <time>2020-09-26T12:38:12.000Z</time>
      </trkpt>
      <trkpt lat="47.21272" lon="-1.55296">
        <ele>42</ele>
        <time>2020-09-26T12:38:14.000Z</time>
      </trkpt>
      <trkpt lat="47.21261" lon="-1.55296">
        <ele>42</ele>
        <time>2020-09-26T12:38:16.000Z</time>
      </trkpt>
      <trkpt lat="47.21254" lon="-1.55305">
        <ele>44</ele>
        <time>2020-09-26T12:38:18.000Z</time>
      </trkpt>
      <trkpt lat="47.21254" lon="-1.5532">
        <ele>45</ele>
        <time>2020-09-26T12:38:20.000Z</time>
      </trkpt>
      <trkpt lat="47.21258" lon="-1.55332">
        <ele>47</ele>
        <time>2020-09-26T12:38:22.000Z</time>
      </trkpt>
      <trkpt lat="47.21267" lon="-1.55345">
        <ele>49</ele>
        <time>2020-09-26T12:38:25.000Z</time>
      </trkpt>
      <trkpt lat="47.21279" lon="-1.55355">
        <ele>50</ele>
        <time>2020-09-26T12:38:28.000Z</time>
      </trkpt>
      <trkpt lat="47.21285" lon="-1.55366">
        <ele>49</ele>
        <time>2020-09-26T12:38:30.000Z</time>
      </trkpt>
      <trkpt lat="47.21279" lon="-1.55377">
        <ele>49</ele>
        <time>2020-09-26T12:38:32.000Z</time>
      </trkpt>
      <trkpt lat="47.21271" lon="-1.5539">
        <ele>49</ele>
        <time>2020-09-26T12:38:34.000Z</time>
      </trkpt>
      <trkpt lat="47.21265" lon="-1.55406">
        <ele>49</ele>
        <time>2020-09-26T12:38:36.000Z</time>
      </trkpt>
      <trkpt lat="47.21257" lon="-1.55421">
        <ele>49</ele>
        <time>2020-09-26T12:38:38.000Z</time>
      </trkpt>
      <trkpt lat="47.21249" lon="-1.55436">
        <ele>49</ele>
        <time>2020-09-26T12:38:40.000Z</time>
      </trkpt>
      <trkpt lat="47.2124" lon="-1.55449">
        <ele>48</ele>
        <time>2020-09-26T12:38:42.000Z</time>
      </trkpt>
      <trkpt lat="47.21231" lon="-1.55463">
        <ele>48</ele>
        <time>2020-09-26T12:38:44.000Z</time>
      </trkpt>
      <trkpt lat="47.21223" lon="-1.55479">
        <ele>47</ele>
        <time>2020-09-26T12:38:46.000Z</time>
      </trkpt>
      <trkpt lat="47.21217" lon="-1.55496">
        <ele>47</ele>
        <time>2020-09-26T12:38:48.000Z</time>
      </trkpt>
      <trkpt lat="47.21212" lon="-1.55514">
        <ele>47</ele>
        <time>2020-09-26T12:38:50.000Z</time>
      </trkpt>
      <trkpt lat="47.21207" lon="-1.55532">
        <ele>47</ele>
        <time>2020-09-26T12:38:52.000Z</time>
      </trkpt>
      <trkpt lat="47.21202" lon="-1.55551">
        <ele>47</ele>
        <time>2020-09-26T12:38:54.000Z</time>
      </trkpt>
      <trkpt lat="47.21196" lon="-1.55569">
        <ele>47</ele>
        <time>2020-09-26T12:38:56.000Z</time>
      </trkpt>
      <trkpt lat="47.2119" lon="-1.55586">
        <ele>47</ele>
        <time>2020-09-26T12:38:58.000Z</time>
      </trkpt>
      <trkpt lat="47.21184" lon="-1.55604">
        <ele>47</ele>
        <time>2020-09-26T12:39:00.000Z</time>
      </trkpt>
      <trkpt lat="47.21178" lon="-1.55619">
        <ele>47</ele>
        <time>2020-09-26T12:39:02.000Z</time>
      </trkpt>
      <trkpt lat="47.21174" lon="-1.55633">
        <ele>47</ele>
        <time>2020-09-26T12:39:04.000Z</time>
      </trkpt>
      <trkpt lat="47.2117" lon="-1.55646">
        <ele>47</ele>
        <time>2020-09-26T12:39:08.000Z</time>
      </trkpt>
      <trkpt lat="47.21166" lon="-1.5566">
        <ele>47</ele>
        <time>2020-09-26T12:39:11.000Z</time>
      </trkpt>
      <trkpt lat="47.2116" lon="-1.55671">
        <ele>47</ele>
        <time>2020-09-26T12:39:13.000Z</time>
      </trkpt>
      <trkpt lat="47.21151" lon="-1.55676">
        <ele>47</ele>
        <time>2020-09-26T12:39:15.000Z</time>
      </trkpt>
      <trkpt lat="47.21141" lon="-1.5567">
        <ele>47</ele>
        <time>2020-09-26T12:39:17.000Z</time>
      </trkpt>
      <trkpt lat="47.21131" lon="-1.55659">
        <ele>47</ele>
        <time>2020-09-26T12:39:19.000Z</time>
      </trkpt>
      <trkpt lat="47.21119" lon="-1.55647">
        <ele>47</ele>
        <time>2020-09-26T12:39:21.000Z</time>
      </trkpt>
      <trkpt lat="47.21108" lon="-1.55637">
        <ele>48</ele>
        <time>2020-09-26T12:39:23.000Z</time>
      </trkpt>
      <trkpt lat="47.21096" lon="-1.55628">
        <ele>48</ele>
        <time>2020-09-26T12:39:25.000Z</time>
      </trkpt>
      <trkpt lat="47.21084" lon="-1.5562">
        <ele>48</ele>
        <time>2020-09-26T12:39:27.000Z</time>
      </trkpt>
      <trkpt lat="47.21072" lon="-1.55613">
        <ele>49</ele>
        <time>2020-09-26T12:39:29.000Z</time>
      </trkpt>
      <trkpt lat="47.21059" lon="-1.55606">
        <ele>49</ele>
        <time>2020-09-26T12:39:31.000Z</time>
      </trkpt>
      <trkpt lat="47.21047" lon="-1.55596">
        <ele>50</ele>
        <time>2020-09-26T12:39:33.000Z</time>
      </trkpt>
      <trkpt lat="47.21035" lon="-1.55587">
        <ele>50</ele>
        <time>2020-09-26T12:39:35.000Z</time>
      </trkpt>
      <trkpt lat="47.21022" lon="-1.55582">
        <ele>50</ele>
        <time>2020-09-26T12:39:37.000Z</time>
      </trkpt>
      <trkpt lat="47.21008" lon="-1.55579">
        <ele>51</ele>
        <time>2020-09-26T12:39:39.000Z</time>
      </trkpt>
      <trkpt lat="47.20995" lon="-1.55576">
        <ele>51</ele>
        <time>2020-09-26T12:39:41.000Z</time>
      </trkpt>
      <trkpt lat="47.20983" lon="-1.55573">
        <ele>51</ele>
        <time>2020-09-26T12:39:43.000Z</time>
      </trkpt>
      <trkpt lat="47.20972" lon="-1.5557">
        <ele>52</ele>
        <time>2020-09-26T12:39:46.000Z</time>
      </trkpt>
      <trkpt lat="47.20962" lon="-1.55568">
        <ele>54</ele>
        <time>2020-09-26T12:39:49.000Z</time>
      </trkpt>
      <trkpt lat="47.20952" lon="-1.55566">
        <ele>54</ele>
        <time>2020-09-26T12:39:55.000Z</time>
      </trkpt>
      <trkpt lat="47.20941" lon="-1.55563">
        <ele>56</ele>
        <time>2020-09-26T12:40:15.000Z</time>
      </trkpt>
      <trkpt lat="47.20926" lon="-1.55561">
        <ele>55</ele>
        <time>2020-09-26T12:40:18.000Z</time>
      </trkpt>
      <trkpt lat="47.20915" lon="-1.55557">
        <ele>54</ele>
        <time>2020-09-26T12:40:20.000Z</time>
      </trkpt>
      <trkpt lat="47.20903" lon="-1.55553">
        <ele>54</ele>
        <time>2020-09-26T12:40:22.000Z</time>
      </trkpt>
      <trkpt lat="47.20891" lon="-1.5555">
        <ele>54</ele>
        <time>2020-09-26T12:40:24.000Z</time>
      </trkpt>
      <trkpt lat="47.20878" lon="-1.55549">
        <ele>53</ele>
        <time>2020-09-26T12:40:26.000Z</time>
      </trkpt>
      <trkpt lat="47.20864" lon="-1.55545">
        <ele>52</ele>
        <time>2020-09-26T12:40:28.000Z</time>
      </trkpt>
      <trkpt lat="47.2085" lon="-1.55543">
        <ele>52</ele>
        <time>2020-09-26T12:40:30.000Z</time>
      </trkpt>
      <trkpt lat="47.20837" lon="-1.5554">
        <ele>52</ele>
        <time>2020-09-26T12:40:32.000Z</time>
      </trkpt>
      <trkpt lat="47.20824" lon="-1.55537">
        <ele>51</ele>
        <time>2020-09-26T12:40:34.000Z</time>
      </trkpt>
      <trkpt lat="47.2081" lon="-1.55534">
        <ele>51</ele>
        <time>2020-09-26T12:40:36.000Z</time>
      </trkpt>
      <trkpt lat="47.20797" lon="-1.55531">
        <ele>51</ele>
        <time>2020-09-26T12:40:38.000Z</time>
      </trkpt>
      <trkpt lat="47.20782" lon="-1.55527">
        <ele>50</ele>
        <time>2020-09-26T12:40:40.000Z</time>
      </trkpt>
      <trkpt lat="47.20767" lon="-1.55524">
        <ele>50</ele>
        <time>2020-09-26T12:40:42.000Z</time>
      </trkpt>
      <trkpt lat="47.20751" lon="-1.5552">
        <ele>49</ele>
        <time>2020-09-26T12:40:44.000Z</time>
      </trkpt>
      <trkpt lat="47.20736" lon="-1.55516">
        <ele>49</ele>
        <time>2020-09-26T12:40:46.000Z</time>
      </trkpt>
      <trkpt lat="47.2072" lon="-1.55508">
        <ele>48</ele>
        <time>2020-09-26T12:40:48.000Z</time>
      </trkpt>
      <trkpt lat="47.20703" lon="-1.55504">
        <ele>49</ele>
        <time>2020-09-26T12:40:50.000Z</time>
      </trkpt>
      <trkpt lat="47.20687" lon="-1.55502">
        <ele>50</ele>
        <time>2020-09-26T12:40:52.000Z</time>
      </trkpt>
      <trkpt lat="47.20676" lon="-1.555">
        <ele>50</ele>
        <time>2020-09-26T12:40:54.000Z</time>
      </trkpt>
      <trkpt lat="47.20663" lon="-1.55499">
        <ele>50</ele>
        <time>2020-09-26T12:40:57.000Z</time>
      </trkpt>
      <trkpt lat="47.20653" lon="-1.55497">
        <ele>52</ele>
        <time>2020-09-26T12:40:59.000Z</time>
      </trkpt>
      <trkpt lat="47.20642" lon="-1.55494">
        <ele>52</ele>
        <time>2020-09-26T12:41:01.000Z</time>
      </trkpt>
      <trkpt lat="47.20629" lon="-1.55492">
        <ele>52</ele>
        <time>2020-09-26T12:41:03.000Z</time>
      </trkpt>
      <trkpt lat="47.20616" lon="-1.55489">
        <ele>52</ele>
        <time>2020-09-26T12:41:05.000Z</time>
      </trkpt>
      <trkpt lat="47.20603" lon="-1.55485">
        <ele>52</ele>
        <time>2020-09-26T12:41:07.000Z</time>
      </trkpt>
      <trkpt lat="47.20591" lon="-1.55483">
        <ele>52</ele>
        <time>2020-09-26T12:41:09.000Z</time>
      </trkpt>
      <trkpt lat="47.2058" lon="-1.55481">
        <ele>52</ele>
        <time>2020-09-26T12:41:11.000Z</time>
      </trkpt>
      <trkpt lat="47.20569" lon="-1.55479">
        <ele>52</ele>
        <time>2020-09-26T12:41:13.000Z</time>
      </trkpt>
      <trkpt lat="47.20559" lon="-1.55479">
        <ele>52</ele>
        <time>2020-09-26T12:41:15.000Z</time>
      </trkpt>
      <trkpt lat="47.2055" lon="-1.55484">
        <ele>52</ele>
        <time>2020-09-26T12:41:17.000Z</time>
      </trkpt>
      <trkpt lat="47.2054" lon="-1.55495">
        <ele>52</ele>
        <time>2020-09-26T12:41:19.000Z</time>
      </trkpt>
      <trkpt lat="47.20529" lon="-1.55502">
        <ele>52</ele>
        <time>2020-09-26T12:41:21.000Z</time>
      </trkpt>
      <trkpt lat="47.20518" lon="-1.55501">
        <ele>51</ele>
        <time>2020-09-26T12:41:23.000Z</time>
      </trkpt>
      <trkpt lat="47.20508" lon="-1.55492">
        <ele>52</ele>
        <time>2020-09-26T12:41:25.000Z</time>
      </trkpt>
      <trkpt lat="47.205" lon="-1.55477">
        <ele>51</ele>
        <time>2020-09-26T12:41:27.000Z</time>
      </trkpt>
      <trkpt lat="47.20498" lon="-1.55458">
        <ele>53</ele>
        <time>2020-09-26T12:41:29.000Z</time>
      </trkpt>
      <trkpt lat="47.20503" lon="-1.5544">
        <ele>52</ele>
        <time>2020-09-26T12:41:31.000Z</time>
      </trkpt>
      <trkpt lat="47.20504" lon="-1.55422">
        <ele>52</ele>
        <time>2020-09-26T12:41:33.000Z</time>
      </trkpt>
      <trkpt lat="47.20498" lon="-1.55408">
        <ele>52</ele>
        <time>2020-09-26T12:41:35.000Z</time>
      </trkpt>
      <trkpt lat="47.20491" lon="-1.55394">
        <ele>52</ele>
        <time>2020-09-26T12:41:37.000Z</time>
      </trkpt>
      <trkpt lat="47.20485" lon="-1.55382">
        <ele>52</ele>
        <time>2020-09-26T12:41:39.000Z</time>
      </trkpt>
      <trkpt lat="47.20479" lon="-1.55367">
        <ele>52</ele>
        <time>2020-09-26T12:41:42.000Z</time>
      </trkpt>
      <trkpt lat="47.20472" lon="-1.55356">
        <ele>52</ele>
        <time>2020-09-26T12:41:46.000Z</time>
      </trkpt>
      <trkpt lat="47.20467" lon="-1.55345">
        <ele>51</ele>
        <time>2020-09-26T12:41:55.000Z</time>
      </trkpt>
      <trkpt lat="47.20458" lon="-1.55331">
        <ele>51</ele>
        <time>2020-09-26T12:41:57.000Z</time>
      </trkpt>
      <trkpt lat="47.2045" lon="-1.55316">
        <ele>52</ele>
        <time>2020-09-26T12:41:59.000Z</time>
      </trkpt>
      <trkpt lat="47.20442" lon="-1.55301">
        <ele>52</ele>
        <time>2020-09-26T12:42:01.000Z</time>
      </trkpt>
      <trkpt lat="47.20435" lon="-1.55284">
        <ele>53</ele>
        <time>2020-09-26T12:42:03.000Z</time>
      </trkpt>
      <trkpt lat="47.20428" lon="-1.55268">
        <ele>53</ele>
        <time>2020-09-26T12:42:05.000Z</time>
      </trkpt>
      <trkpt lat="47.2042" lon="-1.55251">
        <ele>53</ele>
        <time>2020-09-26T12:42:07.000Z</time>
      </trkpt>
      <trkpt lat="47.20411" lon="-1.55236">
        <ele>53</ele>
        <time>2020-09-26T12:42:09.000Z</time>
      </trkpt>
      <trkpt lat="47.20404" lon="-1.55222">
        <ele>53</ele>
        <time>2020-09-26T12:42:11.000Z</time>
      </trkpt>
      <trkpt lat="47.20397" lon="-1.55209">
        <ele>52</ele>
        <time>2020-09-26T12:42:13.000Z</time>
      </trkpt>
      <trkpt lat="47.20391" lon="-1.55197">
        <ele>52</ele>
        <time>2020-09-26T12:42:15.000Z</time>
      </trkpt>
      <trkpt lat="47.20385" lon="-1.55184">
        <ele>52</ele>
        <time>2020-09-26T12:42:17.000Z</time>
      </trkpt>
      <trkpt lat="47.20374" lon="-1.55183">
        <ele>53</ele>
        <time>2020-09-26T12:42:19.000Z</time>
      </trkpt>
      <trkpt lat="47.20363" lon="-1.55194">
        <ele>52</ele>
        <time>2020-09-26T12:42:21.000Z</time>
      </trkpt>
      <trkpt lat="47.20354" lon="-1.55208">
        <ele>51</ele>
        <time>2020-09-26T12:42:23.000Z</time>
      </trkpt>
      <trkpt lat="47.20344" lon="-1.55223">
        <ele>49</ele>
        <time>2020-09-26T12:42:25.000Z</time>
      </trkpt>
      <trkpt lat="47.20332" lon="-1.55236">
        <ele>49</ele>
        <time>2020-09-26T12:42:27.000Z</time>
      </trkpt>
      <trkpt lat="47.20322" lon="-1.5525">
        <ele>48</ele>
        <time>2020-09-26T12:42:29.000Z</time>
      </trkpt>
      <trkpt lat="47.20311" lon="-1.55264">
        <ele>49</ele>
        <time>2020-09-26T12:42:31.000Z</time>
      </trkpt>
      <trkpt lat="47.20301" lon="-1.55277">
        <ele>50</ele>
        <time>2020-09-26T12:42:33.000Z</time>
      </trkpt>
      <trkpt lat="47.2029" lon="-1.5529">
        <ele>50</ele>
        <time>2020-09-26T12:42:35.000Z</time>
      </trkpt>
      <trkpt lat="47.2028" lon="-1.55302">
        <ele>50</ele>
        <time>2020-09-26T12:42:37.000Z</time>
      </trkpt>
      <trkpt lat="47.2027" lon="-1.55314">
        <ele>50</ele>
        <time>2020-09-26T12:42:39.000Z</time>
      </trkpt>
      <trkpt lat="47.2026" lon="-1.55327">
        <ele>50</ele>
        <time>2020-09-26T12:42:41.000Z</time>
      </trkpt>
      <trkpt lat="47.20251" lon="-1.55341">
        <ele>49</ele>
        <time>2020-09-26T12:42:43.000Z</time>
      </trkpt>
      <trkpt lat="47.20242" lon="-1.55357">
        <ele>49</ele>
        <time>2020-09-26T12:42:45.000Z</time>
      </trkpt>
      <trkpt lat="47.20232" lon="-1.55372">
        <ele>48</ele>
        <time>2020-09-26T12:42:47.000Z</time>
      </trkpt>
      <trkpt lat="47.20221" lon="-1.55384">
        <ele>48</ele>
        <time>2020-09-26T12:42:49.000Z</time>
      </trkpt>
      <trkpt lat="47.2021" lon="-1.55396">
        <ele>49</ele>
        <time>2020-09-26T12:42:51.000Z</time>
      </trkpt>
      <trkpt lat="47.202" lon="-1.55408">
        <ele>48</ele>
        <time>2020-09-26T12:42:53.000Z</time>
      </trkpt>
      <trkpt lat="47.20191" lon="-1.55422">
        <ele>48</ele>
        <time>2020-09-26T12:42:55.000Z</time>
      </trkpt>
      <trkpt lat="47.20182" lon="-1.55435">
        <ele>48</ele>
        <time>2020-09-26T12:42:57.000Z</time>
      </trkpt>
      <trkpt lat="47.20175" lon="-1.55448">
        <ele>48</ele>
        <time>2020-09-26T12:42:59.000Z</time>
      </trkpt>
      <trkpt lat="47.20167" lon="-1.5546">
        <ele>48</ele>
        <time>2020-09-26T12:43:01.000Z</time>
      </trkpt>
      <trkpt lat="47.20158" lon="-1.5547">
        <ele>48</ele>
        <time>2020-09-26T12:43:04.000Z</time>
      </trkpt>
      <trkpt lat="47.20147" lon="-1.55463">
        <ele>48</ele>
        <time>2020-09-26T12:43:09.000Z</time>
      </trkpt>
      <trkpt lat="47.20136" lon="-1.55476">
        <ele>48</ele>
        <time>2020-09-26T12:43:12.000Z</time>
      </trkpt>
      <trkpt lat="47.20127" lon="-1.55488">
        <ele>48</ele>
        <time>2020-09-26T12:43:14.000Z</time>
      </trkpt>
      <trkpt lat="47.20116" lon="-1.55498">
        <ele>48</ele>
        <time>2020-09-26T12:43:16.000Z</time>
      </trkpt>
      <trkpt lat="47.20106" lon="-1.55511">
        <ele>48</ele>
        <time>2020-09-26T12:43:18.000Z</time>
      </trkpt>
      <trkpt lat="47.20097" lon="-1.55525">
        <ele>47</ele>
        <time>2020-09-26T12:43:20.000Z</time>
      </trkpt>
      <trkpt lat="47.20088" lon="-1.5554">
        <ele>47</ele>
        <time>2020-09-26T12:43:22.000Z</time>
      </trkpt>
      <trkpt lat="47.20079" lon="-1.55556">
        <ele>47</ele>
        <time>2020-09-26T12:43:24.000Z</time>
      </trkpt>
      <trkpt lat="47.20069" lon="-1.5557">
        <ele>48</ele>
        <time>2020-09-26T12:43:26.000Z</time>
      </trkpt>
      <trkpt lat="47.20059" lon="-1.55584">
        <ele>48</ele>
        <time>2020-09-26T12:43:28.000Z</time>
      </trkpt>
      <trkpt lat="47.20048" lon="-1.55597">
        <ele>48</ele>
        <time>2020-09-26T12:43:30.000Z</time>
      </trkpt>
      <trkpt lat="47.20037" lon="-1.55609">
        <ele>48</ele>
        <time>2020-09-26T12:43:32.000Z</time>
      </trkpt>
      <trkpt lat="47.20026" lon="-1.55619">
        <ele>48</ele>
        <time>2020-09-26T12:43:34.000Z</time>
      </trkpt>
      <trkpt lat="47.20017" lon="-1.55628">
        <ele>48</ele>
        <time>2020-09-26T12:43:36.000Z</time>
      </trkpt>
      <trkpt lat="47.20006" lon="-1.55631">
        <ele>48</ele>
        <time>2020-09-26T12:43:38.000Z</time>
      </trkpt>
      <trkpt lat="47.19994" lon="-1.55634">
        <ele>48</ele>
        <time>2020-09-26T12:43:40.000Z</time>
      </trkpt>
      <trkpt lat="47.19983" lon="-1.55642">
        <ele>48</ele>
        <time>2020-09-26T12:43:42.000Z</time>
      </trkpt>
      <trkpt lat="47.19971" lon="-1.5565">
        <ele>48</ele>
        <time>2020-09-26T12:43:44.000Z</time>
      </trkpt>
      <trkpt lat="47.19961" lon="-1.55659">
        <ele>48</ele>
        <time>2020-09-26T12:43:46.000Z</time>
      </trkpt>
      <trkpt lat="47.1995" lon="-1.5567">
        <ele>48</ele>
        <time>2020-09-26T12:43:48.000Z</time>
      </trkpt>
      <trkpt lat="47.19941" lon="-1.55684">
        <ele>47</ele>
        <time>2020-09-26T12:43:50.000Z</time>
      </trkpt>
      <trkpt lat="47.19935" lon="-1.557">
        <ele>47</ele>
        <time>2020-09-26T12:43:52.000Z</time>
      </trkpt>
      <trkpt lat="47.19931" lon="-1.55718">
        <ele>47</ele>
        <time>2020-09-26T12:43:54.000Z</time>
      </trkpt>
      <trkpt lat="47.1993" lon="-1.55737">
        <ele>48</ele>
        <time>2020-09-26T12:43:56.000Z</time>
      </trkpt>
      <trkpt lat="47.1993" lon="-1.55755">
        <ele>48</ele>
        <time>2020-09-26T12:43:58.000Z</time>
      </trkpt>
      <trkpt lat="47.19929" lon="-1.55773">
        <ele>48</ele>
        <time>2020-09-26T12:44:00.000Z</time>
      </trkpt>
      <trkpt lat="47.1993" lon="-1.55792">
        <ele>48</ele>
        <time>2020-09-26T12:44:02.000Z</time>
      </trkpt>
      <trkpt lat="47.1993" lon="-1.55811">
        <ele>48</ele>
        <time>2020-09-26T12:44:04.000Z</time>
      </trkpt>
      <trkpt lat="47.1993" lon="-1.5583">
        <ele>48</ele>
        <time>2020-09-26T12:44:06.000Z</time>
      </trkpt>
      <trkpt lat="47.1993" lon="-1.55849">
        <ele>48</ele>
        <time>2020-09-26T12:44:08.000Z</time>
      </trkpt>
      <trkpt lat="47.19931" lon="-1.55868">
        <ele>48</ele>
        <time>2020-09-26T12:44:10.000Z</time>
      </trkpt>
      <trkpt lat="47.19931" lon="-1.55886">
        <ele>48</ele>
        <time>2020-09-26T12:44:12.000Z</time>
      </trkpt>
      <trkpt lat="47.19931" lon="-1.55904">
        <ele>49</ele>
        <time>2020-09-26T12:44:14.000Z</time>
      </trkpt>
      <trkpt lat="47.19931" lon="-1.55922">
        <ele>49</ele>
        <time>2020-09-26T12:44:16.000Z</time>
      </trkpt>
      <trkpt lat="47.19931" lon="-1.5594">
        <ele>49</ele>
        <time>2020-09-26T12:44:18.000Z</time>
      </trkpt>
      <trkpt lat="47.19931" lon="-1.55957">
        <ele>49</ele>
        <time>2020-09-26T12:44:20.000Z</time>
      </trkpt>
      <trkpt lat="47.19931" lon="-1.55974">
        <ele>49</ele>
        <time>2020-09-26T12:44:22.000Z</time>
      </trkpt>
      <trkpt lat="47.19932" lon="-1.55992">
        <ele>49</ele>
        <time>2020-09-26T12:44:24.000Z</time>
      </trkpt>
      <trkpt lat="47.19932" lon="-1.56008">
        <ele>49</ele>
        <time>2020-09-26T12:44:26.000Z</time>
      </trkpt>
      <trkpt lat="47.19931" lon="-1.56026">
        <ele>49</ele>
        <time>2020-09-26T12:44:28.000Z</time>
      </trkpt>
      <trkpt lat="47.19932" lon="-1.56043">
        <ele>49</ele>
        <time>2020-09-26T12:44:30.000Z</time>
      </trkpt>
      <trkpt lat="47.19933" lon="-1.5606">
        <ele>49</ele>
        <time>2020-09-26T12:44:32.000Z</time>
      </trkpt>
      <trkpt lat="47.19936" lon="-1.56075">
        <ele>49</ele>
        <time>2020-09-26T12:44:34.000Z</time>
      </trkpt>
      <trkpt lat="47.19942" lon="-1.56089">
        <ele>49</ele>
        <time>2020-09-26T12:44:36.000Z</time>
      </trkpt>
      <trkpt lat="47.19948" lon="-1.56102">
        <ele>49</ele>
        <time>2020-09-26T12:44:38.000Z</time>
      </trkpt>
      <trkpt lat="47.19954" lon="-1.56114">
        <ele>49</ele>
        <time>2020-09-26T12:44:40.000Z</time>
      </trkpt>
      <trkpt lat="47.19956" lon="-1.56129">
        <ele>50</ele>
        <time>2020-09-26T12:44:43.000Z</time>
      </trkpt>
      <trkpt lat="47.19964" lon="-1.5614">
        <ele>50</ele>
        <time>2020-09-26T12:44:48.000Z</time>
      </trkpt>
      <trkpt lat="47.19967" lon="-1.56155">
        <ele>50</ele>
        <time>2020-09-26T12:44:51.000Z</time>
      </trkpt>
      <trkpt lat="47.19961" lon="-1.56166">
        <ele>50</ele>
        <time>2020-09-26T12:44:53.000Z</time>
      </trkpt>
      <trkpt lat="47.19949" lon="-1.56168">
        <ele>50</ele>
        <time>2020-09-26T12:44:55.000Z</time>
      </trkpt>
      <trkpt lat="47.19937" lon="-1.5617">
        <ele>51</ele>
        <time>2020-09-26T12:44:57.000Z</time>
      </trkpt>
      <trkpt lat="47.19923" lon="-1.56173">
        <ele>53</ele>
        <time>2020-09-26T12:44:59.000Z</time>
      </trkpt>
      <trkpt lat="47.1991" lon="-1.56175">
        <ele>53</ele>
        <time>2020-09-26T12:45:01.000Z</time>
      </trkpt>
      <trkpt lat="47.19897" lon="-1.56177">
        <ele>54</ele>
        <time>2020-09-26T12:45:03.000Z</time>
      </trkpt>
      <trkpt lat="47.19885" lon="-1.5618">
        <ele>54</ele>
        <time>2020-09-26T12:45:05.000Z</time>
      </trkpt>
      <trkpt lat="47.19871" lon="-1.56183">
        <ele>55</ele>
        <time>2020-09-26T12:45:07.000Z</time>
      </trkpt>
      <trkpt lat="47.19857" lon="-1.56185">
        <ele>55</ele>
        <time>2020-09-26T12:45:09.000Z</time>
      </trkpt>
      <trkpt lat="47.19843" lon="-1.56188">
        <ele>55</ele>
        <time>2020-09-26T12:45:11.000Z</time>
      </trkpt>
      <trkpt lat="47.19829" lon="-1.56191">
        <ele>55</ele>
        <time>2020-09-26T12:45:13.000Z</time>
      </trkpt>
      <trkpt lat="47.19816" lon="-1.56193">
        <ele>55</ele>
        <time>2020-09-26T12:45:15.000Z</time>
      </trkpt>
      <trkpt lat="47.19801" lon="-1.56195">
        <ele>55</ele>
        <time>2020-09-26T12:45:17.000Z</time>
      </trkpt>
      <trkpt lat="47.19787" lon="-1.56198">
        <ele>55</ele>
        <time>2020-09-26T12:45:19.000Z</time>
      </trkpt>
      <trkpt lat="47.19773" lon="-1.562">
        <ele>54</ele>
        <time>2020-09-26T12:45:21.000Z</time>
      </trkpt>
      <trkpt lat="47.19759" lon="-1.56203">
        <ele>53</ele>
        <time>2020-09-26T12:45:23.000Z</time>
      </trkpt>
      <trkpt lat="47.19744" lon="-1.56206">
        <ele>53</ele>
        <time>2020-09-26T12:45:25.000Z</time>
      </trkpt>
      <trkpt lat="47.19727" lon="-1.56209">
        <ele>53</ele>
        <time>2020-09-26T12:45:27.000Z</time>
      </trkpt>
      <trkpt lat="47.19711" lon="-1.56213">
        <ele>52</ele>
        <time>2020-09-26T12:45:29.000Z</time>
      </trkpt>
      <trkpt lat="47.19702" lon="-1.56215">
        <ele>51</ele>
        <time>2020-09-26T12:45:30.000Z</time>
      </trkpt>
      <trkpt lat="47.19692" lon="-1.56217">
        <ele>51</ele>
        <time>2020-09-26T12:45:31.000Z</time>
      </trkpt>
      <trkpt lat="47.19682" lon="-1.56218">
        <ele>50</ele>
        <time>2020-09-26T12:45:32.000Z</time>
      </trkpt>
      <trkpt lat="47.19673" lon="-1.56221">
        <ele>49</ele>
        <time>2020-09-26T12:45:33.000Z</time>
      </trkpt>
      <trkpt lat="47.19663" lon="-1.56224">
        <ele>49</ele>
        <time>2020-09-26T12:45:34.000Z</time>
      </trkpt>
      <trkpt lat="47.19654" lon="-1.56227">
        <ele>49</ele>
        <time>2020-09-26T12:45:35.000Z</time>
      </trkpt>
      <trkpt lat="47.19644" lon="-1.5623">
        <ele>49</ele>
        <time>2020-09-26T12:45:36.000Z</time>
      </trkpt>
      <trkpt lat="47.19637" lon="-1.56238">
        <ele>48</ele>
        <time>2020-09-26T12:45:37.000Z</time>
      </trkpt>
      <trkpt lat="47.19633" lon="-1.5625">
        <ele>48</ele>
        <time>2020-09-26T12:45:38.000Z</time>
      </trkpt>
      <trkpt lat="47.19632" lon="-1.56274">
        <ele>48</ele>
        <time>2020-09-26T12:45:40.000Z</time>
      </trkpt>
      <trkpt lat="47.19632" lon="-1.56297">
        <ele>47</ele>
        <time>2020-09-26T12:45:42.000Z</time>
      </trkpt>
      <trkpt lat="47.1963" lon="-1.56319">
        <ele>48</ele>
        <time>2020-09-26T12:45:44.000Z</time>
      </trkpt>
      <trkpt lat="47.19629" lon="-1.56341">
        <ele>47</ele>
        <time>2020-09-26T12:45:46.000Z</time>
      </trkpt>
      <trkpt lat="47.19628" lon="-1.56364">
        <ele>47</ele>
        <time>2020-09-26T12:45:48.000Z</time>
      </trkpt>
      <trkpt lat="47.19629" lon="-1.56386">
        <ele>47</ele>
        <time>2020-09-26T12:45:50.000Z</time>
      </trkpt>
      <trkpt lat="47.19629" lon="-1.56409">
        <ele>46</ele>
        <time>2020-09-26T12:45:52.000Z</time>
      </trkpt>
      <trkpt lat="47.19629" lon="-1.56431">
        <ele>47</ele>
        <time>2020-09-26T12:45:54.000Z</time>
      </trkpt>
      <trkpt lat="47.1963" lon="-1.56453">
        <ele>47</ele>
        <time>2020-09-26T12:45:56.000Z</time>
      </trkpt>
      <trkpt lat="47.19631" lon="-1.56474">
        <ele>47</ele>
        <time>2020-09-26T12:45:58.000Z</time>
      </trkpt>
      <trkpt lat="47.19632" lon="-1.56496">
        <ele>46</ele>
        <time>2020-09-26T12:46:00.000Z</time>
      </trkpt>
      <trkpt lat="47.19632" lon="-1.56518">
        <ele>46</ele>
        <time>2020-09-26T12:46:02.000Z</time>
      </trkpt>
      <trkpt lat="47.19631" lon="-1.56539">
        <ele>46</ele>
        <time>2020-09-26T12:46:04.000Z</time>
      </trkpt>
      <trkpt lat="47.19631" lon="-1.56561">
        <ele>46</ele>
        <time>2020-09-26T12:46:06.000Z</time>
      </trkpt>
      <trkpt lat="47.1963" lon="-1.56583">
        <ele>46</ele>
        <time>2020-09-26T12:46:08.000Z</time>
      </trkpt>
      <trkpt lat="47.19629" lon="-1.56605">
        <ele>46</ele>
        <time>2020-09-26T12:46:10.000Z</time>
      </trkpt>
      <trkpt lat="47.19628" lon="-1.56627">
        <ele>46</ele>
        <time>2020-09-26T12:46:12.000Z</time>
      </trkpt>
      <trkpt lat="47.19627" lon="-1.56648">
        <ele>47</ele>
        <time>2020-09-26T12:46:14.000Z</time>
      </trkpt>
      <trkpt lat="47.19626" lon="-1.56669">
        <ele>47</ele>
        <time>2020-09-26T12:46:16.000Z</time>
      </trkpt>
      <trkpt lat="47.19625" lon="-1.5669">
        <ele>47</ele>
        <time>2020-09-26T12:46:18.000Z</time>
      </trkpt>
      <trkpt lat="47.19624" lon="-1.5671">
        <ele>48</ele>
        <time>2020-09-26T12:46:20.000Z</time>
      </trkpt>
      <trkpt lat="47.19621" lon="-1.5673">
        <ele>48</ele>
        <time>2020-09-26T12:46:22.000Z</time>
      </trkpt>
      <trkpt lat="47.19621" lon="-1.56751">
        <ele>48</ele>
        <time>2020-09-26T12:46:24.000Z</time>
      </trkpt>
      <trkpt lat="47.19619" lon="-1.56771">
        <ele>47</ele>
        <time>2020-09-26T12:46:26.000Z</time>
      </trkpt>
      <trkpt lat="47.19618" lon="-1.56792">
        <ele>47</ele>
        <time>2020-09-26T12:46:28.000Z</time>
      </trkpt>
      <trkpt lat="47.19617" lon="-1.56813">
        <ele>47</ele>
        <time>2020-09-26T12:46:30.000Z</time>
      </trkpt>
      <trkpt lat="47.19616" lon="-1.56833">
        <ele>47</ele>
        <time>2020-09-26T12:46:32.000Z</time>
      </trkpt>
      <trkpt lat="47.19615" lon="-1.56853">
        <ele>47</ele>
        <time>2020-09-26T12:46:34.000Z</time>
      </trkpt>
      <trkpt lat="47.19613" lon="-1.56874">
        <ele>47</ele>
        <time>2020-09-26T12:46:36.000Z</time>
      </trkpt>
      <trkpt lat="47.19611" lon="-1.56894">
        <ele>47</ele>
        <time>2020-09-26T12:46:38.000Z</time>
      </trkpt>
      <trkpt lat="47.19611" lon="-1.56914">
        <ele>47</ele>
        <time>2020-09-26T12:46:40.000Z</time>
      </trkpt>
      <trkpt lat="47.1961" lon="-1.56934">
        <ele>47</ele>
        <time>2020-09-26T12:46:42.000Z</time>
      </trkpt>
      <trkpt lat="47.19609" lon="-1.56955">
        <ele>47</ele>
        <time>2020-09-26T12:46:44.000Z</time>
      </trkpt>
      <trkpt lat="47.19607" lon="-1.56975">
        <ele>47</ele>
        <time>2020-09-26T12:46:46.000Z</time>
      </trkpt>
      <trkpt lat="47.19605" lon="-1.56996">
        <ele>48</ele>
        <time>2020-09-26T12:46:48.000Z</time>
      </trkpt>
      <trkpt lat="47.19604" lon="-1.57017">
        <ele>47</ele>
        <time>2020-09-26T12:46:50.000Z</time>
      </trkpt>
      <trkpt lat="47.19603" lon="-1.57037">
        <ele>47</ele>
        <time>2020-09-26T12:46:52.000Z</time>
      </trkpt>
      <trkpt lat="47.19602" lon="-1.57056">
        <ele>47</ele>
        <time>2020-09-26T12:46:54.000Z</time>
      </trkpt>
      <trkpt lat="47.19601" lon="-1.57074">
        <ele>47</ele>
        <time>2020-09-26T12:46:56.000Z</time>
      </trkpt>
      <trkpt lat="47.19599" lon="-1.57092">
        <ele>47</ele>
        <time>2020-09-26T12:46:58.000Z</time>
      </trkpt>
      <trkpt lat="47.19598" lon="-1.57111">
        <ele>48</ele>
        <time>2020-09-26T12:47:00.000Z</time>
      </trkpt>
      <trkpt lat="47.19597" lon="-1.57131">
        <ele>48</ele>
        <time>2020-09-26T12:47:02.000Z</time>
      </trkpt>
      <trkpt lat="47.19596" lon="-1.57152">
        <ele>48</ele>
        <time>2020-09-26T12:47:04.000Z</time>
      </trkpt>
      <trkpt lat="47.19595" lon="-1.57172">
        <ele>48</ele>
        <time>2020-09-26T12:47:06.000Z</time>
      </trkpt>
      <trkpt lat="47.19594" lon="-1.57191">
        <ele>48</ele>
        <time>2020-09-26T12:47:08.000Z</time>
      </trkpt>
      <trkpt lat="47.19593" lon="-1.57213">
        <ele>47</ele>
        <time>2020-09-26T12:47:10.000Z</time>
      </trkpt>
      <trkpt lat="47.19592" lon="-1.57234">
        <ele>47</ele>
        <time>2020-09-26T12:47:12.000Z</time>
      </trkpt>
      <trkpt lat="47.1959" lon="-1.57254">
        <ele>46</ele>
        <time>2020-09-26T12:47:14.000Z</time>
      </trkpt>
      <trkpt lat="47.19588" lon="-1.57274">
        <ele>47</ele>
        <time>2020-09-26T12:47:16.000Z</time>
      </trkpt>
      <trkpt lat="47.19587" lon="-1.57293">
        <ele>47</ele>
        <time>2020-09-26T12:47:18.000Z</time>
      </trkpt>
      <trkpt lat="47.19585" lon="-1.57313">
        <ele>47</ele>
        <time>2020-09-26T12:47:20.000Z</time>
      </trkpt>
      <trkpt lat="47.19582" lon="-1.57331">
        <ele>47</ele>
        <time>2020-09-26T12:47:22.000Z</time>
      </trkpt>
      <trkpt lat="47.19578" lon="-1.57348">
        <ele>47</ele>
        <time>2020-09-26T12:47:24.000Z</time>
      </trkpt>
      <trkpt lat="47.19575" lon="-1.57365">
        <ele>47</ele>
        <time>2020-09-26T12:47:26.000Z</time>
      </trkpt>
      <trkpt lat="47.19571" lon="-1.57382">
        <ele>48</ele>
        <time>2020-09-26T12:47:28.000Z</time>
      </trkpt>
      <trkpt lat="47.19567" lon="-1.574">
        <ele>48</ele>
        <time>2020-09-26T12:47:30.000Z</time>
      </trkpt>
      <trkpt lat="47.19564" lon="-1.57419">
        <ele>48</ele>
        <time>2020-09-26T12:47:32.000Z</time>
      </trkpt>
      <trkpt lat="47.1956" lon="-1.57438">
        <ele>48</ele>
        <time>2020-09-26T12:47:34.000Z</time>
      </trkpt>
      <trkpt lat="47.19556" lon="-1.57457">
        <ele>49</ele>
        <time>2020-09-26T12:47:36.000Z</time>
      </trkpt>
      <trkpt lat="47.19553" lon="-1.57477">
        <ele>49</ele>
        <time>2020-09-26T12:47:38.000Z</time>
      </trkpt>
      <trkpt lat="47.19549" lon="-1.57496">
        <ele>48</ele>
        <time>2020-09-26T12:47:40.000Z</time>
      </trkpt>
      <trkpt lat="47.19545" lon="-1.57515">
        <ele>48</ele>
        <time>2020-09-26T12:47:42.000Z</time>
      </trkpt>
      <trkpt lat="47.19542" lon="-1.57533">
        <ele>48</ele>
        <time>2020-09-26T12:47:44.000Z</time>
      </trkpt>
      <trkpt lat="47.19538" lon="-1.57552">
        <ele>48</ele>
        <time>2020-09-26T12:47:46.000Z</time>
      </trkpt>
      <trkpt lat="47.19535" lon="-1.57571">
        <ele>48</ele>
        <time>2020-09-26T12:47:48.000Z</time>
      </trkpt>
      <trkpt lat="47.19531" lon="-1.5759">
        <ele>48</ele>
        <time>2020-09-26T12:47:50.000Z</time>
      </trkpt>
      <trkpt lat="47.19527" lon="-1.57609">
        <ele>48</ele>
        <time>2020-09-26T12:47:52.000Z</time>
      </trkpt>
      <trkpt lat="47.19524" lon="-1.57626">
        <ele>48</ele>
        <time>2020-09-26T12:47:54.000Z</time>
      </trkpt>
      <trkpt lat="47.1952" lon="-1.57643">
        <ele>47</ele>
        <time>2020-09-26T12:47:56.000Z</time>
      </trkpt>
      <trkpt lat="47.19516" lon="-1.57661">
        <ele>47</ele>
        <time>2020-09-26T12:47:58.000Z</time>
      </trkpt>
      <trkpt lat="47.19512" lon="-1.57679">
        <ele>48</ele>
        <time>2020-09-26T12:48:00.000Z</time>
      </trkpt>
      <trkpt lat="47.19509" lon="-1.57697">
        <ele>47</ele>
        <time>2020-09-26T12:48:02.000Z</time>
      </trkpt>
      <trkpt lat="47.19505" lon="-1.57715">
        <ele>47</ele>
        <time>2020-09-26T12:48:04.000Z</time>
      </trkpt>
      <trkpt lat="47.19501" lon="-1.57734">
        <ele>47</ele>
        <time>2020-09-26T12:48:06.000Z</time>
      </trkpt>
      <trkpt lat="47.19497" lon="-1.57752">
        <ele>47</ele>
        <time>2020-09-26T12:48:08.000Z</time>
      </trkpt>
      <trkpt lat="47.19493" lon="-1.57769">
        <ele>47</ele>
        <time>2020-09-26T12:48:10.000Z</time>
      </trkpt>
      <trkpt lat="47.1949" lon="-1.57788">
        <ele>47</ele>
        <time>2020-09-26T12:48:12.000Z</time>
      </trkpt>
      <trkpt lat="47.19486" lon="-1.57807">
        <ele>47</ele>
        <time>2020-09-26T12:48:14.000Z</time>
      </trkpt>
      <trkpt lat="47.19482" lon="-1.57825">
        <ele>47</ele>
        <time>2020-09-26T12:48:16.000Z</time>
      </trkpt>
      <trkpt lat="47.19481" lon="-1.57843">
        <ele>47</ele>
        <time>2020-09-26T12:48:18.000Z</time>
      </trkpt>
      <trkpt lat="47.1948" lon="-1.57859">
        <ele>47</ele>
        <time>2020-09-26T12:48:20.000Z</time>
      </trkpt>
      <trkpt lat="47.19477" lon="-1.57877">
        <ele>46</ele>
        <time>2020-09-26T12:48:22.000Z</time>
      </trkpt>
      <trkpt lat="47.19473" lon="-1.57895">
        <ele>46</ele>
        <time>2020-09-26T12:48:24.000Z</time>
      </trkpt>
      <trkpt lat="47.1947" lon="-1.57915">
        <ele>46</ele>
        <time>2020-09-26T12:48:26.000Z</time>
      </trkpt>
      <trkpt lat="47.19468" lon="-1.57935">
        <ele>46</ele>
        <time>2020-09-26T12:48:28.000Z</time>
      </trkpt>
      <trkpt lat="47.19466" lon="-1.57954">
        <ele>46</ele>
        <time>2020-09-26T12:48:30.000Z</time>
      </trkpt>
      <trkpt lat="47.19464" lon="-1.57972">
        <ele>46</ele>
        <time>2020-09-26T12:48:32.000Z</time>
      </trkpt>
      <trkpt lat="47.19463" lon="-1.57989">
        <ele>47</ele>
        <time>2020-09-26T12:48:34.000Z</time>
      </trkpt>
      <trkpt lat="47.19463" lon="-1.58006">
        <ele>46</ele>
        <time>2020-09-26T12:48:36.000Z</time>
      </trkpt>
      <trkpt lat="47.19461" lon="-1.58024">
        <ele>46</ele>
        <time>2020-09-26T12:48:38.000Z</time>
      </trkpt>
      <trkpt lat="47.19459" lon="-1.5804">
        <ele>46</ele>
        <time>2020-09-26T12:48:40.000Z</time>
      </trkpt>
      <trkpt lat="47.19458" lon="-1.58055">
        <ele>46</ele>
        <time>2020-09-26T12:48:42.000Z</time>
      </trkpt>
      <trkpt lat="47.19456" lon="-1.5807">
        <ele>45</ele>
        <time>2020-09-26T12:48:44.000Z</time>
      </trkpt>
      <trkpt lat="47.19455" lon="-1.58083">
        <ele>45</ele>
        <time>2020-09-26T12:48:46.000Z</time>
      </trkpt>
      <trkpt lat="47.1945" lon="-1.58096">
        <ele>45</ele>
        <time>2020-09-26T12:48:48.000Z</time>
      </trkpt>
      <trkpt lat="47.19441" lon="-1.58106">
        <ele>46</ele>
        <time>2020-09-26T12:48:50.000Z</time>
      </trkpt>
      <trkpt lat="47.19431" lon="-1.58117">
        <ele>47</ele>
        <time>2020-09-26T12:48:52.000Z</time>
      </trkpt>
      <trkpt lat="47.19422" lon="-1.58127">
        <ele>47</ele>
        <time>2020-09-26T12:48:54.000Z</time>
      </trkpt>
      <trkpt lat="47.19412" lon="-1.58138">
        <ele>46</ele>
        <time>2020-09-26T12:48:56.000Z</time>
      </trkpt>
      <trkpt lat="47.19403" lon="-1.58152">
        <ele>47</ele>
        <time>2020-09-26T12:48:58.000Z</time>
      </trkpt>
      <trkpt lat="47.19397" lon="-1.58167">
        <ele>46</ele>
        <time>2020-09-26T12:49:00.000Z</time>
      </trkpt>
      <trkpt lat="47.1939" lon="-1.58182">
        <ele>47</ele>
        <time>2020-09-26T12:49:02.000Z</time>
      </trkpt>
      <trkpt lat="47.19383" lon="-1.58197">
        <ele>47</ele>
        <time>2020-09-26T12:49:04.000Z</time>
      </trkpt>
      <trkpt lat="47.19377" lon="-1.58213">
        <ele>47</ele>
        <time>2020-09-26T12:49:06.000Z</time>
      </trkpt>
      <trkpt lat="47.19371" lon="-1.58229">
        <ele>47</ele>
        <time>2020-09-26T12:49:08.000Z</time>
      </trkpt>
      <trkpt lat="47.19365" lon="-1.58245">
        <ele>47</ele>
        <time>2020-09-26T12:49:10.000Z</time>
      </trkpt>
      <trkpt lat="47.19359" lon="-1.58261">
        <ele>47</ele>
        <time>2020-09-26T12:49:12.000Z</time>
      </trkpt>
      <trkpt lat="47.19352" lon="-1.58275">
        <ele>47</ele>
        <time>2020-09-26T12:49:14.000Z</time>
      </trkpt>
      <trkpt lat="47.19342" lon="-1.58287">
        <ele>47</ele>
        <time>2020-09-26T12:49:16.000Z</time>
      </trkpt>
      <trkpt lat="47.19331" lon="-1.58296">
        <ele>47</ele>
        <time>2020-09-26T12:49:18.000Z</time>
      </trkpt>
      <trkpt lat="47.1932" lon="-1.58306">
        <ele>47</ele>
        <time>2020-09-26T12:49:20.000Z</time>
      </trkpt>
      <trkpt lat="47.1931" lon="-1.58316">
        <ele>47</ele>
        <time>2020-09-26T12:49:22.000Z</time>
      </trkpt>
      <trkpt lat="47.19299" lon="-1.58326">
        <ele>46</ele>
        <time>2020-09-26T12:49:24.000Z</time>
      </trkpt>
      <trkpt lat="47.19288" lon="-1.58336">
        <ele>45</ele>
        <time>2020-09-26T12:49:26.000Z</time>
      </trkpt>
      <trkpt lat="47.19277" lon="-1.58348">
        <ele>45</ele>
        <time>2020-09-26T12:49:28.000Z</time>
      </trkpt>
      <trkpt lat="47.19266" lon="-1.58359">
        <ele>45</ele>
        <time>2020-09-26T12:49:30.000Z</time>
      </trkpt>
      <trkpt lat="47.19255" lon="-1.58369">
        <ele>45</ele>
        <time>2020-09-26T12:49:32.000Z</time>
      </trkpt>
      <trkpt lat="47.19244" lon="-1.58379">
        <ele>45</ele>
        <time>2020-09-26T12:49:34.000Z</time>
      </trkpt>
      <trkpt lat="47.19233" lon="-1.58388">
        <ele>45</ele>
        <time>2020-09-26T12:49:36.000Z</time>
      </trkpt>
      <trkpt lat="47.19222" lon="-1.58398">
        <ele>45</ele>
        <time>2020-09-26T12:49:38.000Z</time>
      </trkpt>
      <trkpt lat="47.19212" lon="-1.58407">
        <ele>46</ele>
        <time>2020-09-26T12:49:40.000Z</time>
      </trkpt>
      <trkpt lat="47.19201" lon="-1.58417">
        <ele>45</ele>
        <time>2020-09-26T12:49:42.000Z</time>
      </trkpt>
      <trkpt lat="47.19191" lon="-1.58426">
        <ele>46</ele>
        <time>2020-09-26T12:49:44.000Z</time>
      </trkpt>
      <trkpt lat="47.1918" lon="-1.58436">
        <ele>45</ele>
        <time>2020-09-26T12:49:46.000Z</time>
      </trkpt>
      <trkpt lat="47.19171" lon="-1.58445">
        <ele>45</ele>
        <time>2020-09-26T12:49:48.000Z</time>
      </trkpt>
      <trkpt lat="47.19161" lon="-1.58454">
        <ele>45</ele>
        <time>2020-09-26T12:49:50.000Z</time>
      </trkpt>
      <trkpt lat="47.19153" lon="-1.58463">
        <ele>45</ele>
        <time>2020-09-26T12:49:52.000Z</time>
      </trkpt>
      <trkpt lat="47.19142" lon="-1.58472">
        <ele>45</ele>
        <time>2020-09-26T12:49:55.000Z</time>
      </trkpt>
      <trkpt lat="47.19133" lon="-1.58482">
        <ele>45</ele>
        <time>2020-09-26T12:49:57.000Z</time>
      </trkpt>
      <trkpt lat="47.19122" lon="-1.58492">
        <ele>45</ele>
        <time>2020-09-26T12:49:59.000Z</time>
      </trkpt>
      <trkpt lat="47.19111" lon="-1.58504">
        <ele>45</ele>
        <time>2020-09-26T12:50:01.000Z</time>
      </trkpt>
      <trkpt lat="47.191" lon="-1.58515">
        <ele>45</ele>
        <time>2020-09-26T12:50:03.000Z</time>
      </trkpt>
      <trkpt lat="47.19088" lon="-1.58526">
        <ele>45</ele>
        <time>2020-09-26T12:50:05.000Z</time>
      </trkpt>
      <trkpt lat="47.19077" lon="-1.58538">
        <ele>45</ele>
        <time>2020-09-26T12:50:07.000Z</time>
      </trkpt>
      <trkpt lat="47.19066" lon="-1.58548">
        <ele>46</ele>
        <time>2020-09-26T12:50:09.000Z</time>
      </trkpt>
      <trkpt lat="47.19055" lon="-1.58559">
        <ele>46</ele>
        <time>2020-09-26T12:50:11.000Z</time>
      </trkpt>
      <trkpt lat="47.19046" lon="-1.5857">
        <ele>47</ele>
        <time>2020-09-26T12:50:13.000Z</time>
      </trkpt>
      <trkpt lat="47.19036" lon="-1.58581">
        <ele>47</ele>
        <time>2020-09-26T12:50:15.000Z</time>
      </trkpt>
      <trkpt lat="47.19026" lon="-1.58592">
        <ele>47</ele>
        <time>2020-09-26T12:50:17.000Z</time>
      </trkpt>
      <trkpt lat="47.19015" lon="-1.58603">
        <ele>46</ele>
        <time>2020-09-26T12:50:19.000Z</time>
      </trkpt>
      <trkpt lat="47.19004" lon="-1.58614">
        <ele>47</ele>
        <time>2020-09-26T12:50:21.000Z</time>
      </trkpt>
      <trkpt lat="47.18994" lon="-1.58624">
        <ele>47</ele>
        <time>2020-09-26T12:50:23.000Z</time>
      </trkpt>
      <trkpt lat="47.18983" lon="-1.58634">
        <ele>47</ele>
        <time>2020-09-26T12:50:25.000Z</time>
      </trkpt>
      <trkpt lat="47.18972" lon="-1.58645">
        <ele>47</ele>
        <time>2020-09-26T12:50:27.000Z</time>
      </trkpt>
      <trkpt lat="47.18962" lon="-1.58654">
        <ele>47</ele>
        <time>2020-09-26T12:50:29.000Z</time>
      </trkpt>
      <trkpt lat="47.18951" lon="-1.58664">
        <ele>47</ele>
        <time>2020-09-26T12:50:31.000Z</time>
      </trkpt>
      <trkpt lat="47.18941" lon="-1.58674">
        <ele>47</ele>
        <time>2020-09-26T12:50:33.000Z</time>
      </trkpt>
      <trkpt lat="47.18931" lon="-1.58683">
        <ele>47</ele>
        <time>2020-09-26T12:50:35.000Z</time>
      </trkpt>
      <trkpt lat="47.1892" lon="-1.58694">
        <ele>47</ele>
        <time>2020-09-26T12:50:37.000Z</time>
      </trkpt>
      <trkpt lat="47.1891" lon="-1.58703">
        <ele>47</ele>
        <time>2020-09-26T12:50:39.000Z</time>
      </trkpt>
      <trkpt lat="47.18899" lon="-1.58711">
        <ele>47</ele>
        <time>2020-09-26T12:50:41.000Z</time>
      </trkpt>
      <trkpt lat="47.18889" lon="-1.58718">
        <ele>48</ele>
        <time>2020-09-26T12:50:43.000Z</time>
      </trkpt>
      <trkpt lat="47.18879" lon="-1.58724">
        <ele>47</ele>
        <time>2020-09-26T12:50:45.000Z</time>
      </trkpt>
      <trkpt lat="47.18869" lon="-1.5873">
        <ele>47</ele>
        <time>2020-09-26T12:50:47.000Z</time>
      </trkpt>
      <trkpt lat="47.18859" lon="-1.58735">
        <ele>47</ele>
        <time>2020-09-26T12:50:49.000Z</time>
      </trkpt>
      <trkpt lat="47.1885" lon="-1.58738">
        <ele>48</ele>
        <time>2020-09-26T12:50:51.000Z</time>
      </trkpt>
      <trkpt lat="47.18838" lon="-1.58744">
        <ele>47</ele>
        <time>2020-09-26T12:50:54.000Z</time>
      </trkpt>
      <trkpt lat="47.18827" lon="-1.58754">
        <ele>47</ele>
        <time>2020-09-26T12:50:57.000Z</time>
      </trkpt>
      <trkpt lat="47.18823" lon="-1.5877">
        <ele>47</ele>
        <time>2020-09-26T12:50:59.000Z</time>
      </trkpt>
      <trkpt lat="47.18815" lon="-1.58786">
        <ele>48</ele>
        <time>2020-09-26T12:51:01.000Z</time>
      </trkpt>
      <trkpt lat="47.18803" lon="-1.58796">
        <ele>48</ele>
        <time>2020-09-26T12:51:03.000Z</time>
      </trkpt>
      <trkpt lat="47.18788" lon="-1.58798">
        <ele>48</ele>
        <time>2020-09-26T12:51:05.000Z</time>
      </trkpt>
      <trkpt lat="47.18774" lon="-1.58792">
        <ele>48</ele>
        <time>2020-09-26T12:51:07.000Z</time>
      </trkpt>
      <trkpt lat="47.18761" lon="-1.58778">
        <ele>48</ele>
        <time>2020-09-26T12:51:09.000Z</time>
      </trkpt>
      <trkpt lat="47.18755" lon="-1.58757">
        <ele>48</ele>
        <time>2020-09-26T12:51:11.000Z</time>
      </trkpt>
      <trkpt lat="47.18752" lon="-1.58735">
        <ele>48</ele>
        <time>2020-09-26T12:51:13.000Z</time>
      </trkpt>
      <trkpt lat="47.18742" lon="-1.58718">
        <ele>47</ele>
        <time>2020-09-26T12:51:15.000Z</time>
      </trkpt>
      <trkpt lat="47.18729" lon="-1.58706">
        <ele>46</ele>
        <time>2020-09-26T12:51:17.000Z</time>
      </trkpt>
      <trkpt lat="47.18714" lon="-1.58698">
        <ele>46</ele>
        <time>2020-09-26T12:51:19.000Z</time>
      </trkpt>
      <trkpt lat="47.18698" lon="-1.58697">
        <ele>46</ele>
        <time>2020-09-26T12:51:21.000Z</time>
      </trkpt>
      <trkpt lat="47.18684" lon="-1.58695">
        <ele>47</ele>
        <time>2020-09-26T12:51:23.000Z</time>
      </trkpt>
      <trkpt lat="47.1867" lon="-1.58694">
        <ele>47</ele>
        <time>2020-09-26T12:51:25.000Z</time>
      </trkpt>
      <trkpt lat="47.18658" lon="-1.58694">
        <ele>48</ele>
        <time>2020-09-26T12:51:27.000Z</time>
      </trkpt>
      <trkpt lat="47.18649" lon="-1.58704">
        <ele>49</ele>
        <time>2020-09-26T12:51:29.000Z</time>
      </trkpt>
      <trkpt lat="47.18647" lon="-1.58722">
        <ele>48</ele>
        <time>2020-09-26T12:51:31.000Z</time>
      </trkpt>
      <trkpt lat="47.18645" lon="-1.58741">
        <ele>50</ele>
        <time>2020-09-26T12:51:33.000Z</time>
      </trkpt>
      <trkpt lat="47.18642" lon="-1.58759">
        <ele>50</ele>
        <time>2020-09-26T12:51:35.000Z</time>
      </trkpt>
      <trkpt lat="47.18638" lon="-1.58776">
        <ele>49</ele>
        <time>2020-09-26T12:51:37.000Z</time>
      </trkpt>
      <trkpt lat="47.18635" lon="-1.58794">
        <ele>50</ele>
        <time>2020-09-26T12:51:39.000Z</time>
      </trkpt>
      <trkpt lat="47.18633" lon="-1.58811">
        <ele>49</ele>
        <time>2020-09-26T12:51:41.000Z</time>
      </trkpt>
      <trkpt lat="47.18631" lon="-1.58829">
        <ele>49</ele>
        <time>2020-09-26T12:51:43.000Z</time>
      </trkpt>
      <trkpt lat="47.18628" lon="-1.58846">
        <ele>50</ele>
        <time>2020-09-26T12:51:45.000Z</time>
      </trkpt>
      <trkpt lat="47.18625" lon="-1.58862">
        <ele>50</ele>
        <time>2020-09-26T12:51:47.000Z</time>
      </trkpt>
      <trkpt lat="47.18622" lon="-1.58878">
        <ele>50</ele>
        <time>2020-09-26T12:51:49.000Z</time>
      </trkpt>
      <trkpt lat="47.18618" lon="-1.58893">
        <ele>51</ele>
        <time>2020-09-26T12:51:51.000Z</time>
      </trkpt>
      <trkpt lat="47.18611" lon="-1.58905">
        <ele>51</ele>
        <time>2020-09-26T12:51:53.000Z</time>
      </trkpt>
      <trkpt lat="47.18601" lon="-1.58913">
        <ele>51</ele>
        <time>2020-09-26T12:51:55.000Z</time>
      </trkpt>
      <trkpt lat="47.18591" lon="-1.58918">
        <ele>52</ele>
        <time>2020-09-26T12:51:57.000Z</time>
      </trkpt>
      <trkpt lat="47.18581" lon="-1.58918">
        <ele>52</ele>
        <time>2020-09-26T12:51:59.000Z</time>
      </trkpt>
      <trkpt lat="47.18571" lon="-1.58914">
        <ele>52</ele>
        <time>2020-09-26T12:52:01.000Z</time>
      </trkpt>
      <trkpt lat="47.18562" lon="-1.58911">
        <ele>52</ele>
        <time>2020-09-26T12:52:03.000Z</time>
      </trkpt>
      <trkpt lat="47.18552" lon="-1.58907">
        <ele>53</ele>
        <time>2020-09-26T12:52:05.000Z</time>
      </trkpt>
      <trkpt lat="47.18541" lon="-1.58905">
        <ele>54</ele>
        <time>2020-09-26T12:52:07.000Z</time>
      </trkpt>
      <trkpt lat="47.18531" lon="-1.58901">
        <ele>54</ele>
        <time>2020-09-26T12:52:09.000Z</time>
      </trkpt>
      <trkpt lat="47.18522" lon="-1.58897">
        <ele>55</ele>
        <time>2020-09-26T12:52:11.000Z</time>
      </trkpt>
      <trkpt lat="47.18513" lon="-1.58892">
        <ele>55</ele>
        <time>2020-09-26T12:52:13.000Z</time>
      </trkpt>
      <trkpt lat="47.18502" lon="-1.58887">
        <ele>54</ele>
        <time>2020-09-26T12:52:16.000Z</time>
      </trkpt>
      <trkpt lat="47.18491" lon="-1.58883">
        <ele>54</ele>
        <time>2020-09-26T12:52:20.000Z</time>
      </trkpt>
      <trkpt lat="47.18483" lon="-1.58892">
        <ele>54</ele>
        <time>2020-09-26T12:52:23.000Z</time>
      </trkpt>
      <trkpt lat="47.18476" lon="-1.58904">
        <ele>54</ele>
        <time>2020-09-26T12:52:25.000Z</time>
      </trkpt>
      <trkpt lat="47.18469" lon="-1.58915">
        <ele>55</ele>
        <time>2020-09-26T12:52:27.000Z</time>
      </trkpt>
      <trkpt lat="47.18462" lon="-1.58925">
        <ele>56</ele>
        <time>2020-09-26T12:52:29.000Z</time>
      </trkpt>
      <trkpt lat="47.18453" lon="-1.58931">
        <ele>56</ele>
        <time>2020-09-26T12:52:31.000Z</time>
      </trkpt>
      <trkpt lat="47.18443" lon="-1.58938">
        <ele>57</ele>
        <time>2020-09-26T12:52:33.000Z</time>
      </trkpt>
      <trkpt lat="47.18434" lon="-1.58944">
        <ele>57</ele>
        <time>2020-09-26T12:52:35.000Z</time>
      </trkpt>
      <trkpt lat="47.18424" lon="-1.5895">
        <ele>58</ele>
        <time>2020-09-26T12:52:37.000Z</time>
      </trkpt>
      <trkpt lat="47.18415" lon="-1.58956">
        <ele>58</ele>
        <time>2020-09-26T12:52:39.000Z</time>
      </trkpt>
      <trkpt lat="47.18405" lon="-1.58962">
        <ele>59</ele>
        <time>2020-09-26T12:52:41.000Z</time>
      </trkpt>
      <trkpt lat="47.18397" lon="-1.58969">
        <ele>59</ele>
        <time>2020-09-26T12:52:43.000Z</time>
      </trkpt>
      <trkpt lat="47.18387" lon="-1.58975">
        <ele>59</ele>
        <time>2020-09-26T12:52:45.000Z</time>
      </trkpt>
      <trkpt lat="47.18378" lon="-1.5898">
        <ele>60</ele>
        <time>2020-09-26T12:52:47.000Z</time>
      </trkpt>
      <trkpt lat="47.18367" lon="-1.58987">
        <ele>61</ele>
        <time>2020-09-26T12:52:50.000Z</time>
      </trkpt>
      <trkpt lat="47.18357" lon="-1.58988">
        <ele>61</ele>
        <time>2020-09-26T12:52:53.000Z</time>
      </trkpt>
      <trkpt lat="47.18349" lon="-1.58975">
        <ele>62</ele>
        <time>2020-09-26T12:52:56.000Z</time>
      </trkpt>
      <trkpt lat="47.18342" lon="-1.58966">
        <ele>62</ele>
        <time>2020-09-26T12:52:58.000Z</time>
      </trkpt>
      <trkpt lat="47.18334" lon="-1.58957">
        <ele>63</ele>
        <time>2020-09-26T12:53:00.000Z</time>
      </trkpt>
      <trkpt lat="47.18325" lon="-1.58944">
        <ele>64</ele>
        <time>2020-09-26T12:53:03.000Z</time>
      </trkpt>
      <trkpt lat="47.1832" lon="-1.58929">
        <ele>64</ele>
        <time>2020-09-26T12:53:06.000Z</time>
      </trkpt>
      <trkpt lat="47.18319" lon="-1.58911">
        <ele>64</ele>
        <time>2020-09-26T12:53:09.000Z</time>
      </trkpt>
      <trkpt lat="47.18318" lon="-1.58894">
        <ele>65</ele>
        <time>2020-09-26T12:53:13.000Z</time>
      </trkpt>
      <trkpt lat="47.18308" lon="-1.58886">
        <ele>66</ele>
        <time>2020-09-26T13:37:52.010Z</time>
      </trkpt>
      <trkpt lat="47.18314" lon="-1.58877">
        <ele>54</ele>
        <time>2020-09-26T13:37:53.016Z</time>
      </trkpt>
      <trkpt lat="47.18318" lon="-1.58893">
        <ele>76</ele>
        <time>2020-09-26T13:37:55.280Z</time>
      </trkpt>
      <trkpt lat="47.18321" lon="-1.5891">
        <ele>69</ele>
        <time>2020-09-26T13:44:16.000Z</time>
      </trkpt>
      <trkpt lat="47.18323" lon="-1.58927">
        <ele>70</ele>
        <time>2020-09-26T13:44:19.000Z</time>
      </trkpt>
      <trkpt lat="47.18327" lon="-1.58943">
        <ele>69</ele>
        <time>2020-09-26T13:44:22.000Z</time>
      </trkpt>
      <trkpt lat="47.18333" lon="-1.58954">
        <ele>69</ele>
        <time>2020-09-26T13:44:24.000Z</time>
      </trkpt>
      <trkpt lat="47.18343" lon="-1.58966">
        <ele>70</ele>
        <time>2020-09-26T13:44:27.000Z</time>
      </trkpt>
      <trkpt lat="47.18349" lon="-1.58976">
        <ele>70</ele>
        <time>2020-09-26T13:44:29.000Z</time>
      </trkpt>
      <trkpt lat="47.18354" lon="-1.5899">
        <ele>69</ele>
        <time>2020-09-26T13:44:32.000Z</time>
      </trkpt>
      <trkpt lat="47.18349" lon="-1.59002">
        <ele>68</ele>
        <time>2020-09-26T13:44:34.000Z</time>
      </trkpt>
      <trkpt lat="47.18341" lon="-1.59013">
        <ele>68</ele>
        <time>2020-09-26T13:44:36.000Z</time>
      </trkpt>
      <trkpt lat="47.18334" lon="-1.59025">
        <ele>68</ele>
        <time>2020-09-26T13:44:38.000Z</time>
      </trkpt>
      <trkpt lat="47.18328" lon="-1.59041">
        <ele>68</ele>
        <time>2020-09-26T13:44:40.000Z</time>
      </trkpt>
      <trkpt lat="47.18322" lon="-1.59058">
        <ele>68</ele>
        <time>2020-09-26T13:44:42.000Z</time>
      </trkpt>
      <trkpt lat="47.18316" lon="-1.59076">
        <ele>67</ele>
        <time>2020-09-26T13:44:44.000Z</time>
      </trkpt>
      <trkpt lat="47.1831" lon="-1.59094">
        <ele>68</ele>
        <time>2020-09-26T13:44:46.000Z</time>
      </trkpt>
      <trkpt lat="47.18304" lon="-1.59113">
        <ele>68</ele>
        <time>2020-09-26T13:44:48.000Z</time>
      </trkpt>
      <trkpt lat="47.18298" lon="-1.59131">
        <ele>68</ele>
        <time>2020-09-26T13:44:50.000Z</time>
      </trkpt>
      <trkpt lat="47.18291" lon="-1.59149">
        <ele>68</ele>
        <time>2020-09-26T13:44:52.000Z</time>
      </trkpt>
      <trkpt lat="47.18286" lon="-1.59167">
        <ele>68</ele>
        <time>2020-09-26T13:44:54.000Z</time>
      </trkpt>
      <trkpt lat="47.1828" lon="-1.59184">
        <ele>68</ele>
        <time>2020-09-26T13:44:56.000Z</time>
      </trkpt>
      <trkpt lat="47.18276" lon="-1.59201">
        <ele>68</ele>
        <time>2020-09-26T13:44:58.000Z</time>
      </trkpt>
      <trkpt lat="47.18268" lon="-1.59215">
        <ele>68</ele>
        <time>2020-09-26T13:45:00.000Z</time>
      </trkpt>
      <trkpt lat="47.18256" lon="-1.59224">
        <ele>68</ele>
        <time>2020-09-26T13:45:02.000Z</time>
      </trkpt>
      <trkpt lat="47.18245" lon="-1.59235">
        <ele>68</ele>
        <time>2020-09-26T13:45:04.000Z</time>
      </trkpt>
      <trkpt lat="47.18235" lon="-1.59248">
        <ele>69</ele>
        <time>2020-09-26T13:45:06.000Z</time>
      </trkpt>
      <trkpt lat="47.18223" lon="-1.59261">
        <ele>69</ele>
        <time>2020-09-26T13:45:08.000Z</time>
      </trkpt>
      <trkpt lat="47.18211" lon="-1.59272">
        <ele>69</ele>
        <time>2020-09-26T13:45:10.000Z</time>
      </trkpt>
      <trkpt lat="47.182" lon="-1.59284">
        <ele>69</ele>
        <time>2020-09-26T13:45:12.000Z</time>
      </trkpt>
      <trkpt lat="47.18188" lon="-1.59296">
        <ele>69</ele>
        <time>2020-09-26T13:45:14.000Z</time>
      </trkpt>
      <trkpt lat="47.18176" lon="-1.59307">
        <ele>69</ele>
        <time>2020-09-26T13:45:16.000Z</time>
      </trkpt>
      <trkpt lat="47.18165" lon="-1.59319">
        <ele>69</ele>
        <time>2020-09-26T13:45:18.000Z</time>
      </trkpt>
      <trkpt lat="47.18153" lon="-1.5933">
        <ele>69</ele>
        <time>2020-09-26T13:45:20.000Z</time>
      </trkpt>
      <trkpt lat="47.18141" lon="-1.59342">
        <ele>69</ele>
        <time>2020-09-26T13:45:22.000Z</time>
      </trkpt>
      <trkpt lat="47.1813" lon="-1.59354">
        <ele>69</ele>
        <time>2020-09-26T13:45:24.000Z</time>
      </trkpt>
      <trkpt lat="47.18118" lon="-1.59365">
        <ele>68</ele>
        <time>2020-09-26T13:45:26.000Z</time>
      </trkpt>
      <trkpt lat="47.18107" lon="-1.59377">
        <ele>68</ele>
        <time>2020-09-26T13:45:28.000Z</time>
      </trkpt>
      <trkpt lat="47.18095" lon="-1.59388">
        <ele>68</ele>
        <time>2020-09-26T13:45:30.000Z</time>
      </trkpt>
      <trkpt lat="47.18083" lon="-1.59399">
        <ele>68</ele>
        <time>2020-09-26T13:45:32.000Z</time>
      </trkpt>
      <trkpt lat="47.18073" lon="-1.59411">
        <ele>67</ele>
        <time>2020-09-26T13:45:34.000Z</time>
      </trkpt>
      <trkpt lat="47.18063" lon="-1.59425">
        <ele>67</ele>
        <time>2020-09-26T13:45:36.000Z</time>
      </trkpt>
      <trkpt lat="47.18052" lon="-1.59439">
        <ele>68</ele>
        <time>2020-09-26T13:45:38.000Z</time>
      </trkpt>
      <trkpt lat="47.18043" lon="-1.59453">
        <ele>68</ele>
        <time>2020-09-26T13:45:40.000Z</time>
      </trkpt>
      <trkpt lat="47.18037" lon="-1.59471">
        <ele>68</ele>
        <time>2020-09-26T13:45:42.000Z</time>
      </trkpt>
      <trkpt lat="47.18032" lon="-1.59491">
        <ele>68</ele>
        <time>2020-09-26T13:45:44.000Z</time>
      </trkpt>
      <trkpt lat="47.18027" lon="-1.5951">
        <ele>69</ele>
        <time>2020-09-26T13:45:46.000Z</time>
      </trkpt>
      <trkpt lat="47.18022" lon="-1.59529">
        <ele>69</ele>
        <time>2020-09-26T13:45:48.000Z</time>
      </trkpt>
      <trkpt lat="47.18017" lon="-1.59548">
        <ele>69</ele>
        <time>2020-09-26T13:45:50.000Z</time>
      </trkpt>
      <trkpt lat="47.18012" lon="-1.59568">
        <ele>69</ele>
        <time>2020-09-26T13:45:52.000Z</time>
      </trkpt>
      <trkpt lat="47.18007" lon="-1.59587">
        <ele>69</ele>
        <time>2020-09-26T13:45:54.000Z</time>
      </trkpt>
      <trkpt lat="47.18002" lon="-1.59605">
        <ele>69</ele>
        <time>2020-09-26T13:45:56.000Z</time>
      </trkpt>
      <trkpt lat="47.17997" lon="-1.59623">
        <ele>68</ele>
        <time>2020-09-26T13:45:58.000Z</time>
      </trkpt>
      <trkpt lat="47.17992" lon="-1.59641">
        <ele>68</ele>
        <time>2020-09-26T13:46:00.000Z</time>
      </trkpt>
      <trkpt lat="47.17988" lon="-1.59661">
        <ele>68</ele>
        <time>2020-09-26T13:46:02.000Z</time>
      </trkpt>
      <trkpt lat="47.17983" lon="-1.5968">
        <ele>68</ele>
        <time>2020-09-26T13:46:04.000Z</time>
      </trkpt>
      <trkpt lat="47.17979" lon="-1.597">
        <ele>67</ele>
        <time>2020-09-26T13:46:06.000Z</time>
      </trkpt>
      <trkpt lat="47.17972" lon="-1.5972">
        <ele>66</ele>
        <time>2020-09-26T13:46:08.000Z</time>
      </trkpt>
      <trkpt lat="47.17966" lon="-1.59742">
        <ele>65</ele>
        <time>2020-09-26T13:46:10.000Z</time>
      </trkpt>
      <trkpt lat="47.1796" lon="-1.59763">
        <ele>64</ele>
        <time>2020-09-26T13:46:12.000Z</time>
      </trkpt>
      <trkpt lat="47.17954" lon="-1.59786">
        <ele>63</ele>
        <time>2020-09-26T13:46:14.000Z</time>
      </trkpt>
      <trkpt lat="47.1795" lon="-1.59811">
        <ele>61</ele>
        <time>2020-09-26T13:46:16.000Z</time>
      </trkpt>
      <trkpt lat="47.17946" lon="-1.59837">
        <ele>60</ele>
        <time>2020-09-26T13:46:18.000Z</time>
      </trkpt>
      <trkpt lat="47.17944" lon="-1.5985">
        <ele>59</ele>
        <time>2020-09-26T13:46:19.000Z</time>
      </trkpt>
      <trkpt lat="47.17941" lon="-1.59863">
        <ele>58</ele>
        <time>2020-09-26T13:46:20.000Z</time>
      </trkpt>
      <trkpt lat="47.17938" lon="-1.59876">
        <ele>58</ele>
        <time>2020-09-26T13:46:21.000Z</time>
      </trkpt>
      <trkpt lat="47.17934" lon="-1.5989">
        <ele>57</ele>
        <time>2020-09-26T13:46:22.000Z</time>
      </trkpt>
      <trkpt lat="47.17931" lon="-1.59904">
        <ele>57</ele>
        <time>2020-09-26T13:46:23.000Z</time>
      </trkpt>
      <trkpt lat="47.17929" lon="-1.59918">
        <ele>56</ele>
        <time>2020-09-26T13:46:24.000Z</time>
      </trkpt>
      <trkpt lat="47.17926" lon="-1.59931">
        <ele>56</ele>
        <time>2020-09-26T13:46:25.000Z</time>
      </trkpt>
      <trkpt lat="47.17918" lon="-1.59939">
        <ele>55</ele>
        <time>2020-09-26T13:46:26.000Z</time>
      </trkpt>
      <trkpt lat="47.17909" lon="-1.59943">
        <ele>55</ele>
        <time>2020-09-26T13:46:27.000Z</time>
      </trkpt>
      <trkpt lat="47.17892" lon="-1.59946">
        <ele>55</ele>
        <time>2020-09-26T13:46:29.000Z</time>
      </trkpt>
      <trkpt lat="47.1788" lon="-1.5996">
        <ele>55</ele>
        <time>2020-09-26T13:46:31.000Z</time>
      </trkpt>
      <trkpt lat="47.17869" lon="-1.59978">
        <ele>56</ele>
        <time>2020-09-26T13:46:33.000Z</time>
      </trkpt>
      <trkpt lat="47.17859" lon="-1.59996">
        <ele>56</ele>
        <time>2020-09-26T13:46:35.000Z</time>
      </trkpt>
      <trkpt lat="47.17849" lon="-1.60012">
        <ele>56</ele>
        <time>2020-09-26T13:46:37.000Z</time>
      </trkpt>
      <trkpt lat="47.1784" lon="-1.60029">
        <ele>56</ele>
        <time>2020-09-26T13:46:39.000Z</time>
      </trkpt>
      <trkpt lat="47.17831" lon="-1.60044">
        <ele>56</ele>
        <time>2020-09-26T13:46:41.000Z</time>
      </trkpt>
      <trkpt lat="47.17822" lon="-1.60061">
        <ele>57</ele>
        <time>2020-09-26T13:46:43.000Z</time>
      </trkpt>
      <trkpt lat="47.17813" lon="-1.60075">
        <ele>57</ele>
        <time>2020-09-26T13:46:45.000Z</time>
      </trkpt>
      <trkpt lat="47.17805" lon="-1.60089">
        <ele>58</ele>
        <time>2020-09-26T13:46:47.000Z</time>
      </trkpt>
      <trkpt lat="47.17796" lon="-1.60103">
        <ele>58</ele>
        <time>2020-09-26T13:46:49.000Z</time>
      </trkpt>
      <trkpt lat="47.17788" lon="-1.60118">
        <ele>59</ele>
        <time>2020-09-26T13:46:51.000Z</time>
      </trkpt>
      <trkpt lat="47.1778" lon="-1.60133">
        <ele>59</ele>
        <time>2020-09-26T13:46:53.000Z</time>
      </trkpt>
      <trkpt lat="47.17772" lon="-1.60147">
        <ele>60</ele>
        <time>2020-09-26T13:46:55.000Z</time>
      </trkpt>
      <trkpt lat="47.17763" lon="-1.60162">
        <ele>60</ele>
        <time>2020-09-26T13:46:57.000Z</time>
      </trkpt>
      <trkpt lat="47.17756" lon="-1.60178">
        <ele>61</ele>
        <time>2020-09-26T13:46:59.000Z</time>
      </trkpt>
      <trkpt lat="47.17751" lon="-1.60196">
        <ele>61</ele>
        <time>2020-09-26T13:47:01.000Z</time>
      </trkpt>
      <trkpt lat="47.17747" lon="-1.60214">
        <ele>62</ele>
        <time>2020-09-26T13:47:03.000Z</time>
      </trkpt>
      <trkpt lat="47.17743" lon="-1.60233">
        <ele>62</ele>
        <time>2020-09-26T13:47:05.000Z</time>
      </trkpt>
      <trkpt lat="47.17738" lon="-1.60252">
        <ele>63</ele>
        <time>2020-09-26T13:47:07.000Z</time>
      </trkpt>
      <trkpt lat="47.17732" lon="-1.60269">
        <ele>63</ele>
        <time>2020-09-26T13:47:09.000Z</time>
      </trkpt>
      <trkpt lat="47.17722" lon="-1.60284">
        <ele>64</ele>
        <time>2020-09-26T13:47:11.000Z</time>
      </trkpt>
      <trkpt lat="47.17712" lon="-1.60298">
        <ele>64</ele>
        <time>2020-09-26T13:47:13.000Z</time>
      </trkpt>
      <trkpt lat="47.17703" lon="-1.60312">
        <ele>64</ele>
        <time>2020-09-26T13:47:15.000Z</time>
      </trkpt>
      <trkpt lat="47.17693" lon="-1.60326">
        <ele>65</ele>
        <time>2020-09-26T13:47:17.000Z</time>
      </trkpt>
      <trkpt lat="47.17683" lon="-1.60339">
        <ele>65</ele>
        <time>2020-09-26T13:47:19.000Z</time>
      </trkpt>
      <trkpt lat="47.17673" lon="-1.60352">
        <ele>65</ele>
        <time>2020-09-26T13:47:21.000Z</time>
      </trkpt>
      <trkpt lat="47.17663" lon="-1.60366">
        <ele>65</ele>
        <time>2020-09-26T13:47:23.000Z</time>
      </trkpt>
      <trkpt lat="47.17654" lon="-1.60381">
        <ele>64</ele>
        <time>2020-09-26T13:47:25.000Z</time>
      </trkpt>
      <trkpt lat="47.17644" lon="-1.60396">
        <ele>64</ele>
        <time>2020-09-26T13:47:27.000Z</time>
      </trkpt>
      <trkpt lat="47.17634" lon="-1.60412">
        <ele>63</ele>
        <time>2020-09-26T13:47:29.000Z</time>
      </trkpt>
      <trkpt lat="47.17624" lon="-1.60429">
        <ele>63</ele>
        <time>2020-09-26T13:47:31.000Z</time>
      </trkpt>
      <trkpt lat="47.17613" lon="-1.60446">
        <ele>62</ele>
        <time>2020-09-26T13:47:33.000Z</time>
      </trkpt>
      <trkpt lat="47.17601" lon="-1.60463">
        <ele>62</ele>
        <time>2020-09-26T13:47:35.000Z</time>
      </trkpt>
      <trkpt lat="47.1759" lon="-1.60481">
        <ele>62</ele>
        <time>2020-09-26T13:47:37.000Z</time>
      </trkpt>
      <trkpt lat="47.17579" lon="-1.60499">
        <ele>62</ele>
        <time>2020-09-26T13:47:39.000Z</time>
      </trkpt>
      <trkpt lat="47.17569" lon="-1.60517">
        <ele>62</ele>
        <time>2020-09-26T13:47:41.000Z</time>
      </trkpt>
      <trkpt lat="47.17558" lon="-1.60535">
        <ele>62</ele>
        <time>2020-09-26T13:47:43.000Z</time>
      </trkpt>
      <trkpt lat="47.17548" lon="-1.60552">
        <ele>62</ele>
        <time>2020-09-26T13:47:45.000Z</time>
      </trkpt>
      <trkpt lat="47.17537" lon="-1.6057">
        <ele>62</ele>
        <time>2020-09-26T13:47:47.000Z</time>
      </trkpt>
      <trkpt lat="47.17527" lon="-1.60586">
        <ele>62</ele>
        <time>2020-09-26T13:47:49.000Z</time>
      </trkpt>
      <trkpt lat="47.17517" lon="-1.60603">
        <ele>61</ele>
        <time>2020-09-26T13:47:51.000Z</time>
      </trkpt>
      <trkpt lat="47.17506" lon="-1.60619">
        <ele>61</ele>
        <time>2020-09-26T13:47:53.000Z</time>
      </trkpt>
      <trkpt lat="47.17496" lon="-1.60635">
        <ele>61</ele>
        <time>2020-09-26T13:47:55.000Z</time>
      </trkpt>
      <trkpt lat="47.17486" lon="-1.60651">
        <ele>60</ele>
        <time>2020-09-26T13:47:57.000Z</time>
      </trkpt>
      <trkpt lat="47.17476" lon="-1.60668">
        <ele>60</ele>
        <time>2020-09-26T13:47:59.000Z</time>
      </trkpt>
      <trkpt lat="47.17466" lon="-1.60685">
        <ele>60</ele>
        <time>2020-09-26T13:48:01.000Z</time>
      </trkpt>
      <trkpt lat="47.17455" lon="-1.60703">
        <ele>59</ele>
        <time>2020-09-26T13:48:03.000Z</time>
      </trkpt>
      <trkpt lat="47.17445" lon="-1.6072">
        <ele>58</ele>
        <time>2020-09-26T13:48:05.000Z</time>
      </trkpt>
      <trkpt lat="47.17435" lon="-1.60737">
        <ele>58</ele>
        <time>2020-09-26T13:48:07.000Z</time>
      </trkpt>
      <trkpt lat="47.17426" lon="-1.60756">
        <ele>57</ele>
        <time>2020-09-26T13:48:09.000Z</time>
      </trkpt>
      <trkpt lat="47.17418" lon="-1.60776">
        <ele>56</ele>
        <time>2020-09-26T13:48:11.000Z</time>
      </trkpt>
      <trkpt lat="47.1741" lon="-1.60797">
        <ele>56</ele>
        <time>2020-09-26T13:48:13.000Z</time>
      </trkpt>
      <trkpt lat="47.17404" lon="-1.60819">
        <ele>55</ele>
        <time>2020-09-26T13:48:15.000Z</time>
      </trkpt>
      <trkpt lat="47.174" lon="-1.60842">
        <ele>54</ele>
        <time>2020-09-26T13:48:17.000Z</time>
      </trkpt>
      <trkpt lat="47.17397" lon="-1.60866">
        <ele>54</ele>
        <time>2020-09-26T13:48:19.000Z</time>
      </trkpt>
      <trkpt lat="47.17395" lon="-1.6089">
        <ele>53</ele>
        <time>2020-09-26T13:48:21.000Z</time>
      </trkpt>
      <trkpt lat="47.17395" lon="-1.60914">
        <ele>52</ele>
        <time>2020-09-26T13:48:23.000Z</time>
      </trkpt>
      <trkpt lat="47.17397" lon="-1.60938">
        <ele>52</ele>
        <time>2020-09-26T13:48:25.000Z</time>
      </trkpt>
      <trkpt lat="47.17402" lon="-1.6096">
        <ele>52</ele>
        <time>2020-09-26T13:48:27.000Z</time>
      </trkpt>
      <trkpt lat="47.1741" lon="-1.60979">
        <ele>52</ele>
        <time>2020-09-26T13:48:29.000Z</time>
      </trkpt>
      <trkpt lat="47.17418" lon="-1.60997">
        <ele>53</ele>
        <time>2020-09-26T13:48:31.000Z</time>
      </trkpt>
      <trkpt lat="47.17421" lon="-1.61019">
        <ele>53</ele>
        <time>2020-09-26T13:48:33.000Z</time>
      </trkpt>
      <trkpt lat="47.17422" lon="-1.6104">
        <ele>54</ele>
        <time>2020-09-26T13:48:35.000Z</time>
      </trkpt>
      <trkpt lat="47.17427" lon="-1.61058">
        <ele>54</ele>
        <time>2020-09-26T13:48:37.000Z</time>
      </trkpt>
      <trkpt lat="47.17434" lon="-1.61073">
        <ele>55</ele>
        <time>2020-09-26T13:48:39.000Z</time>
      </trkpt>
      <trkpt lat="47.17442" lon="-1.61088">
        <ele>56</ele>
        <time>2020-09-26T13:48:41.000Z</time>
      </trkpt>
      <trkpt lat="47.17448" lon="-1.61104">
        <ele>56</ele>
        <time>2020-09-26T13:48:43.000Z</time>
      </trkpt>
      <trkpt lat="47.17455" lon="-1.61121">
        <ele>57</ele>
        <time>2020-09-26T13:48:45.000Z</time>
      </trkpt>
      <trkpt lat="47.17461" lon="-1.61137">
        <ele>57</ele>
        <time>2020-09-26T13:48:47.000Z</time>
      </trkpt>
      <trkpt lat="47.17467" lon="-1.61153">
        <ele>57</ele>
        <time>2020-09-26T13:48:49.000Z</time>
      </trkpt>
      <trkpt lat="47.17474" lon="-1.6117">
        <ele>57</ele>
        <time>2020-09-26T13:48:51.000Z</time>
      </trkpt>
      <trkpt lat="47.1748" lon="-1.61186">
        <ele>58</ele>
        <time>2020-09-26T13:48:53.000Z</time>
      </trkpt>
      <trkpt lat="47.17487" lon="-1.61203">
        <ele>58</ele>
        <time>2020-09-26T13:48:55.000Z</time>
      </trkpt>
      <trkpt lat="47.17493" lon="-1.61219">
        <ele>58</ele>
        <time>2020-09-26T13:48:57.000Z</time>
      </trkpt>
      <trkpt lat="47.175" lon="-1.61234">
        <ele>58</ele>
        <time>2020-09-26T13:48:59.000Z</time>
      </trkpt>
      <trkpt lat="47.17507" lon="-1.61249">
        <ele>58</ele>
        <time>2020-09-26T13:49:01.000Z</time>
      </trkpt>
      <trkpt lat="47.17515" lon="-1.61264">
        <ele>58</ele>
        <time>2020-09-26T13:49:03.000Z</time>
      </trkpt>
      <trkpt lat="47.17524" lon="-1.61277">
        <ele>58</ele>
        <time>2020-09-26T13:49:05.000Z</time>
      </trkpt>
      <trkpt lat="47.17535" lon="-1.61285">
        <ele>58</ele>
        <time>2020-09-26T13:49:07.000Z</time>
      </trkpt>
      <trkpt lat="47.17546" lon="-1.61293">
        <ele>59</ele>
        <time>2020-09-26T13:49:09.000Z</time>
      </trkpt>
      <trkpt lat="47.17557" lon="-1.61305">
        <ele>59</ele>
        <time>2020-09-26T13:49:11.000Z</time>
      </trkpt>
      <trkpt lat="47.1756" lon="-1.61325">
        <ele>59</ele>
        <time>2020-09-26T13:49:13.000Z</time>
      </trkpt>
      <trkpt lat="47.17555" lon="-1.61344">
        <ele>59</ele>
        <time>2020-09-26T13:49:15.000Z</time>
      </trkpt>
      <trkpt lat="47.17544" lon="-1.61356">
        <ele>58</ele>
        <time>2020-09-26T13:49:17.000Z</time>
      </trkpt>
      <trkpt lat="47.17534" lon="-1.61368">
        <ele>57</ele>
        <time>2020-09-26T13:49:19.000Z</time>
      </trkpt>
      <trkpt lat="47.17527" lon="-1.61386">
        <ele>58</ele>
        <time>2020-09-26T13:49:21.000Z</time>
      </trkpt>
      <trkpt lat="47.17523" lon="-1.61405">
        <ele>58</ele>
        <time>2020-09-26T13:49:23.000Z</time>
      </trkpt>
      <trkpt lat="47.17519" lon="-1.61422">
        <ele>59</ele>
        <time>2020-09-26T13:49:25.000Z</time>
      </trkpt>
      <trkpt lat="47.17516" lon="-1.61439">
        <ele>60</ele>
        <time>2020-09-26T13:49:27.000Z</time>
      </trkpt>
      <trkpt lat="47.17512" lon="-1.61453">
        <ele>60</ele>
        <time>2020-09-26T13:49:29.000Z</time>
      </trkpt>
      <trkpt lat="47.17504" lon="-1.61462">
        <ele>61</ele>
        <time>2020-09-26T13:49:31.000Z</time>
      </trkpt>
      <trkpt lat="47.17493" lon="-1.61468">
        <ele>61</ele>
        <time>2020-09-26T13:49:33.000Z</time>
      </trkpt>
      <trkpt lat="47.17481" lon="-1.61472">
        <ele>61</ele>
        <time>2020-09-26T13:49:35.000Z</time>
      </trkpt>
      <trkpt lat="47.17469" lon="-1.61478">
        <ele>62</ele>
        <time>2020-09-26T13:49:37.000Z</time>
      </trkpt>
      <trkpt lat="47.17458" lon="-1.61483">
        <ele>62</ele>
        <time>2020-09-26T13:49:39.000Z</time>
      </trkpt>
      <trkpt lat="47.17445" lon="-1.61489">
        <ele>63</ele>
        <time>2020-09-26T13:49:41.000Z</time>
      </trkpt>
      <trkpt lat="47.17434" lon="-1.61495">
        <ele>63</ele>
        <time>2020-09-26T13:49:43.000Z</time>
      </trkpt>
      <trkpt lat="47.17423" lon="-1.61503">
        <ele>64</ele>
        <time>2020-09-26T13:49:45.000Z</time>
      </trkpt>
      <trkpt lat="47.17412" lon="-1.6151">
        <ele>64</ele>
        <time>2020-09-26T13:49:47.000Z</time>
      </trkpt>
      <trkpt lat="47.17402" lon="-1.61518">
        <ele>65</ele>
        <time>2020-09-26T13:49:49.000Z</time>
      </trkpt>
      <trkpt lat="47.17392" lon="-1.61526">
        <ele>66</ele>
        <time>2020-09-26T13:49:51.000Z</time>
      </trkpt>
      <trkpt lat="47.17382" lon="-1.61535">
        <ele>66</ele>
        <time>2020-09-26T13:49:53.000Z</time>
      </trkpt>
      <trkpt lat="47.17372" lon="-1.61546">
        <ele>67</ele>
        <time>2020-09-26T13:49:55.000Z</time>
      </trkpt>
      <trkpt lat="47.17362" lon="-1.61556">
        <ele>67</ele>
        <time>2020-09-26T13:49:57.000Z</time>
      </trkpt>
      <trkpt lat="47.17353" lon="-1.61566">
        <ele>67</ele>
        <time>2020-09-26T13:49:59.000Z</time>
      </trkpt>
      <trkpt lat="47.17345" lon="-1.61577">
        <ele>67</ele>
        <time>2020-09-26T13:50:01.000Z</time>
      </trkpt>
      <trkpt lat="47.17336" lon="-1.61587">
        <ele>67</ele>
        <time>2020-09-26T13:50:03.000Z</time>
      </trkpt>
      <trkpt lat="47.17326" lon="-1.61598">
        <ele>67</ele>
        <time>2020-09-26T13:50:05.000Z</time>
      </trkpt>
      <trkpt lat="47.17318" lon="-1.61611">
        <ele>67</ele>
        <time>2020-09-26T13:50:07.000Z</time>
      </trkpt>
      <trkpt lat="47.17309" lon="-1.61624">
        <ele>67</ele>
        <time>2020-09-26T13:50:09.000Z</time>
      </trkpt>
      <trkpt lat="47.173" lon="-1.61638">
        <ele>67</ele>
        <time>2020-09-26T13:50:11.000Z</time>
      </trkpt>
      <trkpt lat="47.17292" lon="-1.61652">
        <ele>68</ele>
        <time>2020-09-26T13:50:13.000Z</time>
      </trkpt>
      <trkpt lat="47.17284" lon="-1.61666">
        <ele>68</ele>
        <time>2020-09-26T13:50:15.000Z</time>
      </trkpt>
      <trkpt lat="47.17277" lon="-1.61682">
        <ele>68</ele>
        <time>2020-09-26T13:50:17.000Z</time>
      </trkpt>
      <trkpt lat="47.1727" lon="-1.61696">
        <ele>68</ele>
        <time>2020-09-26T13:50:19.000Z</time>
      </trkpt>
      <trkpt lat="47.17262" lon="-1.61711">
        <ele>67</ele>
        <time>2020-09-26T13:50:21.000Z</time>
      </trkpt>
      <trkpt lat="47.17255" lon="-1.61727">
        <ele>68</ele>
        <time>2020-09-26T13:50:23.000Z</time>
      </trkpt>
      <trkpt lat="47.17248" lon="-1.61743">
        <ele>67</ele>
        <time>2020-09-26T13:50:25.000Z</time>
      </trkpt>
      <trkpt lat="47.17245" lon="-1.61759">
        <ele>67</ele>
        <time>2020-09-26T13:50:27.000Z</time>
      </trkpt>
      <trkpt lat="47.1724" lon="-1.61777">
        <ele>66</ele>
        <time>2020-09-26T13:50:29.000Z</time>
      </trkpt>
      <trkpt lat="47.1723" lon="-1.61789">
        <ele>66</ele>
        <time>2020-09-26T13:50:31.000Z</time>
      </trkpt>
      <trkpt lat="47.17218" lon="-1.61798">
        <ele>66</ele>
        <time>2020-09-26T13:50:33.000Z</time>
      </trkpt>
      <trkpt lat="47.17207" lon="-1.61808">
        <ele>65</ele>
        <time>2020-09-26T13:50:35.000Z</time>
      </trkpt>
      <trkpt lat="47.17195" lon="-1.61817">
        <ele>65</ele>
        <time>2020-09-26T13:50:37.000Z</time>
      </trkpt>
      <trkpt lat="47.17184" lon="-1.61827">
        <ele>65</ele>
        <time>2020-09-26T13:50:39.000Z</time>
      </trkpt>
      <trkpt lat="47.17173" lon="-1.61838">
        <ele>65</ele>
        <time>2020-09-26T13:50:41.000Z</time>
      </trkpt>
      <trkpt lat="47.17163" lon="-1.61848">
        <ele>65</ele>
        <time>2020-09-26T13:50:43.000Z</time>
      </trkpt>
      <trkpt lat="47.17152" lon="-1.61859">
        <ele>65</ele>
        <time>2020-09-26T13:50:45.000Z</time>
      </trkpt>
      <trkpt lat="47.17141" lon="-1.61869">
        <ele>65</ele>
        <time>2020-09-26T13:50:47.000Z</time>
      </trkpt>
      <trkpt lat="47.1713" lon="-1.61879">
        <ele>64</ele>
        <time>2020-09-26T13:50:49.000Z</time>
      </trkpt>
      <trkpt lat="47.17119" lon="-1.6189">
        <ele>64</ele>
        <time>2020-09-26T13:50:51.000Z</time>
      </trkpt>
      <trkpt lat="47.17109" lon="-1.61901">
        <ele>64</ele>
        <time>2020-09-26T13:50:53.000Z</time>
      </trkpt>
      <trkpt lat="47.17097" lon="-1.61911">
        <ele>64</ele>
        <time>2020-09-26T13:50:55.000Z</time>
      </trkpt>
      <trkpt lat="47.17086" lon="-1.61921">
        <ele>64</ele>
        <time>2020-09-26T13:50:57.000Z</time>
      </trkpt>
      <trkpt lat="47.17077" lon="-1.61931">
        <ele>64</ele>
        <time>2020-09-26T13:50:59.000Z</time>
      </trkpt>
      <trkpt lat="47.17067" lon="-1.61942">
        <ele>64</ele>
        <time>2020-09-26T13:51:01.000Z</time>
      </trkpt>
      <trkpt lat="47.17057" lon="-1.61955">
        <ele>64</ele>
        <time>2020-09-26T13:51:03.000Z</time>
      </trkpt>
      <trkpt lat="47.17047" lon="-1.61968">
        <ele>65</ele>
        <time>2020-09-26T13:51:05.000Z</time>
      </trkpt>
      <trkpt lat="47.17038" lon="-1.61982">
        <ele>65</ele>
        <time>2020-09-26T13:51:07.000Z</time>
      </trkpt>
      <trkpt lat="47.1703" lon="-1.61995">
        <ele>65</ele>
        <time>2020-09-26T13:51:09.000Z</time>
      </trkpt>
      <trkpt lat="47.1702" lon="-1.62008">
        <ele>65</ele>
        <time>2020-09-26T13:51:11.000Z</time>
      </trkpt>
      <trkpt lat="47.17011" lon="-1.62022">
        <ele>65</ele>
        <time>2020-09-26T13:51:13.000Z</time>
      </trkpt>
      <trkpt lat="47.17002" lon="-1.62037">
        <ele>65</ele>
        <time>2020-09-26T13:51:15.000Z</time>
      </trkpt>
      <trkpt lat="47.16994" lon="-1.62051">
        <ele>65</ele>
        <time>2020-09-26T13:51:17.000Z</time>
      </trkpt>
      <trkpt lat="47.16986" lon="-1.62066">
        <ele>65</ele>
        <time>2020-09-26T13:51:19.000Z</time>
      </trkpt>
      <trkpt lat="47.16977" lon="-1.62081">
        <ele>65</ele>
        <time>2020-09-26T13:51:21.000Z</time>
      </trkpt>
      <trkpt lat="47.16969" lon="-1.62095">
        <ele>65</ele>
        <time>2020-09-26T13:51:23.000Z</time>
      </trkpt>
      <trkpt lat="47.16961" lon="-1.6211">
        <ele>65</ele>
        <time>2020-09-26T13:51:25.000Z</time>
      </trkpt>
      <trkpt lat="47.16953" lon="-1.62125">
        <ele>65</ele>
        <time>2020-09-26T13:51:27.000Z</time>
      </trkpt>
      <trkpt lat="47.16945" lon="-1.6214">
        <ele>65</ele>
        <time>2020-09-26T13:51:29.000Z</time>
      </trkpt>
      <trkpt lat="47.16937" lon="-1.62156">
        <ele>65</ele>
        <time>2020-09-26T13:51:31.000Z</time>
      </trkpt>
      <trkpt lat="47.16931" lon="-1.6217">
        <ele>64</ele>
        <time>2020-09-26T13:51:33.000Z</time>
      </trkpt>
      <trkpt lat="47.16923" lon="-1.62186">
        <ele>65</ele>
        <time>2020-09-26T13:51:35.000Z</time>
      </trkpt>
      <trkpt lat="47.16915" lon="-1.62201">
        <ele>65</ele>
        <time>2020-09-26T13:51:37.000Z</time>
      </trkpt>
      <trkpt lat="47.16906" lon="-1.62214">
        <ele>65</ele>
        <time>2020-09-26T13:51:39.000Z</time>
      </trkpt>
      <trkpt lat="47.16896" lon="-1.62228">
        <ele>65</ele>
        <time>2020-09-26T13:51:41.000Z</time>
      </trkpt>
      <trkpt lat="47.16886" lon="-1.62241">
        <ele>66</ele>
        <time>2020-09-26T13:51:43.000Z</time>
      </trkpt>
      <trkpt lat="47.16875" lon="-1.62254">
        <ele>66</ele>
        <time>2020-09-26T13:51:45.000Z</time>
      </trkpt>
      <trkpt lat="47.16866" lon="-1.62266">
        <ele>67</ele>
        <time>2020-09-26T13:51:47.000Z</time>
      </trkpt>
      <trkpt lat="47.16855" lon="-1.62279">
        <ele>67</ele>
        <time>2020-09-26T13:51:49.000Z</time>
      </trkpt>
      <trkpt lat="47.16845" lon="-1.6229">
        <ele>67</ele>
        <time>2020-09-26T13:51:51.000Z</time>
      </trkpt>
      <trkpt lat="47.16835" lon="-1.62302">
        <ele>67</ele>
        <time>2020-09-26T13:51:53.000Z</time>
      </trkpt>
      <trkpt lat="47.16824" lon="-1.62313">
        <ele>67</ele>
        <time>2020-09-26T13:51:55.000Z</time>
      </trkpt>
      <trkpt lat="47.16812" lon="-1.62321">
        <ele>67</ele>
        <time>2020-09-26T13:51:57.000Z</time>
      </trkpt>
      <trkpt lat="47.16801" lon="-1.62329">
        <ele>67</ele>
        <time>2020-09-26T13:51:59.000Z</time>
      </trkpt>
      <trkpt lat="47.16789" lon="-1.62335">
        <ele>66</ele>
        <time>2020-09-26T13:52:01.000Z</time>
      </trkpt>
      <trkpt lat="47.16777" lon="-1.62342">
        <ele>66</ele>
        <time>2020-09-26T13:52:03.000Z</time>
      </trkpt>
      <trkpt lat="47.16765" lon="-1.62351">
        <ele>66</ele>
        <time>2020-09-26T13:52:05.000Z</time>
      </trkpt>
      <trkpt lat="47.16753" lon="-1.6236">
        <ele>65</ele>
        <time>2020-09-26T13:52:07.000Z</time>
      </trkpt>
      <trkpt lat="47.16743" lon="-1.62372">
        <ele>65</ele>
        <time>2020-09-26T13:52:09.000Z</time>
      </trkpt>
      <trkpt lat="47.16735" lon="-1.62387">
        <ele>64</ele>
        <time>2020-09-26T13:52:11.000Z</time>
      </trkpt>
      <trkpt lat="47.16731" lon="-1.62404">
        <ele>64</ele>
        <time>2020-09-26T13:52:13.000Z</time>
      </trkpt>
      <trkpt lat="47.16729" lon="-1.62421">
        <ele>64</ele>
        <time>2020-09-26T13:52:15.000Z</time>
      </trkpt>
      <trkpt lat="47.16726" lon="-1.62439">
        <ele>64</ele>
        <time>2020-09-26T13:52:17.000Z</time>
      </trkpt>
      <trkpt lat="47.16721" lon="-1.62456">
        <ele>64</ele>
        <time>2020-09-26T13:52:19.000Z</time>
      </trkpt>
      <trkpt lat="47.16717" lon="-1.62473">
        <ele>64</ele>
        <time>2020-09-26T13:52:21.000Z</time>
      </trkpt>
      <trkpt lat="47.16716" lon="-1.6249">
        <ele>64</ele>
        <time>2020-09-26T13:52:23.000Z</time>
      </trkpt>
      <trkpt lat="47.16726" lon="-1.62498">
        <ele>65</ele>
        <time>2020-09-26T13:52:25.000Z</time>
      </trkpt>
      <trkpt lat="47.16739" lon="-1.62504">
        <ele>65</ele>
        <time>2020-09-26T13:52:27.000Z</time>
      </trkpt>
      <trkpt lat="47.16752" lon="-1.6251">
        <ele>65</ele>
        <time>2020-09-26T13:52:29.000Z</time>
      </trkpt>
      <trkpt lat="47.16764" lon="-1.62517">
        <ele>66</ele>
        <time>2020-09-26T13:52:31.000Z</time>
      </trkpt>
      <trkpt lat="47.16776" lon="-1.62523">
        <ele>66</ele>
        <time>2020-09-26T13:52:33.000Z</time>
      </trkpt>
      <trkpt lat="47.16787" lon="-1.6253">
        <ele>67</ele>
        <time>2020-09-26T13:52:35.000Z</time>
      </trkpt>
      <trkpt lat="47.16798" lon="-1.62538">
        <ele>67</ele>
        <time>2020-09-26T13:52:37.000Z</time>
      </trkpt>
      <trkpt lat="47.16808" lon="-1.62545">
        <ele>67</ele>
        <time>2020-09-26T13:52:39.000Z</time>
      </trkpt>
      <trkpt lat="47.16818" lon="-1.62553">
        <ele>68</ele>
        <time>2020-09-26T13:52:41.000Z</time>
      </trkpt>
      <trkpt lat="47.16827" lon="-1.62563">
        <ele>68</ele>
        <time>2020-09-26T13:52:43.000Z</time>
      </trkpt>
      <trkpt lat="47.16832" lon="-1.62579">
        <ele>68</ele>
        <time>2020-09-26T13:52:45.000Z</time>
      </trkpt>
      <trkpt lat="47.16826" lon="-1.62595">
        <ele>68</ele>
        <time>2020-09-26T13:52:47.000Z</time>
      </trkpt>
      <trkpt lat="47.16817" lon="-1.62608">
        <ele>68</ele>
        <time>2020-09-26T13:52:49.000Z</time>
      </trkpt>
      <trkpt lat="47.16808" lon="-1.62621">
        <ele>68</ele>
        <time>2020-09-26T13:52:51.000Z</time>
      </trkpt>
      <trkpt lat="47.168" lon="-1.62635">
        <ele>68</ele>
        <time>2020-09-26T13:52:53.000Z</time>
      </trkpt>
      <trkpt lat="47.16794" lon="-1.62647">
        <ele>68</ele>
        <time>2020-09-26T13:52:55.000Z</time>
      </trkpt>
      <trkpt lat="47.16788" lon="-1.62658">
        <ele>69</ele>
        <time>2020-09-26T13:52:57.000Z</time>
      </trkpt>
      <trkpt lat="47.16778" lon="-1.62658">
        <ele>68</ele>
        <time>2020-09-26T13:53:00.000Z</time>
      </trkpt>
    </trkseg>
  </trk>
</gpx>